<?xml version="1.0" encoding="UTF-8" standalone="no" ?>
<gpx xmlns="http://www.topografix.com/GPX/1/1" xmlns:xsi="http://www.w3.org/2001/XMLSchema-instance" xsi:schemaLocation="http://www.topografix.com/GPX/1/1 http://www.topografix.com/GPX/1/1/gpx.xsd" version="1.1" creator="VisuGPX - https://www.visugpx.com">
  <metadata>
    <name>23 exploration bénirez olon 3</name>
  </metadata>
  <trk>
    <name><![CDATA[23 exploration bénirez olon 3_1]]></name>
    <trkseg>
      <trkpt lat="44.30792" lon="5.18403">
        <ele>472.5</ele>
        <time>2022-07-19T06:57:42Z</time>
      </trkpt>
      <trkpt lat="44.30806" lon="5.18398">
        <ele>472.9</ele>
        <time>2022-07-19T06:57:43Z</time>
      </trkpt>
      <trkpt lat="44.30806" lon="5.18398">
        <ele>472.9</ele>
        <time>2022-07-19T06:57:44Z</time>
      </trkpt>
      <trkpt lat="44.30802" lon="5.18395">
        <ele>473</ele>
        <time>2022-07-19T06:57:45Z</time>
      </trkpt>
      <trkpt lat="44.30804" lon="5.18396">
        <ele>473.1</ele>
        <time>2022-07-19T06:57:46Z</time>
      </trkpt>
      <trkpt lat="44.30804" lon="5.18396">
        <ele>473.1</ele>
        <time>2022-07-19T06:57:47Z</time>
      </trkpt>
      <trkpt lat="44.30799" lon="5.18394">
        <ele>473.2</ele>
        <time>2022-07-19T06:57:48Z</time>
      </trkpt>
      <trkpt lat="44.30799" lon="5.18396">
        <ele>473.2</ele>
        <time>2022-07-19T06:57:49Z</time>
      </trkpt>
      <trkpt lat="44.30802" lon="5.18395">
        <ele>473.3</ele>
        <time>2022-07-19T06:57:50Z</time>
      </trkpt>
      <trkpt lat="44.30802" lon="5.18395">
        <ele>473.3</ele>
        <time>2022-07-19T06:57:51Z</time>
      </trkpt>
      <trkpt lat="44.30802" lon="5.18395">
        <ele>473.3</ele>
        <time>2022-07-19T06:57:52Z</time>
      </trkpt>
      <trkpt lat="44.30802" lon="5.18395">
        <ele>473.3</ele>
        <time>2022-07-19T06:57:53Z</time>
      </trkpt>
      <trkpt lat="44.308" lon="5.18394">
        <ele>473.3</ele>
        <time>2022-07-19T06:57:54Z</time>
      </trkpt>
      <trkpt lat="44.308" lon="5.18394">
        <ele>473.3</ele>
        <time>2022-07-19T06:57:55Z</time>
      </trkpt>
      <trkpt lat="44.30801" lon="5.18396">
        <ele>473.4</ele>
        <time>2022-07-19T06:57:56Z</time>
      </trkpt>
      <trkpt lat="44.30801" lon="5.18396">
        <ele>473.4</ele>
        <time>2022-07-19T06:57:57Z</time>
      </trkpt>
      <trkpt lat="44.30801" lon="5.18395">
        <ele>473.4</ele>
        <time>2022-07-19T06:57:58Z</time>
      </trkpt>
      <trkpt lat="44.30801" lon="5.18395">
        <ele>473.4</ele>
        <time>2022-07-19T06:57:59Z</time>
      </trkpt>
      <trkpt lat="44.30801" lon="5.18395">
        <ele>473.4</ele>
        <time>2022-07-19T06:58:00Z</time>
      </trkpt>
      <trkpt lat="44.30801" lon="5.18395">
        <ele>473.4</ele>
        <time>2022-07-19T06:58:01Z</time>
      </trkpt>
      <trkpt lat="44.30799" lon="5.18391">
        <ele>473.5</ele>
        <time>2022-07-19T06:58:17Z</time>
      </trkpt>
      <trkpt lat="44.30798" lon="5.1839">
        <ele>473.5</ele>
        <time>2022-07-19T06:58:18Z</time>
      </trkpt>
      <trkpt lat="44.30797" lon="5.1839">
        <ele>473.5</ele>
        <time>2022-07-19T06:58:19Z</time>
      </trkpt>
      <trkpt lat="44.30796" lon="5.18389">
        <ele>473.6</ele>
        <time>2022-07-19T06:58:20Z</time>
      </trkpt>
      <trkpt lat="44.30795" lon="5.18389">
        <ele>473.6</ele>
        <time>2022-07-19T06:58:21Z</time>
      </trkpt>
      <trkpt lat="44.30794" lon="5.1839">
        <ele>473.6</ele>
        <time>2022-07-19T06:58:22Z</time>
      </trkpt>
      <trkpt lat="44.30793" lon="5.18392">
        <ele>473.7</ele>
        <time>2022-07-19T06:58:23Z</time>
      </trkpt>
      <trkpt lat="44.30792" lon="5.18393">
        <ele>473.7</ele>
        <time>2022-07-19T06:58:24Z</time>
      </trkpt>
      <trkpt lat="44.30792" lon="5.18393">
        <ele>473.7</ele>
        <time>2022-07-19T06:58:25Z</time>
      </trkpt>
      <trkpt lat="44.30791" lon="5.18394">
        <ele>473.7</ele>
        <time>2022-07-19T06:58:26Z</time>
      </trkpt>
      <trkpt lat="44.30791" lon="5.18396">
        <ele>473.8</ele>
        <time>2022-07-19T06:58:27Z</time>
      </trkpt>
      <trkpt lat="44.30791" lon="5.18398">
        <ele>473.8</ele>
        <time>2022-07-19T06:58:28Z</time>
      </trkpt>
      <trkpt lat="44.30791" lon="5.18399">
        <ele>473.8</ele>
        <time>2022-07-19T06:58:29Z</time>
      </trkpt>
      <trkpt lat="44.30792" lon="5.18401">
        <ele>473.8</ele>
        <time>2022-07-19T06:58:30Z</time>
      </trkpt>
      <trkpt lat="44.30792" lon="5.18401">
        <ele>473.8</ele>
        <time>2022-07-19T06:58:31Z</time>
      </trkpt>
      <trkpt lat="44.30792" lon="5.18401">
        <ele>473.8</ele>
        <time>2022-07-19T06:58:32Z</time>
      </trkpt>
      <trkpt lat="44.30792" lon="5.18401">
        <ele>473.8</ele>
        <time>2022-07-19T06:58:33Z</time>
      </trkpt>
      <trkpt lat="44.30792" lon="5.18401">
        <ele>473.8</ele>
        <time>2022-07-19T06:58:34Z</time>
      </trkpt>
      <trkpt lat="44.30792" lon="5.18401">
        <ele>473.8</ele>
        <time>2022-07-19T06:58:35Z</time>
      </trkpt>
      <trkpt lat="44.30792" lon="5.18401">
        <ele>473.8</ele>
        <time>2022-07-19T06:58:36Z</time>
      </trkpt>
      <trkpt lat="44.30792" lon="5.18401">
        <ele>473.8</ele>
        <time>2022-07-19T06:58:37Z</time>
      </trkpt>
      <trkpt lat="44.30792" lon="5.18401">
        <ele>473.8</ele>
        <time>2022-07-19T06:58:38Z</time>
      </trkpt>
      <trkpt lat="44.30792" lon="5.18401">
        <ele>473.8</ele>
        <time>2022-07-19T06:58:39Z</time>
      </trkpt>
      <trkpt lat="44.30792" lon="5.18401">
        <ele>473.8</ele>
        <time>2022-07-19T06:58:40Z</time>
      </trkpt>
      <trkpt lat="44.30791" lon="5.18403">
        <ele>473.9</ele>
        <time>2022-07-19T07:00:14Z</time>
      </trkpt>
      <trkpt lat="44.30792" lon="5.18405">
        <ele>473.9</ele>
        <time>2022-07-19T07:00:15Z</time>
      </trkpt>
      <trkpt lat="44.30793" lon="5.18406">
        <ele>474</ele>
        <time>2022-07-19T07:00:16Z</time>
      </trkpt>
      <trkpt lat="44.30796" lon="5.18408">
        <ele>474.1</ele>
        <time>2022-07-19T07:00:17Z</time>
      </trkpt>
      <trkpt lat="44.30796" lon="5.18409">
        <ele>474.1</ele>
        <time>2022-07-19T07:00:18Z</time>
      </trkpt>
      <trkpt lat="44.30799" lon="5.18411">
        <ele>474.2</ele>
        <time>2022-07-19T07:00:19Z</time>
      </trkpt>
      <trkpt lat="44.308" lon="5.18412">
        <ele>474.2</ele>
        <time>2022-07-19T07:00:20Z</time>
      </trkpt>
      <trkpt lat="44.30803" lon="5.18414">
        <ele>474.3</ele>
        <time>2022-07-19T07:00:21Z</time>
      </trkpt>
      <trkpt lat="44.30804" lon="5.18415">
        <ele>474.3</ele>
        <time>2022-07-19T07:00:22Z</time>
      </trkpt>
      <trkpt lat="44.30807" lon="5.18417">
        <ele>474.4</ele>
        <time>2022-07-19T07:00:23Z</time>
      </trkpt>
      <trkpt lat="44.30808" lon="5.18418">
        <ele>474.4</ele>
        <time>2022-07-19T07:00:24Z</time>
      </trkpt>
      <trkpt lat="44.3081" lon="5.1842">
        <ele>474.5</ele>
        <time>2022-07-19T07:00:25Z</time>
      </trkpt>
      <trkpt lat="44.30811" lon="5.18421">
        <ele>474.5</ele>
        <time>2022-07-19T07:00:26Z</time>
      </trkpt>
      <trkpt lat="44.30814" lon="5.18422">
        <ele>474.6</ele>
        <time>2022-07-19T07:00:27Z</time>
      </trkpt>
      <trkpt lat="44.30816" lon="5.18423">
        <ele>474.6</ele>
        <time>2022-07-19T07:00:28Z</time>
      </trkpt>
      <trkpt lat="44.30819" lon="5.18424">
        <ele>474.7</ele>
        <time>2022-07-19T07:00:29Z</time>
      </trkpt>
      <trkpt lat="44.3082" lon="5.18425">
        <ele>474.7</ele>
        <time>2022-07-19T07:00:30Z</time>
      </trkpt>
      <trkpt lat="44.30824" lon="5.18426">
        <ele>474.8</ele>
        <time>2022-07-19T07:00:31Z</time>
      </trkpt>
      <trkpt lat="44.30825" lon="5.18426">
        <ele>474.8</ele>
        <time>2022-07-19T07:00:32Z</time>
      </trkpt>
      <trkpt lat="44.30828" lon="5.18428">
        <ele>474.9</ele>
        <time>2022-07-19T07:00:33Z</time>
      </trkpt>
      <trkpt lat="44.30829" lon="5.18428">
        <ele>474.9</ele>
        <time>2022-07-19T07:00:34Z</time>
      </trkpt>
      <trkpt lat="44.3083" lon="5.18429">
        <ele>474.9</ele>
        <time>2022-07-19T07:00:35Z</time>
      </trkpt>
      <trkpt lat="44.30832" lon="5.1843">
        <ele>475</ele>
        <time>2022-07-19T07:00:36Z</time>
      </trkpt>
      <trkpt lat="44.30833" lon="5.18431">
        <ele>475</ele>
        <time>2022-07-19T07:00:37Z</time>
      </trkpt>
      <trkpt lat="44.30835" lon="5.18432">
        <ele>475</ele>
        <time>2022-07-19T07:00:38Z</time>
      </trkpt>
      <trkpt lat="44.30839" lon="5.18432">
        <ele>475.1</ele>
        <time>2022-07-19T07:00:39Z</time>
      </trkpt>
      <trkpt lat="44.3084" lon="5.18433">
        <ele>475.1</ele>
        <time>2022-07-19T07:00:40Z</time>
      </trkpt>
      <trkpt lat="44.30843" lon="5.18433">
        <ele>475.1</ele>
        <time>2022-07-19T07:00:41Z</time>
      </trkpt>
      <trkpt lat="44.30844" lon="5.18433">
        <ele>475.2</ele>
        <time>2022-07-19T07:00:42Z</time>
      </trkpt>
      <trkpt lat="44.30846" lon="5.18433">
        <ele>475.2</ele>
        <time>2022-07-19T07:00:43Z</time>
      </trkpt>
      <trkpt lat="44.30848" lon="5.18434">
        <ele>475.2</ele>
        <time>2022-07-19T07:00:44Z</time>
      </trkpt>
      <trkpt lat="44.30849" lon="5.18435">
        <ele>475.2</ele>
        <time>2022-07-19T07:00:45Z</time>
      </trkpt>
      <trkpt lat="44.30851" lon="5.18436">
        <ele>475.2</ele>
        <time>2022-07-19T07:00:46Z</time>
      </trkpt>
      <trkpt lat="44.30852" lon="5.18437">
        <ele>475.3</ele>
        <time>2022-07-19T07:00:47Z</time>
      </trkpt>
      <trkpt lat="44.30853" lon="5.18438">
        <ele>475.3</ele>
        <time>2022-07-19T07:00:48Z</time>
      </trkpt>
      <trkpt lat="44.30854" lon="5.18439">
        <ele>475.3</ele>
        <time>2022-07-19T07:00:49Z</time>
      </trkpt>
      <trkpt lat="44.30856" lon="5.1844">
        <ele>475.3</ele>
        <time>2022-07-19T07:00:50Z</time>
      </trkpt>
      <trkpt lat="44.30858" lon="5.18441">
        <ele>475.3</ele>
        <time>2022-07-19T07:00:51Z</time>
      </trkpt>
      <trkpt lat="44.30859" lon="5.18442">
        <ele>475.4</ele>
        <time>2022-07-19T07:00:52Z</time>
      </trkpt>
      <trkpt lat="44.3086" lon="5.18443">
        <ele>475.4</ele>
        <time>2022-07-19T07:00:53Z</time>
      </trkpt>
      <trkpt lat="44.30861" lon="5.18443">
        <ele>475.4</ele>
        <time>2022-07-19T07:00:54Z</time>
      </trkpt>
      <trkpt lat="44.30862" lon="5.18445">
        <ele>475.4</ele>
        <time>2022-07-19T07:00:55Z</time>
      </trkpt>
      <trkpt lat="44.30863" lon="5.18446">
        <ele>475.4</ele>
        <time>2022-07-19T07:00:56Z</time>
      </trkpt>
      <trkpt lat="44.30865" lon="5.18447">
        <ele>475.4</ele>
        <time>2022-07-19T07:00:57Z</time>
      </trkpt>
      <trkpt lat="44.30866" lon="5.18448">
        <ele>475.4</ele>
        <time>2022-07-19T07:00:58Z</time>
      </trkpt>
      <trkpt lat="44.30868" lon="5.18449">
        <ele>475.5</ele>
        <time>2022-07-19T07:00:59Z</time>
      </trkpt>
      <trkpt lat="44.30869" lon="5.1845">
        <ele>475.5</ele>
        <time>2022-07-19T07:01:00Z</time>
      </trkpt>
      <trkpt lat="44.30871" lon="5.18451">
        <ele>475.5</ele>
        <time>2022-07-19T07:01:01Z</time>
      </trkpt>
      <trkpt lat="44.30874" lon="5.18453">
        <ele>475.5</ele>
        <time>2022-07-19T07:01:02Z</time>
      </trkpt>
      <trkpt lat="44.30875" lon="5.18454">
        <ele>475.5</ele>
        <time>2022-07-19T07:01:03Z</time>
      </trkpt>
      <trkpt lat="44.30878" lon="5.18455">
        <ele>475.6</ele>
        <time>2022-07-19T07:01:04Z</time>
      </trkpt>
      <trkpt lat="44.30879" lon="5.18456">
        <ele>475.6</ele>
        <time>2022-07-19T07:01:05Z</time>
      </trkpt>
      <trkpt lat="44.30881" lon="5.18457">
        <ele>475.6</ele>
        <time>2022-07-19T07:01:06Z</time>
      </trkpt>
      <trkpt lat="44.30882" lon="5.18458">
        <ele>475.6</ele>
        <time>2022-07-19T07:01:07Z</time>
      </trkpt>
      <trkpt lat="44.30885" lon="5.1846">
        <ele>475.7</ele>
        <time>2022-07-19T07:01:08Z</time>
      </trkpt>
      <trkpt lat="44.30886" lon="5.1846">
        <ele>475.7</ele>
        <time>2022-07-19T07:01:09Z</time>
      </trkpt>
      <trkpt lat="44.30888" lon="5.18463">
        <ele>475.7</ele>
        <time>2022-07-19T07:01:10Z</time>
      </trkpt>
      <trkpt lat="44.30889" lon="5.18464">
        <ele>475.7</ele>
        <time>2022-07-19T07:01:11Z</time>
      </trkpt>
      <trkpt lat="44.30892" lon="5.18466">
        <ele>475.7</ele>
        <time>2022-07-19T07:01:12Z</time>
      </trkpt>
      <trkpt lat="44.30893" lon="5.18466">
        <ele>475.8</ele>
        <time>2022-07-19T07:01:13Z</time>
      </trkpt>
      <trkpt lat="44.30895" lon="5.18469">
        <ele>475.8</ele>
        <time>2022-07-19T07:01:14Z</time>
      </trkpt>
      <trkpt lat="44.30896" lon="5.1847">
        <ele>475.8</ele>
        <time>2022-07-19T07:01:15Z</time>
      </trkpt>
      <trkpt lat="44.30899" lon="5.18472">
        <ele>475.8</ele>
        <time>2022-07-19T07:01:16Z</time>
      </trkpt>
      <trkpt lat="44.309" lon="5.18473">
        <ele>475.8</ele>
        <time>2022-07-19T07:01:17Z</time>
      </trkpt>
      <trkpt lat="44.30903" lon="5.18476">
        <ele>475.9</ele>
        <time>2022-07-19T07:01:18Z</time>
      </trkpt>
      <trkpt lat="44.30904" lon="5.18477">
        <ele>475.9</ele>
        <time>2022-07-19T07:01:19Z</time>
      </trkpt>
      <trkpt lat="44.30907" lon="5.18479">
        <ele>475.9</ele>
        <time>2022-07-19T07:01:20Z</time>
      </trkpt>
      <trkpt lat="44.30908" lon="5.1848">
        <ele>475.9</ele>
        <time>2022-07-19T07:01:21Z</time>
      </trkpt>
      <trkpt lat="44.30911" lon="5.18483">
        <ele>476</ele>
        <time>2022-07-19T07:01:22Z</time>
      </trkpt>
      <trkpt lat="44.30912" lon="5.18484">
        <ele>476</ele>
        <time>2022-07-19T07:01:23Z</time>
      </trkpt>
      <trkpt lat="44.30915" lon="5.18486">
        <ele>476</ele>
        <time>2022-07-19T07:01:24Z</time>
      </trkpt>
      <trkpt lat="44.30916" lon="5.18487">
        <ele>476</ele>
        <time>2022-07-19T07:01:25Z</time>
      </trkpt>
      <trkpt lat="44.30919" lon="5.18489">
        <ele>476</ele>
        <time>2022-07-19T07:01:26Z</time>
      </trkpt>
      <trkpt lat="44.3092" lon="5.1849">
        <ele>476</ele>
        <time>2022-07-19T07:01:27Z</time>
      </trkpt>
      <trkpt lat="44.30923" lon="5.18492">
        <ele>476</ele>
        <time>2022-07-19T07:01:28Z</time>
      </trkpt>
      <trkpt lat="44.30924" lon="5.18493">
        <ele>476</ele>
        <time>2022-07-19T07:01:29Z</time>
      </trkpt>
      <trkpt lat="44.30926" lon="5.18496">
        <ele>476</ele>
        <time>2022-07-19T07:01:30Z</time>
      </trkpt>
      <trkpt lat="44.30927" lon="5.18496">
        <ele>476</ele>
        <time>2022-07-19T07:01:31Z</time>
      </trkpt>
      <trkpt lat="44.3093" lon="5.18499">
        <ele>475.9</ele>
        <time>2022-07-19T07:01:32Z</time>
      </trkpt>
      <trkpt lat="44.30931" lon="5.18499">
        <ele>475.9</ele>
        <time>2022-07-19T07:01:33Z</time>
      </trkpt>
      <trkpt lat="44.30935" lon="5.18501">
        <ele>475.9</ele>
        <time>2022-07-19T07:01:34Z</time>
      </trkpt>
      <trkpt lat="44.30936" lon="5.18502">
        <ele>475.9</ele>
        <time>2022-07-19T07:01:35Z</time>
      </trkpt>
      <trkpt lat="44.30939" lon="5.18504">
        <ele>475.9</ele>
        <time>2022-07-19T07:01:36Z</time>
      </trkpt>
      <trkpt lat="44.3094" lon="5.18504">
        <ele>475.9</ele>
        <time>2022-07-19T07:01:37Z</time>
      </trkpt>
      <trkpt lat="44.30943" lon="5.18506">
        <ele>475.8</ele>
        <time>2022-07-19T07:01:38Z</time>
      </trkpt>
      <trkpt lat="44.30944" lon="5.18507">
        <ele>475.8</ele>
        <time>2022-07-19T07:01:39Z</time>
      </trkpt>
      <trkpt lat="44.30947" lon="5.18509">
        <ele>475.8</ele>
        <time>2022-07-19T07:01:40Z</time>
      </trkpt>
      <trkpt lat="44.30948" lon="5.1851">
        <ele>475.7</ele>
        <time>2022-07-19T07:01:41Z</time>
      </trkpt>
      <trkpt lat="44.30952" lon="5.18511">
        <ele>475.7</ele>
        <time>2022-07-19T07:01:42Z</time>
      </trkpt>
      <trkpt lat="44.30953" lon="5.18512">
        <ele>475.7</ele>
        <time>2022-07-19T07:01:43Z</time>
      </trkpt>
      <trkpt lat="44.30957" lon="5.18514">
        <ele>475.6</ele>
        <time>2022-07-19T07:01:44Z</time>
      </trkpt>
      <trkpt lat="44.30958" lon="5.18515">
        <ele>475.6</ele>
        <time>2022-07-19T07:01:45Z</time>
      </trkpt>
      <trkpt lat="44.3096" lon="5.18517">
        <ele>475.6</ele>
        <time>2022-07-19T07:01:46Z</time>
      </trkpt>
      <trkpt lat="44.30961" lon="5.18518">
        <ele>475.5</ele>
        <time>2022-07-19T07:01:47Z</time>
      </trkpt>
      <trkpt lat="44.30965" lon="5.1852">
        <ele>475.5</ele>
        <time>2022-07-19T07:01:48Z</time>
      </trkpt>
      <trkpt lat="44.30967" lon="5.18521">
        <ele>475.5</ele>
        <time>2022-07-19T07:01:49Z</time>
      </trkpt>
      <trkpt lat="44.30969" lon="5.18522">
        <ele>475.5</ele>
        <time>2022-07-19T07:01:50Z</time>
      </trkpt>
      <trkpt lat="44.30972" lon="5.18523">
        <ele>475.5</ele>
        <time>2022-07-19T07:01:51Z</time>
      </trkpt>
      <trkpt lat="44.30976" lon="5.18525">
        <ele>475.5</ele>
        <time>2022-07-19T07:01:52Z</time>
      </trkpt>
      <trkpt lat="44.30977" lon="5.18526">
        <ele>475.5</ele>
        <time>2022-07-19T07:01:53Z</time>
      </trkpt>
      <trkpt lat="44.30979" lon="5.18527">
        <ele>475.5</ele>
        <time>2022-07-19T07:01:54Z</time>
      </trkpt>
      <trkpt lat="44.30983" lon="5.18528">
        <ele>475.4</ele>
        <time>2022-07-19T07:01:55Z</time>
      </trkpt>
      <trkpt lat="44.30984" lon="5.18529">
        <ele>475.4</ele>
        <time>2022-07-19T07:01:56Z</time>
      </trkpt>
      <trkpt lat="44.30988" lon="5.18529">
        <ele>475.4</ele>
        <time>2022-07-19T07:01:57Z</time>
      </trkpt>
      <trkpt lat="44.3099" lon="5.18529">
        <ele>475.4</ele>
        <time>2022-07-19T07:01:58Z</time>
      </trkpt>
      <trkpt lat="44.30993" lon="5.1853">
        <ele>475.4</ele>
        <time>2022-07-19T07:01:59Z</time>
      </trkpt>
      <trkpt lat="44.30994" lon="5.18531">
        <ele>475.4</ele>
        <time>2022-07-19T07:02:00Z</time>
      </trkpt>
      <trkpt lat="44.30998" lon="5.18532">
        <ele>475.4</ele>
        <time>2022-07-19T07:02:01Z</time>
      </trkpt>
      <trkpt lat="44.30999" lon="5.18532">
        <ele>475.4</ele>
        <time>2022-07-19T07:02:02Z</time>
      </trkpt>
      <trkpt lat="44.31002" lon="5.18531">
        <ele>475.4</ele>
        <time>2022-07-19T07:02:03Z</time>
      </trkpt>
      <trkpt lat="44.31003" lon="5.18531">
        <ele>475.3</ele>
        <time>2022-07-19T07:02:04Z</time>
      </trkpt>
      <trkpt lat="44.31007" lon="5.18531">
        <ele>475.3</ele>
        <time>2022-07-19T07:02:05Z</time>
      </trkpt>
      <trkpt lat="44.31008" lon="5.1853">
        <ele>475.3</ele>
        <time>2022-07-19T07:02:06Z</time>
      </trkpt>
      <trkpt lat="44.31011" lon="5.18529">
        <ele>475.3</ele>
        <time>2022-07-19T07:02:07Z</time>
      </trkpt>
      <trkpt lat="44.31012" lon="5.18529">
        <ele>475.3</ele>
        <time>2022-07-19T07:02:08Z</time>
      </trkpt>
      <trkpt lat="44.31015" lon="5.18528">
        <ele>475.3</ele>
        <time>2022-07-19T07:02:09Z</time>
      </trkpt>
      <trkpt lat="44.31015" lon="5.18527">
        <ele>475.3</ele>
        <time>2022-07-19T07:02:10Z</time>
      </trkpt>
      <trkpt lat="44.31018" lon="5.18526">
        <ele>475.3</ele>
        <time>2022-07-19T07:02:11Z</time>
      </trkpt>
      <trkpt lat="44.31019" lon="5.18525">
        <ele>475.2</ele>
        <time>2022-07-19T07:02:12Z</time>
      </trkpt>
      <trkpt lat="44.3102" lon="5.18524">
        <ele>475.2</ele>
        <time>2022-07-19T07:02:13Z</time>
      </trkpt>
      <trkpt lat="44.31023" lon="5.18523">
        <ele>475.2</ele>
        <time>2022-07-19T07:02:14Z</time>
      </trkpt>
      <trkpt lat="44.31024" lon="5.18522">
        <ele>475.2</ele>
        <time>2022-07-19T07:02:15Z</time>
      </trkpt>
      <trkpt lat="44.31027" lon="5.18522">
        <ele>475.2</ele>
        <time>2022-07-19T07:02:16Z</time>
      </trkpt>
      <trkpt lat="44.31028" lon="5.18521">
        <ele>475.2</ele>
        <time>2022-07-19T07:02:17Z</time>
      </trkpt>
      <trkpt lat="44.31032" lon="5.1852">
        <ele>475.1</ele>
        <time>2022-07-19T07:02:18Z</time>
      </trkpt>
      <trkpt lat="44.31033" lon="5.1852">
        <ele>475.1</ele>
        <time>2022-07-19T07:02:19Z</time>
      </trkpt>
      <trkpt lat="44.31037" lon="5.18519">
        <ele>475</ele>
        <time>2022-07-19T07:02:20Z</time>
      </trkpt>
      <trkpt lat="44.3104" lon="5.18518">
        <ele>475</ele>
        <time>2022-07-19T07:02:21Z</time>
      </trkpt>
      <trkpt lat="44.31044" lon="5.18516">
        <ele>474.9</ele>
        <time>2022-07-19T07:02:22Z</time>
      </trkpt>
      <trkpt lat="44.31047" lon="5.18515">
        <ele>474.9</ele>
        <time>2022-07-19T07:02:23Z</time>
      </trkpt>
      <trkpt lat="44.3105" lon="5.18514">
        <ele>474.8</ele>
        <time>2022-07-19T07:02:24Z</time>
      </trkpt>
      <trkpt lat="44.31053" lon="5.18514">
        <ele>474.8</ele>
        <time>2022-07-19T07:02:25Z</time>
      </trkpt>
      <trkpt lat="44.31056" lon="5.18515">
        <ele>474.8</ele>
        <time>2022-07-19T07:02:26Z</time>
      </trkpt>
      <trkpt lat="44.31059" lon="5.18517">
        <ele>474.8</ele>
        <time>2022-07-19T07:02:27Z</time>
      </trkpt>
      <trkpt lat="44.31061" lon="5.1852">
        <ele>474.8</ele>
        <time>2022-07-19T07:02:28Z</time>
      </trkpt>
      <trkpt lat="44.31062" lon="5.18521">
        <ele>474.8</ele>
        <time>2022-07-19T07:02:29Z</time>
      </trkpt>
      <trkpt lat="44.31064" lon="5.18523">
        <ele>474.8</ele>
        <time>2022-07-19T07:02:30Z</time>
      </trkpt>
      <trkpt lat="44.31065" lon="5.18524">
        <ele>474.8</ele>
        <time>2022-07-19T07:02:31Z</time>
      </trkpt>
      <trkpt lat="44.31066" lon="5.18526">
        <ele>474.8</ele>
        <time>2022-07-19T07:02:32Z</time>
      </trkpt>
      <trkpt lat="44.31067" lon="5.18528">
        <ele>474.9</ele>
        <time>2022-07-19T07:02:33Z</time>
      </trkpt>
      <trkpt lat="44.31068" lon="5.18529">
        <ele>474.9</ele>
        <time>2022-07-19T07:02:34Z</time>
      </trkpt>
      <trkpt lat="44.31068" lon="5.18531">
        <ele>474.9</ele>
        <time>2022-07-19T07:02:35Z</time>
      </trkpt>
      <trkpt lat="44.31069" lon="5.18534">
        <ele>474.9</ele>
        <time>2022-07-19T07:02:36Z</time>
      </trkpt>
      <trkpt lat="44.3107" lon="5.18535">
        <ele>474.9</ele>
        <time>2022-07-19T07:02:37Z</time>
      </trkpt>
      <trkpt lat="44.3107" lon="5.18536">
        <ele>474.9</ele>
        <time>2022-07-19T07:02:38Z</time>
      </trkpt>
      <trkpt lat="44.31072" lon="5.1854">
        <ele>475</ele>
        <time>2022-07-19T07:02:39Z</time>
      </trkpt>
      <trkpt lat="44.31072" lon="5.18541">
        <ele>475</ele>
        <time>2022-07-19T07:02:40Z</time>
      </trkpt>
      <trkpt lat="44.31073" lon="5.18543">
        <ele>475</ele>
        <time>2022-07-19T07:02:41Z</time>
      </trkpt>
      <trkpt lat="44.31074" lon="5.18544">
        <ele>475</ele>
        <time>2022-07-19T07:02:42Z</time>
      </trkpt>
      <trkpt lat="44.31075" lon="5.18546">
        <ele>475.1</ele>
        <time>2022-07-19T07:02:43Z</time>
      </trkpt>
      <trkpt lat="44.31075" lon="5.18548">
        <ele>475.1</ele>
        <time>2022-07-19T07:02:44Z</time>
      </trkpt>
      <trkpt lat="44.31076" lon="5.1855">
        <ele>475.1</ele>
        <time>2022-07-19T07:02:45Z</time>
      </trkpt>
      <trkpt lat="44.31076" lon="5.18553">
        <ele>475.2</ele>
        <time>2022-07-19T07:02:46Z</time>
      </trkpt>
      <trkpt lat="44.31077" lon="5.18555">
        <ele>475.2</ele>
        <time>2022-07-19T07:02:47Z</time>
      </trkpt>
      <trkpt lat="44.31077" lon="5.18557">
        <ele>475.2</ele>
        <time>2022-07-19T07:02:48Z</time>
      </trkpt>
      <trkpt lat="44.31078" lon="5.18561">
        <ele>475.3</ele>
        <time>2022-07-19T07:02:49Z</time>
      </trkpt>
      <trkpt lat="44.31078" lon="5.18563">
        <ele>475.3</ele>
        <time>2022-07-19T07:02:50Z</time>
      </trkpt>
      <trkpt lat="44.31078" lon="5.18565">
        <ele>475.4</ele>
        <time>2022-07-19T07:02:51Z</time>
      </trkpt>
      <trkpt lat="44.31079" lon="5.18567">
        <ele>475.4</ele>
        <time>2022-07-19T07:02:52Z</time>
      </trkpt>
      <trkpt lat="44.31079" lon="5.18571">
        <ele>475.5</ele>
        <time>2022-07-19T07:02:53Z</time>
      </trkpt>
      <trkpt lat="44.3108" lon="5.18572">
        <ele>475.5</ele>
        <time>2022-07-19T07:02:54Z</time>
      </trkpt>
      <trkpt lat="44.3108" lon="5.18576">
        <ele>475.5</ele>
        <time>2022-07-19T07:02:55Z</time>
      </trkpt>
      <trkpt lat="44.31081" lon="5.18577">
        <ele>475.6</ele>
        <time>2022-07-19T07:02:56Z</time>
      </trkpt>
      <trkpt lat="44.31082" lon="5.18581">
        <ele>475.6</ele>
        <time>2022-07-19T07:02:57Z</time>
      </trkpt>
      <trkpt lat="44.31082" lon="5.18582">
        <ele>475.6</ele>
        <time>2022-07-19T07:02:58Z</time>
      </trkpt>
      <trkpt lat="44.31083" lon="5.18585">
        <ele>475.7</ele>
        <time>2022-07-19T07:02:59Z</time>
      </trkpt>
      <trkpt lat="44.31083" lon="5.18586">
        <ele>475.7</ele>
        <time>2022-07-19T07:03:00Z</time>
      </trkpt>
      <trkpt lat="44.31083" lon="5.18587">
        <ele>475.7</ele>
        <time>2022-07-19T07:03:01Z</time>
      </trkpt>
      <trkpt lat="44.31083" lon="5.18589">
        <ele>475.7</ele>
        <time>2022-07-19T07:03:02Z</time>
      </trkpt>
      <trkpt lat="44.31084" lon="5.18591">
        <ele>475.8</ele>
        <time>2022-07-19T07:03:03Z</time>
      </trkpt>
      <trkpt lat="44.31085" lon="5.18595">
        <ele>475.8</ele>
        <time>2022-07-19T07:03:04Z</time>
      </trkpt>
      <trkpt lat="44.31086" lon="5.18596">
        <ele>475.8</ele>
        <time>2022-07-19T07:03:05Z</time>
      </trkpt>
      <trkpt lat="44.31088" lon="5.186">
        <ele>475.9</ele>
        <time>2022-07-19T07:03:06Z</time>
      </trkpt>
      <trkpt lat="44.31088" lon="5.18602">
        <ele>475.9</ele>
        <time>2022-07-19T07:03:07Z</time>
      </trkpt>
      <trkpt lat="44.31091" lon="5.18606">
        <ele>476</ele>
        <time>2022-07-19T07:03:08Z</time>
      </trkpt>
      <trkpt lat="44.31091" lon="5.18607">
        <ele>476</ele>
        <time>2022-07-19T07:03:09Z</time>
      </trkpt>
      <trkpt lat="44.31093" lon="5.18611">
        <ele>476</ele>
        <time>2022-07-19T07:03:10Z</time>
      </trkpt>
      <trkpt lat="44.31094" lon="5.18612">
        <ele>476.1</ele>
        <time>2022-07-19T07:03:11Z</time>
      </trkpt>
      <trkpt lat="44.31095" lon="5.18616">
        <ele>476.1</ele>
        <time>2022-07-19T07:03:12Z</time>
      </trkpt>
      <trkpt lat="44.31095" lon="5.18617">
        <ele>476.1</ele>
        <time>2022-07-19T07:03:13Z</time>
      </trkpt>
      <trkpt lat="44.31096" lon="5.18621">
        <ele>476.1</ele>
        <time>2022-07-19T07:03:14Z</time>
      </trkpt>
      <trkpt lat="44.31096" lon="5.18622">
        <ele>476.2</ele>
        <time>2022-07-19T07:03:15Z</time>
      </trkpt>
      <trkpt lat="44.31098" lon="5.18626">
        <ele>476.2</ele>
        <time>2022-07-19T07:03:16Z</time>
      </trkpt>
      <trkpt lat="44.31098" lon="5.18627">
        <ele>476.2</ele>
        <time>2022-07-19T07:03:17Z</time>
      </trkpt>
      <trkpt lat="44.311" lon="5.1863">
        <ele>476.3</ele>
        <time>2022-07-19T07:03:18Z</time>
      </trkpt>
      <trkpt lat="44.31101" lon="5.18631">
        <ele>476.3</ele>
        <time>2022-07-19T07:03:19Z</time>
      </trkpt>
      <trkpt lat="44.31103" lon="5.18635">
        <ele>476.3</ele>
        <time>2022-07-19T07:03:20Z</time>
      </trkpt>
      <trkpt lat="44.31103" lon="5.18636">
        <ele>476.3</ele>
        <time>2022-07-19T07:03:21Z</time>
      </trkpt>
      <trkpt lat="44.31105" lon="5.18639">
        <ele>476.4</ele>
        <time>2022-07-19T07:03:22Z</time>
      </trkpt>
      <trkpt lat="44.31106" lon="5.1864">
        <ele>476.4</ele>
        <time>2022-07-19T07:03:23Z</time>
      </trkpt>
      <trkpt lat="44.31109" lon="5.18643">
        <ele>476.4</ele>
        <time>2022-07-19T07:03:24Z</time>
      </trkpt>
      <trkpt lat="44.3111" lon="5.18644">
        <ele>476.4</ele>
        <time>2022-07-19T07:03:25Z</time>
      </trkpt>
      <trkpt lat="44.31112" lon="5.18647">
        <ele>476.5</ele>
        <time>2022-07-19T07:03:26Z</time>
      </trkpt>
      <trkpt lat="44.31112" lon="5.18648">
        <ele>476.5</ele>
        <time>2022-07-19T07:03:27Z</time>
      </trkpt>
      <trkpt lat="44.31114" lon="5.18651">
        <ele>476.5</ele>
        <time>2022-07-19T07:03:28Z</time>
      </trkpt>
      <trkpt lat="44.31115" lon="5.18652">
        <ele>476.5</ele>
        <time>2022-07-19T07:03:29Z</time>
      </trkpt>
      <trkpt lat="44.31117" lon="5.18655">
        <ele>476.6</ele>
        <time>2022-07-19T07:03:30Z</time>
      </trkpt>
      <trkpt lat="44.31117" lon="5.18656">
        <ele>476.6</ele>
        <time>2022-07-19T07:03:31Z</time>
      </trkpt>
      <trkpt lat="44.31118" lon="5.18658">
        <ele>476.6</ele>
        <time>2022-07-19T07:03:32Z</time>
      </trkpt>
      <trkpt lat="44.3112" lon="5.18659">
        <ele>476.7</ele>
        <time>2022-07-19T07:03:33Z</time>
      </trkpt>
      <trkpt lat="44.31121" lon="5.18661">
        <ele>476.7</ele>
        <time>2022-07-19T07:03:34Z</time>
      </trkpt>
      <trkpt lat="44.31122" lon="5.18663">
        <ele>476.7</ele>
        <time>2022-07-19T07:03:35Z</time>
      </trkpt>
      <trkpt lat="44.31124" lon="5.18664">
        <ele>476.7</ele>
        <time>2022-07-19T07:03:36Z</time>
      </trkpt>
      <trkpt lat="44.31125" lon="5.18665">
        <ele>476.8</ele>
        <time>2022-07-19T07:03:37Z</time>
      </trkpt>
      <trkpt lat="44.31126" lon="5.18666">
        <ele>476.8</ele>
        <time>2022-07-19T07:03:38Z</time>
      </trkpt>
      <trkpt lat="44.31128" lon="5.18667">
        <ele>476.8</ele>
        <time>2022-07-19T07:03:39Z</time>
      </trkpt>
      <trkpt lat="44.3113" lon="5.1867">
        <ele>476.9</ele>
        <time>2022-07-19T07:03:40Z</time>
      </trkpt>
      <trkpt lat="44.31131" lon="5.18671">
        <ele>476.9</ele>
        <time>2022-07-19T07:03:41Z</time>
      </trkpt>
      <trkpt lat="44.31134" lon="5.18674">
        <ele>477</ele>
        <time>2022-07-19T07:03:42Z</time>
      </trkpt>
      <trkpt lat="44.31135" lon="5.18675">
        <ele>477</ele>
        <time>2022-07-19T07:03:43Z</time>
      </trkpt>
      <trkpt lat="44.31137" lon="5.18678">
        <ele>477</ele>
        <time>2022-07-19T07:03:44Z</time>
      </trkpt>
      <trkpt lat="44.31138" lon="5.18679">
        <ele>477</ele>
        <time>2022-07-19T07:03:45Z</time>
      </trkpt>
      <trkpt lat="44.31141" lon="5.18682">
        <ele>477.1</ele>
        <time>2022-07-19T07:03:46Z</time>
      </trkpt>
      <trkpt lat="44.31142" lon="5.18683">
        <ele>477.1</ele>
        <time>2022-07-19T07:03:47Z</time>
      </trkpt>
      <trkpt lat="44.31144" lon="5.18686">
        <ele>477.1</ele>
        <time>2022-07-19T07:03:48Z</time>
      </trkpt>
      <trkpt lat="44.31145" lon="5.18687">
        <ele>477.1</ele>
        <time>2022-07-19T07:03:49Z</time>
      </trkpt>
      <trkpt lat="44.31147" lon="5.1869">
        <ele>477.1</ele>
        <time>2022-07-19T07:03:50Z</time>
      </trkpt>
      <trkpt lat="44.31148" lon="5.18691">
        <ele>477.1</ele>
        <time>2022-07-19T07:03:51Z</time>
      </trkpt>
      <trkpt lat="44.3115" lon="5.18693">
        <ele>477.1</ele>
        <time>2022-07-19T07:03:52Z</time>
      </trkpt>
      <trkpt lat="44.31151" lon="5.18694">
        <ele>477.1</ele>
        <time>2022-07-19T07:03:53Z</time>
      </trkpt>
      <trkpt lat="44.31155" lon="5.18697">
        <ele>477.1</ele>
        <time>2022-07-19T07:03:54Z</time>
      </trkpt>
      <trkpt lat="44.31156" lon="5.18697">
        <ele>477.1</ele>
        <time>2022-07-19T07:03:55Z</time>
      </trkpt>
      <trkpt lat="44.3116" lon="5.18699">
        <ele>477.1</ele>
        <time>2022-07-19T07:03:56Z</time>
      </trkpt>
      <trkpt lat="44.31161" lon="5.187">
        <ele>477.1</ele>
        <time>2022-07-19T07:03:57Z</time>
      </trkpt>
      <trkpt lat="44.31163" lon="5.18702">
        <ele>477.1</ele>
        <time>2022-07-19T07:03:58Z</time>
      </trkpt>
      <trkpt lat="44.31164" lon="5.18703">
        <ele>477.1</ele>
        <time>2022-07-19T07:03:59Z</time>
      </trkpt>
      <trkpt lat="44.31167" lon="5.18706">
        <ele>477.1</ele>
        <time>2022-07-19T07:04:00Z</time>
      </trkpt>
      <trkpt lat="44.31168" lon="5.18707">
        <ele>477.1</ele>
        <time>2022-07-19T07:04:01Z</time>
      </trkpt>
      <trkpt lat="44.3117" lon="5.18709">
        <ele>477</ele>
        <time>2022-07-19T07:04:02Z</time>
      </trkpt>
      <trkpt lat="44.31172" lon="5.18711">
        <ele>477</ele>
        <time>2022-07-19T07:04:03Z</time>
      </trkpt>
      <trkpt lat="44.31174" lon="5.18714">
        <ele>476.9</ele>
        <time>2022-07-19T07:04:04Z</time>
      </trkpt>
      <trkpt lat="44.31177" lon="5.18717">
        <ele>476.9</ele>
        <time>2022-07-19T07:04:05Z</time>
      </trkpt>
      <trkpt lat="44.3118" lon="5.18719">
        <ele>476.8</ele>
        <time>2022-07-19T07:04:06Z</time>
      </trkpt>
      <trkpt lat="44.31182" lon="5.18722">
        <ele>476.7</ele>
        <time>2022-07-19T07:04:07Z</time>
      </trkpt>
      <trkpt lat="44.31185" lon="5.18725">
        <ele>476.6</ele>
        <time>2022-07-19T07:04:08Z</time>
      </trkpt>
      <trkpt lat="44.31187" lon="5.18728">
        <ele>476.5</ele>
        <time>2022-07-19T07:04:09Z</time>
      </trkpt>
      <trkpt lat="44.3119" lon="5.18731">
        <ele>476.5</ele>
        <time>2022-07-19T07:04:10Z</time>
      </trkpt>
      <trkpt lat="44.31193" lon="5.18735">
        <ele>476.4</ele>
        <time>2022-07-19T07:04:11Z</time>
      </trkpt>
      <trkpt lat="44.31195" lon="5.18738">
        <ele>476.3</ele>
        <time>2022-07-19T07:04:12Z</time>
      </trkpt>
      <trkpt lat="44.31196" lon="5.18742">
        <ele>476.2</ele>
        <time>2022-07-19T07:04:13Z</time>
      </trkpt>
      <trkpt lat="44.31196" lon="5.18748">
        <ele>476.1</ele>
        <time>2022-07-19T07:04:14Z</time>
      </trkpt>
      <trkpt lat="44.31195" lon="5.1875">
        <ele>476</ele>
        <time>2022-07-19T07:04:15Z</time>
      </trkpt>
      <trkpt lat="44.31194" lon="5.18755">
        <ele>475.9</ele>
        <time>2022-07-19T07:04:16Z</time>
      </trkpt>
      <trkpt lat="44.31193" lon="5.1876">
        <ele>475.8</ele>
        <time>2022-07-19T07:04:17Z</time>
      </trkpt>
      <trkpt lat="44.31191" lon="5.18765">
        <ele>475.6</ele>
        <time>2022-07-19T07:04:18Z</time>
      </trkpt>
      <trkpt lat="44.3119" lon="5.18769">
        <ele>475.5</ele>
        <time>2022-07-19T07:04:19Z</time>
      </trkpt>
      <trkpt lat="44.31189" lon="5.18774">
        <ele>475.4</ele>
        <time>2022-07-19T07:04:20Z</time>
      </trkpt>
      <trkpt lat="44.31189" lon="5.18779">
        <ele>475.3</ele>
        <time>2022-07-19T07:04:21Z</time>
      </trkpt>
      <trkpt lat="44.31188" lon="5.18783">
        <ele>475.3</ele>
        <time>2022-07-19T07:04:22Z</time>
      </trkpt>
      <trkpt lat="44.31188" lon="5.18788">
        <ele>475.2</ele>
        <time>2022-07-19T07:04:23Z</time>
      </trkpt>
      <trkpt lat="44.31189" lon="5.18794">
        <ele>475.2</ele>
        <time>2022-07-19T07:04:24Z</time>
      </trkpt>
      <trkpt lat="44.31191" lon="5.18798">
        <ele>475.2</ele>
        <time>2022-07-19T07:04:25Z</time>
      </trkpt>
      <trkpt lat="44.31193" lon="5.18801">
        <ele>475.2</ele>
        <time>2022-07-19T07:04:26Z</time>
      </trkpt>
      <trkpt lat="44.31196" lon="5.18804">
        <ele>475.2</ele>
        <time>2022-07-19T07:04:27Z</time>
      </trkpt>
      <trkpt lat="44.31198" lon="5.18807">
        <ele>475.2</ele>
        <time>2022-07-19T07:04:28Z</time>
      </trkpt>
      <trkpt lat="44.31201" lon="5.18811">
        <ele>475.2</ele>
        <time>2022-07-19T07:04:29Z</time>
      </trkpt>
      <trkpt lat="44.31202" lon="5.18812">
        <ele>475.2</ele>
        <time>2022-07-19T07:04:30Z</time>
      </trkpt>
      <trkpt lat="44.31204" lon="5.18815">
        <ele>475.3</ele>
        <time>2022-07-19T07:04:31Z</time>
      </trkpt>
      <trkpt lat="44.31205" lon="5.18815">
        <ele>475.3</ele>
        <time>2022-07-19T07:04:32Z</time>
      </trkpt>
      <trkpt lat="44.31207" lon="5.18818">
        <ele>475.4</ele>
        <time>2022-07-19T07:04:33Z</time>
      </trkpt>
      <trkpt lat="44.31208" lon="5.18818">
        <ele>475.4</ele>
        <time>2022-07-19T07:04:34Z</time>
      </trkpt>
      <trkpt lat="44.31209" lon="5.18819">
        <ele>475.4</ele>
        <time>2022-07-19T07:04:35Z</time>
      </trkpt>
      <trkpt lat="44.31211" lon="5.18821">
        <ele>475.5</ele>
        <time>2022-07-19T07:04:36Z</time>
      </trkpt>
      <trkpt lat="44.31212" lon="5.18822">
        <ele>475.5</ele>
        <time>2022-07-19T07:04:37Z</time>
      </trkpt>
      <trkpt lat="44.31213" lon="5.18823">
        <ele>475.6</ele>
        <time>2022-07-19T07:04:38Z</time>
      </trkpt>
      <trkpt lat="44.31215" lon="5.18826">
        <ele>475.7</ele>
        <time>2022-07-19T07:04:39Z</time>
      </trkpt>
      <trkpt lat="44.31215" lon="5.18828">
        <ele>475.7</ele>
        <time>2022-07-19T07:04:40Z</time>
      </trkpt>
      <trkpt lat="44.31217" lon="5.18831">
        <ele>475.8</ele>
        <time>2022-07-19T07:04:41Z</time>
      </trkpt>
      <trkpt lat="44.31218" lon="5.18832">
        <ele>475.9</ele>
        <time>2022-07-19T07:04:42Z</time>
      </trkpt>
      <trkpt lat="44.31219" lon="5.18833">
        <ele>475.9</ele>
        <time>2022-07-19T07:04:43Z</time>
      </trkpt>
      <trkpt lat="44.3122" lon="5.18835">
        <ele>475.9</ele>
        <time>2022-07-19T07:04:44Z</time>
      </trkpt>
      <trkpt lat="44.31222" lon="5.18836">
        <ele>476</ele>
        <time>2022-07-19T07:04:45Z</time>
      </trkpt>
      <trkpt lat="44.31223" lon="5.18836">
        <ele>476.1</ele>
        <time>2022-07-19T07:04:46Z</time>
      </trkpt>
      <trkpt lat="44.31224" lon="5.18836">
        <ele>476.1</ele>
        <time>2022-07-19T07:04:47Z</time>
      </trkpt>
      <trkpt lat="44.31227" lon="5.18836">
        <ele>476.2</ele>
        <time>2022-07-19T07:04:48Z</time>
      </trkpt>
      <trkpt lat="44.31229" lon="5.18836">
        <ele>476.3</ele>
        <time>2022-07-19T07:04:49Z</time>
      </trkpt>
      <trkpt lat="44.31231" lon="5.18837">
        <ele>476.4</ele>
        <time>2022-07-19T07:04:50Z</time>
      </trkpt>
      <trkpt lat="44.31232" lon="5.18838">
        <ele>476.4</ele>
        <time>2022-07-19T07:04:51Z</time>
      </trkpt>
      <trkpt lat="44.31234" lon="5.18839">
        <ele>476.5</ele>
        <time>2022-07-19T07:04:52Z</time>
      </trkpt>
      <trkpt lat="44.31235" lon="5.1884">
        <ele>476.5</ele>
        <time>2022-07-19T07:04:53Z</time>
      </trkpt>
      <trkpt lat="44.31236" lon="5.18841">
        <ele>476.6</ele>
        <time>2022-07-19T07:04:54Z</time>
      </trkpt>
      <trkpt lat="44.31237" lon="5.18843">
        <ele>476.6</ele>
        <time>2022-07-19T07:04:55Z</time>
      </trkpt>
      <trkpt lat="44.31239" lon="5.18844">
        <ele>476.6</ele>
        <time>2022-07-19T07:04:56Z</time>
      </trkpt>
      <trkpt lat="44.3124" lon="5.18845">
        <ele>476.7</ele>
        <time>2022-07-19T07:04:57Z</time>
      </trkpt>
      <trkpt lat="44.3124" lon="5.18846">
        <ele>476.7</ele>
        <time>2022-07-19T07:04:58Z</time>
      </trkpt>
      <trkpt lat="44.31241" lon="5.18846">
        <ele>476.7</ele>
        <time>2022-07-19T07:04:59Z</time>
      </trkpt>
      <trkpt lat="44.31242" lon="5.18846">
        <ele>476.8</ele>
        <time>2022-07-19T07:05:00Z</time>
      </trkpt>
      <trkpt lat="44.31242" lon="5.18846">
        <ele>476.8</ele>
        <time>2022-07-19T07:05:01Z</time>
      </trkpt>
      <trkpt lat="44.31244" lon="5.18846">
        <ele>476.8</ele>
        <time>2022-07-19T07:05:02Z</time>
      </trkpt>
      <trkpt lat="44.31245" lon="5.18846">
        <ele>476.8</ele>
        <time>2022-07-19T07:05:03Z</time>
      </trkpt>
      <trkpt lat="44.31245" lon="5.18846">
        <ele>476.9</ele>
        <time>2022-07-19T07:05:04Z</time>
      </trkpt>
      <trkpt lat="44.31246" lon="5.18846">
        <ele>476.9</ele>
        <time>2022-07-19T07:05:05Z</time>
      </trkpt>
      <trkpt lat="44.31249" lon="5.18847">
        <ele>477</ele>
        <time>2022-07-19T07:05:06Z</time>
      </trkpt>
      <trkpt lat="44.3125" lon="5.18847">
        <ele>477</ele>
        <time>2022-07-19T07:05:07Z</time>
      </trkpt>
      <trkpt lat="44.31251" lon="5.18847">
        <ele>477</ele>
        <time>2022-07-19T07:05:08Z</time>
      </trkpt>
      <trkpt lat="44.31253" lon="5.18848">
        <ele>477.1</ele>
        <time>2022-07-19T07:05:09Z</time>
      </trkpt>
      <trkpt lat="44.31256" lon="5.18848">
        <ele>477.2</ele>
        <time>2022-07-19T07:05:10Z</time>
      </trkpt>
      <trkpt lat="44.31257" lon="5.18848">
        <ele>477.2</ele>
        <time>2022-07-19T07:05:11Z</time>
      </trkpt>
      <trkpt lat="44.31259" lon="5.18848">
        <ele>477.3</ele>
        <time>2022-07-19T07:05:12Z</time>
      </trkpt>
      <trkpt lat="44.3126" lon="5.18848">
        <ele>477.3</ele>
        <time>2022-07-19T07:05:13Z</time>
      </trkpt>
      <trkpt lat="44.31262" lon="5.18848">
        <ele>477.4</ele>
        <time>2022-07-19T07:05:14Z</time>
      </trkpt>
      <trkpt lat="44.31263" lon="5.18847">
        <ele>477.4</ele>
        <time>2022-07-19T07:05:15Z</time>
      </trkpt>
      <trkpt lat="44.31265" lon="5.18846">
        <ele>477.5</ele>
        <time>2022-07-19T07:05:16Z</time>
      </trkpt>
      <trkpt lat="44.31266" lon="5.18845">
        <ele>477.5</ele>
        <time>2022-07-19T07:05:17Z</time>
      </trkpt>
      <trkpt lat="44.31267" lon="5.18845">
        <ele>477.6</ele>
        <time>2022-07-19T07:05:18Z</time>
      </trkpt>
      <trkpt lat="44.31268" lon="5.18844">
        <ele>477.6</ele>
        <time>2022-07-19T07:05:19Z</time>
      </trkpt>
      <trkpt lat="44.31269" lon="5.18843">
        <ele>477.6</ele>
        <time>2022-07-19T07:05:20Z</time>
      </trkpt>
      <trkpt lat="44.3127" lon="5.18842">
        <ele>477.7</ele>
        <time>2022-07-19T07:05:21Z</time>
      </trkpt>
      <trkpt lat="44.31271" lon="5.18841">
        <ele>477.7</ele>
        <time>2022-07-19T07:05:22Z</time>
      </trkpt>
      <trkpt lat="44.31272" lon="5.18841">
        <ele>477.8</ele>
        <time>2022-07-19T07:05:23Z</time>
      </trkpt>
      <trkpt lat="44.31273" lon="5.18841">
        <ele>477.8</ele>
        <time>2022-07-19T07:05:24Z</time>
      </trkpt>
      <trkpt lat="44.31275" lon="5.1884">
        <ele>478</ele>
        <time>2022-07-19T07:05:25Z</time>
      </trkpt>
      <trkpt lat="44.31278" lon="5.18839">
        <ele>478.2</ele>
        <time>2022-07-19T07:05:26Z</time>
      </trkpt>
      <trkpt lat="44.31279" lon="5.18839">
        <ele>478.3</ele>
        <time>2022-07-19T07:05:27Z</time>
      </trkpt>
      <trkpt lat="44.3128" lon="5.18839">
        <ele>478.4</ele>
        <time>2022-07-19T07:05:28Z</time>
      </trkpt>
      <trkpt lat="44.31282" lon="5.18838">
        <ele>478.5</ele>
        <time>2022-07-19T07:05:29Z</time>
      </trkpt>
      <trkpt lat="44.31285" lon="5.18837">
        <ele>478.8</ele>
        <time>2022-07-19T07:05:30Z</time>
      </trkpt>
      <trkpt lat="44.31286" lon="5.18836">
        <ele>478.9</ele>
        <time>2022-07-19T07:05:31Z</time>
      </trkpt>
      <trkpt lat="44.31287" lon="5.18835">
        <ele>479.1</ele>
        <time>2022-07-19T07:05:32Z</time>
      </trkpt>
      <trkpt lat="44.31288" lon="5.18834">
        <ele>479.2</ele>
        <time>2022-07-19T07:05:33Z</time>
      </trkpt>
      <trkpt lat="44.31289" lon="5.18833">
        <ele>479.3</ele>
        <time>2022-07-19T07:05:34Z</time>
      </trkpt>
      <trkpt lat="44.3129" lon="5.18833">
        <ele>479.4</ele>
        <time>2022-07-19T07:05:35Z</time>
      </trkpt>
      <trkpt lat="44.31291" lon="5.18833">
        <ele>479.5</ele>
        <time>2022-07-19T07:05:36Z</time>
      </trkpt>
      <trkpt lat="44.31293" lon="5.18832">
        <ele>479.7</ele>
        <time>2022-07-19T07:05:37Z</time>
      </trkpt>
      <trkpt lat="44.31294" lon="5.18832">
        <ele>479.8</ele>
        <time>2022-07-19T07:05:38Z</time>
      </trkpt>
      <trkpt lat="44.31294" lon="5.18831">
        <ele>479.9</ele>
        <time>2022-07-19T07:05:39Z</time>
      </trkpt>
      <trkpt lat="44.31295" lon="5.18831">
        <ele>480</ele>
        <time>2022-07-19T07:05:40Z</time>
      </trkpt>
      <trkpt lat="44.31297" lon="5.1883">
        <ele>480.3</ele>
        <time>2022-07-19T07:05:41Z</time>
      </trkpt>
      <trkpt lat="44.31298" lon="5.1883">
        <ele>480.4</ele>
        <time>2022-07-19T07:05:42Z</time>
      </trkpt>
      <trkpt lat="44.31299" lon="5.1883">
        <ele>480.5</ele>
        <time>2022-07-19T07:05:43Z</time>
      </trkpt>
      <trkpt lat="44.313" lon="5.18829">
        <ele>480.7</ele>
        <time>2022-07-19T07:05:44Z</time>
      </trkpt>
      <trkpt lat="44.31302" lon="5.18829">
        <ele>480.9</ele>
        <time>2022-07-19T07:05:45Z</time>
      </trkpt>
      <trkpt lat="44.31303" lon="5.18829">
        <ele>481</ele>
        <time>2022-07-19T07:05:46Z</time>
      </trkpt>
      <trkpt lat="44.31305" lon="5.18829">
        <ele>481.2</ele>
        <time>2022-07-19T07:05:47Z</time>
      </trkpt>
      <trkpt lat="44.31307" lon="5.18828">
        <ele>481.5</ele>
        <time>2022-07-19T07:05:48Z</time>
      </trkpt>
      <trkpt lat="44.31308" lon="5.18828">
        <ele>481.6</ele>
        <time>2022-07-19T07:05:49Z</time>
      </trkpt>
      <trkpt lat="44.31308" lon="5.18828">
        <ele>481.8</ele>
        <time>2022-07-19T07:05:50Z</time>
      </trkpt>
      <trkpt lat="44.31311" lon="5.18828">
        <ele>482</ele>
        <time>2022-07-19T07:05:51Z</time>
      </trkpt>
      <trkpt lat="44.31312" lon="5.18828">
        <ele>482.2</ele>
        <time>2022-07-19T07:05:52Z</time>
      </trkpt>
      <trkpt lat="44.31313" lon="5.18827">
        <ele>482.3</ele>
        <time>2022-07-19T07:05:53Z</time>
      </trkpt>
      <trkpt lat="44.31314" lon="5.18827">
        <ele>482.5</ele>
        <time>2022-07-19T07:05:54Z</time>
      </trkpt>
      <trkpt lat="44.31316" lon="5.18827">
        <ele>482.7</ele>
        <time>2022-07-19T07:05:55Z</time>
      </trkpt>
      <trkpt lat="44.31317" lon="5.18826">
        <ele>482.9</ele>
        <time>2022-07-19T07:05:56Z</time>
      </trkpt>
      <trkpt lat="44.31318" lon="5.18826">
        <ele>483</ele>
        <time>2022-07-19T07:05:57Z</time>
      </trkpt>
      <trkpt lat="44.31319" lon="5.18827">
        <ele>483.1</ele>
        <time>2022-07-19T07:05:58Z</time>
      </trkpt>
      <trkpt lat="44.3132" lon="5.18827">
        <ele>483.3</ele>
        <time>2022-07-19T07:05:59Z</time>
      </trkpt>
      <trkpt lat="44.31321" lon="5.18828">
        <ele>483.4</ele>
        <time>2022-07-19T07:06:00Z</time>
      </trkpt>
      <trkpt lat="44.31322" lon="5.18828">
        <ele>483.5</ele>
        <time>2022-07-19T07:06:01Z</time>
      </trkpt>
      <trkpt lat="44.31324" lon="5.18829">
        <ele>483.6</ele>
        <time>2022-07-19T07:06:02Z</time>
      </trkpt>
      <trkpt lat="44.31325" lon="5.18829">
        <ele>483.7</ele>
        <time>2022-07-19T07:06:03Z</time>
      </trkpt>
      <trkpt lat="44.31327" lon="5.1883">
        <ele>483.9</ele>
        <time>2022-07-19T07:06:04Z</time>
      </trkpt>
      <trkpt lat="44.31327" lon="5.1883">
        <ele>484</ele>
        <time>2022-07-19T07:06:05Z</time>
      </trkpt>
      <trkpt lat="44.31328" lon="5.1883">
        <ele>484</ele>
        <time>2022-07-19T07:06:06Z</time>
      </trkpt>
      <trkpt lat="44.3133" lon="5.1883">
        <ele>484.2</ele>
        <time>2022-07-19T07:06:07Z</time>
      </trkpt>
      <trkpt lat="44.31331" lon="5.1883">
        <ele>484.3</ele>
        <time>2022-07-19T07:06:08Z</time>
      </trkpt>
      <trkpt lat="44.31333" lon="5.18831">
        <ele>484.4</ele>
        <time>2022-07-19T07:06:09Z</time>
      </trkpt>
      <trkpt lat="44.31334" lon="5.18831">
        <ele>484.5</ele>
        <time>2022-07-19T07:06:10Z</time>
      </trkpt>
      <trkpt lat="44.31335" lon="5.18832">
        <ele>484.5</ele>
        <time>2022-07-19T07:06:11Z</time>
      </trkpt>
      <trkpt lat="44.31335" lon="5.18834">
        <ele>484.6</ele>
        <time>2022-07-19T07:06:12Z</time>
      </trkpt>
      <trkpt lat="44.31337" lon="5.18835">
        <ele>484.7</ele>
        <time>2022-07-19T07:06:13Z</time>
      </trkpt>
      <trkpt lat="44.31339" lon="5.18837">
        <ele>484.9</ele>
        <time>2022-07-19T07:06:14Z</time>
      </trkpt>
      <trkpt lat="44.3134" lon="5.18837">
        <ele>484.9</ele>
        <time>2022-07-19T07:06:15Z</time>
      </trkpt>
      <trkpt lat="44.31343" lon="5.18838">
        <ele>485.1</ele>
        <time>2022-07-19T07:06:16Z</time>
      </trkpt>
      <trkpt lat="44.31344" lon="5.18839">
        <ele>485.1</ele>
        <time>2022-07-19T07:06:17Z</time>
      </trkpt>
      <trkpt lat="44.31347" lon="5.1884">
        <ele>485.3</ele>
        <time>2022-07-19T07:06:18Z</time>
      </trkpt>
      <trkpt lat="44.31348" lon="5.1884">
        <ele>485.3</ele>
        <time>2022-07-19T07:06:19Z</time>
      </trkpt>
      <trkpt lat="44.3135" lon="5.1884">
        <ele>485.4</ele>
        <time>2022-07-19T07:06:20Z</time>
      </trkpt>
      <trkpt lat="44.31351" lon="5.18841">
        <ele>485.5</ele>
        <time>2022-07-19T07:06:21Z</time>
      </trkpt>
      <trkpt lat="44.31353" lon="5.18843">
        <ele>485.6</ele>
        <time>2022-07-19T07:06:22Z</time>
      </trkpt>
      <trkpt lat="44.31354" lon="5.18843">
        <ele>485.7</ele>
        <time>2022-07-19T07:06:23Z</time>
      </trkpt>
      <trkpt lat="44.31355" lon="5.18844">
        <ele>485.7</ele>
        <time>2022-07-19T07:06:24Z</time>
      </trkpt>
      <trkpt lat="44.31356" lon="5.18845">
        <ele>485.7</ele>
        <time>2022-07-19T07:06:25Z</time>
      </trkpt>
      <trkpt lat="44.31357" lon="5.18846">
        <ele>485.8</ele>
        <time>2022-07-19T07:06:26Z</time>
      </trkpt>
      <trkpt lat="44.31358" lon="5.18848">
        <ele>485.9</ele>
        <time>2022-07-19T07:06:27Z</time>
      </trkpt>
      <trkpt lat="44.31359" lon="5.18849">
        <ele>485.9</ele>
        <time>2022-07-19T07:06:28Z</time>
      </trkpt>
      <trkpt lat="44.3136" lon="5.1885">
        <ele>485.9</ele>
        <time>2022-07-19T07:06:29Z</time>
      </trkpt>
      <trkpt lat="44.31361" lon="5.18851">
        <ele>486</ele>
        <time>2022-07-19T07:06:30Z</time>
      </trkpt>
      <trkpt lat="44.31364" lon="5.18853">
        <ele>486.1</ele>
        <time>2022-07-19T07:06:31Z</time>
      </trkpt>
      <trkpt lat="44.31365" lon="5.18853">
        <ele>486.1</ele>
        <time>2022-07-19T07:06:32Z</time>
      </trkpt>
      <trkpt lat="44.31368" lon="5.18856">
        <ele>486.2</ele>
        <time>2022-07-19T07:06:33Z</time>
      </trkpt>
      <trkpt lat="44.31368" lon="5.18857">
        <ele>486.2</ele>
        <time>2022-07-19T07:06:34Z</time>
      </trkpt>
      <trkpt lat="44.3137" lon="5.1886">
        <ele>486.3</ele>
        <time>2022-07-19T07:06:35Z</time>
      </trkpt>
      <trkpt lat="44.31371" lon="5.18861">
        <ele>486.4</ele>
        <time>2022-07-19T07:06:36Z</time>
      </trkpt>
      <trkpt lat="44.31373" lon="5.18863">
        <ele>486.5</ele>
        <time>2022-07-19T07:06:37Z</time>
      </trkpt>
      <trkpt lat="44.31375" lon="5.18864">
        <ele>486.6</ele>
        <time>2022-07-19T07:06:38Z</time>
      </trkpt>
      <trkpt lat="44.31378" lon="5.18864">
        <ele>486.8</ele>
        <time>2022-07-19T07:06:39Z</time>
      </trkpt>
      <trkpt lat="44.31379" lon="5.18864">
        <ele>486.8</ele>
        <time>2022-07-19T07:06:40Z</time>
      </trkpt>
      <trkpt lat="44.31381" lon="5.18864">
        <ele>487</ele>
        <time>2022-07-19T07:06:41Z</time>
      </trkpt>
      <trkpt lat="44.31382" lon="5.18863">
        <ele>487</ele>
        <time>2022-07-19T07:06:42Z</time>
      </trkpt>
      <trkpt lat="44.31384" lon="5.18862">
        <ele>487.1</ele>
        <time>2022-07-19T07:06:43Z</time>
      </trkpt>
      <trkpt lat="44.31385" lon="5.18862">
        <ele>487.2</ele>
        <time>2022-07-19T07:06:44Z</time>
      </trkpt>
      <trkpt lat="44.31387" lon="5.18862">
        <ele>487.3</ele>
        <time>2022-07-19T07:06:45Z</time>
      </trkpt>
      <trkpt lat="44.31388" lon="5.18862">
        <ele>487.4</ele>
        <time>2022-07-19T07:06:46Z</time>
      </trkpt>
      <trkpt lat="44.3139" lon="5.18862">
        <ele>487.4</ele>
        <time>2022-07-19T07:06:47Z</time>
      </trkpt>
      <trkpt lat="44.31391" lon="5.18861">
        <ele>487.5</ele>
        <time>2022-07-19T07:06:48Z</time>
      </trkpt>
      <trkpt lat="44.31393" lon="5.18862">
        <ele>487.6</ele>
        <time>2022-07-19T07:06:49Z</time>
      </trkpt>
      <trkpt lat="44.31395" lon="5.18863">
        <ele>487.7</ele>
        <time>2022-07-19T07:06:50Z</time>
      </trkpt>
      <trkpt lat="44.31396" lon="5.18864">
        <ele>487.8</ele>
        <time>2022-07-19T07:06:51Z</time>
      </trkpt>
      <trkpt lat="44.31398" lon="5.18867">
        <ele>487.9</ele>
        <time>2022-07-19T07:06:52Z</time>
      </trkpt>
      <trkpt lat="44.31399" lon="5.18868">
        <ele>488</ele>
        <time>2022-07-19T07:06:53Z</time>
      </trkpt>
      <trkpt lat="44.31401" lon="5.18871">
        <ele>488.1</ele>
        <time>2022-07-19T07:06:54Z</time>
      </trkpt>
      <trkpt lat="44.31402" lon="5.18872">
        <ele>488.2</ele>
        <time>2022-07-19T07:06:55Z</time>
      </trkpt>
      <trkpt lat="44.31404" lon="5.18875">
        <ele>488.3</ele>
        <time>2022-07-19T07:06:56Z</time>
      </trkpt>
      <trkpt lat="44.31404" lon="5.18876">
        <ele>488.3</ele>
        <time>2022-07-19T07:06:57Z</time>
      </trkpt>
      <trkpt lat="44.31407" lon="5.18879">
        <ele>488.5</ele>
        <time>2022-07-19T07:06:58Z</time>
      </trkpt>
      <trkpt lat="44.31407" lon="5.18879">
        <ele>488.5</ele>
        <time>2022-07-19T07:06:59Z</time>
      </trkpt>
      <trkpt lat="44.31408" lon="5.1888">
        <ele>488.6</ele>
        <time>2022-07-19T07:07:00Z</time>
      </trkpt>
      <trkpt lat="44.3141" lon="5.18881">
        <ele>488.6</ele>
        <time>2022-07-19T07:07:01Z</time>
      </trkpt>
      <trkpt lat="44.31412" lon="5.18884">
        <ele>488.8</ele>
        <time>2022-07-19T07:07:02Z</time>
      </trkpt>
      <trkpt lat="44.31413" lon="5.18884">
        <ele>488.8</ele>
        <time>2022-07-19T07:07:03Z</time>
      </trkpt>
      <trkpt lat="44.31416" lon="5.18887">
        <ele>489</ele>
        <time>2022-07-19T07:07:04Z</time>
      </trkpt>
      <trkpt lat="44.31417" lon="5.18887">
        <ele>489.1</ele>
        <time>2022-07-19T07:07:05Z</time>
      </trkpt>
      <trkpt lat="44.3142" lon="5.18888">
        <ele>489.4</ele>
        <time>2022-07-19T07:07:06Z</time>
      </trkpt>
      <trkpt lat="44.31421" lon="5.18889">
        <ele>489.4</ele>
        <time>2022-07-19T07:07:07Z</time>
      </trkpt>
      <trkpt lat="44.31423" lon="5.1889">
        <ele>489.6</ele>
        <time>2022-07-19T07:07:08Z</time>
      </trkpt>
      <trkpt lat="44.31424" lon="5.18892">
        <ele>489.7</ele>
        <time>2022-07-19T07:07:09Z</time>
      </trkpt>
      <trkpt lat="44.31425" lon="5.18895">
        <ele>489.9</ele>
        <time>2022-07-19T07:07:10Z</time>
      </trkpt>
      <trkpt lat="44.31425" lon="5.18897">
        <ele>489.9</ele>
        <time>2022-07-19T07:07:11Z</time>
      </trkpt>
      <trkpt lat="44.31427" lon="5.189">
        <ele>490.1</ele>
        <time>2022-07-19T07:07:12Z</time>
      </trkpt>
      <trkpt lat="44.31428" lon="5.18901">
        <ele>490.2</ele>
        <time>2022-07-19T07:07:13Z</time>
      </trkpt>
      <trkpt lat="44.31431" lon="5.18903">
        <ele>490.4</ele>
        <time>2022-07-19T07:07:14Z</time>
      </trkpt>
      <trkpt lat="44.31431" lon="5.18904">
        <ele>490.5</ele>
        <time>2022-07-19T07:07:15Z</time>
      </trkpt>
      <trkpt lat="44.31434" lon="5.18906">
        <ele>490.7</ele>
        <time>2022-07-19T07:07:16Z</time>
      </trkpt>
      <trkpt lat="44.31434" lon="5.18907">
        <ele>490.7</ele>
        <time>2022-07-19T07:07:17Z</time>
      </trkpt>
      <trkpt lat="44.31437" lon="5.1891">
        <ele>490.9</ele>
        <time>2022-07-19T07:07:18Z</time>
      </trkpt>
      <trkpt lat="44.31438" lon="5.18911">
        <ele>491</ele>
        <time>2022-07-19T07:07:19Z</time>
      </trkpt>
      <trkpt lat="44.31441" lon="5.18913">
        <ele>491.2</ele>
        <time>2022-07-19T07:07:20Z</time>
      </trkpt>
      <trkpt lat="44.31443" lon="5.18913">
        <ele>491.2</ele>
        <time>2022-07-19T07:07:21Z</time>
      </trkpt>
      <trkpt lat="44.31446" lon="5.18915">
        <ele>491.4</ele>
        <time>2022-07-19T07:07:22Z</time>
      </trkpt>
      <trkpt lat="44.31447" lon="5.18916">
        <ele>491.5</ele>
        <time>2022-07-19T07:07:23Z</time>
      </trkpt>
      <trkpt lat="44.3145" lon="5.18919">
        <ele>491.6</ele>
        <time>2022-07-19T07:07:24Z</time>
      </trkpt>
      <trkpt lat="44.3145" lon="5.1892">
        <ele>491.7</ele>
        <time>2022-07-19T07:07:25Z</time>
      </trkpt>
      <trkpt lat="44.31453" lon="5.18924">
        <ele>491.8</ele>
        <time>2022-07-19T07:07:26Z</time>
      </trkpt>
      <trkpt lat="44.31453" lon="5.18924">
        <ele>491.8</ele>
        <time>2022-07-19T07:07:27Z</time>
      </trkpt>
      <trkpt lat="44.31456" lon="5.18927">
        <ele>492</ele>
        <time>2022-07-19T07:07:28Z</time>
      </trkpt>
      <trkpt lat="44.31457" lon="5.18928">
        <ele>492</ele>
        <time>2022-07-19T07:07:29Z</time>
      </trkpt>
      <trkpt lat="44.31458" lon="5.18929">
        <ele>492.1</ele>
        <time>2022-07-19T07:07:30Z</time>
      </trkpt>
      <trkpt lat="44.3146" lon="5.1893">
        <ele>492.1</ele>
        <time>2022-07-19T07:07:31Z</time>
      </trkpt>
      <trkpt lat="44.3146" lon="5.1893">
        <ele>492.2</ele>
        <time>2022-07-19T07:07:32Z</time>
      </trkpt>
      <trkpt lat="44.31461" lon="5.18931">
        <ele>492.2</ele>
        <time>2022-07-19T07:07:33Z</time>
      </trkpt>
      <trkpt lat="44.31462" lon="5.18933">
        <ele>492.3</ele>
        <time>2022-07-19T07:07:34Z</time>
      </trkpt>
      <trkpt lat="44.31463" lon="5.18935">
        <ele>492.3</ele>
        <time>2022-07-19T07:07:35Z</time>
      </trkpt>
      <trkpt lat="44.31464" lon="5.18936">
        <ele>492.4</ele>
        <time>2022-07-19T07:07:36Z</time>
      </trkpt>
      <trkpt lat="44.31464" lon="5.18937">
        <ele>492.4</ele>
        <time>2022-07-19T07:07:37Z</time>
      </trkpt>
      <trkpt lat="44.31464" lon="5.1894">
        <ele>492.5</ele>
        <time>2022-07-19T07:07:38Z</time>
      </trkpt>
      <trkpt lat="44.31464" lon="5.18941">
        <ele>492.5</ele>
        <time>2022-07-19T07:07:39Z</time>
      </trkpt>
      <trkpt lat="44.31464" lon="5.18942">
        <ele>492.5</ele>
        <time>2022-07-19T07:07:40Z</time>
      </trkpt>
      <trkpt lat="44.31465" lon="5.18946">
        <ele>492.6</ele>
        <time>2022-07-19T07:07:41Z</time>
      </trkpt>
      <trkpt lat="44.31466" lon="5.18947">
        <ele>492.7</ele>
        <time>2022-07-19T07:07:42Z</time>
      </trkpt>
      <trkpt lat="44.31468" lon="5.1895">
        <ele>492.8</ele>
        <time>2022-07-19T07:07:43Z</time>
      </trkpt>
      <trkpt lat="44.31468" lon="5.18951">
        <ele>492.8</ele>
        <time>2022-07-19T07:07:44Z</time>
      </trkpt>
      <trkpt lat="44.31469" lon="5.18953">
        <ele>492.9</ele>
        <time>2022-07-19T07:07:45Z</time>
      </trkpt>
      <trkpt lat="44.3147" lon="5.18955">
        <ele>493</ele>
        <time>2022-07-19T07:07:46Z</time>
      </trkpt>
      <trkpt lat="44.3147" lon="5.18959">
        <ele>493.1</ele>
        <time>2022-07-19T07:07:47Z</time>
      </trkpt>
      <trkpt lat="44.3147" lon="5.1896">
        <ele>493.1</ele>
        <time>2022-07-19T07:07:48Z</time>
      </trkpt>
      <trkpt lat="44.31471" lon="5.18964">
        <ele>493.3</ele>
        <time>2022-07-19T07:07:49Z</time>
      </trkpt>
      <trkpt lat="44.31472" lon="5.18966">
        <ele>493.3</ele>
        <time>2022-07-19T07:07:50Z</time>
      </trkpt>
      <trkpt lat="44.31473" lon="5.18969">
        <ele>493.4</ele>
        <time>2022-07-19T07:07:51Z</time>
      </trkpt>
      <trkpt lat="44.31474" lon="5.1897">
        <ele>493.5</ele>
        <time>2022-07-19T07:07:52Z</time>
      </trkpt>
      <trkpt lat="44.31476" lon="5.18973">
        <ele>493.6</ele>
        <time>2022-07-19T07:07:53Z</time>
      </trkpt>
      <trkpt lat="44.31476" lon="5.18975">
        <ele>493.7</ele>
        <time>2022-07-19T07:07:54Z</time>
      </trkpt>
      <trkpt lat="44.31478" lon="5.18978">
        <ele>493.8</ele>
        <time>2022-07-19T07:07:55Z</time>
      </trkpt>
      <trkpt lat="44.31479" lon="5.18979">
        <ele>493.9</ele>
        <time>2022-07-19T07:07:56Z</time>
      </trkpt>
      <trkpt lat="44.31481" lon="5.18982">
        <ele>494</ele>
        <time>2022-07-19T07:07:57Z</time>
      </trkpt>
      <trkpt lat="44.31481" lon="5.18983">
        <ele>494</ele>
        <time>2022-07-19T07:07:58Z</time>
      </trkpt>
      <trkpt lat="44.31483" lon="5.18987">
        <ele>494.1</ele>
        <time>2022-07-19T07:07:59Z</time>
      </trkpt>
      <trkpt lat="44.31483" lon="5.18988">
        <ele>494.2</ele>
        <time>2022-07-19T07:08:00Z</time>
      </trkpt>
      <trkpt lat="44.31484" lon="5.18992">
        <ele>494.3</ele>
        <time>2022-07-19T07:08:01Z</time>
      </trkpt>
      <trkpt lat="44.31485" lon="5.18993">
        <ele>494.3</ele>
        <time>2022-07-19T07:08:02Z</time>
      </trkpt>
      <trkpt lat="44.31486" lon="5.18996">
        <ele>494.5</ele>
        <time>2022-07-19T07:08:03Z</time>
      </trkpt>
      <trkpt lat="44.31487" lon="5.18997">
        <ele>494.5</ele>
        <time>2022-07-19T07:08:04Z</time>
      </trkpt>
      <trkpt lat="44.31488" lon="5.18999">
        <ele>494.6</ele>
        <time>2022-07-19T07:08:05Z</time>
      </trkpt>
      <trkpt lat="44.31489" lon="5.19001">
        <ele>494.7</ele>
        <time>2022-07-19T07:08:06Z</time>
      </trkpt>
      <trkpt lat="44.3149" lon="5.19002">
        <ele>494.7</ele>
        <time>2022-07-19T07:08:07Z</time>
      </trkpt>
      <trkpt lat="44.31491" lon="5.19004">
        <ele>494.8</ele>
        <time>2022-07-19T07:08:08Z</time>
      </trkpt>
      <trkpt lat="44.31493" lon="5.19006">
        <ele>494.9</ele>
        <time>2022-07-19T07:08:09Z</time>
      </trkpt>
      <trkpt lat="44.31494" lon="5.19007">
        <ele>494.9</ele>
        <time>2022-07-19T07:08:10Z</time>
      </trkpt>
      <trkpt lat="44.31495" lon="5.19011">
        <ele>495.1</ele>
        <time>2022-07-19T07:08:11Z</time>
      </trkpt>
      <trkpt lat="44.31496" lon="5.19012">
        <ele>495.1</ele>
        <time>2022-07-19T07:08:12Z</time>
      </trkpt>
      <trkpt lat="44.31497" lon="5.19015">
        <ele>495.2</ele>
        <time>2022-07-19T07:08:13Z</time>
      </trkpt>
      <trkpt lat="44.31498" lon="5.19016">
        <ele>495.3</ele>
        <time>2022-07-19T07:08:14Z</time>
      </trkpt>
      <trkpt lat="44.31499" lon="5.19019">
        <ele>495.4</ele>
        <time>2022-07-19T07:08:15Z</time>
      </trkpt>
      <trkpt lat="44.31499" lon="5.1902">
        <ele>495.4</ele>
        <time>2022-07-19T07:08:16Z</time>
      </trkpt>
      <trkpt lat="44.31501" lon="5.19023">
        <ele>495.6</ele>
        <time>2022-07-19T07:08:17Z</time>
      </trkpt>
      <trkpt lat="44.31502" lon="5.19024">
        <ele>495.6</ele>
        <time>2022-07-19T07:08:18Z</time>
      </trkpt>
      <trkpt lat="44.31504" lon="5.19027">
        <ele>495.7</ele>
        <time>2022-07-19T07:08:19Z</time>
      </trkpt>
      <trkpt lat="44.31505" lon="5.19027">
        <ele>495.8</ele>
        <time>2022-07-19T07:08:20Z</time>
      </trkpt>
      <trkpt lat="44.31508" lon="5.1903">
        <ele>495.9</ele>
        <time>2022-07-19T07:08:21Z</time>
      </trkpt>
      <trkpt lat="44.31509" lon="5.19031">
        <ele>496</ele>
        <time>2022-07-19T07:08:22Z</time>
      </trkpt>
      <trkpt lat="44.31511" lon="5.19033">
        <ele>496.1</ele>
        <time>2022-07-19T07:08:23Z</time>
      </trkpt>
      <trkpt lat="44.31512" lon="5.19034">
        <ele>496.2</ele>
        <time>2022-07-19T07:08:24Z</time>
      </trkpt>
      <trkpt lat="44.31515" lon="5.19036">
        <ele>496.3</ele>
        <time>2022-07-19T07:08:25Z</time>
      </trkpt>
      <trkpt lat="44.31515" lon="5.19037">
        <ele>496.4</ele>
        <time>2022-07-19T07:08:26Z</time>
      </trkpt>
      <trkpt lat="44.31518" lon="5.1904">
        <ele>496.5</ele>
        <time>2022-07-19T07:08:27Z</time>
      </trkpt>
      <trkpt lat="44.31519" lon="5.19041">
        <ele>496.6</ele>
        <time>2022-07-19T07:08:28Z</time>
      </trkpt>
      <trkpt lat="44.31521" lon="5.19044">
        <ele>496.8</ele>
        <time>2022-07-19T07:08:29Z</time>
      </trkpt>
      <trkpt lat="44.31521" lon="5.19045">
        <ele>496.8</ele>
        <time>2022-07-19T07:08:30Z</time>
      </trkpt>
      <trkpt lat="44.31523" lon="5.19046">
        <ele>496.9</ele>
        <time>2022-07-19T07:08:31Z</time>
      </trkpt>
      <trkpt lat="44.31524" lon="5.19048">
        <ele>497</ele>
        <time>2022-07-19T07:08:32Z</time>
      </trkpt>
      <trkpt lat="44.31525" lon="5.19049">
        <ele>497.1</ele>
        <time>2022-07-19T07:08:33Z</time>
      </trkpt>
      <trkpt lat="44.31527" lon="5.1905">
        <ele>497.2</ele>
        <time>2022-07-19T07:08:34Z</time>
      </trkpt>
      <trkpt lat="44.31528" lon="5.19052">
        <ele>497.3</ele>
        <time>2022-07-19T07:08:35Z</time>
      </trkpt>
      <trkpt lat="44.31529" lon="5.19053">
        <ele>497.4</ele>
        <time>2022-07-19T07:08:36Z</time>
      </trkpt>
      <trkpt lat="44.3153" lon="5.19055">
        <ele>497.5</ele>
        <time>2022-07-19T07:08:37Z</time>
      </trkpt>
      <trkpt lat="44.31531" lon="5.19057">
        <ele>497.6</ele>
        <time>2022-07-19T07:08:38Z</time>
      </trkpt>
      <trkpt lat="44.31531" lon="5.19059">
        <ele>497.7</ele>
        <time>2022-07-19T07:08:39Z</time>
      </trkpt>
      <trkpt lat="44.31532" lon="5.19061">
        <ele>497.8</ele>
        <time>2022-07-19T07:08:40Z</time>
      </trkpt>
      <trkpt lat="44.31533" lon="5.19063">
        <ele>497.9</ele>
        <time>2022-07-19T07:08:41Z</time>
      </trkpt>
      <trkpt lat="44.31533" lon="5.19064">
        <ele>498</ele>
        <time>2022-07-19T07:08:42Z</time>
      </trkpt>
      <trkpt lat="44.31533" lon="5.19065">
        <ele>498</ele>
        <time>2022-07-19T07:08:43Z</time>
      </trkpt>
      <trkpt lat="44.31534" lon="5.19067">
        <ele>498.2</ele>
        <time>2022-07-19T07:08:44Z</time>
      </trkpt>
      <trkpt lat="44.31535" lon="5.19069">
        <ele>498.3</ele>
        <time>2022-07-19T07:08:45Z</time>
      </trkpt>
      <trkpt lat="44.31537" lon="5.19073">
        <ele>498.6</ele>
        <time>2022-07-19T07:08:46Z</time>
      </trkpt>
      <trkpt lat="44.31538" lon="5.19074">
        <ele>498.6</ele>
        <time>2022-07-19T07:08:47Z</time>
      </trkpt>
      <trkpt lat="44.31539" lon="5.19078">
        <ele>498.8</ele>
        <time>2022-07-19T07:08:48Z</time>
      </trkpt>
      <trkpt lat="44.3154" lon="5.19079">
        <ele>498.9</ele>
        <time>2022-07-19T07:08:49Z</time>
      </trkpt>
      <trkpt lat="44.31541" lon="5.19081">
        <ele>499</ele>
        <time>2022-07-19T07:08:50Z</time>
      </trkpt>
      <trkpt lat="44.31542" lon="5.19083">
        <ele>499.2</ele>
        <time>2022-07-19T07:08:51Z</time>
      </trkpt>
      <trkpt lat="44.31543" lon="5.19085">
        <ele>499.3</ele>
        <time>2022-07-19T07:08:52Z</time>
      </trkpt>
      <trkpt lat="44.31544" lon="5.19087">
        <ele>499.4</ele>
        <time>2022-07-19T07:08:53Z</time>
      </trkpt>
      <trkpt lat="44.31545" lon="5.19089">
        <ele>499.5</ele>
        <time>2022-07-19T07:08:54Z</time>
      </trkpt>
      <trkpt lat="44.31545" lon="5.19091">
        <ele>499.6</ele>
        <time>2022-07-19T07:08:55Z</time>
      </trkpt>
      <trkpt lat="44.31547" lon="5.19093">
        <ele>499.7</ele>
        <time>2022-07-19T07:08:56Z</time>
      </trkpt>
      <trkpt lat="44.31547" lon="5.19094">
        <ele>499.7</ele>
        <time>2022-07-19T07:08:57Z</time>
      </trkpt>
      <trkpt lat="44.31548" lon="5.19095">
        <ele>499.8</ele>
        <time>2022-07-19T07:08:58Z</time>
      </trkpt>
      <trkpt lat="44.31549" lon="5.19097">
        <ele>499.9</ele>
        <time>2022-07-19T07:08:59Z</time>
      </trkpt>
      <trkpt lat="44.3155" lon="5.19099">
        <ele>499.9</ele>
        <time>2022-07-19T07:09:00Z</time>
      </trkpt>
      <trkpt lat="44.31551" lon="5.19103">
        <ele>500.1</ele>
        <time>2022-07-19T07:09:01Z</time>
      </trkpt>
      <trkpt lat="44.31551" lon="5.19104">
        <ele>500.1</ele>
        <time>2022-07-19T07:09:02Z</time>
      </trkpt>
      <trkpt lat="44.31553" lon="5.19108">
        <ele>500.2</ele>
        <time>2022-07-19T07:09:03Z</time>
      </trkpt>
      <trkpt lat="44.31553" lon="5.1911">
        <ele>500.2</ele>
        <time>2022-07-19T07:09:04Z</time>
      </trkpt>
      <trkpt lat="44.31556" lon="5.19113">
        <ele>500.3</ele>
        <time>2022-07-19T07:09:05Z</time>
      </trkpt>
      <trkpt lat="44.31557" lon="5.19114">
        <ele>500.4</ele>
        <time>2022-07-19T07:09:06Z</time>
      </trkpt>
      <trkpt lat="44.3156" lon="5.19117">
        <ele>500.5</ele>
        <time>2022-07-19T07:09:07Z</time>
      </trkpt>
      <trkpt lat="44.31561" lon="5.19118">
        <ele>500.5</ele>
        <time>2022-07-19T07:09:08Z</time>
      </trkpt>
      <trkpt lat="44.31564" lon="5.1912">
        <ele>500.6</ele>
        <time>2022-07-19T07:09:09Z</time>
      </trkpt>
      <trkpt lat="44.31565" lon="5.19121">
        <ele>500.6</ele>
        <time>2022-07-19T07:09:10Z</time>
      </trkpt>
      <trkpt lat="44.31567" lon="5.19123">
        <ele>500.7</ele>
        <time>2022-07-19T07:09:11Z</time>
      </trkpt>
      <trkpt lat="44.31568" lon="5.19124">
        <ele>500.7</ele>
        <time>2022-07-19T07:09:12Z</time>
      </trkpt>
      <trkpt lat="44.31571" lon="5.19127">
        <ele>500.8</ele>
        <time>2022-07-19T07:09:13Z</time>
      </trkpt>
      <trkpt lat="44.31571" lon="5.19128">
        <ele>500.8</ele>
        <time>2022-07-19T07:09:14Z</time>
      </trkpt>
      <trkpt lat="44.31573" lon="5.19131">
        <ele>500.8</ele>
        <time>2022-07-19T07:09:15Z</time>
      </trkpt>
      <trkpt lat="44.31574" lon="5.19132">
        <ele>500.8</ele>
        <time>2022-07-19T07:09:16Z</time>
      </trkpt>
      <trkpt lat="44.31575" lon="5.19135">
        <ele>500.9</ele>
        <time>2022-07-19T07:09:17Z</time>
      </trkpt>
      <trkpt lat="44.31575" lon="5.19136">
        <ele>500.9</ele>
        <time>2022-07-19T07:09:18Z</time>
      </trkpt>
      <trkpt lat="44.31576" lon="5.19141">
        <ele>500.9</ele>
        <time>2022-07-19T07:09:19Z</time>
      </trkpt>
      <trkpt lat="44.31576" lon="5.19143">
        <ele>500.9</ele>
        <time>2022-07-19T07:09:20Z</time>
      </trkpt>
      <trkpt lat="44.31577" lon="5.19147">
        <ele>501</ele>
        <time>2022-07-19T07:09:21Z</time>
      </trkpt>
      <trkpt lat="44.31577" lon="5.19148">
        <ele>501</ele>
        <time>2022-07-19T07:09:22Z</time>
      </trkpt>
      <trkpt lat="44.31579" lon="5.19151">
        <ele>501.1</ele>
        <time>2022-07-19T07:09:23Z</time>
      </trkpt>
      <trkpt lat="44.31579" lon="5.19153">
        <ele>501.1</ele>
        <time>2022-07-19T07:09:24Z</time>
      </trkpt>
      <trkpt lat="44.31581" lon="5.19156">
        <ele>501.1</ele>
        <time>2022-07-19T07:09:25Z</time>
      </trkpt>
      <trkpt lat="44.31581" lon="5.19157">
        <ele>501.2</ele>
        <time>2022-07-19T07:09:26Z</time>
      </trkpt>
      <trkpt lat="44.31582" lon="5.19159">
        <ele>501.2</ele>
        <time>2022-07-19T07:09:27Z</time>
      </trkpt>
      <trkpt lat="44.31582" lon="5.19161">
        <ele>501.2</ele>
        <time>2022-07-19T07:09:28Z</time>
      </trkpt>
      <trkpt lat="44.31584" lon="5.19164">
        <ele>501.3</ele>
        <time>2022-07-19T07:09:29Z</time>
      </trkpt>
      <trkpt lat="44.31585" lon="5.19165">
        <ele>501.3</ele>
        <time>2022-07-19T07:09:30Z</time>
      </trkpt>
      <trkpt lat="44.31587" lon="5.19169">
        <ele>501.4</ele>
        <time>2022-07-19T07:09:31Z</time>
      </trkpt>
      <trkpt lat="44.31587" lon="5.1917">
        <ele>501.4</ele>
        <time>2022-07-19T07:09:32Z</time>
      </trkpt>
      <trkpt lat="44.3159" lon="5.19173">
        <ele>501.5</ele>
        <time>2022-07-19T07:09:33Z</time>
      </trkpt>
      <trkpt lat="44.31591" lon="5.19174">
        <ele>501.5</ele>
        <time>2022-07-19T07:09:34Z</time>
      </trkpt>
      <trkpt lat="44.31594" lon="5.19176">
        <ele>501.6</ele>
        <time>2022-07-19T07:09:35Z</time>
      </trkpt>
      <trkpt lat="44.31595" lon="5.19177">
        <ele>501.6</ele>
        <time>2022-07-19T07:09:36Z</time>
      </trkpt>
      <trkpt lat="44.31598" lon="5.19178">
        <ele>501.7</ele>
        <time>2022-07-19T07:09:37Z</time>
      </trkpt>
      <trkpt lat="44.31599" lon="5.19179">
        <ele>501.7</ele>
        <time>2022-07-19T07:09:38Z</time>
      </trkpt>
      <trkpt lat="44.31601" lon="5.19181">
        <ele>501.7</ele>
        <time>2022-07-19T07:09:39Z</time>
      </trkpt>
      <trkpt lat="44.31602" lon="5.19182">
        <ele>501.7</ele>
        <time>2022-07-19T07:09:40Z</time>
      </trkpt>
      <trkpt lat="44.31604" lon="5.19185">
        <ele>501.7</ele>
        <time>2022-07-19T07:09:41Z</time>
      </trkpt>
      <trkpt lat="44.31605" lon="5.19186">
        <ele>501.8</ele>
        <time>2022-07-19T07:09:42Z</time>
      </trkpt>
      <trkpt lat="44.31608" lon="5.19187">
        <ele>501.8</ele>
        <time>2022-07-19T07:09:43Z</time>
      </trkpt>
      <trkpt lat="44.31609" lon="5.19188">
        <ele>501.8</ele>
        <time>2022-07-19T07:09:44Z</time>
      </trkpt>
      <trkpt lat="44.31612" lon="5.19189">
        <ele>501.9</ele>
        <time>2022-07-19T07:09:45Z</time>
      </trkpt>
      <trkpt lat="44.31613" lon="5.1919">
        <ele>501.9</ele>
        <time>2022-07-19T07:09:46Z</time>
      </trkpt>
      <trkpt lat="44.31616" lon="5.19191">
        <ele>502</ele>
        <time>2022-07-19T07:09:47Z</time>
      </trkpt>
      <trkpt lat="44.31617" lon="5.19191">
        <ele>502</ele>
        <time>2022-07-19T07:09:48Z</time>
      </trkpt>
      <trkpt lat="44.31618" lon="5.19191">
        <ele>502</ele>
        <time>2022-07-19T07:09:49Z</time>
      </trkpt>
      <trkpt lat="44.3162" lon="5.19191">
        <ele>502.1</ele>
        <time>2022-07-19T07:09:50Z</time>
      </trkpt>
      <trkpt lat="44.31622" lon="5.19192">
        <ele>502.1</ele>
        <time>2022-07-19T07:09:51Z</time>
      </trkpt>
      <trkpt lat="44.31623" lon="5.19193">
        <ele>502.2</ele>
        <time>2022-07-19T07:09:52Z</time>
      </trkpt>
      <trkpt lat="44.31624" lon="5.19194">
        <ele>502.2</ele>
        <time>2022-07-19T07:09:53Z</time>
      </trkpt>
      <trkpt lat="44.31625" lon="5.19195">
        <ele>502.2</ele>
        <time>2022-07-19T07:09:54Z</time>
      </trkpt>
      <trkpt lat="44.31625" lon="5.19196">
        <ele>502.3</ele>
        <time>2022-07-19T07:09:55Z</time>
      </trkpt>
      <trkpt lat="44.31627" lon="5.19196">
        <ele>502.3</ele>
        <time>2022-07-19T07:09:56Z</time>
      </trkpt>
      <trkpt lat="44.31627" lon="5.19196">
        <ele>502.3</ele>
        <time>2022-07-19T07:09:57Z</time>
      </trkpt>
      <trkpt lat="44.31628" lon="5.19197">
        <ele>502.4</ele>
        <time>2022-07-19T07:09:58Z</time>
      </trkpt>
      <trkpt lat="44.31629" lon="5.19197">
        <ele>502.4</ele>
        <time>2022-07-19T07:09:59Z</time>
      </trkpt>
      <trkpt lat="44.31632" lon="5.19197">
        <ele>502.5</ele>
        <time>2022-07-19T07:10:00Z</time>
      </trkpt>
      <trkpt lat="44.31633" lon="5.19197">
        <ele>502.5</ele>
        <time>2022-07-19T07:10:01Z</time>
      </trkpt>
      <trkpt lat="44.31636" lon="5.19197">
        <ele>502.6</ele>
        <time>2022-07-19T07:10:02Z</time>
      </trkpt>
      <trkpt lat="44.31637" lon="5.19197">
        <ele>502.7</ele>
        <time>2022-07-19T07:10:03Z</time>
      </trkpt>
      <trkpt lat="44.3164" lon="5.19198">
        <ele>502.8</ele>
        <time>2022-07-19T07:10:04Z</time>
      </trkpt>
      <trkpt lat="44.3164" lon="5.19198">
        <ele>502.8</ele>
        <time>2022-07-19T07:10:05Z</time>
      </trkpt>
      <trkpt lat="44.31643" lon="5.19199">
        <ele>502.9</ele>
        <time>2022-07-19T07:10:06Z</time>
      </trkpt>
      <trkpt lat="44.31645" lon="5.19199">
        <ele>502.9</ele>
        <time>2022-07-19T07:10:07Z</time>
      </trkpt>
      <trkpt lat="44.31647" lon="5.19201">
        <ele>503</ele>
        <time>2022-07-19T07:10:08Z</time>
      </trkpt>
      <trkpt lat="44.31648" lon="5.19201">
        <ele>503.1</ele>
        <time>2022-07-19T07:10:09Z</time>
      </trkpt>
      <trkpt lat="44.31651" lon="5.19204">
        <ele>503.2</ele>
        <time>2022-07-19T07:10:10Z</time>
      </trkpt>
      <trkpt lat="44.31651" lon="5.19205">
        <ele>503.2</ele>
        <time>2022-07-19T07:10:11Z</time>
      </trkpt>
      <trkpt lat="44.31654" lon="5.19207">
        <ele>503.3</ele>
        <time>2022-07-19T07:10:12Z</time>
      </trkpt>
      <trkpt lat="44.31655" lon="5.19207">
        <ele>503.3</ele>
        <time>2022-07-19T07:10:13Z</time>
      </trkpt>
      <trkpt lat="44.31658" lon="5.19209">
        <ele>503.4</ele>
        <time>2022-07-19T07:10:14Z</time>
      </trkpt>
      <trkpt lat="44.31659" lon="5.19209">
        <ele>503.5</ele>
        <time>2022-07-19T07:10:15Z</time>
      </trkpt>
      <trkpt lat="44.31662" lon="5.19211">
        <ele>503.5</ele>
        <time>2022-07-19T07:10:16Z</time>
      </trkpt>
      <trkpt lat="44.31662" lon="5.19212">
        <ele>503.6</ele>
        <time>2022-07-19T07:10:17Z</time>
      </trkpt>
      <trkpt lat="44.31665" lon="5.19213">
        <ele>503.6</ele>
        <time>2022-07-19T07:10:18Z</time>
      </trkpt>
      <trkpt lat="44.31666" lon="5.19214">
        <ele>503.7</ele>
        <time>2022-07-19T07:10:19Z</time>
      </trkpt>
      <trkpt lat="44.31669" lon="5.19215">
        <ele>503.8</ele>
        <time>2022-07-19T07:10:20Z</time>
      </trkpt>
      <trkpt lat="44.3167" lon="5.19215">
        <ele>503.8</ele>
        <time>2022-07-19T07:10:21Z</time>
      </trkpt>
      <trkpt lat="44.31673" lon="5.19217">
        <ele>503.9</ele>
        <time>2022-07-19T07:10:22Z</time>
      </trkpt>
      <trkpt lat="44.31674" lon="5.19218">
        <ele>503.9</ele>
        <time>2022-07-19T07:10:23Z</time>
      </trkpt>
      <trkpt lat="44.31677" lon="5.1922">
        <ele>504</ele>
        <time>2022-07-19T07:10:24Z</time>
      </trkpt>
      <trkpt lat="44.31679" lon="5.1922">
        <ele>504</ele>
        <time>2022-07-19T07:10:25Z</time>
      </trkpt>
      <trkpt lat="44.31682" lon="5.19222">
        <ele>504</ele>
        <time>2022-07-19T07:10:26Z</time>
      </trkpt>
      <trkpt lat="44.31683" lon="5.19223">
        <ele>504.1</ele>
        <time>2022-07-19T07:10:27Z</time>
      </trkpt>
      <trkpt lat="44.31685" lon="5.19226">
        <ele>504.1</ele>
        <time>2022-07-19T07:10:28Z</time>
      </trkpt>
      <trkpt lat="44.31686" lon="5.19226">
        <ele>504.1</ele>
        <time>2022-07-19T07:10:29Z</time>
      </trkpt>
      <trkpt lat="44.31689" lon="5.19229">
        <ele>504.1</ele>
        <time>2022-07-19T07:10:30Z</time>
      </trkpt>
      <trkpt lat="44.3169" lon="5.1923">
        <ele>504.1</ele>
        <time>2022-07-19T07:10:31Z</time>
      </trkpt>
      <trkpt lat="44.31693" lon="5.19233">
        <ele>504.1</ele>
        <time>2022-07-19T07:10:32Z</time>
      </trkpt>
      <trkpt lat="44.31694" lon="5.19235">
        <ele>504.1</ele>
        <time>2022-07-19T07:10:33Z</time>
      </trkpt>
      <trkpt lat="44.31696" lon="5.19238">
        <ele>504.1</ele>
        <time>2022-07-19T07:10:34Z</time>
      </trkpt>
      <trkpt lat="44.31699" lon="5.1924">
        <ele>504.1</ele>
        <time>2022-07-19T07:10:35Z</time>
      </trkpt>
      <trkpt lat="44.31701" lon="5.19242">
        <ele>504.2</ele>
        <time>2022-07-19T07:10:36Z</time>
      </trkpt>
      <trkpt lat="44.31705" lon="5.19242">
        <ele>504.2</ele>
        <time>2022-07-19T07:10:37Z</time>
      </trkpt>
      <trkpt lat="44.31706" lon="5.19242">
        <ele>504.2</ele>
        <time>2022-07-19T07:10:38Z</time>
      </trkpt>
      <trkpt lat="44.31708" lon="5.19241">
        <ele>504.2</ele>
        <time>2022-07-19T07:10:39Z</time>
      </trkpt>
      <trkpt lat="44.31709" lon="5.19241">
        <ele>504.2</ele>
        <time>2022-07-19T07:10:40Z</time>
      </trkpt>
      <trkpt lat="44.31712" lon="5.1924">
        <ele>504.3</ele>
        <time>2022-07-19T07:10:41Z</time>
      </trkpt>
      <trkpt lat="44.31713" lon="5.19241">
        <ele>504.3</ele>
        <time>2022-07-19T07:10:42Z</time>
      </trkpt>
      <trkpt lat="44.31715" lon="5.19241">
        <ele>504.4</ele>
        <time>2022-07-19T07:10:43Z</time>
      </trkpt>
      <trkpt lat="44.31716" lon="5.19241">
        <ele>504.4</ele>
        <time>2022-07-19T07:10:44Z</time>
      </trkpt>
      <trkpt lat="44.31717" lon="5.19241">
        <ele>504.4</ele>
        <time>2022-07-19T07:10:45Z</time>
      </trkpt>
      <trkpt lat="44.31718" lon="5.19241">
        <ele>504.5</ele>
        <time>2022-07-19T07:10:46Z</time>
      </trkpt>
      <trkpt lat="44.31719" lon="5.19241">
        <ele>504.5</ele>
        <time>2022-07-19T07:10:47Z</time>
      </trkpt>
      <trkpt lat="44.3172" lon="5.19241">
        <ele>504.5</ele>
        <time>2022-07-19T07:10:48Z</time>
      </trkpt>
      <trkpt lat="44.3172" lon="5.19241">
        <ele>504.6</ele>
        <time>2022-07-19T07:10:49Z</time>
      </trkpt>
      <trkpt lat="44.31721" lon="5.1924">
        <ele>504.6</ele>
        <time>2022-07-19T07:10:50Z</time>
      </trkpt>
      <trkpt lat="44.31722" lon="5.19239">
        <ele>504.7</ele>
        <time>2022-07-19T07:10:51Z</time>
      </trkpt>
      <trkpt lat="44.31724" lon="5.19238">
        <ele>504.7</ele>
        <time>2022-07-19T07:10:52Z</time>
      </trkpt>
      <trkpt lat="44.31725" lon="5.19237">
        <ele>504.8</ele>
        <time>2022-07-19T07:10:53Z</time>
      </trkpt>
      <trkpt lat="44.31727" lon="5.19237">
        <ele>504.9</ele>
        <time>2022-07-19T07:10:54Z</time>
      </trkpt>
      <trkpt lat="44.31729" lon="5.19237">
        <ele>505</ele>
        <time>2022-07-19T07:10:55Z</time>
      </trkpt>
      <trkpt lat="44.31732" lon="5.19238">
        <ele>505.2</ele>
        <time>2022-07-19T07:10:56Z</time>
      </trkpt>
      <trkpt lat="44.31732" lon="5.19238">
        <ele>505.2</ele>
        <time>2022-07-19T07:10:57Z</time>
      </trkpt>
      <trkpt lat="44.31735" lon="5.19239">
        <ele>505.4</ele>
        <time>2022-07-19T07:10:58Z</time>
      </trkpt>
      <trkpt lat="44.31736" lon="5.19239">
        <ele>505.4</ele>
        <time>2022-07-19T07:10:59Z</time>
      </trkpt>
      <trkpt lat="44.31738" lon="5.1924">
        <ele>505.5</ele>
        <time>2022-07-19T07:11:00Z</time>
      </trkpt>
      <trkpt lat="44.31739" lon="5.19241">
        <ele>505.6</ele>
        <time>2022-07-19T07:11:01Z</time>
      </trkpt>
      <trkpt lat="44.3174" lon="5.19242">
        <ele>505.7</ele>
        <time>2022-07-19T07:11:02Z</time>
      </trkpt>
      <trkpt lat="44.31741" lon="5.19244">
        <ele>505.8</ele>
        <time>2022-07-19T07:11:03Z</time>
      </trkpt>
      <trkpt lat="44.31743" lon="5.19245">
        <ele>505.9</ele>
        <time>2022-07-19T07:11:04Z</time>
      </trkpt>
      <trkpt lat="44.31744" lon="5.19246">
        <ele>506</ele>
        <time>2022-07-19T07:11:05Z</time>
      </trkpt>
      <trkpt lat="44.31747" lon="5.19246">
        <ele>506.2</ele>
        <time>2022-07-19T07:11:06Z</time>
      </trkpt>
      <trkpt lat="44.31748" lon="5.19247">
        <ele>506.3</ele>
        <time>2022-07-19T07:11:07Z</time>
      </trkpt>
      <trkpt lat="44.31751" lon="5.19247">
        <ele>506.5</ele>
        <time>2022-07-19T07:11:08Z</time>
      </trkpt>
      <trkpt lat="44.31752" lon="5.19248">
        <ele>506.6</ele>
        <time>2022-07-19T07:11:09Z</time>
      </trkpt>
      <trkpt lat="44.31754" lon="5.19248">
        <ele>506.7</ele>
        <time>2022-07-19T07:11:10Z</time>
      </trkpt>
      <trkpt lat="44.31755" lon="5.19248">
        <ele>506.8</ele>
        <time>2022-07-19T07:11:11Z</time>
      </trkpt>
      <trkpt lat="44.31757" lon="5.19249">
        <ele>507</ele>
        <time>2022-07-19T07:11:12Z</time>
      </trkpt>
      <trkpt lat="44.31759" lon="5.19249">
        <ele>507.1</ele>
        <time>2022-07-19T07:11:13Z</time>
      </trkpt>
      <trkpt lat="44.3176" lon="5.19249">
        <ele>507.1</ele>
        <time>2022-07-19T07:11:14Z</time>
      </trkpt>
      <trkpt lat="44.31761" lon="5.19248">
        <ele>507.2</ele>
        <time>2022-07-19T07:11:15Z</time>
      </trkpt>
      <trkpt lat="44.31762" lon="5.19249">
        <ele>507.3</ele>
        <time>2022-07-19T07:11:16Z</time>
      </trkpt>
      <trkpt lat="44.31763" lon="5.19249">
        <ele>507.4</ele>
        <time>2022-07-19T07:11:17Z</time>
      </trkpt>
      <trkpt lat="44.31764" lon="5.1925">
        <ele>507.4</ele>
        <time>2022-07-19T07:11:18Z</time>
      </trkpt>
      <trkpt lat="44.31765" lon="5.19252">
        <ele>507.5</ele>
        <time>2022-07-19T07:11:19Z</time>
      </trkpt>
      <trkpt lat="44.31767" lon="5.19253">
        <ele>507.6</ele>
        <time>2022-07-19T07:11:20Z</time>
      </trkpt>
      <trkpt lat="44.31768" lon="5.19253">
        <ele>507.7</ele>
        <time>2022-07-19T07:11:21Z</time>
      </trkpt>
      <trkpt lat="44.3177" lon="5.19253">
        <ele>507.8</ele>
        <time>2022-07-19T07:11:22Z</time>
      </trkpt>
      <trkpt lat="44.31773" lon="5.19252">
        <ele>507.9</ele>
        <time>2022-07-19T07:11:23Z</time>
      </trkpt>
      <trkpt lat="44.31774" lon="5.19252">
        <ele>508</ele>
        <time>2022-07-19T07:11:24Z</time>
      </trkpt>
      <trkpt lat="44.31777" lon="5.19251">
        <ele>508.1</ele>
        <time>2022-07-19T07:11:25Z</time>
      </trkpt>
      <trkpt lat="44.31778" lon="5.19251">
        <ele>508.2</ele>
        <time>2022-07-19T07:11:26Z</time>
      </trkpt>
      <trkpt lat="44.31781" lon="5.19252">
        <ele>508.3</ele>
        <time>2022-07-19T07:11:27Z</time>
      </trkpt>
      <trkpt lat="44.31782" lon="5.19253">
        <ele>508.4</ele>
        <time>2022-07-19T07:11:28Z</time>
      </trkpt>
      <trkpt lat="44.31785" lon="5.19254">
        <ele>508.5</ele>
        <time>2022-07-19T07:11:29Z</time>
      </trkpt>
      <trkpt lat="44.31786" lon="5.19254">
        <ele>508.6</ele>
        <time>2022-07-19T07:11:30Z</time>
      </trkpt>
      <trkpt lat="44.31788" lon="5.19255">
        <ele>508.7</ele>
        <time>2022-07-19T07:11:31Z</time>
      </trkpt>
      <trkpt lat="44.31789" lon="5.19255">
        <ele>508.8</ele>
        <time>2022-07-19T07:11:32Z</time>
      </trkpt>
      <trkpt lat="44.31792" lon="5.19256">
        <ele>508.9</ele>
        <time>2022-07-19T07:11:33Z</time>
      </trkpt>
      <trkpt lat="44.31793" lon="5.19256">
        <ele>509</ele>
        <time>2022-07-19T07:11:34Z</time>
      </trkpt>
      <trkpt lat="44.31794" lon="5.19258">
        <ele>509</ele>
        <time>2022-07-19T07:11:35Z</time>
      </trkpt>
      <trkpt lat="44.31796" lon="5.19259">
        <ele>509.1</ele>
        <time>2022-07-19T07:11:36Z</time>
      </trkpt>
      <trkpt lat="44.31798" lon="5.19263">
        <ele>509.3</ele>
        <time>2022-07-19T07:11:37Z</time>
      </trkpt>
      <trkpt lat="44.31799" lon="5.19264">
        <ele>509.4</ele>
        <time>2022-07-19T07:11:38Z</time>
      </trkpt>
      <trkpt lat="44.31801" lon="5.19265">
        <ele>509.5</ele>
        <time>2022-07-19T07:11:39Z</time>
      </trkpt>
      <trkpt lat="44.31803" lon="5.19266">
        <ele>509.6</ele>
        <time>2022-07-19T07:11:40Z</time>
      </trkpt>
      <trkpt lat="44.31804" lon="5.19266">
        <ele>509.6</ele>
        <time>2022-07-19T07:11:41Z</time>
      </trkpt>
      <trkpt lat="44.31806" lon="5.19266">
        <ele>509.7</ele>
        <time>2022-07-19T07:11:42Z</time>
      </trkpt>
      <trkpt lat="44.31807" lon="5.19266">
        <ele>509.8</ele>
        <time>2022-07-19T07:11:43Z</time>
      </trkpt>
      <trkpt lat="44.31809" lon="5.19267">
        <ele>509.9</ele>
        <time>2022-07-19T07:11:44Z</time>
      </trkpt>
      <trkpt lat="44.31811" lon="5.1927">
        <ele>510</ele>
        <time>2022-07-19T07:11:45Z</time>
      </trkpt>
      <trkpt lat="44.31812" lon="5.19271">
        <ele>510.1</ele>
        <time>2022-07-19T07:11:46Z</time>
      </trkpt>
      <trkpt lat="44.31814" lon="5.19274">
        <ele>510.2</ele>
        <time>2022-07-19T07:11:47Z</time>
      </trkpt>
      <trkpt lat="44.31814" lon="5.19275">
        <ele>510.2</ele>
        <time>2022-07-19T07:11:48Z</time>
      </trkpt>
      <trkpt lat="44.31815" lon="5.19277">
        <ele>510.3</ele>
        <time>2022-07-19T07:11:49Z</time>
      </trkpt>
      <trkpt lat="44.31817" lon="5.19279">
        <ele>510.3</ele>
        <time>2022-07-19T07:11:50Z</time>
      </trkpt>
      <trkpt lat="44.31818" lon="5.1928">
        <ele>510.4</ele>
        <time>2022-07-19T07:11:51Z</time>
      </trkpt>
      <trkpt lat="44.31819" lon="5.19282">
        <ele>510.4</ele>
        <time>2022-07-19T07:11:52Z</time>
      </trkpt>
      <trkpt lat="44.31821" lon="5.19285">
        <ele>510.5</ele>
        <time>2022-07-19T07:11:53Z</time>
      </trkpt>
      <trkpt lat="44.31822" lon="5.19286">
        <ele>510.5</ele>
        <time>2022-07-19T07:11:54Z</time>
      </trkpt>
      <trkpt lat="44.31823" lon="5.19289">
        <ele>510.6</ele>
        <time>2022-07-19T07:11:55Z</time>
      </trkpt>
      <trkpt lat="44.31824" lon="5.1929">
        <ele>510.6</ele>
        <time>2022-07-19T07:11:56Z</time>
      </trkpt>
      <trkpt lat="44.31825" lon="5.19292">
        <ele>510.6</ele>
        <time>2022-07-19T07:11:57Z</time>
      </trkpt>
      <trkpt lat="44.31826" lon="5.19293">
        <ele>510.6</ele>
        <time>2022-07-19T07:11:58Z</time>
      </trkpt>
      <trkpt lat="44.31827" lon="5.19294">
        <ele>510.6</ele>
        <time>2022-07-19T07:11:59Z</time>
      </trkpt>
      <trkpt lat="44.31829" lon="5.19297">
        <ele>510.6</ele>
        <time>2022-07-19T07:12:00Z</time>
      </trkpt>
      <trkpt lat="44.3183" lon="5.19298">
        <ele>510.6</ele>
        <time>2022-07-19T07:12:01Z</time>
      </trkpt>
      <trkpt lat="44.31831" lon="5.19301">
        <ele>510.7</ele>
        <time>2022-07-19T07:12:02Z</time>
      </trkpt>
      <trkpt lat="44.31832" lon="5.19302">
        <ele>510.7</ele>
        <time>2022-07-19T07:12:03Z</time>
      </trkpt>
      <trkpt lat="44.31833" lon="5.19306">
        <ele>510.7</ele>
        <time>2022-07-19T07:12:04Z</time>
      </trkpt>
      <trkpt lat="44.31833" lon="5.19307">
        <ele>510.7</ele>
        <time>2022-07-19T07:12:05Z</time>
      </trkpt>
      <trkpt lat="44.31834" lon="5.1931">
        <ele>510.7</ele>
        <time>2022-07-19T07:12:06Z</time>
      </trkpt>
      <trkpt lat="44.31834" lon="5.19312">
        <ele>510.7</ele>
        <time>2022-07-19T07:12:07Z</time>
      </trkpt>
      <trkpt lat="44.31835" lon="5.19314">
        <ele>510.7</ele>
        <time>2022-07-19T07:12:08Z</time>
      </trkpt>
      <trkpt lat="44.31835" lon="5.19315">
        <ele>510.7</ele>
        <time>2022-07-19T07:12:09Z</time>
      </trkpt>
      <trkpt lat="44.31837" lon="5.19319">
        <ele>510.7</ele>
        <time>2022-07-19T07:12:10Z</time>
      </trkpt>
      <trkpt lat="44.31838" lon="5.19321">
        <ele>510.8</ele>
        <time>2022-07-19T07:12:11Z</time>
      </trkpt>
      <trkpt lat="44.3184" lon="5.19324">
        <ele>510.8</ele>
        <time>2022-07-19T07:12:12Z</time>
      </trkpt>
      <trkpt lat="44.31841" lon="5.19326">
        <ele>510.8</ele>
        <time>2022-07-19T07:12:13Z</time>
      </trkpt>
      <trkpt lat="44.31843" lon="5.1933">
        <ele>510.8</ele>
        <time>2022-07-19T07:12:14Z</time>
      </trkpt>
      <trkpt lat="44.31843" lon="5.19332">
        <ele>510.8</ele>
        <time>2022-07-19T07:12:15Z</time>
      </trkpt>
      <trkpt lat="44.31844" lon="5.19334">
        <ele>510.7</ele>
        <time>2022-07-19T07:12:16Z</time>
      </trkpt>
      <trkpt lat="44.31845" lon="5.19336">
        <ele>510.7</ele>
        <time>2022-07-19T07:12:17Z</time>
      </trkpt>
      <trkpt lat="44.31846" lon="5.1934">
        <ele>510.6</ele>
        <time>2022-07-19T07:12:18Z</time>
      </trkpt>
      <trkpt lat="44.31846" lon="5.19341">
        <ele>510.6</ele>
        <time>2022-07-19T07:12:19Z</time>
      </trkpt>
      <trkpt lat="44.31847" lon="5.19346">
        <ele>510.5</ele>
        <time>2022-07-19T07:12:20Z</time>
      </trkpt>
      <trkpt lat="44.31848" lon="5.19348">
        <ele>510.5</ele>
        <time>2022-07-19T07:12:21Z</time>
      </trkpt>
      <trkpt lat="44.31849" lon="5.19353">
        <ele>510.4</ele>
        <time>2022-07-19T07:12:22Z</time>
      </trkpt>
      <trkpt lat="44.31849" lon="5.19354">
        <ele>510.3</ele>
        <time>2022-07-19T07:12:23Z</time>
      </trkpt>
      <trkpt lat="44.3185" lon="5.1936">
        <ele>510.2</ele>
        <time>2022-07-19T07:12:24Z</time>
      </trkpt>
      <trkpt lat="44.3185" lon="5.19362">
        <ele>510.2</ele>
        <time>2022-07-19T07:12:25Z</time>
      </trkpt>
      <trkpt lat="44.31851" lon="5.19365">
        <ele>510.1</ele>
        <time>2022-07-19T07:12:26Z</time>
      </trkpt>
      <trkpt lat="44.31853" lon="5.19369">
        <ele>510</ele>
        <time>2022-07-19T07:12:27Z</time>
      </trkpt>
      <trkpt lat="44.31855" lon="5.19372">
        <ele>509.9</ele>
        <time>2022-07-19T07:12:28Z</time>
      </trkpt>
      <trkpt lat="44.31858" lon="5.19377">
        <ele>509.8</ele>
        <time>2022-07-19T07:12:29Z</time>
      </trkpt>
      <trkpt lat="44.31859" lon="5.19378">
        <ele>509.8</ele>
        <time>2022-07-19T07:12:30Z</time>
      </trkpt>
      <trkpt lat="44.31862" lon="5.19381">
        <ele>509.7</ele>
        <time>2022-07-19T07:12:31Z</time>
      </trkpt>
      <trkpt lat="44.31863" lon="5.19382">
        <ele>509.6</ele>
        <time>2022-07-19T07:12:32Z</time>
      </trkpt>
      <trkpt lat="44.31866" lon="5.19385">
        <ele>509.6</ele>
        <time>2022-07-19T07:12:33Z</time>
      </trkpt>
      <trkpt lat="44.31866" lon="5.19386">
        <ele>509.5</ele>
        <time>2022-07-19T07:12:34Z</time>
      </trkpt>
      <trkpt lat="44.31869" lon="5.19389">
        <ele>509.5</ele>
        <time>2022-07-19T07:12:35Z</time>
      </trkpt>
      <trkpt lat="44.3187" lon="5.19389">
        <ele>509.5</ele>
        <time>2022-07-19T07:12:36Z</time>
      </trkpt>
      <trkpt lat="44.31872" lon="5.19392">
        <ele>509.4</ele>
        <time>2022-07-19T07:12:37Z</time>
      </trkpt>
      <trkpt lat="44.31873" lon="5.19392">
        <ele>509.4</ele>
        <time>2022-07-19T07:12:38Z</time>
      </trkpt>
      <trkpt lat="44.31875" lon="5.19395">
        <ele>509.4</ele>
        <time>2022-07-19T07:12:39Z</time>
      </trkpt>
      <trkpt lat="44.31876" lon="5.19397">
        <ele>509.4</ele>
        <time>2022-07-19T07:12:40Z</time>
      </trkpt>
      <trkpt lat="44.31879" lon="5.19399">
        <ele>509.4</ele>
        <time>2022-07-19T07:12:41Z</time>
      </trkpt>
      <trkpt lat="44.3188" lon="5.19399">
        <ele>509.3</ele>
        <time>2022-07-19T07:12:42Z</time>
      </trkpt>
      <trkpt lat="44.31884" lon="5.19401">
        <ele>509.3</ele>
        <time>2022-07-19T07:12:43Z</time>
      </trkpt>
      <trkpt lat="44.31885" lon="5.19402">
        <ele>509.3</ele>
        <time>2022-07-19T07:12:44Z</time>
      </trkpt>
      <trkpt lat="44.31887" lon="5.19404">
        <ele>509.3</ele>
        <time>2022-07-19T07:12:45Z</time>
      </trkpt>
      <trkpt lat="44.31888" lon="5.19405">
        <ele>509.3</ele>
        <time>2022-07-19T07:12:46Z</time>
      </trkpt>
      <trkpt lat="44.3189" lon="5.19408">
        <ele>509.3</ele>
        <time>2022-07-19T07:12:47Z</time>
      </trkpt>
      <trkpt lat="44.31891" lon="5.19409">
        <ele>509.3</ele>
        <time>2022-07-19T07:12:48Z</time>
      </trkpt>
      <trkpt lat="44.31892" lon="5.19411">
        <ele>509.2</ele>
        <time>2022-07-19T07:12:49Z</time>
      </trkpt>
      <trkpt lat="44.31894" lon="5.19412">
        <ele>509.2</ele>
        <time>2022-07-19T07:12:50Z</time>
      </trkpt>
      <trkpt lat="44.31895" lon="5.19412">
        <ele>509.2</ele>
        <time>2022-07-19T07:12:51Z</time>
      </trkpt>
      <trkpt lat="44.31897" lon="5.19412">
        <ele>509.2</ele>
        <time>2022-07-19T07:12:52Z</time>
      </trkpt>
      <trkpt lat="44.31898" lon="5.19412">
        <ele>509.2</ele>
        <time>2022-07-19T07:12:53Z</time>
      </trkpt>
      <trkpt lat="44.31899" lon="5.19413">
        <ele>509.2</ele>
        <time>2022-07-19T07:12:54Z</time>
      </trkpt>
      <trkpt lat="44.31899" lon="5.19414">
        <ele>509.2</ele>
        <time>2022-07-19T07:12:55Z</time>
      </trkpt>
      <trkpt lat="44.31901" lon="5.19414">
        <ele>509.2</ele>
        <time>2022-07-19T07:12:56Z</time>
      </trkpt>
      <trkpt lat="44.31903" lon="5.19414">
        <ele>509.2</ele>
        <time>2022-07-19T07:12:57Z</time>
      </trkpt>
      <trkpt lat="44.31904" lon="5.19413">
        <ele>509.2</ele>
        <time>2022-07-19T07:12:58Z</time>
      </trkpt>
      <trkpt lat="44.31906" lon="5.19413">
        <ele>509.2</ele>
        <time>2022-07-19T07:12:59Z</time>
      </trkpt>
      <trkpt lat="44.31907" lon="5.19413">
        <ele>509.2</ele>
        <time>2022-07-19T07:13:00Z</time>
      </trkpt>
      <trkpt lat="44.3191" lon="5.19414">
        <ele>509.2</ele>
        <time>2022-07-19T07:13:01Z</time>
      </trkpt>
      <trkpt lat="44.31911" lon="5.19414">
        <ele>509.2</ele>
        <time>2022-07-19T07:13:02Z</time>
      </trkpt>
      <trkpt lat="44.31914" lon="5.19415">
        <ele>509.3</ele>
        <time>2022-07-19T07:13:03Z</time>
      </trkpt>
      <trkpt lat="44.31915" lon="5.19415">
        <ele>509.3</ele>
        <time>2022-07-19T07:13:04Z</time>
      </trkpt>
      <trkpt lat="44.31918" lon="5.19415">
        <ele>509.4</ele>
        <time>2022-07-19T07:13:05Z</time>
      </trkpt>
      <trkpt lat="44.31919" lon="5.19415">
        <ele>509.4</ele>
        <time>2022-07-19T07:13:06Z</time>
      </trkpt>
      <trkpt lat="44.31922" lon="5.19416">
        <ele>509.4</ele>
        <time>2022-07-19T07:13:07Z</time>
      </trkpt>
      <trkpt lat="44.31923" lon="5.19416">
        <ele>509.5</ele>
        <time>2022-07-19T07:13:08Z</time>
      </trkpt>
      <trkpt lat="44.31926" lon="5.19416">
        <ele>509.6</ele>
        <time>2022-07-19T07:13:09Z</time>
      </trkpt>
      <trkpt lat="44.31927" lon="5.19416">
        <ele>509.6</ele>
        <time>2022-07-19T07:13:10Z</time>
      </trkpt>
      <trkpt lat="44.31929" lon="5.19416">
        <ele>509.6</ele>
        <time>2022-07-19T07:13:11Z</time>
      </trkpt>
      <trkpt lat="44.3193" lon="5.19417">
        <ele>509.7</ele>
        <time>2022-07-19T07:13:12Z</time>
      </trkpt>
      <trkpt lat="44.31933" lon="5.19419">
        <ele>509.8</ele>
        <time>2022-07-19T07:13:13Z</time>
      </trkpt>
      <trkpt lat="44.31933" lon="5.19419">
        <ele>509.8</ele>
        <time>2022-07-19T07:13:14Z</time>
      </trkpt>
      <trkpt lat="44.31935" lon="5.19419">
        <ele>509.9</ele>
        <time>2022-07-19T07:13:15Z</time>
      </trkpt>
      <trkpt lat="44.31937" lon="5.19419">
        <ele>510</ele>
        <time>2022-07-19T07:13:16Z</time>
      </trkpt>
      <trkpt lat="44.3194" lon="5.19419">
        <ele>510.1</ele>
        <time>2022-07-19T07:13:17Z</time>
      </trkpt>
      <trkpt lat="44.31941" lon="5.19419">
        <ele>510.1</ele>
        <time>2022-07-19T07:13:18Z</time>
      </trkpt>
      <trkpt lat="44.31943" lon="5.1942">
        <ele>510.2</ele>
        <time>2022-07-19T07:13:19Z</time>
      </trkpt>
      <trkpt lat="44.31944" lon="5.19421">
        <ele>510.3</ele>
        <time>2022-07-19T07:13:20Z</time>
      </trkpt>
      <trkpt lat="44.31946" lon="5.19423">
        <ele>510.4</ele>
        <time>2022-07-19T07:13:21Z</time>
      </trkpt>
      <trkpt lat="44.31947" lon="5.19424">
        <ele>510.5</ele>
        <time>2022-07-19T07:13:22Z</time>
      </trkpt>
      <trkpt lat="44.3195" lon="5.19425">
        <ele>510.6</ele>
        <time>2022-07-19T07:13:23Z</time>
      </trkpt>
      <trkpt lat="44.31951" lon="5.19425">
        <ele>510.6</ele>
        <time>2022-07-19T07:13:24Z</time>
      </trkpt>
      <trkpt lat="44.31954" lon="5.19426">
        <ele>510.8</ele>
        <time>2022-07-19T07:13:25Z</time>
      </trkpt>
      <trkpt lat="44.31956" lon="5.19426">
        <ele>510.9</ele>
        <time>2022-07-19T07:13:26Z</time>
      </trkpt>
      <trkpt lat="44.3196" lon="5.19426">
        <ele>511.1</ele>
        <time>2022-07-19T07:13:27Z</time>
      </trkpt>
      <trkpt lat="44.31961" lon="5.19426">
        <ele>511.2</ele>
        <time>2022-07-19T07:13:28Z</time>
      </trkpt>
      <trkpt lat="44.31964" lon="5.19426">
        <ele>511.3</ele>
        <time>2022-07-19T07:13:29Z</time>
      </trkpt>
      <trkpt lat="44.31964" lon="5.19426">
        <ele>511.4</ele>
        <time>2022-07-19T07:13:30Z</time>
      </trkpt>
      <trkpt lat="44.31966" lon="5.19426">
        <ele>511.5</ele>
        <time>2022-07-19T07:13:31Z</time>
      </trkpt>
      <trkpt lat="44.31968" lon="5.19427">
        <ele>511.6</ele>
        <time>2022-07-19T07:13:32Z</time>
      </trkpt>
      <trkpt lat="44.31971" lon="5.19429">
        <ele>511.8</ele>
        <time>2022-07-19T07:13:33Z</time>
      </trkpt>
      <trkpt lat="44.31972" lon="5.19429">
        <ele>511.8</ele>
        <time>2022-07-19T07:13:34Z</time>
      </trkpt>
      <trkpt lat="44.31974" lon="5.19431">
        <ele>512</ele>
        <time>2022-07-19T07:13:35Z</time>
      </trkpt>
      <trkpt lat="44.31975" lon="5.19431">
        <ele>512</ele>
        <time>2022-07-19T07:13:36Z</time>
      </trkpt>
      <trkpt lat="44.31977" lon="5.19432">
        <ele>512.1</ele>
        <time>2022-07-19T07:13:37Z</time>
      </trkpt>
      <trkpt lat="44.31978" lon="5.19433">
        <ele>512.2</ele>
        <time>2022-07-19T07:13:38Z</time>
      </trkpt>
      <trkpt lat="44.31979" lon="5.19434">
        <ele>512.3</ele>
        <time>2022-07-19T07:13:39Z</time>
      </trkpt>
      <trkpt lat="44.3198" lon="5.19435">
        <ele>512.4</ele>
        <time>2022-07-19T07:13:40Z</time>
      </trkpt>
      <trkpt lat="44.31982" lon="5.19435">
        <ele>512.4</ele>
        <time>2022-07-19T07:13:41Z</time>
      </trkpt>
      <trkpt lat="44.31983" lon="5.19436">
        <ele>512.5</ele>
        <time>2022-07-19T07:13:42Z</time>
      </trkpt>
      <trkpt lat="44.31985" lon="5.19436">
        <ele>512.6</ele>
        <time>2022-07-19T07:13:43Z</time>
      </trkpt>
      <trkpt lat="44.31986" lon="5.19437">
        <ele>512.7</ele>
        <time>2022-07-19T07:13:44Z</time>
      </trkpt>
      <trkpt lat="44.31988" lon="5.19438">
        <ele>512.8</ele>
        <time>2022-07-19T07:13:45Z</time>
      </trkpt>
      <trkpt lat="44.31989" lon="5.19439">
        <ele>512.9</ele>
        <time>2022-07-19T07:13:46Z</time>
      </trkpt>
      <trkpt lat="44.31991" lon="5.1944">
        <ele>513</ele>
        <time>2022-07-19T07:13:47Z</time>
      </trkpt>
      <trkpt lat="44.31992" lon="5.19441">
        <ele>513.1</ele>
        <time>2022-07-19T07:13:48Z</time>
      </trkpt>
      <trkpt lat="44.31994" lon="5.19443">
        <ele>513.2</ele>
        <time>2022-07-19T07:13:49Z</time>
      </trkpt>
      <trkpt lat="44.31995" lon="5.19443">
        <ele>513.2</ele>
        <time>2022-07-19T07:13:50Z</time>
      </trkpt>
      <trkpt lat="44.31996" lon="5.19443">
        <ele>513.3</ele>
        <time>2022-07-19T07:13:51Z</time>
      </trkpt>
      <trkpt lat="44.31997" lon="5.19444">
        <ele>513.4</ele>
        <time>2022-07-19T07:13:52Z</time>
      </trkpt>
      <trkpt lat="44.31999" lon="5.19445">
        <ele>513.5</ele>
        <time>2022-07-19T07:13:53Z</time>
      </trkpt>
      <trkpt lat="44.32" lon="5.19446">
        <ele>513.5</ele>
        <time>2022-07-19T07:13:54Z</time>
      </trkpt>
      <trkpt lat="44.32001" lon="5.19448">
        <ele>513.6</ele>
        <time>2022-07-19T07:13:55Z</time>
      </trkpt>
      <trkpt lat="44.32003" lon="5.1945">
        <ele>513.8</ele>
        <time>2022-07-19T07:13:56Z</time>
      </trkpt>
      <trkpt lat="44.32004" lon="5.19451">
        <ele>513.8</ele>
        <time>2022-07-19T07:13:57Z</time>
      </trkpt>
      <trkpt lat="44.32004" lon="5.19451">
        <ele>513.8</ele>
        <time>2022-07-19T07:13:58Z</time>
      </trkpt>
      <trkpt lat="44.32007" lon="5.19451">
        <ele>514</ele>
        <time>2022-07-19T07:13:59Z</time>
      </trkpt>
      <trkpt lat="44.32008" lon="5.19453">
        <ele>514.1</ele>
        <time>2022-07-19T07:14:00Z</time>
      </trkpt>
      <trkpt lat="44.32008" lon="5.19454">
        <ele>514.1</ele>
        <time>2022-07-19T07:14:01Z</time>
      </trkpt>
      <trkpt lat="44.3201" lon="5.19457">
        <ele>514.3</ele>
        <time>2022-07-19T07:14:02Z</time>
      </trkpt>
      <trkpt lat="44.32011" lon="5.19457">
        <ele>514.3</ele>
        <time>2022-07-19T07:14:03Z</time>
      </trkpt>
      <trkpt lat="44.32014" lon="5.19459">
        <ele>514.5</ele>
        <time>2022-07-19T07:14:04Z</time>
      </trkpt>
      <trkpt lat="44.32015" lon="5.19459">
        <ele>514.5</ele>
        <time>2022-07-19T07:14:05Z</time>
      </trkpt>
      <trkpt lat="44.32018" lon="5.1946">
        <ele>514.7</ele>
        <time>2022-07-19T07:14:06Z</time>
      </trkpt>
      <trkpt lat="44.32018" lon="5.19461">
        <ele>514.7</ele>
        <time>2022-07-19T07:14:07Z</time>
      </trkpt>
      <trkpt lat="44.32021" lon="5.19462">
        <ele>514.9</ele>
        <time>2022-07-19T07:14:08Z</time>
      </trkpt>
      <trkpt lat="44.32022" lon="5.19462">
        <ele>514.9</ele>
        <time>2022-07-19T07:14:09Z</time>
      </trkpt>
      <trkpt lat="44.32024" lon="5.19464">
        <ele>515.1</ele>
        <time>2022-07-19T07:14:10Z</time>
      </trkpt>
      <trkpt lat="44.32025" lon="5.19465">
        <ele>515.1</ele>
        <time>2022-07-19T07:14:11Z</time>
      </trkpt>
      <trkpt lat="44.32026" lon="5.19467">
        <ele>515.2</ele>
        <time>2022-07-19T07:14:12Z</time>
      </trkpt>
      <trkpt lat="44.32027" lon="5.19469">
        <ele>515.3</ele>
        <time>2022-07-19T07:14:13Z</time>
      </trkpt>
      <trkpt lat="44.32028" lon="5.19471">
        <ele>515.4</ele>
        <time>2022-07-19T07:14:14Z</time>
      </trkpt>
      <trkpt lat="44.32029" lon="5.19472">
        <ele>515.5</ele>
        <time>2022-07-19T07:14:15Z</time>
      </trkpt>
      <trkpt lat="44.32032" lon="5.19475">
        <ele>515.6</ele>
        <time>2022-07-19T07:14:16Z</time>
      </trkpt>
      <trkpt lat="44.32032" lon="5.19475">
        <ele>515.7</ele>
        <time>2022-07-19T07:14:17Z</time>
      </trkpt>
      <trkpt lat="44.32035" lon="5.19477">
        <ele>515.8</ele>
        <time>2022-07-19T07:14:18Z</time>
      </trkpt>
      <trkpt lat="44.32036" lon="5.19478">
        <ele>515.9</ele>
        <time>2022-07-19T07:14:19Z</time>
      </trkpt>
      <trkpt lat="44.32039" lon="5.19479">
        <ele>516.1</ele>
        <time>2022-07-19T07:14:20Z</time>
      </trkpt>
      <trkpt lat="44.3204" lon="5.1948">
        <ele>516.1</ele>
        <time>2022-07-19T07:14:21Z</time>
      </trkpt>
      <trkpt lat="44.32043" lon="5.19481">
        <ele>516.3</ele>
        <time>2022-07-19T07:14:22Z</time>
      </trkpt>
      <trkpt lat="44.32044" lon="5.19482">
        <ele>516.4</ele>
        <time>2022-07-19T07:14:23Z</time>
      </trkpt>
      <trkpt lat="44.32045" lon="5.19483">
        <ele>516.5</ele>
        <time>2022-07-19T07:14:24Z</time>
      </trkpt>
      <trkpt lat="44.32047" lon="5.19484">
        <ele>516.5</ele>
        <time>2022-07-19T07:14:25Z</time>
      </trkpt>
      <trkpt lat="44.32049" lon="5.19486">
        <ele>516.7</ele>
        <time>2022-07-19T07:14:26Z</time>
      </trkpt>
      <trkpt lat="44.3205" lon="5.19487">
        <ele>516.8</ele>
        <time>2022-07-19T07:14:27Z</time>
      </trkpt>
      <trkpt lat="44.32052" lon="5.19489">
        <ele>516.9</ele>
        <time>2022-07-19T07:14:28Z</time>
      </trkpt>
      <trkpt lat="44.32053" lon="5.1949">
        <ele>516.9</ele>
        <time>2022-07-19T07:14:29Z</time>
      </trkpt>
      <trkpt lat="44.32055" lon="5.19493">
        <ele>517.1</ele>
        <time>2022-07-19T07:14:30Z</time>
      </trkpt>
      <trkpt lat="44.32055" lon="5.19494">
        <ele>517.1</ele>
        <time>2022-07-19T07:14:31Z</time>
      </trkpt>
      <trkpt lat="44.32057" lon="5.19496">
        <ele>517.3</ele>
        <time>2022-07-19T07:14:32Z</time>
      </trkpt>
      <trkpt lat="44.32058" lon="5.19497">
        <ele>517.3</ele>
        <time>2022-07-19T07:14:33Z</time>
      </trkpt>
      <trkpt lat="44.3206" lon="5.19498">
        <ele>517.4</ele>
        <time>2022-07-19T07:14:34Z</time>
      </trkpt>
      <trkpt lat="44.32061" lon="5.19499">
        <ele>517.5</ele>
        <time>2022-07-19T07:14:35Z</time>
      </trkpt>
      <trkpt lat="44.32062" lon="5.195">
        <ele>517.6</ele>
        <time>2022-07-19T07:14:36Z</time>
      </trkpt>
      <trkpt lat="44.32064" lon="5.195">
        <ele>517.7</ele>
        <time>2022-07-19T07:14:37Z</time>
      </trkpt>
      <trkpt lat="44.32067" lon="5.19501">
        <ele>517.8</ele>
        <time>2022-07-19T07:14:38Z</time>
      </trkpt>
      <trkpt lat="44.32068" lon="5.19501">
        <ele>517.9</ele>
        <time>2022-07-19T07:14:39Z</time>
      </trkpt>
      <trkpt lat="44.32071" lon="5.19502">
        <ele>518.1</ele>
        <time>2022-07-19T07:14:40Z</time>
      </trkpt>
      <trkpt lat="44.32072" lon="5.19502">
        <ele>518.1</ele>
        <time>2022-07-19T07:14:41Z</time>
      </trkpt>
      <trkpt lat="44.32075" lon="5.19503">
        <ele>518.3</ele>
        <time>2022-07-19T07:14:42Z</time>
      </trkpt>
      <trkpt lat="44.32076" lon="5.19503">
        <ele>518.3</ele>
        <time>2022-07-19T07:14:43Z</time>
      </trkpt>
      <trkpt lat="44.32077" lon="5.19504">
        <ele>518.4</ele>
        <time>2022-07-19T07:14:44Z</time>
      </trkpt>
      <trkpt lat="44.32079" lon="5.19505">
        <ele>518.5</ele>
        <time>2022-07-19T07:14:45Z</time>
      </trkpt>
      <trkpt lat="44.3208" lon="5.19505">
        <ele>518.6</ele>
        <time>2022-07-19T07:14:46Z</time>
      </trkpt>
      <trkpt lat="44.32082" lon="5.19506">
        <ele>518.7</ele>
        <time>2022-07-19T07:14:47Z</time>
      </trkpt>
      <trkpt lat="44.32083" lon="5.19506">
        <ele>518.8</ele>
        <time>2022-07-19T07:14:48Z</time>
      </trkpt>
      <trkpt lat="44.32085" lon="5.19506">
        <ele>518.9</ele>
        <time>2022-07-19T07:14:49Z</time>
      </trkpt>
      <trkpt lat="44.32087" lon="5.19506">
        <ele>518.9</ele>
        <time>2022-07-19T07:14:50Z</time>
      </trkpt>
      <trkpt lat="44.32088" lon="5.19507">
        <ele>519</ele>
        <time>2022-07-19T07:14:51Z</time>
      </trkpt>
      <trkpt lat="44.32089" lon="5.19508">
        <ele>519.1</ele>
        <time>2022-07-19T07:14:52Z</time>
      </trkpt>
      <trkpt lat="44.32091" lon="5.1951">
        <ele>519.2</ele>
        <time>2022-07-19T07:14:53Z</time>
      </trkpt>
      <trkpt lat="44.32093" lon="5.19511">
        <ele>519.4</ele>
        <time>2022-07-19T07:14:54Z</time>
      </trkpt>
      <trkpt lat="44.32094" lon="5.19512">
        <ele>519.4</ele>
        <time>2022-07-19T07:14:55Z</time>
      </trkpt>
      <trkpt lat="44.32097" lon="5.19513">
        <ele>519.6</ele>
        <time>2022-07-19T07:14:56Z</time>
      </trkpt>
      <trkpt lat="44.32098" lon="5.19514">
        <ele>519.6</ele>
        <time>2022-07-19T07:14:57Z</time>
      </trkpt>
      <trkpt lat="44.321" lon="5.19515">
        <ele>519.8</ele>
        <time>2022-07-19T07:14:58Z</time>
      </trkpt>
      <trkpt lat="44.32101" lon="5.19516">
        <ele>519.8</ele>
        <time>2022-07-19T07:14:59Z</time>
      </trkpt>
      <trkpt lat="44.32104" lon="5.19516">
        <ele>520</ele>
        <time>2022-07-19T07:15:00Z</time>
      </trkpt>
      <trkpt lat="44.32105" lon="5.19517">
        <ele>520.1</ele>
        <time>2022-07-19T07:15:01Z</time>
      </trkpt>
      <trkpt lat="44.32107" lon="5.19517">
        <ele>520.2</ele>
        <time>2022-07-19T07:15:02Z</time>
      </trkpt>
      <trkpt lat="44.32108" lon="5.19518">
        <ele>520.3</ele>
        <time>2022-07-19T07:15:03Z</time>
      </trkpt>
      <trkpt lat="44.32111" lon="5.19519">
        <ele>520.4</ele>
        <time>2022-07-19T07:15:04Z</time>
      </trkpt>
      <trkpt lat="44.32112" lon="5.1952">
        <ele>520.5</ele>
        <time>2022-07-19T07:15:05Z</time>
      </trkpt>
      <trkpt lat="44.32115" lon="5.19521">
        <ele>520.7</ele>
        <time>2022-07-19T07:15:06Z</time>
      </trkpt>
      <trkpt lat="44.32116" lon="5.19522">
        <ele>520.8</ele>
        <time>2022-07-19T07:15:07Z</time>
      </trkpt>
      <trkpt lat="44.32119" lon="5.19523">
        <ele>521</ele>
        <time>2022-07-19T07:15:08Z</time>
      </trkpt>
      <trkpt lat="44.3212" lon="5.19524">
        <ele>521</ele>
        <time>2022-07-19T07:15:09Z</time>
      </trkpt>
      <trkpt lat="44.32123" lon="5.19525">
        <ele>521.3</ele>
        <time>2022-07-19T07:15:10Z</time>
      </trkpt>
      <trkpt lat="44.32124" lon="5.19525">
        <ele>521.3</ele>
        <time>2022-07-19T07:15:11Z</time>
      </trkpt>
      <trkpt lat="44.32127" lon="5.19527">
        <ele>521.6</ele>
        <time>2022-07-19T07:15:12Z</time>
      </trkpt>
      <trkpt lat="44.32127" lon="5.19527">
        <ele>521.6</ele>
        <time>2022-07-19T07:15:13Z</time>
      </trkpt>
      <trkpt lat="44.32129" lon="5.19528">
        <ele>521.7</ele>
        <time>2022-07-19T07:15:14Z</time>
      </trkpt>
      <trkpt lat="44.3213" lon="5.1953">
        <ele>521.9</ele>
        <time>2022-07-19T07:15:15Z</time>
      </trkpt>
      <trkpt lat="44.32133" lon="5.19532">
        <ele>522</ele>
        <time>2022-07-19T07:15:16Z</time>
      </trkpt>
      <trkpt lat="44.32133" lon="5.19532">
        <ele>522.1</ele>
        <time>2022-07-19T07:15:17Z</time>
      </trkpt>
      <trkpt lat="44.32135" lon="5.19534">
        <ele>522.2</ele>
        <time>2022-07-19T07:15:18Z</time>
      </trkpt>
      <trkpt lat="44.32136" lon="5.19535">
        <ele>522.3</ele>
        <time>2022-07-19T07:15:19Z</time>
      </trkpt>
      <trkpt lat="44.32139" lon="5.19538">
        <ele>522.5</ele>
        <time>2022-07-19T07:15:20Z</time>
      </trkpt>
      <trkpt lat="44.3214" lon="5.19539">
        <ele>522.6</ele>
        <time>2022-07-19T07:15:21Z</time>
      </trkpt>
      <trkpt lat="44.32142" lon="5.19542">
        <ele>522.8</ele>
        <time>2022-07-19T07:15:22Z</time>
      </trkpt>
      <trkpt lat="44.32143" lon="5.19543">
        <ele>522.8</ele>
        <time>2022-07-19T07:15:23Z</time>
      </trkpt>
      <trkpt lat="44.32145" lon="5.19545">
        <ele>523</ele>
        <time>2022-07-19T07:15:24Z</time>
      </trkpt>
      <trkpt lat="44.32146" lon="5.19546">
        <ele>523</ele>
        <time>2022-07-19T07:15:25Z</time>
      </trkpt>
      <trkpt lat="44.32146" lon="5.19548">
        <ele>523.1</ele>
        <time>2022-07-19T07:15:26Z</time>
      </trkpt>
      <trkpt lat="44.32147" lon="5.1955">
        <ele>523.2</ele>
        <time>2022-07-19T07:15:27Z</time>
      </trkpt>
      <trkpt lat="44.32148" lon="5.19553">
        <ele>523.3</ele>
        <time>2022-07-19T07:15:28Z</time>
      </trkpt>
      <trkpt lat="44.32149" lon="5.19554">
        <ele>523.4</ele>
        <time>2022-07-19T07:15:29Z</time>
      </trkpt>
      <trkpt lat="44.3215" lon="5.19556">
        <ele>523.5</ele>
        <time>2022-07-19T07:15:30Z</time>
      </trkpt>
      <trkpt lat="44.3215" lon="5.19558">
        <ele>523.6</ele>
        <time>2022-07-19T07:15:31Z</time>
      </trkpt>
      <trkpt lat="44.32151" lon="5.1956">
        <ele>523.6</ele>
        <time>2022-07-19T07:15:32Z</time>
      </trkpt>
      <trkpt lat="44.32152" lon="5.19562">
        <ele>523.7</ele>
        <time>2022-07-19T07:15:33Z</time>
      </trkpt>
      <trkpt lat="44.32153" lon="5.19564">
        <ele>523.8</ele>
        <time>2022-07-19T07:15:34Z</time>
      </trkpt>
      <trkpt lat="44.32153" lon="5.19565">
        <ele>523.8</ele>
        <time>2022-07-19T07:15:35Z</time>
      </trkpt>
      <trkpt lat="44.32154" lon="5.19567">
        <ele>523.9</ele>
        <time>2022-07-19T07:15:36Z</time>
      </trkpt>
      <trkpt lat="44.32155" lon="5.19569">
        <ele>524</ele>
        <time>2022-07-19T07:15:37Z</time>
      </trkpt>
      <trkpt lat="44.32156" lon="5.19571">
        <ele>524.1</ele>
        <time>2022-07-19T07:15:38Z</time>
      </trkpt>
      <trkpt lat="44.32157" lon="5.19573">
        <ele>524.1</ele>
        <time>2022-07-19T07:15:39Z</time>
      </trkpt>
      <trkpt lat="44.32158" lon="5.19574">
        <ele>524.2</ele>
        <time>2022-07-19T07:15:40Z</time>
      </trkpt>
      <trkpt lat="44.32158" lon="5.19575">
        <ele>524.2</ele>
        <time>2022-07-19T07:15:41Z</time>
      </trkpt>
      <trkpt lat="44.32159" lon="5.19576">
        <ele>524.2</ele>
        <time>2022-07-19T07:15:42Z</time>
      </trkpt>
      <trkpt lat="44.32162" lon="5.19578">
        <ele>524.4</ele>
        <time>2022-07-19T07:15:43Z</time>
      </trkpt>
      <trkpt lat="44.32163" lon="5.19579">
        <ele>524.4</ele>
        <time>2022-07-19T07:15:44Z</time>
      </trkpt>
      <trkpt lat="44.32165" lon="5.19581">
        <ele>524.5</ele>
        <time>2022-07-19T07:15:45Z</time>
      </trkpt>
      <trkpt lat="44.32166" lon="5.19582">
        <ele>524.6</ele>
        <time>2022-07-19T07:15:46Z</time>
      </trkpt>
      <trkpt lat="44.32168" lon="5.19586">
        <ele>524.6</ele>
        <time>2022-07-19T07:15:47Z</time>
      </trkpt>
      <trkpt lat="44.32169" lon="5.19588">
        <ele>524.7</ele>
        <time>2022-07-19T07:15:48Z</time>
      </trkpt>
      <trkpt lat="44.32169" lon="5.1959">
        <ele>524.7</ele>
        <time>2022-07-19T07:15:49Z</time>
      </trkpt>
      <trkpt lat="44.3217" lon="5.19591">
        <ele>524.7</ele>
        <time>2022-07-19T07:15:50Z</time>
      </trkpt>
      <trkpt lat="44.32171" lon="5.19595">
        <ele>524.8</ele>
        <time>2022-07-19T07:15:51Z</time>
      </trkpt>
      <trkpt lat="44.32172" lon="5.19596">
        <ele>524.8</ele>
        <time>2022-07-19T07:15:52Z</time>
      </trkpt>
      <trkpt lat="44.32172" lon="5.19598">
        <ele>524.8</ele>
        <time>2022-07-19T07:15:53Z</time>
      </trkpt>
      <trkpt lat="44.32173" lon="5.196">
        <ele>524.8</ele>
        <time>2022-07-19T07:15:54Z</time>
      </trkpt>
      <trkpt lat="44.32174" lon="5.19604">
        <ele>524.8</ele>
        <time>2022-07-19T07:15:55Z</time>
      </trkpt>
      <trkpt lat="44.32174" lon="5.19606">
        <ele>524.8</ele>
        <time>2022-07-19T07:15:56Z</time>
      </trkpt>
      <trkpt lat="44.32174" lon="5.19611">
        <ele>524.7</ele>
        <time>2022-07-19T07:15:57Z</time>
      </trkpt>
      <trkpt lat="44.32174" lon="5.19612">
        <ele>524.7</ele>
        <time>2022-07-19T07:15:58Z</time>
      </trkpt>
      <trkpt lat="44.32173" lon="5.19617">
        <ele>524.7</ele>
        <time>2022-07-19T07:15:59Z</time>
      </trkpt>
      <trkpt lat="44.32172" lon="5.19621">
        <ele>524.7</ele>
        <time>2022-07-19T07:16:00Z</time>
      </trkpt>
      <trkpt lat="44.3217" lon="5.19625">
        <ele>524.7</ele>
        <time>2022-07-19T07:16:01Z</time>
      </trkpt>
      <trkpt lat="44.32169" lon="5.19629">
        <ele>524.7</ele>
        <time>2022-07-19T07:16:02Z</time>
      </trkpt>
      <trkpt lat="44.32167" lon="5.19634">
        <ele>524.7</ele>
        <time>2022-07-19T07:16:03Z</time>
      </trkpt>
      <trkpt lat="44.32167" lon="5.19635">
        <ele>524.7</ele>
        <time>2022-07-19T07:16:04Z</time>
      </trkpt>
      <trkpt lat="44.32166" lon="5.19639">
        <ele>524.7</ele>
        <time>2022-07-19T07:16:05Z</time>
      </trkpt>
      <trkpt lat="44.32165" lon="5.19644">
        <ele>524.8</ele>
        <time>2022-07-19T07:16:06Z</time>
      </trkpt>
      <trkpt lat="44.32165" lon="5.19645">
        <ele>524.8</ele>
        <time>2022-07-19T07:16:07Z</time>
      </trkpt>
      <trkpt lat="44.32165" lon="5.19648">
        <ele>524.9</ele>
        <time>2022-07-19T07:16:08Z</time>
      </trkpt>
      <trkpt lat="44.32164" lon="5.1965">
        <ele>525</ele>
        <time>2022-07-19T07:16:09Z</time>
      </trkpt>
      <trkpt lat="44.32164" lon="5.19654">
        <ele>525.1</ele>
        <time>2022-07-19T07:16:10Z</time>
      </trkpt>
      <trkpt lat="44.32164" lon="5.19656">
        <ele>525.1</ele>
        <time>2022-07-19T07:16:11Z</time>
      </trkpt>
      <trkpt lat="44.32164" lon="5.1966">
        <ele>525.2</ele>
        <time>2022-07-19T07:16:12Z</time>
      </trkpt>
      <trkpt lat="44.32164" lon="5.19661">
        <ele>525.3</ele>
        <time>2022-07-19T07:16:13Z</time>
      </trkpt>
      <trkpt lat="44.32165" lon="5.19666">
        <ele>525.5</ele>
        <time>2022-07-19T07:16:14Z</time>
      </trkpt>
      <trkpt lat="44.32165" lon="5.19668">
        <ele>525.6</ele>
        <time>2022-07-19T07:16:15Z</time>
      </trkpt>
      <trkpt lat="44.32166" lon="5.19671">
        <ele>525.7</ele>
        <time>2022-07-19T07:16:16Z</time>
      </trkpt>
      <trkpt lat="44.32167" lon="5.19672">
        <ele>525.8</ele>
        <time>2022-07-19T07:16:17Z</time>
      </trkpt>
      <trkpt lat="44.32167" lon="5.19673">
        <ele>525.8</ele>
        <time>2022-07-19T07:16:18Z</time>
      </trkpt>
      <trkpt lat="44.32168" lon="5.19675">
        <ele>525.9</ele>
        <time>2022-07-19T07:16:19Z</time>
      </trkpt>
      <trkpt lat="44.32169" lon="5.19677">
        <ele>526</ele>
        <time>2022-07-19T07:16:20Z</time>
      </trkpt>
      <trkpt lat="44.3217" lon="5.1968">
        <ele>526.2</ele>
        <time>2022-07-19T07:16:21Z</time>
      </trkpt>
      <trkpt lat="44.3217" lon="5.19681">
        <ele>526.3</ele>
        <time>2022-07-19T07:16:22Z</time>
      </trkpt>
      <trkpt lat="44.32171" lon="5.19686">
        <ele>526.5</ele>
        <time>2022-07-19T07:16:23Z</time>
      </trkpt>
      <trkpt lat="44.32171" lon="5.19687">
        <ele>526.6</ele>
        <time>2022-07-19T07:16:24Z</time>
      </trkpt>
      <trkpt lat="44.32172" lon="5.19689">
        <ele>526.7</ele>
        <time>2022-07-19T07:16:25Z</time>
      </trkpt>
      <trkpt lat="44.32172" lon="5.19691">
        <ele>526.8</ele>
        <time>2022-07-19T07:16:26Z</time>
      </trkpt>
      <trkpt lat="44.32172" lon="5.19695">
        <ele>527.1</ele>
        <time>2022-07-19T07:16:27Z</time>
      </trkpt>
      <trkpt lat="44.32173" lon="5.19696">
        <ele>527.1</ele>
        <time>2022-07-19T07:16:28Z</time>
      </trkpt>
      <trkpt lat="44.32174" lon="5.197">
        <ele>527.4</ele>
        <time>2022-07-19T07:16:29Z</time>
      </trkpt>
      <trkpt lat="44.32175" lon="5.19701">
        <ele>527.5</ele>
        <time>2022-07-19T07:16:30Z</time>
      </trkpt>
      <trkpt lat="44.32176" lon="5.19704">
        <ele>527.8</ele>
        <time>2022-07-19T07:16:31Z</time>
      </trkpt>
      <trkpt lat="44.32177" lon="5.19705">
        <ele>527.9</ele>
        <time>2022-07-19T07:16:32Z</time>
      </trkpt>
      <trkpt lat="44.32178" lon="5.1971">
        <ele>528.2</ele>
        <time>2022-07-19T07:16:33Z</time>
      </trkpt>
      <trkpt lat="44.32178" lon="5.19712">
        <ele>528.4</ele>
        <time>2022-07-19T07:16:34Z</time>
      </trkpt>
      <trkpt lat="44.32181" lon="5.19716">
        <ele>528.8</ele>
        <time>2022-07-19T07:16:35Z</time>
      </trkpt>
      <trkpt lat="44.32182" lon="5.19717">
        <ele>529</ele>
        <time>2022-07-19T07:16:36Z</time>
      </trkpt>
      <trkpt lat="44.32185" lon="5.19719">
        <ele>529.5</ele>
        <time>2022-07-19T07:16:37Z</time>
      </trkpt>
      <trkpt lat="44.32186" lon="5.1972">
        <ele>529.6</ele>
        <time>2022-07-19T07:16:38Z</time>
      </trkpt>
      <trkpt lat="44.32189" lon="5.19722">
        <ele>530</ele>
        <time>2022-07-19T07:16:39Z</time>
      </trkpt>
      <trkpt lat="44.3219" lon="5.19722">
        <ele>530.1</ele>
        <time>2022-07-19T07:16:40Z</time>
      </trkpt>
      <trkpt lat="44.3219" lon="5.19722">
        <ele>530.2</ele>
        <time>2022-07-19T07:16:41Z</time>
      </trkpt>
      <trkpt lat="44.32191" lon="5.19722">
        <ele>530.3</ele>
        <time>2022-07-19T07:16:42Z</time>
      </trkpt>
      <trkpt lat="44.32191" lon="5.19721">
        <ele>530.3</ele>
        <time>2022-07-19T07:16:43Z</time>
      </trkpt>
      <trkpt lat="44.32191" lon="5.1972">
        <ele>530.4</ele>
        <time>2022-07-19T07:16:44Z</time>
      </trkpt>
      <trkpt lat="44.32191" lon="5.19719">
        <ele>530.4</ele>
        <time>2022-07-19T07:16:45Z</time>
      </trkpt>
      <trkpt lat="44.32191" lon="5.19719">
        <ele>530.5</ele>
        <time>2022-07-19T07:16:46Z</time>
      </trkpt>
      <trkpt lat="44.32191" lon="5.19718">
        <ele>530.6</ele>
        <time>2022-07-19T07:16:47Z</time>
      </trkpt>
      <trkpt lat="44.32192" lon="5.19717">
        <ele>530.6</ele>
        <time>2022-07-19T07:16:48Z</time>
      </trkpt>
      <trkpt lat="44.32192" lon="5.19715">
        <ele>530.8</ele>
        <time>2022-07-19T07:16:49Z</time>
      </trkpt>
      <trkpt lat="44.32193" lon="5.19713">
        <ele>531</ele>
        <time>2022-07-19T07:16:50Z</time>
      </trkpt>
      <trkpt lat="44.32193" lon="5.19711">
        <ele>531.2</ele>
        <time>2022-07-19T07:16:51Z</time>
      </trkpt>
      <trkpt lat="44.32193" lon="5.19708">
        <ele>531.3</ele>
        <time>2022-07-19T07:16:52Z</time>
      </trkpt>
      <trkpt lat="44.32194" lon="5.19706">
        <ele>531.5</ele>
        <time>2022-07-19T07:16:53Z</time>
      </trkpt>
      <trkpt lat="44.32194" lon="5.19705">
        <ele>531.6</ele>
        <time>2022-07-19T07:16:54Z</time>
      </trkpt>
      <trkpt lat="44.32195" lon="5.19703">
        <ele>531.7</ele>
        <time>2022-07-19T07:16:55Z</time>
      </trkpt>
      <trkpt lat="44.32196" lon="5.19701">
        <ele>531.9</ele>
        <time>2022-07-19T07:16:56Z</time>
      </trkpt>
      <trkpt lat="44.32196" lon="5.197">
        <ele>532</ele>
        <time>2022-07-19T07:16:57Z</time>
      </trkpt>
      <trkpt lat="44.32196" lon="5.19698">
        <ele>532.1</ele>
        <time>2022-07-19T07:16:58Z</time>
      </trkpt>
      <trkpt lat="44.32197" lon="5.19697">
        <ele>532.2</ele>
        <time>2022-07-19T07:16:59Z</time>
      </trkpt>
      <trkpt lat="44.32197" lon="5.19695">
        <ele>532.3</ele>
        <time>2022-07-19T07:17:00Z</time>
      </trkpt>
      <trkpt lat="44.32197" lon="5.19693">
        <ele>532.4</ele>
        <time>2022-07-19T07:17:01Z</time>
      </trkpt>
      <trkpt lat="44.32198" lon="5.19692">
        <ele>532.5</ele>
        <time>2022-07-19T07:17:02Z</time>
      </trkpt>
      <trkpt lat="44.32198" lon="5.19692">
        <ele>532.5</ele>
        <time>2022-07-19T07:17:03Z</time>
      </trkpt>
      <trkpt lat="44.32197" lon="5.19691">
        <ele>532.5</ele>
        <time>2022-07-19T07:17:04Z</time>
      </trkpt>
      <trkpt lat="44.32198" lon="5.19689">
        <ele>532.6</ele>
        <time>2022-07-19T07:17:05Z</time>
      </trkpt>
      <trkpt lat="44.32199" lon="5.19688">
        <ele>532.8</ele>
        <time>2022-07-19T07:17:06Z</time>
      </trkpt>
      <trkpt lat="44.322" lon="5.19686">
        <ele>532.9</ele>
        <time>2022-07-19T07:17:07Z</time>
      </trkpt>
      <trkpt lat="44.32201" lon="5.19685">
        <ele>533.1</ele>
        <time>2022-07-19T07:17:08Z</time>
      </trkpt>
      <trkpt lat="44.32203" lon="5.19684">
        <ele>533.2</ele>
        <time>2022-07-19T07:17:09Z</time>
      </trkpt>
      <trkpt lat="44.32203" lon="5.19683">
        <ele>533.3</ele>
        <time>2022-07-19T07:17:10Z</time>
      </trkpt>
      <trkpt lat="44.32204" lon="5.19682">
        <ele>533.4</ele>
        <time>2022-07-19T07:17:11Z</time>
      </trkpt>
      <trkpt lat="44.32204" lon="5.19681">
        <ele>533.4</ele>
        <time>2022-07-19T07:17:12Z</time>
      </trkpt>
      <trkpt lat="44.32206" lon="5.1968">
        <ele>533.6</ele>
        <time>2022-07-19T07:17:13Z</time>
      </trkpt>
      <trkpt lat="44.32207" lon="5.19678">
        <ele>533.7</ele>
        <time>2022-07-19T07:17:14Z</time>
      </trkpt>
      <trkpt lat="44.32207" lon="5.19677">
        <ele>533.8</ele>
        <time>2022-07-19T07:17:15Z</time>
      </trkpt>
      <trkpt lat="44.32207" lon="5.19676">
        <ele>533.9</ele>
        <time>2022-07-19T07:17:16Z</time>
      </trkpt>
      <trkpt lat="44.32208" lon="5.19675">
        <ele>533.9</ele>
        <time>2022-07-19T07:17:17Z</time>
      </trkpt>
      <trkpt lat="44.32208" lon="5.19674">
        <ele>534</ele>
        <time>2022-07-19T07:17:18Z</time>
      </trkpt>
      <trkpt lat="44.32208" lon="5.19672">
        <ele>534.1</ele>
        <time>2022-07-19T07:17:19Z</time>
      </trkpt>
      <trkpt lat="44.32208" lon="5.19671">
        <ele>534.1</ele>
        <time>2022-07-19T07:17:20Z</time>
      </trkpt>
      <trkpt lat="44.32208" lon="5.1967">
        <ele>534.2</ele>
        <time>2022-07-19T07:17:21Z</time>
      </trkpt>
      <trkpt lat="44.32208" lon="5.19669">
        <ele>534.3</ele>
        <time>2022-07-19T07:17:22Z</time>
      </trkpt>
      <trkpt lat="44.32208" lon="5.19668">
        <ele>534.3</ele>
        <time>2022-07-19T07:17:23Z</time>
      </trkpt>
      <trkpt lat="44.32208" lon="5.19667">
        <ele>534.4</ele>
        <time>2022-07-19T07:17:24Z</time>
      </trkpt>
      <trkpt lat="44.32208" lon="5.19666">
        <ele>534.5</ele>
        <time>2022-07-19T07:17:25Z</time>
      </trkpt>
      <trkpt lat="44.32208" lon="5.19665">
        <ele>534.6</ele>
        <time>2022-07-19T07:17:26Z</time>
      </trkpt>
      <trkpt lat="44.32208" lon="5.19662">
        <ele>534.7</ele>
        <time>2022-07-19T07:17:27Z</time>
      </trkpt>
      <trkpt lat="44.32208" lon="5.19661">
        <ele>534.8</ele>
        <time>2022-07-19T07:17:28Z</time>
      </trkpt>
      <trkpt lat="44.32209" lon="5.19659">
        <ele>534.9</ele>
        <time>2022-07-19T07:17:29Z</time>
      </trkpt>
      <trkpt lat="44.32209" lon="5.19657">
        <ele>535</ele>
        <time>2022-07-19T07:17:30Z</time>
      </trkpt>
      <trkpt lat="44.32209" lon="5.19655">
        <ele>535.2</ele>
        <time>2022-07-19T07:17:31Z</time>
      </trkpt>
      <trkpt lat="44.3221" lon="5.19653">
        <ele>535.3</ele>
        <time>2022-07-19T07:17:32Z</time>
      </trkpt>
      <trkpt lat="44.32211" lon="5.19651">
        <ele>535.4</ele>
        <time>2022-07-19T07:17:33Z</time>
      </trkpt>
      <trkpt lat="44.32212" lon="5.1965">
        <ele>535.5</ele>
        <time>2022-07-19T07:17:34Z</time>
      </trkpt>
      <trkpt lat="44.32213" lon="5.19649">
        <ele>535.7</ele>
        <time>2022-07-19T07:17:35Z</time>
      </trkpt>
      <trkpt lat="44.32214" lon="5.19647">
        <ele>535.8</ele>
        <time>2022-07-19T07:17:36Z</time>
      </trkpt>
      <trkpt lat="44.32215" lon="5.19646">
        <ele>535.9</ele>
        <time>2022-07-19T07:17:37Z</time>
      </trkpt>
      <trkpt lat="44.32216" lon="5.19644">
        <ele>536.1</ele>
        <time>2022-07-19T07:17:38Z</time>
      </trkpt>
      <trkpt lat="44.32218" lon="5.19643">
        <ele>536.2</ele>
        <time>2022-07-19T07:17:39Z</time>
      </trkpt>
      <trkpt lat="44.32219" lon="5.19642">
        <ele>536.3</ele>
        <time>2022-07-19T07:17:40Z</time>
      </trkpt>
      <trkpt lat="44.32221" lon="5.19641">
        <ele>536.5</ele>
        <time>2022-07-19T07:17:41Z</time>
      </trkpt>
      <trkpt lat="44.32223" lon="5.19639">
        <ele>536.7</ele>
        <time>2022-07-19T07:17:42Z</time>
      </trkpt>
      <trkpt lat="44.32224" lon="5.19638">
        <ele>536.8</ele>
        <time>2022-07-19T07:17:43Z</time>
      </trkpt>
      <trkpt lat="44.32226" lon="5.19637">
        <ele>537</ele>
        <time>2022-07-19T07:17:44Z</time>
      </trkpt>
      <trkpt lat="44.32227" lon="5.19636">
        <ele>537.1</ele>
        <time>2022-07-19T07:17:45Z</time>
      </trkpt>
      <trkpt lat="44.32229" lon="5.19635">
        <ele>537.2</ele>
        <time>2022-07-19T07:17:46Z</time>
      </trkpt>
      <trkpt lat="44.3223" lon="5.19634">
        <ele>537.3</ele>
        <time>2022-07-19T07:17:47Z</time>
      </trkpt>
      <trkpt lat="44.32231" lon="5.19634">
        <ele>537.5</ele>
        <time>2022-07-19T07:17:48Z</time>
      </trkpt>
      <trkpt lat="44.32232" lon="5.19633">
        <ele>537.6</ele>
        <time>2022-07-19T07:17:49Z</time>
      </trkpt>
      <trkpt lat="44.32234" lon="5.19632">
        <ele>537.7</ele>
        <time>2022-07-19T07:17:50Z</time>
      </trkpt>
      <trkpt lat="44.32235" lon="5.19631">
        <ele>537.8</ele>
        <time>2022-07-19T07:17:51Z</time>
      </trkpt>
      <trkpt lat="44.32236" lon="5.19631">
        <ele>538</ele>
        <time>2022-07-19T07:17:52Z</time>
      </trkpt>
      <trkpt lat="44.32238" lon="5.1963">
        <ele>538.1</ele>
        <time>2022-07-19T07:17:53Z</time>
      </trkpt>
      <trkpt lat="44.32239" lon="5.19629">
        <ele>538.3</ele>
        <time>2022-07-19T07:17:54Z</time>
      </trkpt>
      <trkpt lat="44.3224" lon="5.19627">
        <ele>538.4</ele>
        <time>2022-07-19T07:17:55Z</time>
      </trkpt>
      <trkpt lat="44.32242" lon="5.19626">
        <ele>538.6</ele>
        <time>2022-07-19T07:17:56Z</time>
      </trkpt>
      <trkpt lat="44.32243" lon="5.19625">
        <ele>538.7</ele>
        <time>2022-07-19T07:17:57Z</time>
      </trkpt>
      <trkpt lat="44.32244" lon="5.19624">
        <ele>538.9</ele>
        <time>2022-07-19T07:17:58Z</time>
      </trkpt>
      <trkpt lat="44.32245" lon="5.19623">
        <ele>539</ele>
        <time>2022-07-19T07:17:59Z</time>
      </trkpt>
      <trkpt lat="44.32247" lon="5.19622">
        <ele>539.2</ele>
        <time>2022-07-19T07:18:00Z</time>
      </trkpt>
      <trkpt lat="44.32248" lon="5.19622">
        <ele>539.3</ele>
        <time>2022-07-19T07:18:01Z</time>
      </trkpt>
      <trkpt lat="44.32248" lon="5.19621">
        <ele>539.4</ele>
        <time>2022-07-19T07:18:02Z</time>
      </trkpt>
      <trkpt lat="44.3225" lon="5.19621">
        <ele>539.6</ele>
        <time>2022-07-19T07:18:03Z</time>
      </trkpt>
      <trkpt lat="44.32251" lon="5.19621">
        <ele>539.7</ele>
        <time>2022-07-19T07:18:04Z</time>
      </trkpt>
      <trkpt lat="44.32253" lon="5.19621">
        <ele>539.9</ele>
        <time>2022-07-19T07:18:05Z</time>
      </trkpt>
      <trkpt lat="44.32254" lon="5.19621">
        <ele>540.1</ele>
        <time>2022-07-19T07:18:06Z</time>
      </trkpt>
      <trkpt lat="44.32256" lon="5.19621">
        <ele>540.3</ele>
        <time>2022-07-19T07:18:07Z</time>
      </trkpt>
      <trkpt lat="44.32257" lon="5.19621">
        <ele>540.5</ele>
        <time>2022-07-19T07:18:08Z</time>
      </trkpt>
      <trkpt lat="44.32259" lon="5.19621">
        <ele>540.8</ele>
        <time>2022-07-19T07:18:09Z</time>
      </trkpt>
      <trkpt lat="44.3226" lon="5.19621">
        <ele>540.9</ele>
        <time>2022-07-19T07:18:10Z</time>
      </trkpt>
      <trkpt lat="44.32261" lon="5.19622">
        <ele>541</ele>
        <time>2022-07-19T07:18:11Z</time>
      </trkpt>
      <trkpt lat="44.32262" lon="5.19622">
        <ele>541.2</ele>
        <time>2022-07-19T07:18:12Z</time>
      </trkpt>
      <trkpt lat="44.32263" lon="5.19622">
        <ele>541.3</ele>
        <time>2022-07-19T07:18:13Z</time>
      </trkpt>
      <trkpt lat="44.32264" lon="5.19621">
        <ele>541.5</ele>
        <time>2022-07-19T07:18:14Z</time>
      </trkpt>
      <trkpt lat="44.32265" lon="5.19621">
        <ele>541.6</ele>
        <time>2022-07-19T07:18:15Z</time>
      </trkpt>
      <trkpt lat="44.32267" lon="5.19621">
        <ele>541.8</ele>
        <time>2022-07-19T07:18:16Z</time>
      </trkpt>
      <trkpt lat="44.32268" lon="5.19621">
        <ele>542</ele>
        <time>2022-07-19T07:18:17Z</time>
      </trkpt>
      <trkpt lat="44.3227" lon="5.19621">
        <ele>542.3</ele>
        <time>2022-07-19T07:18:18Z</time>
      </trkpt>
      <trkpt lat="44.32271" lon="5.19622">
        <ele>542.4</ele>
        <time>2022-07-19T07:18:19Z</time>
      </trkpt>
      <trkpt lat="44.32271" lon="5.19622">
        <ele>542.5</ele>
        <time>2022-07-19T07:18:20Z</time>
      </trkpt>
      <trkpt lat="44.32273" lon="5.19622">
        <ele>542.8</ele>
        <time>2022-07-19T07:18:21Z</time>
      </trkpt>
      <trkpt lat="44.32274" lon="5.19622">
        <ele>543</ele>
        <time>2022-07-19T07:18:22Z</time>
      </trkpt>
      <trkpt lat="44.32275" lon="5.19622">
        <ele>543.1</ele>
        <time>2022-07-19T07:18:23Z</time>
      </trkpt>
      <trkpt lat="44.32276" lon="5.19621">
        <ele>543.2</ele>
        <time>2022-07-19T07:18:24Z</time>
      </trkpt>
      <trkpt lat="44.32277" lon="5.19622">
        <ele>543.4</ele>
        <time>2022-07-19T07:18:25Z</time>
      </trkpt>
      <trkpt lat="44.32278" lon="5.19622">
        <ele>543.6</ele>
        <time>2022-07-19T07:18:26Z</time>
      </trkpt>
      <trkpt lat="44.32279" lon="5.19623">
        <ele>543.7</ele>
        <time>2022-07-19T07:18:27Z</time>
      </trkpt>
      <trkpt lat="44.3228" lon="5.19624">
        <ele>543.9</ele>
        <time>2022-07-19T07:18:28Z</time>
      </trkpt>
      <trkpt lat="44.32281" lon="5.19625">
        <ele>544.7</ele>
        <time>2022-07-19T07:18:29Z</time>
      </trkpt>
      <trkpt lat="44.32283" lon="5.19626">
        <ele>545</ele>
        <time>2022-07-19T07:18:30Z</time>
      </trkpt>
      <trkpt lat="44.32284" lon="5.19626">
        <ele>545</ele>
        <time>2022-07-19T07:18:31Z</time>
      </trkpt>
      <trkpt lat="44.32284" lon="5.19626">
        <ele>545.1</ele>
        <time>2022-07-19T07:18:32Z</time>
      </trkpt>
      <trkpt lat="44.32286" lon="5.19626">
        <ele>545.3</ele>
        <time>2022-07-19T07:18:33Z</time>
      </trkpt>
      <trkpt lat="44.32287" lon="5.19626">
        <ele>545.4</ele>
        <time>2022-07-19T07:18:34Z</time>
      </trkpt>
      <trkpt lat="44.32289" lon="5.19626">
        <ele>545.6</ele>
        <time>2022-07-19T07:18:35Z</time>
      </trkpt>
      <trkpt lat="44.3229" lon="5.19626">
        <ele>545.8</ele>
        <time>2022-07-19T07:18:36Z</time>
      </trkpt>
      <trkpt lat="44.32292" lon="5.19627">
        <ele>545.9</ele>
        <time>2022-07-19T07:18:37Z</time>
      </trkpt>
      <trkpt lat="44.32294" lon="5.19626">
        <ele>546.1</ele>
        <time>2022-07-19T07:18:38Z</time>
      </trkpt>
      <trkpt lat="44.32295" lon="5.19626">
        <ele>546.3</ele>
        <time>2022-07-19T07:18:39Z</time>
      </trkpt>
      <trkpt lat="44.32297" lon="5.19626">
        <ele>546.5</ele>
        <time>2022-07-19T07:18:40Z</time>
      </trkpt>
      <trkpt lat="44.32299" lon="5.19626">
        <ele>546.6</ele>
        <time>2022-07-19T07:18:41Z</time>
      </trkpt>
      <trkpt lat="44.323" lon="5.19627">
        <ele>546.8</ele>
        <time>2022-07-19T07:18:42Z</time>
      </trkpt>
      <trkpt lat="44.32302" lon="5.19628">
        <ele>547</ele>
        <time>2022-07-19T07:18:43Z</time>
      </trkpt>
      <trkpt lat="44.32303" lon="5.19628">
        <ele>547.1</ele>
        <time>2022-07-19T07:18:44Z</time>
      </trkpt>
      <trkpt lat="44.32304" lon="5.19629">
        <ele>547.3</ele>
        <time>2022-07-19T07:18:45Z</time>
      </trkpt>
      <trkpt lat="44.32306" lon="5.19629">
        <ele>547.4</ele>
        <time>2022-07-19T07:18:46Z</time>
      </trkpt>
      <trkpt lat="44.32308" lon="5.1963">
        <ele>547.6</ele>
        <time>2022-07-19T07:18:47Z</time>
      </trkpt>
      <trkpt lat="44.32309" lon="5.1963">
        <ele>547.7</ele>
        <time>2022-07-19T07:18:48Z</time>
      </trkpt>
      <trkpt lat="44.32309" lon="5.1963">
        <ele>547.8</ele>
        <time>2022-07-19T07:18:49Z</time>
      </trkpt>
      <trkpt lat="44.32311" lon="5.1963">
        <ele>548</ele>
        <time>2022-07-19T07:18:50Z</time>
      </trkpt>
      <trkpt lat="44.32312" lon="5.1963">
        <ele>548.1</ele>
        <time>2022-07-19T07:18:51Z</time>
      </trkpt>
      <trkpt lat="44.32313" lon="5.1963">
        <ele>548.2</ele>
        <time>2022-07-19T07:18:52Z</time>
      </trkpt>
      <trkpt lat="44.32314" lon="5.19631">
        <ele>548.9</ele>
        <time>2022-07-19T07:18:53Z</time>
      </trkpt>
      <trkpt lat="44.32315" lon="5.19631">
        <ele>549.1</ele>
        <time>2022-07-19T07:18:54Z</time>
      </trkpt>
      <trkpt lat="44.32316" lon="5.19631">
        <ele>549.2</ele>
        <time>2022-07-19T07:18:55Z</time>
      </trkpt>
      <trkpt lat="44.32317" lon="5.19632">
        <ele>550.7</ele>
        <time>2022-07-19T07:18:56Z</time>
      </trkpt>
      <trkpt lat="44.32318" lon="5.19633">
        <ele>550.8</ele>
        <time>2022-07-19T07:18:57Z</time>
      </trkpt>
      <trkpt lat="44.3232" lon="5.19633">
        <ele>550.9</ele>
        <time>2022-07-19T07:18:58Z</time>
      </trkpt>
      <trkpt lat="44.32321" lon="5.19633">
        <ele>551.5</ele>
        <time>2022-07-19T07:18:59Z</time>
      </trkpt>
      <trkpt lat="44.32322" lon="5.19632">
        <ele>551.7</ele>
        <time>2022-07-19T07:19:00Z</time>
      </trkpt>
      <trkpt lat="44.32324" lon="5.19632">
        <ele>552.2</ele>
        <time>2022-07-19T07:19:01Z</time>
      </trkpt>
      <trkpt lat="44.32325" lon="5.19632">
        <ele>551.5</ele>
        <time>2022-07-19T07:19:02Z</time>
      </trkpt>
      <trkpt lat="44.32327" lon="5.19631">
        <ele>552.1</ele>
        <time>2022-07-19T07:19:03Z</time>
      </trkpt>
      <trkpt lat="44.32328" lon="5.19631">
        <ele>552.2</ele>
        <time>2022-07-19T07:19:04Z</time>
      </trkpt>
      <trkpt lat="44.32329" lon="5.1963">
        <ele>552.4</ele>
        <time>2022-07-19T07:19:05Z</time>
      </trkpt>
      <trkpt lat="44.32331" lon="5.1963">
        <ele>553</ele>
        <time>2022-07-19T07:19:06Z</time>
      </trkpt>
      <trkpt lat="44.32333" lon="5.19629">
        <ele>553.1</ele>
        <time>2022-07-19T07:19:07Z</time>
      </trkpt>
      <trkpt lat="44.32334" lon="5.19628">
        <ele>553.7</ele>
        <time>2022-07-19T07:19:08Z</time>
      </trkpt>
      <trkpt lat="44.32335" lon="5.19627">
        <ele>553.2</ele>
        <time>2022-07-19T07:19:09Z</time>
      </trkpt>
      <trkpt lat="44.32335" lon="5.19627">
        <ele>553.3</ele>
        <time>2022-07-19T07:19:10Z</time>
      </trkpt>
      <trkpt lat="44.32336" lon="5.19626">
        <ele>553.9</ele>
        <time>2022-07-19T07:19:11Z</time>
      </trkpt>
      <trkpt lat="44.32337" lon="5.19626">
        <ele>554</ele>
        <time>2022-07-19T07:19:12Z</time>
      </trkpt>
      <trkpt lat="44.32338" lon="5.19625">
        <ele>554.2</ele>
        <time>2022-07-19T07:19:13Z</time>
      </trkpt>
      <trkpt lat="44.3234" lon="5.19625">
        <ele>554.8</ele>
        <time>2022-07-19T07:19:14Z</time>
      </trkpt>
      <trkpt lat="44.32341" lon="5.19624">
        <ele>554.9</ele>
        <time>2022-07-19T07:19:15Z</time>
      </trkpt>
      <trkpt lat="44.32343" lon="5.19624">
        <ele>555.4</ele>
        <time>2022-07-19T07:19:16Z</time>
      </trkpt>
      <trkpt lat="44.32345" lon="5.19622">
        <ele>555.2</ele>
        <time>2022-07-19T07:19:17Z</time>
      </trkpt>
      <trkpt lat="44.32346" lon="5.19622">
        <ele>555.4</ele>
        <time>2022-07-19T07:19:18Z</time>
      </trkpt>
      <trkpt lat="44.32348" lon="5.19621">
        <ele>555.5</ele>
        <time>2022-07-19T07:19:19Z</time>
      </trkpt>
      <trkpt lat="44.32349" lon="5.19621">
        <ele>555.9</ele>
        <time>2022-07-19T07:19:20Z</time>
      </trkpt>
      <trkpt lat="44.3235" lon="5.1962">
        <ele>556</ele>
        <time>2022-07-19T07:19:21Z</time>
      </trkpt>
      <trkpt lat="44.32352" lon="5.19621">
        <ele>556.4</ele>
        <time>2022-07-19T07:19:22Z</time>
      </trkpt>
      <trkpt lat="44.32354" lon="5.19622">
        <ele>556.5</ele>
        <time>2022-07-19T07:19:23Z</time>
      </trkpt>
      <trkpt lat="44.32355" lon="5.19623">
        <ele>557</ele>
        <time>2022-07-19T07:19:24Z</time>
      </trkpt>
      <trkpt lat="44.32357" lon="5.19625">
        <ele>557.8</ele>
        <time>2022-07-19T07:19:25Z</time>
      </trkpt>
      <trkpt lat="44.32357" lon="5.19626">
        <ele>557.9</ele>
        <time>2022-07-19T07:19:26Z</time>
      </trkpt>
      <trkpt lat="44.32357" lon="5.19627">
        <ele>558.4</ele>
        <time>2022-07-19T07:19:27Z</time>
      </trkpt>
      <trkpt lat="44.32358" lon="5.19629">
        <ele>559.3</ele>
        <time>2022-07-19T07:19:28Z</time>
      </trkpt>
      <trkpt lat="44.32357" lon="5.1963">
        <ele>559.5</ele>
        <time>2022-07-19T07:19:29Z</time>
      </trkpt>
      <trkpt lat="44.32357" lon="5.1963">
        <ele>559.6</ele>
        <time>2022-07-19T07:19:30Z</time>
      </trkpt>
      <trkpt lat="44.32357" lon="5.19631">
        <ele>559.7</ele>
        <time>2022-07-19T07:19:31Z</time>
      </trkpt>
      <trkpt lat="44.32357" lon="5.19631">
        <ele>559.9</ele>
        <time>2022-07-19T07:19:32Z</time>
      </trkpt>
      <trkpt lat="44.32356" lon="5.19632">
        <ele>559.6</ele>
        <time>2022-07-19T07:19:33Z</time>
      </trkpt>
      <trkpt lat="44.32355" lon="5.19632">
        <ele>559.7</ele>
        <time>2022-07-19T07:19:34Z</time>
      </trkpt>
      <trkpt lat="44.32354" lon="5.19632">
        <ele>559.5</ele>
        <time>2022-07-19T07:19:35Z</time>
      </trkpt>
      <trkpt lat="44.32353" lon="5.19632">
        <ele>559.6</ele>
        <time>2022-07-19T07:19:36Z</time>
      </trkpt>
      <trkpt lat="44.32351" lon="5.19631">
        <ele>559.7</ele>
        <time>2022-07-19T07:19:37Z</time>
      </trkpt>
      <trkpt lat="44.3235" lon="5.19631">
        <ele>559.6</ele>
        <time>2022-07-19T07:19:38Z</time>
      </trkpt>
      <trkpt lat="44.32349" lon="5.19631">
        <ele>559.7</ele>
        <time>2022-07-19T07:19:39Z</time>
      </trkpt>
      <trkpt lat="44.32349" lon="5.19631">
        <ele>559.8</ele>
        <time>2022-07-19T07:19:40Z</time>
      </trkpt>
      <trkpt lat="44.32348" lon="5.1963">
        <ele>560</ele>
        <time>2022-07-19T07:19:41Z</time>
      </trkpt>
      <trkpt lat="44.32348" lon="5.1963">
        <ele>559.8</ele>
        <time>2022-07-19T07:19:42Z</time>
      </trkpt>
      <trkpt lat="44.32346" lon="5.19629">
        <ele>560</ele>
        <time>2022-07-19T07:19:43Z</time>
      </trkpt>
      <trkpt lat="44.32344" lon="5.19629">
        <ele>559.8</ele>
        <time>2022-07-19T07:19:44Z</time>
      </trkpt>
      <trkpt lat="44.32343" lon="5.19629">
        <ele>559.9</ele>
        <time>2022-07-19T07:19:45Z</time>
      </trkpt>
      <trkpt lat="44.32343" lon="5.19629">
        <ele>560</ele>
        <time>2022-07-19T07:19:46Z</time>
      </trkpt>
      <trkpt lat="44.3234" lon="5.19629">
        <ele>559.8</ele>
        <time>2022-07-19T07:19:47Z</time>
      </trkpt>
      <trkpt lat="44.32339" lon="5.19628">
        <ele>559.5</ele>
        <time>2022-07-19T07:19:48Z</time>
      </trkpt>
      <trkpt lat="44.32337" lon="5.19628">
        <ele>559.6</ele>
        <time>2022-07-19T07:19:49Z</time>
      </trkpt>
      <trkpt lat="44.32337" lon="5.19627">
        <ele>559.1</ele>
        <time>2022-07-19T07:19:50Z</time>
      </trkpt>
      <trkpt lat="44.32336" lon="5.19627">
        <ele>559.2</ele>
        <time>2022-07-19T07:19:51Z</time>
      </trkpt>
      <trkpt lat="44.32335" lon="5.19627">
        <ele>558.8</ele>
        <time>2022-07-19T07:19:52Z</time>
      </trkpt>
      <trkpt lat="44.32334" lon="5.19627">
        <ele>559</ele>
        <time>2022-07-19T07:19:53Z</time>
      </trkpt>
      <trkpt lat="44.32333" lon="5.19628">
        <ele>559.8</ele>
        <time>2022-07-19T07:19:54Z</time>
      </trkpt>
      <trkpt lat="44.32332" lon="5.19629">
        <ele>559.4</ele>
        <time>2022-07-19T07:19:55Z</time>
      </trkpt>
      <trkpt lat="44.32332" lon="5.19629">
        <ele>559.6</ele>
        <time>2022-07-19T07:19:56Z</time>
      </trkpt>
      <trkpt lat="44.32332" lon="5.1963">
        <ele>559.7</ele>
        <time>2022-07-19T07:19:57Z</time>
      </trkpt>
      <trkpt lat="44.32331" lon="5.1963">
        <ele>559.8</ele>
        <time>2022-07-19T07:19:58Z</time>
      </trkpt>
      <trkpt lat="44.3233" lon="5.19631">
        <ele>560</ele>
        <time>2022-07-19T07:19:59Z</time>
      </trkpt>
      <trkpt lat="44.32329" lon="5.19631">
        <ele>559.6</ele>
        <time>2022-07-19T07:20:00Z</time>
      </trkpt>
      <trkpt lat="44.32327" lon="5.19631">
        <ele>559.8</ele>
        <time>2022-07-19T07:20:01Z</time>
      </trkpt>
      <trkpt lat="44.32326" lon="5.19632">
        <ele>560</ele>
        <time>2022-07-19T07:20:02Z</time>
      </trkpt>
      <trkpt lat="44.32325" lon="5.19633">
        <ele>560.1</ele>
        <time>2022-07-19T07:20:03Z</time>
      </trkpt>
      <trkpt lat="44.32324" lon="5.19634">
        <ele>560.2</ele>
        <time>2022-07-19T07:20:04Z</time>
      </trkpt>
      <trkpt lat="44.32324" lon="5.19636">
        <ele>560.4</ele>
        <time>2022-07-19T07:20:05Z</time>
      </trkpt>
      <trkpt lat="44.32323" lon="5.19638">
        <ele>560.6</ele>
        <time>2022-07-19T07:20:06Z</time>
      </trkpt>
      <trkpt lat="44.32322" lon="5.1964">
        <ele>560.8</ele>
        <time>2022-07-19T07:20:07Z</time>
      </trkpt>
      <trkpt lat="44.32321" lon="5.19642">
        <ele>561</ele>
        <time>2022-07-19T07:20:08Z</time>
      </trkpt>
      <trkpt lat="44.32318" lon="5.19644">
        <ele>561.4</ele>
        <time>2022-07-19T07:20:09Z</time>
      </trkpt>
      <trkpt lat="44.32317" lon="5.19645">
        <ele>561.5</ele>
        <time>2022-07-19T07:20:10Z</time>
      </trkpt>
      <trkpt lat="44.32315" lon="5.19647">
        <ele>561.7</ele>
        <time>2022-07-19T07:20:11Z</time>
      </trkpt>
      <trkpt lat="44.32315" lon="5.19648">
        <ele>561.8</ele>
        <time>2022-07-19T07:20:12Z</time>
      </trkpt>
      <trkpt lat="44.32314" lon="5.19649">
        <ele>561.9</ele>
        <time>2022-07-19T07:20:13Z</time>
      </trkpt>
      <trkpt lat="44.32313" lon="5.19651">
        <ele>562.2</ele>
        <time>2022-07-19T07:20:14Z</time>
      </trkpt>
      <trkpt lat="44.32312" lon="5.19652">
        <ele>562.3</ele>
        <time>2022-07-19T07:20:15Z</time>
      </trkpt>
      <trkpt lat="44.32312" lon="5.19653">
        <ele>562.4</ele>
        <time>2022-07-19T07:20:16Z</time>
      </trkpt>
      <trkpt lat="44.32311" lon="5.19655">
        <ele>562.6</ele>
        <time>2022-07-19T07:20:17Z</time>
      </trkpt>
      <trkpt lat="44.3231" lon="5.19657">
        <ele>562.7</ele>
        <time>2022-07-19T07:20:18Z</time>
      </trkpt>
      <trkpt lat="44.3231" lon="5.19658">
        <ele>562.8</ele>
        <time>2022-07-19T07:20:19Z</time>
      </trkpt>
      <trkpt lat="44.32309" lon="5.1966">
        <ele>563</ele>
        <time>2022-07-19T07:20:20Z</time>
      </trkpt>
      <trkpt lat="44.32308" lon="5.19662">
        <ele>563.2</ele>
        <time>2022-07-19T07:20:21Z</time>
      </trkpt>
      <trkpt lat="44.32308" lon="5.19665">
        <ele>563.4</ele>
        <time>2022-07-19T07:20:22Z</time>
      </trkpt>
      <trkpt lat="44.32309" lon="5.19669">
        <ele>563.8</ele>
        <time>2022-07-19T07:20:23Z</time>
      </trkpt>
      <trkpt lat="44.32309" lon="5.1967">
        <ele>563.9</ele>
        <time>2022-07-19T07:20:24Z</time>
      </trkpt>
      <trkpt lat="44.32311" lon="5.19673">
        <ele>564.2</ele>
        <time>2022-07-19T07:20:25Z</time>
      </trkpt>
      <trkpt lat="44.32311" lon="5.19674">
        <ele>564.3</ele>
        <time>2022-07-19T07:20:26Z</time>
      </trkpt>
      <trkpt lat="44.32313" lon="5.19675">
        <ele>564.5</ele>
        <time>2022-07-19T07:20:27Z</time>
      </trkpt>
      <trkpt lat="44.32314" lon="5.19676">
        <ele>564.6</ele>
        <time>2022-07-19T07:20:28Z</time>
      </trkpt>
      <trkpt lat="44.32316" lon="5.19676">
        <ele>564.8</ele>
        <time>2022-07-19T07:20:29Z</time>
      </trkpt>
      <trkpt lat="44.32317" lon="5.19676">
        <ele>564.9</ele>
        <time>2022-07-19T07:20:30Z</time>
      </trkpt>
      <trkpt lat="44.32318" lon="5.19677">
        <ele>565.1</ele>
        <time>2022-07-19T07:20:31Z</time>
      </trkpt>
      <trkpt lat="44.32319" lon="5.19677">
        <ele>565.2</ele>
        <time>2022-07-19T07:20:32Z</time>
      </trkpt>
      <trkpt lat="44.3232" lon="5.19677">
        <ele>565.3</ele>
        <time>2022-07-19T07:20:33Z</time>
      </trkpt>
      <trkpt lat="44.32321" lon="5.19677">
        <ele>565.4</ele>
        <time>2022-07-19T07:20:34Z</time>
      </trkpt>
      <trkpt lat="44.32322" lon="5.19677">
        <ele>565.6</ele>
        <time>2022-07-19T07:20:35Z</time>
      </trkpt>
      <trkpt lat="44.32324" lon="5.19677">
        <ele>565.7</ele>
        <time>2022-07-19T07:20:36Z</time>
      </trkpt>
      <trkpt lat="44.32324" lon="5.19677">
        <ele>565.8</ele>
        <time>2022-07-19T07:20:37Z</time>
      </trkpt>
      <trkpt lat="44.32325" lon="5.19676">
        <ele>565.8</ele>
        <time>2022-07-19T07:20:38Z</time>
      </trkpt>
      <trkpt lat="44.32326" lon="5.19675">
        <ele>566</ele>
        <time>2022-07-19T07:20:39Z</time>
      </trkpt>
      <trkpt lat="44.32326" lon="5.19675">
        <ele>566</ele>
        <time>2022-07-19T07:20:40Z</time>
      </trkpt>
      <trkpt lat="44.32327" lon="5.19675">
        <ele>566.1</ele>
        <time>2022-07-19T07:20:41Z</time>
      </trkpt>
      <trkpt lat="44.32328" lon="5.19674">
        <ele>566.2</ele>
        <time>2022-07-19T07:20:42Z</time>
      </trkpt>
      <trkpt lat="44.32328" lon="5.19673">
        <ele>566.3</ele>
        <time>2022-07-19T07:20:43Z</time>
      </trkpt>
      <trkpt lat="44.32329" lon="5.19672">
        <ele>566.4</ele>
        <time>2022-07-19T07:20:44Z</time>
      </trkpt>
      <trkpt lat="44.32331" lon="5.1967">
        <ele>566.7</ele>
        <time>2022-07-19T07:20:45Z</time>
      </trkpt>
      <trkpt lat="44.32331" lon="5.19669">
        <ele>566.8</ele>
        <time>2022-07-19T07:20:46Z</time>
      </trkpt>
      <trkpt lat="44.32332" lon="5.19669">
        <ele>566.8</ele>
        <time>2022-07-19T07:20:47Z</time>
      </trkpt>
      <trkpt lat="44.32333" lon="5.19669">
        <ele>567</ele>
        <time>2022-07-19T07:20:48Z</time>
      </trkpt>
      <trkpt lat="44.32334" lon="5.19668">
        <ele>567.1</ele>
        <time>2022-07-19T07:20:49Z</time>
      </trkpt>
      <trkpt lat="44.32335" lon="5.19668">
        <ele>567.2</ele>
        <time>2022-07-19T07:20:50Z</time>
      </trkpt>
      <trkpt lat="44.32337" lon="5.19669">
        <ele>567.4</ele>
        <time>2022-07-19T07:20:51Z</time>
      </trkpt>
      <trkpt lat="44.32337" lon="5.19669">
        <ele>567.5</ele>
        <time>2022-07-19T07:20:52Z</time>
      </trkpt>
      <trkpt lat="44.32338" lon="5.19669">
        <ele>567.5</ele>
        <time>2022-07-19T07:20:53Z</time>
      </trkpt>
      <trkpt lat="44.32339" lon="5.19669">
        <ele>567.6</ele>
        <time>2022-07-19T07:20:54Z</time>
      </trkpt>
      <trkpt lat="44.32341" lon="5.19669">
        <ele>567.8</ele>
        <time>2022-07-19T07:20:55Z</time>
      </trkpt>
      <trkpt lat="44.32342" lon="5.19669">
        <ele>567.9</ele>
        <time>2022-07-19T07:20:56Z</time>
      </trkpt>
      <trkpt lat="44.32342" lon="5.1967">
        <ele>568</ele>
        <time>2022-07-19T07:20:57Z</time>
      </trkpt>
      <trkpt lat="44.32344" lon="5.19669">
        <ele>568.2</ele>
        <time>2022-07-19T07:20:58Z</time>
      </trkpt>
      <trkpt lat="44.32345" lon="5.19669">
        <ele>568.3</ele>
        <time>2022-07-19T07:20:59Z</time>
      </trkpt>
      <trkpt lat="44.32347" lon="5.19669">
        <ele>568.6</ele>
        <time>2022-07-19T07:21:00Z</time>
      </trkpt>
      <trkpt lat="44.32348" lon="5.19669">
        <ele>568.7</ele>
        <time>2022-07-19T07:21:01Z</time>
      </trkpt>
      <trkpt lat="44.32349" lon="5.19669">
        <ele>568.8</ele>
        <time>2022-07-19T07:21:02Z</time>
      </trkpt>
      <trkpt lat="44.32351" lon="5.1967">
        <ele>569</ele>
        <time>2022-07-19T07:21:03Z</time>
      </trkpt>
      <trkpt lat="44.32352" lon="5.1967">
        <ele>569.1</ele>
        <time>2022-07-19T07:21:04Z</time>
      </trkpt>
      <trkpt lat="44.32353" lon="5.19669">
        <ele>569.3</ele>
        <time>2022-07-19T07:21:05Z</time>
      </trkpt>
      <trkpt lat="44.32355" lon="5.19669">
        <ele>569.4</ele>
        <time>2022-07-19T07:21:06Z</time>
      </trkpt>
      <trkpt lat="44.32356" lon="5.19669">
        <ele>569.5</ele>
        <time>2022-07-19T07:21:07Z</time>
      </trkpt>
      <trkpt lat="44.32357" lon="5.19669">
        <ele>569.6</ele>
        <time>2022-07-19T07:21:08Z</time>
      </trkpt>
      <trkpt lat="44.32358" lon="5.19669">
        <ele>569.7</ele>
        <time>2022-07-19T07:21:09Z</time>
      </trkpt>
      <trkpt lat="44.32359" lon="5.19669">
        <ele>569.9</ele>
        <time>2022-07-19T07:21:10Z</time>
      </trkpt>
      <trkpt lat="44.3236" lon="5.19669">
        <ele>570</ele>
        <time>2022-07-19T07:21:11Z</time>
      </trkpt>
      <trkpt lat="44.32361" lon="5.19668">
        <ele>570.1</ele>
        <time>2022-07-19T07:21:12Z</time>
      </trkpt>
      <trkpt lat="44.32362" lon="5.19668">
        <ele>570.3</ele>
        <time>2022-07-19T07:21:13Z</time>
      </trkpt>
      <trkpt lat="44.32364" lon="5.19668">
        <ele>570.5</ele>
        <time>2022-07-19T07:21:14Z</time>
      </trkpt>
      <trkpt lat="44.32365" lon="5.19667">
        <ele>570.6</ele>
        <time>2022-07-19T07:21:15Z</time>
      </trkpt>
      <trkpt lat="44.32366" lon="5.19667">
        <ele>570.7</ele>
        <time>2022-07-19T07:21:16Z</time>
      </trkpt>
      <trkpt lat="44.32368" lon="5.19666">
        <ele>570.9</ele>
        <time>2022-07-19T07:21:17Z</time>
      </trkpt>
      <trkpt lat="44.32369" lon="5.19666">
        <ele>571</ele>
        <time>2022-07-19T07:21:18Z</time>
      </trkpt>
      <trkpt lat="44.3237" lon="5.19665">
        <ele>571.1</ele>
        <time>2022-07-19T07:21:19Z</time>
      </trkpt>
      <trkpt lat="44.32372" lon="5.19666">
        <ele>571.3</ele>
        <time>2022-07-19T07:21:20Z</time>
      </trkpt>
      <trkpt lat="44.32373" lon="5.19666">
        <ele>571.5</ele>
        <time>2022-07-19T07:21:21Z</time>
      </trkpt>
      <trkpt lat="44.32374" lon="5.19666">
        <ele>571.6</ele>
        <time>2022-07-19T07:21:22Z</time>
      </trkpt>
      <trkpt lat="44.32375" lon="5.19665">
        <ele>571.7</ele>
        <time>2022-07-19T07:21:23Z</time>
      </trkpt>
      <trkpt lat="44.32377" lon="5.19665">
        <ele>571.9</ele>
        <time>2022-07-19T07:21:24Z</time>
      </trkpt>
      <trkpt lat="44.32378" lon="5.19665">
        <ele>572.1</ele>
        <time>2022-07-19T07:21:25Z</time>
      </trkpt>
      <trkpt lat="44.3238" lon="5.19665">
        <ele>572.3</ele>
        <time>2022-07-19T07:21:26Z</time>
      </trkpt>
      <trkpt lat="44.32382" lon="5.19665">
        <ele>572.5</ele>
        <time>2022-07-19T07:21:27Z</time>
      </trkpt>
      <trkpt lat="44.32383" lon="5.19665">
        <ele>572.6</ele>
        <time>2022-07-19T07:21:28Z</time>
      </trkpt>
      <trkpt lat="44.32384" lon="5.19665">
        <ele>572.7</ele>
        <time>2022-07-19T07:21:29Z</time>
      </trkpt>
      <trkpt lat="44.32385" lon="5.19665">
        <ele>572.8</ele>
        <time>2022-07-19T07:21:30Z</time>
      </trkpt>
      <trkpt lat="44.32386" lon="5.19666">
        <ele>572.9</ele>
        <time>2022-07-19T07:21:31Z</time>
      </trkpt>
      <trkpt lat="44.32387" lon="5.19666">
        <ele>573</ele>
        <time>2022-07-19T07:21:32Z</time>
      </trkpt>
      <trkpt lat="44.32389" lon="5.19666">
        <ele>573.3</ele>
        <time>2022-07-19T07:21:33Z</time>
      </trkpt>
      <trkpt lat="44.3239" lon="5.19666">
        <ele>573.4</ele>
        <time>2022-07-19T07:21:34Z</time>
      </trkpt>
      <trkpt lat="44.32391" lon="5.19666">
        <ele>573.5</ele>
        <time>2022-07-19T07:21:35Z</time>
      </trkpt>
      <trkpt lat="44.32392" lon="5.19665">
        <ele>573.6</ele>
        <time>2022-07-19T07:21:36Z</time>
      </trkpt>
      <trkpt lat="44.32394" lon="5.19664">
        <ele>573.8</ele>
        <time>2022-07-19T07:21:37Z</time>
      </trkpt>
      <trkpt lat="44.32395" lon="5.19663">
        <ele>574</ele>
        <time>2022-07-19T07:21:38Z</time>
      </trkpt>
      <trkpt lat="44.32396" lon="5.19662">
        <ele>574.2</ele>
        <time>2022-07-19T07:21:39Z</time>
      </trkpt>
      <trkpt lat="44.32397" lon="5.19662">
        <ele>574.2</ele>
        <time>2022-07-19T07:21:40Z</time>
      </trkpt>
      <trkpt lat="44.32398" lon="5.19661">
        <ele>574.4</ele>
        <time>2022-07-19T07:21:41Z</time>
      </trkpt>
      <trkpt lat="44.32399" lon="5.1966">
        <ele>574.5</ele>
        <time>2022-07-19T07:21:42Z</time>
      </trkpt>
      <trkpt lat="44.324" lon="5.19659">
        <ele>574.6</ele>
        <time>2022-07-19T07:21:43Z</time>
      </trkpt>
      <trkpt lat="44.32402" lon="5.19659">
        <ele>574.9</ele>
        <time>2022-07-19T07:21:44Z</time>
      </trkpt>
      <trkpt lat="44.32403" lon="5.19658">
        <ele>574.9</ele>
        <time>2022-07-19T07:21:45Z</time>
      </trkpt>
      <trkpt lat="44.32403" lon="5.19658">
        <ele>575</ele>
        <time>2022-07-19T07:21:46Z</time>
      </trkpt>
      <trkpt lat="44.32406" lon="5.19657">
        <ele>575.3</ele>
        <time>2022-07-19T07:21:47Z</time>
      </trkpt>
      <trkpt lat="44.32407" lon="5.19657">
        <ele>575.4</ele>
        <time>2022-07-19T07:21:48Z</time>
      </trkpt>
      <trkpt lat="44.32408" lon="5.19656">
        <ele>575.5</ele>
        <time>2022-07-19T07:21:49Z</time>
      </trkpt>
      <trkpt lat="44.3241" lon="5.19656">
        <ele>575.8</ele>
        <time>2022-07-19T07:21:50Z</time>
      </trkpt>
      <trkpt lat="44.32411" lon="5.19655">
        <ele>575.9</ele>
        <time>2022-07-19T07:21:51Z</time>
      </trkpt>
      <trkpt lat="44.32413" lon="5.19655">
        <ele>576.2</ele>
        <time>2022-07-19T07:21:52Z</time>
      </trkpt>
      <trkpt lat="44.32414" lon="5.19654">
        <ele>576.3</ele>
        <time>2022-07-19T07:21:53Z</time>
      </trkpt>
      <trkpt lat="44.32415" lon="5.19654">
        <ele>576.4</ele>
        <time>2022-07-19T07:21:54Z</time>
      </trkpt>
      <trkpt lat="44.32416" lon="5.19654">
        <ele>576.5</ele>
        <time>2022-07-19T07:21:55Z</time>
      </trkpt>
      <trkpt lat="44.32418" lon="5.19653">
        <ele>576.7</ele>
        <time>2022-07-19T07:21:56Z</time>
      </trkpt>
      <trkpt lat="44.32419" lon="5.19653">
        <ele>576.9</ele>
        <time>2022-07-19T07:21:57Z</time>
      </trkpt>
      <trkpt lat="44.32421" lon="5.19653">
        <ele>577.1</ele>
        <time>2022-07-19T07:21:58Z</time>
      </trkpt>
      <trkpt lat="44.32422" lon="5.19652">
        <ele>577.2</ele>
        <time>2022-07-19T07:21:59Z</time>
      </trkpt>
      <trkpt lat="44.32423" lon="5.19652">
        <ele>577.3</ele>
        <time>2022-07-19T07:22:00Z</time>
      </trkpt>
      <trkpt lat="44.32424" lon="5.19652">
        <ele>577.4</ele>
        <time>2022-07-19T07:22:01Z</time>
      </trkpt>
      <trkpt lat="44.32425" lon="5.19652">
        <ele>577.6</ele>
        <time>2022-07-19T07:22:02Z</time>
      </trkpt>
      <trkpt lat="44.32426" lon="5.19652">
        <ele>577.7</ele>
        <time>2022-07-19T07:22:03Z</time>
      </trkpt>
      <trkpt lat="44.32427" lon="5.19652">
        <ele>577.8</ele>
        <time>2022-07-19T07:22:04Z</time>
      </trkpt>
      <trkpt lat="44.32429" lon="5.19653">
        <ele>578</ele>
        <time>2022-07-19T07:22:05Z</time>
      </trkpt>
      <trkpt lat="44.3243" lon="5.19653">
        <ele>578.1</ele>
        <time>2022-07-19T07:22:06Z</time>
      </trkpt>
      <trkpt lat="44.32431" lon="5.19654">
        <ele>578.2</ele>
        <time>2022-07-19T07:22:07Z</time>
      </trkpt>
      <trkpt lat="44.32433" lon="5.19655">
        <ele>578.4</ele>
        <time>2022-07-19T07:22:08Z</time>
      </trkpt>
      <trkpt lat="44.32434" lon="5.19655">
        <ele>578.5</ele>
        <time>2022-07-19T07:22:09Z</time>
      </trkpt>
      <trkpt lat="44.32434" lon="5.19655">
        <ele>578.6</ele>
        <time>2022-07-19T07:22:10Z</time>
      </trkpt>
      <trkpt lat="44.32436" lon="5.19656">
        <ele>578.8</ele>
        <time>2022-07-19T07:22:11Z</time>
      </trkpt>
      <trkpt lat="44.32437" lon="5.19657">
        <ele>578.9</ele>
        <time>2022-07-19T07:22:12Z</time>
      </trkpt>
      <trkpt lat="44.32439" lon="5.19658">
        <ele>579.2</ele>
        <time>2022-07-19T07:22:13Z</time>
      </trkpt>
      <trkpt lat="44.3244" lon="5.19659">
        <ele>579.3</ele>
        <time>2022-07-19T07:22:14Z</time>
      </trkpt>
      <trkpt lat="44.32441" lon="5.19659">
        <ele>579.4</ele>
        <time>2022-07-19T07:22:15Z</time>
      </trkpt>
      <trkpt lat="44.32443" lon="5.19659">
        <ele>579.6</ele>
        <time>2022-07-19T07:22:16Z</time>
      </trkpt>
      <trkpt lat="44.32444" lon="5.19659">
        <ele>579.7</ele>
        <time>2022-07-19T07:22:17Z</time>
      </trkpt>
      <trkpt lat="44.32445" lon="5.19659">
        <ele>579.9</ele>
        <time>2022-07-19T07:22:18Z</time>
      </trkpt>
      <trkpt lat="44.32447" lon="5.19659">
        <ele>580.1</ele>
        <time>2022-07-19T07:22:19Z</time>
      </trkpt>
      <trkpt lat="44.32448" lon="5.19659">
        <ele>580.2</ele>
        <time>2022-07-19T07:22:20Z</time>
      </trkpt>
      <trkpt lat="44.32449" lon="5.19659">
        <ele>580.3</ele>
        <time>2022-07-19T07:22:21Z</time>
      </trkpt>
      <trkpt lat="44.3245" lon="5.1966">
        <ele>580.4</ele>
        <time>2022-07-19T07:22:22Z</time>
      </trkpt>
      <trkpt lat="44.32451" lon="5.1966">
        <ele>580.5</ele>
        <time>2022-07-19T07:22:23Z</time>
      </trkpt>
      <trkpt lat="44.32452" lon="5.1966">
        <ele>580.6</ele>
        <time>2022-07-19T07:22:24Z</time>
      </trkpt>
      <trkpt lat="44.32454" lon="5.19659">
        <ele>580.8</ele>
        <time>2022-07-19T07:22:25Z</time>
      </trkpt>
      <trkpt lat="44.32455" lon="5.19658">
        <ele>581</ele>
        <time>2022-07-19T07:22:26Z</time>
      </trkpt>
      <trkpt lat="44.32456" lon="5.19657">
        <ele>581.1</ele>
        <time>2022-07-19T07:22:27Z</time>
      </trkpt>
      <trkpt lat="44.32457" lon="5.19656">
        <ele>581.3</ele>
        <time>2022-07-19T07:22:28Z</time>
      </trkpt>
      <trkpt lat="44.32459" lon="5.19655">
        <ele>581.5</ele>
        <time>2022-07-19T07:22:29Z</time>
      </trkpt>
      <trkpt lat="44.3246" lon="5.19654">
        <ele>581.6</ele>
        <time>2022-07-19T07:22:30Z</time>
      </trkpt>
      <trkpt lat="44.32461" lon="5.19652">
        <ele>581.8</ele>
        <time>2022-07-19T07:22:31Z</time>
      </trkpt>
      <trkpt lat="44.32464" lon="5.1965">
        <ele>582.1</ele>
        <time>2022-07-19T07:22:32Z</time>
      </trkpt>
      <trkpt lat="44.32464" lon="5.1965">
        <ele>582.2</ele>
        <time>2022-07-19T07:22:33Z</time>
      </trkpt>
      <trkpt lat="44.32466" lon="5.19649">
        <ele>582.4</ele>
        <time>2022-07-19T07:22:34Z</time>
      </trkpt>
      <trkpt lat="44.32468" lon="5.19649">
        <ele>582.6</ele>
        <time>2022-07-19T07:22:35Z</time>
      </trkpt>
      <trkpt lat="44.3247" lon="5.19649">
        <ele>582.8</ele>
        <time>2022-07-19T07:22:36Z</time>
      </trkpt>
      <trkpt lat="44.3247" lon="5.1965">
        <ele>582.9</ele>
        <time>2022-07-19T07:22:37Z</time>
      </trkpt>
      <trkpt lat="44.32471" lon="5.1965">
        <ele>583</ele>
        <time>2022-07-19T07:22:38Z</time>
      </trkpt>
      <trkpt lat="44.32473" lon="5.19651">
        <ele>583.2</ele>
        <time>2022-07-19T07:22:39Z</time>
      </trkpt>
      <trkpt lat="44.32474" lon="5.19652">
        <ele>583.3</ele>
        <time>2022-07-19T07:22:40Z</time>
      </trkpt>
      <trkpt lat="44.32475" lon="5.19653">
        <ele>583.5</ele>
        <time>2022-07-19T07:22:41Z</time>
      </trkpt>
      <trkpt lat="44.32476" lon="5.19654">
        <ele>583.7</ele>
        <time>2022-07-19T07:22:42Z</time>
      </trkpt>
      <trkpt lat="44.32477" lon="5.19657">
        <ele>583.9</ele>
        <time>2022-07-19T07:22:43Z</time>
      </trkpt>
      <trkpt lat="44.32477" lon="5.19658">
        <ele>584</ele>
        <time>2022-07-19T07:22:44Z</time>
      </trkpt>
      <trkpt lat="44.32477" lon="5.19659">
        <ele>584.1</ele>
        <time>2022-07-19T07:22:45Z</time>
      </trkpt>
      <trkpt lat="44.32478" lon="5.19661">
        <ele>584.2</ele>
        <time>2022-07-19T07:22:46Z</time>
      </trkpt>
      <trkpt lat="44.32478" lon="5.19662">
        <ele>584.3</ele>
        <time>2022-07-19T07:22:47Z</time>
      </trkpt>
      <trkpt lat="44.32478" lon="5.19664">
        <ele>584.5</ele>
        <time>2022-07-19T07:22:48Z</time>
      </trkpt>
      <trkpt lat="44.32478" lon="5.19665">
        <ele>584.6</ele>
        <time>2022-07-19T07:22:49Z</time>
      </trkpt>
      <trkpt lat="44.32478" lon="5.19667">
        <ele>584.7</ele>
        <time>2022-07-19T07:22:50Z</time>
      </trkpt>
      <trkpt lat="44.32478" lon="5.19668">
        <ele>584.8</ele>
        <time>2022-07-19T07:22:51Z</time>
      </trkpt>
      <trkpt lat="44.32478" lon="5.1967">
        <ele>585</ele>
        <time>2022-07-19T07:22:52Z</time>
      </trkpt>
      <trkpt lat="44.32478" lon="5.19672">
        <ele>585.2</ele>
        <time>2022-07-19T07:22:53Z</time>
      </trkpt>
      <trkpt lat="44.32478" lon="5.19674">
        <ele>585.3</ele>
        <time>2022-07-19T07:22:54Z</time>
      </trkpt>
      <trkpt lat="44.32477" lon="5.19676">
        <ele>585.5</ele>
        <time>2022-07-19T07:22:55Z</time>
      </trkpt>
      <trkpt lat="44.32477" lon="5.19677">
        <ele>585.5</ele>
        <time>2022-07-19T07:22:56Z</time>
      </trkpt>
      <trkpt lat="44.32477" lon="5.19677">
        <ele>585.6</ele>
        <time>2022-07-19T07:22:57Z</time>
      </trkpt>
      <trkpt lat="44.32477" lon="5.19678">
        <ele>585.6</ele>
        <time>2022-07-19T07:22:58Z</time>
      </trkpt>
      <trkpt lat="44.32477" lon="5.19679">
        <ele>585.7</ele>
        <time>2022-07-19T07:22:59Z</time>
      </trkpt>
      <trkpt lat="44.32476" lon="5.1968">
        <ele>585.8</ele>
        <time>2022-07-19T07:23:00Z</time>
      </trkpt>
      <trkpt lat="44.32475" lon="5.1968">
        <ele>586</ele>
        <time>2022-07-19T07:23:01Z</time>
      </trkpt>
      <trkpt lat="44.32473" lon="5.1968">
        <ele>586.2</ele>
        <time>2022-07-19T07:23:02Z</time>
      </trkpt>
      <trkpt lat="44.32471" lon="5.19679">
        <ele>586.4</ele>
        <time>2022-07-19T07:23:03Z</time>
      </trkpt>
      <trkpt lat="44.3247" lon="5.19678">
        <ele>586.6</ele>
        <time>2022-07-19T07:23:04Z</time>
      </trkpt>
      <trkpt lat="44.32468" lon="5.19677">
        <ele>586.8</ele>
        <time>2022-07-19T07:23:05Z</time>
      </trkpt>
      <trkpt lat="44.32467" lon="5.19677">
        <ele>586.9</ele>
        <time>2022-07-19T07:23:06Z</time>
      </trkpt>
      <trkpt lat="44.32465" lon="5.19676">
        <ele>587.1</ele>
        <time>2022-07-19T07:23:07Z</time>
      </trkpt>
      <trkpt lat="44.32464" lon="5.19676">
        <ele>587.2</ele>
        <time>2022-07-19T07:23:08Z</time>
      </trkpt>
      <trkpt lat="44.32463" lon="5.19675">
        <ele>587.4</ele>
        <time>2022-07-19T07:23:09Z</time>
      </trkpt>
      <trkpt lat="44.32462" lon="5.19674">
        <ele>587.5</ele>
        <time>2022-07-19T07:23:10Z</time>
      </trkpt>
      <trkpt lat="44.32461" lon="5.19674">
        <ele>587.7</ele>
        <time>2022-07-19T07:23:11Z</time>
      </trkpt>
      <trkpt lat="44.32459" lon="5.19674">
        <ele>587.9</ele>
        <time>2022-07-19T07:23:12Z</time>
      </trkpt>
      <trkpt lat="44.32458" lon="5.19674">
        <ele>588</ele>
        <time>2022-07-19T07:23:13Z</time>
      </trkpt>
      <trkpt lat="44.32457" lon="5.19674">
        <ele>588.1</ele>
        <time>2022-07-19T07:23:14Z</time>
      </trkpt>
      <trkpt lat="44.32455" lon="5.19674">
        <ele>588.3</ele>
        <time>2022-07-19T07:23:15Z</time>
      </trkpt>
      <trkpt lat="44.32453" lon="5.19674">
        <ele>588.5</ele>
        <time>2022-07-19T07:23:16Z</time>
      </trkpt>
      <trkpt lat="44.32452" lon="5.19674">
        <ele>588.7</ele>
        <time>2022-07-19T07:23:17Z</time>
      </trkpt>
      <trkpt lat="44.3245" lon="5.19674">
        <ele>588.8</ele>
        <time>2022-07-19T07:23:18Z</time>
      </trkpt>
      <trkpt lat="44.32448" lon="5.19674">
        <ele>589</ele>
        <time>2022-07-19T07:23:19Z</time>
      </trkpt>
      <trkpt lat="44.32447" lon="5.19674">
        <ele>589.1</ele>
        <time>2022-07-19T07:23:20Z</time>
      </trkpt>
      <trkpt lat="44.32447" lon="5.19674">
        <ele>589.2</ele>
        <time>2022-07-19T07:23:21Z</time>
      </trkpt>
      <trkpt lat="44.32445" lon="5.19675">
        <ele>589.4</ele>
        <time>2022-07-19T07:23:22Z</time>
      </trkpt>
      <trkpt lat="44.32444" lon="5.19675">
        <ele>589.5</ele>
        <time>2022-07-19T07:23:23Z</time>
      </trkpt>
      <trkpt lat="44.32444" lon="5.19675">
        <ele>589.6</ele>
        <time>2022-07-19T07:23:24Z</time>
      </trkpt>
      <trkpt lat="44.32443" lon="5.19675">
        <ele>589.7</ele>
        <time>2022-07-19T07:23:25Z</time>
      </trkpt>
      <trkpt lat="44.32442" lon="5.19674">
        <ele>589.7</ele>
        <time>2022-07-19T07:23:26Z</time>
      </trkpt>
      <trkpt lat="44.32441" lon="5.19674">
        <ele>589.8</ele>
        <time>2022-07-19T07:23:27Z</time>
      </trkpt>
      <trkpt lat="44.3244" lon="5.19675">
        <ele>590</ele>
        <time>2022-07-19T07:23:28Z</time>
      </trkpt>
      <trkpt lat="44.32439" lon="5.19676">
        <ele>590.1</ele>
        <time>2022-07-19T07:23:29Z</time>
      </trkpt>
      <trkpt lat="44.32438" lon="5.19676">
        <ele>590.2</ele>
        <time>2022-07-19T07:23:30Z</time>
      </trkpt>
      <trkpt lat="44.32438" lon="5.19677">
        <ele>590.3</ele>
        <time>2022-07-19T07:23:31Z</time>
      </trkpt>
      <trkpt lat="44.32437" lon="5.19677">
        <ele>590.4</ele>
        <time>2022-07-19T07:23:32Z</time>
      </trkpt>
      <trkpt lat="44.32436" lon="5.19677">
        <ele>590.4</ele>
        <time>2022-07-19T07:23:33Z</time>
      </trkpt>
      <trkpt lat="44.32436" lon="5.19677">
        <ele>590.5</ele>
        <time>2022-07-19T07:23:34Z</time>
      </trkpt>
      <trkpt lat="44.32435" lon="5.19677">
        <ele>590.5</ele>
        <time>2022-07-19T07:23:35Z</time>
      </trkpt>
      <trkpt lat="44.32435" lon="5.19677">
        <ele>590.6</ele>
        <time>2022-07-19T07:23:36Z</time>
      </trkpt>
      <trkpt lat="44.32434" lon="5.19678">
        <ele>590.7</ele>
        <time>2022-07-19T07:23:37Z</time>
      </trkpt>
      <trkpt lat="44.32433" lon="5.19678">
        <ele>590.8</ele>
        <time>2022-07-19T07:23:38Z</time>
      </trkpt>
      <trkpt lat="44.32432" lon="5.19678">
        <ele>590.9</ele>
        <time>2022-07-19T07:23:39Z</time>
      </trkpt>
      <trkpt lat="44.32432" lon="5.19678">
        <ele>591</ele>
        <time>2022-07-19T07:23:40Z</time>
      </trkpt>
      <trkpt lat="44.32431" lon="5.19678">
        <ele>591</ele>
        <time>2022-07-19T07:23:41Z</time>
      </trkpt>
      <trkpt lat="44.32431" lon="5.19679">
        <ele>591.1</ele>
        <time>2022-07-19T07:23:42Z</time>
      </trkpt>
      <trkpt lat="44.3243" lon="5.1968">
        <ele>591.2</ele>
        <time>2022-07-19T07:23:43Z</time>
      </trkpt>
      <trkpt lat="44.32429" lon="5.19681">
        <ele>591.3</ele>
        <time>2022-07-19T07:23:44Z</time>
      </trkpt>
      <trkpt lat="44.32428" lon="5.19681">
        <ele>591.4</ele>
        <time>2022-07-19T07:23:45Z</time>
      </trkpt>
      <trkpt lat="44.32427" lon="5.19682">
        <ele>591.6</ele>
        <time>2022-07-19T07:23:46Z</time>
      </trkpt>
      <trkpt lat="44.32426" lon="5.19683">
        <ele>591.7</ele>
        <time>2022-07-19T07:23:47Z</time>
      </trkpt>
      <trkpt lat="44.32425" lon="5.19684">
        <ele>591.8</ele>
        <time>2022-07-19T07:23:48Z</time>
      </trkpt>
      <trkpt lat="44.32424" lon="5.19685">
        <ele>591.9</ele>
        <time>2022-07-19T07:23:49Z</time>
      </trkpt>
      <trkpt lat="44.32424" lon="5.19685">
        <ele>592</ele>
        <time>2022-07-19T07:23:50Z</time>
      </trkpt>
      <trkpt lat="44.32423" lon="5.19686">
        <ele>592.1</ele>
        <time>2022-07-19T07:23:51Z</time>
      </trkpt>
      <trkpt lat="44.32422" lon="5.19687">
        <ele>592.3</ele>
        <time>2022-07-19T07:23:52Z</time>
      </trkpt>
      <trkpt lat="44.32421" lon="5.19688">
        <ele>592.4</ele>
        <time>2022-07-19T07:23:53Z</time>
      </trkpt>
      <trkpt lat="44.32419" lon="5.19689">
        <ele>592.6</ele>
        <time>2022-07-19T07:23:54Z</time>
      </trkpt>
      <trkpt lat="44.32418" lon="5.19689">
        <ele>592.7</ele>
        <time>2022-07-19T07:23:55Z</time>
      </trkpt>
      <trkpt lat="44.32418" lon="5.1969">
        <ele>592.8</ele>
        <time>2022-07-19T07:23:56Z</time>
      </trkpt>
      <trkpt lat="44.32417" lon="5.19692">
        <ele>593</ele>
        <time>2022-07-19T07:23:57Z</time>
      </trkpt>
      <trkpt lat="44.32416" lon="5.19693">
        <ele>593.1</ele>
        <time>2022-07-19T07:23:58Z</time>
      </trkpt>
      <trkpt lat="44.32415" lon="5.19694">
        <ele>593.2</ele>
        <time>2022-07-19T07:23:59Z</time>
      </trkpt>
      <trkpt lat="44.32414" lon="5.19696">
        <ele>593.4</ele>
        <time>2022-07-19T07:24:00Z</time>
      </trkpt>
      <trkpt lat="44.32414" lon="5.19697">
        <ele>593.6</ele>
        <time>2022-07-19T07:24:01Z</time>
      </trkpt>
      <trkpt lat="44.32413" lon="5.19698">
        <ele>593.7</ele>
        <time>2022-07-19T07:24:02Z</time>
      </trkpt>
      <trkpt lat="44.32413" lon="5.197">
        <ele>593.8</ele>
        <time>2022-07-19T07:24:03Z</time>
      </trkpt>
      <trkpt lat="44.32412" lon="5.19701">
        <ele>593.9</ele>
        <time>2022-07-19T07:24:04Z</time>
      </trkpt>
      <trkpt lat="44.32412" lon="5.19703">
        <ele>594</ele>
        <time>2022-07-19T07:24:05Z</time>
      </trkpt>
      <trkpt lat="44.32411" lon="5.19704">
        <ele>594.2</ele>
        <time>2022-07-19T07:24:06Z</time>
      </trkpt>
      <trkpt lat="44.3241" lon="5.19706">
        <ele>594.4</ele>
        <time>2022-07-19T07:24:07Z</time>
      </trkpt>
      <trkpt lat="44.32409" lon="5.19708">
        <ele>594.5</ele>
        <time>2022-07-19T07:24:08Z</time>
      </trkpt>
      <trkpt lat="44.32408" lon="5.19709">
        <ele>594.7</ele>
        <time>2022-07-19T07:24:09Z</time>
      </trkpt>
      <trkpt lat="44.32407" lon="5.19709">
        <ele>594.8</ele>
        <time>2022-07-19T07:24:10Z</time>
      </trkpt>
      <trkpt lat="44.32406" lon="5.1971">
        <ele>594.9</ele>
        <time>2022-07-19T07:24:11Z</time>
      </trkpt>
      <trkpt lat="44.32405" lon="5.19711">
        <ele>595</ele>
        <time>2022-07-19T07:24:12Z</time>
      </trkpt>
      <trkpt lat="44.32404" lon="5.19711">
        <ele>595.2</ele>
        <time>2022-07-19T07:24:13Z</time>
      </trkpt>
      <trkpt lat="44.32403" lon="5.19711">
        <ele>595.3</ele>
        <time>2022-07-19T07:24:14Z</time>
      </trkpt>
      <trkpt lat="44.32401" lon="5.19711">
        <ele>595.5</ele>
        <time>2022-07-19T07:24:15Z</time>
      </trkpt>
      <trkpt lat="44.324" lon="5.1971">
        <ele>595.7</ele>
        <time>2022-07-19T07:24:16Z</time>
      </trkpt>
      <trkpt lat="44.32398" lon="5.1971">
        <ele>595.8</ele>
        <time>2022-07-19T07:24:17Z</time>
      </trkpt>
      <trkpt lat="44.32397" lon="5.19711">
        <ele>596</ele>
        <time>2022-07-19T07:24:18Z</time>
      </trkpt>
      <trkpt lat="44.32395" lon="5.19712">
        <ele>596.2</ele>
        <time>2022-07-19T07:24:19Z</time>
      </trkpt>
      <trkpt lat="44.32394" lon="5.19714">
        <ele>596.4</ele>
        <time>2022-07-19T07:24:20Z</time>
      </trkpt>
      <trkpt lat="44.32394" lon="5.19718">
        <ele>596.7</ele>
        <time>2022-07-19T07:24:21Z</time>
      </trkpt>
      <trkpt lat="44.32394" lon="5.19719">
        <ele>596.7</ele>
        <time>2022-07-19T07:24:22Z</time>
      </trkpt>
      <trkpt lat="44.32394" lon="5.19722">
        <ele>596.8</ele>
        <time>2022-07-19T07:24:23Z</time>
      </trkpt>
      <trkpt lat="44.32394" lon="5.19724">
        <ele>598.6</ele>
        <time>2022-07-19T07:24:24Z</time>
      </trkpt>
      <trkpt lat="44.32395" lon="5.19725">
        <ele>599.4</ele>
        <time>2022-07-19T07:24:25Z</time>
      </trkpt>
      <trkpt lat="44.32396" lon="5.19727">
        <ele>601.2</ele>
        <time>2022-07-19T07:24:26Z</time>
      </trkpt>
      <trkpt lat="44.32397" lon="5.19728">
        <ele>602</ele>
        <time>2022-07-19T07:24:27Z</time>
      </trkpt>
      <trkpt lat="44.32398" lon="5.19729">
        <ele>602.1</ele>
        <time>2022-07-19T07:24:28Z</time>
      </trkpt>
      <trkpt lat="44.324" lon="5.1973">
        <ele>602.1</ele>
        <time>2022-07-19T07:24:29Z</time>
      </trkpt>
      <trkpt lat="44.32401" lon="5.19731">
        <ele>602.9</ele>
        <time>2022-07-19T07:24:30Z</time>
      </trkpt>
      <trkpt lat="44.32402" lon="5.19731">
        <ele>604.6</ele>
        <time>2022-07-19T07:24:31Z</time>
      </trkpt>
      <trkpt lat="44.32403" lon="5.1973">
        <ele>603</ele>
        <time>2022-07-19T07:24:32Z</time>
      </trkpt>
      <trkpt lat="44.32403" lon="5.1973">
        <ele>603.8</ele>
        <time>2022-07-19T07:24:33Z</time>
      </trkpt>
      <trkpt lat="44.32404" lon="5.1973">
        <ele>603.8</ele>
        <time>2022-07-19T07:24:34Z</time>
      </trkpt>
      <trkpt lat="44.32405" lon="5.19731">
        <ele>605.5</ele>
        <time>2022-07-19T07:24:35Z</time>
      </trkpt>
      <trkpt lat="44.32406" lon="5.19732">
        <ele>605.6</ele>
        <time>2022-07-19T07:24:36Z</time>
      </trkpt>
      <trkpt lat="44.32407" lon="5.19733">
        <ele>606.4</ele>
        <time>2022-07-19T07:24:37Z</time>
      </trkpt>
      <trkpt lat="44.32408" lon="5.19733">
        <ele>606.4</ele>
        <time>2022-07-19T07:24:38Z</time>
      </trkpt>
      <trkpt lat="44.32409" lon="5.19733">
        <ele>606.5</ele>
        <time>2022-07-19T07:24:39Z</time>
      </trkpt>
      <trkpt lat="44.3241" lon="5.19733">
        <ele>607.3</ele>
        <time>2022-07-19T07:24:40Z</time>
      </trkpt>
      <trkpt lat="44.3241" lon="5.19733">
        <ele>607.3</ele>
        <time>2022-07-19T07:24:41Z</time>
      </trkpt>
      <trkpt lat="44.3241" lon="5.19734">
        <ele>607.4</ele>
        <time>2022-07-19T07:24:42Z</time>
      </trkpt>
      <trkpt lat="44.32411" lon="5.19735">
        <ele>607.4</ele>
        <time>2022-07-19T07:24:43Z</time>
      </trkpt>
      <trkpt lat="44.32411" lon="5.19736">
        <ele>609.1</ele>
        <time>2022-07-19T07:24:44Z</time>
      </trkpt>
      <trkpt lat="44.32412" lon="5.19737">
        <ele>609.1</ele>
        <time>2022-07-19T07:24:45Z</time>
      </trkpt>
      <trkpt lat="44.32413" lon="5.19738">
        <ele>610</ele>
        <time>2022-07-19T07:24:46Z</time>
      </trkpt>
      <trkpt lat="44.32414" lon="5.19738">
        <ele>610</ele>
        <time>2022-07-19T07:24:47Z</time>
      </trkpt>
      <trkpt lat="44.32414" lon="5.19738">
        <ele>610.1</ele>
        <time>2022-07-19T07:24:48Z</time>
      </trkpt>
      <trkpt lat="44.32415" lon="5.19737">
        <ele>610.1</ele>
        <time>2022-07-19T07:24:49Z</time>
      </trkpt>
      <trkpt lat="44.32416" lon="5.19737">
        <ele>611</ele>
        <time>2022-07-19T07:24:50Z</time>
      </trkpt>
      <trkpt lat="44.32417" lon="5.19736">
        <ele>611</ele>
        <time>2022-07-19T07:24:51Z</time>
      </trkpt>
      <trkpt lat="44.32419" lon="5.19735">
        <ele>611.9</ele>
        <time>2022-07-19T07:24:52Z</time>
      </trkpt>
      <trkpt lat="44.3242" lon="5.19735">
        <ele>610.3</ele>
        <time>2022-07-19T07:24:53Z</time>
      </trkpt>
      <trkpt lat="44.32421" lon="5.19734">
        <ele>610.4</ele>
        <time>2022-07-19T07:24:54Z</time>
      </trkpt>
      <trkpt lat="44.32423" lon="5.19734">
        <ele>611.2</ele>
        <time>2022-07-19T07:24:55Z</time>
      </trkpt>
      <trkpt lat="44.32425" lon="5.19733">
        <ele>611.3</ele>
        <time>2022-07-19T07:24:56Z</time>
      </trkpt>
      <trkpt lat="44.32426" lon="5.19732">
        <ele>612.1</ele>
        <time>2022-07-19T07:24:57Z</time>
      </trkpt>
      <trkpt lat="44.32427" lon="5.19731">
        <ele>612.1</ele>
        <time>2022-07-19T07:24:58Z</time>
      </trkpt>
      <trkpt lat="44.32428" lon="5.1973">
        <ele>611.2</ele>
        <time>2022-07-19T07:24:59Z</time>
      </trkpt>
      <trkpt lat="44.3243" lon="5.19729">
        <ele>611.3</ele>
        <time>2022-07-19T07:25:00Z</time>
      </trkpt>
      <trkpt lat="44.32431" lon="5.19729">
        <ele>611.3</ele>
        <time>2022-07-19T07:25:01Z</time>
      </trkpt>
      <trkpt lat="44.32432" lon="5.19729">
        <ele>612.1</ele>
        <time>2022-07-19T07:25:02Z</time>
      </trkpt>
      <trkpt lat="44.32434" lon="5.19729">
        <ele>612.1</ele>
        <time>2022-07-19T07:25:03Z</time>
      </trkpt>
      <trkpt lat="44.32434" lon="5.19729">
        <ele>612.8</ele>
        <time>2022-07-19T07:25:04Z</time>
      </trkpt>
      <trkpt lat="44.32435" lon="5.1973">
        <ele>612.9</ele>
        <time>2022-07-19T07:25:05Z</time>
      </trkpt>
      <trkpt lat="44.32435" lon="5.1973">
        <ele>612.9</ele>
        <time>2022-07-19T07:25:06Z</time>
      </trkpt>
      <trkpt lat="44.32437" lon="5.19731">
        <ele>615.4</ele>
        <time>2022-07-19T07:25:07Z</time>
      </trkpt>
      <trkpt lat="44.32438" lon="5.19732">
        <ele>615.4</ele>
        <time>2022-07-19T07:25:08Z</time>
      </trkpt>
      <trkpt lat="44.32439" lon="5.19732">
        <ele>615.5</ele>
        <time>2022-07-19T07:25:09Z</time>
      </trkpt>
      <trkpt lat="44.3244" lon="5.19733">
        <ele>616.3</ele>
        <time>2022-07-19T07:25:10Z</time>
      </trkpt>
      <trkpt lat="44.32441" lon="5.19734">
        <ele>616.3</ele>
        <time>2022-07-19T07:25:11Z</time>
      </trkpt>
      <trkpt lat="44.32443" lon="5.19735">
        <ele>616.4</ele>
        <time>2022-07-19T07:25:12Z</time>
      </trkpt>
      <trkpt lat="44.32445" lon="5.19735">
        <ele>616.3</ele>
        <time>2022-07-19T07:25:13Z</time>
      </trkpt>
      <trkpt lat="44.32446" lon="5.19736">
        <ele>616.2</ele>
        <time>2022-07-19T07:25:14Z</time>
      </trkpt>
      <trkpt lat="44.32448" lon="5.19736">
        <ele>616.1</ele>
        <time>2022-07-19T07:25:15Z</time>
      </trkpt>
      <trkpt lat="44.32449" lon="5.19737">
        <ele>616</ele>
        <time>2022-07-19T07:25:16Z</time>
      </trkpt>
      <trkpt lat="44.3245" lon="5.19737">
        <ele>616</ele>
        <time>2022-07-19T07:25:17Z</time>
      </trkpt>
      <trkpt lat="44.32451" lon="5.19737">
        <ele>615.9</ele>
        <time>2022-07-19T07:25:18Z</time>
      </trkpt>
      <trkpt lat="44.32452" lon="5.19737">
        <ele>615.8</ele>
        <time>2022-07-19T07:25:19Z</time>
      </trkpt>
      <trkpt lat="44.32454" lon="5.19737">
        <ele>615.8</ele>
        <time>2022-07-19T07:25:20Z</time>
      </trkpt>
      <trkpt lat="44.32455" lon="5.19737">
        <ele>615.7</ele>
        <time>2022-07-19T07:25:21Z</time>
      </trkpt>
      <trkpt lat="44.32457" lon="5.19737">
        <ele>615.6</ele>
        <time>2022-07-19T07:25:22Z</time>
      </trkpt>
      <trkpt lat="44.32459" lon="5.19738">
        <ele>615.5</ele>
        <time>2022-07-19T07:25:23Z</time>
      </trkpt>
      <trkpt lat="44.3246" lon="5.19738">
        <ele>615.4</ele>
        <time>2022-07-19T07:25:24Z</time>
      </trkpt>
      <trkpt lat="44.3246" lon="5.19738">
        <ele>615.4</ele>
        <time>2022-07-19T07:25:25Z</time>
      </trkpt>
      <trkpt lat="44.32462" lon="5.19738">
        <ele>615.3</ele>
        <time>2022-07-19T07:25:26Z</time>
      </trkpt>
      <trkpt lat="44.32463" lon="5.19738">
        <ele>615.3</ele>
        <time>2022-07-19T07:25:27Z</time>
      </trkpt>
      <trkpt lat="44.32464" lon="5.19738">
        <ele>615.2</ele>
        <time>2022-07-19T07:25:28Z</time>
      </trkpt>
      <trkpt lat="44.32465" lon="5.19738">
        <ele>615.2</ele>
        <time>2022-07-19T07:25:29Z</time>
      </trkpt>
      <trkpt lat="44.32466" lon="5.19737">
        <ele>615.1</ele>
        <time>2022-07-19T07:25:30Z</time>
      </trkpt>
      <trkpt lat="44.32467" lon="5.19736">
        <ele>615</ele>
        <time>2022-07-19T07:25:31Z</time>
      </trkpt>
      <trkpt lat="44.32468" lon="5.19736">
        <ele>614.9</ele>
        <time>2022-07-19T07:25:32Z</time>
      </trkpt>
      <trkpt lat="44.32469" lon="5.19736">
        <ele>614.9</ele>
        <time>2022-07-19T07:25:33Z</time>
      </trkpt>
      <trkpt lat="44.3247" lon="5.19735">
        <ele>614.8</ele>
        <time>2022-07-19T07:25:34Z</time>
      </trkpt>
      <trkpt lat="44.32472" lon="5.19735">
        <ele>614.7</ele>
        <time>2022-07-19T07:25:35Z</time>
      </trkpt>
      <trkpt lat="44.32473" lon="5.19735">
        <ele>614.6</ele>
        <time>2022-07-19T07:25:36Z</time>
      </trkpt>
      <trkpt lat="44.32474" lon="5.19734">
        <ele>614.6</ele>
        <time>2022-07-19T07:25:37Z</time>
      </trkpt>
      <trkpt lat="44.32476" lon="5.19734">
        <ele>614.5</ele>
        <time>2022-07-19T07:25:38Z</time>
      </trkpt>
      <trkpt lat="44.32477" lon="5.19734">
        <ele>614.4</ele>
        <time>2022-07-19T07:25:39Z</time>
      </trkpt>
      <trkpt lat="44.32479" lon="5.19735">
        <ele>614.3</ele>
        <time>2022-07-19T07:25:40Z</time>
      </trkpt>
      <trkpt lat="44.3248" lon="5.19735">
        <ele>614.3</ele>
        <time>2022-07-19T07:25:41Z</time>
      </trkpt>
      <trkpt lat="44.32481" lon="5.19735">
        <ele>614.2</ele>
        <time>2022-07-19T07:25:42Z</time>
      </trkpt>
      <trkpt lat="44.32482" lon="5.19736">
        <ele>614.1</ele>
        <time>2022-07-19T07:25:43Z</time>
      </trkpt>
      <trkpt lat="44.32484" lon="5.19737">
        <ele>614</ele>
        <time>2022-07-19T07:25:44Z</time>
      </trkpt>
      <trkpt lat="44.32484" lon="5.19738">
        <ele>614</ele>
        <time>2022-07-19T07:25:45Z</time>
      </trkpt>
      <trkpt lat="44.32485" lon="5.19739">
        <ele>613.9</ele>
        <time>2022-07-19T07:25:46Z</time>
      </trkpt>
      <trkpt lat="44.32485" lon="5.19741">
        <ele>613.8</ele>
        <time>2022-07-19T07:25:47Z</time>
      </trkpt>
      <trkpt lat="44.32485" lon="5.19743">
        <ele>613.8</ele>
        <time>2022-07-19T07:25:48Z</time>
      </trkpt>
      <trkpt lat="44.32484" lon="5.19744">
        <ele>613.7</ele>
        <time>2022-07-19T07:25:49Z</time>
      </trkpt>
      <trkpt lat="44.32484" lon="5.19745">
        <ele>613.7</ele>
        <time>2022-07-19T07:25:50Z</time>
      </trkpt>
      <trkpt lat="44.32482" lon="5.19745">
        <ele>613.6</ele>
        <time>2022-07-19T07:25:51Z</time>
      </trkpt>
      <trkpt lat="44.32481" lon="5.19746">
        <ele>613.5</ele>
        <time>2022-07-19T07:25:52Z</time>
      </trkpt>
      <trkpt lat="44.3248" lon="5.19746">
        <ele>613.4</ele>
        <time>2022-07-19T07:25:53Z</time>
      </trkpt>
      <trkpt lat="44.32478" lon="5.19745">
        <ele>613.3</ele>
        <time>2022-07-19T07:25:54Z</time>
      </trkpt>
      <trkpt lat="44.32477" lon="5.19745">
        <ele>613.3</ele>
        <time>2022-07-19T07:25:55Z</time>
      </trkpt>
      <trkpt lat="44.32476" lon="5.19745">
        <ele>613.2</ele>
        <time>2022-07-19T07:25:56Z</time>
      </trkpt>
      <trkpt lat="44.32474" lon="5.19744">
        <ele>613.1</ele>
        <time>2022-07-19T07:25:57Z</time>
      </trkpt>
      <trkpt lat="44.32473" lon="5.19744">
        <ele>613.2</ele>
        <time>2022-07-19T07:25:58Z</time>
      </trkpt>
      <trkpt lat="44.32472" lon="5.19744">
        <ele>613.3</ele>
        <time>2022-07-19T07:25:59Z</time>
      </trkpt>
      <trkpt lat="44.32471" lon="5.19744">
        <ele>613.4</ele>
        <time>2022-07-19T07:26:00Z</time>
      </trkpt>
      <trkpt lat="44.3247" lon="5.19744">
        <ele>613.5</ele>
        <time>2022-07-19T07:26:01Z</time>
      </trkpt>
      <trkpt lat="44.32469" lon="5.19743">
        <ele>613.7</ele>
        <time>2022-07-19T07:26:02Z</time>
      </trkpt>
      <trkpt lat="44.32467" lon="5.19742">
        <ele>613.9</ele>
        <time>2022-07-19T07:26:03Z</time>
      </trkpt>
      <trkpt lat="44.32466" lon="5.19741">
        <ele>614</ele>
        <time>2022-07-19T07:26:04Z</time>
      </trkpt>
      <trkpt lat="44.32466" lon="5.19741">
        <ele>614.1</ele>
        <time>2022-07-19T07:26:05Z</time>
      </trkpt>
      <trkpt lat="44.32465" lon="5.19741">
        <ele>614.2</ele>
        <time>2022-07-19T07:26:06Z</time>
      </trkpt>
      <trkpt lat="44.32463" lon="5.19741">
        <ele>614.4</ele>
        <time>2022-07-19T07:26:07Z</time>
      </trkpt>
      <trkpt lat="44.32462" lon="5.19741">
        <ele>614.5</ele>
        <time>2022-07-19T07:26:08Z</time>
      </trkpt>
      <trkpt lat="44.32461" lon="5.19741">
        <ele>614.6</ele>
        <time>2022-07-19T07:26:09Z</time>
      </trkpt>
      <trkpt lat="44.3246" lon="5.19742">
        <ele>614.7</ele>
        <time>2022-07-19T07:26:10Z</time>
      </trkpt>
      <trkpt lat="44.3246" lon="5.19743">
        <ele>614.8</ele>
        <time>2022-07-19T07:26:11Z</time>
      </trkpt>
      <trkpt lat="44.3246" lon="5.19744">
        <ele>614.9</ele>
        <time>2022-07-19T07:26:12Z</time>
      </trkpt>
      <trkpt lat="44.3246" lon="5.19745">
        <ele>615</ele>
        <time>2022-07-19T07:26:13Z</time>
      </trkpt>
      <trkpt lat="44.3246" lon="5.19745">
        <ele>615</ele>
        <time>2022-07-19T07:26:14Z</time>
      </trkpt>
      <trkpt lat="44.3246" lon="5.19745">
        <ele>615</ele>
        <time>2022-07-19T07:26:15Z</time>
      </trkpt>
      <trkpt lat="44.3246" lon="5.19746">
        <ele>615.1</ele>
        <time>2022-07-19T07:26:16Z</time>
      </trkpt>
      <trkpt lat="44.32459" lon="5.19746">
        <ele>615.2</ele>
        <time>2022-07-19T07:26:17Z</time>
      </trkpt>
      <trkpt lat="44.32458" lon="5.19746">
        <ele>615.3</ele>
        <time>2022-07-19T07:26:18Z</time>
      </trkpt>
      <trkpt lat="44.32457" lon="5.19746">
        <ele>615.4</ele>
        <time>2022-07-19T07:26:19Z</time>
      </trkpt>
      <trkpt lat="44.32456" lon="5.19746">
        <ele>615.5</ele>
        <time>2022-07-19T07:26:20Z</time>
      </trkpt>
      <trkpt lat="44.32455" lon="5.19745">
        <ele>615.7</ele>
        <time>2022-07-19T07:26:21Z</time>
      </trkpt>
      <trkpt lat="44.32453" lon="5.19745">
        <ele>615.8</ele>
        <time>2022-07-19T07:26:22Z</time>
      </trkpt>
      <trkpt lat="44.32451" lon="5.19744">
        <ele>616.1</ele>
        <time>2022-07-19T07:26:23Z</time>
      </trkpt>
      <trkpt lat="44.3245" lon="5.19744">
        <ele>616.2</ele>
        <time>2022-07-19T07:26:24Z</time>
      </trkpt>
      <trkpt lat="44.32449" lon="5.19744">
        <ele>616.3</ele>
        <time>2022-07-19T07:26:25Z</time>
      </trkpt>
      <trkpt lat="44.32447" lon="5.19744">
        <ele>616.5</ele>
        <time>2022-07-19T07:26:26Z</time>
      </trkpt>
      <trkpt lat="44.32447" lon="5.19745">
        <ele>616.6</ele>
        <time>2022-07-19T07:26:27Z</time>
      </trkpt>
      <trkpt lat="44.32446" lon="5.19747">
        <ele>616.8</ele>
        <time>2022-07-19T07:26:28Z</time>
      </trkpt>
      <trkpt lat="44.32445" lon="5.19748">
        <ele>616.9</ele>
        <time>2022-07-19T07:26:29Z</time>
      </trkpt>
      <trkpt lat="44.32445" lon="5.1975">
        <ele>617</ele>
        <time>2022-07-19T07:26:30Z</time>
      </trkpt>
      <trkpt lat="44.32444" lon="5.19752">
        <ele>617.2</ele>
        <time>2022-07-19T07:26:31Z</time>
      </trkpt>
      <trkpt lat="44.32444" lon="5.19754">
        <ele>617.4</ele>
        <time>2022-07-19T07:26:32Z</time>
      </trkpt>
      <trkpt lat="44.32444" lon="5.19756">
        <ele>617.5</ele>
        <time>2022-07-19T07:26:33Z</time>
      </trkpt>
      <trkpt lat="44.32443" lon="5.19758">
        <ele>617.7</ele>
        <time>2022-07-19T07:26:34Z</time>
      </trkpt>
      <trkpt lat="44.32444" lon="5.1976">
        <ele>617.9</ele>
        <time>2022-07-19T07:26:35Z</time>
      </trkpt>
      <trkpt lat="44.32444" lon="5.19762">
        <ele>618.1</ele>
        <time>2022-07-19T07:26:36Z</time>
      </trkpt>
      <trkpt lat="44.32445" lon="5.19764">
        <ele>618.2</ele>
        <time>2022-07-19T07:26:37Z</time>
      </trkpt>
      <trkpt lat="44.32446" lon="5.19765">
        <ele>618.3</ele>
        <time>2022-07-19T07:26:38Z</time>
      </trkpt>
      <trkpt lat="44.32447" lon="5.19765">
        <ele>618.4</ele>
        <time>2022-07-19T07:26:39Z</time>
      </trkpt>
      <trkpt lat="44.32447" lon="5.19766">
        <ele>618.5</ele>
        <time>2022-07-19T07:26:40Z</time>
      </trkpt>
      <trkpt lat="44.32448" lon="5.19767">
        <ele>618.6</ele>
        <time>2022-07-19T07:26:41Z</time>
      </trkpt>
      <trkpt lat="44.3245" lon="5.19767">
        <ele>618.8</ele>
        <time>2022-07-19T07:26:42Z</time>
      </trkpt>
      <trkpt lat="44.32452" lon="5.19767">
        <ele>619</ele>
        <time>2022-07-19T07:26:43Z</time>
      </trkpt>
      <trkpt lat="44.32453" lon="5.19767">
        <ele>619.1</ele>
        <time>2022-07-19T07:26:44Z</time>
      </trkpt>
      <trkpt lat="44.32453" lon="5.19766">
        <ele>619.2</ele>
        <time>2022-07-19T07:26:45Z</time>
      </trkpt>
      <trkpt lat="44.32454" lon="5.19766">
        <ele>619.3</ele>
        <time>2022-07-19T07:26:46Z</time>
      </trkpt>
      <trkpt lat="44.32455" lon="5.19766">
        <ele>619.4</ele>
        <time>2022-07-19T07:26:47Z</time>
      </trkpt>
      <trkpt lat="44.32456" lon="5.19766">
        <ele>619.5</ele>
        <time>2022-07-19T07:26:48Z</time>
      </trkpt>
      <trkpt lat="44.32459" lon="5.19766">
        <ele>619.8</ele>
        <time>2022-07-19T07:26:49Z</time>
      </trkpt>
      <trkpt lat="44.32459" lon="5.19766">
        <ele>619.9</ele>
        <time>2022-07-19T07:26:50Z</time>
      </trkpt>
      <trkpt lat="44.3246" lon="5.19766">
        <ele>620</ele>
        <time>2022-07-19T07:26:51Z</time>
      </trkpt>
      <trkpt lat="44.32462" lon="5.19766">
        <ele>620.2</ele>
        <time>2022-07-19T07:26:52Z</time>
      </trkpt>
      <trkpt lat="44.32463" lon="5.19766">
        <ele>620.3</ele>
        <time>2022-07-19T07:26:53Z</time>
      </trkpt>
      <trkpt lat="44.32464" lon="5.19766">
        <ele>620.4</ele>
        <time>2022-07-19T07:26:54Z</time>
      </trkpt>
      <trkpt lat="44.32466" lon="5.19766">
        <ele>620.6</ele>
        <time>2022-07-19T07:26:55Z</time>
      </trkpt>
      <trkpt lat="44.32467" lon="5.19766">
        <ele>620.7</ele>
        <time>2022-07-19T07:26:56Z</time>
      </trkpt>
      <trkpt lat="44.32468" lon="5.19766">
        <ele>620.8</ele>
        <time>2022-07-19T07:26:57Z</time>
      </trkpt>
      <trkpt lat="44.32469" lon="5.19766">
        <ele>621</ele>
        <time>2022-07-19T07:26:58Z</time>
      </trkpt>
      <trkpt lat="44.3247" lon="5.19766">
        <ele>621.1</ele>
        <time>2022-07-19T07:26:59Z</time>
      </trkpt>
      <trkpt lat="44.32471" lon="5.19766">
        <ele>621.2</ele>
        <time>2022-07-19T07:27:00Z</time>
      </trkpt>
      <trkpt lat="44.32473" lon="5.19767">
        <ele>621.4</ele>
        <time>2022-07-19T07:27:01Z</time>
      </trkpt>
      <trkpt lat="44.32474" lon="5.19767">
        <ele>621.5</ele>
        <time>2022-07-19T07:27:02Z</time>
      </trkpt>
      <trkpt lat="44.32475" lon="5.19767">
        <ele>621.6</ele>
        <time>2022-07-19T07:27:03Z</time>
      </trkpt>
      <trkpt lat="44.32477" lon="5.19767">
        <ele>621.9</ele>
        <time>2022-07-19T07:27:04Z</time>
      </trkpt>
      <trkpt lat="44.32478" lon="5.19767">
        <ele>622</ele>
        <time>2022-07-19T07:27:05Z</time>
      </trkpt>
      <trkpt lat="44.32479" lon="5.19767">
        <ele>622</ele>
        <time>2022-07-19T07:27:06Z</time>
      </trkpt>
      <trkpt lat="44.32481" lon="5.19767">
        <ele>622.3</ele>
        <time>2022-07-19T07:27:07Z</time>
      </trkpt>
      <trkpt lat="44.32482" lon="5.19767">
        <ele>622.4</ele>
        <time>2022-07-19T07:27:08Z</time>
      </trkpt>
      <trkpt lat="44.32482" lon="5.19767">
        <ele>622.4</ele>
        <time>2022-07-19T07:27:09Z</time>
      </trkpt>
      <trkpt lat="44.32483" lon="5.19768">
        <ele>622.5</ele>
        <time>2022-07-19T07:27:10Z</time>
      </trkpt>
      <trkpt lat="44.32484" lon="5.19768">
        <ele>622.6</ele>
        <time>2022-07-19T07:27:11Z</time>
      </trkpt>
      <trkpt lat="44.32485" lon="5.1977">
        <ele>622.8</ele>
        <time>2022-07-19T07:27:12Z</time>
      </trkpt>
      <trkpt lat="44.32485" lon="5.1977">
        <ele>622.9</ele>
        <time>2022-07-19T07:27:13Z</time>
      </trkpt>
      <trkpt lat="44.32486" lon="5.19771">
        <ele>622.9</ele>
        <time>2022-07-19T07:27:14Z</time>
      </trkpt>
      <trkpt lat="44.32487" lon="5.19771">
        <ele>623</ele>
        <time>2022-07-19T07:27:15Z</time>
      </trkpt>
      <trkpt lat="44.32487" lon="5.19772">
        <ele>623.1</ele>
        <time>2022-07-19T07:27:16Z</time>
      </trkpt>
      <trkpt lat="44.32488" lon="5.19773">
        <ele>623.2</ele>
        <time>2022-07-19T07:27:17Z</time>
      </trkpt>
      <trkpt lat="44.32489" lon="5.19773">
        <ele>623.3</ele>
        <time>2022-07-19T07:27:18Z</time>
      </trkpt>
      <trkpt lat="44.3249" lon="5.19774">
        <ele>623.5</ele>
        <time>2022-07-19T07:27:19Z</time>
      </trkpt>
      <trkpt lat="44.32492" lon="5.19775">
        <ele>623.7</ele>
        <time>2022-07-19T07:27:20Z</time>
      </trkpt>
      <trkpt lat="44.32493" lon="5.19775">
        <ele>623.8</ele>
        <time>2022-07-19T07:27:21Z</time>
      </trkpt>
      <trkpt lat="44.32494" lon="5.19776">
        <ele>623.9</ele>
        <time>2022-07-19T07:27:22Z</time>
      </trkpt>
      <trkpt lat="44.32495" lon="5.19777">
        <ele>624.1</ele>
        <time>2022-07-19T07:27:23Z</time>
      </trkpt>
      <trkpt lat="44.32496" lon="5.19778">
        <ele>624.2</ele>
        <time>2022-07-19T07:27:24Z</time>
      </trkpt>
      <trkpt lat="44.32497" lon="5.19778">
        <ele>624.3</ele>
        <time>2022-07-19T07:27:25Z</time>
      </trkpt>
      <trkpt lat="44.32498" lon="5.19779">
        <ele>624.4</ele>
        <time>2022-07-19T07:27:26Z</time>
      </trkpt>
      <trkpt lat="44.32499" lon="5.19779">
        <ele>624.6</ele>
        <time>2022-07-19T07:27:27Z</time>
      </trkpt>
      <trkpt lat="44.325" lon="5.19779">
        <ele>624.7</ele>
        <time>2022-07-19T07:27:28Z</time>
      </trkpt>
      <trkpt lat="44.32502" lon="5.1978">
        <ele>624.9</ele>
        <time>2022-07-19T07:27:29Z</time>
      </trkpt>
      <trkpt lat="44.32503" lon="5.19779">
        <ele>625</ele>
        <time>2022-07-19T07:27:30Z</time>
      </trkpt>
      <trkpt lat="44.32504" lon="5.19779">
        <ele>625.1</ele>
        <time>2022-07-19T07:27:31Z</time>
      </trkpt>
      <trkpt lat="44.32505" lon="5.19779">
        <ele>625.2</ele>
        <time>2022-07-19T07:27:32Z</time>
      </trkpt>
      <trkpt lat="44.32506" lon="5.19779">
        <ele>625.4</ele>
        <time>2022-07-19T07:27:33Z</time>
      </trkpt>
      <trkpt lat="44.32508" lon="5.19778">
        <ele>625.6</ele>
        <time>2022-07-19T07:27:34Z</time>
      </trkpt>
      <trkpt lat="44.32509" lon="5.19778">
        <ele>625.7</ele>
        <time>2022-07-19T07:27:35Z</time>
      </trkpt>
      <trkpt lat="44.3251" lon="5.19778">
        <ele>625.8</ele>
        <time>2022-07-19T07:27:36Z</time>
      </trkpt>
      <trkpt lat="44.32511" lon="5.19779">
        <ele>625.9</ele>
        <time>2022-07-19T07:27:37Z</time>
      </trkpt>
      <trkpt lat="44.32513" lon="5.19778">
        <ele>626.1</ele>
        <time>2022-07-19T07:27:38Z</time>
      </trkpt>
      <trkpt lat="44.32514" lon="5.19778">
        <ele>626.3</ele>
        <time>2022-07-19T07:27:39Z</time>
      </trkpt>
      <trkpt lat="44.32515" lon="5.19778">
        <ele>626.4</ele>
        <time>2022-07-19T07:27:40Z</time>
      </trkpt>
      <trkpt lat="44.32517" lon="5.19777">
        <ele>626.7</ele>
        <time>2022-07-19T07:27:41Z</time>
      </trkpt>
      <trkpt lat="44.32519" lon="5.19776">
        <ele>626.8</ele>
        <time>2022-07-19T07:27:42Z</time>
      </trkpt>
      <trkpt lat="44.3252" lon="5.19775">
        <ele>626.9</ele>
        <time>2022-07-19T07:27:43Z</time>
      </trkpt>
      <trkpt lat="44.32522" lon="5.19773">
        <ele>627.2</ele>
        <time>2022-07-19T07:27:44Z</time>
      </trkpt>
      <trkpt lat="44.32523" lon="5.19773">
        <ele>627.3</ele>
        <time>2022-07-19T07:27:45Z</time>
      </trkpt>
      <trkpt lat="44.32525" lon="5.19771">
        <ele>627.7</ele>
        <time>2022-07-19T07:27:46Z</time>
      </trkpt>
      <trkpt lat="44.32526" lon="5.1977">
        <ele>627.8</ele>
        <time>2022-07-19T07:27:47Z</time>
      </trkpt>
      <trkpt lat="44.32529" lon="5.19768">
        <ele>628.1</ele>
        <time>2022-07-19T07:27:48Z</time>
      </trkpt>
      <trkpt lat="44.32529" lon="5.19767">
        <ele>628.2</ele>
        <time>2022-07-19T07:27:49Z</time>
      </trkpt>
      <trkpt lat="44.32531" lon="5.19766">
        <ele>628.4</ele>
        <time>2022-07-19T07:27:50Z</time>
      </trkpt>
      <trkpt lat="44.32532" lon="5.19766">
        <ele>628.5</ele>
        <time>2022-07-19T07:27:51Z</time>
      </trkpt>
      <trkpt lat="44.32534" lon="5.19765">
        <ele>628.7</ele>
        <time>2022-07-19T07:27:52Z</time>
      </trkpt>
      <trkpt lat="44.32535" lon="5.19764">
        <ele>628.9</ele>
        <time>2022-07-19T07:27:53Z</time>
      </trkpt>
      <trkpt lat="44.32536" lon="5.19763">
        <ele>629</ele>
        <time>2022-07-19T07:27:54Z</time>
      </trkpt>
      <trkpt lat="44.32537" lon="5.19762">
        <ele>629.1</ele>
        <time>2022-07-19T07:27:55Z</time>
      </trkpt>
      <trkpt lat="44.32538" lon="5.19762">
        <ele>629.3</ele>
        <time>2022-07-19T07:27:56Z</time>
      </trkpt>
      <trkpt lat="44.3254" lon="5.19761">
        <ele>629.4</ele>
        <time>2022-07-19T07:27:57Z</time>
      </trkpt>
      <trkpt lat="44.32541" lon="5.1976">
        <ele>629.6</ele>
        <time>2022-07-19T07:27:58Z</time>
      </trkpt>
      <trkpt lat="44.32542" lon="5.19759">
        <ele>629.8</ele>
        <time>2022-07-19T07:27:59Z</time>
      </trkpt>
      <trkpt lat="44.32544" lon="5.19758">
        <ele>630</ele>
        <time>2022-07-19T07:28:00Z</time>
      </trkpt>
      <trkpt lat="44.32545" lon="5.19758">
        <ele>630.1</ele>
        <time>2022-07-19T07:28:01Z</time>
      </trkpt>
      <trkpt lat="44.32547" lon="5.19757">
        <ele>630.3</ele>
        <time>2022-07-19T07:28:02Z</time>
      </trkpt>
      <trkpt lat="44.32548" lon="5.19756">
        <ele>630.5</ele>
        <time>2022-07-19T07:28:03Z</time>
      </trkpt>
      <trkpt lat="44.32549" lon="5.19755">
        <ele>630.6</ele>
        <time>2022-07-19T07:28:04Z</time>
      </trkpt>
      <trkpt lat="44.3255" lon="5.19755">
        <ele>630.7</ele>
        <time>2022-07-19T07:28:05Z</time>
      </trkpt>
      <trkpt lat="44.32551" lon="5.19754">
        <ele>630.8</ele>
        <time>2022-07-19T07:28:06Z</time>
      </trkpt>
      <trkpt lat="44.32552" lon="5.19754">
        <ele>630.9</ele>
        <time>2022-07-19T07:28:07Z</time>
      </trkpt>
      <trkpt lat="44.32553" lon="5.19754">
        <ele>631</ele>
        <time>2022-07-19T07:28:08Z</time>
      </trkpt>
      <trkpt lat="44.32555" lon="5.19755">
        <ele>631.3</ele>
        <time>2022-07-19T07:28:09Z</time>
      </trkpt>
      <trkpt lat="44.32556" lon="5.19756">
        <ele>631.4</ele>
        <time>2022-07-19T07:28:10Z</time>
      </trkpt>
      <trkpt lat="44.32557" lon="5.19756">
        <ele>631.5</ele>
        <time>2022-07-19T07:28:11Z</time>
      </trkpt>
      <trkpt lat="44.32558" lon="5.19757">
        <ele>631.6</ele>
        <time>2022-07-19T07:28:12Z</time>
      </trkpt>
      <trkpt lat="44.32559" lon="5.19758">
        <ele>631.8</ele>
        <time>2022-07-19T07:28:13Z</time>
      </trkpt>
      <trkpt lat="44.32561" lon="5.19759">
        <ele>632</ele>
        <time>2022-07-19T07:28:14Z</time>
      </trkpt>
      <trkpt lat="44.32562" lon="5.1976">
        <ele>632.1</ele>
        <time>2022-07-19T07:28:15Z</time>
      </trkpt>
      <trkpt lat="44.32562" lon="5.19761">
        <ele>632.2</ele>
        <time>2022-07-19T07:28:16Z</time>
      </trkpt>
      <trkpt lat="44.32563" lon="5.19762">
        <ele>632.4</ele>
        <time>2022-07-19T07:28:17Z</time>
      </trkpt>
      <trkpt lat="44.32565" lon="5.19763">
        <ele>632.5</ele>
        <time>2022-07-19T07:28:18Z</time>
      </trkpt>
      <trkpt lat="44.32566" lon="5.19764">
        <ele>632.7</ele>
        <time>2022-07-19T07:28:19Z</time>
      </trkpt>
      <trkpt lat="44.32567" lon="5.19764">
        <ele>632.9</ele>
        <time>2022-07-19T07:28:20Z</time>
      </trkpt>
      <trkpt lat="44.32569" lon="5.19765">
        <ele>633</ele>
        <time>2022-07-19T07:28:21Z</time>
      </trkpt>
      <trkpt lat="44.3257" lon="5.19765">
        <ele>633.2</ele>
        <time>2022-07-19T07:28:22Z</time>
      </trkpt>
      <trkpt lat="44.32572" lon="5.19765">
        <ele>633.4</ele>
        <time>2022-07-19T07:28:23Z</time>
      </trkpt>
      <trkpt lat="44.32573" lon="5.19766">
        <ele>633.6</ele>
        <time>2022-07-19T07:28:24Z</time>
      </trkpt>
      <trkpt lat="44.32575" lon="5.19767">
        <ele>633.7</ele>
        <time>2022-07-19T07:28:25Z</time>
      </trkpt>
      <trkpt lat="44.32576" lon="5.19768">
        <ele>633.9</ele>
        <time>2022-07-19T07:28:26Z</time>
      </trkpt>
      <trkpt lat="44.32578" lon="5.1977">
        <ele>634.2</ele>
        <time>2022-07-19T07:28:27Z</time>
      </trkpt>
      <trkpt lat="44.32579" lon="5.1977">
        <ele>634.3</ele>
        <time>2022-07-19T07:28:28Z</time>
      </trkpt>
      <trkpt lat="44.32579" lon="5.19771">
        <ele>634.4</ele>
        <time>2022-07-19T07:28:29Z</time>
      </trkpt>
      <trkpt lat="44.32581" lon="5.19773">
        <ele>634.5</ele>
        <time>2022-07-19T07:28:30Z</time>
      </trkpt>
      <trkpt lat="44.32582" lon="5.19774">
        <ele>634.7</ele>
        <time>2022-07-19T07:28:31Z</time>
      </trkpt>
      <trkpt lat="44.32584" lon="5.19775">
        <ele>634.9</ele>
        <time>2022-07-19T07:28:32Z</time>
      </trkpt>
      <trkpt lat="44.32585" lon="5.19775">
        <ele>635</ele>
        <time>2022-07-19T07:28:33Z</time>
      </trkpt>
      <trkpt lat="44.32585" lon="5.19776">
        <ele>635.1</ele>
        <time>2022-07-19T07:28:34Z</time>
      </trkpt>
      <trkpt lat="44.32587" lon="5.19777">
        <ele>635.3</ele>
        <time>2022-07-19T07:28:35Z</time>
      </trkpt>
      <trkpt lat="44.32588" lon="5.19777">
        <ele>635.4</ele>
        <time>2022-07-19T07:28:36Z</time>
      </trkpt>
      <trkpt lat="44.32588" lon="5.19778">
        <ele>635.5</ele>
        <time>2022-07-19T07:28:37Z</time>
      </trkpt>
      <trkpt lat="44.3259" lon="5.1978">
        <ele>635.7</ele>
        <time>2022-07-19T07:28:38Z</time>
      </trkpt>
      <trkpt lat="44.32591" lon="5.19781">
        <ele>635.9</ele>
        <time>2022-07-19T07:28:39Z</time>
      </trkpt>
      <trkpt lat="44.32593" lon="5.19782">
        <ele>636.1</ele>
        <time>2022-07-19T07:28:40Z</time>
      </trkpt>
      <trkpt lat="44.32594" lon="5.19784">
        <ele>636.2</ele>
        <time>2022-07-19T07:28:41Z</time>
      </trkpt>
      <trkpt lat="44.32595" lon="5.19785">
        <ele>636.4</ele>
        <time>2022-07-19T07:28:42Z</time>
      </trkpt>
      <trkpt lat="44.32596" lon="5.19787">
        <ele>636.6</ele>
        <time>2022-07-19T07:28:43Z</time>
      </trkpt>
      <trkpt lat="44.32598" lon="5.19788">
        <ele>636.8</ele>
        <time>2022-07-19T07:28:44Z</time>
      </trkpt>
      <trkpt lat="44.32599" lon="5.19789">
        <ele>637</ele>
        <time>2022-07-19T07:28:45Z</time>
      </trkpt>
      <trkpt lat="44.32601" lon="5.19792">
        <ele>637.3</ele>
        <time>2022-07-19T07:28:46Z</time>
      </trkpt>
      <trkpt lat="44.32602" lon="5.19793">
        <ele>637.4</ele>
        <time>2022-07-19T07:28:47Z</time>
      </trkpt>
      <trkpt lat="44.32603" lon="5.19795">
        <ele>637.6</ele>
        <time>2022-07-19T07:28:48Z</time>
      </trkpt>
      <trkpt lat="44.32604" lon="5.19796">
        <ele>637.8</ele>
        <time>2022-07-19T07:28:49Z</time>
      </trkpt>
      <trkpt lat="44.32605" lon="5.19798">
        <ele>638</ele>
        <time>2022-07-19T07:28:50Z</time>
      </trkpt>
      <trkpt lat="44.32607" lon="5.19799">
        <ele>638.2</ele>
        <time>2022-07-19T07:28:51Z</time>
      </trkpt>
      <trkpt lat="44.32608" lon="5.19801">
        <ele>638.3</ele>
        <time>2022-07-19T07:28:52Z</time>
      </trkpt>
      <trkpt lat="44.32609" lon="5.19802">
        <ele>638.5</ele>
        <time>2022-07-19T07:28:53Z</time>
      </trkpt>
      <trkpt lat="44.3261" lon="5.19803">
        <ele>638.6</ele>
        <time>2022-07-19T07:28:54Z</time>
      </trkpt>
      <trkpt lat="44.32611" lon="5.19804">
        <ele>638.8</ele>
        <time>2022-07-19T07:28:55Z</time>
      </trkpt>
      <trkpt lat="44.32613" lon="5.19805">
        <ele>639</ele>
        <time>2022-07-19T07:28:56Z</time>
      </trkpt>
      <trkpt lat="44.32614" lon="5.19806">
        <ele>639.1</ele>
        <time>2022-07-19T07:28:57Z</time>
      </trkpt>
      <trkpt lat="44.32614" lon="5.19807">
        <ele>639.2</ele>
        <time>2022-07-19T07:28:58Z</time>
      </trkpt>
      <trkpt lat="44.32616" lon="5.19808">
        <ele>639.4</ele>
        <time>2022-07-19T07:28:59Z</time>
      </trkpt>
      <trkpt lat="44.32617" lon="5.19809">
        <ele>639.6</ele>
        <time>2022-07-19T07:29:00Z</time>
      </trkpt>
      <trkpt lat="44.32619" lon="5.19813">
        <ele>639.9</ele>
        <time>2022-07-19T07:29:01Z</time>
      </trkpt>
      <trkpt lat="44.32619" lon="5.19814">
        <ele>640</ele>
        <time>2022-07-19T07:29:02Z</time>
      </trkpt>
      <trkpt lat="44.32621" lon="5.19817">
        <ele>640.3</ele>
        <time>2022-07-19T07:29:03Z</time>
      </trkpt>
      <trkpt lat="44.32621" lon="5.19818">
        <ele>640.4</ele>
        <time>2022-07-19T07:29:04Z</time>
      </trkpt>
      <trkpt lat="44.32622" lon="5.1982">
        <ele>640.6</ele>
        <time>2022-07-19T07:29:05Z</time>
      </trkpt>
      <trkpt lat="44.32623" lon="5.19822">
        <ele>640.8</ele>
        <time>2022-07-19T07:29:06Z</time>
      </trkpt>
      <trkpt lat="44.32624" lon="5.19824">
        <ele>641.1</ele>
        <time>2022-07-19T07:29:07Z</time>
      </trkpt>
      <trkpt lat="44.32626" lon="5.19825">
        <ele>641.1</ele>
        <time>2022-07-19T07:29:08Z</time>
      </trkpt>
      <trkpt lat="44.32626" lon="5.19827">
        <ele>641.2</ele>
        <time>2022-07-19T07:29:09Z</time>
      </trkpt>
      <trkpt lat="44.32627" lon="5.19829">
        <ele>641.3</ele>
        <time>2022-07-19T07:29:10Z</time>
      </trkpt>
      <trkpt lat="44.32628" lon="5.19831">
        <ele>641.4</ele>
        <time>2022-07-19T07:29:11Z</time>
      </trkpt>
      <trkpt lat="44.3263" lon="5.19833">
        <ele>641.5</ele>
        <time>2022-07-19T07:29:12Z</time>
      </trkpt>
      <trkpt lat="44.32631" lon="5.19834">
        <ele>641.6</ele>
        <time>2022-07-19T07:29:13Z</time>
      </trkpt>
      <trkpt lat="44.32631" lon="5.19836">
        <ele>641.7</ele>
        <time>2022-07-19T07:29:14Z</time>
      </trkpt>
      <trkpt lat="44.32632" lon="5.19838">
        <ele>641.8</ele>
        <time>2022-07-19T07:29:15Z</time>
      </trkpt>
      <trkpt lat="44.32632" lon="5.1984">
        <ele>641.8</ele>
        <time>2022-07-19T07:29:16Z</time>
      </trkpt>
      <trkpt lat="44.32633" lon="5.19842">
        <ele>641.9</ele>
        <time>2022-07-19T07:29:17Z</time>
      </trkpt>
      <trkpt lat="44.32633" lon="5.19844">
        <ele>642</ele>
        <time>2022-07-19T07:29:18Z</time>
      </trkpt>
      <trkpt lat="44.32634" lon="5.19846">
        <ele>642.1</ele>
        <time>2022-07-19T07:29:19Z</time>
      </trkpt>
      <trkpt lat="44.32634" lon="5.19848">
        <ele>642.2</ele>
        <time>2022-07-19T07:29:20Z</time>
      </trkpt>
      <trkpt lat="44.32634" lon="5.19852">
        <ele>642.3</ele>
        <time>2022-07-19T07:29:21Z</time>
      </trkpt>
      <trkpt lat="44.32634" lon="5.19853">
        <ele>642.4</ele>
        <time>2022-07-19T07:29:22Z</time>
      </trkpt>
      <trkpt lat="44.32633" lon="5.19856">
        <ele>642.5</ele>
        <time>2022-07-19T07:29:23Z</time>
      </trkpt>
      <trkpt lat="44.32633" lon="5.19858">
        <ele>642.6</ele>
        <time>2022-07-19T07:29:24Z</time>
      </trkpt>
      <trkpt lat="44.32633" lon="5.19862">
        <ele>642.7</ele>
        <time>2022-07-19T07:29:25Z</time>
      </trkpt>
      <trkpt lat="44.32634" lon="5.19864">
        <ele>642.8</ele>
        <time>2022-07-19T07:29:26Z</time>
      </trkpt>
      <trkpt lat="44.32635" lon="5.19868">
        <ele>642.9</ele>
        <time>2022-07-19T07:29:27Z</time>
      </trkpt>
      <trkpt lat="44.32636" lon="5.19869">
        <ele>643</ele>
        <time>2022-07-19T07:29:28Z</time>
      </trkpt>
      <trkpt lat="44.32638" lon="5.19871">
        <ele>643.1</ele>
        <time>2022-07-19T07:29:29Z</time>
      </trkpt>
      <trkpt lat="44.32639" lon="5.19872">
        <ele>643.2</ele>
        <time>2022-07-19T07:29:30Z</time>
      </trkpt>
      <trkpt lat="44.32641" lon="5.19875">
        <ele>643.3</ele>
        <time>2022-07-19T07:29:31Z</time>
      </trkpt>
      <trkpt lat="44.32642" lon="5.19875">
        <ele>643.4</ele>
        <time>2022-07-19T07:29:32Z</time>
      </trkpt>
      <trkpt lat="44.32645" lon="5.19877">
        <ele>643.5</ele>
        <time>2022-07-19T07:29:33Z</time>
      </trkpt>
      <trkpt lat="44.32645" lon="5.19877">
        <ele>643.6</ele>
        <time>2022-07-19T07:29:34Z</time>
      </trkpt>
      <trkpt lat="44.32647" lon="5.19879">
        <ele>643.6</ele>
        <time>2022-07-19T07:29:35Z</time>
      </trkpt>
      <trkpt lat="44.32648" lon="5.1988">
        <ele>643.7</ele>
        <time>2022-07-19T07:29:36Z</time>
      </trkpt>
      <trkpt lat="44.3265" lon="5.19883">
        <ele>643.8</ele>
        <time>2022-07-19T07:29:37Z</time>
      </trkpt>
      <trkpt lat="44.32651" lon="5.19884">
        <ele>643.9</ele>
        <time>2022-07-19T07:29:38Z</time>
      </trkpt>
      <trkpt lat="44.32653" lon="5.19886">
        <ele>644</ele>
        <time>2022-07-19T07:29:39Z</time>
      </trkpt>
      <trkpt lat="44.32654" lon="5.19886">
        <ele>644.1</ele>
        <time>2022-07-19T07:29:40Z</time>
      </trkpt>
      <trkpt lat="44.32656" lon="5.19888">
        <ele>644.2</ele>
        <time>2022-07-19T07:29:41Z</time>
      </trkpt>
      <trkpt lat="44.32657" lon="5.19889">
        <ele>644.3</ele>
        <time>2022-07-19T07:29:42Z</time>
      </trkpt>
      <trkpt lat="44.3266" lon="5.19891">
        <ele>644.4</ele>
        <time>2022-07-19T07:29:43Z</time>
      </trkpt>
      <trkpt lat="44.3266" lon="5.19892">
        <ele>644.4</ele>
        <time>2022-07-19T07:29:44Z</time>
      </trkpt>
      <trkpt lat="44.32662" lon="5.19895">
        <ele>644.6</ele>
        <time>2022-07-19T07:29:45Z</time>
      </trkpt>
      <trkpt lat="44.32663" lon="5.19896">
        <ele>644.6</ele>
        <time>2022-07-19T07:29:46Z</time>
      </trkpt>
      <trkpt lat="44.32664" lon="5.19897">
        <ele>644.7</ele>
        <time>2022-07-19T07:29:47Z</time>
      </trkpt>
      <trkpt lat="44.32666" lon="5.19899">
        <ele>644.8</ele>
        <time>2022-07-19T07:29:48Z</time>
      </trkpt>
      <trkpt lat="44.32668" lon="5.19901">
        <ele>645</ele>
        <time>2022-07-19T07:29:49Z</time>
      </trkpt>
      <trkpt lat="44.32669" lon="5.19902">
        <ele>645</ele>
        <time>2022-07-19T07:29:50Z</time>
      </trkpt>
      <trkpt lat="44.32671" lon="5.19904">
        <ele>645.2</ele>
        <time>2022-07-19T07:29:51Z</time>
      </trkpt>
      <trkpt lat="44.32672" lon="5.19905">
        <ele>645.2</ele>
        <time>2022-07-19T07:29:52Z</time>
      </trkpt>
      <trkpt lat="44.32674" lon="5.19908">
        <ele>645.4</ele>
        <time>2022-07-19T07:29:53Z</time>
      </trkpt>
      <trkpt lat="44.32675" lon="5.19909">
        <ele>645.4</ele>
        <time>2022-07-19T07:29:54Z</time>
      </trkpt>
      <trkpt lat="44.32677" lon="5.19911">
        <ele>645.6</ele>
        <time>2022-07-19T07:29:55Z</time>
      </trkpt>
      <trkpt lat="44.32678" lon="5.19912">
        <ele>645.7</ele>
        <time>2022-07-19T07:29:56Z</time>
      </trkpt>
      <trkpt lat="44.32681" lon="5.19915">
        <ele>645.9</ele>
        <time>2022-07-19T07:29:57Z</time>
      </trkpt>
      <trkpt lat="44.32682" lon="5.19916">
        <ele>646</ele>
        <time>2022-07-19T07:29:58Z</time>
      </trkpt>
      <trkpt lat="44.32684" lon="5.19919">
        <ele>646.1</ele>
        <time>2022-07-19T07:29:59Z</time>
      </trkpt>
      <trkpt lat="44.32685" lon="5.1992">
        <ele>646.2</ele>
        <time>2022-07-19T07:30:00Z</time>
      </trkpt>
      <trkpt lat="44.32687" lon="5.19922">
        <ele>646.3</ele>
        <time>2022-07-19T07:30:01Z</time>
      </trkpt>
      <trkpt lat="44.32688" lon="5.19923">
        <ele>646.4</ele>
        <time>2022-07-19T07:30:02Z</time>
      </trkpt>
      <trkpt lat="44.32689" lon="5.19925">
        <ele>646.5</ele>
        <time>2022-07-19T07:30:03Z</time>
      </trkpt>
      <trkpt lat="44.3269" lon="5.19927">
        <ele>646.5</ele>
        <time>2022-07-19T07:30:04Z</time>
      </trkpt>
      <trkpt lat="44.32692" lon="5.1993">
        <ele>646.7</ele>
        <time>2022-07-19T07:30:05Z</time>
      </trkpt>
      <trkpt lat="44.32692" lon="5.19931">
        <ele>646.7</ele>
        <time>2022-07-19T07:30:06Z</time>
      </trkpt>
      <trkpt lat="44.32693" lon="5.19935">
        <ele>646.9</ele>
        <time>2022-07-19T07:30:07Z</time>
      </trkpt>
      <trkpt lat="44.32694" lon="5.19936">
        <ele>646.9</ele>
        <time>2022-07-19T07:30:08Z</time>
      </trkpt>
      <trkpt lat="44.32695" lon="5.1994">
        <ele>647</ele>
        <time>2022-07-19T07:30:09Z</time>
      </trkpt>
      <trkpt lat="44.32696" lon="5.19941">
        <ele>647.1</ele>
        <time>2022-07-19T07:30:10Z</time>
      </trkpt>
      <trkpt lat="44.32697" lon="5.19946">
        <ele>647.2</ele>
        <time>2022-07-19T07:30:11Z</time>
      </trkpt>
      <trkpt lat="44.32698" lon="5.19947">
        <ele>647.3</ele>
        <time>2022-07-19T07:30:12Z</time>
      </trkpt>
      <trkpt lat="44.32698" lon="5.19951">
        <ele>647.4</ele>
        <time>2022-07-19T07:30:13Z</time>
      </trkpt>
      <trkpt lat="44.32699" lon="5.19952">
        <ele>647.4</ele>
        <time>2022-07-19T07:30:14Z</time>
      </trkpt>
      <trkpt lat="44.32699" lon="5.19955">
        <ele>647.5</ele>
        <time>2022-07-19T07:30:15Z</time>
      </trkpt>
      <trkpt lat="44.32699" lon="5.19957">
        <ele>647.5</ele>
        <time>2022-07-19T07:30:16Z</time>
      </trkpt>
      <trkpt lat="44.327" lon="5.19961">
        <ele>647.6</ele>
        <time>2022-07-19T07:30:17Z</time>
      </trkpt>
      <trkpt lat="44.327" lon="5.19962">
        <ele>647.7</ele>
        <time>2022-07-19T07:30:18Z</time>
      </trkpt>
      <trkpt lat="44.32701" lon="5.19964">
        <ele>647.8</ele>
        <time>2022-07-19T07:30:19Z</time>
      </trkpt>
      <trkpt lat="44.32702" lon="5.19966">
        <ele>647.8</ele>
        <time>2022-07-19T07:30:20Z</time>
      </trkpt>
      <trkpt lat="44.32702" lon="5.19968">
        <ele>647.9</ele>
        <time>2022-07-19T07:30:21Z</time>
      </trkpt>
      <trkpt lat="44.32704" lon="5.19969">
        <ele>647.9</ele>
        <time>2022-07-19T07:30:22Z</time>
      </trkpt>
      <trkpt lat="44.32705" lon="5.19971">
        <ele>648</ele>
        <time>2022-07-19T07:30:23Z</time>
      </trkpt>
      <trkpt lat="44.32706" lon="5.19973">
        <ele>648.1</ele>
        <time>2022-07-19T07:30:24Z</time>
      </trkpt>
      <trkpt lat="44.32708" lon="5.19975">
        <ele>648.2</ele>
        <time>2022-07-19T07:30:25Z</time>
      </trkpt>
      <trkpt lat="44.32709" lon="5.19976">
        <ele>648.3</ele>
        <time>2022-07-19T07:30:26Z</time>
      </trkpt>
      <trkpt lat="44.3271" lon="5.19978">
        <ele>648.3</ele>
        <time>2022-07-19T07:30:27Z</time>
      </trkpt>
      <trkpt lat="44.32711" lon="5.1998">
        <ele>648.4</ele>
        <time>2022-07-19T07:30:28Z</time>
      </trkpt>
      <trkpt lat="44.32712" lon="5.19984">
        <ele>648.5</ele>
        <time>2022-07-19T07:30:29Z</time>
      </trkpt>
      <trkpt lat="44.32712" lon="5.19985">
        <ele>648.6</ele>
        <time>2022-07-19T07:30:30Z</time>
      </trkpt>
      <trkpt lat="44.32713" lon="5.19989">
        <ele>648.7</ele>
        <time>2022-07-19T07:30:31Z</time>
      </trkpt>
      <trkpt lat="44.32714" lon="5.19991">
        <ele>648.8</ele>
        <time>2022-07-19T07:30:32Z</time>
      </trkpt>
      <trkpt lat="44.32715" lon="5.19995">
        <ele>648.9</ele>
        <time>2022-07-19T07:30:33Z</time>
      </trkpt>
      <trkpt lat="44.32715" lon="5.19996">
        <ele>649</ele>
        <time>2022-07-19T07:30:34Z</time>
      </trkpt>
      <trkpt lat="44.32716" lon="5.19998">
        <ele>649.1</ele>
        <time>2022-07-19T07:30:35Z</time>
      </trkpt>
      <trkpt lat="44.32717" lon="5.2">
        <ele>649.2</ele>
        <time>2022-07-19T07:30:36Z</time>
      </trkpt>
      <trkpt lat="44.32718" lon="5.20002">
        <ele>649.2</ele>
        <time>2022-07-19T07:30:37Z</time>
      </trkpt>
      <trkpt lat="44.32718" lon="5.20004">
        <ele>649.3</ele>
        <time>2022-07-19T07:30:38Z</time>
      </trkpt>
      <trkpt lat="44.32718" lon="5.20006">
        <ele>649.4</ele>
        <time>2022-07-19T07:30:39Z</time>
      </trkpt>
      <trkpt lat="44.32718" lon="5.20008">
        <ele>649.5</ele>
        <time>2022-07-19T07:30:40Z</time>
      </trkpt>
      <trkpt lat="44.32719" lon="5.2001">
        <ele>649.5</ele>
        <time>2022-07-19T07:30:41Z</time>
      </trkpt>
      <trkpt lat="44.3272" lon="5.20012">
        <ele>649.6</ele>
        <time>2022-07-19T07:30:42Z</time>
      </trkpt>
      <trkpt lat="44.32721" lon="5.20014">
        <ele>649.7</ele>
        <time>2022-07-19T07:30:43Z</time>
      </trkpt>
      <trkpt lat="44.32722" lon="5.20016">
        <ele>649.8</ele>
        <time>2022-07-19T07:30:44Z</time>
      </trkpt>
      <trkpt lat="44.32723" lon="5.20019">
        <ele>649.9</ele>
        <time>2022-07-19T07:30:45Z</time>
      </trkpt>
      <trkpt lat="44.32723" lon="5.2002">
        <ele>649.9</ele>
        <time>2022-07-19T07:30:46Z</time>
      </trkpt>
      <trkpt lat="44.32724" lon="5.20025">
        <ele>650.1</ele>
        <time>2022-07-19T07:30:47Z</time>
      </trkpt>
      <trkpt lat="44.32725" lon="5.20026">
        <ele>650.1</ele>
        <time>2022-07-19T07:30:48Z</time>
      </trkpt>
      <trkpt lat="44.32726" lon="5.20031">
        <ele>650.3</ele>
        <time>2022-07-19T07:30:49Z</time>
      </trkpt>
      <trkpt lat="44.32727" lon="5.20032">
        <ele>650.3</ele>
        <time>2022-07-19T07:30:50Z</time>
      </trkpt>
      <trkpt lat="44.32729" lon="5.20037">
        <ele>650.5</ele>
        <time>2022-07-19T07:30:51Z</time>
      </trkpt>
      <trkpt lat="44.32729" lon="5.20038">
        <ele>650.5</ele>
        <time>2022-07-19T07:30:52Z</time>
      </trkpt>
      <trkpt lat="44.32731" lon="5.20043">
        <ele>650.6</ele>
        <time>2022-07-19T07:30:53Z</time>
      </trkpt>
      <trkpt lat="44.32732" lon="5.20045">
        <ele>650.7</ele>
        <time>2022-07-19T07:30:54Z</time>
      </trkpt>
      <trkpt lat="44.32733" lon="5.20049">
        <ele>650.8</ele>
        <time>2022-07-19T07:30:55Z</time>
      </trkpt>
      <trkpt lat="44.32733" lon="5.20051">
        <ele>650.8</ele>
        <time>2022-07-19T07:30:56Z</time>
      </trkpt>
      <trkpt lat="44.32735" lon="5.20054">
        <ele>650.9</ele>
        <time>2022-07-19T07:30:57Z</time>
      </trkpt>
      <trkpt lat="44.32736" lon="5.20059">
        <ele>651</ele>
        <time>2022-07-19T07:30:58Z</time>
      </trkpt>
      <trkpt lat="44.32736" lon="5.2006">
        <ele>651.1</ele>
        <time>2022-07-19T07:30:59Z</time>
      </trkpt>
      <trkpt lat="44.32736" lon="5.20065">
        <ele>651.2</ele>
        <time>2022-07-19T07:31:00Z</time>
      </trkpt>
      <trkpt lat="44.32736" lon="5.20066">
        <ele>651.2</ele>
        <time>2022-07-19T07:31:01Z</time>
      </trkpt>
      <trkpt lat="44.32736" lon="5.20072">
        <ele>651.4</ele>
        <time>2022-07-19T07:31:02Z</time>
      </trkpt>
      <trkpt lat="44.32736" lon="5.20074">
        <ele>651.4</ele>
        <time>2022-07-19T07:31:03Z</time>
      </trkpt>
      <trkpt lat="44.32738" lon="5.20078">
        <ele>651.6</ele>
        <time>2022-07-19T07:31:04Z</time>
      </trkpt>
      <trkpt lat="44.32739" lon="5.2008">
        <ele>651.7</ele>
        <time>2022-07-19T07:31:05Z</time>
      </trkpt>
      <trkpt lat="44.32742" lon="5.20083">
        <ele>651.8</ele>
        <time>2022-07-19T07:31:06Z</time>
      </trkpt>
      <trkpt lat="44.32742" lon="5.20084">
        <ele>651.9</ele>
        <time>2022-07-19T07:31:07Z</time>
      </trkpt>
      <trkpt lat="44.32746" lon="5.20087">
        <ele>652</ele>
        <time>2022-07-19T07:31:08Z</time>
      </trkpt>
      <trkpt lat="44.32746" lon="5.20088">
        <ele>652.1</ele>
        <time>2022-07-19T07:31:09Z</time>
      </trkpt>
      <trkpt lat="44.3275" lon="5.2009">
        <ele>652.3</ele>
        <time>2022-07-19T07:31:10Z</time>
      </trkpt>
      <trkpt lat="44.32751" lon="5.20091">
        <ele>652.3</ele>
        <time>2022-07-19T07:31:11Z</time>
      </trkpt>
      <trkpt lat="44.32754" lon="5.20092">
        <ele>652.5</ele>
        <time>2022-07-19T07:31:12Z</time>
      </trkpt>
      <trkpt lat="44.32754" lon="5.20092">
        <ele>652.5</ele>
        <time>2022-07-19T07:31:13Z</time>
      </trkpt>
      <trkpt lat="44.32756" lon="5.20093">
        <ele>652.6</ele>
        <time>2022-07-19T07:31:14Z</time>
      </trkpt>
      <trkpt lat="44.32758" lon="5.20094">
        <ele>652.7</ele>
        <time>2022-07-19T07:31:15Z</time>
      </trkpt>
      <trkpt lat="44.32759" lon="5.20095">
        <ele>652.7</ele>
        <time>2022-07-19T07:31:16Z</time>
      </trkpt>
      <trkpt lat="44.3276" lon="5.20096">
        <ele>652.8</ele>
        <time>2022-07-19T07:31:17Z</time>
      </trkpt>
      <trkpt lat="44.32761" lon="5.20098">
        <ele>652.9</ele>
        <time>2022-07-19T07:31:18Z</time>
      </trkpt>
      <trkpt lat="44.32762" lon="5.201">
        <ele>653</ele>
        <time>2022-07-19T07:31:19Z</time>
      </trkpt>
      <trkpt lat="44.32764" lon="5.20103">
        <ele>653.1</ele>
        <time>2022-07-19T07:31:20Z</time>
      </trkpt>
      <trkpt lat="44.32764" lon="5.20104">
        <ele>653.2</ele>
        <time>2022-07-19T07:31:21Z</time>
      </trkpt>
      <trkpt lat="44.32765" lon="5.20107">
        <ele>653.3</ele>
        <time>2022-07-19T07:31:22Z</time>
      </trkpt>
      <trkpt lat="44.32766" lon="5.20109">
        <ele>653.3</ele>
        <time>2022-07-19T07:31:23Z</time>
      </trkpt>
      <trkpt lat="44.32767" lon="5.20112">
        <ele>653.4</ele>
        <time>2022-07-19T07:31:24Z</time>
      </trkpt>
      <trkpt lat="44.32768" lon="5.20113">
        <ele>653.5</ele>
        <time>2022-07-19T07:31:25Z</time>
      </trkpt>
      <trkpt lat="44.32768" lon="5.20116">
        <ele>653.6</ele>
        <time>2022-07-19T07:31:26Z</time>
      </trkpt>
      <trkpt lat="44.32769" lon="5.20117">
        <ele>653.6</ele>
        <time>2022-07-19T07:31:27Z</time>
      </trkpt>
      <trkpt lat="44.3277" lon="5.20119">
        <ele>653.7</ele>
        <time>2022-07-19T07:31:28Z</time>
      </trkpt>
      <trkpt lat="44.32771" lon="5.20121">
        <ele>653.8</ele>
        <time>2022-07-19T07:31:29Z</time>
      </trkpt>
      <trkpt lat="44.32772" lon="5.20126">
        <ele>653.9</ele>
        <time>2022-07-19T07:31:30Z</time>
      </trkpt>
      <trkpt lat="44.32773" lon="5.20127">
        <ele>654</ele>
        <time>2022-07-19T07:31:31Z</time>
      </trkpt>
      <trkpt lat="44.32774" lon="5.2013">
        <ele>654.1</ele>
        <time>2022-07-19T07:31:32Z</time>
      </trkpt>
      <trkpt lat="44.32775" lon="5.20132">
        <ele>654.2</ele>
        <time>2022-07-19T07:31:33Z</time>
      </trkpt>
      <trkpt lat="44.32775" lon="5.20135">
        <ele>654.3</ele>
        <time>2022-07-19T07:31:34Z</time>
      </trkpt>
      <trkpt lat="44.32777" lon="5.2014">
        <ele>654.6</ele>
        <time>2022-07-19T07:31:35Z</time>
      </trkpt>
      <trkpt lat="44.32778" lon="5.20142">
        <ele>654.6</ele>
        <time>2022-07-19T07:31:36Z</time>
      </trkpt>
      <trkpt lat="44.32781" lon="5.20145">
        <ele>654.9</ele>
        <time>2022-07-19T07:31:37Z</time>
      </trkpt>
      <trkpt lat="44.32782" lon="5.20146">
        <ele>654.9</ele>
        <time>2022-07-19T07:31:38Z</time>
      </trkpt>
      <trkpt lat="44.32786" lon="5.20147">
        <ele>655.2</ele>
        <time>2022-07-19T07:31:39Z</time>
      </trkpt>
      <trkpt lat="44.32787" lon="5.20148">
        <ele>655.2</ele>
        <time>2022-07-19T07:31:40Z</time>
      </trkpt>
      <trkpt lat="44.3279" lon="5.20148">
        <ele>655.4</ele>
        <time>2022-07-19T07:31:41Z</time>
      </trkpt>
      <trkpt lat="44.32792" lon="5.20148">
        <ele>655.5</ele>
        <time>2022-07-19T07:31:42Z</time>
      </trkpt>
      <trkpt lat="44.32795" lon="5.20145">
        <ele>655.7</ele>
        <time>2022-07-19T07:31:43Z</time>
      </trkpt>
      <trkpt lat="44.32796" lon="5.20145">
        <ele>655.7</ele>
        <time>2022-07-19T07:31:44Z</time>
      </trkpt>
      <trkpt lat="44.32798" lon="5.2014">
        <ele>655.9</ele>
        <time>2022-07-19T07:31:45Z</time>
      </trkpt>
      <trkpt lat="44.32799" lon="5.20139">
        <ele>655.9</ele>
        <time>2022-07-19T07:31:46Z</time>
      </trkpt>
      <trkpt lat="44.328" lon="5.20135">
        <ele>656</ele>
        <time>2022-07-19T07:31:47Z</time>
      </trkpt>
      <trkpt lat="44.328" lon="5.20131">
        <ele>656.2</ele>
        <time>2022-07-19T07:31:48Z</time>
      </trkpt>
      <trkpt lat="44.328" lon="5.20126">
        <ele>656.3</ele>
        <time>2022-07-19T07:31:49Z</time>
      </trkpt>
      <trkpt lat="44.328" lon="5.20125">
        <ele>656.3</ele>
        <time>2022-07-19T07:31:50Z</time>
      </trkpt>
      <trkpt lat="44.32801" lon="5.20121">
        <ele>656.4</ele>
        <time>2022-07-19T07:31:51Z</time>
      </trkpt>
      <trkpt lat="44.32801" lon="5.20119">
        <ele>656.5</ele>
        <time>2022-07-19T07:31:52Z</time>
      </trkpt>
      <trkpt lat="44.32801" lon="5.20114">
        <ele>656.6</ele>
        <time>2022-07-19T07:31:53Z</time>
      </trkpt>
      <trkpt lat="44.32801" lon="5.20113">
        <ele>656.7</ele>
        <time>2022-07-19T07:31:54Z</time>
      </trkpt>
      <trkpt lat="44.32802" lon="5.20109">
        <ele>656.8</ele>
        <time>2022-07-19T07:31:55Z</time>
      </trkpt>
      <trkpt lat="44.32802" lon="5.20107">
        <ele>656.8</ele>
        <time>2022-07-19T07:31:56Z</time>
      </trkpt>
      <trkpt lat="44.32803" lon="5.20102">
        <ele>657</ele>
        <time>2022-07-19T07:31:57Z</time>
      </trkpt>
      <trkpt lat="44.32803" lon="5.20101">
        <ele>657</ele>
        <time>2022-07-19T07:31:58Z</time>
      </trkpt>
      <trkpt lat="44.32804" lon="5.20096">
        <ele>657.2</ele>
        <time>2022-07-19T07:31:59Z</time>
      </trkpt>
      <trkpt lat="44.32804" lon="5.20095">
        <ele>657.2</ele>
        <time>2022-07-19T07:32:00Z</time>
      </trkpt>
      <trkpt lat="44.32804" lon="5.2009">
        <ele>657.4</ele>
        <time>2022-07-19T07:32:01Z</time>
      </trkpt>
      <trkpt lat="44.32804" lon="5.20088">
        <ele>657.5</ele>
        <time>2022-07-19T07:32:02Z</time>
      </trkpt>
      <trkpt lat="44.32804" lon="5.20083">
        <ele>657.6</ele>
        <time>2022-07-19T07:32:03Z</time>
      </trkpt>
      <trkpt lat="44.32804" lon="5.20081">
        <ele>657.7</ele>
        <time>2022-07-19T07:32:04Z</time>
      </trkpt>
      <trkpt lat="44.32803" lon="5.20076">
        <ele>657.9</ele>
        <time>2022-07-19T07:32:05Z</time>
      </trkpt>
      <trkpt lat="44.32803" lon="5.20074">
        <ele>658</ele>
        <time>2022-07-19T07:32:06Z</time>
      </trkpt>
      <trkpt lat="44.32803" lon="5.2007">
        <ele>658.2</ele>
        <time>2022-07-19T07:32:07Z</time>
      </trkpt>
      <trkpt lat="44.32803" lon="5.20065">
        <ele>658.4</ele>
        <time>2022-07-19T07:32:08Z</time>
      </trkpt>
      <trkpt lat="44.32803" lon="5.20063">
        <ele>658.5</ele>
        <time>2022-07-19T07:32:09Z</time>
      </trkpt>
      <trkpt lat="44.32803" lon="5.20058">
        <ele>658.7</ele>
        <time>2022-07-19T07:32:10Z</time>
      </trkpt>
      <trkpt lat="44.32803" lon="5.20056">
        <ele>658.8</ele>
        <time>2022-07-19T07:32:11Z</time>
      </trkpt>
      <trkpt lat="44.32804" lon="5.2005">
        <ele>659</ele>
        <time>2022-07-19T07:32:12Z</time>
      </trkpt>
      <trkpt lat="44.32804" lon="5.20049">
        <ele>659.1</ele>
        <time>2022-07-19T07:32:13Z</time>
      </trkpt>
      <trkpt lat="44.32804" lon="5.20044">
        <ele>659.3</ele>
        <time>2022-07-19T07:32:14Z</time>
      </trkpt>
      <trkpt lat="44.32804" lon="5.20042">
        <ele>659.4</ele>
        <time>2022-07-19T07:32:15Z</time>
      </trkpt>
      <trkpt lat="44.32805" lon="5.20037">
        <ele>659.6</ele>
        <time>2022-07-19T07:32:16Z</time>
      </trkpt>
      <trkpt lat="44.32805" lon="5.20035">
        <ele>659.7</ele>
        <time>2022-07-19T07:32:17Z</time>
      </trkpt>
      <trkpt lat="44.32806" lon="5.2003">
        <ele>659.9</ele>
        <time>2022-07-19T07:32:18Z</time>
      </trkpt>
      <trkpt lat="44.32806" lon="5.20029">
        <ele>660</ele>
        <time>2022-07-19T07:32:19Z</time>
      </trkpt>
      <trkpt lat="44.32807" lon="5.20025">
        <ele>660.1</ele>
        <time>2022-07-19T07:32:20Z</time>
      </trkpt>
      <trkpt lat="44.32807" lon="5.20024">
        <ele>660.2</ele>
        <time>2022-07-19T07:32:21Z</time>
      </trkpt>
      <trkpt lat="44.32809" lon="5.2002">
        <ele>660.4</ele>
        <time>2022-07-19T07:32:22Z</time>
      </trkpt>
      <trkpt lat="44.32809" lon="5.20019">
        <ele>660.5</ele>
        <time>2022-07-19T07:32:23Z</time>
      </trkpt>
      <trkpt lat="44.3281" lon="5.20017">
        <ele>660.6</ele>
        <time>2022-07-19T07:32:24Z</time>
      </trkpt>
      <trkpt lat="44.32811" lon="5.20015">
        <ele>660.8</ele>
        <time>2022-07-19T07:32:25Z</time>
      </trkpt>
      <trkpt lat="44.32814" lon="5.20014">
        <ele>661</ele>
        <time>2022-07-19T07:32:26Z</time>
      </trkpt>
      <trkpt lat="44.32815" lon="5.20013">
        <ele>661.1</ele>
        <time>2022-07-19T07:32:27Z</time>
      </trkpt>
      <trkpt lat="44.32817" lon="5.20012">
        <ele>661.2</ele>
        <time>2022-07-19T07:32:28Z</time>
      </trkpt>
      <trkpt lat="44.32818" lon="5.20012">
        <ele>661.4</ele>
        <time>2022-07-19T07:32:29Z</time>
      </trkpt>
      <trkpt lat="44.3282" lon="5.20012">
        <ele>661.6</ele>
        <time>2022-07-19T07:32:30Z</time>
      </trkpt>
      <trkpt lat="44.32822" lon="5.20011">
        <ele>661.7</ele>
        <time>2022-07-19T07:32:31Z</time>
      </trkpt>
      <trkpt lat="44.32823" lon="5.20011">
        <ele>661.9</ele>
        <time>2022-07-19T07:32:32Z</time>
      </trkpt>
      <trkpt lat="44.32825" lon="5.2001">
        <ele>662</ele>
        <time>2022-07-19T07:32:33Z</time>
      </trkpt>
      <trkpt lat="44.32827" lon="5.20008">
        <ele>662.3</ele>
        <time>2022-07-19T07:32:34Z</time>
      </trkpt>
      <trkpt lat="44.32828" lon="5.20007">
        <ele>662.4</ele>
        <time>2022-07-19T07:32:35Z</time>
      </trkpt>
      <trkpt lat="44.3283" lon="5.20004">
        <ele>662.7</ele>
        <time>2022-07-19T07:32:36Z</time>
      </trkpt>
      <trkpt lat="44.32831" lon="5.20003">
        <ele>662.7</ele>
        <time>2022-07-19T07:32:37Z</time>
      </trkpt>
      <trkpt lat="44.32833" lon="5.2">
        <ele>663</ele>
        <time>2022-07-19T07:32:38Z</time>
      </trkpt>
      <trkpt lat="44.32833" lon="5.19999">
        <ele>663.1</ele>
        <time>2022-07-19T07:32:39Z</time>
      </trkpt>
      <trkpt lat="44.32834" lon="5.19997">
        <ele>663.3</ele>
        <time>2022-07-19T07:32:40Z</time>
      </trkpt>
      <trkpt lat="44.32835" lon="5.19995">
        <ele>663.4</ele>
        <time>2022-07-19T07:32:41Z</time>
      </trkpt>
      <trkpt lat="44.32837" lon="5.19991">
        <ele>663.7</ele>
        <time>2022-07-19T07:32:42Z</time>
      </trkpt>
      <trkpt lat="44.32837" lon="5.1999">
        <ele>663.8</ele>
        <time>2022-07-19T07:32:43Z</time>
      </trkpt>
      <trkpt lat="44.32838" lon="5.19986">
        <ele>664.1</ele>
        <time>2022-07-19T07:32:44Z</time>
      </trkpt>
      <trkpt lat="44.32838" lon="5.19985">
        <ele>664.2</ele>
        <time>2022-07-19T07:32:45Z</time>
      </trkpt>
      <trkpt lat="44.32839" lon="5.19982">
        <ele>664.4</ele>
        <time>2022-07-19T07:32:46Z</time>
      </trkpt>
      <trkpt lat="44.32839" lon="5.1998">
        <ele>664.5</ele>
        <time>2022-07-19T07:32:47Z</time>
      </trkpt>
      <trkpt lat="44.32839" lon="5.19979">
        <ele>664.6</ele>
        <time>2022-07-19T07:32:48Z</time>
      </trkpt>
      <trkpt lat="44.3284" lon="5.19978">
        <ele>664.7</ele>
        <time>2022-07-19T07:32:49Z</time>
      </trkpt>
      <trkpt lat="44.3284" lon="5.19977">
        <ele>664.8</ele>
        <time>2022-07-19T07:32:50Z</time>
      </trkpt>
      <trkpt lat="44.32841" lon="5.19975">
        <ele>664.9</ele>
        <time>2022-07-19T07:32:51Z</time>
      </trkpt>
      <trkpt lat="44.32842" lon="5.19972">
        <ele>665.1</ele>
        <time>2022-07-19T07:32:52Z</time>
      </trkpt>
      <trkpt lat="44.32842" lon="5.19971">
        <ele>665.2</ele>
        <time>2022-07-19T07:32:53Z</time>
      </trkpt>
      <trkpt lat="44.32843" lon="5.1997">
        <ele>665.3</ele>
        <time>2022-07-19T07:32:54Z</time>
      </trkpt>
      <trkpt lat="44.32844" lon="5.19969">
        <ele>665.5</ele>
        <time>2022-07-19T07:32:55Z</time>
      </trkpt>
      <trkpt lat="44.32845" lon="5.19967">
        <ele>665.7</ele>
        <time>2022-07-19T07:32:56Z</time>
      </trkpt>
      <trkpt lat="44.32847" lon="5.19965">
        <ele>665.8</ele>
        <time>2022-07-19T07:32:57Z</time>
      </trkpt>
      <trkpt lat="44.32848" lon="5.19964">
        <ele>666</ele>
        <time>2022-07-19T07:32:58Z</time>
      </trkpt>
      <trkpt lat="44.32849" lon="5.19963">
        <ele>666.1</ele>
        <time>2022-07-19T07:32:59Z</time>
      </trkpt>
      <trkpt lat="44.32851" lon="5.19961">
        <ele>666.3</ele>
        <time>2022-07-19T07:33:00Z</time>
      </trkpt>
      <trkpt lat="44.32853" lon="5.19959">
        <ele>666.6</ele>
        <time>2022-07-19T07:33:01Z</time>
      </trkpt>
      <trkpt lat="44.32854" lon="5.19958">
        <ele>666.7</ele>
        <time>2022-07-19T07:33:02Z</time>
      </trkpt>
      <trkpt lat="44.32855" lon="5.19957">
        <ele>666.8</ele>
        <time>2022-07-19T07:33:03Z</time>
      </trkpt>
      <trkpt lat="44.32857" lon="5.19955">
        <ele>667</ele>
        <time>2022-07-19T07:33:04Z</time>
      </trkpt>
      <trkpt lat="44.32858" lon="5.19955">
        <ele>667.2</ele>
        <time>2022-07-19T07:33:05Z</time>
      </trkpt>
      <trkpt lat="44.3286" lon="5.19955">
        <ele>667.3</ele>
        <time>2022-07-19T07:33:06Z</time>
      </trkpt>
      <trkpt lat="44.32863" lon="5.19955">
        <ele>667.6</ele>
        <time>2022-07-19T07:33:07Z</time>
      </trkpt>
      <trkpt lat="44.32864" lon="5.19955">
        <ele>667.7</ele>
        <time>2022-07-19T07:33:08Z</time>
      </trkpt>
      <trkpt lat="44.32867" lon="5.19956">
        <ele>668</ele>
        <time>2022-07-19T07:33:09Z</time>
      </trkpt>
      <trkpt lat="44.32868" lon="5.19956">
        <ele>668.1</ele>
        <time>2022-07-19T07:33:10Z</time>
      </trkpt>
      <trkpt lat="44.32871" lon="5.19957">
        <ele>668.3</ele>
        <time>2022-07-19T07:33:11Z</time>
      </trkpt>
      <trkpt lat="44.32871" lon="5.19957">
        <ele>668.4</ele>
        <time>2022-07-19T07:33:12Z</time>
      </trkpt>
      <trkpt lat="44.32873" lon="5.19958">
        <ele>668.5</ele>
        <time>2022-07-19T07:33:13Z</time>
      </trkpt>
      <trkpt lat="44.32874" lon="5.19959">
        <ele>668.6</ele>
        <time>2022-07-19T07:33:14Z</time>
      </trkpt>
      <trkpt lat="44.32876" lon="5.19961">
        <ele>668.8</ele>
        <time>2022-07-19T07:33:15Z</time>
      </trkpt>
      <trkpt lat="44.32877" lon="5.19962">
        <ele>668.9</ele>
        <time>2022-07-19T07:33:16Z</time>
      </trkpt>
      <trkpt lat="44.32878" lon="5.19963">
        <ele>669</ele>
        <time>2022-07-19T07:33:17Z</time>
      </trkpt>
      <trkpt lat="44.32879" lon="5.19965">
        <ele>669.1</ele>
        <time>2022-07-19T07:33:18Z</time>
      </trkpt>
      <trkpt lat="44.32881" lon="5.19966">
        <ele>669.2</ele>
        <time>2022-07-19T07:33:19Z</time>
      </trkpt>
      <trkpt lat="44.32882" lon="5.19968">
        <ele>669.4</ele>
        <time>2022-07-19T07:33:20Z</time>
      </trkpt>
      <trkpt lat="44.32884" lon="5.19969">
        <ele>669.5</ele>
        <time>2022-07-19T07:33:21Z</time>
      </trkpt>
      <trkpt lat="44.32884" lon="5.1997">
        <ele>669.6</ele>
        <time>2022-07-19T07:33:22Z</time>
      </trkpt>
      <trkpt lat="44.32885" lon="5.19971">
        <ele>669.7</ele>
        <time>2022-07-19T07:33:23Z</time>
      </trkpt>
      <trkpt lat="44.32886" lon="5.19973">
        <ele>669.8</ele>
        <time>2022-07-19T07:33:24Z</time>
      </trkpt>
      <trkpt lat="44.32887" lon="5.19974">
        <ele>669.9</ele>
        <time>2022-07-19T07:33:25Z</time>
      </trkpt>
      <trkpt lat="44.32888" lon="5.19975">
        <ele>670.1</ele>
        <time>2022-07-19T07:33:26Z</time>
      </trkpt>
      <trkpt lat="44.32889" lon="5.19977">
        <ele>670.2</ele>
        <time>2022-07-19T07:33:27Z</time>
      </trkpt>
      <trkpt lat="44.32891" lon="5.19978">
        <ele>670.4</ele>
        <time>2022-07-19T07:33:28Z</time>
      </trkpt>
      <trkpt lat="44.32892" lon="5.19979">
        <ele>670.5</ele>
        <time>2022-07-19T07:33:29Z</time>
      </trkpt>
      <trkpt lat="44.32893" lon="5.19981">
        <ele>670.7</ele>
        <time>2022-07-19T07:33:30Z</time>
      </trkpt>
      <trkpt lat="44.32894" lon="5.19982">
        <ele>670.8</ele>
        <time>2022-07-19T07:33:31Z</time>
      </trkpt>
      <trkpt lat="44.32893" lon="5.19983">
        <ele>670.8</ele>
        <time>2022-07-19T07:33:32Z</time>
      </trkpt>
      <trkpt lat="44.32893" lon="5.19986">
        <ele>671</ele>
        <time>2022-07-19T07:33:34Z</time>
      </trkpt>
      <trkpt lat="44.32893" lon="5.19987">
        <ele>671.1</ele>
        <time>2022-07-19T07:33:35Z</time>
      </trkpt>
      <trkpt lat="44.32894" lon="5.19988">
        <ele>671.2</ele>
        <time>2022-07-19T07:33:36Z</time>
      </trkpt>
      <trkpt lat="44.32894" lon="5.1999">
        <ele>671.3</ele>
        <time>2022-07-19T07:33:37Z</time>
      </trkpt>
      <trkpt lat="44.32894" lon="5.19991">
        <ele>671.4</ele>
        <time>2022-07-19T07:33:38Z</time>
      </trkpt>
      <trkpt lat="44.32895" lon="5.19993">
        <ele>671.5</ele>
        <time>2022-07-19T07:33:39Z</time>
      </trkpt>
      <trkpt lat="44.32894" lon="5.19994">
        <ele>671.6</ele>
        <time>2022-07-19T07:33:40Z</time>
      </trkpt>
      <trkpt lat="44.32894" lon="5.19995">
        <ele>671.6</ele>
        <time>2022-07-19T07:33:41Z</time>
      </trkpt>
      <trkpt lat="44.32894" lon="5.19995">
        <ele>671.7</ele>
        <time>2022-07-19T07:33:42Z</time>
      </trkpt>
      <trkpt lat="44.32894" lon="5.19997">
        <ele>671.8</ele>
        <time>2022-07-19T07:33:43Z</time>
      </trkpt>
      <trkpt lat="44.32894" lon="5.19999">
        <ele>671.9</ele>
        <time>2022-07-19T07:33:44Z</time>
      </trkpt>
      <trkpt lat="44.32894" lon="5.20001">
        <ele>672</ele>
        <time>2022-07-19T07:33:45Z</time>
      </trkpt>
      <trkpt lat="44.32893" lon="5.20002">
        <ele>672.1</ele>
        <time>2022-07-19T07:33:46Z</time>
      </trkpt>
      <trkpt lat="44.32893" lon="5.20003">
        <ele>672.2</ele>
        <time>2022-07-19T07:33:47Z</time>
      </trkpt>
      <trkpt lat="44.32894" lon="5.20004">
        <ele>672.2</ele>
        <time>2022-07-19T07:33:48Z</time>
      </trkpt>
      <trkpt lat="44.32894" lon="5.20006">
        <ele>672.3</ele>
        <time>2022-07-19T07:33:49Z</time>
      </trkpt>
      <trkpt lat="44.32895" lon="5.20008">
        <ele>672.5</ele>
        <time>2022-07-19T07:33:50Z</time>
      </trkpt>
      <trkpt lat="44.32896" lon="5.20009">
        <ele>672.6</ele>
        <time>2022-07-19T07:33:51Z</time>
      </trkpt>
      <trkpt lat="44.32897" lon="5.2001">
        <ele>672.7</ele>
        <time>2022-07-19T07:33:52Z</time>
      </trkpt>
      <trkpt lat="44.32898" lon="5.20012">
        <ele>672.8</ele>
        <time>2022-07-19T07:33:53Z</time>
      </trkpt>
      <trkpt lat="44.32899" lon="5.20013">
        <ele>672.9</ele>
        <time>2022-07-19T07:33:54Z</time>
      </trkpt>
      <trkpt lat="44.32901" lon="5.20016">
        <ele>673.2</ele>
        <time>2022-07-19T07:33:55Z</time>
      </trkpt>
      <trkpt lat="44.32902" lon="5.20017">
        <ele>673.3</ele>
        <time>2022-07-19T07:33:56Z</time>
      </trkpt>
      <trkpt lat="44.32905" lon="5.20019">
        <ele>673.6</ele>
        <time>2022-07-19T07:33:57Z</time>
      </trkpt>
      <trkpt lat="44.32906" lon="5.2002">
        <ele>673.7</ele>
        <time>2022-07-19T07:33:58Z</time>
      </trkpt>
      <trkpt lat="44.32908" lon="5.20022">
        <ele>674</ele>
        <time>2022-07-19T07:33:59Z</time>
      </trkpt>
      <trkpt lat="44.32909" lon="5.20023">
        <ele>674.1</ele>
        <time>2022-07-19T07:34:00Z</time>
      </trkpt>
      <trkpt lat="44.32912" lon="5.20025">
        <ele>674.3</ele>
        <time>2022-07-19T07:34:01Z</time>
      </trkpt>
      <trkpt lat="44.32913" lon="5.20026">
        <ele>674.4</ele>
        <time>2022-07-19T07:34:02Z</time>
      </trkpt>
      <trkpt lat="44.32915" lon="5.20028">
        <ele>674.7</ele>
        <time>2022-07-19T07:34:03Z</time>
      </trkpt>
      <trkpt lat="44.32916" lon="5.20029">
        <ele>674.8</ele>
        <time>2022-07-19T07:34:04Z</time>
      </trkpt>
      <trkpt lat="44.32919" lon="5.20031">
        <ele>675.1</ele>
        <time>2022-07-19T07:34:05Z</time>
      </trkpt>
      <trkpt lat="44.3292" lon="5.20032">
        <ele>675.2</ele>
        <time>2022-07-19T07:34:06Z</time>
      </trkpt>
      <trkpt lat="44.32923" lon="5.20034">
        <ele>675.5</ele>
        <time>2022-07-19T07:34:07Z</time>
      </trkpt>
      <trkpt lat="44.32924" lon="5.20035">
        <ele>675.6</ele>
        <time>2022-07-19T07:34:08Z</time>
      </trkpt>
      <trkpt lat="44.32925" lon="5.20037">
        <ele>675.8</ele>
        <time>2022-07-19T07:34:09Z</time>
      </trkpt>
      <trkpt lat="44.32927" lon="5.20038">
        <ele>675.9</ele>
        <time>2022-07-19T07:34:10Z</time>
      </trkpt>
      <trkpt lat="44.32929" lon="5.2004">
        <ele>676.2</ele>
        <time>2022-07-19T07:34:11Z</time>
      </trkpt>
      <trkpt lat="44.3293" lon="5.20041">
        <ele>676.3</ele>
        <time>2022-07-19T07:34:12Z</time>
      </trkpt>
      <trkpt lat="44.32931" lon="5.20043">
        <ele>676.4</ele>
        <time>2022-07-19T07:34:13Z</time>
      </trkpt>
      <trkpt lat="44.32932" lon="5.20044">
        <ele>676.6</ele>
        <time>2022-07-19T07:34:14Z</time>
      </trkpt>
      <trkpt lat="44.32933" lon="5.20046">
        <ele>676.8</ele>
        <time>2022-07-19T07:34:15Z</time>
      </trkpt>
      <trkpt lat="44.32934" lon="5.20048">
        <ele>676.9</ele>
        <time>2022-07-19T07:34:16Z</time>
      </trkpt>
      <trkpt lat="44.32935" lon="5.2005">
        <ele>677.1</ele>
        <time>2022-07-19T07:34:17Z</time>
      </trkpt>
      <trkpt lat="44.32937" lon="5.20052">
        <ele>677.3</ele>
        <time>2022-07-19T07:34:18Z</time>
      </trkpt>
      <trkpt lat="44.32937" lon="5.20054">
        <ele>677.4</ele>
        <time>2022-07-19T07:34:19Z</time>
      </trkpt>
      <trkpt lat="44.32937" lon="5.20055">
        <ele>677.5</ele>
        <time>2022-07-19T07:34:20Z</time>
      </trkpt>
      <trkpt lat="44.32937" lon="5.20057">
        <ele>677.6</ele>
        <time>2022-07-19T07:34:21Z</time>
      </trkpt>
      <trkpt lat="44.32938" lon="5.20059">
        <ele>677.8</ele>
        <time>2022-07-19T07:34:22Z</time>
      </trkpt>
      <trkpt lat="44.32938" lon="5.20062">
        <ele>678</ele>
        <time>2022-07-19T07:34:23Z</time>
      </trkpt>
      <trkpt lat="44.32938" lon="5.20063">
        <ele>678</ele>
        <time>2022-07-19T07:34:24Z</time>
      </trkpt>
      <trkpt lat="44.32938" lon="5.20064">
        <ele>678.1</ele>
        <time>2022-07-19T07:34:25Z</time>
      </trkpt>
      <trkpt lat="44.32938" lon="5.20065">
        <ele>678.2</ele>
        <time>2022-07-19T07:34:26Z</time>
      </trkpt>
      <trkpt lat="44.32938" lon="5.20066">
        <ele>678.2</ele>
        <time>2022-07-19T07:34:27Z</time>
      </trkpt>
      <trkpt lat="44.32938" lon="5.20067">
        <ele>678.3</ele>
        <time>2022-07-19T07:34:28Z</time>
      </trkpt>
      <trkpt lat="44.32938" lon="5.20069">
        <ele>678.4</ele>
        <time>2022-07-19T07:34:29Z</time>
      </trkpt>
      <trkpt lat="44.32938" lon="5.2007">
        <ele>678.5</ele>
        <time>2022-07-19T07:34:30Z</time>
      </trkpt>
      <trkpt lat="44.32938" lon="5.20072">
        <ele>678.6</ele>
        <time>2022-07-19T07:34:31Z</time>
      </trkpt>
      <trkpt lat="44.32938" lon="5.20073">
        <ele>678.7</ele>
        <time>2022-07-19T07:34:32Z</time>
      </trkpt>
      <trkpt lat="44.32937" lon="5.20074">
        <ele>678.8</ele>
        <time>2022-07-19T07:34:33Z</time>
      </trkpt>
      <trkpt lat="44.32937" lon="5.20075">
        <ele>678.8</ele>
        <time>2022-07-19T07:34:34Z</time>
      </trkpt>
      <trkpt lat="44.32936" lon="5.20077">
        <ele>679</ele>
        <time>2022-07-19T07:34:35Z</time>
      </trkpt>
      <trkpt lat="44.32935" lon="5.20079">
        <ele>679.1</ele>
        <time>2022-07-19T07:34:36Z</time>
      </trkpt>
      <trkpt lat="44.32934" lon="5.20081">
        <ele>679.3</ele>
        <time>2022-07-19T07:34:37Z</time>
      </trkpt>
      <trkpt lat="44.32933" lon="5.20083">
        <ele>679.4</ele>
        <time>2022-07-19T07:34:38Z</time>
      </trkpt>
      <trkpt lat="44.32933" lon="5.20085">
        <ele>679.5</ele>
        <time>2022-07-19T07:34:39Z</time>
      </trkpt>
      <trkpt lat="44.32932" lon="5.20087">
        <ele>679.7</ele>
        <time>2022-07-19T07:34:40Z</time>
      </trkpt>
      <trkpt lat="44.32931" lon="5.2009">
        <ele>679.8</ele>
        <time>2022-07-19T07:34:41Z</time>
      </trkpt>
      <trkpt lat="44.32931" lon="5.20092">
        <ele>679.9</ele>
        <time>2022-07-19T07:34:42Z</time>
      </trkpt>
      <trkpt lat="44.32931" lon="5.20094">
        <ele>680</ele>
        <time>2022-07-19T07:34:43Z</time>
      </trkpt>
      <trkpt lat="44.3293" lon="5.20095">
        <ele>680.1</ele>
        <time>2022-07-19T07:34:44Z</time>
      </trkpt>
      <trkpt lat="44.3293" lon="5.20097">
        <ele>680.3</ele>
        <time>2022-07-19T07:34:45Z</time>
      </trkpt>
      <trkpt lat="44.32929" lon="5.20099">
        <ele>680.4</ele>
        <time>2022-07-19T07:34:46Z</time>
      </trkpt>
      <trkpt lat="44.32928" lon="5.20101">
        <ele>680.5</ele>
        <time>2022-07-19T07:34:47Z</time>
      </trkpt>
      <trkpt lat="44.32928" lon="5.20104">
        <ele>680.6</ele>
        <time>2022-07-19T07:34:48Z</time>
      </trkpt>
      <trkpt lat="44.32928" lon="5.20106">
        <ele>680.7</ele>
        <time>2022-07-19T07:34:49Z</time>
      </trkpt>
      <trkpt lat="44.32927" lon="5.20108">
        <ele>680.8</ele>
        <time>2022-07-19T07:34:50Z</time>
      </trkpt>
      <trkpt lat="44.32927" lon="5.2011">
        <ele>680.9</ele>
        <time>2022-07-19T07:34:51Z</time>
      </trkpt>
      <trkpt lat="44.32926" lon="5.20113">
        <ele>681.1</ele>
        <time>2022-07-19T07:34:52Z</time>
      </trkpt>
      <trkpt lat="44.32926" lon="5.20115">
        <ele>681.2</ele>
        <time>2022-07-19T07:34:53Z</time>
      </trkpt>
      <trkpt lat="44.32925" lon="5.20117">
        <ele>681.3</ele>
        <time>2022-07-19T07:34:54Z</time>
      </trkpt>
      <trkpt lat="44.32925" lon="5.20119">
        <ele>681.4</ele>
        <time>2022-07-19T07:34:55Z</time>
      </trkpt>
      <trkpt lat="44.32924" lon="5.20124">
        <ele>681.6</ele>
        <time>2022-07-19T07:34:56Z</time>
      </trkpt>
      <trkpt lat="44.32924" lon="5.20125">
        <ele>681.7</ele>
        <time>2022-07-19T07:34:57Z</time>
      </trkpt>
      <trkpt lat="44.32924" lon="5.20129">
        <ele>681.9</ele>
        <time>2022-07-19T07:34:58Z</time>
      </trkpt>
      <trkpt lat="44.32924" lon="5.2013">
        <ele>681.9</ele>
        <time>2022-07-19T07:34:59Z</time>
      </trkpt>
      <trkpt lat="44.32924" lon="5.20133">
        <ele>682</ele>
        <time>2022-07-19T07:35:00Z</time>
      </trkpt>
      <trkpt lat="44.32924" lon="5.20135">
        <ele>682.2</ele>
        <time>2022-07-19T07:35:01Z</time>
      </trkpt>
      <trkpt lat="44.32924" lon="5.20139">
        <ele>682.4</ele>
        <time>2022-07-19T07:35:02Z</time>
      </trkpt>
      <trkpt lat="44.32924" lon="5.20141">
        <ele>682.4</ele>
        <time>2022-07-19T07:35:03Z</time>
      </trkpt>
      <trkpt lat="44.32924" lon="5.20144">
        <ele>682.5</ele>
        <time>2022-07-19T07:35:04Z</time>
      </trkpt>
      <trkpt lat="44.32924" lon="5.20146">
        <ele>682.6</ele>
        <time>2022-07-19T07:35:05Z</time>
      </trkpt>
      <trkpt lat="44.32924" lon="5.20149">
        <ele>682.8</ele>
        <time>2022-07-19T07:35:06Z</time>
      </trkpt>
      <trkpt lat="44.32924" lon="5.2015">
        <ele>682.9</ele>
        <time>2022-07-19T07:35:07Z</time>
      </trkpt>
      <trkpt lat="44.32924" lon="5.20152">
        <ele>683</ele>
        <time>2022-07-19T07:35:08Z</time>
      </trkpt>
      <trkpt lat="44.32925" lon="5.20156">
        <ele>683.2</ele>
        <time>2022-07-19T07:35:09Z</time>
      </trkpt>
      <trkpt lat="44.32925" lon="5.20157">
        <ele>683.3</ele>
        <time>2022-07-19T07:35:10Z</time>
      </trkpt>
      <trkpt lat="44.32926" lon="5.20161">
        <ele>683.5</ele>
        <time>2022-07-19T07:35:11Z</time>
      </trkpt>
      <trkpt lat="44.32926" lon="5.20162">
        <ele>683.6</ele>
        <time>2022-07-19T07:35:12Z</time>
      </trkpt>
      <trkpt lat="44.32927" lon="5.20167">
        <ele>683.8</ele>
        <time>2022-07-19T07:35:13Z</time>
      </trkpt>
      <trkpt lat="44.32928" lon="5.20168">
        <ele>683.9</ele>
        <time>2022-07-19T07:35:14Z</time>
      </trkpt>
      <trkpt lat="44.32929" lon="5.20172">
        <ele>684.2</ele>
        <time>2022-07-19T07:35:15Z</time>
      </trkpt>
      <trkpt lat="44.32929" lon="5.20174">
        <ele>684.3</ele>
        <time>2022-07-19T07:35:16Z</time>
      </trkpt>
      <trkpt lat="44.32931" lon="5.20178">
        <ele>684.5</ele>
        <time>2022-07-19T07:35:17Z</time>
      </trkpt>
      <trkpt lat="44.32931" lon="5.20179">
        <ele>684.6</ele>
        <time>2022-07-19T07:35:18Z</time>
      </trkpt>
      <trkpt lat="44.32932" lon="5.20183">
        <ele>684.9</ele>
        <time>2022-07-19T07:35:19Z</time>
      </trkpt>
      <trkpt lat="44.32933" lon="5.20185">
        <ele>685</ele>
        <time>2022-07-19T07:35:20Z</time>
      </trkpt>
      <trkpt lat="44.32934" lon="5.20189">
        <ele>685.2</ele>
        <time>2022-07-19T07:35:21Z</time>
      </trkpt>
      <trkpt lat="44.32934" lon="5.2019">
        <ele>685.3</ele>
        <time>2022-07-19T07:35:22Z</time>
      </trkpt>
      <trkpt lat="44.32934" lon="5.20192">
        <ele>685.4</ele>
        <time>2022-07-19T07:35:23Z</time>
      </trkpt>
      <trkpt lat="44.32934" lon="5.20194">
        <ele>685.5</ele>
        <time>2022-07-19T07:35:24Z</time>
      </trkpt>
      <trkpt lat="44.32934" lon="5.20196">
        <ele>685.6</ele>
        <time>2022-07-19T07:35:25Z</time>
      </trkpt>
      <trkpt lat="44.32934" lon="5.20198">
        <ele>685.8</ele>
        <time>2022-07-19T07:35:26Z</time>
      </trkpt>
      <trkpt lat="44.32934" lon="5.20203">
        <ele>686.1</ele>
        <time>2022-07-19T07:35:27Z</time>
      </trkpt>
      <trkpt lat="44.32934" lon="5.20204">
        <ele>686.2</ele>
        <time>2022-07-19T07:35:28Z</time>
      </trkpt>
      <trkpt lat="44.32935" lon="5.20209">
        <ele>686.5</ele>
        <time>2022-07-19T07:35:29Z</time>
      </trkpt>
      <trkpt lat="44.32935" lon="5.2021">
        <ele>686.6</ele>
        <time>2022-07-19T07:35:30Z</time>
      </trkpt>
      <trkpt lat="44.32935" lon="5.20214">
        <ele>686.9</ele>
        <time>2022-07-19T07:35:31Z</time>
      </trkpt>
      <trkpt lat="44.32935" lon="5.20215">
        <ele>687</ele>
        <time>2022-07-19T07:35:32Z</time>
      </trkpt>
      <trkpt lat="44.32935" lon="5.20217">
        <ele>687.2</ele>
        <time>2022-07-19T07:35:33Z</time>
      </trkpt>
      <trkpt lat="44.32936" lon="5.2022">
        <ele>687.3</ele>
        <time>2022-07-19T07:35:34Z</time>
      </trkpt>
      <trkpt lat="44.32936" lon="5.20222">
        <ele>687.5</ele>
        <time>2022-07-19T07:35:35Z</time>
      </trkpt>
      <trkpt lat="44.32935" lon="5.20223">
        <ele>687.6</ele>
        <time>2022-07-19T07:35:36Z</time>
      </trkpt>
      <trkpt lat="44.32935" lon="5.20224">
        <ele>687.7</ele>
        <time>2022-07-19T07:35:37Z</time>
      </trkpt>
      <trkpt lat="44.32935" lon="5.20226">
        <ele>687.8</ele>
        <time>2022-07-19T07:35:38Z</time>
      </trkpt>
      <trkpt lat="44.32935" lon="5.20228">
        <ele>687.9</ele>
        <time>2022-07-19T07:35:39Z</time>
      </trkpt>
      <trkpt lat="44.32934" lon="5.20229">
        <ele>688</ele>
        <time>2022-07-19T07:35:40Z</time>
      </trkpt>
      <trkpt lat="44.32934" lon="5.2023">
        <ele>688.1</ele>
        <time>2022-07-19T07:35:41Z</time>
      </trkpt>
      <trkpt lat="44.32934" lon="5.20233">
        <ele>688.3</ele>
        <time>2022-07-19T07:35:42Z</time>
      </trkpt>
      <trkpt lat="44.32934" lon="5.20235">
        <ele>688.5</ele>
        <time>2022-07-19T07:35:43Z</time>
      </trkpt>
      <trkpt lat="44.32934" lon="5.20237">
        <ele>688.7</ele>
        <time>2022-07-19T07:35:44Z</time>
      </trkpt>
      <trkpt lat="44.32936" lon="5.20241">
        <ele>689</ele>
        <time>2022-07-19T07:35:45Z</time>
      </trkpt>
      <trkpt lat="44.32936" lon="5.20242">
        <ele>689.1</ele>
        <time>2022-07-19T07:35:46Z</time>
      </trkpt>
      <trkpt lat="44.32938" lon="5.20246">
        <ele>689.3</ele>
        <time>2022-07-19T07:35:47Z</time>
      </trkpt>
      <trkpt lat="44.32938" lon="5.20247">
        <ele>689.4</ele>
        <time>2022-07-19T07:35:48Z</time>
      </trkpt>
      <trkpt lat="44.32938" lon="5.20249">
        <ele>689.6</ele>
        <time>2022-07-19T07:35:49Z</time>
      </trkpt>
      <trkpt lat="44.32939" lon="5.20252">
        <ele>689.8</ele>
        <time>2022-07-19T07:35:50Z</time>
      </trkpt>
      <trkpt lat="44.32939" lon="5.20256">
        <ele>690</ele>
        <time>2022-07-19T07:35:51Z</time>
      </trkpt>
      <trkpt lat="44.3294" lon="5.20258">
        <ele>690.1</ele>
        <time>2022-07-19T07:35:52Z</time>
      </trkpt>
      <trkpt lat="44.32941" lon="5.20261">
        <ele>690.4</ele>
        <time>2022-07-19T07:35:53Z</time>
      </trkpt>
      <trkpt lat="44.32942" lon="5.20263">
        <ele>690.5</ele>
        <time>2022-07-19T07:35:54Z</time>
      </trkpt>
      <trkpt lat="44.32944" lon="5.20266">
        <ele>690.8</ele>
        <time>2022-07-19T07:35:55Z</time>
      </trkpt>
      <trkpt lat="44.32945" lon="5.20267">
        <ele>690.9</ele>
        <time>2022-07-19T07:35:56Z</time>
      </trkpt>
      <trkpt lat="44.32948" lon="5.20269">
        <ele>691.3</ele>
        <time>2022-07-19T07:35:57Z</time>
      </trkpt>
      <trkpt lat="44.3295" lon="5.2027">
        <ele>691.4</ele>
        <time>2022-07-19T07:35:58Z</time>
      </trkpt>
      <trkpt lat="44.32953" lon="5.20272">
        <ele>691.7</ele>
        <time>2022-07-19T07:35:59Z</time>
      </trkpt>
      <trkpt lat="44.32953" lon="5.20273">
        <ele>691.8</ele>
        <time>2022-07-19T07:36:00Z</time>
      </trkpt>
      <trkpt lat="44.32956" lon="5.20275">
        <ele>692</ele>
        <time>2022-07-19T07:36:01Z</time>
      </trkpt>
      <trkpt lat="44.32957" lon="5.20275">
        <ele>692.1</ele>
        <time>2022-07-19T07:36:02Z</time>
      </trkpt>
      <trkpt lat="44.32959" lon="5.20276">
        <ele>692.3</ele>
        <time>2022-07-19T07:36:03Z</time>
      </trkpt>
      <trkpt lat="44.3296" lon="5.20277">
        <ele>692.4</ele>
        <time>2022-07-19T07:36:04Z</time>
      </trkpt>
      <trkpt lat="44.32962" lon="5.20278">
        <ele>692.6</ele>
        <time>2022-07-19T07:36:05Z</time>
      </trkpt>
      <trkpt lat="44.32963" lon="5.20279">
        <ele>692.7</ele>
        <time>2022-07-19T07:36:06Z</time>
      </trkpt>
      <trkpt lat="44.32966" lon="5.20282">
        <ele>693</ele>
        <time>2022-07-19T07:36:07Z</time>
      </trkpt>
      <trkpt lat="44.32967" lon="5.20283">
        <ele>693</ele>
        <time>2022-07-19T07:36:08Z</time>
      </trkpt>
      <trkpt lat="44.32969" lon="5.20285">
        <ele>693.3</ele>
        <time>2022-07-19T07:36:09Z</time>
      </trkpt>
      <trkpt lat="44.3297" lon="5.20285">
        <ele>693.4</ele>
        <time>2022-07-19T07:36:10Z</time>
      </trkpt>
      <trkpt lat="44.32971" lon="5.20286">
        <ele>693.5</ele>
        <time>2022-07-19T07:36:11Z</time>
      </trkpt>
      <trkpt lat="44.32972" lon="5.20288">
        <ele>693.6</ele>
        <time>2022-07-19T07:36:12Z</time>
      </trkpt>
      <trkpt lat="44.32973" lon="5.20289">
        <ele>693.7</ele>
        <time>2022-07-19T07:36:13Z</time>
      </trkpt>
      <trkpt lat="44.32975" lon="5.2029">
        <ele>693.9</ele>
        <time>2022-07-19T07:36:14Z</time>
      </trkpt>
      <trkpt lat="44.32976" lon="5.2029">
        <ele>694</ele>
        <time>2022-07-19T07:36:15Z</time>
      </trkpt>
      <trkpt lat="44.32978" lon="5.20291">
        <ele>694.2</ele>
        <time>2022-07-19T07:36:16Z</time>
      </trkpt>
      <trkpt lat="44.3298" lon="5.20291">
        <ele>694.3</ele>
        <time>2022-07-19T07:36:17Z</time>
      </trkpt>
      <trkpt lat="44.32982" lon="5.20291">
        <ele>694.5</ele>
        <time>2022-07-19T07:36:18Z</time>
      </trkpt>
      <trkpt lat="44.32983" lon="5.20291">
        <ele>694.6</ele>
        <time>2022-07-19T07:36:19Z</time>
      </trkpt>
      <trkpt lat="44.32985" lon="5.20291">
        <ele>694.7</ele>
        <time>2022-07-19T07:36:20Z</time>
      </trkpt>
      <trkpt lat="44.32987" lon="5.20292">
        <ele>694.9</ele>
        <time>2022-07-19T07:36:21Z</time>
      </trkpt>
      <trkpt lat="44.32988" lon="5.20292">
        <ele>695</ele>
        <time>2022-07-19T07:36:22Z</time>
      </trkpt>
      <trkpt lat="44.32989" lon="5.20292">
        <ele>695.1</ele>
        <time>2022-07-19T07:36:23Z</time>
      </trkpt>
      <trkpt lat="44.3299" lon="5.20293">
        <ele>695.2</ele>
        <time>2022-07-19T07:36:24Z</time>
      </trkpt>
      <trkpt lat="44.32992" lon="5.20294">
        <ele>695.4</ele>
        <time>2022-07-19T07:36:25Z</time>
      </trkpt>
      <trkpt lat="44.32994" lon="5.20294">
        <ele>695.5</ele>
        <time>2022-07-19T07:36:26Z</time>
      </trkpt>
      <trkpt lat="44.32995" lon="5.20295">
        <ele>695.7</ele>
        <time>2022-07-19T07:36:27Z</time>
      </trkpt>
      <trkpt lat="44.32997" lon="5.20296">
        <ele>695.8</ele>
        <time>2022-07-19T07:36:28Z</time>
      </trkpt>
      <trkpt lat="44.32998" lon="5.20297">
        <ele>696</ele>
        <time>2022-07-19T07:36:29Z</time>
      </trkpt>
      <trkpt lat="44.33" lon="5.20298">
        <ele>696.1</ele>
        <time>2022-07-19T07:36:30Z</time>
      </trkpt>
      <trkpt lat="44.33001" lon="5.20299">
        <ele>696.3</ele>
        <time>2022-07-19T07:36:31Z</time>
      </trkpt>
      <trkpt lat="44.33003" lon="5.20299">
        <ele>696.4</ele>
        <time>2022-07-19T07:36:32Z</time>
      </trkpt>
      <trkpt lat="44.33005" lon="5.203">
        <ele>696.6</ele>
        <time>2022-07-19T07:36:33Z</time>
      </trkpt>
      <trkpt lat="44.33007" lon="5.20301">
        <ele>696.8</ele>
        <time>2022-07-19T07:36:34Z</time>
      </trkpt>
      <trkpt lat="44.33008" lon="5.20301">
        <ele>696.9</ele>
        <time>2022-07-19T07:36:35Z</time>
      </trkpt>
      <trkpt lat="44.33011" lon="5.20302">
        <ele>697.2</ele>
        <time>2022-07-19T07:36:36Z</time>
      </trkpt>
      <trkpt lat="44.33012" lon="5.20302">
        <ele>697.3</ele>
        <time>2022-07-19T07:36:37Z</time>
      </trkpt>
      <trkpt lat="44.33014" lon="5.20303">
        <ele>697.4</ele>
        <time>2022-07-19T07:36:38Z</time>
      </trkpt>
      <trkpt lat="44.33015" lon="5.20303">
        <ele>697.6</ele>
        <time>2022-07-19T07:36:39Z</time>
      </trkpt>
      <trkpt lat="44.33017" lon="5.20304">
        <ele>697.7</ele>
        <time>2022-07-19T07:36:40Z</time>
      </trkpt>
      <trkpt lat="44.33018" lon="5.20304">
        <ele>697.9</ele>
        <time>2022-07-19T07:36:41Z</time>
      </trkpt>
      <trkpt lat="44.3302" lon="5.20305">
        <ele>698</ele>
        <time>2022-07-19T07:36:42Z</time>
      </trkpt>
      <trkpt lat="44.33021" lon="5.20306">
        <ele>698.2</ele>
        <time>2022-07-19T07:36:43Z</time>
      </trkpt>
      <trkpt lat="44.33023" lon="5.20308">
        <ele>698.4</ele>
        <time>2022-07-19T07:36:44Z</time>
      </trkpt>
      <trkpt lat="44.33024" lon="5.20308">
        <ele>698.5</ele>
        <time>2022-07-19T07:36:45Z</time>
      </trkpt>
      <trkpt lat="44.33026" lon="5.20309">
        <ele>698.7</ele>
        <time>2022-07-19T07:36:46Z</time>
      </trkpt>
      <trkpt lat="44.33027" lon="5.20309">
        <ele>698.9</ele>
        <time>2022-07-19T07:36:47Z</time>
      </trkpt>
      <trkpt lat="44.33029" lon="5.2031">
        <ele>699</ele>
        <time>2022-07-19T07:36:48Z</time>
      </trkpt>
      <trkpt lat="44.33031" lon="5.20311">
        <ele>699.2</ele>
        <time>2022-07-19T07:36:49Z</time>
      </trkpt>
      <trkpt lat="44.33032" lon="5.20312">
        <ele>699.4</ele>
        <time>2022-07-19T07:36:50Z</time>
      </trkpt>
      <trkpt lat="44.33033" lon="5.20313">
        <ele>699.5</ele>
        <time>2022-07-19T07:36:51Z</time>
      </trkpt>
      <trkpt lat="44.33035" lon="5.20314">
        <ele>699.8</ele>
        <time>2022-07-19T07:36:52Z</time>
      </trkpt>
      <trkpt lat="44.33036" lon="5.20314">
        <ele>699.9</ele>
        <time>2022-07-19T07:36:53Z</time>
      </trkpt>
      <trkpt lat="44.33037" lon="5.20315">
        <ele>700</ele>
        <time>2022-07-19T07:36:54Z</time>
      </trkpt>
      <trkpt lat="44.33038" lon="5.20316">
        <ele>700.2</ele>
        <time>2022-07-19T07:36:55Z</time>
      </trkpt>
      <trkpt lat="44.3304" lon="5.20317">
        <ele>700.4</ele>
        <time>2022-07-19T07:36:56Z</time>
      </trkpt>
      <trkpt lat="44.33041" lon="5.20319">
        <ele>700.6</ele>
        <time>2022-07-19T07:36:57Z</time>
      </trkpt>
      <trkpt lat="44.33043" lon="5.2032">
        <ele>700.8</ele>
        <time>2022-07-19T07:36:58Z</time>
      </trkpt>
      <trkpt lat="44.33044" lon="5.20322">
        <ele>700.9</ele>
        <time>2022-07-19T07:36:59Z</time>
      </trkpt>
      <trkpt lat="44.33045" lon="5.20323">
        <ele>701.1</ele>
        <time>2022-07-19T07:37:00Z</time>
      </trkpt>
      <trkpt lat="44.33046" lon="5.20323">
        <ele>701.2</ele>
        <time>2022-07-19T07:37:01Z</time>
      </trkpt>
      <trkpt lat="44.33047" lon="5.20323">
        <ele>701.4</ele>
        <time>2022-07-19T07:37:02Z</time>
      </trkpt>
      <trkpt lat="44.33049" lon="5.20324">
        <ele>701.5</ele>
        <time>2022-07-19T07:37:03Z</time>
      </trkpt>
      <trkpt lat="44.3305" lon="5.20326">
        <ele>701.7</ele>
        <time>2022-07-19T07:37:04Z</time>
      </trkpt>
      <trkpt lat="44.3305" lon="5.20327">
        <ele>701.8</ele>
        <time>2022-07-19T07:37:05Z</time>
      </trkpt>
      <trkpt lat="44.33051" lon="5.20328">
        <ele>702</ele>
        <time>2022-07-19T07:37:06Z</time>
      </trkpt>
      <trkpt lat="44.33051" lon="5.20331">
        <ele>702</ele>
        <time>2022-07-19T07:37:07Z</time>
      </trkpt>
      <trkpt lat="44.33051" lon="5.20333">
        <ele>701.9</ele>
        <time>2022-07-19T07:37:08Z</time>
      </trkpt>
      <trkpt lat="44.33051" lon="5.20334">
        <ele>701.8</ele>
        <time>2022-07-19T07:37:09Z</time>
      </trkpt>
      <trkpt lat="44.3305" lon="5.20335">
        <ele>701.8</ele>
        <time>2022-07-19T07:37:10Z</time>
      </trkpt>
      <trkpt lat="44.3305" lon="5.20335">
        <ele>701.8</ele>
        <time>2022-07-19T07:37:11Z</time>
      </trkpt>
      <trkpt lat="44.3305" lon="5.20335">
        <ele>701.8</ele>
        <time>2022-07-19T07:37:12Z</time>
      </trkpt>
      <trkpt lat="44.3305" lon="5.20332">
        <ele>701.8</ele>
        <time>2022-07-19T07:37:13Z</time>
      </trkpt>
      <trkpt lat="44.3305" lon="5.20332">
        <ele>701.7</ele>
        <time>2022-07-19T07:37:14Z</time>
      </trkpt>
      <trkpt lat="44.3305" lon="5.20332">
        <ele>701.7</ele>
        <time>2022-07-19T07:37:15Z</time>
      </trkpt>
      <trkpt lat="44.3305" lon="5.20332">
        <ele>701.7</ele>
        <time>2022-07-19T07:37:16Z</time>
      </trkpt>
      <trkpt lat="44.3305" lon="5.20332">
        <ele>701.7</ele>
        <time>2022-07-19T07:37:17Z</time>
      </trkpt>
      <trkpt lat="44.3305" lon="5.20332">
        <ele>701.7</ele>
        <time>2022-07-19T07:37:18Z</time>
      </trkpt>
      <trkpt lat="44.3305" lon="5.20332">
        <ele>701.7</ele>
        <time>2022-07-19T07:37:19Z</time>
      </trkpt>
      <trkpt lat="44.3305" lon="5.20332">
        <ele>701.7</ele>
        <time>2022-07-19T07:37:20Z</time>
      </trkpt>
      <trkpt lat="44.3305" lon="5.20332">
        <ele>701.7</ele>
        <time>2022-07-19T07:37:21Z</time>
      </trkpt>
      <trkpt lat="44.3305" lon="5.20332">
        <ele>701.7</ele>
        <time>2022-07-19T07:37:22Z</time>
      </trkpt>
      <trkpt lat="44.3305" lon="5.20332">
        <ele>701.7</ele>
        <time>2022-07-19T07:37:23Z</time>
      </trkpt>
      <trkpt lat="44.33056" lon="5.20323">
        <ele>701.3</ele>
        <time>2022-07-19T07:44:04Z</time>
      </trkpt>
      <trkpt lat="44.33056" lon="5.20322">
        <ele>701.3</ele>
        <time>2022-07-19T07:44:05Z</time>
      </trkpt>
      <trkpt lat="44.33056" lon="5.20322">
        <ele>701.3</ele>
        <time>2022-07-19T07:44:06Z</time>
      </trkpt>
      <trkpt lat="44.33056" lon="5.20322">
        <ele>701.3</ele>
        <time>2022-07-19T07:44:07Z</time>
      </trkpt>
      <trkpt lat="44.33056" lon="5.20322">
        <ele>701.3</ele>
        <time>2022-07-19T07:44:08Z</time>
      </trkpt>
      <trkpt lat="44.33056" lon="5.20322">
        <ele>701.3</ele>
        <time>2022-07-19T07:44:09Z</time>
      </trkpt>
      <trkpt lat="44.33056" lon="5.20322">
        <ele>701.3</ele>
        <time>2022-07-19T07:44:10Z</time>
      </trkpt>
      <trkpt lat="44.33056" lon="5.20322">
        <ele>701.3</ele>
        <time>2022-07-19T07:44:11Z</time>
      </trkpt>
      <trkpt lat="44.33056" lon="5.20322">
        <ele>701.3</ele>
        <time>2022-07-19T07:44:12Z</time>
      </trkpt>
      <trkpt lat="44.33056" lon="5.20322">
        <ele>701.3</ele>
        <time>2022-07-19T07:44:13Z</time>
      </trkpt>
      <trkpt lat="44.33056" lon="5.20322">
        <ele>701.3</ele>
        <time>2022-07-19T07:44:14Z</time>
      </trkpt>
      <trkpt lat="44.33056" lon="5.20322">
        <ele>701.3</ele>
        <time>2022-07-19T07:44:15Z</time>
      </trkpt>
      <trkpt lat="44.33058" lon="5.20318">
        <ele>701.1</ele>
        <time>2022-07-19T07:44:38Z</time>
      </trkpt>
      <trkpt lat="44.33059" lon="5.20316">
        <ele>701</ele>
        <time>2022-07-19T07:44:39Z</time>
      </trkpt>
      <trkpt lat="44.33059" lon="5.20312">
        <ele>700.9</ele>
        <time>2022-07-19T07:44:40Z</time>
      </trkpt>
      <trkpt lat="44.3306" lon="5.2031">
        <ele>700.8</ele>
        <time>2022-07-19T07:44:41Z</time>
      </trkpt>
      <trkpt lat="44.3306" lon="5.20308">
        <ele>700.7</ele>
        <time>2022-07-19T07:44:42Z</time>
      </trkpt>
      <trkpt lat="44.33061" lon="5.20307">
        <ele>700.7</ele>
        <time>2022-07-19T07:44:43Z</time>
      </trkpt>
      <trkpt lat="44.33062" lon="5.20304">
        <ele>700.5</ele>
        <time>2022-07-19T07:44:44Z</time>
      </trkpt>
      <trkpt lat="44.33063" lon="5.20302">
        <ele>700.5</ele>
        <time>2022-07-19T07:44:45Z</time>
      </trkpt>
      <trkpt lat="44.33064" lon="5.20299">
        <ele>700.3</ele>
        <time>2022-07-19T07:44:46Z</time>
      </trkpt>
      <trkpt lat="44.33065" lon="5.20294">
        <ele>700.1</ele>
        <time>2022-07-19T07:44:47Z</time>
      </trkpt>
      <trkpt lat="44.33067" lon="5.20289">
        <ele>699.9</ele>
        <time>2022-07-19T07:44:48Z</time>
      </trkpt>
      <trkpt lat="44.33069" lon="5.20285">
        <ele>699.7</ele>
        <time>2022-07-19T07:44:49Z</time>
      </trkpt>
      <trkpt lat="44.3307" lon="5.2028">
        <ele>699.6</ele>
        <time>2022-07-19T07:44:50Z</time>
      </trkpt>
      <trkpt lat="44.33072" lon="5.20273">
        <ele>699.4</ele>
        <time>2022-07-19T07:44:51Z</time>
      </trkpt>
      <trkpt lat="44.33073" lon="5.20266">
        <ele>699.1</ele>
        <time>2022-07-19T07:44:52Z</time>
      </trkpt>
      <trkpt lat="44.33072" lon="5.20253">
        <ele>698.7</ele>
        <time>2022-07-19T07:44:53Z</time>
      </trkpt>
      <trkpt lat="44.33072" lon="5.20245">
        <ele>698.5</ele>
        <time>2022-07-19T07:44:54Z</time>
      </trkpt>
      <trkpt lat="44.33072" lon="5.20239">
        <ele>698.3</ele>
        <time>2022-07-19T07:44:55Z</time>
      </trkpt>
      <trkpt lat="44.33071" lon="5.20231">
        <ele>698</ele>
        <time>2022-07-19T07:44:56Z</time>
      </trkpt>
      <trkpt lat="44.3307" lon="5.20223">
        <ele>697.6</ele>
        <time>2022-07-19T07:44:57Z</time>
      </trkpt>
      <trkpt lat="44.3307" lon="5.20216">
        <ele>697.3</ele>
        <time>2022-07-19T07:44:58Z</time>
      </trkpt>
      <trkpt lat="44.3307" lon="5.20209">
        <ele>696.8</ele>
        <time>2022-07-19T07:44:59Z</time>
      </trkpt>
      <trkpt lat="44.3307" lon="5.20202">
        <ele>696.4</ele>
        <time>2022-07-19T07:45:00Z</time>
      </trkpt>
      <trkpt lat="44.33073" lon="5.20197">
        <ele>695.9</ele>
        <time>2022-07-19T07:45:01Z</time>
      </trkpt>
      <trkpt lat="44.33075" lon="5.20191">
        <ele>695.4</ele>
        <time>2022-07-19T07:45:02Z</time>
      </trkpt>
      <trkpt lat="44.33078" lon="5.20186">
        <ele>695</ele>
        <time>2022-07-19T07:45:03Z</time>
      </trkpt>
      <trkpt lat="44.33081" lon="5.20183">
        <ele>694.6</ele>
        <time>2022-07-19T07:45:04Z</time>
      </trkpt>
      <trkpt lat="44.33082" lon="5.20182">
        <ele>694.4</ele>
        <time>2022-07-19T07:45:05Z</time>
      </trkpt>
      <trkpt lat="44.33086" lon="5.20183">
        <ele>694</ele>
        <time>2022-07-19T07:45:06Z</time>
      </trkpt>
      <trkpt lat="44.3309" lon="5.20183">
        <ele>693.6</ele>
        <time>2022-07-19T07:45:07Z</time>
      </trkpt>
      <trkpt lat="44.33095" lon="5.20186">
        <ele>693.1</ele>
        <time>2022-07-19T07:45:08Z</time>
      </trkpt>
      <trkpt lat="44.331" lon="5.20189">
        <ele>692.6</ele>
        <time>2022-07-19T07:45:09Z</time>
      </trkpt>
      <trkpt lat="44.33105" lon="5.20194">
        <ele>692.2</ele>
        <time>2022-07-19T07:45:10Z</time>
      </trkpt>
      <trkpt lat="44.3311" lon="5.20198">
        <ele>691.8</ele>
        <time>2022-07-19T07:45:11Z</time>
      </trkpt>
      <trkpt lat="44.33115" lon="5.20201">
        <ele>691.4</ele>
        <time>2022-07-19T07:45:12Z</time>
      </trkpt>
      <trkpt lat="44.33121" lon="5.20206">
        <ele>691</ele>
        <time>2022-07-19T07:45:13Z</time>
      </trkpt>
      <trkpt lat="44.33128" lon="5.20211">
        <ele>690.5</ele>
        <time>2022-07-19T07:45:14Z</time>
      </trkpt>
      <trkpt lat="44.33135" lon="5.20216">
        <ele>689.8</ele>
        <time>2022-07-19T07:45:15Z</time>
      </trkpt>
      <trkpt lat="44.33142" lon="5.20215">
        <ele>689</ele>
        <time>2022-07-19T07:45:16Z</time>
      </trkpt>
      <trkpt lat="44.3315" lon="5.20217">
        <ele>688.3</ele>
        <time>2022-07-19T07:45:17Z</time>
      </trkpt>
      <trkpt lat="44.33157" lon="5.20217">
        <ele>687.5</ele>
        <time>2022-07-19T07:45:18Z</time>
      </trkpt>
      <trkpt lat="44.33164" lon="5.20218">
        <ele>686.8</ele>
        <time>2022-07-19T07:45:19Z</time>
      </trkpt>
      <trkpt lat="44.33172" lon="5.20219">
        <ele>685.9</ele>
        <time>2022-07-19T07:45:20Z</time>
      </trkpt>
      <trkpt lat="44.3318" lon="5.20219">
        <ele>685.1</ele>
        <time>2022-07-19T07:45:21Z</time>
      </trkpt>
      <trkpt lat="44.33188" lon="5.2022">
        <ele>684.2</ele>
        <time>2022-07-19T07:45:22Z</time>
      </trkpt>
      <trkpt lat="44.33195" lon="5.20218">
        <ele>683.3</ele>
        <time>2022-07-19T07:45:23Z</time>
      </trkpt>
      <trkpt lat="44.33203" lon="5.20217">
        <ele>682.5</ele>
        <time>2022-07-19T07:45:24Z</time>
      </trkpt>
      <trkpt lat="44.3321" lon="5.20219">
        <ele>681.9</ele>
        <time>2022-07-19T07:45:25Z</time>
      </trkpt>
      <trkpt lat="44.33216" lon="5.20221">
        <ele>681.3</ele>
        <time>2022-07-19T07:45:26Z</time>
      </trkpt>
      <trkpt lat="44.33222" lon="5.20222">
        <ele>680.7</ele>
        <time>2022-07-19T07:45:27Z</time>
      </trkpt>
      <trkpt lat="44.33227" lon="5.20226">
        <ele>680.1</ele>
        <time>2022-07-19T07:45:28Z</time>
      </trkpt>
      <trkpt lat="44.33231" lon="5.2023">
        <ele>679.7</ele>
        <time>2022-07-19T07:45:29Z</time>
      </trkpt>
      <trkpt lat="44.33236" lon="5.20234">
        <ele>679.1</ele>
        <time>2022-07-19T07:45:30Z</time>
      </trkpt>
      <trkpt lat="44.33241" lon="5.20239">
        <ele>678.4</ele>
        <time>2022-07-19T07:45:31Z</time>
      </trkpt>
      <trkpt lat="44.33245" lon="5.20245">
        <ele>677.7</ele>
        <time>2022-07-19T07:45:32Z</time>
      </trkpt>
      <trkpt lat="44.33252" lon="5.2025">
        <ele>676.9</ele>
        <time>2022-07-19T07:45:33Z</time>
      </trkpt>
      <trkpt lat="44.3326" lon="5.20255">
        <ele>676.2</ele>
        <time>2022-07-19T07:45:34Z</time>
      </trkpt>
      <trkpt lat="44.33268" lon="5.20259">
        <ele>675.6</ele>
        <time>2022-07-19T07:45:35Z</time>
      </trkpt>
      <trkpt lat="44.33277" lon="5.20263">
        <ele>675.2</ele>
        <time>2022-07-19T07:45:36Z</time>
      </trkpt>
      <trkpt lat="44.33285" lon="5.20266">
        <ele>675</ele>
        <time>2022-07-19T07:45:37Z</time>
      </trkpt>
      <trkpt lat="44.33295" lon="5.2027">
        <ele>674.9</ele>
        <time>2022-07-19T07:45:38Z</time>
      </trkpt>
      <trkpt lat="44.33304" lon="5.20273">
        <ele>675</ele>
        <time>2022-07-19T07:45:39Z</time>
      </trkpt>
      <trkpt lat="44.33312" lon="5.20273">
        <ele>675.2</ele>
        <time>2022-07-19T07:45:40Z</time>
      </trkpt>
      <trkpt lat="44.33318" lon="5.20274">
        <ele>675.3</ele>
        <time>2022-07-19T07:45:41Z</time>
      </trkpt>
      <trkpt lat="44.33323" lon="5.20273">
        <ele>675.4</ele>
        <time>2022-07-19T07:45:42Z</time>
      </trkpt>
      <trkpt lat="44.33328" lon="5.20271">
        <ele>675.5</ele>
        <time>2022-07-19T07:45:43Z</time>
      </trkpt>
      <trkpt lat="44.33334" lon="5.20271">
        <ele>675.7</ele>
        <time>2022-07-19T07:45:44Z</time>
      </trkpt>
      <trkpt lat="44.33339" lon="5.20271">
        <ele>675.8</ele>
        <time>2022-07-19T07:45:45Z</time>
      </trkpt>
      <trkpt lat="44.33344" lon="5.20272">
        <ele>675.8</ele>
        <time>2022-07-19T07:45:46Z</time>
      </trkpt>
      <trkpt lat="44.33348" lon="5.20272">
        <ele>675.8</ele>
        <time>2022-07-19T07:45:47Z</time>
      </trkpt>
      <trkpt lat="44.33352" lon="5.20273">
        <ele>675.8</ele>
        <time>2022-07-19T07:45:48Z</time>
      </trkpt>
      <trkpt lat="44.33357" lon="5.20276">
        <ele>675.8</ele>
        <time>2022-07-19T07:45:49Z</time>
      </trkpt>
      <trkpt lat="44.33362" lon="5.20281">
        <ele>675.8</ele>
        <time>2022-07-19T07:45:50Z</time>
      </trkpt>
      <trkpt lat="44.33366" lon="5.20282">
        <ele>675.8</ele>
        <time>2022-07-19T07:45:51Z</time>
      </trkpt>
      <trkpt lat="44.33371" lon="5.20285">
        <ele>675.8</ele>
        <time>2022-07-19T07:45:52Z</time>
      </trkpt>
      <trkpt lat="44.33375" lon="5.20286">
        <ele>675.8</ele>
        <time>2022-07-19T07:45:53Z</time>
      </trkpt>
      <trkpt lat="44.3338" lon="5.20288">
        <ele>675.7</ele>
        <time>2022-07-19T07:45:54Z</time>
      </trkpt>
      <trkpt lat="44.33383" lon="5.20289">
        <ele>675.7</ele>
        <time>2022-07-19T07:45:55Z</time>
      </trkpt>
      <trkpt lat="44.33386" lon="5.2029">
        <ele>675.7</ele>
        <time>2022-07-19T07:45:56Z</time>
      </trkpt>
      <trkpt lat="44.33389" lon="5.20291">
        <ele>675.7</ele>
        <time>2022-07-19T07:45:57Z</time>
      </trkpt>
      <trkpt lat="44.33392" lon="5.20292">
        <ele>675.7</ele>
        <time>2022-07-19T07:45:58Z</time>
      </trkpt>
      <trkpt lat="44.33396" lon="5.20293">
        <ele>675.6</ele>
        <time>2022-07-19T07:45:59Z</time>
      </trkpt>
      <trkpt lat="44.33397" lon="5.20293">
        <ele>675.6</ele>
        <time>2022-07-19T07:46:00Z</time>
      </trkpt>
      <trkpt lat="44.334" lon="5.20294">
        <ele>675.6</ele>
        <time>2022-07-19T07:46:01Z</time>
      </trkpt>
      <trkpt lat="44.33402" lon="5.20294">
        <ele>675.6</ele>
        <time>2022-07-19T07:46:02Z</time>
      </trkpt>
      <trkpt lat="44.33404" lon="5.20296">
        <ele>675.5</ele>
        <time>2022-07-19T07:46:03Z</time>
      </trkpt>
      <trkpt lat="44.33407" lon="5.20297">
        <ele>675.5</ele>
        <time>2022-07-19T07:46:04Z</time>
      </trkpt>
      <trkpt lat="44.3341" lon="5.20298">
        <ele>675.5</ele>
        <time>2022-07-19T07:46:05Z</time>
      </trkpt>
      <trkpt lat="44.33413" lon="5.203">
        <ele>675.4</ele>
        <time>2022-07-19T07:46:06Z</time>
      </trkpt>
      <trkpt lat="44.33415" lon="5.20302">
        <ele>675.4</ele>
        <time>2022-07-19T07:46:07Z</time>
      </trkpt>
      <trkpt lat="44.33418" lon="5.20304">
        <ele>675.3</ele>
        <time>2022-07-19T07:46:08Z</time>
      </trkpt>
      <trkpt lat="44.33421" lon="5.20305">
        <ele>675.3</ele>
        <time>2022-07-19T07:46:09Z</time>
      </trkpt>
      <trkpt lat="44.33424" lon="5.20307">
        <ele>675.3</ele>
        <time>2022-07-19T07:46:10Z</time>
      </trkpt>
      <trkpt lat="44.33427" lon="5.20309">
        <ele>675.3</ele>
        <time>2022-07-19T07:46:11Z</time>
      </trkpt>
      <trkpt lat="44.3343" lon="5.2031">
        <ele>675.3</ele>
        <time>2022-07-19T07:46:12Z</time>
      </trkpt>
      <trkpt lat="44.33431" lon="5.2031">
        <ele>675.3</ele>
        <time>2022-07-19T07:46:13Z</time>
      </trkpt>
      <trkpt lat="44.33433" lon="5.2031">
        <ele>675.3</ele>
        <time>2022-07-19T07:46:14Z</time>
      </trkpt>
      <trkpt lat="44.33433" lon="5.2031">
        <ele>675.3</ele>
        <time>2022-07-19T07:46:15Z</time>
      </trkpt>
      <trkpt lat="44.33433" lon="5.2031">
        <ele>675.3</ele>
        <time>2022-07-19T07:46:16Z</time>
      </trkpt>
      <trkpt lat="44.33433" lon="5.2031">
        <ele>675.3</ele>
        <time>2022-07-19T07:46:17Z</time>
      </trkpt>
      <trkpt lat="44.33433" lon="5.2031">
        <ele>675.3</ele>
        <time>2022-07-19T07:46:18Z</time>
      </trkpt>
      <trkpt lat="44.33433" lon="5.2031">
        <ele>675.3</ele>
        <time>2022-07-19T07:46:19Z</time>
      </trkpt>
      <trkpt lat="44.33433" lon="5.2031">
        <ele>675.3</ele>
        <time>2022-07-19T07:46:20Z</time>
      </trkpt>
      <trkpt lat="44.33433" lon="5.2031">
        <ele>675.3</ele>
        <time>2022-07-19T07:46:21Z</time>
      </trkpt>
      <trkpt lat="44.33433" lon="5.2031">
        <ele>675.3</ele>
        <time>2022-07-19T07:46:22Z</time>
      </trkpt>
      <trkpt lat="44.33433" lon="5.2031">
        <ele>675.3</ele>
        <time>2022-07-19T07:46:23Z</time>
      </trkpt>
      <trkpt lat="44.3344" lon="5.20305">
        <ele>675.5</ele>
        <time>2022-07-19T07:46:45Z</time>
      </trkpt>
      <trkpt lat="44.33442" lon="5.20304">
        <ele>675.5</ele>
        <time>2022-07-19T07:46:46Z</time>
      </trkpt>
      <trkpt lat="44.33446" lon="5.20305">
        <ele>675.6</ele>
        <time>2022-07-19T07:46:47Z</time>
      </trkpt>
      <trkpt lat="44.33447" lon="5.20305">
        <ele>675.7</ele>
        <time>2022-07-19T07:46:48Z</time>
      </trkpt>
      <trkpt lat="44.33451" lon="5.20305">
        <ele>675.8</ele>
        <time>2022-07-19T07:46:49Z</time>
      </trkpt>
      <trkpt lat="44.33452" lon="5.20305">
        <ele>675.9</ele>
        <time>2022-07-19T07:46:50Z</time>
      </trkpt>
      <trkpt lat="44.33455" lon="5.20303">
        <ele>676.1</ele>
        <time>2022-07-19T07:46:51Z</time>
      </trkpt>
      <trkpt lat="44.33456" lon="5.20302">
        <ele>676.2</ele>
        <time>2022-07-19T07:46:52Z</time>
      </trkpt>
      <trkpt lat="44.33458" lon="5.20298">
        <ele>676.4</ele>
        <time>2022-07-19T07:46:53Z</time>
      </trkpt>
      <trkpt lat="44.33459" lon="5.20297">
        <ele>676.4</ele>
        <time>2022-07-19T07:46:54Z</time>
      </trkpt>
      <trkpt lat="44.33461" lon="5.20293">
        <ele>676.6</ele>
        <time>2022-07-19T07:46:55Z</time>
      </trkpt>
      <trkpt lat="44.33461" lon="5.20292">
        <ele>676.7</ele>
        <time>2022-07-19T07:46:56Z</time>
      </trkpt>
      <trkpt lat="44.33463" lon="5.2029">
        <ele>676.8</ele>
        <time>2022-07-19T07:46:57Z</time>
      </trkpt>
      <trkpt lat="44.33464" lon="5.20289">
        <ele>676.9</ele>
        <time>2022-07-19T07:46:58Z</time>
      </trkpt>
      <trkpt lat="44.33465" lon="5.20288">
        <ele>677</ele>
        <time>2022-07-19T07:46:59Z</time>
      </trkpt>
      <trkpt lat="44.33466" lon="5.20287">
        <ele>677.2</ele>
        <time>2022-07-19T07:47:00Z</time>
      </trkpt>
      <trkpt lat="44.33468" lon="5.20286">
        <ele>677.3</ele>
        <time>2022-07-19T07:47:01Z</time>
      </trkpt>
      <trkpt lat="44.3347" lon="5.20286">
        <ele>677.4</ele>
        <time>2022-07-19T07:47:02Z</time>
      </trkpt>
      <trkpt lat="44.33473" lon="5.20285">
        <ele>677.6</ele>
        <time>2022-07-19T07:47:03Z</time>
      </trkpt>
      <trkpt lat="44.33474" lon="5.20285">
        <ele>677.6</ele>
        <time>2022-07-19T07:47:04Z</time>
      </trkpt>
      <trkpt lat="44.33475" lon="5.20284">
        <ele>677.7</ele>
        <time>2022-07-19T07:47:05Z</time>
      </trkpt>
      <trkpt lat="44.33477" lon="5.20283">
        <ele>677.8</ele>
        <time>2022-07-19T07:47:06Z</time>
      </trkpt>
      <trkpt lat="44.33479" lon="5.20281">
        <ele>678</ele>
        <time>2022-07-19T07:47:07Z</time>
      </trkpt>
      <trkpt lat="44.3348" lon="5.2028">
        <ele>678</ele>
        <time>2022-07-19T07:47:08Z</time>
      </trkpt>
      <trkpt lat="44.33481" lon="5.20278">
        <ele>678.1</ele>
        <time>2022-07-19T07:47:09Z</time>
      </trkpt>
      <trkpt lat="44.33482" lon="5.20277">
        <ele>678.2</ele>
        <time>2022-07-19T07:47:10Z</time>
      </trkpt>
      <trkpt lat="44.33483" lon="5.20276">
        <ele>678.3</ele>
        <time>2022-07-19T07:47:11Z</time>
      </trkpt>
      <trkpt lat="44.33484" lon="5.20275">
        <ele>678.3</ele>
        <time>2022-07-19T07:47:12Z</time>
      </trkpt>
      <trkpt lat="44.33485" lon="5.20274">
        <ele>678.5</ele>
        <time>2022-07-19T07:47:13Z</time>
      </trkpt>
      <trkpt lat="44.33485" lon="5.20273">
        <ele>678.5</ele>
        <time>2022-07-19T07:47:14Z</time>
      </trkpt>
      <trkpt lat="44.33486" lon="5.20271">
        <ele>678.6</ele>
        <time>2022-07-19T07:47:15Z</time>
      </trkpt>
      <trkpt lat="44.33486" lon="5.20269">
        <ele>678.7</ele>
        <time>2022-07-19T07:47:16Z</time>
      </trkpt>
      <trkpt lat="44.33485" lon="5.20266">
        <ele>678.8</ele>
        <time>2022-07-19T07:47:17Z</time>
      </trkpt>
      <trkpt lat="44.33484" lon="5.20263">
        <ele>678.9</ele>
        <time>2022-07-19T07:47:18Z</time>
      </trkpt>
      <trkpt lat="44.33484" lon="5.20261">
        <ele>679</ele>
        <time>2022-07-19T07:47:19Z</time>
      </trkpt>
      <trkpt lat="44.33483" lon="5.20258">
        <ele>679.1</ele>
        <time>2022-07-19T07:47:20Z</time>
      </trkpt>
      <trkpt lat="44.33483" lon="5.20256">
        <ele>679.2</ele>
        <time>2022-07-19T07:47:21Z</time>
      </trkpt>
      <trkpt lat="44.33481" lon="5.20253">
        <ele>679.4</ele>
        <time>2022-07-19T07:47:22Z</time>
      </trkpt>
      <trkpt lat="44.33481" lon="5.20251">
        <ele>679.4</ele>
        <time>2022-07-19T07:47:23Z</time>
      </trkpt>
      <trkpt lat="44.3348" lon="5.20248">
        <ele>679.6</ele>
        <time>2022-07-19T07:47:24Z</time>
      </trkpt>
      <trkpt lat="44.33479" lon="5.20247">
        <ele>679.7</ele>
        <time>2022-07-19T07:47:25Z</time>
      </trkpt>
      <trkpt lat="44.33479" lon="5.20245">
        <ele>679.8</ele>
        <time>2022-07-19T07:47:26Z</time>
      </trkpt>
      <trkpt lat="44.33478" lon="5.20242">
        <ele>679.9</ele>
        <time>2022-07-19T07:47:27Z</time>
      </trkpt>
      <trkpt lat="44.33477" lon="5.20238">
        <ele>680.1</ele>
        <time>2022-07-19T07:47:28Z</time>
      </trkpt>
      <trkpt lat="44.33477" lon="5.20237">
        <ele>680.2</ele>
        <time>2022-07-19T07:47:29Z</time>
      </trkpt>
      <trkpt lat="44.33476" lon="5.20233">
        <ele>680.4</ele>
        <time>2022-07-19T07:47:30Z</time>
      </trkpt>
      <trkpt lat="44.33475" lon="5.20232">
        <ele>680.5</ele>
        <time>2022-07-19T07:47:31Z</time>
      </trkpt>
      <trkpt lat="44.33476" lon="5.2023">
        <ele>680.6</ele>
        <time>2022-07-19T07:47:32Z</time>
      </trkpt>
      <trkpt lat="44.33476" lon="5.20228">
        <ele>680.8</ele>
        <time>2022-07-19T07:47:33Z</time>
      </trkpt>
      <trkpt lat="44.33476" lon="5.20226">
        <ele>680.9</ele>
        <time>2022-07-19T07:47:34Z</time>
      </trkpt>
      <trkpt lat="44.33477" lon="5.20224">
        <ele>681</ele>
        <time>2022-07-19T07:47:35Z</time>
      </trkpt>
      <trkpt lat="44.33477" lon="5.20223">
        <ele>681.1</ele>
        <time>2022-07-19T07:47:36Z</time>
      </trkpt>
      <trkpt lat="44.33478" lon="5.20221">
        <ele>681.2</ele>
        <time>2022-07-19T07:47:37Z</time>
      </trkpt>
      <trkpt lat="44.33478" lon="5.2022">
        <ele>681.3</ele>
        <time>2022-07-19T07:47:38Z</time>
      </trkpt>
      <trkpt lat="44.33478" lon="5.20219">
        <ele>681.4</ele>
        <time>2022-07-19T07:47:39Z</time>
      </trkpt>
      <trkpt lat="44.33478" lon="5.20218">
        <ele>681.4</ele>
        <time>2022-07-19T07:47:40Z</time>
      </trkpt>
      <trkpt lat="44.33478" lon="5.20216">
        <ele>681.5</ele>
        <time>2022-07-19T07:47:41Z</time>
      </trkpt>
      <trkpt lat="44.33479" lon="5.20215">
        <ele>681.6</ele>
        <time>2022-07-19T07:47:42Z</time>
      </trkpt>
      <trkpt lat="44.33479" lon="5.20213">
        <ele>681.8</ele>
        <time>2022-07-19T07:47:43Z</time>
      </trkpt>
      <trkpt lat="44.3348" lon="5.20211">
        <ele>682</ele>
        <time>2022-07-19T07:47:44Z</time>
      </trkpt>
      <trkpt lat="44.3348" lon="5.2021">
        <ele>682.1</ele>
        <time>2022-07-19T07:47:45Z</time>
      </trkpt>
      <trkpt lat="44.3348" lon="5.20209">
        <ele>682.2</ele>
        <time>2022-07-19T07:47:46Z</time>
      </trkpt>
      <trkpt lat="44.33481" lon="5.20206">
        <ele>682.3</ele>
        <time>2022-07-19T07:47:47Z</time>
      </trkpt>
      <trkpt lat="44.33481" lon="5.20204">
        <ele>682.4</ele>
        <time>2022-07-19T07:47:48Z</time>
      </trkpt>
      <trkpt lat="44.33481" lon="5.202">
        <ele>682.7</ele>
        <time>2022-07-19T07:47:49Z</time>
      </trkpt>
      <trkpt lat="44.33481" lon="5.20198">
        <ele>682.8</ele>
        <time>2022-07-19T07:47:50Z</time>
      </trkpt>
      <trkpt lat="44.33481" lon="5.20196">
        <ele>682.9</ele>
        <time>2022-07-19T07:47:51Z</time>
      </trkpt>
      <trkpt lat="44.33481" lon="5.20194">
        <ele>683</ele>
        <time>2022-07-19T07:47:52Z</time>
      </trkpt>
      <trkpt lat="44.33482" lon="5.2019">
        <ele>683.2</ele>
        <time>2022-07-19T07:47:53Z</time>
      </trkpt>
      <trkpt lat="44.33482" lon="5.20189">
        <ele>683.3</ele>
        <time>2022-07-19T07:47:54Z</time>
      </trkpt>
      <trkpt lat="44.33482" lon="5.20186">
        <ele>683.5</ele>
        <time>2022-07-19T07:47:55Z</time>
      </trkpt>
      <trkpt lat="44.33482" lon="5.20184">
        <ele>683.6</ele>
        <time>2022-07-19T07:47:56Z</time>
      </trkpt>
      <trkpt lat="44.33482" lon="5.20182">
        <ele>683.7</ele>
        <time>2022-07-19T07:47:57Z</time>
      </trkpt>
      <trkpt lat="44.33481" lon="5.20179">
        <ele>683.8</ele>
        <time>2022-07-19T07:47:58Z</time>
      </trkpt>
      <trkpt lat="44.3348" lon="5.20177">
        <ele>683.9</ele>
        <time>2022-07-19T07:47:59Z</time>
      </trkpt>
      <trkpt lat="44.3348" lon="5.20176">
        <ele>684</ele>
        <time>2022-07-19T07:48:00Z</time>
      </trkpt>
      <trkpt lat="44.33479" lon="5.20174">
        <ele>684.1</ele>
        <time>2022-07-19T07:48:01Z</time>
      </trkpt>
      <trkpt lat="44.33478" lon="5.20173">
        <ele>684.2</ele>
        <time>2022-07-19T07:48:02Z</time>
      </trkpt>
      <trkpt lat="44.33477" lon="5.20171">
        <ele>684.3</ele>
        <time>2022-07-19T07:48:03Z</time>
      </trkpt>
      <trkpt lat="44.33475" lon="5.2017">
        <ele>684.4</ele>
        <time>2022-07-19T07:48:04Z</time>
      </trkpt>
      <trkpt lat="44.33473" lon="5.20168">
        <ele>684.5</ele>
        <time>2022-07-19T07:48:05Z</time>
      </trkpt>
      <trkpt lat="44.33472" lon="5.20167">
        <ele>684.6</ele>
        <time>2022-07-19T07:48:06Z</time>
      </trkpt>
      <trkpt lat="44.3347" lon="5.20164">
        <ele>684.8</ele>
        <time>2022-07-19T07:48:07Z</time>
      </trkpt>
      <trkpt lat="44.33469" lon="5.20163">
        <ele>684.9</ele>
        <time>2022-07-19T07:48:08Z</time>
      </trkpt>
      <trkpt lat="44.33467" lon="5.2016">
        <ele>685</ele>
        <time>2022-07-19T07:48:09Z</time>
      </trkpt>
      <trkpt lat="44.33466" lon="5.20159">
        <ele>685.1</ele>
        <time>2022-07-19T07:48:10Z</time>
      </trkpt>
      <trkpt lat="44.33465" lon="5.20155">
        <ele>685.2</ele>
        <time>2022-07-19T07:48:11Z</time>
      </trkpt>
      <trkpt lat="44.33465" lon="5.20153">
        <ele>685.3</ele>
        <time>2022-07-19T07:48:12Z</time>
      </trkpt>
      <trkpt lat="44.33465" lon="5.20149">
        <ele>685.4</ele>
        <time>2022-07-19T07:48:13Z</time>
      </trkpt>
      <trkpt lat="44.33465" lon="5.20148">
        <ele>685.5</ele>
        <time>2022-07-19T07:48:14Z</time>
      </trkpt>
      <trkpt lat="44.33464" lon="5.20144">
        <ele>685.6</ele>
        <time>2022-07-19T07:48:15Z</time>
      </trkpt>
      <trkpt lat="44.33464" lon="5.20143">
        <ele>685.7</ele>
        <time>2022-07-19T07:48:16Z</time>
      </trkpt>
      <trkpt lat="44.33464" lon="5.20141">
        <ele>685.8</ele>
        <time>2022-07-19T07:48:17Z</time>
      </trkpt>
      <trkpt lat="44.33463" lon="5.20139">
        <ele>685.8</ele>
        <time>2022-07-19T07:48:18Z</time>
      </trkpt>
      <trkpt lat="44.33463" lon="5.20137">
        <ele>685.9</ele>
        <time>2022-07-19T07:48:19Z</time>
      </trkpt>
      <trkpt lat="44.33462" lon="5.20134">
        <ele>686</ele>
        <time>2022-07-19T07:48:20Z</time>
      </trkpt>
      <trkpt lat="44.33462" lon="5.20132">
        <ele>686.1</ele>
        <time>2022-07-19T07:48:21Z</time>
      </trkpt>
      <trkpt lat="44.33461" lon="5.2013">
        <ele>686.2</ele>
        <time>2022-07-19T07:48:22Z</time>
      </trkpt>
      <trkpt lat="44.33461" lon="5.20128">
        <ele>686.3</ele>
        <time>2022-07-19T07:48:23Z</time>
      </trkpt>
      <trkpt lat="44.33461" lon="5.20126">
        <ele>686.4</ele>
        <time>2022-07-19T07:48:24Z</time>
      </trkpt>
      <trkpt lat="44.3346" lon="5.20122">
        <ele>686.5</ele>
        <time>2022-07-19T07:48:25Z</time>
      </trkpt>
      <trkpt lat="44.33459" lon="5.20121">
        <ele>686.6</ele>
        <time>2022-07-19T07:48:26Z</time>
      </trkpt>
      <trkpt lat="44.33458" lon="5.20117">
        <ele>686.8</ele>
        <time>2022-07-19T07:48:27Z</time>
      </trkpt>
      <trkpt lat="44.33458" lon="5.20116">
        <ele>686.9</ele>
        <time>2022-07-19T07:48:28Z</time>
      </trkpt>
      <trkpt lat="44.33457" lon="5.20112">
        <ele>687.1</ele>
        <time>2022-07-19T07:48:29Z</time>
      </trkpt>
      <trkpt lat="44.33456" lon="5.2011">
        <ele>687.2</ele>
        <time>2022-07-19T07:48:30Z</time>
      </trkpt>
      <trkpt lat="44.33456" lon="5.20106">
        <ele>687.4</ele>
        <time>2022-07-19T07:48:31Z</time>
      </trkpt>
      <trkpt lat="44.33455" lon="5.20105">
        <ele>687.5</ele>
        <time>2022-07-19T07:48:32Z</time>
      </trkpt>
      <trkpt lat="44.33455" lon="5.20103">
        <ele>687.6</ele>
        <time>2022-07-19T07:48:33Z</time>
      </trkpt>
      <trkpt lat="44.33454" lon="5.20101">
        <ele>687.7</ele>
        <time>2022-07-19T07:48:34Z</time>
      </trkpt>
      <trkpt lat="44.33454" lon="5.20098">
        <ele>687.9</ele>
        <time>2022-07-19T07:48:35Z</time>
      </trkpt>
      <trkpt lat="44.33454" lon="5.20096">
        <ele>688</ele>
        <time>2022-07-19T07:48:36Z</time>
      </trkpt>
      <trkpt lat="44.33453" lon="5.20094">
        <ele>688.2</ele>
        <time>2022-07-19T07:48:37Z</time>
      </trkpt>
      <trkpt lat="44.33453" lon="5.20092">
        <ele>688.3</ele>
        <time>2022-07-19T07:48:38Z</time>
      </trkpt>
      <trkpt lat="44.33452" lon="5.20091">
        <ele>688.5</ele>
        <time>2022-07-19T07:48:39Z</time>
      </trkpt>
      <trkpt lat="44.33451" lon="5.20089">
        <ele>688.6</ele>
        <time>2022-07-19T07:48:40Z</time>
      </trkpt>
      <trkpt lat="44.3345" lon="5.20087">
        <ele>688.7</ele>
        <time>2022-07-19T07:48:41Z</time>
      </trkpt>
      <trkpt lat="44.33449" lon="5.20085">
        <ele>688.9</ele>
        <time>2022-07-19T07:48:42Z</time>
      </trkpt>
      <trkpt lat="44.33448" lon="5.20084">
        <ele>689</ele>
        <time>2022-07-19T07:48:43Z</time>
      </trkpt>
      <trkpt lat="44.33448" lon="5.20081">
        <ele>689.2</ele>
        <time>2022-07-19T07:48:44Z</time>
      </trkpt>
      <trkpt lat="44.33447" lon="5.20079">
        <ele>689.3</ele>
        <time>2022-07-19T07:48:45Z</time>
      </trkpt>
      <trkpt lat="44.33446" lon="5.20078">
        <ele>689.5</ele>
        <time>2022-07-19T07:48:46Z</time>
      </trkpt>
      <trkpt lat="44.33446" lon="5.20076">
        <ele>689.6</ele>
        <time>2022-07-19T07:48:47Z</time>
      </trkpt>
      <trkpt lat="44.33446" lon="5.20073">
        <ele>689.8</ele>
        <time>2022-07-19T07:48:48Z</time>
      </trkpt>
      <trkpt lat="44.33446" lon="5.20071">
        <ele>689.9</ele>
        <time>2022-07-19T07:48:49Z</time>
      </trkpt>
      <trkpt lat="44.33446" lon="5.20069">
        <ele>690.1</ele>
        <time>2022-07-19T07:48:50Z</time>
      </trkpt>
      <trkpt lat="44.33445" lon="5.20067">
        <ele>690.2</ele>
        <time>2022-07-19T07:48:51Z</time>
      </trkpt>
      <trkpt lat="44.33444" lon="5.20065">
        <ele>690.4</ele>
        <time>2022-07-19T07:48:52Z</time>
      </trkpt>
      <trkpt lat="44.33444" lon="5.20063">
        <ele>690.6</ele>
        <time>2022-07-19T07:48:53Z</time>
      </trkpt>
      <trkpt lat="44.33443" lon="5.20061">
        <ele>690.8</ele>
        <time>2022-07-19T07:48:54Z</time>
      </trkpt>
      <trkpt lat="44.33443" lon="5.20059">
        <ele>691</ele>
        <time>2022-07-19T07:48:55Z</time>
      </trkpt>
      <trkpt lat="44.33442" lon="5.20056">
        <ele>691.1</ele>
        <time>2022-07-19T07:48:56Z</time>
      </trkpt>
      <trkpt lat="44.33442" lon="5.20054">
        <ele>691.3</ele>
        <time>2022-07-19T07:48:57Z</time>
      </trkpt>
      <trkpt lat="44.33442" lon="5.20052">
        <ele>691.5</ele>
        <time>2022-07-19T07:48:58Z</time>
      </trkpt>
      <trkpt lat="44.33441" lon="5.20049">
        <ele>691.8</ele>
        <time>2022-07-19T07:48:59Z</time>
      </trkpt>
      <trkpt lat="44.33441" lon="5.20047">
        <ele>691.9</ele>
        <time>2022-07-19T07:49:00Z</time>
      </trkpt>
      <trkpt lat="44.33441" lon="5.20046">
        <ele>692</ele>
        <time>2022-07-19T07:49:01Z</time>
      </trkpt>
      <trkpt lat="44.33441" lon="5.20044">
        <ele>692.1</ele>
        <time>2022-07-19T07:49:02Z</time>
      </trkpt>
      <trkpt lat="44.33441" lon="5.20042">
        <ele>692.3</ele>
        <time>2022-07-19T07:49:03Z</time>
      </trkpt>
      <trkpt lat="44.33441" lon="5.2004">
        <ele>692.5</ele>
        <time>2022-07-19T07:49:04Z</time>
      </trkpt>
      <trkpt lat="44.3344" lon="5.20038">
        <ele>692.6</ele>
        <time>2022-07-19T07:49:05Z</time>
      </trkpt>
      <trkpt lat="44.3344" lon="5.20036">
        <ele>692.8</ele>
        <time>2022-07-19T07:49:06Z</time>
      </trkpt>
      <trkpt lat="44.3344" lon="5.20034">
        <ele>692.9</ele>
        <time>2022-07-19T07:49:07Z</time>
      </trkpt>
      <trkpt lat="44.3344" lon="5.20032">
        <ele>693.1</ele>
        <time>2022-07-19T07:49:08Z</time>
      </trkpt>
      <trkpt lat="44.3344" lon="5.2003">
        <ele>693.2</ele>
        <time>2022-07-19T07:49:09Z</time>
      </trkpt>
      <trkpt lat="44.3344" lon="5.20028">
        <ele>693.4</ele>
        <time>2022-07-19T07:49:10Z</time>
      </trkpt>
      <trkpt lat="44.33439" lon="5.20025">
        <ele>693.5</ele>
        <time>2022-07-19T07:49:11Z</time>
      </trkpt>
      <trkpt lat="44.33439" lon="5.20023">
        <ele>693.7</ele>
        <time>2022-07-19T07:49:12Z</time>
      </trkpt>
      <trkpt lat="44.33439" lon="5.20021">
        <ele>693.8</ele>
        <time>2022-07-19T07:49:13Z</time>
      </trkpt>
      <trkpt lat="44.33439" lon="5.20018">
        <ele>694</ele>
        <time>2022-07-19T07:49:14Z</time>
      </trkpt>
      <trkpt lat="44.33439" lon="5.20016">
        <ele>694.1</ele>
        <time>2022-07-19T07:49:15Z</time>
      </trkpt>
      <trkpt lat="44.33439" lon="5.20014">
        <ele>694.2</ele>
        <time>2022-07-19T07:49:16Z</time>
      </trkpt>
      <trkpt lat="44.33439" lon="5.20012">
        <ele>694.3</ele>
        <time>2022-07-19T07:49:17Z</time>
      </trkpt>
      <trkpt lat="44.33439" lon="5.2001">
        <ele>694.4</ele>
        <time>2022-07-19T07:49:18Z</time>
      </trkpt>
      <trkpt lat="44.33438" lon="5.20008">
        <ele>694.5</ele>
        <time>2022-07-19T07:49:19Z</time>
      </trkpt>
      <trkpt lat="44.33438" lon="5.20005">
        <ele>694.7</ele>
        <time>2022-07-19T07:49:20Z</time>
      </trkpt>
      <trkpt lat="44.33438" lon="5.20004">
        <ele>694.7</ele>
        <time>2022-07-19T07:49:21Z</time>
      </trkpt>
      <trkpt lat="44.33437" lon="5.20002">
        <ele>694.8</ele>
        <time>2022-07-19T07:49:22Z</time>
      </trkpt>
      <trkpt lat="44.33437" lon="5.2">
        <ele>694.9</ele>
        <time>2022-07-19T07:49:23Z</time>
      </trkpt>
      <trkpt lat="44.33437" lon="5.19998">
        <ele>695</ele>
        <time>2022-07-19T07:49:24Z</time>
      </trkpt>
      <trkpt lat="44.33436" lon="5.19995">
        <ele>695.1</ele>
        <time>2022-07-19T07:49:25Z</time>
      </trkpt>
      <trkpt lat="44.33436" lon="5.19993">
        <ele>695.2</ele>
        <time>2022-07-19T07:49:26Z</time>
      </trkpt>
      <trkpt lat="44.33436" lon="5.19991">
        <ele>695.3</ele>
        <time>2022-07-19T07:49:27Z</time>
      </trkpt>
      <trkpt lat="44.33435" lon="5.19989">
        <ele>695.3</ele>
        <time>2022-07-19T07:49:28Z</time>
      </trkpt>
      <trkpt lat="44.33435" lon="5.19987">
        <ele>695.4</ele>
        <time>2022-07-19T07:49:29Z</time>
      </trkpt>
      <trkpt lat="44.33435" lon="5.19985">
        <ele>695.5</ele>
        <time>2022-07-19T07:49:30Z</time>
      </trkpt>
      <trkpt lat="44.33434" lon="5.19982">
        <ele>695.6</ele>
        <time>2022-07-19T07:49:31Z</time>
      </trkpt>
      <trkpt lat="44.33434" lon="5.19981">
        <ele>695.6</ele>
        <time>2022-07-19T07:49:32Z</time>
      </trkpt>
      <trkpt lat="44.33433" lon="5.1998">
        <ele>695.7</ele>
        <time>2022-07-19T07:49:33Z</time>
      </trkpt>
      <trkpt lat="44.33433" lon="5.19978">
        <ele>695.7</ele>
        <time>2022-07-19T07:49:34Z</time>
      </trkpt>
      <trkpt lat="44.33433" lon="5.19976">
        <ele>695.8</ele>
        <time>2022-07-19T07:49:35Z</time>
      </trkpt>
      <trkpt lat="44.33433" lon="5.19973">
        <ele>695.9</ele>
        <time>2022-07-19T07:49:36Z</time>
      </trkpt>
      <trkpt lat="44.33433" lon="5.19971">
        <ele>696</ele>
        <time>2022-07-19T07:49:37Z</time>
      </trkpt>
      <trkpt lat="44.33433" lon="5.19969">
        <ele>696</ele>
        <time>2022-07-19T07:49:38Z</time>
      </trkpt>
      <trkpt lat="44.33433" lon="5.19966">
        <ele>696</ele>
        <time>2022-07-19T07:49:39Z</time>
      </trkpt>
      <trkpt lat="44.33432" lon="5.19964">
        <ele>696.1</ele>
        <time>2022-07-19T07:49:40Z</time>
      </trkpt>
      <trkpt lat="44.33432" lon="5.19962">
        <ele>696.1</ele>
        <time>2022-07-19T07:49:41Z</time>
      </trkpt>
      <trkpt lat="44.33431" lon="5.1996">
        <ele>696.2</ele>
        <time>2022-07-19T07:49:42Z</time>
      </trkpt>
      <trkpt lat="44.33431" lon="5.19957">
        <ele>696.2</ele>
        <time>2022-07-19T07:49:43Z</time>
      </trkpt>
      <trkpt lat="44.33431" lon="5.19955">
        <ele>696.3</ele>
        <time>2022-07-19T07:49:44Z</time>
      </trkpt>
      <trkpt lat="44.3343" lon="5.19953">
        <ele>696.3</ele>
        <time>2022-07-19T07:49:45Z</time>
      </trkpt>
      <trkpt lat="44.3343" lon="5.19951">
        <ele>696.3</ele>
        <time>2022-07-19T07:49:46Z</time>
      </trkpt>
      <trkpt lat="44.3343" lon="5.19949">
        <ele>696.4</ele>
        <time>2022-07-19T07:49:47Z</time>
      </trkpt>
      <trkpt lat="44.3343" lon="5.19945">
        <ele>696.4</ele>
        <time>2022-07-19T07:49:48Z</time>
      </trkpt>
      <trkpt lat="44.33429" lon="5.19943">
        <ele>696.4</ele>
        <time>2022-07-19T07:49:49Z</time>
      </trkpt>
      <trkpt lat="44.33428" lon="5.1994">
        <ele>696.5</ele>
        <time>2022-07-19T07:49:50Z</time>
      </trkpt>
      <trkpt lat="44.33428" lon="5.19939">
        <ele>696.5</ele>
        <time>2022-07-19T07:49:51Z</time>
      </trkpt>
      <trkpt lat="44.33427" lon="5.19935">
        <ele>696.5</ele>
        <time>2022-07-19T07:49:52Z</time>
      </trkpt>
      <trkpt lat="44.33426" lon="5.19934">
        <ele>696.6</ele>
        <time>2022-07-19T07:49:53Z</time>
      </trkpt>
      <trkpt lat="44.33425" lon="5.19932">
        <ele>696.6</ele>
        <time>2022-07-19T07:49:54Z</time>
      </trkpt>
      <trkpt lat="44.33424" lon="5.1993">
        <ele>696.6</ele>
        <time>2022-07-19T07:49:55Z</time>
      </trkpt>
      <trkpt lat="44.33423" lon="5.19927">
        <ele>696.7</ele>
        <time>2022-07-19T07:49:56Z</time>
      </trkpt>
      <trkpt lat="44.33422" lon="5.19926">
        <ele>696.7</ele>
        <time>2022-07-19T07:49:57Z</time>
      </trkpt>
      <trkpt lat="44.3342" lon="5.19923">
        <ele>696.7</ele>
        <time>2022-07-19T07:49:58Z</time>
      </trkpt>
      <trkpt lat="44.33419" lon="5.19922">
        <ele>696.7</ele>
        <time>2022-07-19T07:49:59Z</time>
      </trkpt>
      <trkpt lat="44.33417" lon="5.19918">
        <ele>696.8</ele>
        <time>2022-07-19T07:50:00Z</time>
      </trkpt>
      <trkpt lat="44.33417" lon="5.19917">
        <ele>696.8</ele>
        <time>2022-07-19T07:50:01Z</time>
      </trkpt>
      <trkpt lat="44.33416" lon="5.19914">
        <ele>696.8</ele>
        <time>2022-07-19T07:50:02Z</time>
      </trkpt>
      <trkpt lat="44.33415" lon="5.19913">
        <ele>696.9</ele>
        <time>2022-07-19T07:50:03Z</time>
      </trkpt>
      <trkpt lat="44.33415" lon="5.19912">
        <ele>696.9</ele>
        <time>2022-07-19T07:50:04Z</time>
      </trkpt>
      <trkpt lat="44.33413" lon="5.19909">
        <ele>696.9</ele>
        <time>2022-07-19T07:50:05Z</time>
      </trkpt>
      <trkpt lat="44.33412" lon="5.19908">
        <ele>696.9</ele>
        <time>2022-07-19T07:50:06Z</time>
      </trkpt>
      <trkpt lat="44.3341" lon="5.19904">
        <ele>697</ele>
        <time>2022-07-19T07:50:07Z</time>
      </trkpt>
      <trkpt lat="44.33409" lon="5.19903">
        <ele>697</ele>
        <time>2022-07-19T07:50:08Z</time>
      </trkpt>
      <trkpt lat="44.33408" lon="5.199">
        <ele>697</ele>
        <time>2022-07-19T07:50:09Z</time>
      </trkpt>
      <trkpt lat="44.33407" lon="5.19899">
        <ele>697</ele>
        <time>2022-07-19T07:50:10Z</time>
      </trkpt>
      <trkpt lat="44.33406" lon="5.19896">
        <ele>697</ele>
        <time>2022-07-19T07:50:11Z</time>
      </trkpt>
      <trkpt lat="44.33405" lon="5.19895">
        <ele>697.1</ele>
        <time>2022-07-19T07:50:12Z</time>
      </trkpt>
      <trkpt lat="44.33403" lon="5.1989">
        <ele>697.1</ele>
        <time>2022-07-19T07:50:13Z</time>
      </trkpt>
      <trkpt lat="44.33402" lon="5.19889">
        <ele>697.1</ele>
        <time>2022-07-19T07:50:14Z</time>
      </trkpt>
      <trkpt lat="44.33401" lon="5.19884">
        <ele>697.2</ele>
        <time>2022-07-19T07:50:15Z</time>
      </trkpt>
      <trkpt lat="44.334" lon="5.19883">
        <ele>697.2</ele>
        <time>2022-07-19T07:50:16Z</time>
      </trkpt>
      <trkpt lat="44.33399" lon="5.19879">
        <ele>697.2</ele>
        <time>2022-07-19T07:50:17Z</time>
      </trkpt>
      <trkpt lat="44.33398" lon="5.19878">
        <ele>697.2</ele>
        <time>2022-07-19T07:50:18Z</time>
      </trkpt>
      <trkpt lat="44.33397" lon="5.19874">
        <ele>697.3</ele>
        <time>2022-07-19T07:50:19Z</time>
      </trkpt>
      <trkpt lat="44.33397" lon="5.19872">
        <ele>697.3</ele>
        <time>2022-07-19T07:50:20Z</time>
      </trkpt>
      <trkpt lat="44.33397" lon="5.19868">
        <ele>697.4</ele>
        <time>2022-07-19T07:50:21Z</time>
      </trkpt>
      <trkpt lat="44.33396" lon="5.19867">
        <ele>697.4</ele>
        <time>2022-07-19T07:50:22Z</time>
      </trkpt>
      <trkpt lat="44.33396" lon="5.19862">
        <ele>697.5</ele>
        <time>2022-07-19T07:50:23Z</time>
      </trkpt>
      <trkpt lat="44.33395" lon="5.19861">
        <ele>697.5</ele>
        <time>2022-07-19T07:50:24Z</time>
      </trkpt>
      <trkpt lat="44.33395" lon="5.19856">
        <ele>697.6</ele>
        <time>2022-07-19T07:50:25Z</time>
      </trkpt>
      <trkpt lat="44.33394" lon="5.19854">
        <ele>697.7</ele>
        <time>2022-07-19T07:50:26Z</time>
      </trkpt>
      <trkpt lat="44.33393" lon="5.1985">
        <ele>697.8</ele>
        <time>2022-07-19T07:50:27Z</time>
      </trkpt>
      <trkpt lat="44.33392" lon="5.19848">
        <ele>697.8</ele>
        <time>2022-07-19T07:50:28Z</time>
      </trkpt>
      <trkpt lat="44.33391" lon="5.19844">
        <ele>697.9</ele>
        <time>2022-07-19T07:50:29Z</time>
      </trkpt>
      <trkpt lat="44.33391" lon="5.19842">
        <ele>697.9</ele>
        <time>2022-07-19T07:50:30Z</time>
      </trkpt>
      <trkpt lat="44.33391" lon="5.19838">
        <ele>697.9</ele>
        <time>2022-07-19T07:50:31Z</time>
      </trkpt>
      <trkpt lat="44.3339" lon="5.19836">
        <ele>698</ele>
        <time>2022-07-19T07:50:32Z</time>
      </trkpt>
      <trkpt lat="44.33389" lon="5.19832">
        <ele>698.2</ele>
        <time>2022-07-19T07:50:33Z</time>
      </trkpt>
      <trkpt lat="44.33389" lon="5.19831">
        <ele>698.3</ele>
        <time>2022-07-19T07:50:34Z</time>
      </trkpt>
      <trkpt lat="44.33387" lon="5.19826">
        <ele>698.6</ele>
        <time>2022-07-19T07:50:35Z</time>
      </trkpt>
      <trkpt lat="44.33386" lon="5.19825">
        <ele>698.7</ele>
        <time>2022-07-19T07:50:36Z</time>
      </trkpt>
      <trkpt lat="44.33384" lon="5.1982">
        <ele>699</ele>
        <time>2022-07-19T07:50:37Z</time>
      </trkpt>
      <trkpt lat="44.33383" lon="5.19819">
        <ele>699.1</ele>
        <time>2022-07-19T07:50:38Z</time>
      </trkpt>
      <trkpt lat="44.33381" lon="5.19815">
        <ele>699.3</ele>
        <time>2022-07-19T07:50:39Z</time>
      </trkpt>
      <trkpt lat="44.33379" lon="5.19812">
        <ele>699.6</ele>
        <time>2022-07-19T07:50:40Z</time>
      </trkpt>
      <trkpt lat="44.33377" lon="5.19809">
        <ele>699.8</ele>
        <time>2022-07-19T07:50:41Z</time>
      </trkpt>
      <trkpt lat="44.33376" lon="5.19805">
        <ele>700</ele>
        <time>2022-07-19T07:50:42Z</time>
      </trkpt>
      <trkpt lat="44.33374" lon="5.19802">
        <ele>700.2</ele>
        <time>2022-07-19T07:50:43Z</time>
      </trkpt>
      <trkpt lat="44.33372" lon="5.19798">
        <ele>700.5</ele>
        <time>2022-07-19T07:50:44Z</time>
      </trkpt>
      <trkpt lat="44.33371" lon="5.19795">
        <ele>700.7</ele>
        <time>2022-07-19T07:50:45Z</time>
      </trkpt>
      <trkpt lat="44.3337" lon="5.19791">
        <ele>700.9</ele>
        <time>2022-07-19T07:50:46Z</time>
      </trkpt>
      <trkpt lat="44.33368" lon="5.19786">
        <ele>701.2</ele>
        <time>2022-07-19T07:50:47Z</time>
      </trkpt>
      <trkpt lat="44.33368" lon="5.19785">
        <ele>701.3</ele>
        <time>2022-07-19T07:50:48Z</time>
      </trkpt>
      <trkpt lat="44.33366" lon="5.1978">
        <ele>701.6</ele>
        <time>2022-07-19T07:50:49Z</time>
      </trkpt>
      <trkpt lat="44.33365" lon="5.19779">
        <ele>701.7</ele>
        <time>2022-07-19T07:50:50Z</time>
      </trkpt>
      <trkpt lat="44.33364" lon="5.19775">
        <ele>701.9</ele>
        <time>2022-07-19T07:50:51Z</time>
      </trkpt>
      <trkpt lat="44.33363" lon="5.19773">
        <ele>702</ele>
        <time>2022-07-19T07:50:52Z</time>
      </trkpt>
      <trkpt lat="44.33361" lon="5.19769">
        <ele>702.3</ele>
        <time>2022-07-19T07:50:53Z</time>
      </trkpt>
      <trkpt lat="44.3336" lon="5.19768">
        <ele>702.4</ele>
        <time>2022-07-19T07:50:54Z</time>
      </trkpt>
      <trkpt lat="44.33358" lon="5.19764">
        <ele>702.7</ele>
        <time>2022-07-19T07:50:55Z</time>
      </trkpt>
      <trkpt lat="44.33358" lon="5.19763">
        <ele>702.8</ele>
        <time>2022-07-19T07:50:56Z</time>
      </trkpt>
      <trkpt lat="44.33356" lon="5.19759">
        <ele>703.1</ele>
        <time>2022-07-19T07:50:57Z</time>
      </trkpt>
      <trkpt lat="44.33355" lon="5.19757">
        <ele>703.2</ele>
        <time>2022-07-19T07:50:58Z</time>
      </trkpt>
      <trkpt lat="44.33354" lon="5.19753">
        <ele>703.5</ele>
        <time>2022-07-19T07:50:59Z</time>
      </trkpt>
      <trkpt lat="44.33353" lon="5.19752">
        <ele>703.6</ele>
        <time>2022-07-19T07:51:00Z</time>
      </trkpt>
      <trkpt lat="44.33351" lon="5.19747">
        <ele>703.9</ele>
        <time>2022-07-19T07:51:01Z</time>
      </trkpt>
      <trkpt lat="44.33351" lon="5.19746">
        <ele>704</ele>
        <time>2022-07-19T07:51:02Z</time>
      </trkpt>
      <trkpt lat="44.33349" lon="5.19742">
        <ele>704.4</ele>
        <time>2022-07-19T07:51:03Z</time>
      </trkpt>
      <trkpt lat="44.33348" lon="5.19741">
        <ele>704.5</ele>
        <time>2022-07-19T07:51:04Z</time>
      </trkpt>
      <trkpt lat="44.33346" lon="5.19737">
        <ele>704.8</ele>
        <time>2022-07-19T07:51:05Z</time>
      </trkpt>
      <trkpt lat="44.33346" lon="5.19735">
        <ele>704.9</ele>
        <time>2022-07-19T07:51:06Z</time>
      </trkpt>
      <trkpt lat="44.33345" lon="5.19733">
        <ele>705.1</ele>
        <time>2022-07-19T07:51:07Z</time>
      </trkpt>
      <trkpt lat="44.33345" lon="5.19731">
        <ele>705.3</ele>
        <time>2022-07-19T07:51:08Z</time>
      </trkpt>
      <trkpt lat="44.33344" lon="5.19729">
        <ele>705.4</ele>
        <time>2022-07-19T07:51:09Z</time>
      </trkpt>
      <trkpt lat="44.33344" lon="5.19727">
        <ele>705.6</ele>
        <time>2022-07-19T07:51:10Z</time>
      </trkpt>
      <trkpt lat="44.33343" lon="5.19723">
        <ele>705.9</ele>
        <time>2022-07-19T07:51:11Z</time>
      </trkpt>
      <trkpt lat="44.33343" lon="5.19722">
        <ele>706</ele>
        <time>2022-07-19T07:51:12Z</time>
      </trkpt>
      <trkpt lat="44.33342" lon="5.1972">
        <ele>706.2</ele>
        <time>2022-07-19T07:51:13Z</time>
      </trkpt>
      <trkpt lat="44.33341" lon="5.19718">
        <ele>706.4</ele>
        <time>2022-07-19T07:51:14Z</time>
      </trkpt>
      <trkpt lat="44.33339" lon="5.19715">
        <ele>706.8</ele>
        <time>2022-07-19T07:51:15Z</time>
      </trkpt>
      <trkpt lat="44.33338" lon="5.19714">
        <ele>706.9</ele>
        <time>2022-07-19T07:51:16Z</time>
      </trkpt>
      <trkpt lat="44.33337" lon="5.1971">
        <ele>707.2</ele>
        <time>2022-07-19T07:51:17Z</time>
      </trkpt>
      <trkpt lat="44.33337" lon="5.19709">
        <ele>707.3</ele>
        <time>2022-07-19T07:51:18Z</time>
      </trkpt>
      <trkpt lat="44.33336" lon="5.19705">
        <ele>707.7</ele>
        <time>2022-07-19T07:51:19Z</time>
      </trkpt>
      <trkpt lat="44.33336" lon="5.19704">
        <ele>707.8</ele>
        <time>2022-07-19T07:51:20Z</time>
      </trkpt>
      <trkpt lat="44.33335" lon="5.19701">
        <ele>708.1</ele>
        <time>2022-07-19T07:51:21Z</time>
      </trkpt>
      <trkpt lat="44.33334" lon="5.197">
        <ele>708.2</ele>
        <time>2022-07-19T07:51:22Z</time>
      </trkpt>
      <trkpt lat="44.33332" lon="5.19697">
        <ele>708.6</ele>
        <time>2022-07-19T07:51:23Z</time>
      </trkpt>
      <trkpt lat="44.33332" lon="5.19696">
        <ele>708.8</ele>
        <time>2022-07-19T07:51:24Z</time>
      </trkpt>
      <trkpt lat="44.3333" lon="5.19692">
        <ele>709.1</ele>
        <time>2022-07-19T07:51:25Z</time>
      </trkpt>
      <trkpt lat="44.33329" lon="5.19691">
        <ele>709.3</ele>
        <time>2022-07-19T07:51:26Z</time>
      </trkpt>
      <trkpt lat="44.33328" lon="5.19689">
        <ele>709.5</ele>
        <time>2022-07-19T07:51:27Z</time>
      </trkpt>
      <trkpt lat="44.33327" lon="5.19688">
        <ele>709.7</ele>
        <time>2022-07-19T07:51:28Z</time>
      </trkpt>
      <trkpt lat="44.33326" lon="5.19686">
        <ele>709.9</ele>
        <time>2022-07-19T07:51:29Z</time>
      </trkpt>
      <trkpt lat="44.33325" lon="5.19685">
        <ele>710.1</ele>
        <time>2022-07-19T07:51:30Z</time>
      </trkpt>
      <trkpt lat="44.33325" lon="5.19682">
        <ele>710.3</ele>
        <time>2022-07-19T07:51:31Z</time>
      </trkpt>
      <trkpt lat="44.33324" lon="5.1968">
        <ele>710.6</ele>
        <time>2022-07-19T07:51:32Z</time>
      </trkpt>
      <trkpt lat="44.33323" lon="5.19678">
        <ele>710.8</ele>
        <time>2022-07-19T07:51:33Z</time>
      </trkpt>
      <trkpt lat="44.33322" lon="5.19676">
        <ele>711</ele>
        <time>2022-07-19T07:51:34Z</time>
      </trkpt>
      <trkpt lat="44.33321" lon="5.19674">
        <ele>711.2</ele>
        <time>2022-07-19T07:51:35Z</time>
      </trkpt>
      <trkpt lat="44.3332" lon="5.19673">
        <ele>711.4</ele>
        <time>2022-07-19T07:51:36Z</time>
      </trkpt>
      <trkpt lat="44.33318" lon="5.19669">
        <ele>711.8</ele>
        <time>2022-07-19T07:51:37Z</time>
      </trkpt>
      <trkpt lat="44.33317" lon="5.19668">
        <ele>711.9</ele>
        <time>2022-07-19T07:51:38Z</time>
      </trkpt>
      <trkpt lat="44.33316" lon="5.19666">
        <ele>712.2</ele>
        <time>2022-07-19T07:51:39Z</time>
      </trkpt>
      <trkpt lat="44.33315" lon="5.19664">
        <ele>712.4</ele>
        <time>2022-07-19T07:51:40Z</time>
      </trkpt>
      <trkpt lat="44.33314" lon="5.19661">
        <ele>713.1</ele>
        <time>2022-07-19T07:51:41Z</time>
      </trkpt>
      <trkpt lat="44.33314" lon="5.19659">
        <ele>713.2</ele>
        <time>2022-07-19T07:51:42Z</time>
      </trkpt>
      <trkpt lat="44.33313" lon="5.19657">
        <ele>713.4</ele>
        <time>2022-07-19T07:51:43Z</time>
      </trkpt>
      <trkpt lat="44.33313" lon="5.19655">
        <ele>713.5</ele>
        <time>2022-07-19T07:51:44Z</time>
      </trkpt>
      <trkpt lat="44.33313" lon="5.19653">
        <ele>713.6</ele>
        <time>2022-07-19T07:51:45Z</time>
      </trkpt>
      <trkpt lat="44.33313" lon="5.19651">
        <ele>713.7</ele>
        <time>2022-07-19T07:51:46Z</time>
      </trkpt>
      <trkpt lat="44.33313" lon="5.19649">
        <ele>713.8</ele>
        <time>2022-07-19T07:51:47Z</time>
      </trkpt>
      <trkpt lat="44.33313" lon="5.19647">
        <ele>714</ele>
        <time>2022-07-19T07:51:48Z</time>
      </trkpt>
      <trkpt lat="44.33312" lon="5.19645">
        <ele>714.1</ele>
        <time>2022-07-19T07:51:49Z</time>
      </trkpt>
      <trkpt lat="44.33312" lon="5.19643">
        <ele>714.2</ele>
        <time>2022-07-19T07:51:50Z</time>
      </trkpt>
      <trkpt lat="44.33311" lon="5.19642">
        <ele>714.3</ele>
        <time>2022-07-19T07:51:51Z</time>
      </trkpt>
      <trkpt lat="44.3331" lon="5.19642">
        <ele>714.4</ele>
        <time>2022-07-19T07:51:52Z</time>
      </trkpt>
      <trkpt lat="44.33309" lon="5.19642">
        <ele>714.4</ele>
        <time>2022-07-19T07:51:53Z</time>
      </trkpt>
      <trkpt lat="44.33308" lon="5.19642">
        <ele>714.5</ele>
        <time>2022-07-19T07:51:54Z</time>
      </trkpt>
      <trkpt lat="44.33307" lon="5.19642">
        <ele>714.5</ele>
        <time>2022-07-19T07:51:55Z</time>
      </trkpt>
      <trkpt lat="44.33306" lon="5.19642">
        <ele>714.6</ele>
        <time>2022-07-19T07:51:56Z</time>
      </trkpt>
      <trkpt lat="44.33306" lon="5.19642">
        <ele>714.7</ele>
        <time>2022-07-19T07:51:57Z</time>
      </trkpt>
      <trkpt lat="44.33305" lon="5.19642">
        <ele>714.7</ele>
        <time>2022-07-19T07:51:58Z</time>
      </trkpt>
      <trkpt lat="44.33304" lon="5.19642">
        <ele>714.8</ele>
        <time>2022-07-19T07:51:59Z</time>
      </trkpt>
      <trkpt lat="44.33303" lon="5.19642">
        <ele>714.8</ele>
        <time>2022-07-19T07:52:00Z</time>
      </trkpt>
      <trkpt lat="44.33303" lon="5.19642">
        <ele>714.9</ele>
        <time>2022-07-19T07:52:01Z</time>
      </trkpt>
      <trkpt lat="44.33302" lon="5.19642">
        <ele>714.9</ele>
        <time>2022-07-19T07:52:02Z</time>
      </trkpt>
      <trkpt lat="44.33301" lon="5.19642">
        <ele>715</ele>
        <time>2022-07-19T07:52:10Z</time>
      </trkpt>
      <trkpt lat="44.33301" lon="5.19642">
        <ele>715</ele>
        <time>2022-07-19T07:52:11Z</time>
      </trkpt>
      <trkpt lat="44.333" lon="5.19642">
        <ele>715.1</ele>
        <time>2022-07-19T07:52:12Z</time>
      </trkpt>
      <trkpt lat="44.33299" lon="5.19642">
        <ele>715.2</ele>
        <time>2022-07-19T07:52:13Z</time>
      </trkpt>
      <trkpt lat="44.33298" lon="5.19642">
        <ele>715.2</ele>
        <time>2022-07-19T07:52:14Z</time>
      </trkpt>
      <trkpt lat="44.33298" lon="5.19641">
        <ele>715.3</ele>
        <time>2022-07-19T07:52:15Z</time>
      </trkpt>
      <trkpt lat="44.33297" lon="5.19641">
        <ele>715.3</ele>
        <time>2022-07-19T07:52:16Z</time>
      </trkpt>
      <trkpt lat="44.33296" lon="5.19641">
        <ele>715.4</ele>
        <time>2022-07-19T07:52:17Z</time>
      </trkpt>
      <trkpt lat="44.33295" lon="5.19641">
        <ele>715.5</ele>
        <time>2022-07-19T07:52:18Z</time>
      </trkpt>
      <trkpt lat="44.33295" lon="5.19641">
        <ele>715.5</ele>
        <time>2022-07-19T07:52:19Z</time>
      </trkpt>
      <trkpt lat="44.33295" lon="5.19641">
        <ele>715.5</ele>
        <time>2022-07-19T07:52:20Z</time>
      </trkpt>
      <trkpt lat="44.33295" lon="5.19641">
        <ele>715.5</ele>
        <time>2022-07-19T07:52:21Z</time>
      </trkpt>
      <trkpt lat="44.33296" lon="5.19634">
        <ele>716</ele>
        <time>2022-07-19T07:55:41Z</time>
      </trkpt>
      <trkpt lat="44.33296" lon="5.19631">
        <ele>716.2</ele>
        <time>2022-07-19T07:55:42Z</time>
      </trkpt>
      <trkpt lat="44.33295" lon="5.19627">
        <ele>716.5</ele>
        <time>2022-07-19T07:55:43Z</time>
      </trkpt>
      <trkpt lat="44.33295" lon="5.19626">
        <ele>716.6</ele>
        <time>2022-07-19T07:55:44Z</time>
      </trkpt>
      <trkpt lat="44.33293" lon="5.19622">
        <ele>716.9</ele>
        <time>2022-07-19T07:55:45Z</time>
      </trkpt>
      <trkpt lat="44.33293" lon="5.19621">
        <ele>717</ele>
        <time>2022-07-19T07:55:46Z</time>
      </trkpt>
      <trkpt lat="44.33291" lon="5.19618">
        <ele>717.4</ele>
        <time>2022-07-19T07:55:47Z</time>
      </trkpt>
      <trkpt lat="44.33291" lon="5.19616">
        <ele>717.5</ele>
        <time>2022-07-19T07:55:48Z</time>
      </trkpt>
      <trkpt lat="44.3329" lon="5.19612">
        <ele>717.9</ele>
        <time>2022-07-19T07:55:49Z</time>
      </trkpt>
      <trkpt lat="44.33289" lon="5.19611">
        <ele>718</ele>
        <time>2022-07-19T07:55:50Z</time>
      </trkpt>
      <trkpt lat="44.33289" lon="5.19609">
        <ele>718.3</ele>
        <time>2022-07-19T07:55:51Z</time>
      </trkpt>
      <trkpt lat="44.33288" lon="5.19607">
        <ele>718.5</ele>
        <time>2022-07-19T07:55:52Z</time>
      </trkpt>
      <trkpt lat="44.33287" lon="5.19605">
        <ele>718.7</ele>
        <time>2022-07-19T07:55:53Z</time>
      </trkpt>
      <trkpt lat="44.33286" lon="5.19603">
        <ele>718.9</ele>
        <time>2022-07-19T07:55:54Z</time>
      </trkpt>
      <trkpt lat="44.33285" lon="5.19601">
        <ele>719.1</ele>
        <time>2022-07-19T07:55:55Z</time>
      </trkpt>
      <trkpt lat="44.33285" lon="5.19599">
        <ele>719.3</ele>
        <time>2022-07-19T07:55:56Z</time>
      </trkpt>
      <trkpt lat="44.33284" lon="5.19597">
        <ele>719.5</ele>
        <time>2022-07-19T07:55:57Z</time>
      </trkpt>
      <trkpt lat="44.33283" lon="5.19595">
        <ele>719.7</ele>
        <time>2022-07-19T07:55:58Z</time>
      </trkpt>
      <trkpt lat="44.33282" lon="5.19593">
        <ele>719.9</ele>
        <time>2022-07-19T07:55:59Z</time>
      </trkpt>
      <trkpt lat="44.33281" lon="5.19591">
        <ele>720.1</ele>
        <time>2022-07-19T07:56:00Z</time>
      </trkpt>
      <trkpt lat="44.3328" lon="5.19589">
        <ele>720.3</ele>
        <time>2022-07-19T07:56:01Z</time>
      </trkpt>
      <trkpt lat="44.33279" lon="5.19588">
        <ele>720.4</ele>
        <time>2022-07-19T07:56:02Z</time>
      </trkpt>
      <trkpt lat="44.33279" lon="5.19585">
        <ele>720.5</ele>
        <time>2022-07-19T07:56:03Z</time>
      </trkpt>
      <trkpt lat="44.33278" lon="5.19583">
        <ele>720.7</ele>
        <time>2022-07-19T07:56:04Z</time>
      </trkpt>
      <trkpt lat="44.33278" lon="5.19579">
        <ele>720.9</ele>
        <time>2022-07-19T07:56:05Z</time>
      </trkpt>
      <trkpt lat="44.33279" lon="5.19578">
        <ele>721</ele>
        <time>2022-07-19T07:56:06Z</time>
      </trkpt>
      <trkpt lat="44.33279" lon="5.19577">
        <ele>721.1</ele>
        <time>2022-07-19T07:56:07Z</time>
      </trkpt>
      <trkpt lat="44.33279" lon="5.19575">
        <ele>721.2</ele>
        <time>2022-07-19T07:56:08Z</time>
      </trkpt>
      <trkpt lat="44.33279" lon="5.19574">
        <ele>721.3</ele>
        <time>2022-07-19T07:56:09Z</time>
      </trkpt>
      <trkpt lat="44.33278" lon="5.19572">
        <ele>721.4</ele>
        <time>2022-07-19T07:56:10Z</time>
      </trkpt>
      <trkpt lat="44.33278" lon="5.1957">
        <ele>721.5</ele>
        <time>2022-07-19T07:56:11Z</time>
      </trkpt>
      <trkpt lat="44.33278" lon="5.19568">
        <ele>721.7</ele>
        <time>2022-07-19T07:56:12Z</time>
      </trkpt>
      <trkpt lat="44.33277" lon="5.19566">
        <ele>721.8</ele>
        <time>2022-07-19T07:56:13Z</time>
      </trkpt>
      <trkpt lat="44.33277" lon="5.19563">
        <ele>722</ele>
        <time>2022-07-19T07:56:14Z</time>
      </trkpt>
      <trkpt lat="44.33277" lon="5.19562">
        <ele>722</ele>
        <time>2022-07-19T07:56:15Z</time>
      </trkpt>
      <trkpt lat="44.33277" lon="5.19561">
        <ele>722.1</ele>
        <time>2022-07-19T07:56:16Z</time>
      </trkpt>
      <trkpt lat="44.33276" lon="5.19558">
        <ele>722.2</ele>
        <time>2022-07-19T07:56:17Z</time>
      </trkpt>
      <trkpt lat="44.33276" lon="5.19557">
        <ele>722.3</ele>
        <time>2022-07-19T07:56:18Z</time>
      </trkpt>
      <trkpt lat="44.33275" lon="5.19556">
        <ele>722.4</ele>
        <time>2022-07-19T07:56:19Z</time>
      </trkpt>
      <trkpt lat="44.33275" lon="5.19555">
        <ele>722.5</ele>
        <time>2022-07-19T07:56:20Z</time>
      </trkpt>
      <trkpt lat="44.33275" lon="5.19553">
        <ele>722.5</ele>
        <time>2022-07-19T07:56:21Z</time>
      </trkpt>
      <trkpt lat="44.33275" lon="5.19551">
        <ele>722.6</ele>
        <time>2022-07-19T07:56:22Z</time>
      </trkpt>
      <trkpt lat="44.33275" lon="5.19548">
        <ele>722.8</ele>
        <time>2022-07-19T07:56:23Z</time>
      </trkpt>
      <trkpt lat="44.33275" lon="5.19547">
        <ele>722.9</ele>
        <time>2022-07-19T07:56:24Z</time>
      </trkpt>
      <trkpt lat="44.33274" lon="5.19546">
        <ele>722.9</ele>
        <time>2022-07-19T07:56:25Z</time>
      </trkpt>
      <trkpt lat="44.33274" lon="5.19544">
        <ele>723</ele>
        <time>2022-07-19T07:56:26Z</time>
      </trkpt>
      <trkpt lat="44.33273" lon="5.19542">
        <ele>723.1</ele>
        <time>2022-07-19T07:56:27Z</time>
      </trkpt>
      <trkpt lat="44.33273" lon="5.1954">
        <ele>723.3</ele>
        <time>2022-07-19T07:56:28Z</time>
      </trkpt>
      <trkpt lat="44.33272" lon="5.19539">
        <ele>723.3</ele>
        <time>2022-07-19T07:56:29Z</time>
      </trkpt>
      <trkpt lat="44.33272" lon="5.19538">
        <ele>723.4</ele>
        <time>2022-07-19T07:56:30Z</time>
      </trkpt>
      <trkpt lat="44.33272" lon="5.19536">
        <ele>723.5</ele>
        <time>2022-07-19T07:56:31Z</time>
      </trkpt>
      <trkpt lat="44.33271" lon="5.19535">
        <ele>723.6</ele>
        <time>2022-07-19T07:56:32Z</time>
      </trkpt>
      <trkpt lat="44.33271" lon="5.19533">
        <ele>723.7</ele>
        <time>2022-07-19T07:56:33Z</time>
      </trkpt>
      <trkpt lat="44.3327" lon="5.19531">
        <ele>723.8</ele>
        <time>2022-07-19T07:56:34Z</time>
      </trkpt>
      <trkpt lat="44.3327" lon="5.19529">
        <ele>723.9</ele>
        <time>2022-07-19T07:56:35Z</time>
      </trkpt>
      <trkpt lat="44.3327" lon="5.19527">
        <ele>724</ele>
        <time>2022-07-19T07:56:36Z</time>
      </trkpt>
      <trkpt lat="44.3327" lon="5.19524">
        <ele>724.1</ele>
        <time>2022-07-19T07:56:37Z</time>
      </trkpt>
      <trkpt lat="44.3327" lon="5.19521">
        <ele>724.3</ele>
        <time>2022-07-19T07:56:38Z</time>
      </trkpt>
      <trkpt lat="44.33269" lon="5.1952">
        <ele>724.4</ele>
        <time>2022-07-19T07:56:39Z</time>
      </trkpt>
      <trkpt lat="44.33269" lon="5.19519">
        <ele>724.4</ele>
        <time>2022-07-19T07:56:40Z</time>
      </trkpt>
      <trkpt lat="44.33268" lon="5.19517">
        <ele>724.6</ele>
        <time>2022-07-19T07:56:41Z</time>
      </trkpt>
      <trkpt lat="44.33268" lon="5.19516">
        <ele>724.7</ele>
        <time>2022-07-19T07:56:42Z</time>
      </trkpt>
      <trkpt lat="44.33268" lon="5.19514">
        <ele>724.7</ele>
        <time>2022-07-19T07:56:43Z</time>
      </trkpt>
      <trkpt lat="44.33268" lon="5.19513">
        <ele>724.9</ele>
        <time>2022-07-19T07:56:44Z</time>
      </trkpt>
      <trkpt lat="44.33267" lon="5.19511">
        <ele>725</ele>
        <time>2022-07-19T07:56:45Z</time>
      </trkpt>
      <trkpt lat="44.33267" lon="5.19509">
        <ele>725.1</ele>
        <time>2022-07-19T07:56:46Z</time>
      </trkpt>
      <trkpt lat="44.33267" lon="5.19508">
        <ele>725.1</ele>
        <time>2022-07-19T07:56:47Z</time>
      </trkpt>
      <trkpt lat="44.33266" lon="5.19506">
        <ele>725.2</ele>
        <time>2022-07-19T07:56:48Z</time>
      </trkpt>
      <trkpt lat="44.33266" lon="5.19503">
        <ele>725.4</ele>
        <time>2022-07-19T07:56:49Z</time>
      </trkpt>
      <trkpt lat="44.33266" lon="5.19502">
        <ele>725.5</ele>
        <time>2022-07-19T07:56:50Z</time>
      </trkpt>
      <trkpt lat="44.33265" lon="5.19501">
        <ele>725.5</ele>
        <time>2022-07-19T07:56:51Z</time>
      </trkpt>
      <trkpt lat="44.33265" lon="5.19498">
        <ele>725.7</ele>
        <time>2022-07-19T07:56:52Z</time>
      </trkpt>
      <trkpt lat="44.33265" lon="5.19497">
        <ele>725.8</ele>
        <time>2022-07-19T07:56:53Z</time>
      </trkpt>
      <trkpt lat="44.33265" lon="5.19496">
        <ele>725.8</ele>
        <time>2022-07-19T07:56:54Z</time>
      </trkpt>
      <trkpt lat="44.33264" lon="5.19493">
        <ele>726</ele>
        <time>2022-07-19T07:56:55Z</time>
      </trkpt>
      <trkpt lat="44.33264" lon="5.19492">
        <ele>726.1</ele>
        <time>2022-07-19T07:56:56Z</time>
      </trkpt>
      <trkpt lat="44.33264" lon="5.19491">
        <ele>726.2</ele>
        <time>2022-07-19T07:56:57Z</time>
      </trkpt>
      <trkpt lat="44.33264" lon="5.19489">
        <ele>726.3</ele>
        <time>2022-07-19T07:56:58Z</time>
      </trkpt>
      <trkpt lat="44.33264" lon="5.19487">
        <ele>726.4</ele>
        <time>2022-07-19T07:56:59Z</time>
      </trkpt>
      <trkpt lat="44.33263" lon="5.19485">
        <ele>726.6</ele>
        <time>2022-07-19T07:57:00Z</time>
      </trkpt>
      <trkpt lat="44.33263" lon="5.19483">
        <ele>726.7</ele>
        <time>2022-07-19T07:57:01Z</time>
      </trkpt>
      <trkpt lat="44.33262" lon="5.1948">
        <ele>727</ele>
        <time>2022-07-19T07:57:02Z</time>
      </trkpt>
      <trkpt lat="44.33262" lon="5.19479">
        <ele>727</ele>
        <time>2022-07-19T07:57:03Z</time>
      </trkpt>
      <trkpt lat="44.33261" lon="5.19478">
        <ele>727.1</ele>
        <time>2022-07-19T07:57:04Z</time>
      </trkpt>
      <trkpt lat="44.33261" lon="5.19476">
        <ele>727.4</ele>
        <time>2022-07-19T07:57:05Z</time>
      </trkpt>
      <trkpt lat="44.3326" lon="5.19474">
        <ele>727.5</ele>
        <time>2022-07-19T07:57:06Z</time>
      </trkpt>
      <trkpt lat="44.3326" lon="5.19473">
        <ele>727.6</ele>
        <time>2022-07-19T07:57:07Z</time>
      </trkpt>
      <trkpt lat="44.33259" lon="5.19472">
        <ele>727.7</ele>
        <time>2022-07-19T07:57:08Z</time>
      </trkpt>
      <trkpt lat="44.33258" lon="5.1947">
        <ele>727.9</ele>
        <time>2022-07-19T07:57:09Z</time>
      </trkpt>
      <trkpt lat="44.33257" lon="5.19468">
        <ele>728.1</ele>
        <time>2022-07-19T07:57:10Z</time>
      </trkpt>
      <trkpt lat="44.33257" lon="5.19467">
        <ele>728.3</ele>
        <time>2022-07-19T07:57:11Z</time>
      </trkpt>
      <trkpt lat="44.33256" lon="5.19465">
        <ele>728.4</ele>
        <time>2022-07-19T07:57:12Z</time>
      </trkpt>
      <trkpt lat="44.33255" lon="5.19463">
        <ele>728.6</ele>
        <time>2022-07-19T07:57:13Z</time>
      </trkpt>
      <trkpt lat="44.33254" lon="5.19462">
        <ele>728.8</ele>
        <time>2022-07-19T07:57:14Z</time>
      </trkpt>
      <trkpt lat="44.33253" lon="5.1946">
        <ele>728.9</ele>
        <time>2022-07-19T07:57:15Z</time>
      </trkpt>
      <trkpt lat="44.33252" lon="5.19459">
        <ele>729</ele>
        <time>2022-07-19T07:57:16Z</time>
      </trkpt>
      <trkpt lat="44.33251" lon="5.19457">
        <ele>729.2</ele>
        <time>2022-07-19T07:57:17Z</time>
      </trkpt>
      <trkpt lat="44.3325" lon="5.19455">
        <ele>729.3</ele>
        <time>2022-07-19T07:57:18Z</time>
      </trkpt>
      <trkpt lat="44.33249" lon="5.19454">
        <ele>729.5</ele>
        <time>2022-07-19T07:57:19Z</time>
      </trkpt>
      <trkpt lat="44.33249" lon="5.19452">
        <ele>729.6</ele>
        <time>2022-07-19T07:57:20Z</time>
      </trkpt>
      <trkpt lat="44.33248" lon="5.19451">
        <ele>729.7</ele>
        <time>2022-07-19T07:57:21Z</time>
      </trkpt>
      <trkpt lat="44.33247" lon="5.1945">
        <ele>729.8</ele>
        <time>2022-07-19T07:57:22Z</time>
      </trkpt>
      <trkpt lat="44.33247" lon="5.19449">
        <ele>729.8</ele>
        <time>2022-07-19T07:57:23Z</time>
      </trkpt>
      <trkpt lat="44.33246" lon="5.19448">
        <ele>729.9</ele>
        <time>2022-07-19T07:57:24Z</time>
      </trkpt>
      <trkpt lat="44.33245" lon="5.19446">
        <ele>730.1</ele>
        <time>2022-07-19T07:57:25Z</time>
      </trkpt>
      <trkpt lat="44.33244" lon="5.19445">
        <ele>730.2</ele>
        <time>2022-07-19T07:57:26Z</time>
      </trkpt>
      <trkpt lat="44.33243" lon="5.19443">
        <ele>730.3</ele>
        <time>2022-07-19T07:57:27Z</time>
      </trkpt>
      <trkpt lat="44.33242" lon="5.19442">
        <ele>730.4</ele>
        <time>2022-07-19T07:57:28Z</time>
      </trkpt>
      <trkpt lat="44.33242" lon="5.19441">
        <ele>730.5</ele>
        <time>2022-07-19T07:57:29Z</time>
      </trkpt>
      <trkpt lat="44.33241" lon="5.1944">
        <ele>730.6</ele>
        <time>2022-07-19T07:57:30Z</time>
      </trkpt>
      <trkpt lat="44.33241" lon="5.19439">
        <ele>730.7</ele>
        <time>2022-07-19T07:57:31Z</time>
      </trkpt>
      <trkpt lat="44.3324" lon="5.19437">
        <ele>730.8</ele>
        <time>2022-07-19T07:57:32Z</time>
      </trkpt>
      <trkpt lat="44.33239" lon="5.19436">
        <ele>730.8</ele>
        <time>2022-07-19T07:57:33Z</time>
      </trkpt>
      <trkpt lat="44.33238" lon="5.19435">
        <ele>731</ele>
        <time>2022-07-19T07:57:34Z</time>
      </trkpt>
      <trkpt lat="44.33237" lon="5.19434">
        <ele>731.1</ele>
        <time>2022-07-19T07:57:35Z</time>
      </trkpt>
      <trkpt lat="44.33236" lon="5.19432">
        <ele>731.2</ele>
        <time>2022-07-19T07:57:36Z</time>
      </trkpt>
      <trkpt lat="44.33235" lon="5.1943">
        <ele>731.3</ele>
        <time>2022-07-19T07:57:37Z</time>
      </trkpt>
      <trkpt lat="44.33235" lon="5.19428">
        <ele>731.4</ele>
        <time>2022-07-19T07:57:38Z</time>
      </trkpt>
      <trkpt lat="44.33234" lon="5.19427">
        <ele>731.5</ele>
        <time>2022-07-19T07:57:39Z</time>
      </trkpt>
      <trkpt lat="44.33233" lon="5.19425">
        <ele>731.6</ele>
        <time>2022-07-19T07:57:40Z</time>
      </trkpt>
      <trkpt lat="44.33232" lon="5.19424">
        <ele>731.7</ele>
        <time>2022-07-19T07:57:41Z</time>
      </trkpt>
      <trkpt lat="44.33231" lon="5.19422">
        <ele>731.9</ele>
        <time>2022-07-19T07:57:42Z</time>
      </trkpt>
      <trkpt lat="44.33229" lon="5.19421">
        <ele>732</ele>
        <time>2022-07-19T07:57:43Z</time>
      </trkpt>
      <trkpt lat="44.33228" lon="5.19419">
        <ele>732.1</ele>
        <time>2022-07-19T07:57:44Z</time>
      </trkpt>
      <trkpt lat="44.33227" lon="5.19418">
        <ele>732.2</ele>
        <time>2022-07-19T07:57:45Z</time>
      </trkpt>
      <trkpt lat="44.33225" lon="5.19417">
        <ele>732.3</ele>
        <time>2022-07-19T07:57:46Z</time>
      </trkpt>
      <trkpt lat="44.33224" lon="5.19417">
        <ele>732.4</ele>
        <time>2022-07-19T07:57:47Z</time>
      </trkpt>
      <trkpt lat="44.33223" lon="5.19416">
        <ele>732.5</ele>
        <time>2022-07-19T07:57:48Z</time>
      </trkpt>
      <trkpt lat="44.33222" lon="5.19415">
        <ele>732.6</ele>
        <time>2022-07-19T07:57:49Z</time>
      </trkpt>
      <trkpt lat="44.33222" lon="5.19413">
        <ele>732.6</ele>
        <time>2022-07-19T07:57:50Z</time>
      </trkpt>
      <trkpt lat="44.3322" lon="5.19412">
        <ele>732.7</ele>
        <time>2022-07-19T07:57:51Z</time>
      </trkpt>
      <trkpt lat="44.33219" lon="5.19411">
        <ele>732.9</ele>
        <time>2022-07-19T07:57:52Z</time>
      </trkpt>
      <trkpt lat="44.33218" lon="5.19409">
        <ele>733</ele>
        <time>2022-07-19T07:57:53Z</time>
      </trkpt>
      <trkpt lat="44.33217" lon="5.19408">
        <ele>733.1</ele>
        <time>2022-07-19T07:57:54Z</time>
      </trkpt>
      <trkpt lat="44.33217" lon="5.19407">
        <ele>733.2</ele>
        <time>2022-07-19T07:57:55Z</time>
      </trkpt>
      <trkpt lat="44.33216" lon="5.19405">
        <ele>733.3</ele>
        <time>2022-07-19T07:57:56Z</time>
      </trkpt>
      <trkpt lat="44.33215" lon="5.19403">
        <ele>733.4</ele>
        <time>2022-07-19T07:57:57Z</time>
      </trkpt>
      <trkpt lat="44.33214" lon="5.19401">
        <ele>733.6</ele>
        <time>2022-07-19T07:57:58Z</time>
      </trkpt>
      <trkpt lat="44.33213" lon="5.194">
        <ele>733.7</ele>
        <time>2022-07-19T07:57:59Z</time>
      </trkpt>
      <trkpt lat="44.33213" lon="5.19399">
        <ele>733.7</ele>
        <time>2022-07-19T07:58:00Z</time>
      </trkpt>
      <trkpt lat="44.33212" lon="5.19397">
        <ele>733.9</ele>
        <time>2022-07-19T07:58:01Z</time>
      </trkpt>
      <trkpt lat="44.33211" lon="5.19396">
        <ele>734</ele>
        <time>2022-07-19T07:58:02Z</time>
      </trkpt>
      <trkpt lat="44.33209" lon="5.19394">
        <ele>734.1</ele>
        <time>2022-07-19T07:58:03Z</time>
      </trkpt>
      <trkpt lat="44.33208" lon="5.19393">
        <ele>734.2</ele>
        <time>2022-07-19T07:58:04Z</time>
      </trkpt>
      <trkpt lat="44.33207" lon="5.1939">
        <ele>734.4</ele>
        <time>2022-07-19T07:58:05Z</time>
      </trkpt>
      <trkpt lat="44.33206" lon="5.1939">
        <ele>734.4</ele>
        <time>2022-07-19T07:58:06Z</time>
      </trkpt>
      <trkpt lat="44.33206" lon="5.19389">
        <ele>734.5</ele>
        <time>2022-07-19T07:58:07Z</time>
      </trkpt>
      <trkpt lat="44.33204" lon="5.19387">
        <ele>734.6</ele>
        <time>2022-07-19T07:58:08Z</time>
      </trkpt>
      <trkpt lat="44.33204" lon="5.19386">
        <ele>734.7</ele>
        <time>2022-07-19T07:58:09Z</time>
      </trkpt>
      <trkpt lat="44.33203" lon="5.19385">
        <ele>734.7</ele>
        <time>2022-07-19T07:58:10Z</time>
      </trkpt>
      <trkpt lat="44.33202" lon="5.19384">
        <ele>734.8</ele>
        <time>2022-07-19T07:58:11Z</time>
      </trkpt>
      <trkpt lat="44.33201" lon="5.19382">
        <ele>734.9</ele>
        <time>2022-07-19T07:58:12Z</time>
      </trkpt>
      <trkpt lat="44.332" lon="5.19381">
        <ele>735</ele>
        <time>2022-07-19T07:58:13Z</time>
      </trkpt>
      <trkpt lat="44.33199" lon="5.1938">
        <ele>735.1</ele>
        <time>2022-07-19T07:58:14Z</time>
      </trkpt>
      <trkpt lat="44.33198" lon="5.19379">
        <ele>735.2</ele>
        <time>2022-07-19T07:58:15Z</time>
      </trkpt>
      <trkpt lat="44.33197" lon="5.19378">
        <ele>735.2</ele>
        <time>2022-07-19T07:58:16Z</time>
      </trkpt>
      <trkpt lat="44.33195" lon="5.19377">
        <ele>735.3</ele>
        <time>2022-07-19T07:58:17Z</time>
      </trkpt>
      <trkpt lat="44.33194" lon="5.19376">
        <ele>735.4</ele>
        <time>2022-07-19T07:58:18Z</time>
      </trkpt>
      <trkpt lat="44.33193" lon="5.19374">
        <ele>735.5</ele>
        <time>2022-07-19T07:58:19Z</time>
      </trkpt>
      <trkpt lat="44.33192" lon="5.19373">
        <ele>735.6</ele>
        <time>2022-07-19T07:58:20Z</time>
      </trkpt>
      <trkpt lat="44.33191" lon="5.19373">
        <ele>735.6</ele>
        <time>2022-07-19T07:58:21Z</time>
      </trkpt>
      <trkpt lat="44.3319" lon="5.19372">
        <ele>735.7</ele>
        <time>2022-07-19T07:58:22Z</time>
      </trkpt>
      <trkpt lat="44.33189" lon="5.19371">
        <ele>735.8</ele>
        <time>2022-07-19T07:58:23Z</time>
      </trkpt>
      <trkpt lat="44.33188" lon="5.19371">
        <ele>735.8</ele>
        <time>2022-07-19T07:58:24Z</time>
      </trkpt>
      <trkpt lat="44.33186" lon="5.1937">
        <ele>736</ele>
        <time>2022-07-19T07:58:25Z</time>
      </trkpt>
      <trkpt lat="44.33185" lon="5.1937">
        <ele>736</ele>
        <time>2022-07-19T07:58:26Z</time>
      </trkpt>
      <trkpt lat="44.33184" lon="5.1937">
        <ele>736.1</ele>
        <time>2022-07-19T07:58:27Z</time>
      </trkpt>
      <trkpt lat="44.33183" lon="5.19369">
        <ele>736.2</ele>
        <time>2022-07-19T07:58:28Z</time>
      </trkpt>
      <trkpt lat="44.33182" lon="5.19369">
        <ele>736.3</ele>
        <time>2022-07-19T07:58:29Z</time>
      </trkpt>
      <trkpt lat="44.33181" lon="5.19369">
        <ele>736.4</ele>
        <time>2022-07-19T07:58:30Z</time>
      </trkpt>
      <trkpt lat="44.3318" lon="5.19368">
        <ele>736.5</ele>
        <time>2022-07-19T07:58:31Z</time>
      </trkpt>
      <trkpt lat="44.33179" lon="5.19367">
        <ele>736.6</ele>
        <time>2022-07-19T07:58:32Z</time>
      </trkpt>
      <trkpt lat="44.33178" lon="5.19367">
        <ele>736.7</ele>
        <time>2022-07-19T07:58:33Z</time>
      </trkpt>
      <trkpt lat="44.33176" lon="5.19366">
        <ele>736.9</ele>
        <time>2022-07-19T07:58:34Z</time>
      </trkpt>
      <trkpt lat="44.33175" lon="5.19366">
        <ele>737</ele>
        <time>2022-07-19T07:58:35Z</time>
      </trkpt>
      <trkpt lat="44.33174" lon="5.19366">
        <ele>737.1</ele>
        <time>2022-07-19T07:58:36Z</time>
      </trkpt>
      <trkpt lat="44.33174" lon="5.19366">
        <ele>737.1</ele>
        <time>2022-07-19T07:58:37Z</time>
      </trkpt>
      <trkpt lat="44.33173" lon="5.19365">
        <ele>737.2</ele>
        <time>2022-07-19T07:58:38Z</time>
      </trkpt>
      <trkpt lat="44.33171" lon="5.19365">
        <ele>737.4</ele>
        <time>2022-07-19T07:58:39Z</time>
      </trkpt>
      <trkpt lat="44.33168" lon="5.19365">
        <ele>737.6</ele>
        <time>2022-07-19T07:58:40Z</time>
      </trkpt>
      <trkpt lat="44.33167" lon="5.19365">
        <ele>737.7</ele>
        <time>2022-07-19T07:58:41Z</time>
      </trkpt>
      <trkpt lat="44.33166" lon="5.19365">
        <ele>737.8</ele>
        <time>2022-07-19T07:58:42Z</time>
      </trkpt>
      <trkpt lat="44.33165" lon="5.19365">
        <ele>737.9</ele>
        <time>2022-07-19T07:58:43Z</time>
      </trkpt>
      <trkpt lat="44.33164" lon="5.19365">
        <ele>738</ele>
        <time>2022-07-19T07:58:44Z</time>
      </trkpt>
      <trkpt lat="44.33162" lon="5.19363">
        <ele>738.1</ele>
        <time>2022-07-19T07:58:45Z</time>
      </trkpt>
      <trkpt lat="44.33161" lon="5.19363">
        <ele>738.2</ele>
        <time>2022-07-19T07:58:46Z</time>
      </trkpt>
      <trkpt lat="44.3316" lon="5.19362">
        <ele>738.3</ele>
        <time>2022-07-19T07:58:47Z</time>
      </trkpt>
      <trkpt lat="44.33159" lon="5.19362">
        <ele>738.4</ele>
        <time>2022-07-19T07:58:48Z</time>
      </trkpt>
      <trkpt lat="44.33158" lon="5.19361">
        <ele>738.5</ele>
        <time>2022-07-19T07:58:49Z</time>
      </trkpt>
      <trkpt lat="44.33156" lon="5.1936">
        <ele>738.6</ele>
        <time>2022-07-19T07:58:50Z</time>
      </trkpt>
      <trkpt lat="44.33155" lon="5.19359">
        <ele>738.7</ele>
        <time>2022-07-19T07:58:51Z</time>
      </trkpt>
      <trkpt lat="44.33155" lon="5.19359">
        <ele>738.8</ele>
        <time>2022-07-19T07:58:52Z</time>
      </trkpt>
      <trkpt lat="44.33154" lon="5.19359">
        <ele>738.8</ele>
        <time>2022-07-19T07:58:53Z</time>
      </trkpt>
      <trkpt lat="44.33152" lon="5.19358">
        <ele>738.9</ele>
        <time>2022-07-19T07:58:54Z</time>
      </trkpt>
      <trkpt lat="44.33151" lon="5.19358">
        <ele>739</ele>
        <time>2022-07-19T07:58:55Z</time>
      </trkpt>
      <trkpt lat="44.3315" lon="5.19357">
        <ele>739.1</ele>
        <time>2022-07-19T07:58:56Z</time>
      </trkpt>
      <trkpt lat="44.33148" lon="5.19357">
        <ele>739.2</ele>
        <time>2022-07-19T07:58:57Z</time>
      </trkpt>
      <trkpt lat="44.33147" lon="5.19356">
        <ele>739.3</ele>
        <time>2022-07-19T07:58:58Z</time>
      </trkpt>
      <trkpt lat="44.33146" lon="5.19355">
        <ele>739.4</ele>
        <time>2022-07-19T07:58:59Z</time>
      </trkpt>
      <trkpt lat="44.33145" lon="5.19355">
        <ele>739.5</ele>
        <time>2022-07-19T07:59:00Z</time>
      </trkpt>
      <trkpt lat="44.33144" lon="5.19354">
        <ele>739.6</ele>
        <time>2022-07-19T07:59:01Z</time>
      </trkpt>
      <trkpt lat="44.33142" lon="5.19352">
        <ele>739.7</ele>
        <time>2022-07-19T07:59:02Z</time>
      </trkpt>
      <trkpt lat="44.33141" lon="5.19351">
        <ele>739.8</ele>
        <time>2022-07-19T07:59:03Z</time>
      </trkpt>
      <trkpt lat="44.33141" lon="5.1935">
        <ele>739.9</ele>
        <time>2022-07-19T07:59:04Z</time>
      </trkpt>
      <trkpt lat="44.33139" lon="5.19349">
        <ele>739.9</ele>
        <time>2022-07-19T07:59:05Z</time>
      </trkpt>
      <trkpt lat="44.33139" lon="5.19349">
        <ele>740</ele>
        <time>2022-07-19T07:59:06Z</time>
      </trkpt>
      <trkpt lat="44.33138" lon="5.19348">
        <ele>740.1</ele>
        <time>2022-07-19T07:59:07Z</time>
      </trkpt>
      <trkpt lat="44.33137" lon="5.19346">
        <ele>740.2</ele>
        <time>2022-07-19T07:59:08Z</time>
      </trkpt>
      <trkpt lat="44.33136" lon="5.19345">
        <ele>740.2</ele>
        <time>2022-07-19T07:59:09Z</time>
      </trkpt>
      <trkpt lat="44.33135" lon="5.19344">
        <ele>740.3</ele>
        <time>2022-07-19T07:59:10Z</time>
      </trkpt>
      <trkpt lat="44.33134" lon="5.19343">
        <ele>740.4</ele>
        <time>2022-07-19T07:59:11Z</time>
      </trkpt>
      <trkpt lat="44.33133" lon="5.19342">
        <ele>740.5</ele>
        <time>2022-07-19T07:59:12Z</time>
      </trkpt>
      <trkpt lat="44.33131" lon="5.1934">
        <ele>740.7</ele>
        <time>2022-07-19T07:59:13Z</time>
      </trkpt>
      <trkpt lat="44.3313" lon="5.1934">
        <ele>740.8</ele>
        <time>2022-07-19T07:59:14Z</time>
      </trkpt>
      <trkpt lat="44.33127" lon="5.19338">
        <ele>741</ele>
        <time>2022-07-19T07:59:15Z</time>
      </trkpt>
      <trkpt lat="44.33126" lon="5.19338">
        <ele>741.1</ele>
        <time>2022-07-19T07:59:16Z</time>
      </trkpt>
      <trkpt lat="44.33123" lon="5.19336">
        <ele>741.3</ele>
        <time>2022-07-19T07:59:17Z</time>
      </trkpt>
      <trkpt lat="44.33122" lon="5.19336">
        <ele>741.3</ele>
        <time>2022-07-19T07:59:18Z</time>
      </trkpt>
      <trkpt lat="44.3312" lon="5.19334">
        <ele>741.6</ele>
        <time>2022-07-19T07:59:19Z</time>
      </trkpt>
      <trkpt lat="44.33119" lon="5.19333">
        <ele>741.7</ele>
        <time>2022-07-19T07:59:20Z</time>
      </trkpt>
      <trkpt lat="44.33116" lon="5.19331">
        <ele>742</ele>
        <time>2022-07-19T07:59:21Z</time>
      </trkpt>
      <trkpt lat="44.33116" lon="5.1933">
        <ele>742.1</ele>
        <time>2022-07-19T07:59:22Z</time>
      </trkpt>
      <trkpt lat="44.33114" lon="5.19329">
        <ele>742.2</ele>
        <time>2022-07-19T07:59:23Z</time>
      </trkpt>
      <trkpt lat="44.33113" lon="5.19328">
        <ele>742.4</ele>
        <time>2022-07-19T07:59:24Z</time>
      </trkpt>
      <trkpt lat="44.33112" lon="5.19326">
        <ele>742.6</ele>
        <time>2022-07-19T07:59:25Z</time>
      </trkpt>
      <trkpt lat="44.3311" lon="5.19325">
        <ele>742.7</ele>
        <time>2022-07-19T07:59:26Z</time>
      </trkpt>
      <trkpt lat="44.33109" lon="5.19323">
        <ele>742.9</ele>
        <time>2022-07-19T07:59:27Z</time>
      </trkpt>
      <trkpt lat="44.33107" lon="5.19322">
        <ele>743.1</ele>
        <time>2022-07-19T07:59:28Z</time>
      </trkpt>
      <trkpt lat="44.33106" lon="5.19321">
        <ele>743.2</ele>
        <time>2022-07-19T07:59:29Z</time>
      </trkpt>
      <trkpt lat="44.33105" lon="5.1932">
        <ele>743.3</ele>
        <time>2022-07-19T07:59:30Z</time>
      </trkpt>
      <trkpt lat="44.33104" lon="5.19319">
        <ele>743.4</ele>
        <time>2022-07-19T07:59:31Z</time>
      </trkpt>
      <trkpt lat="44.33102" lon="5.19317">
        <ele>743.6</ele>
        <time>2022-07-19T07:59:32Z</time>
      </trkpt>
      <trkpt lat="44.33101" lon="5.19316">
        <ele>743.7</ele>
        <time>2022-07-19T07:59:33Z</time>
      </trkpt>
      <trkpt lat="44.331" lon="5.19315">
        <ele>743.8</ele>
        <time>2022-07-19T07:59:34Z</time>
      </trkpt>
      <trkpt lat="44.33099" lon="5.19314">
        <ele>743.9</ele>
        <time>2022-07-19T07:59:35Z</time>
      </trkpt>
      <trkpt lat="44.33098" lon="5.19313">
        <ele>744.1</ele>
        <time>2022-07-19T07:59:36Z</time>
      </trkpt>
      <trkpt lat="44.33097" lon="5.19312">
        <ele>744.1</ele>
        <time>2022-07-19T07:59:37Z</time>
      </trkpt>
      <trkpt lat="44.33096" lon="5.19311">
        <ele>744.2</ele>
        <time>2022-07-19T07:59:38Z</time>
      </trkpt>
      <trkpt lat="44.33095" lon="5.19309">
        <ele>744.4</ele>
        <time>2022-07-19T07:59:39Z</time>
      </trkpt>
      <trkpt lat="44.33094" lon="5.19309">
        <ele>744.5</ele>
        <time>2022-07-19T07:59:40Z</time>
      </trkpt>
      <trkpt lat="44.33093" lon="5.19308">
        <ele>744.6</ele>
        <time>2022-07-19T07:59:41Z</time>
      </trkpt>
      <trkpt lat="44.33092" lon="5.19307">
        <ele>744.7</ele>
        <time>2022-07-19T07:59:42Z</time>
      </trkpt>
      <trkpt lat="44.33091" lon="5.19306">
        <ele>744.8</ele>
        <time>2022-07-19T07:59:43Z</time>
      </trkpt>
      <trkpt lat="44.3309" lon="5.19305">
        <ele>744.9</ele>
        <time>2022-07-19T07:59:44Z</time>
      </trkpt>
      <trkpt lat="44.33089" lon="5.19304">
        <ele>745.1</ele>
        <time>2022-07-19T07:59:45Z</time>
      </trkpt>
      <trkpt lat="44.33088" lon="5.19303">
        <ele>745.2</ele>
        <time>2022-07-19T07:59:46Z</time>
      </trkpt>
      <trkpt lat="44.33085" lon="5.19301">
        <ele>745.4</ele>
        <time>2022-07-19T07:59:47Z</time>
      </trkpt>
      <trkpt lat="44.33085" lon="5.193">
        <ele>745.5</ele>
        <time>2022-07-19T07:59:48Z</time>
      </trkpt>
      <trkpt lat="44.33083" lon="5.19298">
        <ele>745.7</ele>
        <time>2022-07-19T07:59:49Z</time>
      </trkpt>
      <trkpt lat="44.33082" lon="5.19297">
        <ele>745.9</ele>
        <time>2022-07-19T07:59:50Z</time>
      </trkpt>
      <trkpt lat="44.3308" lon="5.19296">
        <ele>746.1</ele>
        <time>2022-07-19T07:59:51Z</time>
      </trkpt>
      <trkpt lat="44.33079" lon="5.19294">
        <ele>746.2</ele>
        <time>2022-07-19T07:59:52Z</time>
      </trkpt>
      <trkpt lat="44.33078" lon="5.19293">
        <ele>746.4</ele>
        <time>2022-07-19T07:59:53Z</time>
      </trkpt>
      <trkpt lat="44.33077" lon="5.19292">
        <ele>746.6</ele>
        <time>2022-07-19T07:59:54Z</time>
      </trkpt>
      <trkpt lat="44.33075" lon="5.1929">
        <ele>746.8</ele>
        <time>2022-07-19T07:59:55Z</time>
      </trkpt>
      <trkpt lat="44.33075" lon="5.19289">
        <ele>746.9</ele>
        <time>2022-07-19T07:59:56Z</time>
      </trkpt>
      <trkpt lat="44.33074" lon="5.19288">
        <ele>747</ele>
        <time>2022-07-19T07:59:57Z</time>
      </trkpt>
      <trkpt lat="44.33073" lon="5.19286">
        <ele>747.3</ele>
        <time>2022-07-19T07:59:58Z</time>
      </trkpt>
      <trkpt lat="44.33073" lon="5.19285">
        <ele>747.4</ele>
        <time>2022-07-19T07:59:59Z</time>
      </trkpt>
      <trkpt lat="44.33072" lon="5.19284">
        <ele>747.4</ele>
        <time>2022-07-19T08:00:00Z</time>
      </trkpt>
      <trkpt lat="44.33072" lon="5.19283">
        <ele>747.6</ele>
        <time>2022-07-19T08:00:01Z</time>
      </trkpt>
      <trkpt lat="44.33071" lon="5.19282">
        <ele>747.7</ele>
        <time>2022-07-19T08:00:02Z</time>
      </trkpt>
      <trkpt lat="44.3307" lon="5.19281">
        <ele>747.8</ele>
        <time>2022-07-19T08:00:03Z</time>
      </trkpt>
      <trkpt lat="44.33069" lon="5.1928">
        <ele>747.9</ele>
        <time>2022-07-19T08:00:04Z</time>
      </trkpt>
      <trkpt lat="44.33069" lon="5.19279">
        <ele>748</ele>
        <time>2022-07-19T08:00:05Z</time>
      </trkpt>
      <trkpt lat="44.33068" lon="5.19278">
        <ele>748.1</ele>
        <time>2022-07-19T08:00:06Z</time>
      </trkpt>
      <trkpt lat="44.33067" lon="5.19276">
        <ele>748.2</ele>
        <time>2022-07-19T08:00:07Z</time>
      </trkpt>
      <trkpt lat="44.33066" lon="5.19275">
        <ele>748.4</ele>
        <time>2022-07-19T08:00:08Z</time>
      </trkpt>
      <trkpt lat="44.33065" lon="5.19273">
        <ele>748.5</ele>
        <time>2022-07-19T08:00:09Z</time>
      </trkpt>
      <trkpt lat="44.33065" lon="5.1927">
        <ele>748.6</ele>
        <time>2022-07-19T08:00:10Z</time>
      </trkpt>
      <trkpt lat="44.33064" lon="5.19268">
        <ele>748.8</ele>
        <time>2022-07-19T08:00:11Z</time>
      </trkpt>
      <trkpt lat="44.33064" lon="5.19266">
        <ele>748.8</ele>
        <time>2022-07-19T08:00:12Z</time>
      </trkpt>
      <trkpt lat="44.33064" lon="5.19265">
        <ele>748.9</ele>
        <time>2022-07-19T08:00:13Z</time>
      </trkpt>
      <trkpt lat="44.33063" lon="5.19263">
        <ele>749.1</ele>
        <time>2022-07-19T08:00:14Z</time>
      </trkpt>
      <trkpt lat="44.33063" lon="5.19262">
        <ele>749.1</ele>
        <time>2022-07-19T08:00:15Z</time>
      </trkpt>
      <trkpt lat="44.33062" lon="5.19261">
        <ele>749.2</ele>
        <time>2022-07-19T08:00:16Z</time>
      </trkpt>
      <trkpt lat="44.33061" lon="5.19259">
        <ele>749.3</ele>
        <time>2022-07-19T08:00:17Z</time>
      </trkpt>
      <trkpt lat="44.33059" lon="5.19258">
        <ele>749.4</ele>
        <time>2022-07-19T08:00:18Z</time>
      </trkpt>
      <trkpt lat="44.33058" lon="5.19256">
        <ele>749.5</ele>
        <time>2022-07-19T08:00:19Z</time>
      </trkpt>
      <trkpt lat="44.33057" lon="5.19255">
        <ele>749.6</ele>
        <time>2022-07-19T08:00:20Z</time>
      </trkpt>
      <trkpt lat="44.33056" lon="5.19253">
        <ele>749.8</ele>
        <time>2022-07-19T08:00:21Z</time>
      </trkpt>
      <trkpt lat="44.33055" lon="5.19252">
        <ele>750.4</ele>
        <time>2022-07-19T08:00:22Z</time>
      </trkpt>
      <trkpt lat="44.33055" lon="5.19251">
        <ele>750.9</ele>
        <time>2022-07-19T08:00:23Z</time>
      </trkpt>
      <trkpt lat="44.33054" lon="5.19249">
        <ele>752.3</ele>
        <time>2022-07-19T08:00:24Z</time>
      </trkpt>
      <trkpt lat="44.33054" lon="5.19248">
        <ele>751.9</ele>
        <time>2022-07-19T08:00:25Z</time>
      </trkpt>
      <trkpt lat="44.33053" lon="5.19246">
        <ele>752.5</ele>
        <time>2022-07-19T08:00:26Z</time>
      </trkpt>
      <trkpt lat="44.33052" lon="5.19244">
        <ele>753.9</ele>
        <time>2022-07-19T08:00:27Z</time>
      </trkpt>
      <trkpt lat="44.3305" lon="5.19242">
        <ele>753.4</ele>
        <time>2022-07-19T08:00:28Z</time>
      </trkpt>
      <trkpt lat="44.33049" lon="5.1924">
        <ele>754.8</ele>
        <time>2022-07-19T08:00:29Z</time>
      </trkpt>
      <trkpt lat="44.33048" lon="5.19238">
        <ele>755.3</ele>
        <time>2022-07-19T08:00:30Z</time>
      </trkpt>
      <trkpt lat="44.33047" lon="5.19237">
        <ele>755.6</ele>
        <time>2022-07-19T08:00:31Z</time>
      </trkpt>
      <trkpt lat="44.33046" lon="5.19236">
        <ele>756.2</ele>
        <time>2022-07-19T08:00:32Z</time>
      </trkpt>
      <trkpt lat="44.33045" lon="5.19234">
        <ele>756.7</ele>
        <time>2022-07-19T08:00:33Z</time>
      </trkpt>
      <trkpt lat="44.33044" lon="5.19233">
        <ele>757</ele>
        <time>2022-07-19T08:00:34Z</time>
      </trkpt>
      <trkpt lat="44.33043" lon="5.19231">
        <ele>757.1</ele>
        <time>2022-07-19T08:00:35Z</time>
      </trkpt>
      <trkpt lat="44.33042" lon="5.1923">
        <ele>757.2</ele>
        <time>2022-07-19T08:00:36Z</time>
      </trkpt>
      <trkpt lat="44.3304" lon="5.19229">
        <ele>757.3</ele>
        <time>2022-07-19T08:00:37Z</time>
      </trkpt>
      <trkpt lat="44.33039" lon="5.19228">
        <ele>757.4</ele>
        <time>2022-07-19T08:00:38Z</time>
      </trkpt>
      <trkpt lat="44.33039" lon="5.19226">
        <ele>757.5</ele>
        <time>2022-07-19T08:00:39Z</time>
      </trkpt>
      <trkpt lat="44.33038" lon="5.19223">
        <ele>757.7</ele>
        <time>2022-07-19T08:00:40Z</time>
      </trkpt>
      <trkpt lat="44.33038" lon="5.19222">
        <ele>757.8</ele>
        <time>2022-07-19T08:00:41Z</time>
      </trkpt>
      <trkpt lat="44.33038" lon="5.19221">
        <ele>757.8</ele>
        <time>2022-07-19T08:00:42Z</time>
      </trkpt>
      <trkpt lat="44.33038" lon="5.19219">
        <ele>757.9</ele>
        <time>2022-07-19T08:00:43Z</time>
      </trkpt>
      <trkpt lat="44.33039" lon="5.19218">
        <ele>758</ele>
        <time>2022-07-19T08:00:44Z</time>
      </trkpt>
      <trkpt lat="44.3304" lon="5.19217">
        <ele>758.1</ele>
        <time>2022-07-19T08:00:45Z</time>
      </trkpt>
      <trkpt lat="44.33041" lon="5.19217">
        <ele>758.1</ele>
        <time>2022-07-19T08:00:46Z</time>
      </trkpt>
      <trkpt lat="44.33041" lon="5.19217">
        <ele>758.2</ele>
        <time>2022-07-19T08:00:47Z</time>
      </trkpt>
      <trkpt lat="44.33042" lon="5.19217">
        <ele>758.3</ele>
        <time>2022-07-19T08:00:48Z</time>
      </trkpt>
      <trkpt lat="44.33043" lon="5.19218">
        <ele>758.4</ele>
        <time>2022-07-19T08:00:49Z</time>
      </trkpt>
      <trkpt lat="44.33044" lon="5.19219">
        <ele>758.5</ele>
        <time>2022-07-19T08:00:50Z</time>
      </trkpt>
      <trkpt lat="44.33045" lon="5.1922">
        <ele>758.6</ele>
        <time>2022-07-19T08:00:51Z</time>
      </trkpt>
      <trkpt lat="44.33046" lon="5.19223">
        <ele>758.7</ele>
        <time>2022-07-19T08:00:52Z</time>
      </trkpt>
      <trkpt lat="44.33046" lon="5.19224">
        <ele>758.8</ele>
        <time>2022-07-19T08:00:53Z</time>
      </trkpt>
      <trkpt lat="44.33047" lon="5.19225">
        <ele>758.8</ele>
        <time>2022-07-19T08:00:54Z</time>
      </trkpt>
      <trkpt lat="44.33047" lon="5.19228">
        <ele>759</ele>
        <time>2022-07-19T08:00:55Z</time>
      </trkpt>
      <trkpt lat="44.33048" lon="5.19229">
        <ele>759</ele>
        <time>2022-07-19T08:00:56Z</time>
      </trkpt>
      <trkpt lat="44.33048" lon="5.19231">
        <ele>759.1</ele>
        <time>2022-07-19T08:00:57Z</time>
      </trkpt>
      <trkpt lat="44.33049" lon="5.19233">
        <ele>759.2</ele>
        <time>2022-07-19T08:00:58Z</time>
      </trkpt>
      <trkpt lat="44.33049" lon="5.19234">
        <ele>759.3</ele>
        <time>2022-07-19T08:00:59Z</time>
      </trkpt>
      <trkpt lat="44.3305" lon="5.19235">
        <ele>759.3</ele>
        <time>2022-07-19T08:01:00Z</time>
      </trkpt>
      <trkpt lat="44.3305" lon="5.19237">
        <ele>759.4</ele>
        <time>2022-07-19T08:01:01Z</time>
      </trkpt>
      <trkpt lat="44.33051" lon="5.19238">
        <ele>759.5</ele>
        <time>2022-07-19T08:01:02Z</time>
      </trkpt>
      <trkpt lat="44.33052" lon="5.19239">
        <ele>759.5</ele>
        <time>2022-07-19T08:01:03Z</time>
      </trkpt>
      <trkpt lat="44.33054" lon="5.19241">
        <ele>759.6</ele>
        <time>2022-07-19T08:01:04Z</time>
      </trkpt>
      <trkpt lat="44.33055" lon="5.19242">
        <ele>759.7</ele>
        <time>2022-07-19T08:01:05Z</time>
      </trkpt>
      <trkpt lat="44.33055" lon="5.19242">
        <ele>759.8</ele>
        <time>2022-07-19T08:01:06Z</time>
      </trkpt>
      <trkpt lat="44.33057" lon="5.19243">
        <ele>759.8</ele>
        <time>2022-07-19T08:01:07Z</time>
      </trkpt>
      <trkpt lat="44.33058" lon="5.19244">
        <ele>759.9</ele>
        <time>2022-07-19T08:01:08Z</time>
      </trkpt>
      <trkpt lat="44.3306" lon="5.19246">
        <ele>760.1</ele>
        <time>2022-07-19T08:01:09Z</time>
      </trkpt>
      <trkpt lat="44.33061" lon="5.19246">
        <ele>760.1</ele>
        <time>2022-07-19T08:01:10Z</time>
      </trkpt>
      <trkpt lat="44.33061" lon="5.19247">
        <ele>760.2</ele>
        <time>2022-07-19T08:01:11Z</time>
      </trkpt>
      <trkpt lat="44.33063" lon="5.19248">
        <ele>760.3</ele>
        <time>2022-07-19T08:01:12Z</time>
      </trkpt>
      <trkpt lat="44.33064" lon="5.19248">
        <ele>760.4</ele>
        <time>2022-07-19T08:01:13Z</time>
      </trkpt>
      <trkpt lat="44.33065" lon="5.19249">
        <ele>760.5</ele>
        <time>2022-07-19T08:01:14Z</time>
      </trkpt>
      <trkpt lat="44.33066" lon="5.19249">
        <ele>760.6</ele>
        <time>2022-07-19T08:01:15Z</time>
      </trkpt>
      <trkpt lat="44.33067" lon="5.1925">
        <ele>760.7</ele>
        <time>2022-07-19T08:01:16Z</time>
      </trkpt>
      <trkpt lat="44.33068" lon="5.1925">
        <ele>760.8</ele>
        <time>2022-07-19T08:01:17Z</time>
      </trkpt>
      <trkpt lat="44.33069" lon="5.1925">
        <ele>760.9</ele>
        <time>2022-07-19T08:01:18Z</time>
      </trkpt>
      <trkpt lat="44.3307" lon="5.1925">
        <ele>761</ele>
        <time>2022-07-19T08:01:19Z</time>
      </trkpt>
      <trkpt lat="44.33072" lon="5.19251">
        <ele>761.2</ele>
        <time>2022-07-19T08:01:20Z</time>
      </trkpt>
      <trkpt lat="44.33073" lon="5.19251">
        <ele>761.3</ele>
        <time>2022-07-19T08:01:21Z</time>
      </trkpt>
      <trkpt lat="44.33074" lon="5.19251">
        <ele>761.4</ele>
        <time>2022-07-19T08:01:22Z</time>
      </trkpt>
      <trkpt lat="44.33076" lon="5.19252">
        <ele>761.5</ele>
        <time>2022-07-19T08:01:23Z</time>
      </trkpt>
      <trkpt lat="44.33077" lon="5.19252">
        <ele>761.6</ele>
        <time>2022-07-19T08:01:24Z</time>
      </trkpt>
      <trkpt lat="44.33079" lon="5.19252">
        <ele>761.8</ele>
        <time>2022-07-19T08:01:25Z</time>
      </trkpt>
      <trkpt lat="44.3308" lon="5.19252">
        <ele>761.9</ele>
        <time>2022-07-19T08:01:26Z</time>
      </trkpt>
      <trkpt lat="44.33081" lon="5.19252">
        <ele>762</ele>
        <time>2022-07-19T08:01:27Z</time>
      </trkpt>
      <trkpt lat="44.33083" lon="5.19252">
        <ele>762.2</ele>
        <time>2022-07-19T08:01:28Z</time>
      </trkpt>
      <trkpt lat="44.33084" lon="5.19252">
        <ele>762.3</ele>
        <time>2022-07-19T08:01:29Z</time>
      </trkpt>
      <trkpt lat="44.33085" lon="5.19252">
        <ele>762.4</ele>
        <time>2022-07-19T08:01:30Z</time>
      </trkpt>
      <trkpt lat="44.33087" lon="5.19253">
        <ele>762.6</ele>
        <time>2022-07-19T08:01:31Z</time>
      </trkpt>
      <trkpt lat="44.33088" lon="5.19254">
        <ele>762.6</ele>
        <time>2022-07-19T08:01:32Z</time>
      </trkpt>
      <trkpt lat="44.33089" lon="5.19254">
        <ele>762.7</ele>
        <time>2022-07-19T08:01:33Z</time>
      </trkpt>
      <trkpt lat="44.33091" lon="5.19254">
        <ele>762.9</ele>
        <time>2022-07-19T08:01:34Z</time>
      </trkpt>
      <trkpt lat="44.33092" lon="5.19254">
        <ele>763</ele>
        <time>2022-07-19T08:01:35Z</time>
      </trkpt>
      <trkpt lat="44.33092" lon="5.19254">
        <ele>763.1</ele>
        <time>2022-07-19T08:01:36Z</time>
      </trkpt>
      <trkpt lat="44.33095" lon="5.19254">
        <ele>763.3</ele>
        <time>2022-07-19T08:01:37Z</time>
      </trkpt>
      <trkpt lat="44.33095" lon="5.19254">
        <ele>763.4</ele>
        <time>2022-07-19T08:01:38Z</time>
      </trkpt>
      <trkpt lat="44.33096" lon="5.19254">
        <ele>763.5</ele>
        <time>2022-07-19T08:01:39Z</time>
      </trkpt>
      <trkpt lat="44.33098" lon="5.19254">
        <ele>763.7</ele>
        <time>2022-07-19T08:01:40Z</time>
      </trkpt>
      <trkpt lat="44.33099" lon="5.19254">
        <ele>763.8</ele>
        <time>2022-07-19T08:01:41Z</time>
      </trkpt>
      <trkpt lat="44.331" lon="5.19254">
        <ele>763.9</ele>
        <time>2022-07-19T08:01:42Z</time>
      </trkpt>
      <trkpt lat="44.33102" lon="5.19253">
        <ele>764.1</ele>
        <time>2022-07-19T08:01:43Z</time>
      </trkpt>
      <trkpt lat="44.33103" lon="5.19253">
        <ele>764.2</ele>
        <time>2022-07-19T08:01:44Z</time>
      </trkpt>
      <trkpt lat="44.33104" lon="5.19252">
        <ele>764.4</ele>
        <time>2022-07-19T08:01:45Z</time>
      </trkpt>
      <trkpt lat="44.33106" lon="5.19252">
        <ele>764.5</ele>
        <time>2022-07-19T08:01:46Z</time>
      </trkpt>
      <trkpt lat="44.33107" lon="5.19252">
        <ele>764.7</ele>
        <time>2022-07-19T08:01:47Z</time>
      </trkpt>
      <trkpt lat="44.33109" lon="5.19253">
        <ele>764.9</ele>
        <time>2022-07-19T08:01:48Z</time>
      </trkpt>
      <trkpt lat="44.33111" lon="5.19253">
        <ele>765.1</ele>
        <time>2022-07-19T08:01:49Z</time>
      </trkpt>
      <trkpt lat="44.33112" lon="5.19253">
        <ele>765.2</ele>
        <time>2022-07-19T08:01:50Z</time>
      </trkpt>
      <trkpt lat="44.33112" lon="5.19254">
        <ele>765.2</ele>
        <time>2022-07-19T08:01:51Z</time>
      </trkpt>
      <trkpt lat="44.33114" lon="5.19254">
        <ele>765.4</ele>
        <time>2022-07-19T08:01:52Z</time>
      </trkpt>
      <trkpt lat="44.33115" lon="5.19254">
        <ele>765.5</ele>
        <time>2022-07-19T08:01:53Z</time>
      </trkpt>
      <trkpt lat="44.33116" lon="5.19254">
        <ele>765.6</ele>
        <time>2022-07-19T08:01:54Z</time>
      </trkpt>
      <trkpt lat="44.33118" lon="5.19254">
        <ele>765.8</ele>
        <time>2022-07-19T08:01:55Z</time>
      </trkpt>
      <trkpt lat="44.33119" lon="5.19254">
        <ele>765.9</ele>
        <time>2022-07-19T08:01:56Z</time>
      </trkpt>
      <trkpt lat="44.3312" lon="5.19254">
        <ele>766</ele>
        <time>2022-07-19T08:01:57Z</time>
      </trkpt>
      <trkpt lat="44.33122" lon="5.19253">
        <ele>766.1</ele>
        <time>2022-07-19T08:01:58Z</time>
      </trkpt>
      <trkpt lat="44.33123" lon="5.19253">
        <ele>766.2</ele>
        <time>2022-07-19T08:01:59Z</time>
      </trkpt>
      <trkpt lat="44.33125" lon="5.19252">
        <ele>766.3</ele>
        <time>2022-07-19T08:02:00Z</time>
      </trkpt>
      <trkpt lat="44.33127" lon="5.19251">
        <ele>766.5</ele>
        <time>2022-07-19T08:02:01Z</time>
      </trkpt>
      <trkpt lat="44.33127" lon="5.1925">
        <ele>766.5</ele>
        <time>2022-07-19T08:02:02Z</time>
      </trkpt>
      <trkpt lat="44.33128" lon="5.1925">
        <ele>766.6</ele>
        <time>2022-07-19T08:02:03Z</time>
      </trkpt>
      <trkpt lat="44.33129" lon="5.19249">
        <ele>766.7</ele>
        <time>2022-07-19T08:02:04Z</time>
      </trkpt>
      <trkpt lat="44.33131" lon="5.19247">
        <ele>766.8</ele>
        <time>2022-07-19T08:02:05Z</time>
      </trkpt>
      <trkpt lat="44.33132" lon="5.19246">
        <ele>766.9</ele>
        <time>2022-07-19T08:02:06Z</time>
      </trkpt>
      <trkpt lat="44.33133" lon="5.19245">
        <ele>766.9</ele>
        <time>2022-07-19T08:02:07Z</time>
      </trkpt>
      <trkpt lat="44.33134" lon="5.19244">
        <ele>767</ele>
        <time>2022-07-19T08:02:08Z</time>
      </trkpt>
      <trkpt lat="44.33135" lon="5.19244">
        <ele>767.1</ele>
        <time>2022-07-19T08:02:09Z</time>
      </trkpt>
      <trkpt lat="44.33136" lon="5.19243">
        <ele>767.2</ele>
        <time>2022-07-19T08:02:10Z</time>
      </trkpt>
      <trkpt lat="44.33137" lon="5.19241">
        <ele>767.2</ele>
        <time>2022-07-19T08:02:11Z</time>
      </trkpt>
      <trkpt lat="44.33138" lon="5.1924">
        <ele>767.3</ele>
        <time>2022-07-19T08:02:12Z</time>
      </trkpt>
      <trkpt lat="44.33139" lon="5.19238">
        <ele>767.4</ele>
        <time>2022-07-19T08:02:13Z</time>
      </trkpt>
      <trkpt lat="44.3314" lon="5.19237">
        <ele>767.5</ele>
        <time>2022-07-19T08:02:14Z</time>
      </trkpt>
      <trkpt lat="44.33141" lon="5.19236">
        <ele>767.6</ele>
        <time>2022-07-19T08:02:15Z</time>
      </trkpt>
      <trkpt lat="44.33142" lon="5.19236">
        <ele>767.6</ele>
        <time>2022-07-19T08:02:16Z</time>
      </trkpt>
      <trkpt lat="44.33143" lon="5.19235">
        <ele>767.7</ele>
        <time>2022-07-19T08:02:17Z</time>
      </trkpt>
      <trkpt lat="44.33145" lon="5.19233">
        <ele>767.9</ele>
        <time>2022-07-19T08:02:18Z</time>
      </trkpt>
      <trkpt lat="44.33146" lon="5.19232">
        <ele>768</ele>
        <time>2022-07-19T08:02:19Z</time>
      </trkpt>
      <trkpt lat="44.33146" lon="5.19231">
        <ele>768.1</ele>
        <time>2022-07-19T08:02:20Z</time>
      </trkpt>
      <trkpt lat="44.33148" lon="5.1923">
        <ele>768.2</ele>
        <time>2022-07-19T08:02:21Z</time>
      </trkpt>
      <trkpt lat="44.33149" lon="5.19228">
        <ele>768.3</ele>
        <time>2022-07-19T08:02:22Z</time>
      </trkpt>
      <trkpt lat="44.3315" lon="5.19227">
        <ele>768.5</ele>
        <time>2022-07-19T08:02:23Z</time>
      </trkpt>
      <trkpt lat="44.33151" lon="5.19225">
        <ele>768.6</ele>
        <time>2022-07-19T08:02:24Z</time>
      </trkpt>
      <trkpt lat="44.33152" lon="5.19223">
        <ele>768.8</ele>
        <time>2022-07-19T08:02:25Z</time>
      </trkpt>
      <trkpt lat="44.33153" lon="5.19221">
        <ele>769</ele>
        <time>2022-07-19T08:02:26Z</time>
      </trkpt>
      <trkpt lat="44.33155" lon="5.1922">
        <ele>769.1</ele>
        <time>2022-07-19T08:02:27Z</time>
      </trkpt>
      <trkpt lat="44.33156" lon="5.19219">
        <ele>769.2</ele>
        <time>2022-07-19T08:02:28Z</time>
      </trkpt>
      <trkpt lat="44.33158" lon="5.19218">
        <ele>769.4</ele>
        <time>2022-07-19T08:02:29Z</time>
      </trkpt>
      <trkpt lat="44.33159" lon="5.19217">
        <ele>769.5</ele>
        <time>2022-07-19T08:02:30Z</time>
      </trkpt>
      <trkpt lat="44.33159" lon="5.19217">
        <ele>769.6</ele>
        <time>2022-07-19T08:02:31Z</time>
      </trkpt>
      <trkpt lat="44.33161" lon="5.19217">
        <ele>769.6</ele>
        <time>2022-07-19T08:02:32Z</time>
      </trkpt>
      <trkpt lat="44.33162" lon="5.19218">
        <ele>769.7</ele>
        <time>2022-07-19T08:02:33Z</time>
      </trkpt>
      <trkpt lat="44.33163" lon="5.19218">
        <ele>769.8</ele>
        <time>2022-07-19T08:02:34Z</time>
      </trkpt>
      <trkpt lat="44.33164" lon="5.19218">
        <ele>769.9</ele>
        <time>2022-07-19T08:02:35Z</time>
      </trkpt>
      <trkpt lat="44.33166" lon="5.19218">
        <ele>770.1</ele>
        <time>2022-07-19T08:02:36Z</time>
      </trkpt>
      <trkpt lat="44.33168" lon="5.19218">
        <ele>770.3</ele>
        <time>2022-07-19T08:02:37Z</time>
      </trkpt>
      <trkpt lat="44.33169" lon="5.19218">
        <ele>770.3</ele>
        <time>2022-07-19T08:02:38Z</time>
      </trkpt>
      <trkpt lat="44.3317" lon="5.19218">
        <ele>770.4</ele>
        <time>2022-07-19T08:02:39Z</time>
      </trkpt>
      <trkpt lat="44.33172" lon="5.19218">
        <ele>770.6</ele>
        <time>2022-07-19T08:02:40Z</time>
      </trkpt>
      <trkpt lat="44.33173" lon="5.19218">
        <ele>770.6</ele>
        <time>2022-07-19T08:02:41Z</time>
      </trkpt>
      <trkpt lat="44.33173" lon="5.19218">
        <ele>770.7</ele>
        <time>2022-07-19T08:02:42Z</time>
      </trkpt>
      <trkpt lat="44.33175" lon="5.19219">
        <ele>770.8</ele>
        <time>2022-07-19T08:02:43Z</time>
      </trkpt>
      <trkpt lat="44.33176" lon="5.1922">
        <ele>771</ele>
        <time>2022-07-19T08:02:44Z</time>
      </trkpt>
      <trkpt lat="44.33177" lon="5.19221">
        <ele>771.1</ele>
        <time>2022-07-19T08:02:45Z</time>
      </trkpt>
      <trkpt lat="44.33178" lon="5.19222">
        <ele>771.2</ele>
        <time>2022-07-19T08:02:46Z</time>
      </trkpt>
      <trkpt lat="44.33179" lon="5.19224">
        <ele>771.4</ele>
        <time>2022-07-19T08:02:47Z</time>
      </trkpt>
      <trkpt lat="44.33181" lon="5.19225">
        <ele>771.5</ele>
        <time>2022-07-19T08:02:48Z</time>
      </trkpt>
      <trkpt lat="44.33182" lon="5.19226">
        <ele>771.7</ele>
        <time>2022-07-19T08:02:49Z</time>
      </trkpt>
      <trkpt lat="44.33184" lon="5.19227">
        <ele>771.8</ele>
        <time>2022-07-19T08:02:50Z</time>
      </trkpt>
      <trkpt lat="44.33185" lon="5.19227">
        <ele>771.9</ele>
        <time>2022-07-19T08:02:51Z</time>
      </trkpt>
      <trkpt lat="44.33186" lon="5.19228">
        <ele>772.1</ele>
        <time>2022-07-19T08:02:52Z</time>
      </trkpt>
      <trkpt lat="44.33187" lon="5.19229">
        <ele>772.2</ele>
        <time>2022-07-19T08:02:53Z</time>
      </trkpt>
      <trkpt lat="44.33188" lon="5.1923">
        <ele>772.3</ele>
        <time>2022-07-19T08:02:54Z</time>
      </trkpt>
      <trkpt lat="44.33189" lon="5.19231">
        <ele>772.4</ele>
        <time>2022-07-19T08:02:55Z</time>
      </trkpt>
      <trkpt lat="44.33191" lon="5.19233">
        <ele>772.6</ele>
        <time>2022-07-19T08:02:56Z</time>
      </trkpt>
      <trkpt lat="44.33191" lon="5.19234">
        <ele>772.7</ele>
        <time>2022-07-19T08:02:57Z</time>
      </trkpt>
      <trkpt lat="44.33192" lon="5.19234">
        <ele>772.8</ele>
        <time>2022-07-19T08:02:58Z</time>
      </trkpt>
      <trkpt lat="44.33194" lon="5.19236">
        <ele>772.9</ele>
        <time>2022-07-19T08:02:59Z</time>
      </trkpt>
      <trkpt lat="44.33195" lon="5.19237">
        <ele>773.1</ele>
        <time>2022-07-19T08:03:00Z</time>
      </trkpt>
      <trkpt lat="44.33196" lon="5.19238">
        <ele>773.2</ele>
        <time>2022-07-19T08:03:01Z</time>
      </trkpt>
      <trkpt lat="44.33197" lon="5.19239">
        <ele>773.3</ele>
        <time>2022-07-19T08:03:02Z</time>
      </trkpt>
      <trkpt lat="44.33199" lon="5.1924">
        <ele>773.5</ele>
        <time>2022-07-19T08:03:03Z</time>
      </trkpt>
      <trkpt lat="44.332" lon="5.19241">
        <ele>773.6</ele>
        <time>2022-07-19T08:03:04Z</time>
      </trkpt>
      <trkpt lat="44.33201" lon="5.19241">
        <ele>773.7</ele>
        <time>2022-07-19T08:03:05Z</time>
      </trkpt>
      <trkpt lat="44.33201" lon="5.19241">
        <ele>773.7</ele>
        <time>2022-07-19T08:03:06Z</time>
      </trkpt>
      <trkpt lat="44.33201" lon="5.19241">
        <ele>773.7</ele>
        <time>2022-07-19T08:03:07Z</time>
      </trkpt>
      <trkpt lat="44.33201" lon="5.19241">
        <ele>773.7</ele>
        <time>2022-07-19T08:03:08Z</time>
      </trkpt>
      <trkpt lat="44.33201" lon="5.19241">
        <ele>773.7</ele>
        <time>2022-07-19T08:03:09Z</time>
      </trkpt>
      <trkpt lat="44.33201" lon="5.19241">
        <ele>773.7</ele>
        <time>2022-07-19T08:03:10Z</time>
      </trkpt>
      <trkpt lat="44.33201" lon="5.19241">
        <ele>773.7</ele>
        <time>2022-07-19T08:03:11Z</time>
      </trkpt>
      <trkpt lat="44.33201" lon="5.19241">
        <ele>773.7</ele>
        <time>2022-07-19T08:03:12Z</time>
      </trkpt>
      <trkpt lat="44.33201" lon="5.19241">
        <ele>773.7</ele>
        <time>2022-07-19T08:03:13Z</time>
      </trkpt>
      <trkpt lat="44.33201" lon="5.19241">
        <ele>773.7</ele>
        <time>2022-07-19T08:03:14Z</time>
      </trkpt>
      <trkpt lat="44.33205" lon="5.19238">
        <ele>774</ele>
        <time>2022-07-19T08:03:27Z</time>
      </trkpt>
      <trkpt lat="44.33206" lon="5.19238">
        <ele>774.1</ele>
        <time>2022-07-19T08:03:28Z</time>
      </trkpt>
      <trkpt lat="44.33207" lon="5.19238">
        <ele>774.2</ele>
        <time>2022-07-19T08:03:29Z</time>
      </trkpt>
      <trkpt lat="44.33208" lon="5.19239">
        <ele>774.3</ele>
        <time>2022-07-19T08:03:30Z</time>
      </trkpt>
      <trkpt lat="44.3321" lon="5.19239">
        <ele>774.5</ele>
        <time>2022-07-19T08:03:31Z</time>
      </trkpt>
      <trkpt lat="44.33211" lon="5.1924">
        <ele>774.6</ele>
        <time>2022-07-19T08:03:32Z</time>
      </trkpt>
      <trkpt lat="44.33212" lon="5.19241">
        <ele>774.7</ele>
        <time>2022-07-19T08:03:33Z</time>
      </trkpt>
      <trkpt lat="44.33214" lon="5.19243">
        <ele>774.9</ele>
        <time>2022-07-19T08:03:34Z</time>
      </trkpt>
      <trkpt lat="44.33215" lon="5.19243">
        <ele>775</ele>
        <time>2022-07-19T08:03:35Z</time>
      </trkpt>
      <trkpt lat="44.33217" lon="5.19244">
        <ele>775.1</ele>
        <time>2022-07-19T08:03:36Z</time>
      </trkpt>
      <trkpt lat="44.33218" lon="5.19245">
        <ele>775.3</ele>
        <time>2022-07-19T08:03:37Z</time>
      </trkpt>
      <trkpt lat="44.33219" lon="5.19246">
        <ele>775.4</ele>
        <time>2022-07-19T08:03:38Z</time>
      </trkpt>
      <trkpt lat="44.33221" lon="5.19246">
        <ele>775.5</ele>
        <time>2022-07-19T08:03:39Z</time>
      </trkpt>
      <trkpt lat="44.33222" lon="5.19247">
        <ele>775.7</ele>
        <time>2022-07-19T08:03:40Z</time>
      </trkpt>
      <trkpt lat="44.33224" lon="5.19247">
        <ele>775.8</ele>
        <time>2022-07-19T08:03:41Z</time>
      </trkpt>
      <trkpt lat="44.33226" lon="5.19248">
        <ele>776</ele>
        <time>2022-07-19T08:03:42Z</time>
      </trkpt>
      <trkpt lat="44.33226" lon="5.19249">
        <ele>776</ele>
        <time>2022-07-19T08:03:43Z</time>
      </trkpt>
      <trkpt lat="44.33227" lon="5.19249">
        <ele>776.1</ele>
        <time>2022-07-19T08:03:44Z</time>
      </trkpt>
      <trkpt lat="44.33228" lon="5.1925">
        <ele>776.2</ele>
        <time>2022-07-19T08:03:45Z</time>
      </trkpt>
      <trkpt lat="44.3323" lon="5.1925">
        <ele>776.3</ele>
        <time>2022-07-19T08:03:46Z</time>
      </trkpt>
      <trkpt lat="44.33232" lon="5.19252">
        <ele>776.5</ele>
        <time>2022-07-19T08:03:47Z</time>
      </trkpt>
      <trkpt lat="44.33232" lon="5.19252">
        <ele>776.6</ele>
        <time>2022-07-19T08:03:48Z</time>
      </trkpt>
      <trkpt lat="44.33233" lon="5.19252">
        <ele>776.7</ele>
        <time>2022-07-19T08:03:49Z</time>
      </trkpt>
      <trkpt lat="44.33234" lon="5.19253">
        <ele>776.8</ele>
        <time>2022-07-19T08:03:50Z</time>
      </trkpt>
      <trkpt lat="44.33236" lon="5.19254">
        <ele>776.9</ele>
        <time>2022-07-19T08:03:51Z</time>
      </trkpt>
      <trkpt lat="44.33238" lon="5.19255">
        <ele>777.1</ele>
        <time>2022-07-19T08:03:52Z</time>
      </trkpt>
      <trkpt lat="44.33239" lon="5.19256">
        <ele>777.2</ele>
        <time>2022-07-19T08:03:53Z</time>
      </trkpt>
      <trkpt lat="44.33239" lon="5.19257">
        <ele>777.3</ele>
        <time>2022-07-19T08:03:54Z</time>
      </trkpt>
      <trkpt lat="44.33241" lon="5.19258">
        <ele>777.4</ele>
        <time>2022-07-19T08:03:55Z</time>
      </trkpt>
      <trkpt lat="44.33242" lon="5.19259">
        <ele>777.5</ele>
        <time>2022-07-19T08:03:56Z</time>
      </trkpt>
      <trkpt lat="44.33243" lon="5.19259">
        <ele>777.6</ele>
        <time>2022-07-19T08:03:57Z</time>
      </trkpt>
      <trkpt lat="44.33244" lon="5.1926">
        <ele>777.7</ele>
        <time>2022-07-19T08:03:58Z</time>
      </trkpt>
      <trkpt lat="44.33245" lon="5.1926">
        <ele>777.8</ele>
        <time>2022-07-19T08:03:59Z</time>
      </trkpt>
      <trkpt lat="44.33247" lon="5.1926">
        <ele>777.9</ele>
        <time>2022-07-19T08:04:00Z</time>
      </trkpt>
      <trkpt lat="44.33248" lon="5.19261">
        <ele>778</ele>
        <time>2022-07-19T08:04:01Z</time>
      </trkpt>
      <trkpt lat="44.3325" lon="5.19261">
        <ele>778.1</ele>
        <time>2022-07-19T08:04:02Z</time>
      </trkpt>
      <trkpt lat="44.33251" lon="5.19261">
        <ele>778.2</ele>
        <time>2022-07-19T08:04:03Z</time>
      </trkpt>
      <trkpt lat="44.33253" lon="5.19262">
        <ele>778.4</ele>
        <time>2022-07-19T08:04:04Z</time>
      </trkpt>
      <trkpt lat="44.33254" lon="5.19262">
        <ele>778.5</ele>
        <time>2022-07-19T08:04:05Z</time>
      </trkpt>
      <trkpt lat="44.33255" lon="5.19263">
        <ele>778.5</ele>
        <time>2022-07-19T08:04:06Z</time>
      </trkpt>
      <trkpt lat="44.33257" lon="5.19263">
        <ele>778.7</ele>
        <time>2022-07-19T08:04:07Z</time>
      </trkpt>
      <trkpt lat="44.33258" lon="5.19264">
        <ele>778.7</ele>
        <time>2022-07-19T08:04:08Z</time>
      </trkpt>
      <trkpt lat="44.33258" lon="5.19264">
        <ele>778.8</ele>
        <time>2022-07-19T08:04:09Z</time>
      </trkpt>
      <trkpt lat="44.3326" lon="5.19265">
        <ele>779</ele>
        <time>2022-07-19T08:04:10Z</time>
      </trkpt>
      <trkpt lat="44.33261" lon="5.19265">
        <ele>779</ele>
        <time>2022-07-19T08:04:11Z</time>
      </trkpt>
      <trkpt lat="44.33262" lon="5.19265">
        <ele>779.1</ele>
        <time>2022-07-19T08:04:12Z</time>
      </trkpt>
      <trkpt lat="44.33264" lon="5.19266">
        <ele>779.2</ele>
        <time>2022-07-19T08:04:13Z</time>
      </trkpt>
      <trkpt lat="44.33265" lon="5.19267">
        <ele>779.3</ele>
        <time>2022-07-19T08:04:14Z</time>
      </trkpt>
      <trkpt lat="44.33266" lon="5.19267">
        <ele>779.4</ele>
        <time>2022-07-19T08:04:15Z</time>
      </trkpt>
      <trkpt lat="44.33267" lon="5.19267">
        <ele>779.5</ele>
        <time>2022-07-19T08:04:16Z</time>
      </trkpt>
      <trkpt lat="44.33269" lon="5.19267">
        <ele>779.6</ele>
        <time>2022-07-19T08:04:17Z</time>
      </trkpt>
      <trkpt lat="44.33271" lon="5.19266">
        <ele>779.8</ele>
        <time>2022-07-19T08:04:18Z</time>
      </trkpt>
      <trkpt lat="44.33272" lon="5.19266">
        <ele>779.9</ele>
        <time>2022-07-19T08:04:19Z</time>
      </trkpt>
      <trkpt lat="44.33273" lon="5.19266">
        <ele>780</ele>
        <time>2022-07-19T08:04:20Z</time>
      </trkpt>
      <trkpt lat="44.33274" lon="5.19266">
        <ele>780.1</ele>
        <time>2022-07-19T08:04:21Z</time>
      </trkpt>
      <trkpt lat="44.33275" lon="5.19266">
        <ele>780.2</ele>
        <time>2022-07-19T08:04:22Z</time>
      </trkpt>
      <trkpt lat="44.33276" lon="5.19266">
        <ele>780.3</ele>
        <time>2022-07-19T08:04:23Z</time>
      </trkpt>
      <trkpt lat="44.33277" lon="5.19266">
        <ele>780.4</ele>
        <time>2022-07-19T08:04:24Z</time>
      </trkpt>
      <trkpt lat="44.33278" lon="5.19266">
        <ele>780.4</ele>
        <time>2022-07-19T08:04:25Z</time>
      </trkpt>
      <trkpt lat="44.3328" lon="5.19267">
        <ele>780.6</ele>
        <time>2022-07-19T08:04:26Z</time>
      </trkpt>
      <trkpt lat="44.33281" lon="5.19267">
        <ele>780.7</ele>
        <time>2022-07-19T08:04:27Z</time>
      </trkpt>
      <trkpt lat="44.33282" lon="5.19267">
        <ele>780.8</ele>
        <time>2022-07-19T08:04:28Z</time>
      </trkpt>
      <trkpt lat="44.33284" lon="5.19267">
        <ele>781</ele>
        <time>2022-07-19T08:04:29Z</time>
      </trkpt>
      <trkpt lat="44.33285" lon="5.19267">
        <ele>781.1</ele>
        <time>2022-07-19T08:04:30Z</time>
      </trkpt>
      <trkpt lat="44.33286" lon="5.19267">
        <ele>781.2</ele>
        <time>2022-07-19T08:04:31Z</time>
      </trkpt>
      <trkpt lat="44.33288" lon="5.19266">
        <ele>781.5</ele>
        <time>2022-07-19T08:04:32Z</time>
      </trkpt>
      <trkpt lat="44.33289" lon="5.19266">
        <ele>781.6</ele>
        <time>2022-07-19T08:04:33Z</time>
      </trkpt>
      <trkpt lat="44.33291" lon="5.19265">
        <ele>781.8</ele>
        <time>2022-07-19T08:04:34Z</time>
      </trkpt>
      <trkpt lat="44.33293" lon="5.19264">
        <ele>782</ele>
        <time>2022-07-19T08:04:35Z</time>
      </trkpt>
      <trkpt lat="44.33294" lon="5.19264">
        <ele>782.1</ele>
        <time>2022-07-19T08:04:36Z</time>
      </trkpt>
      <trkpt lat="44.33295" lon="5.19264">
        <ele>782.3</ele>
        <time>2022-07-19T08:04:37Z</time>
      </trkpt>
      <trkpt lat="44.33297" lon="5.19264">
        <ele>782.4</ele>
        <time>2022-07-19T08:04:38Z</time>
      </trkpt>
      <trkpt lat="44.33299" lon="5.19264">
        <ele>782.6</ele>
        <time>2022-07-19T08:04:39Z</time>
      </trkpt>
      <trkpt lat="44.33302" lon="5.19264">
        <ele>782.9</ele>
        <time>2022-07-19T08:04:40Z</time>
      </trkpt>
      <trkpt lat="44.33303" lon="5.19264">
        <ele>783</ele>
        <time>2022-07-19T08:04:41Z</time>
      </trkpt>
      <trkpt lat="44.33304" lon="5.19264">
        <ele>783.2</ele>
        <time>2022-07-19T08:04:42Z</time>
      </trkpt>
      <trkpt lat="44.33306" lon="5.19263">
        <ele>783.3</ele>
        <time>2022-07-19T08:04:43Z</time>
      </trkpt>
      <trkpt lat="44.33307" lon="5.19263">
        <ele>783.5</ele>
        <time>2022-07-19T08:04:44Z</time>
      </trkpt>
      <trkpt lat="44.33309" lon="5.1926">
        <ele>783.7</ele>
        <time>2022-07-19T08:04:45Z</time>
      </trkpt>
      <trkpt lat="44.33309" lon="5.19256">
        <ele>784</ele>
        <time>2022-07-19T08:04:46Z</time>
      </trkpt>
      <trkpt lat="44.33309" lon="5.19255">
        <ele>784.1</ele>
        <time>2022-07-19T08:04:47Z</time>
      </trkpt>
      <trkpt lat="44.33307" lon="5.19253">
        <ele>784.4</ele>
        <time>2022-07-19T08:04:48Z</time>
      </trkpt>
      <trkpt lat="44.33306" lon="5.19252">
        <ele>784.5</ele>
        <time>2022-07-19T08:04:49Z</time>
      </trkpt>
      <trkpt lat="44.33303" lon="5.1925">
        <ele>784.8</ele>
        <time>2022-07-19T08:04:50Z</time>
      </trkpt>
      <trkpt lat="44.33303" lon="5.1925">
        <ele>784.9</ele>
        <time>2022-07-19T08:04:51Z</time>
      </trkpt>
      <trkpt lat="44.33302" lon="5.1925">
        <ele>785</ele>
        <time>2022-07-19T08:04:52Z</time>
      </trkpt>
      <trkpt lat="44.33302" lon="5.1925">
        <ele>785</ele>
        <time>2022-07-19T08:04:53Z</time>
      </trkpt>
      <trkpt lat="44.33302" lon="5.1925">
        <ele>785</ele>
        <time>2022-07-19T08:04:54Z</time>
      </trkpt>
      <trkpt lat="44.33302" lon="5.1925">
        <ele>785</ele>
        <time>2022-07-19T08:04:55Z</time>
      </trkpt>
      <trkpt lat="44.33302" lon="5.1925">
        <ele>785</ele>
        <time>2022-07-19T08:04:56Z</time>
      </trkpt>
      <trkpt lat="44.33302" lon="5.1925">
        <ele>785</ele>
        <time>2022-07-19T08:04:57Z</time>
      </trkpt>
      <trkpt lat="44.33302" lon="5.1925">
        <ele>785</ele>
        <time>2022-07-19T08:04:58Z</time>
      </trkpt>
      <trkpt lat="44.33302" lon="5.1925">
        <ele>785</ele>
        <time>2022-07-19T08:04:59Z</time>
      </trkpt>
      <trkpt lat="44.33302" lon="5.1925">
        <ele>785</ele>
        <time>2022-07-19T08:05:00Z</time>
      </trkpt>
      <trkpt lat="44.33302" lon="5.1925">
        <ele>785</ele>
        <time>2022-07-19T08:05:01Z</time>
      </trkpt>
      <trkpt lat="44.33302" lon="5.1925">
        <ele>785</ele>
        <time>2022-07-19T08:05:02Z</time>
      </trkpt>
      <trkpt lat="44.33305" lon="5.19238">
        <ele>785.9</ele>
        <time>2022-07-19T08:05:47Z</time>
      </trkpt>
      <trkpt lat="44.33304" lon="5.19237">
        <ele>786</ele>
        <time>2022-07-19T08:05:48Z</time>
      </trkpt>
      <trkpt lat="44.33304" lon="5.19237">
        <ele>785.8</ele>
        <time>2022-07-19T08:05:49Z</time>
      </trkpt>
      <trkpt lat="44.33303" lon="5.19236">
        <ele>785.7</ele>
        <time>2022-07-19T08:05:50Z</time>
      </trkpt>
      <trkpt lat="44.33302" lon="5.19235">
        <ele>785.6</ele>
        <time>2022-07-19T08:05:51Z</time>
      </trkpt>
      <trkpt lat="44.33301" lon="5.19234">
        <ele>785.4</ele>
        <time>2022-07-19T08:05:52Z</time>
      </trkpt>
      <trkpt lat="44.33299" lon="5.19232">
        <ele>785.1</ele>
        <time>2022-07-19T08:05:53Z</time>
      </trkpt>
      <trkpt lat="44.33298" lon="5.19232">
        <ele>785</ele>
        <time>2022-07-19T08:05:54Z</time>
      </trkpt>
      <trkpt lat="44.33298" lon="5.19231">
        <ele>784.9</ele>
        <time>2022-07-19T08:05:55Z</time>
      </trkpt>
      <trkpt lat="44.33296" lon="5.19229">
        <ele>784.6</ele>
        <time>2022-07-19T08:05:56Z</time>
      </trkpt>
      <trkpt lat="44.33295" lon="5.19228">
        <ele>784.5</ele>
        <time>2022-07-19T08:05:57Z</time>
      </trkpt>
      <trkpt lat="44.33295" lon="5.19227">
        <ele>784.4</ele>
        <time>2022-07-19T08:05:58Z</time>
      </trkpt>
      <trkpt lat="44.33294" lon="5.19225">
        <ele>784.1</ele>
        <time>2022-07-19T08:05:59Z</time>
      </trkpt>
      <trkpt lat="44.33293" lon="5.19224">
        <ele>784</ele>
        <time>2022-07-19T08:06:00Z</time>
      </trkpt>
      <trkpt lat="44.33293" lon="5.19223">
        <ele>783.8</ele>
        <time>2022-07-19T08:06:01Z</time>
      </trkpt>
      <trkpt lat="44.33291" lon="5.19221">
        <ele>783.5</ele>
        <time>2022-07-19T08:06:02Z</time>
      </trkpt>
      <trkpt lat="44.3329" lon="5.1922">
        <ele>783.3</ele>
        <time>2022-07-19T08:06:03Z</time>
      </trkpt>
      <trkpt lat="44.33289" lon="5.19218">
        <ele>783.1</ele>
        <time>2022-07-19T08:06:04Z</time>
      </trkpt>
      <trkpt lat="44.33288" lon="5.19216">
        <ele>782.9</ele>
        <time>2022-07-19T08:06:05Z</time>
      </trkpt>
      <trkpt lat="44.33287" lon="5.19214">
        <ele>782.6</ele>
        <time>2022-07-19T08:06:06Z</time>
      </trkpt>
      <trkpt lat="44.33286" lon="5.19213">
        <ele>782.5</ele>
        <time>2022-07-19T08:06:07Z</time>
      </trkpt>
      <trkpt lat="44.33284" lon="5.19211">
        <ele>782.2</ele>
        <time>2022-07-19T08:06:08Z</time>
      </trkpt>
      <trkpt lat="44.33283" lon="5.1921">
        <ele>782.1</ele>
        <time>2022-07-19T08:06:09Z</time>
      </trkpt>
      <trkpt lat="44.33283" lon="5.1921">
        <ele>781.9</ele>
        <time>2022-07-19T08:06:10Z</time>
      </trkpt>
      <trkpt lat="44.3328" lon="5.19209">
        <ele>781.6</ele>
        <time>2022-07-19T08:06:11Z</time>
      </trkpt>
      <trkpt lat="44.33279" lon="5.19209">
        <ele>781.4</ele>
        <time>2022-07-19T08:06:12Z</time>
      </trkpt>
      <trkpt lat="44.33277" lon="5.19209">
        <ele>781.2</ele>
        <time>2022-07-19T08:06:13Z</time>
      </trkpt>
      <trkpt lat="44.33276" lon="5.19209">
        <ele>781.1</ele>
        <time>2022-07-19T08:06:14Z</time>
      </trkpt>
      <trkpt lat="44.33274" lon="5.19208">
        <ele>780.7</ele>
        <time>2022-07-19T08:06:15Z</time>
      </trkpt>
      <trkpt lat="44.3327" lon="5.19207">
        <ele>780.2</ele>
        <time>2022-07-19T08:06:16Z</time>
      </trkpt>
      <trkpt lat="44.33268" lon="5.19207">
        <ele>780</ele>
        <time>2022-07-19T08:06:17Z</time>
      </trkpt>
      <trkpt lat="44.33264" lon="5.19206">
        <ele>779.5</ele>
        <time>2022-07-19T08:06:18Z</time>
      </trkpt>
      <trkpt lat="44.33259" lon="5.19205">
        <ele>779.1</ele>
        <time>2022-07-19T08:06:19Z</time>
      </trkpt>
      <trkpt lat="44.33255" lon="5.19204">
        <ele>778.6</ele>
        <time>2022-07-19T08:06:20Z</time>
      </trkpt>
      <trkpt lat="44.33251" lon="5.19202">
        <ele>778.2</ele>
        <time>2022-07-19T08:06:21Z</time>
      </trkpt>
      <trkpt lat="44.33243" lon="5.19196">
        <ele>777.3</ele>
        <time>2022-07-19T08:06:22Z</time>
      </trkpt>
      <trkpt lat="44.33237" lon="5.19193">
        <ele>776.6</ele>
        <time>2022-07-19T08:06:23Z</time>
      </trkpt>
      <trkpt lat="44.33232" lon="5.19189">
        <ele>776</ele>
        <time>2022-07-19T08:06:24Z</time>
      </trkpt>
      <trkpt lat="44.33228" lon="5.19186">
        <ele>775.4</ele>
        <time>2022-07-19T08:06:25Z</time>
      </trkpt>
      <trkpt lat="44.33225" lon="5.19186">
        <ele>775</ele>
        <time>2022-07-19T08:06:26Z</time>
      </trkpt>
      <trkpt lat="44.33222" lon="5.19185">
        <ele>774.7</ele>
        <time>2022-07-19T08:06:27Z</time>
      </trkpt>
      <trkpt lat="44.33219" lon="5.19183">
        <ele>774.3</ele>
        <time>2022-07-19T08:06:28Z</time>
      </trkpt>
      <trkpt lat="44.33219" lon="5.19182">
        <ele>774.2</ele>
        <time>2022-07-19T08:06:29Z</time>
      </trkpt>
      <trkpt lat="44.33216" lon="5.19182">
        <ele>773.9</ele>
        <time>2022-07-19T08:06:30Z</time>
      </trkpt>
      <trkpt lat="44.33215" lon="5.19182">
        <ele>773.9</ele>
        <time>2022-07-19T08:06:31Z</time>
      </trkpt>
      <trkpt lat="44.33214" lon="5.19182">
        <ele>773.8</ele>
        <time>2022-07-19T08:06:32Z</time>
      </trkpt>
      <trkpt lat="44.33214" lon="5.19182">
        <ele>773.7</ele>
        <time>2022-07-19T08:06:33Z</time>
      </trkpt>
      <trkpt lat="44.33213" lon="5.19181">
        <ele>773.6</ele>
        <time>2022-07-19T08:06:34Z</time>
      </trkpt>
      <trkpt lat="44.33212" lon="5.19181">
        <ele>773.5</ele>
        <time>2022-07-19T08:06:35Z</time>
      </trkpt>
      <trkpt lat="44.33212" lon="5.19181">
        <ele>773.5</ele>
        <time>2022-07-19T08:06:36Z</time>
      </trkpt>
      <trkpt lat="44.3321" lon="5.1918">
        <ele>773.3</ele>
        <time>2022-07-19T08:06:37Z</time>
      </trkpt>
      <trkpt lat="44.33209" lon="5.19179">
        <ele>773.1</ele>
        <time>2022-07-19T08:06:38Z</time>
      </trkpt>
      <trkpt lat="44.33207" lon="5.19178">
        <ele>772.9</ele>
        <time>2022-07-19T08:06:39Z</time>
      </trkpt>
      <trkpt lat="44.33205" lon="5.19177">
        <ele>772.7</ele>
        <time>2022-07-19T08:06:40Z</time>
      </trkpt>
      <trkpt lat="44.33204" lon="5.19176">
        <ele>772.4</ele>
        <time>2022-07-19T08:09:02Z</time>
      </trkpt>
      <trkpt lat="44.33202" lon="5.19175">
        <ele>772.2</ele>
        <time>2022-07-19T08:09:03Z</time>
      </trkpt>
      <trkpt lat="44.33199" lon="5.19173">
        <ele>771.8</ele>
        <time>2022-07-19T08:09:04Z</time>
      </trkpt>
      <trkpt lat="44.33196" lon="5.19171">
        <ele>771.3</ele>
        <time>2022-07-19T08:09:05Z</time>
      </trkpt>
      <trkpt lat="44.33193" lon="5.19169">
        <ele>770.9</ele>
        <time>2022-07-19T08:09:06Z</time>
      </trkpt>
      <trkpt lat="44.3319" lon="5.19166">
        <ele>770.6</ele>
        <time>2022-07-19T08:09:07Z</time>
      </trkpt>
      <trkpt lat="44.33188" lon="5.19163">
        <ele>770.2</ele>
        <time>2022-07-19T08:09:08Z</time>
      </trkpt>
      <trkpt lat="44.33185" lon="5.1916">
        <ele>769.9</ele>
        <time>2022-07-19T08:09:09Z</time>
      </trkpt>
      <trkpt lat="44.33183" lon="5.19158">
        <ele>769.7</ele>
        <time>2022-07-19T08:09:10Z</time>
      </trkpt>
      <trkpt lat="44.3318" lon="5.19154">
        <ele>769.5</ele>
        <time>2022-07-19T08:09:11Z</time>
      </trkpt>
      <trkpt lat="44.3318" lon="5.19153">
        <ele>769.7</ele>
        <time>2022-07-19T08:09:12Z</time>
      </trkpt>
      <trkpt lat="44.33178" lon="5.19151">
        <ele>769.8</ele>
        <time>2022-07-19T08:09:13Z</time>
      </trkpt>
      <trkpt lat="44.33177" lon="5.1915">
        <ele>769.6</ele>
        <time>2022-07-19T08:09:14Z</time>
      </trkpt>
      <trkpt lat="44.33176" lon="5.1915">
        <ele>769.9</ele>
        <time>2022-07-19T08:09:15Z</time>
      </trkpt>
      <trkpt lat="44.33175" lon="5.1915">
        <ele>770</ele>
        <time>2022-07-19T08:09:16Z</time>
      </trkpt>
      <trkpt lat="44.33174" lon="5.19151">
        <ele>770.3</ele>
        <time>2022-07-19T08:09:17Z</time>
      </trkpt>
      <trkpt lat="44.33173" lon="5.19151">
        <ele>770.4</ele>
        <time>2022-07-19T08:09:18Z</time>
      </trkpt>
      <trkpt lat="44.33172" lon="5.19151">
        <ele>770.6</ele>
        <time>2022-07-19T08:09:19Z</time>
      </trkpt>
      <trkpt lat="44.33171" lon="5.19151">
        <ele>770.7</ele>
        <time>2022-07-19T08:09:20Z</time>
      </trkpt>
      <trkpt lat="44.3317" lon="5.19151">
        <ele>771.1</ele>
        <time>2022-07-19T08:09:21Z</time>
      </trkpt>
      <trkpt lat="44.33168" lon="5.1915">
        <ele>771.2</ele>
        <time>2022-07-19T08:09:22Z</time>
      </trkpt>
      <trkpt lat="44.33168" lon="5.1915">
        <ele>771.5</ele>
        <time>2022-07-19T08:09:23Z</time>
      </trkpt>
      <trkpt lat="44.33167" lon="5.1915">
        <ele>771.7</ele>
        <time>2022-07-19T08:09:24Z</time>
      </trkpt>
      <trkpt lat="44.33164" lon="5.19149">
        <ele>772</ele>
        <time>2022-07-19T08:09:25Z</time>
      </trkpt>
      <trkpt lat="44.33163" lon="5.19149">
        <ele>772.1</ele>
        <time>2022-07-19T08:09:26Z</time>
      </trkpt>
      <trkpt lat="44.33161" lon="5.19149">
        <ele>772.4</ele>
        <time>2022-07-19T08:09:27Z</time>
      </trkpt>
      <trkpt lat="44.33159" lon="5.19148">
        <ele>772.6</ele>
        <time>2022-07-19T08:09:28Z</time>
      </trkpt>
      <trkpt lat="44.33158" lon="5.19147">
        <ele>772.9</ele>
        <time>2022-07-19T08:09:29Z</time>
      </trkpt>
      <trkpt lat="44.33157" lon="5.19146">
        <ele>772.7</ele>
        <time>2022-07-19T08:09:30Z</time>
      </trkpt>
      <trkpt lat="44.33154" lon="5.19144">
        <ele>773</ele>
        <time>2022-07-19T08:09:31Z</time>
      </trkpt>
      <trkpt lat="44.33153" lon="5.19144">
        <ele>773.2</ele>
        <time>2022-07-19T08:09:32Z</time>
      </trkpt>
      <trkpt lat="44.33151" lon="5.19142">
        <ele>773.2</ele>
        <time>2022-07-19T08:09:33Z</time>
      </trkpt>
      <trkpt lat="44.3315" lon="5.19141">
        <ele>773.3</ele>
        <time>2022-07-19T08:09:34Z</time>
      </trkpt>
      <trkpt lat="44.33149" lon="5.19141">
        <ele>773.7</ele>
        <time>2022-07-19T08:09:35Z</time>
      </trkpt>
      <trkpt lat="44.33147" lon="5.1914">
        <ele>773.9</ele>
        <time>2022-07-19T08:09:36Z</time>
      </trkpt>
      <trkpt lat="44.33147" lon="5.1914">
        <ele>774</ele>
        <time>2022-07-19T08:09:37Z</time>
      </trkpt>
      <trkpt lat="44.33145" lon="5.19139">
        <ele>774.4</ele>
        <time>2022-07-19T08:09:38Z</time>
      </trkpt>
      <trkpt lat="44.33143" lon="5.19139">
        <ele>774.5</ele>
        <time>2022-07-19T08:09:39Z</time>
      </trkpt>
      <trkpt lat="44.33142" lon="5.19139">
        <ele>774.8</ele>
        <time>2022-07-19T08:09:40Z</time>
      </trkpt>
      <trkpt lat="44.3314" lon="5.19139">
        <ele>775</ele>
        <time>2022-07-19T08:09:41Z</time>
      </trkpt>
      <trkpt lat="44.33139" lon="5.19139">
        <ele>775.3</ele>
        <time>2022-07-19T08:09:42Z</time>
      </trkpt>
      <trkpt lat="44.33138" lon="5.19138">
        <ele>775.2</ele>
        <time>2022-07-19T08:09:43Z</time>
      </trkpt>
      <trkpt lat="44.33136" lon="5.19137">
        <ele>775.5</ele>
        <time>2022-07-19T08:09:44Z</time>
      </trkpt>
      <trkpt lat="44.33134" lon="5.19136">
        <ele>775.6</ele>
        <time>2022-07-19T08:09:45Z</time>
      </trkpt>
      <trkpt lat="44.33133" lon="5.19136">
        <ele>775.9</ele>
        <time>2022-07-19T08:09:46Z</time>
      </trkpt>
      <trkpt lat="44.33133" lon="5.19136">
        <ele>776</ele>
        <time>2022-07-19T08:09:47Z</time>
      </trkpt>
      <trkpt lat="44.33131" lon="5.19135">
        <ele>776.2</ele>
        <time>2022-07-19T08:09:48Z</time>
      </trkpt>
      <trkpt lat="44.3313" lon="5.19134">
        <ele>776.4</ele>
        <time>2022-07-19T08:09:49Z</time>
      </trkpt>
      <trkpt lat="44.33127" lon="5.19133">
        <ele>776.4</ele>
        <time>2022-07-19T08:09:50Z</time>
      </trkpt>
      <trkpt lat="44.33126" lon="5.19132">
        <ele>776.6</ele>
        <time>2022-07-19T08:09:51Z</time>
      </trkpt>
      <trkpt lat="44.33123" lon="5.1913">
        <ele>776.6</ele>
        <time>2022-07-19T08:09:52Z</time>
      </trkpt>
      <trkpt lat="44.33122" lon="5.19129">
        <ele>776.8</ele>
        <time>2022-07-19T08:09:53Z</time>
      </trkpt>
      <trkpt lat="44.33119" lon="5.19128">
        <ele>777</ele>
        <time>2022-07-19T08:09:54Z</time>
      </trkpt>
      <trkpt lat="44.33117" lon="5.19127">
        <ele>777.1</ele>
        <time>2022-07-19T08:09:55Z</time>
      </trkpt>
      <trkpt lat="44.33114" lon="5.19127">
        <ele>777.2</ele>
        <time>2022-07-19T08:09:56Z</time>
      </trkpt>
      <trkpt lat="44.33113" lon="5.19127">
        <ele>777.3</ele>
        <time>2022-07-19T08:09:57Z</time>
      </trkpt>
      <trkpt lat="44.33112" lon="5.19128">
        <ele>777.4</ele>
        <time>2022-07-19T08:09:58Z</time>
      </trkpt>
      <trkpt lat="44.3311" lon="5.19128">
        <ele>777.5</ele>
        <time>2022-07-19T08:09:59Z</time>
      </trkpt>
      <trkpt lat="44.33108" lon="5.19127">
        <ele>777.6</ele>
        <time>2022-07-19T08:10:00Z</time>
      </trkpt>
      <trkpt lat="44.33105" lon="5.19126">
        <ele>777.6</ele>
        <time>2022-07-19T08:10:01Z</time>
      </trkpt>
      <trkpt lat="44.33102" lon="5.19124">
        <ele>777.7</ele>
        <time>2022-07-19T08:10:02Z</time>
      </trkpt>
      <trkpt lat="44.33101" lon="5.19123">
        <ele>777.9</ele>
        <time>2022-07-19T08:10:03Z</time>
      </trkpt>
      <trkpt lat="44.33099" lon="5.1912">
        <ele>778</ele>
        <time>2022-07-19T08:10:04Z</time>
      </trkpt>
      <trkpt lat="44.33098" lon="5.19119">
        <ele>778.2</ele>
        <time>2022-07-19T08:10:05Z</time>
      </trkpt>
      <trkpt lat="44.33095" lon="5.19118">
        <ele>778.3</ele>
        <time>2022-07-19T08:10:06Z</time>
      </trkpt>
      <trkpt lat="44.33094" lon="5.19117">
        <ele>778.5</ele>
        <time>2022-07-19T08:10:07Z</time>
      </trkpt>
      <trkpt lat="44.33091" lon="5.19115">
        <ele>778.5</ele>
        <time>2022-07-19T08:10:08Z</time>
      </trkpt>
      <trkpt lat="44.3309" lon="5.19114">
        <ele>778.6</ele>
        <time>2022-07-19T08:10:09Z</time>
      </trkpt>
      <trkpt lat="44.33086" lon="5.19111">
        <ele>778.7</ele>
        <time>2022-07-19T08:10:10Z</time>
      </trkpt>
      <trkpt lat="44.33086" lon="5.19111">
        <ele>778.8</ele>
        <time>2022-07-19T08:10:11Z</time>
      </trkpt>
      <trkpt lat="44.33083" lon="5.19108">
        <ele>778.8</ele>
        <time>2022-07-19T08:10:12Z</time>
      </trkpt>
      <trkpt lat="44.33082" lon="5.19107">
        <ele>779</ele>
        <time>2022-07-19T08:10:13Z</time>
      </trkpt>
      <trkpt lat="44.33078" lon="5.19105">
        <ele>778.8</ele>
        <time>2022-07-19T08:10:14Z</time>
      </trkpt>
      <trkpt lat="44.33077" lon="5.19104">
        <ele>778.9</ele>
        <time>2022-07-19T08:10:15Z</time>
      </trkpt>
      <trkpt lat="44.33075" lon="5.19103">
        <ele>778.8</ele>
        <time>2022-07-19T08:10:16Z</time>
      </trkpt>
      <trkpt lat="44.33072" lon="5.191">
        <ele>778.7</ele>
        <time>2022-07-19T08:10:17Z</time>
      </trkpt>
      <trkpt lat="44.33069" lon="5.19097">
        <ele>778.5</ele>
        <time>2022-07-19T08:10:18Z</time>
      </trkpt>
      <trkpt lat="44.33068" lon="5.19096">
        <ele>778.6</ele>
        <time>2022-07-19T08:10:19Z</time>
      </trkpt>
      <trkpt lat="44.33067" lon="5.19092">
        <ele>778.6</ele>
        <time>2022-07-19T08:10:20Z</time>
      </trkpt>
      <trkpt lat="44.33065" lon="5.19088">
        <ele>778.1</ele>
        <time>2022-07-19T08:10:21Z</time>
      </trkpt>
      <trkpt lat="44.33065" lon="5.19087">
        <ele>778.1</ele>
        <time>2022-07-19T08:10:22Z</time>
      </trkpt>
      <trkpt lat="44.33062" lon="5.19083">
        <ele>777.8</ele>
        <time>2022-07-19T08:10:23Z</time>
      </trkpt>
      <trkpt lat="44.33061" lon="5.19082">
        <ele>777.7</ele>
        <time>2022-07-19T08:10:24Z</time>
      </trkpt>
      <trkpt lat="44.33059" lon="5.19079">
        <ele>777.3</ele>
        <time>2022-07-19T08:10:25Z</time>
      </trkpt>
      <trkpt lat="44.33056" lon="5.19076">
        <ele>776.7</ele>
        <time>2022-07-19T08:10:26Z</time>
      </trkpt>
      <trkpt lat="44.33054" lon="5.19074">
        <ele>776.3</ele>
        <time>2022-07-19T08:10:27Z</time>
      </trkpt>
      <trkpt lat="44.33051" lon="5.19071">
        <ele>775.6</ele>
        <time>2022-07-19T08:10:28Z</time>
      </trkpt>
      <trkpt lat="44.3305" lon="5.19071">
        <ele>775.7</ele>
        <time>2022-07-19T08:10:29Z</time>
      </trkpt>
      <trkpt lat="44.33046" lon="5.19067">
        <ele>775.1</ele>
        <time>2022-07-19T08:10:30Z</time>
      </trkpt>
      <trkpt lat="44.33044" lon="5.19066">
        <ele>774.5</ele>
        <time>2022-07-19T08:10:31Z</time>
      </trkpt>
      <trkpt lat="44.33041" lon="5.19064">
        <ele>773.8</ele>
        <time>2022-07-19T08:10:32Z</time>
      </trkpt>
      <trkpt lat="44.33039" lon="5.19062">
        <ele>773.2</ele>
        <time>2022-07-19T08:10:33Z</time>
      </trkpt>
      <trkpt lat="44.33036" lon="5.19061">
        <ele>772.3</ele>
        <time>2022-07-19T08:10:34Z</time>
      </trkpt>
      <trkpt lat="44.33032" lon="5.1906">
        <ele>771.6</ele>
        <time>2022-07-19T08:10:35Z</time>
      </trkpt>
      <trkpt lat="44.33029" lon="5.19059">
        <ele>770.9</ele>
        <time>2022-07-19T08:10:36Z</time>
      </trkpt>
      <trkpt lat="44.33026" lon="5.19058">
        <ele>770.1</ele>
        <time>2022-07-19T08:10:37Z</time>
      </trkpt>
      <trkpt lat="44.33023" lon="5.19056">
        <ele>769</ele>
        <time>2022-07-19T08:10:38Z</time>
      </trkpt>
      <trkpt lat="44.33019" lon="5.19055">
        <ele>768.2</ele>
        <time>2022-07-19T08:10:39Z</time>
      </trkpt>
      <trkpt lat="44.33016" lon="5.19052">
        <ele>767.1</ele>
        <time>2022-07-19T08:10:40Z</time>
      </trkpt>
      <trkpt lat="44.33013" lon="5.1905">
        <ele>766.3</ele>
        <time>2022-07-19T08:10:41Z</time>
      </trkpt>
      <trkpt lat="44.3301" lon="5.19048">
        <ele>765.3</ele>
        <time>2022-07-19T08:10:42Z</time>
      </trkpt>
      <trkpt lat="44.33007" lon="5.19046">
        <ele>764.5</ele>
        <time>2022-07-19T08:10:43Z</time>
      </trkpt>
      <trkpt lat="44.33003" lon="5.19046">
        <ele>763.7</ele>
        <time>2022-07-19T08:10:44Z</time>
      </trkpt>
      <trkpt lat="44.32999" lon="5.19046">
        <ele>762.8</ele>
        <time>2022-07-19T08:10:45Z</time>
      </trkpt>
      <trkpt lat="44.32996" lon="5.19045">
        <ele>761.9</ele>
        <time>2022-07-19T08:10:46Z</time>
      </trkpt>
      <trkpt lat="44.32993" lon="5.19045">
        <ele>760.1</ele>
        <time>2022-07-19T08:10:47Z</time>
      </trkpt>
      <trkpt lat="44.32992" lon="5.19045">
        <ele>760.3</ele>
        <time>2022-07-19T08:10:48Z</time>
      </trkpt>
      <trkpt lat="44.32989" lon="5.19045">
        <ele>759.5</ele>
        <time>2022-07-19T08:10:49Z</time>
      </trkpt>
      <trkpt lat="44.32987" lon="5.19045">
        <ele>759.7</ele>
        <time>2022-07-19T08:10:50Z</time>
      </trkpt>
      <trkpt lat="44.32984" lon="5.19046">
        <ele>759</ele>
        <time>2022-07-19T08:10:51Z</time>
      </trkpt>
      <trkpt lat="44.32981" lon="5.19047">
        <ele>758.3</ele>
        <time>2022-07-19T08:10:52Z</time>
      </trkpt>
      <trkpt lat="44.32977" lon="5.19047">
        <ele>756.6</ele>
        <time>2022-07-19T08:10:53Z</time>
      </trkpt>
      <trkpt lat="44.32974" lon="5.19047">
        <ele>755.8</ele>
        <time>2022-07-19T08:10:54Z</time>
      </trkpt>
      <trkpt lat="44.3297" lon="5.19047">
        <ele>755.1</ele>
        <time>2022-07-19T08:10:55Z</time>
      </trkpt>
      <trkpt lat="44.32966" lon="5.19047">
        <ele>754.4</ele>
        <time>2022-07-19T08:10:56Z</time>
      </trkpt>
      <trkpt lat="44.32963" lon="5.19046">
        <ele>753.8</ele>
        <time>2022-07-19T08:10:57Z</time>
      </trkpt>
      <trkpt lat="44.32959" lon="5.19046">
        <ele>752.7</ele>
        <time>2022-07-19T08:10:58Z</time>
      </trkpt>
      <trkpt lat="44.32954" lon="5.19047">
        <ele>752.3</ele>
        <time>2022-07-19T08:10:59Z</time>
      </trkpt>
      <trkpt lat="44.32949" lon="5.19049">
        <ele>751.8</ele>
        <time>2022-07-19T08:11:00Z</time>
      </trkpt>
      <trkpt lat="44.32945" lon="5.19051">
        <ele>751.4</ele>
        <time>2022-07-19T08:11:01Z</time>
      </trkpt>
      <trkpt lat="44.32941" lon="5.1905">
        <ele>751</ele>
        <time>2022-07-19T08:11:02Z</time>
      </trkpt>
      <trkpt lat="44.32938" lon="5.19049">
        <ele>750.7</ele>
        <time>2022-07-19T08:11:03Z</time>
      </trkpt>
      <trkpt lat="44.32935" lon="5.19047">
        <ele>750.3</ele>
        <time>2022-07-19T08:11:04Z</time>
      </trkpt>
      <trkpt lat="44.32932" lon="5.19045">
        <ele>750</ele>
        <time>2022-07-19T08:11:05Z</time>
      </trkpt>
      <trkpt lat="44.32929" lon="5.19042">
        <ele>749.6</ele>
        <time>2022-07-19T08:11:06Z</time>
      </trkpt>
      <trkpt lat="44.32928" lon="5.19041">
        <ele>749.4</ele>
        <time>2022-07-19T08:11:07Z</time>
      </trkpt>
      <trkpt lat="44.32925" lon="5.19039">
        <ele>749.1</ele>
        <time>2022-07-19T08:11:08Z</time>
      </trkpt>
      <trkpt lat="44.32922" lon="5.19038">
        <ele>748.8</ele>
        <time>2022-07-19T08:11:09Z</time>
      </trkpt>
      <trkpt lat="44.32918" lon="5.19037">
        <ele>748.5</ele>
        <time>2022-07-19T08:11:10Z</time>
      </trkpt>
      <trkpt lat="44.32917" lon="5.19037">
        <ele>748.3</ele>
        <time>2022-07-19T08:11:11Z</time>
      </trkpt>
      <trkpt lat="44.32915" lon="5.19037">
        <ele>748.2</ele>
        <time>2022-07-19T08:11:12Z</time>
      </trkpt>
      <trkpt lat="44.32913" lon="5.19037">
        <ele>748</ele>
        <time>2022-07-19T08:11:13Z</time>
      </trkpt>
      <trkpt lat="44.32911" lon="5.19035">
        <ele>747.7</ele>
        <time>2022-07-19T08:11:14Z</time>
      </trkpt>
      <trkpt lat="44.3291" lon="5.19034">
        <ele>747.6</ele>
        <time>2022-07-19T08:11:15Z</time>
      </trkpt>
      <trkpt lat="44.32907" lon="5.19031">
        <ele>747.3</ele>
        <time>2022-07-19T08:11:16Z</time>
      </trkpt>
      <trkpt lat="44.32906" lon="5.1903">
        <ele>747.2</ele>
        <time>2022-07-19T08:11:17Z</time>
      </trkpt>
      <trkpt lat="44.32905" lon="5.19029">
        <ele>747.1</ele>
        <time>2022-07-19T08:11:18Z</time>
      </trkpt>
      <trkpt lat="44.32905" lon="5.19029">
        <ele>747.1</ele>
        <time>2022-07-19T08:11:19Z</time>
      </trkpt>
      <trkpt lat="44.32905" lon="5.19029">
        <ele>747.1</ele>
        <time>2022-07-19T08:11:20Z</time>
      </trkpt>
      <trkpt lat="44.32905" lon="5.19029">
        <ele>747.1</ele>
        <time>2022-07-19T08:11:21Z</time>
      </trkpt>
      <trkpt lat="44.32905" lon="5.19029">
        <ele>747.1</ele>
        <time>2022-07-19T08:11:22Z</time>
      </trkpt>
      <trkpt lat="44.32903" lon="5.19031">
        <ele>746.8</ele>
        <time>2022-07-19T08:11:23Z</time>
      </trkpt>
      <trkpt lat="44.32901" lon="5.19032">
        <ele>746.7</ele>
        <time>2022-07-19T08:11:24Z</time>
      </trkpt>
      <trkpt lat="44.329" lon="5.19033">
        <ele>746.6</ele>
        <time>2022-07-19T08:11:25Z</time>
      </trkpt>
      <trkpt lat="44.329" lon="5.19033">
        <ele>746.6</ele>
        <time>2022-07-19T08:11:26Z</time>
      </trkpt>
      <trkpt lat="44.329" lon="5.19033">
        <ele>746.6</ele>
        <time>2022-07-19T08:11:27Z</time>
      </trkpt>
      <trkpt lat="44.329" lon="5.19033">
        <ele>746.6</ele>
        <time>2022-07-19T08:11:28Z</time>
      </trkpt>
      <trkpt lat="44.329" lon="5.19033">
        <ele>746.6</ele>
        <time>2022-07-19T08:11:29Z</time>
      </trkpt>
      <trkpt lat="44.329" lon="5.19033">
        <ele>746.6</ele>
        <time>2022-07-19T08:11:30Z</time>
      </trkpt>
      <trkpt lat="44.329" lon="5.19033">
        <ele>746.6</ele>
        <time>2022-07-19T08:11:31Z</time>
      </trkpt>
      <trkpt lat="44.329" lon="5.19033">
        <ele>746.6</ele>
        <time>2022-07-19T08:11:32Z</time>
      </trkpt>
      <trkpt lat="44.329" lon="5.19033">
        <ele>746.6</ele>
        <time>2022-07-19T08:11:33Z</time>
      </trkpt>
      <trkpt lat="44.329" lon="5.19033">
        <ele>746.6</ele>
        <time>2022-07-19T08:11:34Z</time>
      </trkpt>
      <trkpt lat="44.329" lon="5.19033">
        <ele>746.6</ele>
        <time>2022-07-19T08:11:35Z</time>
      </trkpt>
      <trkpt lat="44.3288" lon="5.19033">
        <ele>746.5</ele>
        <time>2022-07-19T08:12:42Z</time>
      </trkpt>
      <trkpt lat="44.3288" lon="5.19033">
        <ele>746.5</ele>
        <time>2022-07-19T08:12:43Z</time>
      </trkpt>
      <trkpt lat="44.3288" lon="5.19033">
        <ele>746.5</ele>
        <time>2022-07-19T08:12:44Z</time>
      </trkpt>
      <trkpt lat="44.3288" lon="5.19033">
        <ele>746.5</ele>
        <time>2022-07-19T08:12:45Z</time>
      </trkpt>
      <trkpt lat="44.3288" lon="5.19033">
        <ele>746.5</ele>
        <time>2022-07-19T08:12:46Z</time>
      </trkpt>
      <trkpt lat="44.3288" lon="5.19033">
        <ele>746.5</ele>
        <time>2022-07-19T08:12:47Z</time>
      </trkpt>
      <trkpt lat="44.3288" lon="5.19033">
        <ele>746.5</ele>
        <time>2022-07-19T08:12:48Z</time>
      </trkpt>
      <trkpt lat="44.3288" lon="5.19033">
        <ele>746.5</ele>
        <time>2022-07-19T08:12:49Z</time>
      </trkpt>
      <trkpt lat="44.3288" lon="5.19033">
        <ele>746.5</ele>
        <time>2022-07-19T08:12:50Z</time>
      </trkpt>
      <trkpt lat="44.3288" lon="5.19033">
        <ele>746.5</ele>
        <time>2022-07-19T08:12:51Z</time>
      </trkpt>
      <trkpt lat="44.3288" lon="5.19036">
        <ele>746.6</ele>
        <time>2022-07-19T08:13:09Z</time>
      </trkpt>
      <trkpt lat="44.32881" lon="5.19035">
        <ele>746.6</ele>
        <time>2022-07-19T08:13:10Z</time>
      </trkpt>
      <trkpt lat="44.32881" lon="5.19034">
        <ele>746.6</ele>
        <time>2022-07-19T08:13:11Z</time>
      </trkpt>
      <trkpt lat="44.32881" lon="5.19034">
        <ele>746.6</ele>
        <time>2022-07-19T08:13:12Z</time>
      </trkpt>
      <trkpt lat="44.32881" lon="5.19034">
        <ele>746.6</ele>
        <time>2022-07-19T08:13:13Z</time>
      </trkpt>
      <trkpt lat="44.32881" lon="5.19034">
        <ele>746.6</ele>
        <time>2022-07-19T08:13:14Z</time>
      </trkpt>
      <trkpt lat="44.32881" lon="5.19034">
        <ele>746.6</ele>
        <time>2022-07-19T08:13:15Z</time>
      </trkpt>
      <trkpt lat="44.32882" lon="5.19033">
        <ele>746.6</ele>
        <time>2022-07-19T08:13:16Z</time>
      </trkpt>
      <trkpt lat="44.32883" lon="5.19033">
        <ele>746.6</ele>
        <time>2022-07-19T08:13:17Z</time>
      </trkpt>
      <trkpt lat="44.32884" lon="5.19033">
        <ele>746.7</ele>
        <time>2022-07-19T08:13:18Z</time>
      </trkpt>
      <trkpt lat="44.32884" lon="5.19032">
        <ele>746.7</ele>
        <time>2022-07-19T08:13:19Z</time>
      </trkpt>
      <trkpt lat="44.32885" lon="5.1903">
        <ele>746.7</ele>
        <time>2022-07-19T08:13:20Z</time>
      </trkpt>
      <trkpt lat="44.32885" lon="5.19027">
        <ele>746.8</ele>
        <time>2022-07-19T08:13:21Z</time>
      </trkpt>
      <trkpt lat="44.32884" lon="5.19025">
        <ele>746.8</ele>
        <time>2022-07-19T08:13:22Z</time>
      </trkpt>
      <trkpt lat="44.32883" lon="5.19023">
        <ele>746.8</ele>
        <time>2022-07-19T08:13:23Z</time>
      </trkpt>
      <trkpt lat="44.3288" lon="5.19021">
        <ele>746.9</ele>
        <time>2022-07-19T08:13:24Z</time>
      </trkpt>
      <trkpt lat="44.32879" lon="5.1902">
        <ele>746.9</ele>
        <time>2022-07-19T08:13:25Z</time>
      </trkpt>
      <trkpt lat="44.32875" lon="5.19018">
        <ele>746.9</ele>
        <time>2022-07-19T08:13:26Z</time>
      </trkpt>
      <trkpt lat="44.32874" lon="5.19017">
        <ele>746.9</ele>
        <time>2022-07-19T08:13:27Z</time>
      </trkpt>
      <trkpt lat="44.3287" lon="5.19014">
        <ele>746.9</ele>
        <time>2022-07-19T08:13:28Z</time>
      </trkpt>
      <trkpt lat="44.32869" lon="5.19013">
        <ele>746.9</ele>
        <time>2022-07-19T08:13:29Z</time>
      </trkpt>
      <trkpt lat="44.32867" lon="5.19011">
        <ele>746.9</ele>
        <time>2022-07-19T08:13:30Z</time>
      </trkpt>
      <trkpt lat="44.32866" lon="5.1901">
        <ele>746.9</ele>
        <time>2022-07-19T08:13:31Z</time>
      </trkpt>
      <trkpt lat="44.32864" lon="5.19007">
        <ele>746.9</ele>
        <time>2022-07-19T08:13:32Z</time>
      </trkpt>
      <trkpt lat="44.32861" lon="5.19003">
        <ele>746.9</ele>
        <time>2022-07-19T08:13:33Z</time>
      </trkpt>
      <trkpt lat="44.3286" lon="5.19002">
        <ele>746.9</ele>
        <time>2022-07-19T08:13:34Z</time>
      </trkpt>
      <trkpt lat="44.32857" lon="5.19">
        <ele>747</ele>
        <time>2022-07-19T08:13:35Z</time>
      </trkpt>
      <trkpt lat="44.32855" lon="5.18998">
        <ele>747</ele>
        <time>2022-07-19T08:13:36Z</time>
      </trkpt>
      <trkpt lat="44.32852" lon="5.18996">
        <ele>747</ele>
        <time>2022-07-19T08:13:37Z</time>
      </trkpt>
      <trkpt lat="44.32849" lon="5.18993">
        <ele>747</ele>
        <time>2022-07-19T08:13:38Z</time>
      </trkpt>
      <trkpt lat="44.32847" lon="5.18989">
        <ele>747.1</ele>
        <time>2022-07-19T08:13:39Z</time>
      </trkpt>
      <trkpt lat="44.32844" lon="5.18985">
        <ele>747.1</ele>
        <time>2022-07-19T08:13:40Z</time>
      </trkpt>
      <trkpt lat="44.32843" lon="5.18981">
        <ele>747.2</ele>
        <time>2022-07-19T08:13:41Z</time>
      </trkpt>
      <trkpt lat="44.32839" lon="5.18976">
        <ele>747.3</ele>
        <time>2022-07-19T08:13:42Z</time>
      </trkpt>
      <trkpt lat="44.32836" lon="5.18972">
        <ele>747.5</ele>
        <time>2022-07-19T08:13:43Z</time>
      </trkpt>
      <trkpt lat="44.32831" lon="5.18968">
        <ele>747.8</ele>
        <time>2022-07-19T08:13:44Z</time>
      </trkpt>
      <trkpt lat="44.3283" lon="5.18964">
        <ele>747.9</ele>
        <time>2022-07-19T08:13:45Z</time>
      </trkpt>
      <trkpt lat="44.32826" lon="5.18961">
        <ele>748.1</ele>
        <time>2022-07-19T08:13:46Z</time>
      </trkpt>
      <trkpt lat="44.32822" lon="5.18958">
        <ele>748.4</ele>
        <time>2022-07-19T08:13:47Z</time>
      </trkpt>
      <trkpt lat="44.32819" lon="5.18955">
        <ele>748.6</ele>
        <time>2022-07-19T08:13:48Z</time>
      </trkpt>
      <trkpt lat="44.32816" lon="5.18954">
        <ele>748.7</ele>
        <time>2022-07-19T08:13:49Z</time>
      </trkpt>
      <trkpt lat="44.32815" lon="5.18953">
        <ele>748.8</ele>
        <time>2022-07-19T08:13:50Z</time>
      </trkpt>
      <trkpt lat="44.32812" lon="5.1895">
        <ele>749</ele>
        <time>2022-07-19T08:13:51Z</time>
      </trkpt>
      <trkpt lat="44.32812" lon="5.1895">
        <ele>749</ele>
        <time>2022-07-19T08:13:52Z</time>
      </trkpt>
      <trkpt lat="44.32811" lon="5.18947">
        <ele>749.2</ele>
        <time>2022-07-19T08:13:53Z</time>
      </trkpt>
      <trkpt lat="44.3281" lon="5.18945">
        <ele>749.2</ele>
        <time>2022-07-19T08:13:54Z</time>
      </trkpt>
      <trkpt lat="44.32808" lon="5.18941">
        <ele>749.4</ele>
        <time>2022-07-19T08:13:55Z</time>
      </trkpt>
      <trkpt lat="44.32808" lon="5.1894">
        <ele>749.5</ele>
        <time>2022-07-19T08:13:56Z</time>
      </trkpt>
      <trkpt lat="44.32806" lon="5.18935">
        <ele>749.7</ele>
        <time>2022-07-19T08:13:57Z</time>
      </trkpt>
      <trkpt lat="44.32806" lon="5.18933">
        <ele>749.8</ele>
        <time>2022-07-19T08:13:58Z</time>
      </trkpt>
      <trkpt lat="44.32804" lon="5.18929">
        <ele>750</ele>
        <time>2022-07-19T08:13:59Z</time>
      </trkpt>
      <trkpt lat="44.32803" lon="5.18926">
        <ele>750.1</ele>
        <time>2022-07-19T08:14:00Z</time>
      </trkpt>
      <trkpt lat="44.32801" lon="5.18923">
        <ele>750.3</ele>
        <time>2022-07-19T08:14:01Z</time>
      </trkpt>
      <trkpt lat="44.32798" lon="5.18919">
        <ele>750.5</ele>
        <time>2022-07-19T08:14:02Z</time>
      </trkpt>
      <trkpt lat="44.32796" lon="5.18916">
        <ele>750.6</ele>
        <time>2022-07-19T08:14:03Z</time>
      </trkpt>
      <trkpt lat="44.32794" lon="5.18912">
        <ele>750.8</ele>
        <time>2022-07-19T08:14:04Z</time>
      </trkpt>
      <trkpt lat="44.32792" lon="5.1891">
        <ele>750.9</ele>
        <time>2022-07-19T08:14:05Z</time>
      </trkpt>
      <trkpt lat="44.3279" lon="5.18907">
        <ele>751</ele>
        <time>2022-07-19T08:14:06Z</time>
      </trkpt>
      <trkpt lat="44.32787" lon="5.18905">
        <ele>751.2</ele>
        <time>2022-07-19T08:14:07Z</time>
      </trkpt>
      <trkpt lat="44.32785" lon="5.18902">
        <ele>751.3</ele>
        <time>2022-07-19T08:14:08Z</time>
      </trkpt>
      <trkpt lat="44.32782" lon="5.189">
        <ele>751.4</ele>
        <time>2022-07-19T08:14:09Z</time>
      </trkpt>
      <trkpt lat="44.32779" lon="5.18898">
        <ele>751.5</ele>
        <time>2022-07-19T08:14:10Z</time>
      </trkpt>
      <trkpt lat="44.32776" lon="5.18897">
        <ele>751.6</ele>
        <time>2022-07-19T08:14:11Z</time>
      </trkpt>
      <trkpt lat="44.32773" lon="5.18895">
        <ele>751.7</ele>
        <time>2022-07-19T08:14:12Z</time>
      </trkpt>
      <trkpt lat="44.3277" lon="5.18894">
        <ele>751.8</ele>
        <time>2022-07-19T08:14:13Z</time>
      </trkpt>
      <trkpt lat="44.32766" lon="5.18893">
        <ele>751.8</ele>
        <time>2022-07-19T08:14:14Z</time>
      </trkpt>
      <trkpt lat="44.32761" lon="5.18893">
        <ele>751.9</ele>
        <time>2022-07-19T08:14:15Z</time>
      </trkpt>
      <trkpt lat="44.32757" lon="5.18892">
        <ele>751.9</ele>
        <time>2022-07-19T08:14:16Z</time>
      </trkpt>
      <trkpt lat="44.32754" lon="5.18892">
        <ele>752</ele>
        <time>2022-07-19T08:14:17Z</time>
      </trkpt>
      <trkpt lat="44.3275" lon="5.18891">
        <ele>752</ele>
        <time>2022-07-19T08:14:18Z</time>
      </trkpt>
      <trkpt lat="44.32748" lon="5.1889">
        <ele>752</ele>
        <time>2022-07-19T08:14:19Z</time>
      </trkpt>
      <trkpt lat="44.32745" lon="5.18889">
        <ele>752</ele>
        <time>2022-07-19T08:14:20Z</time>
      </trkpt>
      <trkpt lat="44.32742" lon="5.18888">
        <ele>752</ele>
        <time>2022-07-19T08:14:21Z</time>
      </trkpt>
      <trkpt lat="44.32738" lon="5.18886">
        <ele>752</ele>
        <time>2022-07-19T08:14:22Z</time>
      </trkpt>
      <trkpt lat="44.32737" lon="5.18886">
        <ele>752</ele>
        <time>2022-07-19T08:14:23Z</time>
      </trkpt>
      <trkpt lat="44.32733" lon="5.18884">
        <ele>752</ele>
        <time>2022-07-19T08:14:24Z</time>
      </trkpt>
      <trkpt lat="44.32732" lon="5.18883">
        <ele>752</ele>
        <time>2022-07-19T08:14:25Z</time>
      </trkpt>
      <trkpt lat="44.32729" lon="5.18882">
        <ele>752.1</ele>
        <time>2022-07-19T08:14:26Z</time>
      </trkpt>
      <trkpt lat="44.32728" lon="5.18882">
        <ele>752.1</ele>
        <time>2022-07-19T08:14:27Z</time>
      </trkpt>
      <trkpt lat="44.32725" lon="5.18882">
        <ele>752.2</ele>
        <time>2022-07-19T08:14:28Z</time>
      </trkpt>
      <trkpt lat="44.32724" lon="5.18882">
        <ele>752.2</ele>
        <time>2022-07-19T08:14:29Z</time>
      </trkpt>
      <trkpt lat="44.32721" lon="5.18882">
        <ele>752.3</ele>
        <time>2022-07-19T08:14:30Z</time>
      </trkpt>
      <trkpt lat="44.3272" lon="5.18882">
        <ele>752.3</ele>
        <time>2022-07-19T08:14:31Z</time>
      </trkpt>
      <trkpt lat="44.32717" lon="5.18881">
        <ele>752.4</ele>
        <time>2022-07-19T08:14:32Z</time>
      </trkpt>
      <trkpt lat="44.32716" lon="5.18881">
        <ele>752.4</ele>
        <time>2022-07-19T08:14:33Z</time>
      </trkpt>
      <trkpt lat="44.32713" lon="5.18881">
        <ele>752.5</ele>
        <time>2022-07-19T08:14:34Z</time>
      </trkpt>
      <trkpt lat="44.32711" lon="5.1888">
        <ele>752.5</ele>
        <time>2022-07-19T08:14:35Z</time>
      </trkpt>
      <trkpt lat="44.32708" lon="5.1888">
        <ele>752.6</ele>
        <time>2022-07-19T08:14:36Z</time>
      </trkpt>
      <trkpt lat="44.32707" lon="5.1888">
        <ele>752.6</ele>
        <time>2022-07-19T08:14:37Z</time>
      </trkpt>
      <trkpt lat="44.32704" lon="5.18879">
        <ele>752.7</ele>
        <time>2022-07-19T08:14:38Z</time>
      </trkpt>
      <trkpt lat="44.32703" lon="5.18878">
        <ele>752.7</ele>
        <time>2022-07-19T08:14:39Z</time>
      </trkpt>
      <trkpt lat="44.32699" lon="5.18876">
        <ele>752.8</ele>
        <time>2022-07-19T08:14:40Z</time>
      </trkpt>
      <trkpt lat="44.32698" lon="5.18876">
        <ele>752.8</ele>
        <time>2022-07-19T08:14:41Z</time>
      </trkpt>
      <trkpt lat="44.32696" lon="5.18874">
        <ele>752.9</ele>
        <time>2022-07-19T08:14:42Z</time>
      </trkpt>
      <trkpt lat="44.32695" lon="5.18873">
        <ele>752.9</ele>
        <time>2022-07-19T08:14:43Z</time>
      </trkpt>
      <trkpt lat="44.32692" lon="5.18871">
        <ele>753</ele>
        <time>2022-07-19T08:14:44Z</time>
      </trkpt>
      <trkpt lat="44.32691" lon="5.1887">
        <ele>753</ele>
        <time>2022-07-19T08:14:45Z</time>
      </trkpt>
      <trkpt lat="44.32689" lon="5.18868">
        <ele>753.1</ele>
        <time>2022-07-19T08:14:46Z</time>
      </trkpt>
      <trkpt lat="44.32688" lon="5.18868">
        <ele>753.1</ele>
        <time>2022-07-19T08:14:47Z</time>
      </trkpt>
      <trkpt lat="44.32687" lon="5.18867">
        <ele>753.1</ele>
        <time>2022-07-19T08:14:48Z</time>
      </trkpt>
      <trkpt lat="44.32687" lon="5.18867">
        <ele>753.1</ele>
        <time>2022-07-19T08:14:49Z</time>
      </trkpt>
      <trkpt lat="44.32686" lon="5.18867">
        <ele>753.1</ele>
        <time>2022-07-19T08:14:50Z</time>
      </trkpt>
      <trkpt lat="44.32685" lon="5.18866">
        <ele>753.1</ele>
        <time>2022-07-19T08:14:51Z</time>
      </trkpt>
      <trkpt lat="44.32684" lon="5.18866">
        <ele>753.1</ele>
        <time>2022-07-19T08:14:52Z</time>
      </trkpt>
      <trkpt lat="44.32684" lon="5.18866">
        <ele>753.2</ele>
        <time>2022-07-19T08:14:53Z</time>
      </trkpt>
      <trkpt lat="44.32683" lon="5.18865">
        <ele>753.2</ele>
        <time>2022-07-19T08:14:54Z</time>
      </trkpt>
      <trkpt lat="44.32681" lon="5.18864">
        <ele>753.2</ele>
        <time>2022-07-19T08:14:55Z</time>
      </trkpt>
      <trkpt lat="44.3268" lon="5.18863">
        <ele>753.3</ele>
        <time>2022-07-19T08:14:56Z</time>
      </trkpt>
      <trkpt lat="44.32678" lon="5.18861">
        <ele>753.3</ele>
        <time>2022-07-19T08:14:57Z</time>
      </trkpt>
      <trkpt lat="44.32676" lon="5.1886">
        <ele>753.4</ele>
        <time>2022-07-19T08:15:50Z</time>
      </trkpt>
      <trkpt lat="44.32675" lon="5.18859">
        <ele>753.4</ele>
        <time>2022-07-19T08:15:51Z</time>
      </trkpt>
      <trkpt lat="44.32673" lon="5.18857">
        <ele>753.5</ele>
        <time>2022-07-19T08:15:52Z</time>
      </trkpt>
      <trkpt lat="44.32672" lon="5.18856">
        <ele>753.6</ele>
        <time>2022-07-19T08:15:53Z</time>
      </trkpt>
      <trkpt lat="44.3267" lon="5.18853">
        <ele>753.7</ele>
        <time>2022-07-19T08:15:54Z</time>
      </trkpt>
      <trkpt lat="44.32669" lon="5.18852">
        <ele>753.8</ele>
        <time>2022-07-19T08:15:55Z</time>
      </trkpt>
      <trkpt lat="44.32668" lon="5.18851">
        <ele>753.9</ele>
        <time>2022-07-19T08:15:56Z</time>
      </trkpt>
      <trkpt lat="44.32667" lon="5.1885">
        <ele>753.9</ele>
        <time>2022-07-19T08:15:57Z</time>
      </trkpt>
      <trkpt lat="44.32665" lon="5.18848">
        <ele>754</ele>
        <time>2022-07-19T08:15:58Z</time>
      </trkpt>
      <trkpt lat="44.32664" lon="5.18847">
        <ele>754.1</ele>
        <time>2022-07-19T08:15:59Z</time>
      </trkpt>
      <trkpt lat="44.32664" lon="5.18846">
        <ele>754.1</ele>
        <time>2022-07-19T08:16:00Z</time>
      </trkpt>
      <trkpt lat="44.32661" lon="5.18844">
        <ele>754.3</ele>
        <time>2022-07-19T08:16:01Z</time>
      </trkpt>
      <trkpt lat="44.3266" lon="5.18844">
        <ele>754.4</ele>
        <time>2022-07-19T08:16:02Z</time>
      </trkpt>
      <trkpt lat="44.32657" lon="5.18842">
        <ele>754.6</ele>
        <time>2022-07-19T08:16:03Z</time>
      </trkpt>
      <trkpt lat="44.32656" lon="5.18841">
        <ele>754.6</ele>
        <time>2022-07-19T08:16:04Z</time>
      </trkpt>
      <trkpt lat="44.32655" lon="5.18839">
        <ele>754.7</ele>
        <time>2022-07-19T08:16:05Z</time>
      </trkpt>
      <trkpt lat="44.32654" lon="5.18838">
        <ele>754.8</ele>
        <time>2022-07-19T08:16:06Z</time>
      </trkpt>
      <trkpt lat="44.32653" lon="5.18837">
        <ele>754.9</ele>
        <time>2022-07-19T08:16:07Z</time>
      </trkpt>
      <trkpt lat="44.32652" lon="5.18835">
        <ele>755.1</ele>
        <time>2022-07-19T08:16:08Z</time>
      </trkpt>
      <trkpt lat="44.32651" lon="5.18833">
        <ele>755.2</ele>
        <time>2022-07-19T08:16:09Z</time>
      </trkpt>
      <trkpt lat="44.3265" lon="5.18832">
        <ele>755.3</ele>
        <time>2022-07-19T08:16:10Z</time>
      </trkpt>
      <trkpt lat="44.32649" lon="5.18831">
        <ele>755.4</ele>
        <time>2022-07-19T08:16:11Z</time>
      </trkpt>
      <trkpt lat="44.32647" lon="5.18829">
        <ele>755.5</ele>
        <time>2022-07-19T08:16:12Z</time>
      </trkpt>
      <trkpt lat="44.32646" lon="5.18828">
        <ele>755.6</ele>
        <time>2022-07-19T08:16:13Z</time>
      </trkpt>
      <trkpt lat="44.32645" lon="5.18827">
        <ele>755.8</ele>
        <time>2022-07-19T08:16:14Z</time>
      </trkpt>
      <trkpt lat="44.32644" lon="5.18826">
        <ele>755.9</ele>
        <time>2022-07-19T08:16:15Z</time>
      </trkpt>
      <trkpt lat="44.32642" lon="5.18825">
        <ele>756.1</ele>
        <time>2022-07-19T08:16:16Z</time>
      </trkpt>
      <trkpt lat="44.32641" lon="5.18823">
        <ele>756.2</ele>
        <time>2022-07-19T08:16:17Z</time>
      </trkpt>
      <trkpt lat="44.32641" lon="5.18821">
        <ele>756.4</ele>
        <time>2022-07-19T08:16:18Z</time>
      </trkpt>
      <trkpt lat="44.32639" lon="5.1882">
        <ele>756.5</ele>
        <time>2022-07-19T08:16:19Z</time>
      </trkpt>
      <trkpt lat="44.32638" lon="5.18818">
        <ele>756.7</ele>
        <time>2022-07-19T08:16:20Z</time>
      </trkpt>
      <trkpt lat="44.32637" lon="5.18817">
        <ele>756.9</ele>
        <time>2022-07-19T08:16:21Z</time>
      </trkpt>
      <trkpt lat="44.32636" lon="5.18816">
        <ele>757.1</ele>
        <time>2022-07-19T08:16:22Z</time>
      </trkpt>
      <trkpt lat="44.32635" lon="5.18815">
        <ele>757.2</ele>
        <time>2022-07-19T08:16:23Z</time>
      </trkpt>
      <trkpt lat="44.32633" lon="5.18814">
        <ele>757.4</ele>
        <time>2022-07-19T08:16:24Z</time>
      </trkpt>
      <trkpt lat="44.32632" lon="5.18813">
        <ele>757.6</ele>
        <time>2022-07-19T08:16:25Z</time>
      </trkpt>
      <trkpt lat="44.3263" lon="5.18812">
        <ele>757.8</ele>
        <time>2022-07-19T08:16:26Z</time>
      </trkpt>
      <trkpt lat="44.32628" lon="5.18811">
        <ele>758.1</ele>
        <time>2022-07-19T08:16:27Z</time>
      </trkpt>
      <trkpt lat="44.32627" lon="5.18809">
        <ele>758.3</ele>
        <time>2022-07-19T08:16:28Z</time>
      </trkpt>
      <trkpt lat="44.32626" lon="5.18808">
        <ele>758.6</ele>
        <time>2022-07-19T08:16:29Z</time>
      </trkpt>
      <trkpt lat="44.32624" lon="5.18807">
        <ele>758.8</ele>
        <time>2022-07-19T08:16:30Z</time>
      </trkpt>
      <trkpt lat="44.32622" lon="5.18806">
        <ele>759.1</ele>
        <time>2022-07-19T08:16:31Z</time>
      </trkpt>
      <trkpt lat="44.32622" lon="5.18805">
        <ele>759.2</ele>
        <time>2022-07-19T08:16:32Z</time>
      </trkpt>
      <trkpt lat="44.32621" lon="5.18805">
        <ele>759.3</ele>
        <time>2022-07-19T08:16:33Z</time>
      </trkpt>
      <trkpt lat="44.3262" lon="5.18804">
        <ele>759.5</ele>
        <time>2022-07-19T08:16:34Z</time>
      </trkpt>
      <trkpt lat="44.32619" lon="5.18803">
        <ele>759.6</ele>
        <time>2022-07-19T08:16:35Z</time>
      </trkpt>
      <trkpt lat="44.32618" lon="5.18803">
        <ele>759.8</ele>
        <time>2022-07-19T08:16:36Z</time>
      </trkpt>
      <trkpt lat="44.32617" lon="5.18802">
        <ele>759.9</ele>
        <time>2022-07-19T08:16:37Z</time>
      </trkpt>
      <trkpt lat="44.32616" lon="5.18801">
        <ele>760.1</ele>
        <time>2022-07-19T08:16:38Z</time>
      </trkpt>
      <trkpt lat="44.32615" lon="5.18801">
        <ele>760.2</ele>
        <time>2022-07-19T08:16:39Z</time>
      </trkpt>
      <trkpt lat="44.32615" lon="5.18799">
        <ele>760.4</ele>
        <time>2022-07-19T08:16:40Z</time>
      </trkpt>
      <trkpt lat="44.32614" lon="5.18798">
        <ele>760.6</ele>
        <time>2022-07-19T08:16:41Z</time>
      </trkpt>
      <trkpt lat="44.32613" lon="5.18797">
        <ele>760.7</ele>
        <time>2022-07-19T08:16:42Z</time>
      </trkpt>
      <trkpt lat="44.32612" lon="5.18796">
        <ele>760.9</ele>
        <time>2022-07-19T08:16:43Z</time>
      </trkpt>
      <trkpt lat="44.32611" lon="5.18795">
        <ele>761.2</ele>
        <time>2022-07-19T08:16:44Z</time>
      </trkpt>
      <trkpt lat="44.3261" lon="5.18793">
        <ele>761.5</ele>
        <time>2022-07-19T08:16:45Z</time>
      </trkpt>
      <trkpt lat="44.32609" lon="5.18792">
        <ele>761.7</ele>
        <time>2022-07-19T08:16:46Z</time>
      </trkpt>
      <trkpt lat="44.32608" lon="5.18792">
        <ele>761.8</ele>
        <time>2022-07-19T08:16:47Z</time>
      </trkpt>
      <trkpt lat="44.32608" lon="5.1879">
        <ele>761.9</ele>
        <time>2022-07-19T08:16:48Z</time>
      </trkpt>
      <trkpt lat="44.32608" lon="5.18789">
        <ele>762.1</ele>
        <time>2022-07-19T08:16:49Z</time>
      </trkpt>
      <trkpt lat="44.32607" lon="5.18788">
        <ele>762.3</ele>
        <time>2022-07-19T08:16:50Z</time>
      </trkpt>
      <trkpt lat="44.32606" lon="5.18787">
        <ele>762.6</ele>
        <time>2022-07-19T08:16:51Z</time>
      </trkpt>
      <trkpt lat="44.32604" lon="5.18786">
        <ele>762.9</ele>
        <time>2022-07-19T08:16:52Z</time>
      </trkpt>
      <trkpt lat="44.32603" lon="5.18785">
        <ele>763.1</ele>
        <time>2022-07-19T08:16:53Z</time>
      </trkpt>
      <trkpt lat="44.32603" lon="5.18784">
        <ele>763.3</ele>
        <time>2022-07-19T08:16:54Z</time>
      </trkpt>
      <trkpt lat="44.32602" lon="5.18783">
        <ele>763.4</ele>
        <time>2022-07-19T08:16:55Z</time>
      </trkpt>
      <trkpt lat="44.32601" lon="5.18782">
        <ele>763.6</ele>
        <time>2022-07-19T08:16:56Z</time>
      </trkpt>
      <trkpt lat="44.32601" lon="5.18781">
        <ele>763.8</ele>
        <time>2022-07-19T08:16:57Z</time>
      </trkpt>
      <trkpt lat="44.326" lon="5.1878">
        <ele>764</ele>
        <time>2022-07-19T08:16:58Z</time>
      </trkpt>
      <trkpt lat="44.32599" lon="5.18779">
        <ele>764.2</ele>
        <time>2022-07-19T08:16:59Z</time>
      </trkpt>
      <trkpt lat="44.32599" lon="5.18778">
        <ele>764.4</ele>
        <time>2022-07-19T08:17:00Z</time>
      </trkpt>
      <trkpt lat="44.32598" lon="5.18776">
        <ele>764.7</ele>
        <time>2022-07-19T08:17:01Z</time>
      </trkpt>
      <trkpt lat="44.32597" lon="5.18775">
        <ele>764.9</ele>
        <time>2022-07-19T08:17:02Z</time>
      </trkpt>
      <trkpt lat="44.32595" lon="5.18774">
        <ele>765.3</ele>
        <time>2022-07-19T08:17:03Z</time>
      </trkpt>
      <trkpt lat="44.32594" lon="5.18773">
        <ele>765.5</ele>
        <time>2022-07-19T08:17:04Z</time>
      </trkpt>
      <trkpt lat="44.32594" lon="5.18772">
        <ele>765.7</ele>
        <time>2022-07-19T08:17:05Z</time>
      </trkpt>
      <trkpt lat="44.32592" lon="5.18771">
        <ele>765.9</ele>
        <time>2022-07-19T08:17:06Z</time>
      </trkpt>
      <trkpt lat="44.32591" lon="5.1877">
        <ele>766.2</ele>
        <time>2022-07-19T08:17:07Z</time>
      </trkpt>
      <trkpt lat="44.32589" lon="5.1877">
        <ele>766.6</ele>
        <time>2022-07-19T08:17:08Z</time>
      </trkpt>
      <trkpt lat="44.32588" lon="5.18769">
        <ele>766.9</ele>
        <time>2022-07-19T08:17:09Z</time>
      </trkpt>
      <trkpt lat="44.32587" lon="5.18768">
        <ele>767.2</ele>
        <time>2022-07-19T08:17:10Z</time>
      </trkpt>
      <trkpt lat="44.32585" lon="5.18767">
        <ele>767.6</ele>
        <time>2022-07-19T08:17:11Z</time>
      </trkpt>
      <trkpt lat="44.32584" lon="5.18766">
        <ele>767.7</ele>
        <time>2022-07-19T08:17:12Z</time>
      </trkpt>
      <trkpt lat="44.32583" lon="5.18766">
        <ele>767.9</ele>
        <time>2022-07-19T08:17:13Z</time>
      </trkpt>
      <trkpt lat="44.32582" lon="5.18764">
        <ele>768.2</ele>
        <time>2022-07-19T08:17:14Z</time>
      </trkpt>
      <trkpt lat="44.32582" lon="5.18763">
        <ele>768.3</ele>
        <time>2022-07-19T08:17:15Z</time>
      </trkpt>
      <trkpt lat="44.32582" lon="5.18762">
        <ele>768.5</ele>
        <time>2022-07-19T08:17:16Z</time>
      </trkpt>
      <trkpt lat="44.32581" lon="5.18761">
        <ele>768.6</ele>
        <time>2022-07-19T08:17:17Z</time>
      </trkpt>
      <trkpt lat="44.3258" lon="5.18759">
        <ele>769</ele>
        <time>2022-07-19T08:17:18Z</time>
      </trkpt>
      <trkpt lat="44.32579" lon="5.18758">
        <ele>769.2</ele>
        <time>2022-07-19T08:17:19Z</time>
      </trkpt>
      <trkpt lat="44.32579" lon="5.18757">
        <ele>769.4</ele>
        <time>2022-07-19T08:17:20Z</time>
      </trkpt>
      <trkpt lat="44.32578" lon="5.18756">
        <ele>769.6</ele>
        <time>2022-07-19T08:17:21Z</time>
      </trkpt>
      <trkpt lat="44.32578" lon="5.18755">
        <ele>769.7</ele>
        <time>2022-07-19T08:17:22Z</time>
      </trkpt>
      <trkpt lat="44.32577" lon="5.18754">
        <ele>769.9</ele>
        <time>2022-07-19T08:17:23Z</time>
      </trkpt>
      <trkpt lat="44.32576" lon="5.18753">
        <ele>770.1</ele>
        <time>2022-07-19T08:17:24Z</time>
      </trkpt>
      <trkpt lat="44.32576" lon="5.18753">
        <ele>770.2</ele>
        <time>2022-07-19T08:17:25Z</time>
      </trkpt>
      <trkpt lat="44.32575" lon="5.18752">
        <ele>770.3</ele>
        <time>2022-07-19T08:17:26Z</time>
      </trkpt>
      <trkpt lat="44.32575" lon="5.18752">
        <ele>770.5</ele>
        <time>2022-07-19T08:17:27Z</time>
      </trkpt>
      <trkpt lat="44.32574" lon="5.18749">
        <ele>770.9</ele>
        <time>2022-07-19T08:17:28Z</time>
      </trkpt>
      <trkpt lat="44.32573" lon="5.18748">
        <ele>771</ele>
        <time>2022-07-19T08:17:29Z</time>
      </trkpt>
      <trkpt lat="44.32573" lon="5.18747">
        <ele>771.2</ele>
        <time>2022-07-19T08:17:30Z</time>
      </trkpt>
      <trkpt lat="44.32572" lon="5.18746">
        <ele>771.5</ele>
        <time>2022-07-19T08:17:31Z</time>
      </trkpt>
      <trkpt lat="44.32571" lon="5.18744">
        <ele>771.7</ele>
        <time>2022-07-19T08:17:32Z</time>
      </trkpt>
      <trkpt lat="44.3257" lon="5.18743">
        <ele>771.9</ele>
        <time>2022-07-19T08:17:33Z</time>
      </trkpt>
      <trkpt lat="44.3257" lon="5.18741">
        <ele>772.2</ele>
        <time>2022-07-19T08:17:34Z</time>
      </trkpt>
      <trkpt lat="44.32569" lon="5.1874">
        <ele>772.4</ele>
        <time>2022-07-19T08:17:35Z</time>
      </trkpt>
      <trkpt lat="44.32569" lon="5.18738">
        <ele>772.7</ele>
        <time>2022-07-19T08:17:36Z</time>
      </trkpt>
      <trkpt lat="44.32568" lon="5.18736">
        <ele>773</ele>
        <time>2022-07-19T08:17:37Z</time>
      </trkpt>
      <trkpt lat="44.32568" lon="5.18734">
        <ele>773.2</ele>
        <time>2022-07-19T08:17:38Z</time>
      </trkpt>
      <trkpt lat="44.32568" lon="5.18732">
        <ele>773.5</ele>
        <time>2022-07-19T08:17:39Z</time>
      </trkpt>
      <trkpt lat="44.32567" lon="5.18731">
        <ele>773.7</ele>
        <time>2022-07-19T08:17:40Z</time>
      </trkpt>
      <trkpt lat="44.32567" lon="5.1873">
        <ele>773.9</ele>
        <time>2022-07-19T08:17:41Z</time>
      </trkpt>
      <trkpt lat="44.32567" lon="5.18728">
        <ele>774</ele>
        <time>2022-07-19T08:17:42Z</time>
      </trkpt>
      <trkpt lat="44.32567" lon="5.18727">
        <ele>774.2</ele>
        <time>2022-07-19T08:17:43Z</time>
      </trkpt>
      <trkpt lat="44.32567" lon="5.18726">
        <ele>774.4</ele>
        <time>2022-07-19T08:17:44Z</time>
      </trkpt>
      <trkpt lat="44.32566" lon="5.18724">
        <ele>774.6</ele>
        <time>2022-07-19T08:17:45Z</time>
      </trkpt>
      <trkpt lat="44.32565" lon="5.18722">
        <ele>775</ele>
        <time>2022-07-19T08:17:46Z</time>
      </trkpt>
      <trkpt lat="44.32564" lon="5.18721">
        <ele>775.1</ele>
        <time>2022-07-19T08:17:47Z</time>
      </trkpt>
      <trkpt lat="44.32564" lon="5.1872">
        <ele>775.3</ele>
        <time>2022-07-19T08:17:48Z</time>
      </trkpt>
      <trkpt lat="44.32563" lon="5.18718">
        <ele>775.6</ele>
        <time>2022-07-19T08:17:49Z</time>
      </trkpt>
      <trkpt lat="44.32562" lon="5.18717">
        <ele>775.7</ele>
        <time>2022-07-19T08:17:50Z</time>
      </trkpt>
      <trkpt lat="44.32562" lon="5.18716">
        <ele>775.9</ele>
        <time>2022-07-19T08:17:51Z</time>
      </trkpt>
      <trkpt lat="44.32561" lon="5.18713">
        <ele>776.2</ele>
        <time>2022-07-19T08:17:52Z</time>
      </trkpt>
      <trkpt lat="44.32561" lon="5.18712">
        <ele>776.3</ele>
        <time>2022-07-19T08:17:53Z</time>
      </trkpt>
      <trkpt lat="44.32561" lon="5.18711">
        <ele>776.4</ele>
        <time>2022-07-19T08:17:54Z</time>
      </trkpt>
      <trkpt lat="44.3256" lon="5.18709">
        <ele>776.6</ele>
        <time>2022-07-19T08:17:55Z</time>
      </trkpt>
      <trkpt lat="44.32559" lon="5.18707">
        <ele>776.8</ele>
        <time>2022-07-19T08:17:56Z</time>
      </trkpt>
      <trkpt lat="44.32558" lon="5.18704">
        <ele>777.1</ele>
        <time>2022-07-19T08:17:57Z</time>
      </trkpt>
      <trkpt lat="44.32557" lon="5.18703">
        <ele>777.1</ele>
        <time>2022-07-19T08:17:58Z</time>
      </trkpt>
      <trkpt lat="44.32556" lon="5.18699">
        <ele>777.3</ele>
        <time>2022-07-19T08:17:59Z</time>
      </trkpt>
      <trkpt lat="44.32556" lon="5.18698">
        <ele>777.4</ele>
        <time>2022-07-19T08:18:00Z</time>
      </trkpt>
      <trkpt lat="44.32554" lon="5.18694">
        <ele>777.5</ele>
        <time>2022-07-19T08:18:01Z</time>
      </trkpt>
      <trkpt lat="44.32554" lon="5.18693">
        <ele>777.6</ele>
        <time>2022-07-19T08:18:02Z</time>
      </trkpt>
      <trkpt lat="44.32552" lon="5.18689">
        <ele>777.6</ele>
        <time>2022-07-19T08:18:03Z</time>
      </trkpt>
      <trkpt lat="44.32552" lon="5.18688">
        <ele>777.7</ele>
        <time>2022-07-19T08:18:04Z</time>
      </trkpt>
      <trkpt lat="44.3255" lon="5.18684">
        <ele>777.7</ele>
        <time>2022-07-19T08:18:05Z</time>
      </trkpt>
      <trkpt lat="44.3255" lon="5.18683">
        <ele>777.7</ele>
        <time>2022-07-19T08:18:06Z</time>
      </trkpt>
      <trkpt lat="44.32548" lon="5.1868">
        <ele>777.7</ele>
        <time>2022-07-19T08:18:07Z</time>
      </trkpt>
      <trkpt lat="44.32548" lon="5.18679">
        <ele>777.7</ele>
        <time>2022-07-19T08:18:08Z</time>
      </trkpt>
      <trkpt lat="44.32545" lon="5.18676">
        <ele>777.7</ele>
        <time>2022-07-19T08:18:09Z</time>
      </trkpt>
      <trkpt lat="44.32544" lon="5.18675">
        <ele>777.7</ele>
        <time>2022-07-19T08:18:10Z</time>
      </trkpt>
      <trkpt lat="44.32541" lon="5.18672">
        <ele>777.6</ele>
        <time>2022-07-19T08:18:11Z</time>
      </trkpt>
      <trkpt lat="44.32539" lon="5.18671">
        <ele>777.6</ele>
        <time>2022-07-19T08:18:12Z</time>
      </trkpt>
      <trkpt lat="44.32536" lon="5.18668">
        <ele>777.5</ele>
        <time>2022-07-19T08:18:13Z</time>
      </trkpt>
      <trkpt lat="44.32536" lon="5.18667">
        <ele>777.5</ele>
        <time>2022-07-19T08:18:14Z</time>
      </trkpt>
      <trkpt lat="44.32534" lon="5.18666">
        <ele>777.4</ele>
        <time>2022-07-19T08:18:15Z</time>
      </trkpt>
      <trkpt lat="44.32533" lon="5.18665">
        <ele>777.4</ele>
        <time>2022-07-19T08:18:16Z</time>
      </trkpt>
      <trkpt lat="44.32532" lon="5.18665">
        <ele>777.4</ele>
        <time>2022-07-19T08:18:17Z</time>
      </trkpt>
      <trkpt lat="44.32532" lon="5.18665">
        <ele>777.3</ele>
        <time>2022-07-19T08:18:18Z</time>
      </trkpt>
      <trkpt lat="44.32531" lon="5.18664">
        <ele>777.3</ele>
        <time>2022-07-19T08:18:19Z</time>
      </trkpt>
      <trkpt lat="44.3253" lon="5.18664">
        <ele>777.3</ele>
        <time>2022-07-19T08:18:20Z</time>
      </trkpt>
      <trkpt lat="44.32529" lon="5.18663">
        <ele>777.3</ele>
        <time>2022-07-19T08:18:21Z</time>
      </trkpt>
      <trkpt lat="44.32529" lon="5.18663">
        <ele>777.2</ele>
        <time>2022-07-19T08:18:22Z</time>
      </trkpt>
      <trkpt lat="44.32528" lon="5.18662">
        <ele>777.2</ele>
        <time>2022-07-19T08:18:23Z</time>
      </trkpt>
      <trkpt lat="44.32527" lon="5.18662">
        <ele>777.2</ele>
        <time>2022-07-19T08:18:24Z</time>
      </trkpt>
      <trkpt lat="44.32527" lon="5.18662">
        <ele>777.2</ele>
        <time>2022-07-19T08:18:25Z</time>
      </trkpt>
      <trkpt lat="44.32526" lon="5.18661">
        <ele>777.1</ele>
        <time>2022-07-19T08:19:11Z</time>
      </trkpt>
      <trkpt lat="44.32525" lon="5.18661">
        <ele>777.1</ele>
        <time>2022-07-19T08:19:12Z</time>
      </trkpt>
      <trkpt lat="44.32523" lon="5.18657">
        <ele>777</ele>
        <time>2022-07-19T08:19:13Z</time>
      </trkpt>
      <trkpt lat="44.32522" lon="5.18655">
        <ele>776.9</ele>
        <time>2022-07-19T08:19:14Z</time>
      </trkpt>
      <trkpt lat="44.3252" lon="5.18653">
        <ele>776.8</ele>
        <time>2022-07-19T08:19:15Z</time>
      </trkpt>
      <trkpt lat="44.32518" lon="5.1865">
        <ele>776.7</ele>
        <time>2022-07-19T08:19:16Z</time>
      </trkpt>
      <trkpt lat="44.32516" lon="5.18647">
        <ele>776.6</ele>
        <time>2022-07-19T08:19:17Z</time>
      </trkpt>
      <trkpt lat="44.32514" lon="5.18645">
        <ele>776.6</ele>
        <time>2022-07-19T08:19:18Z</time>
      </trkpt>
      <trkpt lat="44.32511" lon="5.18641">
        <ele>776.4</ele>
        <time>2022-07-19T08:19:19Z</time>
      </trkpt>
      <trkpt lat="44.3251" lon="5.18639">
        <ele>776.4</ele>
        <time>2022-07-19T08:19:20Z</time>
      </trkpt>
      <trkpt lat="44.32507" lon="5.18636">
        <ele>776.3</ele>
        <time>2022-07-19T08:19:21Z</time>
      </trkpt>
      <trkpt lat="44.32506" lon="5.18635">
        <ele>776.3</ele>
        <time>2022-07-19T08:19:22Z</time>
      </trkpt>
      <trkpt lat="44.32503" lon="5.18633">
        <ele>776.2</ele>
        <time>2022-07-19T08:19:23Z</time>
      </trkpt>
      <trkpt lat="44.32501" lon="5.18631">
        <ele>776.1</ele>
        <time>2022-07-19T08:19:24Z</time>
      </trkpt>
      <trkpt lat="44.32499" lon="5.18628">
        <ele>776</ele>
        <time>2022-07-19T08:19:25Z</time>
      </trkpt>
      <trkpt lat="44.32498" lon="5.18627">
        <ele>776</ele>
        <time>2022-07-19T08:19:26Z</time>
      </trkpt>
      <trkpt lat="44.32496" lon="5.18623">
        <ele>776</ele>
        <time>2022-07-19T08:19:27Z</time>
      </trkpt>
      <trkpt lat="44.32495" lon="5.18622">
        <ele>776</ele>
        <time>2022-07-19T08:19:28Z</time>
      </trkpt>
      <trkpt lat="44.32493" lon="5.18619">
        <ele>775.9</ele>
        <time>2022-07-19T08:19:29Z</time>
      </trkpt>
      <trkpt lat="44.32492" lon="5.18618">
        <ele>775.9</ele>
        <time>2022-07-19T08:19:30Z</time>
      </trkpt>
      <trkpt lat="44.32489" lon="5.18614">
        <ele>775.9</ele>
        <time>2022-07-19T08:19:31Z</time>
      </trkpt>
      <trkpt lat="44.32488" lon="5.18613">
        <ele>775.9</ele>
        <time>2022-07-19T08:19:32Z</time>
      </trkpt>
      <trkpt lat="44.32486" lon="5.18611">
        <ele>775.9</ele>
        <time>2022-07-19T08:19:33Z</time>
      </trkpt>
      <trkpt lat="44.32484" lon="5.18607">
        <ele>775.9</ele>
        <time>2022-07-19T08:19:34Z</time>
      </trkpt>
      <trkpt lat="44.32483" lon="5.18605">
        <ele>775.9</ele>
        <time>2022-07-19T08:19:35Z</time>
      </trkpt>
      <trkpt lat="44.3248" lon="5.18601">
        <ele>776</ele>
        <time>2022-07-19T08:19:36Z</time>
      </trkpt>
      <trkpt lat="44.3248" lon="5.186">
        <ele>776</ele>
        <time>2022-07-19T08:19:37Z</time>
      </trkpt>
      <trkpt lat="44.32477" lon="5.18597">
        <ele>776.1</ele>
        <time>2022-07-19T08:19:38Z</time>
      </trkpt>
      <trkpt lat="44.32477" lon="5.18596">
        <ele>776.1</ele>
        <time>2022-07-19T08:19:39Z</time>
      </trkpt>
      <trkpt lat="44.32475" lon="5.18592">
        <ele>776.2</ele>
        <time>2022-07-19T08:19:40Z</time>
      </trkpt>
      <trkpt lat="44.32474" lon="5.18591">
        <ele>776.2</ele>
        <time>2022-07-19T08:19:41Z</time>
      </trkpt>
      <trkpt lat="44.32473" lon="5.18589">
        <ele>776.3</ele>
        <time>2022-07-19T08:19:42Z</time>
      </trkpt>
      <trkpt lat="44.32472" lon="5.18587">
        <ele>776.4</ele>
        <time>2022-07-19T08:19:43Z</time>
      </trkpt>
      <trkpt lat="44.32472" lon="5.18585">
        <ele>776.4</ele>
        <time>2022-07-19T08:19:44Z</time>
      </trkpt>
      <trkpt lat="44.32472" lon="5.18584">
        <ele>776.5</ele>
        <time>2022-07-19T08:19:45Z</time>
      </trkpt>
      <trkpt lat="44.32472" lon="5.18582">
        <ele>776.6</ele>
        <time>2022-07-19T08:19:46Z</time>
      </trkpt>
      <trkpt lat="44.32472" lon="5.1858">
        <ele>776.6</ele>
        <time>2022-07-19T08:19:47Z</time>
      </trkpt>
      <trkpt lat="44.32471" lon="5.18577">
        <ele>776.8</ele>
        <time>2022-07-19T08:19:48Z</time>
      </trkpt>
      <trkpt lat="44.3247" lon="5.18577">
        <ele>776.8</ele>
        <time>2022-07-19T08:19:49Z</time>
      </trkpt>
      <trkpt lat="44.32469" lon="5.18576">
        <ele>776.9</ele>
        <time>2022-07-19T08:19:50Z</time>
      </trkpt>
      <trkpt lat="44.32468" lon="5.18574">
        <ele>777</ele>
        <time>2022-07-19T08:19:51Z</time>
      </trkpt>
      <trkpt lat="44.32467" lon="5.18572">
        <ele>777.1</ele>
        <time>2022-07-19T08:19:52Z</time>
      </trkpt>
      <trkpt lat="44.32467" lon="5.1857">
        <ele>777.2</ele>
        <time>2022-07-19T08:19:53Z</time>
      </trkpt>
      <trkpt lat="44.32466" lon="5.18567">
        <ele>777.4</ele>
        <time>2022-07-19T08:19:54Z</time>
      </trkpt>
      <trkpt lat="44.32464" lon="5.18564">
        <ele>777.6</ele>
        <time>2022-07-19T08:19:55Z</time>
      </trkpt>
      <trkpt lat="44.32463" lon="5.18563">
        <ele>777.7</ele>
        <time>2022-07-19T08:19:56Z</time>
      </trkpt>
      <trkpt lat="44.32462" lon="5.18559">
        <ele>777.9</ele>
        <time>2022-07-19T08:19:57Z</time>
      </trkpt>
      <trkpt lat="44.32461" lon="5.18558">
        <ele>778</ele>
        <time>2022-07-19T08:19:58Z</time>
      </trkpt>
      <trkpt lat="44.32461" lon="5.18556">
        <ele>778.2</ele>
        <time>2022-07-19T08:19:59Z</time>
      </trkpt>
      <trkpt lat="44.3246" lon="5.18554">
        <ele>778.3</ele>
        <time>2022-07-19T08:20:00Z</time>
      </trkpt>
      <trkpt lat="44.3246" lon="5.18552">
        <ele>778.4</ele>
        <time>2022-07-19T08:20:01Z</time>
      </trkpt>
      <trkpt lat="44.32459" lon="5.1855">
        <ele>778.6</ele>
        <time>2022-07-19T08:20:02Z</time>
      </trkpt>
      <trkpt lat="44.32458" lon="5.18548">
        <ele>778.8</ele>
        <time>2022-07-19T08:20:03Z</time>
      </trkpt>
      <trkpt lat="44.32457" lon="5.18547">
        <ele>778.9</ele>
        <time>2022-07-19T08:20:04Z</time>
      </trkpt>
      <trkpt lat="44.32456" lon="5.18545">
        <ele>779.1</ele>
        <time>2022-07-19T08:20:05Z</time>
      </trkpt>
      <trkpt lat="44.32454" lon="5.18544">
        <ele>779.3</ele>
        <time>2022-07-19T08:20:06Z</time>
      </trkpt>
      <trkpt lat="44.32453" lon="5.18542">
        <ele>779.5</ele>
        <time>2022-07-19T08:20:07Z</time>
      </trkpt>
      <trkpt lat="44.32452" lon="5.1854">
        <ele>779.7</ele>
        <time>2022-07-19T08:20:08Z</time>
      </trkpt>
      <trkpt lat="44.3245" lon="5.18538">
        <ele>780</ele>
        <time>2022-07-19T08:20:09Z</time>
      </trkpt>
      <trkpt lat="44.32449" lon="5.18537">
        <ele>780.1</ele>
        <time>2022-07-19T08:20:10Z</time>
      </trkpt>
      <trkpt lat="44.32448" lon="5.18535">
        <ele>780.3</ele>
        <time>2022-07-19T08:20:11Z</time>
      </trkpt>
      <trkpt lat="44.32447" lon="5.18534">
        <ele>780.4</ele>
        <time>2022-07-19T08:20:12Z</time>
      </trkpt>
      <trkpt lat="44.32445" lon="5.18533">
        <ele>780.6</ele>
        <time>2022-07-19T08:20:13Z</time>
      </trkpt>
      <trkpt lat="44.32444" lon="5.18531">
        <ele>780.8</ele>
        <time>2022-07-19T08:20:14Z</time>
      </trkpt>
      <trkpt lat="44.32443" lon="5.18528">
        <ele>781</ele>
        <time>2022-07-19T08:20:15Z</time>
      </trkpt>
      <trkpt lat="44.32443" lon="5.18527">
        <ele>781.1</ele>
        <time>2022-07-19T08:20:16Z</time>
      </trkpt>
      <trkpt lat="44.32443" lon="5.18526">
        <ele>781.2</ele>
        <time>2022-07-19T08:20:17Z</time>
      </trkpt>
      <trkpt lat="44.32442" lon="5.18524">
        <ele>781.3</ele>
        <time>2022-07-19T08:20:18Z</time>
      </trkpt>
      <trkpt lat="44.32441" lon="5.18523">
        <ele>781.5</ele>
        <time>2022-07-19T08:20:19Z</time>
      </trkpt>
      <trkpt lat="44.3244" lon="5.18521">
        <ele>781.7</ele>
        <time>2022-07-19T08:20:20Z</time>
      </trkpt>
      <trkpt lat="44.3244" lon="5.18519">
        <ele>781.7</ele>
        <time>2022-07-19T08:20:21Z</time>
      </trkpt>
      <trkpt lat="44.32439" lon="5.18517">
        <ele>781.8</ele>
        <time>2022-07-19T08:20:22Z</time>
      </trkpt>
      <trkpt lat="44.32438" lon="5.18515">
        <ele>782</ele>
        <time>2022-07-19T08:20:23Z</time>
      </trkpt>
      <trkpt lat="44.32438" lon="5.18513">
        <ele>782.1</ele>
        <time>2022-07-19T08:20:24Z</time>
      </trkpt>
      <trkpt lat="44.32437" lon="5.18511">
        <ele>782.2</ele>
        <time>2022-07-19T08:20:25Z</time>
      </trkpt>
      <trkpt lat="44.32436" lon="5.18509">
        <ele>782.3</ele>
        <time>2022-07-19T08:20:26Z</time>
      </trkpt>
      <trkpt lat="44.32435" lon="5.18507">
        <ele>782.4</ele>
        <time>2022-07-19T08:20:27Z</time>
      </trkpt>
      <trkpt lat="44.32434" lon="5.18505">
        <ele>782.5</ele>
        <time>2022-07-19T08:20:28Z</time>
      </trkpt>
      <trkpt lat="44.32434" lon="5.18503">
        <ele>782.7</ele>
        <time>2022-07-19T08:20:29Z</time>
      </trkpt>
      <trkpt lat="44.32433" lon="5.18501">
        <ele>782.8</ele>
        <time>2022-07-19T08:20:30Z</time>
      </trkpt>
      <trkpt lat="44.32432" lon="5.18499">
        <ele>782.9</ele>
        <time>2022-07-19T08:20:31Z</time>
      </trkpt>
      <trkpt lat="44.32431" lon="5.18497">
        <ele>783</ele>
        <time>2022-07-19T08:20:32Z</time>
      </trkpt>
      <trkpt lat="44.32431" lon="5.18495">
        <ele>783.1</ele>
        <time>2022-07-19T08:20:33Z</time>
      </trkpt>
      <trkpt lat="44.3243" lon="5.18493">
        <ele>783.3</ele>
        <time>2022-07-19T08:20:34Z</time>
      </trkpt>
      <trkpt lat="44.32429" lon="5.18491">
        <ele>783.4</ele>
        <time>2022-07-19T08:20:35Z</time>
      </trkpt>
      <trkpt lat="44.32429" lon="5.18489">
        <ele>783.5</ele>
        <time>2022-07-19T08:20:36Z</time>
      </trkpt>
      <trkpt lat="44.32428" lon="5.18488">
        <ele>783.6</ele>
        <time>2022-07-19T08:20:37Z</time>
      </trkpt>
      <trkpt lat="44.32427" lon="5.18486">
        <ele>783.7</ele>
        <time>2022-07-19T08:20:38Z</time>
      </trkpt>
      <trkpt lat="44.32426" lon="5.18484">
        <ele>783.8</ele>
        <time>2022-07-19T08:20:39Z</time>
      </trkpt>
      <trkpt lat="44.32425" lon="5.18482">
        <ele>783.9</ele>
        <time>2022-07-19T08:20:40Z</time>
      </trkpt>
      <trkpt lat="44.32425" lon="5.1848">
        <ele>784</ele>
        <time>2022-07-19T08:20:41Z</time>
      </trkpt>
      <trkpt lat="44.32424" lon="5.18479">
        <ele>784.1</ele>
        <time>2022-07-19T08:20:42Z</time>
      </trkpt>
      <trkpt lat="44.32423" lon="5.18477">
        <ele>784.2</ele>
        <time>2022-07-19T08:20:43Z</time>
      </trkpt>
      <trkpt lat="44.32422" lon="5.18475">
        <ele>784.3</ele>
        <time>2022-07-19T08:20:44Z</time>
      </trkpt>
      <trkpt lat="44.32421" lon="5.18473">
        <ele>784.5</ele>
        <time>2022-07-19T08:20:45Z</time>
      </trkpt>
      <trkpt lat="44.3242" lon="5.1847">
        <ele>784.6</ele>
        <time>2022-07-19T08:20:46Z</time>
      </trkpt>
      <trkpt lat="44.32419" lon="5.18469">
        <ele>784.7</ele>
        <time>2022-07-19T08:20:47Z</time>
      </trkpt>
      <trkpt lat="44.32419" lon="5.18467">
        <ele>784.8</ele>
        <time>2022-07-19T08:20:48Z</time>
      </trkpt>
      <trkpt lat="44.32418" lon="5.18465">
        <ele>784.9</ele>
        <time>2022-07-19T08:20:49Z</time>
      </trkpt>
      <trkpt lat="44.32417" lon="5.18461">
        <ele>785.1</ele>
        <time>2022-07-19T08:20:50Z</time>
      </trkpt>
      <trkpt lat="44.32417" lon="5.1846">
        <ele>785.2</ele>
        <time>2022-07-19T08:20:51Z</time>
      </trkpt>
      <trkpt lat="44.32416" lon="5.18458">
        <ele>785.3</ele>
        <time>2022-07-19T08:20:52Z</time>
      </trkpt>
      <trkpt lat="44.32416" lon="5.18456">
        <ele>785.4</ele>
        <time>2022-07-19T08:20:53Z</time>
      </trkpt>
      <trkpt lat="44.32415" lon="5.18454">
        <ele>785.5</ele>
        <time>2022-07-19T08:20:54Z</time>
      </trkpt>
      <trkpt lat="44.32415" lon="5.18452">
        <ele>785.7</ele>
        <time>2022-07-19T08:20:55Z</time>
      </trkpt>
      <trkpt lat="44.32414" lon="5.1845">
        <ele>785.8</ele>
        <time>2022-07-19T08:20:56Z</time>
      </trkpt>
      <trkpt lat="44.32413" lon="5.18448">
        <ele>785.9</ele>
        <time>2022-07-19T08:20:57Z</time>
      </trkpt>
      <trkpt lat="44.32413" lon="5.18447">
        <ele>786</ele>
        <time>2022-07-19T08:20:58Z</time>
      </trkpt>
      <trkpt lat="44.32412" lon="5.18445">
        <ele>786.2</ele>
        <time>2022-07-19T08:20:59Z</time>
      </trkpt>
      <trkpt lat="44.32411" lon="5.18442">
        <ele>786.3</ele>
        <time>2022-07-19T08:21:00Z</time>
      </trkpt>
      <trkpt lat="44.3241" lon="5.18441">
        <ele>786.4</ele>
        <time>2022-07-19T08:21:01Z</time>
      </trkpt>
      <trkpt lat="44.3241" lon="5.1844">
        <ele>786.5</ele>
        <time>2022-07-19T08:21:02Z</time>
      </trkpt>
      <trkpt lat="44.32409" lon="5.18438">
        <ele>786.7</ele>
        <time>2022-07-19T08:21:03Z</time>
      </trkpt>
      <trkpt lat="44.32409" lon="5.18436">
        <ele>786.8</ele>
        <time>2022-07-19T08:21:04Z</time>
      </trkpt>
      <trkpt lat="44.32408" lon="5.18435">
        <ele>787</ele>
        <time>2022-07-19T08:21:05Z</time>
      </trkpt>
      <trkpt lat="44.32408" lon="5.18433">
        <ele>787.2</ele>
        <time>2022-07-19T08:21:06Z</time>
      </trkpt>
      <trkpt lat="44.32407" lon="5.18431">
        <ele>787.4</ele>
        <time>2022-07-19T08:21:07Z</time>
      </trkpt>
      <trkpt lat="44.32406" lon="5.18429">
        <ele>787.6</ele>
        <time>2022-07-19T08:21:08Z</time>
      </trkpt>
      <trkpt lat="44.32405" lon="5.18427">
        <ele>787.8</ele>
        <time>2022-07-19T08:21:09Z</time>
      </trkpt>
      <trkpt lat="44.32404" lon="5.18425">
        <ele>788</ele>
        <time>2022-07-19T08:21:10Z</time>
      </trkpt>
      <trkpt lat="44.32404" lon="5.18424">
        <ele>788.2</ele>
        <time>2022-07-19T08:21:11Z</time>
      </trkpt>
      <trkpt lat="44.32403" lon="5.18422">
        <ele>788.4</ele>
        <time>2022-07-19T08:21:12Z</time>
      </trkpt>
      <trkpt lat="44.32403" lon="5.18421">
        <ele>788.5</ele>
        <time>2022-07-19T08:21:13Z</time>
      </trkpt>
      <trkpt lat="44.32402" lon="5.1842">
        <ele>788.7</ele>
        <time>2022-07-19T08:21:14Z</time>
      </trkpt>
      <trkpt lat="44.32401" lon="5.18418">
        <ele>789</ele>
        <time>2022-07-19T08:21:15Z</time>
      </trkpt>
      <trkpt lat="44.324" lon="5.18416">
        <ele>789.2</ele>
        <time>2022-07-19T08:21:16Z</time>
      </trkpt>
      <trkpt lat="44.324" lon="5.18414">
        <ele>789.5</ele>
        <time>2022-07-19T08:21:17Z</time>
      </trkpt>
      <trkpt lat="44.32399" lon="5.18412">
        <ele>789.8</ele>
        <time>2022-07-19T08:21:18Z</time>
      </trkpt>
      <trkpt lat="44.32398" lon="5.18411">
        <ele>790</ele>
        <time>2022-07-19T08:21:19Z</time>
      </trkpt>
      <trkpt lat="44.32398" lon="5.1841">
        <ele>790.1</ele>
        <time>2022-07-19T08:21:20Z</time>
      </trkpt>
      <trkpt lat="44.32397" lon="5.18408">
        <ele>790.4</ele>
        <time>2022-07-19T08:21:21Z</time>
      </trkpt>
      <trkpt lat="44.32397" lon="5.18406">
        <ele>790.7</ele>
        <time>2022-07-19T08:21:22Z</time>
      </trkpt>
      <trkpt lat="44.32396" lon="5.18404">
        <ele>790.9</ele>
        <time>2022-07-19T08:21:23Z</time>
      </trkpt>
      <trkpt lat="44.32395" lon="5.18402">
        <ele>791.3</ele>
        <time>2022-07-19T08:21:24Z</time>
      </trkpt>
      <trkpt lat="44.32394" lon="5.184">
        <ele>791.6</ele>
        <time>2022-07-19T08:21:25Z</time>
      </trkpt>
      <trkpt lat="44.32393" lon="5.18398">
        <ele>791.9</ele>
        <time>2022-07-19T08:21:26Z</time>
      </trkpt>
      <trkpt lat="44.32392" lon="5.18396">
        <ele>792.2</ele>
        <time>2022-07-19T08:21:27Z</time>
      </trkpt>
      <trkpt lat="44.32392" lon="5.18394">
        <ele>792.5</ele>
        <time>2022-07-19T08:21:28Z</time>
      </trkpt>
      <trkpt lat="44.3239" lon="5.18392">
        <ele>792.9</ele>
        <time>2022-07-19T08:21:29Z</time>
      </trkpt>
      <trkpt lat="44.3239" lon="5.1839">
        <ele>793.1</ele>
        <time>2022-07-19T08:21:30Z</time>
      </trkpt>
      <trkpt lat="44.3239" lon="5.18389">
        <ele>793.2</ele>
        <time>2022-07-19T08:21:31Z</time>
      </trkpt>
      <trkpt lat="44.32389" lon="5.18387">
        <ele>793.5</ele>
        <time>2022-07-19T08:21:32Z</time>
      </trkpt>
      <trkpt lat="44.32388" lon="5.18386">
        <ele>793.8</ele>
        <time>2022-07-19T08:21:33Z</time>
      </trkpt>
      <trkpt lat="44.32387" lon="5.18383">
        <ele>794.1</ele>
        <time>2022-07-19T08:21:34Z</time>
      </trkpt>
      <trkpt lat="44.32387" lon="5.18382">
        <ele>794.3</ele>
        <time>2022-07-19T08:21:35Z</time>
      </trkpt>
      <trkpt lat="44.32387" lon="5.18381">
        <ele>794.4</ele>
        <time>2022-07-19T08:21:36Z</time>
      </trkpt>
      <trkpt lat="44.32387" lon="5.18379">
        <ele>794.5</ele>
        <time>2022-07-19T08:21:37Z</time>
      </trkpt>
      <trkpt lat="44.32387" lon="5.18378">
        <ele>794.7</ele>
        <time>2022-07-19T08:21:38Z</time>
      </trkpt>
      <trkpt lat="44.32386" lon="5.18376">
        <ele>794.9</ele>
        <time>2022-07-19T08:21:39Z</time>
      </trkpt>
      <trkpt lat="44.32386" lon="5.18375">
        <ele>795.1</ele>
        <time>2022-07-19T08:21:40Z</time>
      </trkpt>
      <trkpt lat="44.32385" lon="5.18373">
        <ele>795.4</ele>
        <time>2022-07-19T08:21:41Z</time>
      </trkpt>
      <trkpt lat="44.32384" lon="5.18371">
        <ele>795.6</ele>
        <time>2022-07-19T08:21:42Z</time>
      </trkpt>
      <trkpt lat="44.32383" lon="5.18369">
        <ele>795.8</ele>
        <time>2022-07-19T08:21:43Z</time>
      </trkpt>
      <trkpt lat="44.32383" lon="5.18367">
        <ele>796</ele>
        <time>2022-07-19T08:21:44Z</time>
      </trkpt>
      <trkpt lat="44.32382" lon="5.18365">
        <ele>796.2</ele>
        <time>2022-07-19T08:21:45Z</time>
      </trkpt>
      <trkpt lat="44.32381" lon="5.18363">
        <ele>796.4</ele>
        <time>2022-07-19T08:21:46Z</time>
      </trkpt>
      <trkpt lat="44.32381" lon="5.18361">
        <ele>796.6</ele>
        <time>2022-07-19T08:21:47Z</time>
      </trkpt>
      <trkpt lat="44.3238" lon="5.18359">
        <ele>796.8</ele>
        <time>2022-07-19T08:21:48Z</time>
      </trkpt>
      <trkpt lat="44.32379" lon="5.18357">
        <ele>796.9</ele>
        <time>2022-07-19T08:21:49Z</time>
      </trkpt>
      <trkpt lat="44.32378" lon="5.18355">
        <ele>797.1</ele>
        <time>2022-07-19T08:21:50Z</time>
      </trkpt>
      <trkpt lat="44.32377" lon="5.18354">
        <ele>797.2</ele>
        <time>2022-07-19T08:21:51Z</time>
      </trkpt>
      <trkpt lat="44.32377" lon="5.18353">
        <ele>797.3</ele>
        <time>2022-07-19T08:21:52Z</time>
      </trkpt>
      <trkpt lat="44.32376" lon="5.18351">
        <ele>797.4</ele>
        <time>2022-07-19T08:21:53Z</time>
      </trkpt>
      <trkpt lat="44.32376" lon="5.18349">
        <ele>797.6</ele>
        <time>2022-07-19T08:21:54Z</time>
      </trkpt>
      <trkpt lat="44.32375" lon="5.18347">
        <ele>797.7</ele>
        <time>2022-07-19T08:21:55Z</time>
      </trkpt>
      <trkpt lat="44.32374" lon="5.18345">
        <ele>797.8</ele>
        <time>2022-07-19T08:21:56Z</time>
      </trkpt>
      <trkpt lat="44.32374" lon="5.18343">
        <ele>797.9</ele>
        <time>2022-07-19T08:21:57Z</time>
      </trkpt>
      <trkpt lat="44.32373" lon="5.18341">
        <ele>798</ele>
        <time>2022-07-19T08:21:58Z</time>
      </trkpt>
      <trkpt lat="44.32372" lon="5.18339">
        <ele>798.1</ele>
        <time>2022-07-19T08:21:59Z</time>
      </trkpt>
      <trkpt lat="44.32372" lon="5.18338">
        <ele>798.2</ele>
        <time>2022-07-19T08:22:00Z</time>
      </trkpt>
      <trkpt lat="44.32371" lon="5.18335">
        <ele>798.3</ele>
        <time>2022-07-19T08:22:01Z</time>
      </trkpt>
      <trkpt lat="44.3237" lon="5.18334">
        <ele>798.4</ele>
        <time>2022-07-19T08:22:02Z</time>
      </trkpt>
      <trkpt lat="44.3237" lon="5.18333">
        <ele>798.5</ele>
        <time>2022-07-19T08:22:03Z</time>
      </trkpt>
      <trkpt lat="44.32369" lon="5.1833">
        <ele>798.6</ele>
        <time>2022-07-19T08:22:04Z</time>
      </trkpt>
      <trkpt lat="44.32369" lon="5.18329">
        <ele>798.6</ele>
        <time>2022-07-19T08:22:05Z</time>
      </trkpt>
      <trkpt lat="44.32369" lon="5.18328">
        <ele>798.7</ele>
        <time>2022-07-19T08:22:06Z</time>
      </trkpt>
      <trkpt lat="44.32368" lon="5.18326">
        <ele>798.7</ele>
        <time>2022-07-19T08:22:07Z</time>
      </trkpt>
      <trkpt lat="44.32367" lon="5.18324">
        <ele>798.8</ele>
        <time>2022-07-19T08:22:08Z</time>
      </trkpt>
      <trkpt lat="44.32366" lon="5.18323">
        <ele>798.9</ele>
        <time>2022-07-19T08:22:09Z</time>
      </trkpt>
      <trkpt lat="44.32366" lon="5.18321">
        <ele>798.9</ele>
        <time>2022-07-19T08:22:10Z</time>
      </trkpt>
      <trkpt lat="44.32365" lon="5.18318">
        <ele>799</ele>
        <time>2022-07-19T08:22:11Z</time>
      </trkpt>
      <trkpt lat="44.32365" lon="5.18316">
        <ele>799.1</ele>
        <time>2022-07-19T08:22:12Z</time>
      </trkpt>
      <trkpt lat="44.32364" lon="5.18315">
        <ele>799.1</ele>
        <time>2022-07-19T08:22:13Z</time>
      </trkpt>
      <trkpt lat="44.32364" lon="5.18314">
        <ele>799.1</ele>
        <time>2022-07-19T08:22:14Z</time>
      </trkpt>
      <trkpt lat="44.32364" lon="5.18312">
        <ele>799.1</ele>
        <time>2022-07-19T08:22:15Z</time>
      </trkpt>
      <trkpt lat="44.32363" lon="5.18309">
        <ele>799.2</ele>
        <time>2022-07-19T08:22:16Z</time>
      </trkpt>
      <trkpt lat="44.32363" lon="5.18308">
        <ele>799.2</ele>
        <time>2022-07-19T08:22:17Z</time>
      </trkpt>
      <trkpt lat="44.32362" lon="5.18307">
        <ele>799.2</ele>
        <time>2022-07-19T08:22:18Z</time>
      </trkpt>
      <trkpt lat="44.32362" lon="5.18305">
        <ele>799.2</ele>
        <time>2022-07-19T08:22:19Z</time>
      </trkpt>
      <trkpt lat="44.32362" lon="5.18302">
        <ele>799.2</ele>
        <time>2022-07-19T08:22:20Z</time>
      </trkpt>
      <trkpt lat="44.32361" lon="5.18298">
        <ele>799.3</ele>
        <time>2022-07-19T08:22:21Z</time>
      </trkpt>
      <trkpt lat="44.32361" lon="5.18297">
        <ele>799.3</ele>
        <time>2022-07-19T08:22:22Z</time>
      </trkpt>
      <trkpt lat="44.3236" lon="5.18292">
        <ele>799.2</ele>
        <time>2022-07-19T08:22:23Z</time>
      </trkpt>
      <trkpt lat="44.3236" lon="5.18291">
        <ele>799.2</ele>
        <time>2022-07-19T08:22:24Z</time>
      </trkpt>
      <trkpt lat="44.32359" lon="5.18287">
        <ele>799.2</ele>
        <time>2022-07-19T08:22:25Z</time>
      </trkpt>
      <trkpt lat="44.32358" lon="5.18283">
        <ele>799.1</ele>
        <time>2022-07-19T08:22:26Z</time>
      </trkpt>
      <trkpt lat="44.32357" lon="5.18279">
        <ele>799</ele>
        <time>2022-07-19T08:22:27Z</time>
      </trkpt>
      <trkpt lat="44.32355" lon="5.18274">
        <ele>798.9</ele>
        <time>2022-07-19T08:22:28Z</time>
      </trkpt>
      <trkpt lat="44.32354" lon="5.18269">
        <ele>798.7</ele>
        <time>2022-07-19T08:22:29Z</time>
      </trkpt>
      <trkpt lat="44.32352" lon="5.18263">
        <ele>798.6</ele>
        <time>2022-07-19T08:22:30Z</time>
      </trkpt>
      <trkpt lat="44.3235" lon="5.18257">
        <ele>798.4</ele>
        <time>2022-07-19T08:22:31Z</time>
      </trkpt>
      <trkpt lat="44.32349" lon="5.18251">
        <ele>798.2</ele>
        <time>2022-07-19T08:22:32Z</time>
      </trkpt>
      <trkpt lat="44.32348" lon="5.18247">
        <ele>798.1</ele>
        <time>2022-07-19T08:22:33Z</time>
      </trkpt>
      <trkpt lat="44.32348" lon="5.18242">
        <ele>798</ele>
        <time>2022-07-19T08:22:34Z</time>
      </trkpt>
      <trkpt lat="44.32347" lon="5.18239">
        <ele>798</ele>
        <time>2022-07-19T08:22:35Z</time>
      </trkpt>
      <trkpt lat="44.32346" lon="5.18233">
        <ele>797.8</ele>
        <time>2022-07-19T08:22:36Z</time>
      </trkpt>
      <trkpt lat="44.32345" lon="5.18229">
        <ele>797.8</ele>
        <time>2022-07-19T08:22:37Z</time>
      </trkpt>
      <trkpt lat="44.32344" lon="5.18223">
        <ele>797.7</ele>
        <time>2022-07-19T08:22:38Z</time>
      </trkpt>
      <trkpt lat="44.32342" lon="5.18217">
        <ele>797.6</ele>
        <time>2022-07-19T08:22:39Z</time>
      </trkpt>
      <trkpt lat="44.32339" lon="5.18212">
        <ele>797.5</ele>
        <time>2022-07-19T08:22:40Z</time>
      </trkpt>
      <trkpt lat="44.32337" lon="5.18206">
        <ele>797.5</ele>
        <time>2022-07-19T08:22:41Z</time>
      </trkpt>
      <trkpt lat="44.32335" lon="5.18202">
        <ele>797.5</ele>
        <time>2022-07-19T08:22:42Z</time>
      </trkpt>
      <trkpt lat="44.32333" lon="5.18198">
        <ele>797.5</ele>
        <time>2022-07-19T08:22:43Z</time>
      </trkpt>
      <trkpt lat="44.32332" lon="5.18194">
        <ele>797.5</ele>
        <time>2022-07-19T08:22:44Z</time>
      </trkpt>
      <trkpt lat="44.3233" lon="5.1819">
        <ele>797.6</ele>
        <time>2022-07-19T08:22:45Z</time>
      </trkpt>
      <trkpt lat="44.32329" lon="5.18189">
        <ele>797.6</ele>
        <time>2022-07-19T08:22:46Z</time>
      </trkpt>
      <trkpt lat="44.32327" lon="5.18185">
        <ele>797.6</ele>
        <time>2022-07-19T08:22:47Z</time>
      </trkpt>
      <trkpt lat="44.32327" lon="5.18184">
        <ele>797.6</ele>
        <time>2022-07-19T08:22:48Z</time>
      </trkpt>
      <trkpt lat="44.32325" lon="5.18181">
        <ele>797.7</ele>
        <time>2022-07-19T08:22:49Z</time>
      </trkpt>
      <trkpt lat="44.32324" lon="5.1818">
        <ele>797.7</ele>
        <time>2022-07-19T08:22:50Z</time>
      </trkpt>
      <trkpt lat="44.32322" lon="5.18177">
        <ele>797.7</ele>
        <time>2022-07-19T08:22:51Z</time>
      </trkpt>
      <trkpt lat="44.3232" lon="5.18174">
        <ele>797.7</ele>
        <time>2022-07-19T08:22:52Z</time>
      </trkpt>
      <trkpt lat="44.32318" lon="5.1817">
        <ele>797.7</ele>
        <time>2022-07-19T08:22:53Z</time>
      </trkpt>
      <trkpt lat="44.32316" lon="5.18167">
        <ele>797.7</ele>
        <time>2022-07-19T08:22:54Z</time>
      </trkpt>
      <trkpt lat="44.32314" lon="5.18163">
        <ele>797.6</ele>
        <time>2022-07-19T08:22:55Z</time>
      </trkpt>
      <trkpt lat="44.32313" lon="5.1816">
        <ele>797.6</ele>
        <time>2022-07-19T08:22:56Z</time>
      </trkpt>
      <trkpt lat="44.32311" lon="5.18156">
        <ele>797.5</ele>
        <time>2022-07-19T08:22:57Z</time>
      </trkpt>
      <trkpt lat="44.3231" lon="5.18151">
        <ele>797.4</ele>
        <time>2022-07-19T08:22:58Z</time>
      </trkpt>
      <trkpt lat="44.32309" lon="5.18148">
        <ele>797.3</ele>
        <time>2022-07-19T08:22:59Z</time>
      </trkpt>
      <trkpt lat="44.32307" lon="5.18144">
        <ele>797.2</ele>
        <time>2022-07-19T08:23:00Z</time>
      </trkpt>
      <trkpt lat="44.32307" lon="5.18143">
        <ele>797.2</ele>
        <time>2022-07-19T08:23:01Z</time>
      </trkpt>
      <trkpt lat="44.32305" lon="5.18141">
        <ele>797.1</ele>
        <time>2022-07-19T08:23:02Z</time>
      </trkpt>
      <trkpt lat="44.32305" lon="5.1814">
        <ele>797</ele>
        <time>2022-07-19T08:23:03Z</time>
      </trkpt>
      <trkpt lat="44.32305" lon="5.18139">
        <ele>797</ele>
        <time>2022-07-19T08:23:04Z</time>
      </trkpt>
      <trkpt lat="44.32304" lon="5.18138">
        <ele>796.9</ele>
        <time>2022-07-19T08:23:05Z</time>
      </trkpt>
      <trkpt lat="44.32303" lon="5.18136">
        <ele>796.8</ele>
        <time>2022-07-19T08:23:06Z</time>
      </trkpt>
      <trkpt lat="44.32301" lon="5.18132">
        <ele>796.6</ele>
        <time>2022-07-19T08:23:07Z</time>
      </trkpt>
      <trkpt lat="44.323" lon="5.18131">
        <ele>796.6</ele>
        <time>2022-07-19T08:23:08Z</time>
      </trkpt>
      <trkpt lat="44.32298" lon="5.18127">
        <ele>796.4</ele>
        <time>2022-07-19T08:23:09Z</time>
      </trkpt>
      <trkpt lat="44.32296" lon="5.18123">
        <ele>796.1</ele>
        <time>2022-07-19T08:23:10Z</time>
      </trkpt>
      <trkpt lat="44.32294" lon="5.18118">
        <ele>795.8</ele>
        <time>2022-07-19T08:23:11Z</time>
      </trkpt>
      <trkpt lat="44.32291" lon="5.18112">
        <ele>795.4</ele>
        <time>2022-07-19T08:23:12Z</time>
      </trkpt>
      <trkpt lat="44.32289" lon="5.18104">
        <ele>794.9</ele>
        <time>2022-07-19T08:23:13Z</time>
      </trkpt>
      <trkpt lat="44.32284" lon="5.18096">
        <ele>794.3</ele>
        <time>2022-07-19T08:23:14Z</time>
      </trkpt>
      <trkpt lat="44.32281" lon="5.18087">
        <ele>793.6</ele>
        <time>2022-07-19T08:23:15Z</time>
      </trkpt>
      <trkpt lat="44.32277" lon="5.18078">
        <ele>793.2</ele>
        <time>2022-07-19T08:23:16Z</time>
      </trkpt>
      <trkpt lat="44.32273" lon="5.18071">
        <ele>793</ele>
        <time>2022-07-19T08:23:17Z</time>
      </trkpt>
      <trkpt lat="44.32269" lon="5.18065">
        <ele>792.9</ele>
        <time>2022-07-19T08:23:18Z</time>
      </trkpt>
      <trkpt lat="44.32265" lon="5.1806">
        <ele>793</ele>
        <time>2022-07-19T08:23:19Z</time>
      </trkpt>
      <trkpt lat="44.32262" lon="5.18056">
        <ele>793.2</ele>
        <time>2022-07-19T08:23:20Z</time>
      </trkpt>
      <trkpt lat="44.32259" lon="5.18053">
        <ele>793.3</ele>
        <time>2022-07-19T08:23:21Z</time>
      </trkpt>
      <trkpt lat="44.32256" lon="5.1805">
        <ele>793.5</ele>
        <time>2022-07-19T08:23:22Z</time>
      </trkpt>
      <trkpt lat="44.32253" lon="5.18046">
        <ele>793.6</ele>
        <time>2022-07-19T08:23:23Z</time>
      </trkpt>
      <trkpt lat="44.32252" lon="5.18044">
        <ele>793.7</ele>
        <time>2022-07-19T08:23:24Z</time>
      </trkpt>
      <trkpt lat="44.3225" lon="5.1804">
        <ele>793.8</ele>
        <time>2022-07-19T08:23:25Z</time>
      </trkpt>
      <trkpt lat="44.32247" lon="5.18037">
        <ele>793.9</ele>
        <time>2022-07-19T08:23:26Z</time>
      </trkpt>
      <trkpt lat="44.32245" lon="5.18034">
        <ele>794</ele>
        <time>2022-07-19T08:23:27Z</time>
      </trkpt>
      <trkpt lat="44.32243" lon="5.1803">
        <ele>794.1</ele>
        <time>2022-07-19T08:23:28Z</time>
      </trkpt>
      <trkpt lat="44.3224" lon="5.18026">
        <ele>794.2</ele>
        <time>2022-07-19T08:23:29Z</time>
      </trkpt>
      <trkpt lat="44.32237" lon="5.18022">
        <ele>794.3</ele>
        <time>2022-07-19T08:23:30Z</time>
      </trkpt>
      <trkpt lat="44.32235" lon="5.18019">
        <ele>794.4</ele>
        <time>2022-07-19T08:23:31Z</time>
      </trkpt>
      <trkpt lat="44.32233" lon="5.18015">
        <ele>794.6</ele>
        <time>2022-07-19T08:23:32Z</time>
      </trkpt>
      <trkpt lat="44.32231" lon="5.18012">
        <ele>794.7</ele>
        <time>2022-07-19T08:23:33Z</time>
      </trkpt>
      <trkpt lat="44.32229" lon="5.18008">
        <ele>794.8</ele>
        <time>2022-07-19T08:23:34Z</time>
      </trkpt>
      <trkpt lat="44.32228" lon="5.18007">
        <ele>794.9</ele>
        <time>2022-07-19T08:23:35Z</time>
      </trkpt>
      <trkpt lat="44.32227" lon="5.18003">
        <ele>795.1</ele>
        <time>2022-07-19T08:23:36Z</time>
      </trkpt>
      <trkpt lat="44.32226" lon="5.18001">
        <ele>795.2</ele>
        <time>2022-07-19T08:23:37Z</time>
      </trkpt>
      <trkpt lat="44.32224" lon="5.17997">
        <ele>795.4</ele>
        <time>2022-07-19T08:23:38Z</time>
      </trkpt>
      <trkpt lat="44.32223" lon="5.17996">
        <ele>795.5</ele>
        <time>2022-07-19T08:23:39Z</time>
      </trkpt>
      <trkpt lat="44.32222" lon="5.17994">
        <ele>795.6</ele>
        <time>2022-07-19T08:23:40Z</time>
      </trkpt>
      <trkpt lat="44.32221" lon="5.17993">
        <ele>795.7</ele>
        <time>2022-07-19T08:23:41Z</time>
      </trkpt>
      <trkpt lat="44.32219" lon="5.17992">
        <ele>795.9</ele>
        <time>2022-07-19T08:23:42Z</time>
      </trkpt>
      <trkpt lat="44.32218" lon="5.17991">
        <ele>795.9</ele>
        <time>2022-07-19T08:23:43Z</time>
      </trkpt>
      <trkpt lat="44.32215" lon="5.17989">
        <ele>796.1</ele>
        <time>2022-07-19T08:23:44Z</time>
      </trkpt>
      <trkpt lat="44.32214" lon="5.17988">
        <ele>796.2</ele>
        <time>2022-07-19T08:23:45Z</time>
      </trkpt>
      <trkpt lat="44.32211" lon="5.17986">
        <ele>796.4</ele>
        <time>2022-07-19T08:23:46Z</time>
      </trkpt>
      <trkpt lat="44.3221" lon="5.17985">
        <ele>796.5</ele>
        <time>2022-07-19T08:23:47Z</time>
      </trkpt>
      <trkpt lat="44.32208" lon="5.17982">
        <ele>796.6</ele>
        <time>2022-07-19T08:23:48Z</time>
      </trkpt>
      <trkpt lat="44.32207" lon="5.17981">
        <ele>796.7</ele>
        <time>2022-07-19T08:23:49Z</time>
      </trkpt>
      <trkpt lat="44.32204" lon="5.17978">
        <ele>796.8</ele>
        <time>2022-07-19T08:23:50Z</time>
      </trkpt>
      <trkpt lat="44.32203" lon="5.17977">
        <ele>796.8</ele>
        <time>2022-07-19T08:23:51Z</time>
      </trkpt>
      <trkpt lat="44.32202" lon="5.17976">
        <ele>796.9</ele>
        <time>2022-07-19T08:23:52Z</time>
      </trkpt>
      <trkpt lat="44.32201" lon="5.17974">
        <ele>797</ele>
        <time>2022-07-19T08:23:53Z</time>
      </trkpt>
      <trkpt lat="44.322" lon="5.17972">
        <ele>797</ele>
        <time>2022-07-19T08:23:54Z</time>
      </trkpt>
      <trkpt lat="44.32199" lon="5.17971">
        <ele>797.1</ele>
        <time>2022-07-19T08:23:55Z</time>
      </trkpt>
      <trkpt lat="44.32198" lon="5.17969">
        <ele>797.2</ele>
        <time>2022-07-19T08:23:56Z</time>
      </trkpt>
      <trkpt lat="44.32197" lon="5.17968">
        <ele>797.2</ele>
        <time>2022-07-19T08:23:57Z</time>
      </trkpt>
      <trkpt lat="44.32196" lon="5.17966">
        <ele>797.3</ele>
        <time>2022-07-19T08:23:58Z</time>
      </trkpt>
      <trkpt lat="44.32195" lon="5.17965">
        <ele>797.3</ele>
        <time>2022-07-19T08:23:59Z</time>
      </trkpt>
      <trkpt lat="44.32192" lon="5.17962">
        <ele>797.4</ele>
        <time>2022-07-19T08:24:00Z</time>
      </trkpt>
      <trkpt lat="44.32191" lon="5.17961">
        <ele>797.5</ele>
        <time>2022-07-19T08:24:01Z</time>
      </trkpt>
      <trkpt lat="44.32189" lon="5.17958">
        <ele>797.6</ele>
        <time>2022-07-19T08:24:03Z</time>
      </trkpt>
      <trkpt lat="44.32189" lon="5.17957">
        <ele>797.6</ele>
        <time>2022-07-19T08:24:04Z</time>
      </trkpt>
      <trkpt lat="44.32187" lon="5.17953">
        <ele>797.8</ele>
        <time>2022-07-19T08:24:05Z</time>
      </trkpt>
      <trkpt lat="44.32186" lon="5.17952">
        <ele>797.8</ele>
        <time>2022-07-19T08:24:06Z</time>
      </trkpt>
      <trkpt lat="44.32184" lon="5.17949">
        <ele>797.9</ele>
        <time>2022-07-19T08:24:07Z</time>
      </trkpt>
      <trkpt lat="44.32183" lon="5.17948">
        <ele>797.9</ele>
        <time>2022-07-19T08:24:08Z</time>
      </trkpt>
      <trkpt lat="44.32181" lon="5.17945">
        <ele>798.1</ele>
        <time>2022-07-19T08:24:09Z</time>
      </trkpt>
      <trkpt lat="44.3218" lon="5.17944">
        <ele>798.1</ele>
        <time>2022-07-19T08:24:10Z</time>
      </trkpt>
      <trkpt lat="44.32178" lon="5.17943">
        <ele>798.2</ele>
        <time>2022-07-19T08:24:11Z</time>
      </trkpt>
      <trkpt lat="44.32177" lon="5.17942">
        <ele>798.3</ele>
        <time>2022-07-19T08:24:12Z</time>
      </trkpt>
      <trkpt lat="44.32174" lon="5.1794">
        <ele>798.5</ele>
        <time>2022-07-19T08:24:13Z</time>
      </trkpt>
      <trkpt lat="44.32174" lon="5.17939">
        <ele>798.5</ele>
        <time>2022-07-19T08:24:14Z</time>
      </trkpt>
      <trkpt lat="44.32171" lon="5.17938">
        <ele>798.7</ele>
        <time>2022-07-19T08:24:15Z</time>
      </trkpt>
      <trkpt lat="44.3217" lon="5.17937">
        <ele>798.7</ele>
        <time>2022-07-19T08:24:16Z</time>
      </trkpt>
      <trkpt lat="44.32167" lon="5.17935">
        <ele>798.9</ele>
        <time>2022-07-19T08:24:17Z</time>
      </trkpt>
      <trkpt lat="44.32167" lon="5.17935">
        <ele>799</ele>
        <time>2022-07-19T08:24:18Z</time>
      </trkpt>
      <trkpt lat="44.32164" lon="5.17934">
        <ele>799.1</ele>
        <time>2022-07-19T08:24:19Z</time>
      </trkpt>
      <trkpt lat="44.32163" lon="5.17933">
        <ele>799.2</ele>
        <time>2022-07-19T08:24:20Z</time>
      </trkpt>
      <trkpt lat="44.3216" lon="5.17931">
        <ele>799.4</ele>
        <time>2022-07-19T08:24:21Z</time>
      </trkpt>
      <trkpt lat="44.32158" lon="5.17931">
        <ele>799.4</ele>
        <time>2022-07-19T08:24:22Z</time>
      </trkpt>
      <trkpt lat="44.32155" lon="5.17929">
        <ele>799.6</ele>
        <time>2022-07-19T08:24:23Z</time>
      </trkpt>
      <trkpt lat="44.32154" lon="5.17929">
        <ele>799.7</ele>
        <time>2022-07-19T08:24:24Z</time>
      </trkpt>
      <trkpt lat="44.32151" lon="5.17927">
        <ele>799.8</ele>
        <time>2022-07-19T08:24:25Z</time>
      </trkpt>
      <trkpt lat="44.32148" lon="5.17926">
        <ele>799.9</ele>
        <time>2022-07-19T08:24:26Z</time>
      </trkpt>
      <trkpt lat="44.32146" lon="5.17925">
        <ele>799.9</ele>
        <time>2022-07-19T08:24:27Z</time>
      </trkpt>
      <trkpt lat="44.32145" lon="5.17925">
        <ele>799.9</ele>
        <time>2022-07-19T08:24:28Z</time>
      </trkpt>
      <trkpt lat="44.32143" lon="5.17925">
        <ele>800</ele>
        <time>2022-07-19T08:24:29Z</time>
      </trkpt>
      <trkpt lat="44.3214" lon="5.17924">
        <ele>800</ele>
        <time>2022-07-19T08:24:30Z</time>
      </trkpt>
      <trkpt lat="44.32139" lon="5.17923">
        <ele>800</ele>
        <time>2022-07-19T08:24:31Z</time>
      </trkpt>
      <trkpt lat="44.32137" lon="5.17921">
        <ele>800.1</ele>
        <time>2022-07-19T08:24:32Z</time>
      </trkpt>
      <trkpt lat="44.32134" lon="5.1792">
        <ele>800.1</ele>
        <time>2022-07-19T08:24:33Z</time>
      </trkpt>
      <trkpt lat="44.32131" lon="5.17918">
        <ele>800.1</ele>
        <time>2022-07-19T08:24:34Z</time>
      </trkpt>
      <trkpt lat="44.3213" lon="5.17917">
        <ele>800.1</ele>
        <time>2022-07-19T08:24:35Z</time>
      </trkpt>
      <trkpt lat="44.32126" lon="5.17915">
        <ele>800</ele>
        <time>2022-07-19T08:24:36Z</time>
      </trkpt>
      <trkpt lat="44.32125" lon="5.17914">
        <ele>800</ele>
        <time>2022-07-19T08:24:37Z</time>
      </trkpt>
      <trkpt lat="44.32122" lon="5.17913">
        <ele>800</ele>
        <time>2022-07-19T08:24:38Z</time>
      </trkpt>
      <trkpt lat="44.32119" lon="5.17912">
        <ele>799.9</ele>
        <time>2022-07-19T08:24:39Z</time>
      </trkpt>
      <trkpt lat="44.32116" lon="5.1791">
        <ele>799.9</ele>
        <time>2022-07-19T08:24:40Z</time>
      </trkpt>
      <trkpt lat="44.32114" lon="5.17909">
        <ele>799.8</ele>
        <time>2022-07-19T08:24:41Z</time>
      </trkpt>
      <trkpt lat="44.3211" lon="5.17907">
        <ele>799.8</ele>
        <time>2022-07-19T08:24:42Z</time>
      </trkpt>
      <trkpt lat="44.32108" lon="5.17907">
        <ele>799.7</ele>
        <time>2022-07-19T08:24:43Z</time>
      </trkpt>
      <trkpt lat="44.32104" lon="5.17905">
        <ele>799.7</ele>
        <time>2022-07-19T08:24:44Z</time>
      </trkpt>
      <trkpt lat="44.321" lon="5.17903">
        <ele>799.6</ele>
        <time>2022-07-19T08:24:45Z</time>
      </trkpt>
      <trkpt lat="44.32097" lon="5.17901">
        <ele>799.5</ele>
        <time>2022-07-19T08:24:46Z</time>
      </trkpt>
      <trkpt lat="44.32093" lon="5.17899">
        <ele>799.5</ele>
        <time>2022-07-19T08:24:47Z</time>
      </trkpt>
      <trkpt lat="44.32091" lon="5.17896">
        <ele>799.5</ele>
        <time>2022-07-19T08:24:48Z</time>
      </trkpt>
      <trkpt lat="44.32088" lon="5.17893">
        <ele>799.5</ele>
        <time>2022-07-19T08:24:49Z</time>
      </trkpt>
      <trkpt lat="44.32085" lon="5.17891">
        <ele>799.5</ele>
        <time>2022-07-19T08:24:50Z</time>
      </trkpt>
      <trkpt lat="44.32083" lon="5.17888">
        <ele>799.5</ele>
        <time>2022-07-19T08:24:51Z</time>
      </trkpt>
      <trkpt lat="44.3208" lon="5.17885">
        <ele>799.6</ele>
        <time>2022-07-19T08:24:52Z</time>
      </trkpt>
      <trkpt lat="44.32079" lon="5.17884">
        <ele>799.6</ele>
        <time>2022-07-19T08:24:53Z</time>
      </trkpt>
      <trkpt lat="44.32076" lon="5.17882">
        <ele>799.7</ele>
        <time>2022-07-19T08:24:54Z</time>
      </trkpt>
      <trkpt lat="44.32075" lon="5.17881">
        <ele>799.7</ele>
        <time>2022-07-19T08:24:55Z</time>
      </trkpt>
      <trkpt lat="44.32073" lon="5.17878">
        <ele>799.8</ele>
        <time>2022-07-19T08:24:56Z</time>
      </trkpt>
      <trkpt lat="44.32073" lon="5.17877">
        <ele>799.8</ele>
        <time>2022-07-19T08:24:57Z</time>
      </trkpt>
      <trkpt lat="44.32071" lon="5.17874">
        <ele>799.9</ele>
        <time>2022-07-19T08:24:58Z</time>
      </trkpt>
      <trkpt lat="44.3207" lon="5.17873">
        <ele>799.9</ele>
        <time>2022-07-19T08:24:59Z</time>
      </trkpt>
      <trkpt lat="44.32067" lon="5.1787">
        <ele>800</ele>
        <time>2022-07-19T08:25:00Z</time>
      </trkpt>
      <trkpt lat="44.32066" lon="5.17868">
        <ele>800</ele>
        <time>2022-07-19T08:25:01Z</time>
      </trkpt>
      <trkpt lat="44.32064" lon="5.17866">
        <ele>800.1</ele>
        <time>2022-07-19T08:25:02Z</time>
      </trkpt>
      <trkpt lat="44.32061" lon="5.17864">
        <ele>800.2</ele>
        <time>2022-07-19T08:25:03Z</time>
      </trkpt>
      <trkpt lat="44.32059" lon="5.17862">
        <ele>800.3</ele>
        <time>2022-07-19T08:25:04Z</time>
      </trkpt>
      <trkpt lat="44.32056" lon="5.17859">
        <ele>800.4</ele>
        <time>2022-07-19T08:25:05Z</time>
      </trkpt>
      <trkpt lat="44.32053" lon="5.17857">
        <ele>800.6</ele>
        <time>2022-07-19T08:25:06Z</time>
      </trkpt>
      <trkpt lat="44.32052" lon="5.17856">
        <ele>800.7</ele>
        <time>2022-07-19T08:25:07Z</time>
      </trkpt>
      <trkpt lat="44.32049" lon="5.17852">
        <ele>800.9</ele>
        <time>2022-07-19T08:25:08Z</time>
      </trkpt>
      <trkpt lat="44.32048" lon="5.17851">
        <ele>800.9</ele>
        <time>2022-07-19T08:25:09Z</time>
      </trkpt>
      <trkpt lat="44.32045" lon="5.17848">
        <ele>801.1</ele>
        <time>2022-07-19T08:25:10Z</time>
      </trkpt>
      <trkpt lat="44.32044" lon="5.17847">
        <ele>801.2</ele>
        <time>2022-07-19T08:25:11Z</time>
      </trkpt>
      <trkpt lat="44.32041" lon="5.17844">
        <ele>801.4</ele>
        <time>2022-07-19T08:25:12Z</time>
      </trkpt>
      <trkpt lat="44.3204" lon="5.17843">
        <ele>801.4</ele>
        <time>2022-07-19T08:25:13Z</time>
      </trkpt>
      <trkpt lat="44.32037" lon="5.1784">
        <ele>801.6</ele>
        <time>2022-07-19T08:25:14Z</time>
      </trkpt>
      <trkpt lat="44.32036" lon="5.17839">
        <ele>801.6</ele>
        <time>2022-07-19T08:25:15Z</time>
      </trkpt>
      <trkpt lat="44.32033" lon="5.17836">
        <ele>801.8</ele>
        <time>2022-07-19T08:25:16Z</time>
      </trkpt>
      <trkpt lat="44.32032" lon="5.17834">
        <ele>801.8</ele>
        <time>2022-07-19T08:25:17Z</time>
      </trkpt>
      <trkpt lat="44.32029" lon="5.17832">
        <ele>801.9</ele>
        <time>2022-07-19T08:25:18Z</time>
      </trkpt>
      <trkpt lat="44.32027" lon="5.17829">
        <ele>801.9</ele>
        <time>2022-07-19T08:25:19Z</time>
      </trkpt>
      <trkpt lat="44.32024" lon="5.17826">
        <ele>801.9</ele>
        <time>2022-07-19T08:25:20Z</time>
      </trkpt>
      <trkpt lat="44.3202" lon="5.17823">
        <ele>801.9</ele>
        <time>2022-07-19T08:25:21Z</time>
      </trkpt>
      <trkpt lat="44.32017" lon="5.17819">
        <ele>801.8</ele>
        <time>2022-07-19T08:25:22Z</time>
      </trkpt>
      <trkpt lat="44.3201" lon="5.17816">
        <ele>801.7</ele>
        <time>2022-07-19T08:25:23Z</time>
      </trkpt>
      <trkpt lat="44.32008" lon="5.17812">
        <ele>801.6</ele>
        <time>2022-07-19T08:25:24Z</time>
      </trkpt>
      <trkpt lat="44.32004" lon="5.17807">
        <ele>801.5</ele>
        <time>2022-07-19T08:25:25Z</time>
      </trkpt>
      <trkpt lat="44.32002" lon="5.17803">
        <ele>801.5</ele>
        <time>2022-07-19T08:25:26Z</time>
      </trkpt>
      <trkpt lat="44.31999" lon="5.17798">
        <ele>801.5</ele>
        <time>2022-07-19T08:25:27Z</time>
      </trkpt>
      <trkpt lat="44.31994" lon="5.17797">
        <ele>801.5</ele>
        <time>2022-07-19T08:25:28Z</time>
      </trkpt>
      <trkpt lat="44.31992" lon="5.17794">
        <ele>801.6</ele>
        <time>2022-07-19T08:25:29Z</time>
      </trkpt>
      <trkpt lat="44.31989" lon="5.17792">
        <ele>801.6</ele>
        <time>2022-07-19T08:25:30Z</time>
      </trkpt>
      <trkpt lat="44.31989" lon="5.17791">
        <ele>801.7</ele>
        <time>2022-07-19T08:25:31Z</time>
      </trkpt>
      <trkpt lat="44.31987" lon="5.17791">
        <ele>801.8</ele>
        <time>2022-07-19T08:25:32Z</time>
      </trkpt>
      <trkpt lat="44.31986" lon="5.1779">
        <ele>801.9</ele>
        <time>2022-07-19T08:25:33Z</time>
      </trkpt>
      <trkpt lat="44.31985" lon="5.17789">
        <ele>802</ele>
        <time>2022-07-19T08:25:34Z</time>
      </trkpt>
      <trkpt lat="44.31983" lon="5.17789">
        <ele>802.1</ele>
        <time>2022-07-19T08:25:35Z</time>
      </trkpt>
      <trkpt lat="44.31982" lon="5.17789">
        <ele>802.2</ele>
        <time>2022-07-19T08:25:36Z</time>
      </trkpt>
      <trkpt lat="44.3198" lon="5.17789">
        <ele>802.4</ele>
        <time>2022-07-19T08:25:37Z</time>
      </trkpt>
      <trkpt lat="44.31978" lon="5.17788">
        <ele>802.6</ele>
        <time>2022-07-19T08:25:38Z</time>
      </trkpt>
      <trkpt lat="44.31977" lon="5.17788">
        <ele>802.7</ele>
        <time>2022-07-19T08:25:39Z</time>
      </trkpt>
      <trkpt lat="44.31976" lon="5.17788">
        <ele>802.8</ele>
        <time>2022-07-19T08:25:40Z</time>
      </trkpt>
      <trkpt lat="44.31975" lon="5.17788">
        <ele>803</ele>
        <time>2022-07-19T08:25:41Z</time>
      </trkpt>
      <trkpt lat="44.31974" lon="5.17787">
        <ele>803.1</ele>
        <time>2022-07-19T08:25:42Z</time>
      </trkpt>
      <trkpt lat="44.31971" lon="5.17786">
        <ele>803.4</ele>
        <time>2022-07-19T08:25:43Z</time>
      </trkpt>
      <trkpt lat="44.3197" lon="5.17786">
        <ele>803.6</ele>
        <time>2022-07-19T08:25:44Z</time>
      </trkpt>
      <trkpt lat="44.31969" lon="5.17786">
        <ele>803.7</ele>
        <time>2022-07-19T08:25:45Z</time>
      </trkpt>
      <trkpt lat="44.31968" lon="5.17786">
        <ele>803.9</ele>
        <time>2022-07-19T08:25:46Z</time>
      </trkpt>
      <trkpt lat="44.31967" lon="5.17785">
        <ele>804</ele>
        <time>2022-07-19T08:25:47Z</time>
      </trkpt>
      <trkpt lat="44.31965" lon="5.17785">
        <ele>804.3</ele>
        <time>2022-07-19T08:25:48Z</time>
      </trkpt>
      <trkpt lat="44.31964" lon="5.17785">
        <ele>804.4</ele>
        <time>2022-07-19T08:25:49Z</time>
      </trkpt>
      <trkpt lat="44.31964" lon="5.17784">
        <ele>804.6</ele>
        <time>2022-07-19T08:25:50Z</time>
      </trkpt>
      <trkpt lat="44.31962" lon="5.17784">
        <ele>804.8</ele>
        <time>2022-07-19T08:25:51Z</time>
      </trkpt>
      <trkpt lat="44.31961" lon="5.17784">
        <ele>805</ele>
        <time>2022-07-19T08:25:52Z</time>
      </trkpt>
      <trkpt lat="44.3196" lon="5.17784">
        <ele>805.1</ele>
        <time>2022-07-19T08:25:53Z</time>
      </trkpt>
      <trkpt lat="44.31958" lon="5.17784">
        <ele>805.3</ele>
        <time>2022-07-19T08:25:54Z</time>
      </trkpt>
      <trkpt lat="44.31957" lon="5.17784">
        <ele>805.6</ele>
        <time>2022-07-19T08:25:55Z</time>
      </trkpt>
      <trkpt lat="44.31955" lon="5.17784">
        <ele>805.8</ele>
        <time>2022-07-19T08:25:56Z</time>
      </trkpt>
      <trkpt lat="44.31954" lon="5.17784">
        <ele>805.9</ele>
        <time>2022-07-19T08:25:57Z</time>
      </trkpt>
      <trkpt lat="44.31953" lon="5.17784">
        <ele>806.1</ele>
        <time>2022-07-19T08:25:58Z</time>
      </trkpt>
      <trkpt lat="44.31952" lon="5.17785">
        <ele>806.3</ele>
        <time>2022-07-19T08:25:59Z</time>
      </trkpt>
      <trkpt lat="44.3195" lon="5.17785">
        <ele>806.6</ele>
        <time>2022-07-19T08:26:00Z</time>
      </trkpt>
      <trkpt lat="44.31949" lon="5.17786">
        <ele>806.9</ele>
        <time>2022-07-19T08:26:01Z</time>
      </trkpt>
      <trkpt lat="44.31947" lon="5.17787">
        <ele>807.2</ele>
        <time>2022-07-19T08:26:02Z</time>
      </trkpt>
      <trkpt lat="44.31945" lon="5.17787">
        <ele>807.4</ele>
        <time>2022-07-19T08:26:03Z</time>
      </trkpt>
      <trkpt lat="44.31944" lon="5.17788">
        <ele>807.7</ele>
        <time>2022-07-19T08:26:04Z</time>
      </trkpt>
      <trkpt lat="44.31943" lon="5.17789">
        <ele>808</ele>
        <time>2022-07-19T08:26:05Z</time>
      </trkpt>
      <trkpt lat="44.31942" lon="5.17791">
        <ele>808.2</ele>
        <time>2022-07-19T08:26:06Z</time>
      </trkpt>
      <trkpt lat="44.31941" lon="5.17792">
        <ele>808.5</ele>
        <time>2022-07-19T08:26:07Z</time>
      </trkpt>
      <trkpt lat="44.31939" lon="5.17794">
        <ele>808.8</ele>
        <time>2022-07-19T08:26:08Z</time>
      </trkpt>
      <trkpt lat="44.31938" lon="5.17795">
        <ele>809</ele>
        <time>2022-07-19T08:26:09Z</time>
      </trkpt>
      <trkpt lat="44.31937" lon="5.17795">
        <ele>809.3</ele>
        <time>2022-07-19T08:26:10Z</time>
      </trkpt>
      <trkpt lat="44.31934" lon="5.17796">
        <ele>809.7</ele>
        <time>2022-07-19T08:26:11Z</time>
      </trkpt>
      <trkpt lat="44.31933" lon="5.17797">
        <ele>809.9</ele>
        <time>2022-07-19T08:26:12Z</time>
      </trkpt>
      <trkpt lat="44.31932" lon="5.17797">
        <ele>810.1</ele>
        <time>2022-07-19T08:26:13Z</time>
      </trkpt>
      <trkpt lat="44.31931" lon="5.17798">
        <ele>810.3</ele>
        <time>2022-07-19T08:26:14Z</time>
      </trkpt>
      <trkpt lat="44.3193" lon="5.17797">
        <ele>810.5</ele>
        <time>2022-07-19T08:26:15Z</time>
      </trkpt>
      <trkpt lat="44.31929" lon="5.17797">
        <ele>810.6</ele>
        <time>2022-07-19T08:26:16Z</time>
      </trkpt>
      <trkpt lat="44.31928" lon="5.17797">
        <ele>810.7</ele>
        <time>2022-07-19T08:26:17Z</time>
      </trkpt>
      <trkpt lat="44.31928" lon="5.17798">
        <ele>810.8</ele>
        <time>2022-07-19T08:26:18Z</time>
      </trkpt>
      <trkpt lat="44.31927" lon="5.17798">
        <ele>810.9</ele>
        <time>2022-07-19T08:26:19Z</time>
      </trkpt>
      <trkpt lat="44.31927" lon="5.17799">
        <ele>811.1</ele>
        <time>2022-07-19T08:26:20Z</time>
      </trkpt>
      <trkpt lat="44.31926" lon="5.178">
        <ele>811.2</ele>
        <time>2022-07-19T08:26:21Z</time>
      </trkpt>
      <trkpt lat="44.31926" lon="5.17802">
        <ele>811.4</ele>
        <time>2022-07-19T08:26:22Z</time>
      </trkpt>
      <trkpt lat="44.31925" lon="5.17802">
        <ele>811.6</ele>
        <time>2022-07-19T08:26:23Z</time>
      </trkpt>
      <trkpt lat="44.31923" lon="5.17802">
        <ele>811.9</ele>
        <time>2022-07-19T08:26:24Z</time>
      </trkpt>
      <trkpt lat="44.31922" lon="5.17802">
        <ele>812.1</ele>
        <time>2022-07-19T08:26:25Z</time>
      </trkpt>
      <trkpt lat="44.31921" lon="5.17802">
        <ele>812.2</ele>
        <time>2022-07-19T08:26:26Z</time>
      </trkpt>
      <trkpt lat="44.3192" lon="5.17802">
        <ele>812.3</ele>
        <time>2022-07-19T08:26:27Z</time>
      </trkpt>
      <trkpt lat="44.3192" lon="5.17803">
        <ele>812.4</ele>
        <time>2022-07-19T08:26:28Z</time>
      </trkpt>
      <trkpt lat="44.31919" lon="5.17803">
        <ele>812.6</ele>
        <time>2022-07-19T08:26:29Z</time>
      </trkpt>
      <trkpt lat="44.31918" lon="5.17803">
        <ele>812.7</ele>
        <time>2022-07-19T08:26:30Z</time>
      </trkpt>
      <trkpt lat="44.31917" lon="5.17803">
        <ele>812.9</ele>
        <time>2022-07-19T08:26:31Z</time>
      </trkpt>
      <trkpt lat="44.31916" lon="5.17803">
        <ele>813</ele>
        <time>2022-07-19T08:26:32Z</time>
      </trkpt>
      <trkpt lat="44.31915" lon="5.17803">
        <ele>813.1</ele>
        <time>2022-07-19T08:26:33Z</time>
      </trkpt>
      <trkpt lat="44.31914" lon="5.17804">
        <ele>813.3</ele>
        <time>2022-07-19T08:26:34Z</time>
      </trkpt>
      <trkpt lat="44.31913" lon="5.17805">
        <ele>813.5</ele>
        <time>2022-07-19T08:26:35Z</time>
      </trkpt>
      <trkpt lat="44.31911" lon="5.17805">
        <ele>813.8</ele>
        <time>2022-07-19T08:26:36Z</time>
      </trkpt>
      <trkpt lat="44.3191" lon="5.17805">
        <ele>814</ele>
        <time>2022-07-19T08:26:37Z</time>
      </trkpt>
      <trkpt lat="44.31909" lon="5.17805">
        <ele>814.1</ele>
        <time>2022-07-19T08:26:38Z</time>
      </trkpt>
      <trkpt lat="44.31907" lon="5.17804">
        <ele>814.4</ele>
        <time>2022-07-19T08:26:39Z</time>
      </trkpt>
      <trkpt lat="44.31906" lon="5.17804">
        <ele>814.5</ele>
        <time>2022-07-19T08:26:40Z</time>
      </trkpt>
      <trkpt lat="44.31905" lon="5.17804">
        <ele>814.7</ele>
        <time>2022-07-19T08:26:41Z</time>
      </trkpt>
      <trkpt lat="44.31904" lon="5.17804">
        <ele>814.9</ele>
        <time>2022-07-19T08:26:42Z</time>
      </trkpt>
      <trkpt lat="44.31903" lon="5.17804">
        <ele>815.1</ele>
        <time>2022-07-19T08:26:43Z</time>
      </trkpt>
      <trkpt lat="44.31902" lon="5.17804">
        <ele>815.2</ele>
        <time>2022-07-19T08:26:44Z</time>
      </trkpt>
      <trkpt lat="44.319" lon="5.17803">
        <ele>815.5</ele>
        <time>2022-07-19T08:26:45Z</time>
      </trkpt>
      <trkpt lat="44.31899" lon="5.17803">
        <ele>815.7</ele>
        <time>2022-07-19T08:26:46Z</time>
      </trkpt>
      <trkpt lat="44.31898" lon="5.17803">
        <ele>815.8</ele>
        <time>2022-07-19T08:26:47Z</time>
      </trkpt>
      <trkpt lat="44.31898" lon="5.17803">
        <ele>815.9</ele>
        <time>2022-07-19T08:26:48Z</time>
      </trkpt>
      <trkpt lat="44.31897" lon="5.17802">
        <ele>816</ele>
        <time>2022-07-19T08:26:49Z</time>
      </trkpt>
      <trkpt lat="44.31896" lon="5.17801">
        <ele>816.2</ele>
        <time>2022-07-19T08:26:50Z</time>
      </trkpt>
      <trkpt lat="44.31895" lon="5.178">
        <ele>816.4</ele>
        <time>2022-07-19T08:26:51Z</time>
      </trkpt>
      <trkpt lat="44.31895" lon="5.17799">
        <ele>816.5</ele>
        <time>2022-07-19T08:26:52Z</time>
      </trkpt>
      <trkpt lat="44.31894" lon="5.17798">
        <ele>816.6</ele>
        <time>2022-07-19T08:26:53Z</time>
      </trkpt>
      <trkpt lat="44.31893" lon="5.17798">
        <ele>816.7</ele>
        <time>2022-07-19T08:26:54Z</time>
      </trkpt>
      <trkpt lat="44.31893" lon="5.17797">
        <ele>816.8</ele>
        <time>2022-07-19T08:26:55Z</time>
      </trkpt>
      <trkpt lat="44.31892" lon="5.17796">
        <ele>816.9</ele>
        <time>2022-07-19T08:26:56Z</time>
      </trkpt>
      <trkpt lat="44.31892" lon="5.17796">
        <ele>817</ele>
        <time>2022-07-19T08:26:57Z</time>
      </trkpt>
      <trkpt lat="44.31891" lon="5.17796">
        <ele>817</ele>
        <time>2022-07-19T08:26:58Z</time>
      </trkpt>
      <trkpt lat="44.31891" lon="5.17795">
        <ele>817.1</ele>
        <time>2022-07-19T08:26:59Z</time>
      </trkpt>
      <trkpt lat="44.3189" lon="5.17794">
        <ele>817.2</ele>
        <time>2022-07-19T08:27:00Z</time>
      </trkpt>
      <trkpt lat="44.31889" lon="5.17794">
        <ele>817.3</ele>
        <time>2022-07-19T08:27:01Z</time>
      </trkpt>
      <trkpt lat="44.31888" lon="5.17793">
        <ele>817.5</ele>
        <time>2022-07-19T08:27:02Z</time>
      </trkpt>
      <trkpt lat="44.31887" lon="5.17793">
        <ele>817.6</ele>
        <time>2022-07-19T08:27:03Z</time>
      </trkpt>
      <trkpt lat="44.31886" lon="5.17792">
        <ele>817.8</ele>
        <time>2022-07-19T08:27:04Z</time>
      </trkpt>
      <trkpt lat="44.31886" lon="5.17792">
        <ele>817.8</ele>
        <time>2022-07-19T08:27:05Z</time>
      </trkpt>
      <trkpt lat="44.31885" lon="5.17792">
        <ele>817.9</ele>
        <time>2022-07-19T08:27:06Z</time>
      </trkpt>
      <trkpt lat="44.31885" lon="5.17791">
        <ele>818</ele>
        <time>2022-07-19T08:27:07Z</time>
      </trkpt>
      <trkpt lat="44.31884" lon="5.17791">
        <ele>818.1</ele>
        <time>2022-07-19T08:27:08Z</time>
      </trkpt>
      <trkpt lat="44.31882" lon="5.1779">
        <ele>818.4</ele>
        <time>2022-07-19T08:27:09Z</time>
      </trkpt>
      <trkpt lat="44.31881" lon="5.17789">
        <ele>818.6</ele>
        <time>2022-07-19T08:27:10Z</time>
      </trkpt>
      <trkpt lat="44.3188" lon="5.17789">
        <ele>818.7</ele>
        <time>2022-07-19T08:27:11Z</time>
      </trkpt>
      <trkpt lat="44.31877" lon="5.17789">
        <ele>819.1</ele>
        <time>2022-07-19T08:27:12Z</time>
      </trkpt>
      <trkpt lat="44.31876" lon="5.17789">
        <ele>819.2</ele>
        <time>2022-07-19T08:27:13Z</time>
      </trkpt>
      <trkpt lat="44.31874" lon="5.17788">
        <ele>819.4</ele>
        <time>2022-07-19T08:27:14Z</time>
      </trkpt>
      <trkpt lat="44.31873" lon="5.17788">
        <ele>819.6</ele>
        <time>2022-07-19T08:27:15Z</time>
      </trkpt>
      <trkpt lat="44.31871" lon="5.17787">
        <ele>819.9</ele>
        <time>2022-07-19T08:27:16Z</time>
      </trkpt>
      <trkpt lat="44.31869" lon="5.17786">
        <ele>820.1</ele>
        <time>2022-07-19T08:27:17Z</time>
      </trkpt>
      <trkpt lat="44.31868" lon="5.17785">
        <ele>820.3</ele>
        <time>2022-07-19T08:27:18Z</time>
      </trkpt>
      <trkpt lat="44.31868" lon="5.17785">
        <ele>820.4</ele>
        <time>2022-07-19T08:27:19Z</time>
      </trkpt>
      <trkpt lat="44.31867" lon="5.17784">
        <ele>820.5</ele>
        <time>2022-07-19T08:27:20Z</time>
      </trkpt>
      <trkpt lat="44.31867" lon="5.17783">
        <ele>820.6</ele>
        <time>2022-07-19T08:27:21Z</time>
      </trkpt>
      <trkpt lat="44.31866" lon="5.17782">
        <ele>820.7</ele>
        <time>2022-07-19T08:27:22Z</time>
      </trkpt>
      <trkpt lat="44.31865" lon="5.17781">
        <ele>820.9</ele>
        <time>2022-07-19T08:27:23Z</time>
      </trkpt>
      <trkpt lat="44.31864" lon="5.17781">
        <ele>821.1</ele>
        <time>2022-07-19T08:27:24Z</time>
      </trkpt>
      <trkpt lat="44.31863" lon="5.17781">
        <ele>821.2</ele>
        <time>2022-07-19T08:27:25Z</time>
      </trkpt>
      <trkpt lat="44.31862" lon="5.17781">
        <ele>821.4</ele>
        <time>2022-07-19T08:27:26Z</time>
      </trkpt>
      <trkpt lat="44.31861" lon="5.1778">
        <ele>821.6</ele>
        <time>2022-07-19T08:27:27Z</time>
      </trkpt>
      <trkpt lat="44.31859" lon="5.17779">
        <ele>821.9</ele>
        <time>2022-07-19T08:27:28Z</time>
      </trkpt>
      <trkpt lat="44.31859" lon="5.17779">
        <ele>822.1</ele>
        <time>2022-07-19T08:27:29Z</time>
      </trkpt>
      <trkpt lat="44.31858" lon="5.17778">
        <ele>822.2</ele>
        <time>2022-07-19T08:27:30Z</time>
      </trkpt>
      <trkpt lat="44.31856" lon="5.17776">
        <ele>822.5</ele>
        <time>2022-07-19T08:27:31Z</time>
      </trkpt>
      <trkpt lat="44.31856" lon="5.17775">
        <ele>822.7</ele>
        <time>2022-07-19T08:27:32Z</time>
      </trkpt>
      <trkpt lat="44.31855" lon="5.17775">
        <ele>822.9</ele>
        <time>2022-07-19T08:27:33Z</time>
      </trkpt>
      <trkpt lat="44.31853" lon="5.17774">
        <ele>823.2</ele>
        <time>2022-07-19T08:27:34Z</time>
      </trkpt>
      <trkpt lat="44.31852" lon="5.17774">
        <ele>823.5</ele>
        <time>2022-07-19T08:27:35Z</time>
      </trkpt>
      <trkpt lat="44.31851" lon="5.17773">
        <ele>823.6</ele>
        <time>2022-07-19T08:27:36Z</time>
      </trkpt>
      <trkpt lat="44.3185" lon="5.17772">
        <ele>823.8</ele>
        <time>2022-07-19T08:27:37Z</time>
      </trkpt>
      <trkpt lat="44.31849" lon="5.17771">
        <ele>824</ele>
        <time>2022-07-19T08:27:38Z</time>
      </trkpt>
      <trkpt lat="44.31849" lon="5.1777">
        <ele>824.2</ele>
        <time>2022-07-19T08:27:39Z</time>
      </trkpt>
      <trkpt lat="44.31848" lon="5.17769">
        <ele>824.4</ele>
        <time>2022-07-19T08:27:40Z</time>
      </trkpt>
      <trkpt lat="44.31848" lon="5.17768">
        <ele>824.6</ele>
        <time>2022-07-19T08:27:41Z</time>
      </trkpt>
      <trkpt lat="44.31847" lon="5.17767">
        <ele>824.8</ele>
        <time>2022-07-19T08:27:42Z</time>
      </trkpt>
      <trkpt lat="44.31846" lon="5.17766">
        <ele>825</ele>
        <time>2022-07-19T08:27:43Z</time>
      </trkpt>
      <trkpt lat="44.31845" lon="5.17765">
        <ele>825.2</ele>
        <time>2022-07-19T08:27:44Z</time>
      </trkpt>
      <trkpt lat="44.31844" lon="5.17764">
        <ele>825.5</ele>
        <time>2022-07-19T08:27:45Z</time>
      </trkpt>
      <trkpt lat="44.31842" lon="5.17763">
        <ele>825.8</ele>
        <time>2022-07-19T08:27:46Z</time>
      </trkpt>
      <trkpt lat="44.31841" lon="5.17762">
        <ele>826</ele>
        <time>2022-07-19T08:27:47Z</time>
      </trkpt>
      <trkpt lat="44.3184" lon="5.17761">
        <ele>826.3</ele>
        <time>2022-07-19T08:27:48Z</time>
      </trkpt>
      <trkpt lat="44.31838" lon="5.1776">
        <ele>826.5</ele>
        <time>2022-07-19T08:27:49Z</time>
      </trkpt>
      <trkpt lat="44.31838" lon="5.1776">
        <ele>826.7</ele>
        <time>2022-07-19T08:27:50Z</time>
      </trkpt>
      <trkpt lat="44.31837" lon="5.1776">
        <ele>826.8</ele>
        <time>2022-07-19T08:27:51Z</time>
      </trkpt>
      <trkpt lat="44.31836" lon="5.1776">
        <ele>826.9</ele>
        <time>2022-07-19T08:27:52Z</time>
      </trkpt>
      <trkpt lat="44.31835" lon="5.17758">
        <ele>827.2</ele>
        <time>2022-07-19T08:27:53Z</time>
      </trkpt>
      <trkpt lat="44.31834" lon="5.17757">
        <ele>827.4</ele>
        <time>2022-07-19T08:27:54Z</time>
      </trkpt>
      <trkpt lat="44.31834" lon="5.17756">
        <ele>827.5</ele>
        <time>2022-07-19T08:27:55Z</time>
      </trkpt>
      <trkpt lat="44.31833" lon="5.17754">
        <ele>827.8</ele>
        <time>2022-07-19T08:27:56Z</time>
      </trkpt>
      <trkpt lat="44.31832" lon="5.17752">
        <ele>828</ele>
        <time>2022-07-19T08:27:57Z</time>
      </trkpt>
      <trkpt lat="44.3183" lon="5.17751">
        <ele>828.3</ele>
        <time>2022-07-19T08:27:58Z</time>
      </trkpt>
      <trkpt lat="44.31829" lon="5.1775">
        <ele>828.5</ele>
        <time>2022-07-19T08:27:59Z</time>
      </trkpt>
      <trkpt lat="44.31828" lon="5.17749">
        <ele>828.7</ele>
        <time>2022-07-19T08:28:00Z</time>
      </trkpt>
      <trkpt lat="44.31827" lon="5.17747">
        <ele>828.9</ele>
        <time>2022-07-19T08:28:01Z</time>
      </trkpt>
      <trkpt lat="44.31825" lon="5.17746">
        <ele>829.2</ele>
        <time>2022-07-19T08:28:02Z</time>
      </trkpt>
      <trkpt lat="44.31824" lon="5.17745">
        <ele>829.3</ele>
        <time>2022-07-19T08:28:03Z</time>
      </trkpt>
      <trkpt lat="44.31824" lon="5.17745">
        <ele>829.4</ele>
        <time>2022-07-19T08:28:04Z</time>
      </trkpt>
      <trkpt lat="44.31823" lon="5.17744">
        <ele>829.6</ele>
        <time>2022-07-19T08:28:05Z</time>
      </trkpt>
      <trkpt lat="44.31822" lon="5.17744">
        <ele>829.7</ele>
        <time>2022-07-19T08:28:06Z</time>
      </trkpt>
      <trkpt lat="44.31822" lon="5.17743">
        <ele>829.7</ele>
        <time>2022-07-19T08:28:07Z</time>
      </trkpt>
      <trkpt lat="44.31821" lon="5.17743">
        <ele>829.8</ele>
        <time>2022-07-19T08:28:08Z</time>
      </trkpt>
      <trkpt lat="44.3182" lon="5.17742">
        <ele>830</ele>
        <time>2022-07-19T08:28:09Z</time>
      </trkpt>
      <trkpt lat="44.31819" lon="5.17742">
        <ele>830.1</ele>
        <time>2022-07-19T08:28:10Z</time>
      </trkpt>
      <trkpt lat="44.31818" lon="5.17742">
        <ele>830.3</ele>
        <time>2022-07-19T08:28:11Z</time>
      </trkpt>
      <trkpt lat="44.31817" lon="5.17741">
        <ele>830.4</ele>
        <time>2022-07-19T08:28:12Z</time>
      </trkpt>
      <trkpt lat="44.31816" lon="5.1774">
        <ele>830.5</ele>
        <time>2022-07-19T08:28:13Z</time>
      </trkpt>
      <trkpt lat="44.31816" lon="5.17739">
        <ele>830.6</ele>
        <time>2022-07-19T08:28:14Z</time>
      </trkpt>
      <trkpt lat="44.31814" lon="5.17738">
        <ele>830.8</ele>
        <time>2022-07-19T08:28:15Z</time>
      </trkpt>
      <trkpt lat="44.31813" lon="5.17737">
        <ele>830.9</ele>
        <time>2022-07-19T08:28:16Z</time>
      </trkpt>
      <trkpt lat="44.31812" lon="5.17737">
        <ele>831</ele>
        <time>2022-07-19T08:28:17Z</time>
      </trkpt>
      <trkpt lat="44.31811" lon="5.17736">
        <ele>831.2</ele>
        <time>2022-07-19T08:28:18Z</time>
      </trkpt>
      <trkpt lat="44.31809" lon="5.17735">
        <ele>831.3</ele>
        <time>2022-07-19T08:28:19Z</time>
      </trkpt>
      <trkpt lat="44.31808" lon="5.17734">
        <ele>831.5</ele>
        <time>2022-07-19T08:28:20Z</time>
      </trkpt>
      <trkpt lat="44.31806" lon="5.17733">
        <ele>831.6</ele>
        <time>2022-07-19T08:28:21Z</time>
      </trkpt>
      <trkpt lat="44.31805" lon="5.17732">
        <ele>831.7</ele>
        <time>2022-07-19T08:28:22Z</time>
      </trkpt>
      <trkpt lat="44.31804" lon="5.17731">
        <ele>831.7</ele>
        <time>2022-07-19T08:28:23Z</time>
      </trkpt>
      <trkpt lat="44.31803" lon="5.1773">
        <ele>831.8</ele>
        <time>2022-07-19T08:28:24Z</time>
      </trkpt>
      <trkpt lat="44.31803" lon="5.1773">
        <ele>831.8</ele>
        <time>2022-07-19T08:28:25Z</time>
      </trkpt>
      <trkpt lat="44.31803" lon="5.1773">
        <ele>831.8</ele>
        <time>2022-07-19T08:28:26Z</time>
      </trkpt>
      <trkpt lat="44.31803" lon="5.1773">
        <ele>831.8</ele>
        <time>2022-07-19T08:28:28Z</time>
      </trkpt>
      <trkpt lat="44.31803" lon="5.1773">
        <ele>831.8</ele>
        <time>2022-07-19T08:28:29Z</time>
      </trkpt>
      <trkpt lat="44.31801" lon="5.17731">
        <ele>831.9</ele>
        <time>2022-07-19T08:28:30Z</time>
      </trkpt>
      <trkpt lat="44.31801" lon="5.17731">
        <ele>831.9</ele>
        <time>2022-07-19T08:28:31Z</time>
      </trkpt>
      <trkpt lat="44.31801" lon="5.17731">
        <ele>831.9</ele>
        <time>2022-07-19T08:28:32Z</time>
      </trkpt>
      <trkpt lat="44.31801" lon="5.17731">
        <ele>831.9</ele>
        <time>2022-07-19T08:28:33Z</time>
      </trkpt>
      <trkpt lat="44.31796" lon="5.17735">
        <ele>831.9</ele>
        <time>2022-07-19T08:30:14Z</time>
      </trkpt>
      <trkpt lat="44.31797" lon="5.17736">
        <ele>831.9</ele>
        <time>2022-07-19T08:30:15Z</time>
      </trkpt>
      <trkpt lat="44.31797" lon="5.17737">
        <ele>831.9</ele>
        <time>2022-07-19T08:30:16Z</time>
      </trkpt>
      <trkpt lat="44.31798" lon="5.17738">
        <ele>831.9</ele>
        <time>2022-07-19T08:30:17Z</time>
      </trkpt>
      <trkpt lat="44.31799" lon="5.17738">
        <ele>831.9</ele>
        <time>2022-07-19T08:30:18Z</time>
      </trkpt>
      <trkpt lat="44.31799" lon="5.17737">
        <ele>831.8</ele>
        <time>2022-07-19T08:30:19Z</time>
      </trkpt>
      <trkpt lat="44.31799" lon="5.17736">
        <ele>831.8</ele>
        <time>2022-07-19T08:30:20Z</time>
      </trkpt>
      <trkpt lat="44.31799" lon="5.17735">
        <ele>831.8</ele>
        <time>2022-07-19T08:30:21Z</time>
      </trkpt>
      <trkpt lat="44.31799" lon="5.17734">
        <ele>831.8</ele>
        <time>2022-07-19T08:30:22Z</time>
      </trkpt>
      <trkpt lat="44.31799" lon="5.17734">
        <ele>831.7</ele>
        <time>2022-07-19T08:30:23Z</time>
      </trkpt>
      <trkpt lat="44.31799" lon="5.17733">
        <ele>831.7</ele>
        <time>2022-07-19T08:30:24Z</time>
      </trkpt>
      <trkpt lat="44.31799" lon="5.17732">
        <ele>831.7</ele>
        <time>2022-07-19T08:30:25Z</time>
      </trkpt>
      <trkpt lat="44.31798" lon="5.17731">
        <ele>831.6</ele>
        <time>2022-07-19T08:30:26Z</time>
      </trkpt>
      <trkpt lat="44.31798" lon="5.1773">
        <ele>831.6</ele>
        <time>2022-07-19T08:30:27Z</time>
      </trkpt>
      <trkpt lat="44.31798" lon="5.1773">
        <ele>831.5</ele>
        <time>2022-07-19T08:30:28Z</time>
      </trkpt>
      <trkpt lat="44.31798" lon="5.17729">
        <ele>831.5</ele>
        <time>2022-07-19T08:30:29Z</time>
      </trkpt>
      <trkpt lat="44.31798" lon="5.17728">
        <ele>831.4</ele>
        <time>2022-07-19T08:31:23Z</time>
      </trkpt>
      <trkpt lat="44.31798" lon="5.17727">
        <ele>831.4</ele>
        <time>2022-07-19T08:31:24Z</time>
      </trkpt>
      <trkpt lat="44.31798" lon="5.17725">
        <ele>831.2</ele>
        <time>2022-07-19T08:31:25Z</time>
      </trkpt>
      <trkpt lat="44.31798" lon="5.17722">
        <ele>831</ele>
        <time>2022-07-19T08:31:26Z</time>
      </trkpt>
      <trkpt lat="44.31799" lon="5.1772">
        <ele>830.8</ele>
        <time>2022-07-19T08:31:27Z</time>
      </trkpt>
      <trkpt lat="44.318" lon="5.17718">
        <ele>830.6</ele>
        <time>2022-07-19T08:31:28Z</time>
      </trkpt>
      <trkpt lat="44.31801" lon="5.17714">
        <ele>830.3</ele>
        <time>2022-07-19T08:31:29Z</time>
      </trkpt>
      <trkpt lat="44.31801" lon="5.17713">
        <ele>830.2</ele>
        <time>2022-07-19T08:31:30Z</time>
      </trkpt>
      <trkpt lat="44.31801" lon="5.17709">
        <ele>829.9</ele>
        <time>2022-07-19T08:31:31Z</time>
      </trkpt>
      <trkpt lat="44.31802" lon="5.17707">
        <ele>829.8</ele>
        <time>2022-07-19T08:31:32Z</time>
      </trkpt>
      <trkpt lat="44.31803" lon="5.17703">
        <ele>829.3</ele>
        <time>2022-07-19T08:31:33Z</time>
      </trkpt>
      <trkpt lat="44.31804" lon="5.17701">
        <ele>829.2</ele>
        <time>2022-07-19T08:31:34Z</time>
      </trkpt>
      <trkpt lat="44.31806" lon="5.17697">
        <ele>828.8</ele>
        <time>2022-07-19T08:31:35Z</time>
      </trkpt>
      <trkpt lat="44.31806" lon="5.17696">
        <ele>828.6</ele>
        <time>2022-07-19T08:31:36Z</time>
      </trkpt>
      <trkpt lat="44.31808" lon="5.17692">
        <ele>828.3</ele>
        <time>2022-07-19T08:31:37Z</time>
      </trkpt>
      <trkpt lat="44.3181" lon="5.17689">
        <ele>827.9</ele>
        <time>2022-07-19T08:31:38Z</time>
      </trkpt>
      <trkpt lat="44.31811" lon="5.17685">
        <ele>827.5</ele>
        <time>2022-07-19T08:31:39Z</time>
      </trkpt>
      <trkpt lat="44.31812" lon="5.1768">
        <ele>826.9</ele>
        <time>2022-07-19T08:31:40Z</time>
      </trkpt>
      <trkpt lat="44.31812" lon="5.17675">
        <ele>826.3</ele>
        <time>2022-07-19T08:31:41Z</time>
      </trkpt>
      <trkpt lat="44.31812" lon="5.17669">
        <ele>825.6</ele>
        <time>2022-07-19T08:31:42Z</time>
      </trkpt>
      <trkpt lat="44.31814" lon="5.17659">
        <ele>824.3</ele>
        <time>2022-07-19T08:31:43Z</time>
      </trkpt>
      <trkpt lat="44.31814" lon="5.17652">
        <ele>823.4</ele>
        <time>2022-07-19T08:31:44Z</time>
      </trkpt>
      <trkpt lat="44.31812" lon="5.17645">
        <ele>822.3</ele>
        <time>2022-07-19T08:31:45Z</time>
      </trkpt>
      <trkpt lat="44.31811" lon="5.17637">
        <ele>821.3</ele>
        <time>2022-07-19T08:31:46Z</time>
      </trkpt>
      <trkpt lat="44.31811" lon="5.17628">
        <ele>820.1</ele>
        <time>2022-07-19T08:31:47Z</time>
      </trkpt>
      <trkpt lat="44.31809" lon="5.17618">
        <ele>818.7</ele>
        <time>2022-07-19T08:31:48Z</time>
      </trkpt>
      <trkpt lat="44.31809" lon="5.1761">
        <ele>817.7</ele>
        <time>2022-07-19T08:31:49Z</time>
      </trkpt>
      <trkpt lat="44.31807" lon="5.17599">
        <ele>816.4</ele>
        <time>2022-07-19T08:31:50Z</time>
      </trkpt>
      <trkpt lat="44.31806" lon="5.17589">
        <ele>815.1</ele>
        <time>2022-07-19T08:31:51Z</time>
      </trkpt>
      <trkpt lat="44.31805" lon="5.17578">
        <ele>813.7</ele>
        <time>2022-07-19T08:31:52Z</time>
      </trkpt>
      <trkpt lat="44.31802" lon="5.17568">
        <ele>812.4</ele>
        <time>2022-07-19T08:31:53Z</time>
      </trkpt>
      <trkpt lat="44.31799" lon="5.17558">
        <ele>811</ele>
        <time>2022-07-19T08:31:54Z</time>
      </trkpt>
      <trkpt lat="44.31796" lon="5.17548">
        <ele>809.9</ele>
        <time>2022-07-19T08:31:55Z</time>
      </trkpt>
      <trkpt lat="44.31792" lon="5.17538">
        <ele>808.8</ele>
        <time>2022-07-19T08:31:56Z</time>
      </trkpt>
      <trkpt lat="44.31788" lon="5.17527">
        <ele>807.9</ele>
        <time>2022-07-19T08:31:57Z</time>
      </trkpt>
      <trkpt lat="44.31784" lon="5.17515">
        <ele>807.1</ele>
        <time>2022-07-19T08:31:58Z</time>
      </trkpt>
      <trkpt lat="44.31783" lon="5.17503">
        <ele>806.4</ele>
        <time>2022-07-19T08:31:59Z</time>
      </trkpt>
      <trkpt lat="44.31782" lon="5.17492">
        <ele>805.8</ele>
        <time>2022-07-19T08:32:00Z</time>
      </trkpt>
      <trkpt lat="44.31779" lon="5.17481">
        <ele>805.4</ele>
        <time>2022-07-19T08:32:01Z</time>
      </trkpt>
      <trkpt lat="44.31776" lon="5.1747">
        <ele>805.1</ele>
        <time>2022-07-19T08:32:02Z</time>
      </trkpt>
      <trkpt lat="44.31773" lon="5.17458">
        <ele>804.9</ele>
        <time>2022-07-19T08:32:03Z</time>
      </trkpt>
      <trkpt lat="44.3177" lon="5.17449">
        <ele>804.7</ele>
        <time>2022-07-19T08:32:04Z</time>
      </trkpt>
      <trkpt lat="44.31765" lon="5.1744">
        <ele>804.6</ele>
        <time>2022-07-19T08:32:05Z</time>
      </trkpt>
      <trkpt lat="44.31762" lon="5.17431">
        <ele>804.4</ele>
        <time>2022-07-19T08:32:06Z</time>
      </trkpt>
      <trkpt lat="44.31758" lon="5.17425">
        <ele>804.3</ele>
        <time>2022-07-19T08:32:07Z</time>
      </trkpt>
      <trkpt lat="44.31753" lon="5.17418">
        <ele>804.3</ele>
        <time>2022-07-19T08:32:08Z</time>
      </trkpt>
      <trkpt lat="44.3175" lon="5.17412">
        <ele>804.4</ele>
        <time>2022-07-19T08:32:09Z</time>
      </trkpt>
      <trkpt lat="44.31746" lon="5.17405">
        <ele>804.6</ele>
        <time>2022-07-19T08:32:10Z</time>
      </trkpt>
      <trkpt lat="44.31743" lon="5.17398">
        <ele>805</ele>
        <time>2022-07-19T08:32:11Z</time>
      </trkpt>
      <trkpt lat="44.31737" lon="5.17392">
        <ele>805.6</ele>
        <time>2022-07-19T08:32:12Z</time>
      </trkpt>
      <trkpt lat="44.31733" lon="5.17389">
        <ele>806</ele>
        <time>2022-07-19T08:32:13Z</time>
      </trkpt>
      <trkpt lat="44.3173" lon="5.17387">
        <ele>806.4</ele>
        <time>2022-07-19T08:32:14Z</time>
      </trkpt>
      <trkpt lat="44.31728" lon="5.17385">
        <ele>806.7</ele>
        <time>2022-07-19T08:32:15Z</time>
      </trkpt>
      <trkpt lat="44.31727" lon="5.17383">
        <ele>806.9</ele>
        <time>2022-07-19T08:32:16Z</time>
      </trkpt>
      <trkpt lat="44.31726" lon="5.17381">
        <ele>807.1</ele>
        <time>2022-07-19T08:32:17Z</time>
      </trkpt>
      <trkpt lat="44.31725" lon="5.1738">
        <ele>807.2</ele>
        <time>2022-07-19T08:32:18Z</time>
      </trkpt>
      <trkpt lat="44.31723" lon="5.17379">
        <ele>807.6</ele>
        <time>2022-07-19T08:32:19Z</time>
      </trkpt>
      <trkpt lat="44.31722" lon="5.17377">
        <ele>807.7</ele>
        <time>2022-07-19T08:32:20Z</time>
      </trkpt>
      <trkpt lat="44.31722" lon="5.17375">
        <ele>807.9</ele>
        <time>2022-07-19T08:32:21Z</time>
      </trkpt>
      <trkpt lat="44.31722" lon="5.17373">
        <ele>808.1</ele>
        <time>2022-07-19T08:32:22Z</time>
      </trkpt>
      <trkpt lat="44.31721" lon="5.17371">
        <ele>808.3</ele>
        <time>2022-07-19T08:32:23Z</time>
      </trkpt>
      <trkpt lat="44.3172" lon="5.17369">
        <ele>808.5</ele>
        <time>2022-07-19T08:32:24Z</time>
      </trkpt>
      <trkpt lat="44.3172" lon="5.17367">
        <ele>808.7</ele>
        <time>2022-07-19T08:32:25Z</time>
      </trkpt>
      <trkpt lat="44.31719" lon="5.17366">
        <ele>808.9</ele>
        <time>2022-07-19T08:32:26Z</time>
      </trkpt>
      <trkpt lat="44.31718" lon="5.17364">
        <ele>809.1</ele>
        <time>2022-07-19T08:32:27Z</time>
      </trkpt>
      <trkpt lat="44.31717" lon="5.17362">
        <ele>809.2</ele>
        <time>2022-07-19T08:32:28Z</time>
      </trkpt>
      <trkpt lat="44.31716" lon="5.1736">
        <ele>809.4</ele>
        <time>2022-07-19T08:32:29Z</time>
      </trkpt>
      <trkpt lat="44.31714" lon="5.17358">
        <ele>809.5</ele>
        <time>2022-07-19T08:32:30Z</time>
      </trkpt>
      <trkpt lat="44.31714" lon="5.17357">
        <ele>809.7</ele>
        <time>2022-07-19T08:32:31Z</time>
      </trkpt>
      <trkpt lat="44.31713" lon="5.17355">
        <ele>809.8</ele>
        <time>2022-07-19T08:32:32Z</time>
      </trkpt>
      <trkpt lat="44.31712" lon="5.17354">
        <ele>809.9</ele>
        <time>2022-07-19T08:32:33Z</time>
      </trkpt>
      <trkpt lat="44.31712" lon="5.17353">
        <ele>810</ele>
        <time>2022-07-19T08:32:34Z</time>
      </trkpt>
      <trkpt lat="44.3171" lon="5.1735">
        <ele>810.1</ele>
        <time>2022-07-19T08:32:35Z</time>
      </trkpt>
      <trkpt lat="44.3171" lon="5.17349">
        <ele>810.2</ele>
        <time>2022-07-19T08:32:36Z</time>
      </trkpt>
      <trkpt lat="44.31709" lon="5.17348">
        <ele>810.2</ele>
        <time>2022-07-19T08:32:37Z</time>
      </trkpt>
      <trkpt lat="44.31708" lon="5.17347">
        <ele>810.4</ele>
        <time>2022-07-19T08:32:38Z</time>
      </trkpt>
      <trkpt lat="44.31707" lon="5.17345">
        <ele>810.4</ele>
        <time>2022-07-19T08:32:39Z</time>
      </trkpt>
      <trkpt lat="44.31706" lon="5.17343">
        <ele>810.6</ele>
        <time>2022-07-19T08:32:40Z</time>
      </trkpt>
      <trkpt lat="44.31705" lon="5.17342">
        <ele>810.7</ele>
        <time>2022-07-19T08:32:41Z</time>
      </trkpt>
      <trkpt lat="44.31704" lon="5.1734">
        <ele>810.8</ele>
        <time>2022-07-19T08:32:42Z</time>
      </trkpt>
      <trkpt lat="44.31703" lon="5.17338">
        <ele>810.9</ele>
        <time>2022-07-19T08:32:43Z</time>
      </trkpt>
      <trkpt lat="44.31702" lon="5.17336">
        <ele>811</ele>
        <time>2022-07-19T08:32:44Z</time>
      </trkpt>
      <trkpt lat="44.31701" lon="5.17334">
        <ele>811</ele>
        <time>2022-07-19T08:32:45Z</time>
      </trkpt>
      <trkpt lat="44.317" lon="5.17333">
        <ele>811.1</ele>
        <time>2022-07-19T08:32:46Z</time>
      </trkpt>
      <trkpt lat="44.31699" lon="5.17331">
        <ele>811.2</ele>
        <time>2022-07-19T08:32:47Z</time>
      </trkpt>
      <trkpt lat="44.31698" lon="5.1733">
        <ele>811.3</ele>
        <time>2022-07-19T08:32:48Z</time>
      </trkpt>
      <trkpt lat="44.31697" lon="5.17328">
        <ele>811.4</ele>
        <time>2022-07-19T08:32:49Z</time>
      </trkpt>
      <trkpt lat="44.31696" lon="5.17327">
        <ele>811.4</ele>
        <time>2022-07-19T08:32:50Z</time>
      </trkpt>
      <trkpt lat="44.31695" lon="5.17325">
        <ele>811.5</ele>
        <time>2022-07-19T08:32:51Z</time>
      </trkpt>
      <trkpt lat="44.31694" lon="5.17324">
        <ele>811.6</ele>
        <time>2022-07-19T08:32:52Z</time>
      </trkpt>
      <trkpt lat="44.31693" lon="5.17322">
        <ele>811.6</ele>
        <time>2022-07-19T08:32:53Z</time>
      </trkpt>
      <trkpt lat="44.31692" lon="5.1732">
        <ele>811.7</ele>
        <time>2022-07-19T08:32:54Z</time>
      </trkpt>
      <trkpt lat="44.31691" lon="5.17319">
        <ele>811.8</ele>
        <time>2022-07-19T08:32:55Z</time>
      </trkpt>
      <trkpt lat="44.31691" lon="5.17317">
        <ele>811.8</ele>
        <time>2022-07-19T08:32:56Z</time>
      </trkpt>
      <trkpt lat="44.3169" lon="5.17316">
        <ele>811.9</ele>
        <time>2022-07-19T08:32:57Z</time>
      </trkpt>
      <trkpt lat="44.31689" lon="5.17315">
        <ele>811.9</ele>
        <time>2022-07-19T08:32:58Z</time>
      </trkpt>
      <trkpt lat="44.31688" lon="5.17313">
        <ele>812</ele>
        <time>2022-07-19T08:32:59Z</time>
      </trkpt>
      <trkpt lat="44.31687" lon="5.17312">
        <ele>812</ele>
        <time>2022-07-19T08:33:00Z</time>
      </trkpt>
      <trkpt lat="44.31686" lon="5.17311">
        <ele>812.1</ele>
        <time>2022-07-19T08:33:01Z</time>
      </trkpt>
      <trkpt lat="44.31685" lon="5.17309">
        <ele>812.2</ele>
        <time>2022-07-19T08:33:02Z</time>
      </trkpt>
      <trkpt lat="44.31684" lon="5.17308">
        <ele>812.2</ele>
        <time>2022-07-19T08:33:03Z</time>
      </trkpt>
      <trkpt lat="44.31683" lon="5.17306">
        <ele>812.3</ele>
        <time>2022-07-19T08:33:04Z</time>
      </trkpt>
      <trkpt lat="44.31682" lon="5.17305">
        <ele>812.3</ele>
        <time>2022-07-19T08:33:05Z</time>
      </trkpt>
      <trkpt lat="44.31681" lon="5.17303">
        <ele>812.4</ele>
        <time>2022-07-19T08:33:06Z</time>
      </trkpt>
      <trkpt lat="44.3168" lon="5.17301">
        <ele>812.4</ele>
        <time>2022-07-19T08:33:07Z</time>
      </trkpt>
      <trkpt lat="44.31679" lon="5.17299">
        <ele>812.5</ele>
        <time>2022-07-19T08:33:08Z</time>
      </trkpt>
      <trkpt lat="44.31678" lon="5.17297">
        <ele>812.5</ele>
        <time>2022-07-19T08:33:09Z</time>
      </trkpt>
      <trkpt lat="44.31677" lon="5.17295">
        <ele>812.6</ele>
        <time>2022-07-19T08:33:10Z</time>
      </trkpt>
      <trkpt lat="44.31677" lon="5.17293">
        <ele>812.6</ele>
        <time>2022-07-19T08:33:11Z</time>
      </trkpt>
      <trkpt lat="44.31676" lon="5.17291">
        <ele>812.7</ele>
        <time>2022-07-19T08:33:12Z</time>
      </trkpt>
      <trkpt lat="44.31675" lon="5.17287">
        <ele>812.7</ele>
        <time>2022-07-19T08:33:13Z</time>
      </trkpt>
      <trkpt lat="44.31674" lon="5.17286">
        <ele>812.7</ele>
        <time>2022-07-19T08:33:14Z</time>
      </trkpt>
      <trkpt lat="44.31672" lon="5.17282">
        <ele>812.7</ele>
        <time>2022-07-19T08:33:15Z</time>
      </trkpt>
      <trkpt lat="44.31672" lon="5.17281">
        <ele>812.8</ele>
        <time>2022-07-19T08:33:16Z</time>
      </trkpt>
      <trkpt lat="44.3167" lon="5.17277">
        <ele>812.8</ele>
        <time>2022-07-19T08:33:17Z</time>
      </trkpt>
      <trkpt lat="44.31669" lon="5.17276">
        <ele>812.8</ele>
        <time>2022-07-19T08:33:18Z</time>
      </trkpt>
      <trkpt lat="44.31667" lon="5.17272">
        <ele>812.8</ele>
        <time>2022-07-19T08:33:19Z</time>
      </trkpt>
      <trkpt lat="44.31666" lon="5.17271">
        <ele>812.8</ele>
        <time>2022-07-19T08:33:20Z</time>
      </trkpt>
      <trkpt lat="44.31664" lon="5.17267">
        <ele>812.9</ele>
        <time>2022-07-19T08:33:21Z</time>
      </trkpt>
      <trkpt lat="44.31664" lon="5.17265">
        <ele>812.9</ele>
        <time>2022-07-19T08:33:22Z</time>
      </trkpt>
      <trkpt lat="44.31662" lon="5.17261">
        <ele>812.9</ele>
        <time>2022-07-19T08:33:23Z</time>
      </trkpt>
      <trkpt lat="44.31661" lon="5.1726">
        <ele>812.9</ele>
        <time>2022-07-19T08:33:24Z</time>
      </trkpt>
      <trkpt lat="44.31659" lon="5.17256">
        <ele>812.9</ele>
        <time>2022-07-19T08:33:25Z</time>
      </trkpt>
      <trkpt lat="44.31659" lon="5.17255">
        <ele>813</ele>
        <time>2022-07-19T08:33:26Z</time>
      </trkpt>
      <trkpt lat="44.31658" lon="5.17251">
        <ele>813</ele>
        <time>2022-07-19T08:33:27Z</time>
      </trkpt>
      <trkpt lat="44.31657" lon="5.1725">
        <ele>813</ele>
        <time>2022-07-19T08:33:28Z</time>
      </trkpt>
      <trkpt lat="44.31656" lon="5.17246">
        <ele>813</ele>
        <time>2022-07-19T08:33:29Z</time>
      </trkpt>
      <trkpt lat="44.31655" lon="5.17245">
        <ele>813</ele>
        <time>2022-07-19T08:33:30Z</time>
      </trkpt>
      <trkpt lat="44.31654" lon="5.17242">
        <ele>813</ele>
        <time>2022-07-19T08:33:31Z</time>
      </trkpt>
      <trkpt lat="44.31654" lon="5.1724">
        <ele>813</ele>
        <time>2022-07-19T08:33:32Z</time>
      </trkpt>
      <trkpt lat="44.31653" lon="5.17236">
        <ele>813</ele>
        <time>2022-07-19T08:33:33Z</time>
      </trkpt>
      <trkpt lat="44.31652" lon="5.17234">
        <ele>813</ele>
        <time>2022-07-19T08:33:34Z</time>
      </trkpt>
      <trkpt lat="44.3165" lon="5.1723">
        <ele>812.9</ele>
        <time>2022-07-19T08:33:35Z</time>
      </trkpt>
      <trkpt lat="44.3165" lon="5.17228">
        <ele>812.9</ele>
        <time>2022-07-19T08:33:36Z</time>
      </trkpt>
      <trkpt lat="44.31648" lon="5.17225">
        <ele>812.9</ele>
        <time>2022-07-19T08:33:37Z</time>
      </trkpt>
      <trkpt lat="44.31647" lon="5.1722">
        <ele>812.8</ele>
        <time>2022-07-19T08:33:38Z</time>
      </trkpt>
      <trkpt lat="44.31646" lon="5.17219">
        <ele>812.8</ele>
        <time>2022-07-19T08:33:39Z</time>
      </trkpt>
      <trkpt lat="44.31645" lon="5.17214">
        <ele>812.8</ele>
        <time>2022-07-19T08:33:40Z</time>
      </trkpt>
      <trkpt lat="44.31645" lon="5.17213">
        <ele>812.8</ele>
        <time>2022-07-19T08:33:41Z</time>
      </trkpt>
      <trkpt lat="44.31644" lon="5.17211">
        <ele>812.7</ele>
        <time>2022-07-19T08:33:42Z</time>
      </trkpt>
      <trkpt lat="44.31644" lon="5.1721">
        <ele>812.7</ele>
        <time>2022-07-19T08:33:43Z</time>
      </trkpt>
      <trkpt lat="44.31643" lon="5.17209">
        <ele>812.7</ele>
        <time>2022-07-19T08:33:44Z</time>
      </trkpt>
      <trkpt lat="44.31643" lon="5.17209">
        <ele>812.7</ele>
        <time>2022-07-19T08:33:45Z</time>
      </trkpt>
      <trkpt lat="44.31643" lon="5.17209">
        <ele>812.7</ele>
        <time>2022-07-19T08:33:46Z</time>
      </trkpt>
      <trkpt lat="44.31643" lon="5.17209">
        <ele>812.7</ele>
        <time>2022-07-19T08:33:47Z</time>
      </trkpt>
      <trkpt lat="44.31643" lon="5.17209">
        <ele>812.7</ele>
        <time>2022-07-19T08:33:48Z</time>
      </trkpt>
      <trkpt lat="44.31643" lon="5.17209">
        <ele>812.7</ele>
        <time>2022-07-19T08:33:49Z</time>
      </trkpt>
      <trkpt lat="44.31643" lon="5.17209">
        <ele>812.7</ele>
        <time>2022-07-19T08:33:50Z</time>
      </trkpt>
      <trkpt lat="44.31643" lon="5.17209">
        <ele>812.7</ele>
        <time>2022-07-19T08:33:51Z</time>
      </trkpt>
      <trkpt lat="44.31643" lon="5.17209">
        <ele>812.7</ele>
        <time>2022-07-19T08:33:52Z</time>
      </trkpt>
      <trkpt lat="44.31643" lon="5.17209">
        <ele>812.7</ele>
        <time>2022-07-19T08:33:53Z</time>
      </trkpt>
      <trkpt lat="44.31643" lon="5.17209">
        <ele>812.7</ele>
        <time>2022-07-19T08:33:54Z</time>
      </trkpt>
      <trkpt lat="44.3164" lon="5.17206">
        <ele>812.6</ele>
        <time>2022-07-19T08:36:14Z</time>
      </trkpt>
      <trkpt lat="44.3164" lon="5.17205">
        <ele>812.6</ele>
        <time>2022-07-19T08:36:15Z</time>
      </trkpt>
      <trkpt lat="44.31639" lon="5.17204">
        <ele>812.6</ele>
        <time>2022-07-19T08:36:16Z</time>
      </trkpt>
      <trkpt lat="44.31639" lon="5.17202">
        <ele>812.6</ele>
        <time>2022-07-19T08:36:17Z</time>
      </trkpt>
      <trkpt lat="44.31638" lon="5.17201">
        <ele>812.5</ele>
        <time>2022-07-19T08:36:18Z</time>
      </trkpt>
      <trkpt lat="44.31638" lon="5.17199">
        <ele>812.5</ele>
        <time>2022-07-19T08:36:19Z</time>
      </trkpt>
      <trkpt lat="44.31637" lon="5.17197">
        <ele>812.4</ele>
        <time>2022-07-19T08:36:20Z</time>
      </trkpt>
      <trkpt lat="44.31637" lon="5.17195">
        <ele>812.4</ele>
        <time>2022-07-19T08:36:21Z</time>
      </trkpt>
      <trkpt lat="44.31636" lon="5.17193">
        <ele>812.3</ele>
        <time>2022-07-19T08:36:22Z</time>
      </trkpt>
      <trkpt lat="44.31635" lon="5.17191">
        <ele>812.2</ele>
        <time>2022-07-19T08:36:23Z</time>
      </trkpt>
      <trkpt lat="44.31634" lon="5.17189">
        <ele>812.2</ele>
        <time>2022-07-19T08:36:24Z</time>
      </trkpt>
      <trkpt lat="44.31633" lon="5.17188">
        <ele>812.1</ele>
        <time>2022-07-19T08:36:25Z</time>
      </trkpt>
      <trkpt lat="44.31633" lon="5.17186">
        <ele>812.1</ele>
        <time>2022-07-19T08:36:26Z</time>
      </trkpt>
      <trkpt lat="44.31632" lon="5.17185">
        <ele>812</ele>
        <time>2022-07-19T08:36:27Z</time>
      </trkpt>
      <trkpt lat="44.31631" lon="5.17183">
        <ele>811.9</ele>
        <time>2022-07-19T08:36:28Z</time>
      </trkpt>
      <trkpt lat="44.31631" lon="5.17181">
        <ele>811.8</ele>
        <time>2022-07-19T08:36:29Z</time>
      </trkpt>
      <trkpt lat="44.3163" lon="5.1718">
        <ele>811.8</ele>
        <time>2022-07-19T08:36:30Z</time>
      </trkpt>
      <trkpt lat="44.3163" lon="5.17178">
        <ele>811.7</ele>
        <time>2022-07-19T08:36:31Z</time>
      </trkpt>
      <trkpt lat="44.31629" lon="5.17177">
        <ele>811.6</ele>
        <time>2022-07-19T08:36:32Z</time>
      </trkpt>
      <trkpt lat="44.31628" lon="5.17175">
        <ele>811.5</ele>
        <time>2022-07-19T08:36:33Z</time>
      </trkpt>
      <trkpt lat="44.31627" lon="5.17171">
        <ele>811.3</ele>
        <time>2022-07-19T08:36:34Z</time>
      </trkpt>
      <trkpt lat="44.31626" lon="5.1717">
        <ele>811.2</ele>
        <time>2022-07-19T08:36:35Z</time>
      </trkpt>
      <trkpt lat="44.31624" lon="5.17165">
        <ele>811</ele>
        <time>2022-07-19T08:36:36Z</time>
      </trkpt>
      <trkpt lat="44.31624" lon="5.17164">
        <ele>810.9</ele>
        <time>2022-07-19T08:36:37Z</time>
      </trkpt>
      <trkpt lat="44.31621" lon="5.17159">
        <ele>810.6</ele>
        <time>2022-07-19T08:36:38Z</time>
      </trkpt>
      <trkpt lat="44.3162" lon="5.17158">
        <ele>810.5</ele>
        <time>2022-07-19T08:36:39Z</time>
      </trkpt>
      <trkpt lat="44.31618" lon="5.17154">
        <ele>810.2</ele>
        <time>2022-07-19T08:36:40Z</time>
      </trkpt>
      <trkpt lat="44.31615" lon="5.1715">
        <ele>810</ele>
        <time>2022-07-19T08:36:41Z</time>
      </trkpt>
      <trkpt lat="44.31612" lon="5.17145">
        <ele>809.7</ele>
        <time>2022-07-19T08:36:42Z</time>
      </trkpt>
      <trkpt lat="44.31608" lon="5.17141">
        <ele>809.5</ele>
        <time>2022-07-19T08:36:43Z</time>
      </trkpt>
      <trkpt lat="44.31604" lon="5.17136">
        <ele>809.2</ele>
        <time>2022-07-19T08:36:44Z</time>
      </trkpt>
      <trkpt lat="44.316" lon="5.17131">
        <ele>809</ele>
        <time>2022-07-19T08:36:45Z</time>
      </trkpt>
      <trkpt lat="44.31596" lon="5.17126">
        <ele>808.8</ele>
        <time>2022-07-19T08:36:46Z</time>
      </trkpt>
      <trkpt lat="44.31593" lon="5.1712">
        <ele>808.7</ele>
        <time>2022-07-19T08:36:47Z</time>
      </trkpt>
      <trkpt lat="44.3159" lon="5.17117">
        <ele>808.5</ele>
        <time>2022-07-19T08:36:48Z</time>
      </trkpt>
      <trkpt lat="44.31586" lon="5.17112">
        <ele>808.4</ele>
        <time>2022-07-19T08:36:49Z</time>
      </trkpt>
      <trkpt lat="44.31583" lon="5.17109">
        <ele>808.4</ele>
        <time>2022-07-19T08:36:50Z</time>
      </trkpt>
      <trkpt lat="44.31579" lon="5.17106">
        <ele>808.3</ele>
        <time>2022-07-19T08:36:51Z</time>
      </trkpt>
      <trkpt lat="44.31577" lon="5.17102">
        <ele>808.3</ele>
        <time>2022-07-19T08:36:52Z</time>
      </trkpt>
      <trkpt lat="44.31575" lon="5.17099">
        <ele>808.2</ele>
        <time>2022-07-19T08:36:53Z</time>
      </trkpt>
      <trkpt lat="44.31572" lon="5.17095">
        <ele>808.2</ele>
        <time>2022-07-19T08:36:54Z</time>
      </trkpt>
      <trkpt lat="44.31571" lon="5.17093">
        <ele>808.2</ele>
        <time>2022-07-19T08:36:55Z</time>
      </trkpt>
      <trkpt lat="44.31568" lon="5.17091">
        <ele>808.1</ele>
        <time>2022-07-19T08:36:56Z</time>
      </trkpt>
      <trkpt lat="44.31566" lon="5.17087">
        <ele>808.1</ele>
        <time>2022-07-19T08:36:57Z</time>
      </trkpt>
      <trkpt lat="44.31564" lon="5.17084">
        <ele>808.1</ele>
        <time>2022-07-19T08:36:58Z</time>
      </trkpt>
      <trkpt lat="44.31562" lon="5.1708">
        <ele>808.1</ele>
        <time>2022-07-19T08:36:59Z</time>
      </trkpt>
      <trkpt lat="44.31559" lon="5.17077">
        <ele>808.1</ele>
        <time>2022-07-19T08:37:00Z</time>
      </trkpt>
      <trkpt lat="44.31556" lon="5.17073">
        <ele>808.1</ele>
        <time>2022-07-19T08:37:01Z</time>
      </trkpt>
      <trkpt lat="44.31553" lon="5.17068">
        <ele>808</ele>
        <time>2022-07-19T08:37:02Z</time>
      </trkpt>
      <trkpt lat="44.31549" lon="5.17064">
        <ele>807.9</ele>
        <time>2022-07-19T08:37:03Z</time>
      </trkpt>
      <trkpt lat="44.31546" lon="5.1706">
        <ele>807.7</ele>
        <time>2022-07-19T08:37:04Z</time>
      </trkpt>
      <trkpt lat="44.31543" lon="5.17055">
        <ele>807.6</ele>
        <time>2022-07-19T08:37:05Z</time>
      </trkpt>
      <trkpt lat="44.31539" lon="5.17051">
        <ele>807.4</ele>
        <time>2022-07-19T08:37:06Z</time>
      </trkpt>
      <trkpt lat="44.31535" lon="5.17045">
        <ele>807.3</ele>
        <time>2022-07-19T08:37:07Z</time>
      </trkpt>
      <trkpt lat="44.31531" lon="5.17042">
        <ele>807.2</ele>
        <time>2022-07-19T08:37:08Z</time>
      </trkpt>
      <trkpt lat="44.31528" lon="5.17038">
        <ele>807.1</ele>
        <time>2022-07-19T08:37:09Z</time>
      </trkpt>
      <trkpt lat="44.31526" lon="5.17034">
        <ele>807</ele>
        <time>2022-07-19T08:37:10Z</time>
      </trkpt>
      <trkpt lat="44.31526" lon="5.1703">
        <ele>807</ele>
        <time>2022-07-19T08:37:11Z</time>
      </trkpt>
      <trkpt lat="44.31524" lon="5.17026">
        <ele>806.9</ele>
        <time>2022-07-19T08:37:12Z</time>
      </trkpt>
      <trkpt lat="44.31523" lon="5.17025">
        <ele>806.9</ele>
        <time>2022-07-19T08:37:13Z</time>
      </trkpt>
      <trkpt lat="44.31521" lon="5.17022">
        <ele>806.8</ele>
        <time>2022-07-19T08:37:14Z</time>
      </trkpt>
      <trkpt lat="44.3152" lon="5.17021">
        <ele>806.7</ele>
        <time>2022-07-19T08:37:15Z</time>
      </trkpt>
      <trkpt lat="44.31519" lon="5.17021">
        <ele>806.5</ele>
        <time>2022-07-19T08:37:16Z</time>
      </trkpt>
      <trkpt lat="44.31519" lon="5.17022">
        <ele>806.4</ele>
        <time>2022-07-19T08:37:17Z</time>
      </trkpt>
      <trkpt lat="44.31519" lon="5.17023">
        <ele>806.3</ele>
        <time>2022-07-19T08:37:18Z</time>
      </trkpt>
      <trkpt lat="44.31518" lon="5.17024">
        <ele>806.2</ele>
        <time>2022-07-19T08:37:19Z</time>
      </trkpt>
      <trkpt lat="44.31518" lon="5.17025">
        <ele>806.1</ele>
        <time>2022-07-19T08:37:20Z</time>
      </trkpt>
      <trkpt lat="44.31518" lon="5.17025">
        <ele>806</ele>
        <time>2022-07-19T08:37:21Z</time>
      </trkpt>
      <trkpt lat="44.31517" lon="5.17026">
        <ele>805.9</ele>
        <time>2022-07-19T08:37:22Z</time>
      </trkpt>
      <trkpt lat="44.31517" lon="5.17027">
        <ele>805.7</ele>
        <time>2022-07-19T08:37:23Z</time>
      </trkpt>
      <trkpt lat="44.31517" lon="5.17028">
        <ele>805.6</ele>
        <time>2022-07-19T08:37:24Z</time>
      </trkpt>
      <trkpt lat="44.31516" lon="5.17029">
        <ele>805.5</ele>
        <time>2022-07-19T08:37:25Z</time>
      </trkpt>
      <trkpt lat="44.31516" lon="5.1703">
        <ele>805.4</ele>
        <time>2022-07-19T08:37:26Z</time>
      </trkpt>
      <trkpt lat="44.31516" lon="5.1703">
        <ele>805.3</ele>
        <time>2022-07-19T08:38:48Z</time>
      </trkpt>
      <trkpt lat="44.31515" lon="5.17031">
        <ele>805.2</ele>
        <time>2022-07-19T08:38:49Z</time>
      </trkpt>
      <trkpt lat="44.31513" lon="5.17034">
        <ele>804.7</ele>
        <time>2022-07-19T08:38:50Z</time>
      </trkpt>
      <trkpt lat="44.31509" lon="5.17036">
        <ele>804.1</ele>
        <time>2022-07-19T08:38:51Z</time>
      </trkpt>
      <trkpt lat="44.31504" lon="5.17036">
        <ele>803.4</ele>
        <time>2022-07-19T08:38:52Z</time>
      </trkpt>
      <trkpt lat="44.315" lon="5.17039">
        <ele>802.8</ele>
        <time>2022-07-19T08:38:53Z</time>
      </trkpt>
      <trkpt lat="44.31492" lon="5.1704">
        <ele>802</ele>
        <time>2022-07-19T08:38:54Z</time>
      </trkpt>
      <trkpt lat="44.31488" lon="5.17048">
        <ele>801.3</ele>
        <time>2022-07-19T08:38:55Z</time>
      </trkpt>
      <trkpt lat="44.3148" lon="5.17053">
        <ele>800.8</ele>
        <time>2022-07-19T08:38:56Z</time>
      </trkpt>
      <trkpt lat="44.31475" lon="5.17059">
        <ele>800.4</ele>
        <time>2022-07-19T08:38:57Z</time>
      </trkpt>
      <trkpt lat="44.3147" lon="5.17066">
        <ele>800.1</ele>
        <time>2022-07-19T08:38:58Z</time>
      </trkpt>
      <trkpt lat="44.31467" lon="5.17072">
        <ele>799.8</ele>
        <time>2022-07-19T08:38:59Z</time>
      </trkpt>
      <trkpt lat="44.31461" lon="5.17082">
        <ele>799.1</ele>
        <time>2022-07-19T08:39:00Z</time>
      </trkpt>
      <trkpt lat="44.31457" lon="5.1709">
        <ele>798.6</ele>
        <time>2022-07-19T08:39:01Z</time>
      </trkpt>
      <trkpt lat="44.31454" lon="5.17097">
        <ele>798</ele>
        <time>2022-07-19T08:39:02Z</time>
      </trkpt>
      <trkpt lat="44.31452" lon="5.17108">
        <ele>797</ele>
        <time>2022-07-19T08:39:03Z</time>
      </trkpt>
      <trkpt lat="44.31448" lon="5.17115">
        <ele>796.1</ele>
        <time>2022-07-19T08:39:04Z</time>
      </trkpt>
      <trkpt lat="44.31446" lon="5.17124">
        <ele>795.3</ele>
        <time>2022-07-19T08:39:05Z</time>
      </trkpt>
      <trkpt lat="44.31442" lon="5.17131">
        <ele>794.5</ele>
        <time>2022-07-19T08:39:06Z</time>
      </trkpt>
      <trkpt lat="44.31438" lon="5.17138">
        <ele>793.7</ele>
        <time>2022-07-19T08:39:07Z</time>
      </trkpt>
      <trkpt lat="44.31436" lon="5.17142">
        <ele>793.1</ele>
        <time>2022-07-19T08:39:08Z</time>
      </trkpt>
      <trkpt lat="44.31432" lon="5.17146">
        <ele>792.5</ele>
        <time>2022-07-19T08:39:09Z</time>
      </trkpt>
      <trkpt lat="44.31429" lon="5.17159">
        <ele>791.2</ele>
        <time>2022-07-19T08:39:10Z</time>
      </trkpt>
      <trkpt lat="44.31426" lon="5.17165">
        <ele>790.5</ele>
        <time>2022-07-19T08:39:11Z</time>
      </trkpt>
      <trkpt lat="44.31422" lon="5.17175">
        <ele>789.5</ele>
        <time>2022-07-19T08:39:12Z</time>
      </trkpt>
      <trkpt lat="44.3142" lon="5.17181">
        <ele>788.9</ele>
        <time>2022-07-19T08:39:13Z</time>
      </trkpt>
      <trkpt lat="44.31417" lon="5.17187">
        <ele>788.2</ele>
        <time>2022-07-19T08:39:14Z</time>
      </trkpt>
      <trkpt lat="44.31411" lon="5.17195">
        <ele>787.3</ele>
        <time>2022-07-19T08:39:15Z</time>
      </trkpt>
      <trkpt lat="44.31408" lon="5.17203">
        <ele>786.6</ele>
        <time>2022-07-19T08:39:16Z</time>
      </trkpt>
      <trkpt lat="44.31404" lon="5.17211">
        <ele>785.9</ele>
        <time>2022-07-19T08:39:17Z</time>
      </trkpt>
      <trkpt lat="44.31401" lon="5.17217">
        <ele>785.3</ele>
        <time>2022-07-19T08:39:18Z</time>
      </trkpt>
      <trkpt lat="44.31398" lon="5.17227">
        <ele>784.6</ele>
        <time>2022-07-19T08:39:19Z</time>
      </trkpt>
      <trkpt lat="44.31396" lon="5.17235">
        <ele>784.1</ele>
        <time>2022-07-19T08:39:20Z</time>
      </trkpt>
      <trkpt lat="44.31393" lon="5.17242">
        <ele>783.8</ele>
        <time>2022-07-19T08:39:21Z</time>
      </trkpt>
      <trkpt lat="44.31392" lon="5.17255">
        <ele>783.4</ele>
        <time>2022-07-19T08:39:22Z</time>
      </trkpt>
      <trkpt lat="44.31393" lon="5.17271">
        <ele>783.2</ele>
        <time>2022-07-19T08:39:23Z</time>
      </trkpt>
      <trkpt lat="44.3139" lon="5.17278">
        <ele>783.2</ele>
        <time>2022-07-19T08:39:24Z</time>
      </trkpt>
      <trkpt lat="44.31388" lon="5.17286">
        <ele>783.3</ele>
        <time>2022-07-19T08:39:25Z</time>
      </trkpt>
      <trkpt lat="44.31385" lon="5.17292">
        <ele>783.4</ele>
        <time>2022-07-19T08:39:26Z</time>
      </trkpt>
      <trkpt lat="44.31381" lon="5.17298">
        <ele>783.6</ele>
        <time>2022-07-19T08:39:27Z</time>
      </trkpt>
      <trkpt lat="44.31378" lon="5.17298">
        <ele>783.7</ele>
        <time>2022-07-19T08:39:28Z</time>
      </trkpt>
      <trkpt lat="44.31375" lon="5.17302">
        <ele>783.9</ele>
        <time>2022-07-19T08:39:29Z</time>
      </trkpt>
      <trkpt lat="44.31374" lon="5.17305">
        <ele>784</ele>
        <time>2022-07-19T08:39:30Z</time>
      </trkpt>
      <trkpt lat="44.3137" lon="5.17307">
        <ele>784.1</ele>
        <time>2022-07-19T08:39:31Z</time>
      </trkpt>
      <trkpt lat="44.31368" lon="5.17308">
        <ele>784.2</ele>
        <time>2022-07-19T08:39:32Z</time>
      </trkpt>
      <trkpt lat="44.31364" lon="5.1731">
        <ele>784.3</ele>
        <time>2022-07-19T08:39:33Z</time>
      </trkpt>
      <trkpt lat="44.31362" lon="5.17313">
        <ele>784.3</ele>
        <time>2022-07-19T08:39:34Z</time>
      </trkpt>
      <trkpt lat="44.3136" lon="5.17316">
        <ele>784.4</ele>
        <time>2022-07-19T08:39:35Z</time>
      </trkpt>
      <trkpt lat="44.31358" lon="5.1732">
        <ele>784.5</ele>
        <time>2022-07-19T08:39:36Z</time>
      </trkpt>
      <trkpt lat="44.31357" lon="5.1732">
        <ele>784.5</ele>
        <time>2022-07-19T08:39:37Z</time>
      </trkpt>
      <trkpt lat="44.31354" lon="5.17322">
        <ele>784.5</ele>
        <time>2022-07-19T08:39:38Z</time>
      </trkpt>
      <trkpt lat="44.3135" lon="5.17326">
        <ele>784.6</ele>
        <time>2022-07-19T08:39:39Z</time>
      </trkpt>
      <trkpt lat="44.31348" lon="5.17329">
        <ele>784.6</ele>
        <time>2022-07-19T08:39:40Z</time>
      </trkpt>
      <trkpt lat="44.31345" lon="5.17331">
        <ele>784.6</ele>
        <time>2022-07-19T08:39:41Z</time>
      </trkpt>
      <trkpt lat="44.31343" lon="5.17333">
        <ele>784.6</ele>
        <time>2022-07-19T08:39:42Z</time>
      </trkpt>
      <trkpt lat="44.3134" lon="5.17335">
        <ele>784.6</ele>
        <time>2022-07-19T08:39:43Z</time>
      </trkpt>
      <trkpt lat="44.31336" lon="5.17336">
        <ele>784.6</ele>
        <time>2022-07-19T08:39:44Z</time>
      </trkpt>
      <trkpt lat="44.31332" lon="5.17338">
        <ele>784.6</ele>
        <time>2022-07-19T08:39:45Z</time>
      </trkpt>
      <trkpt lat="44.3133" lon="5.1734">
        <ele>784.5</ele>
        <time>2022-07-19T08:39:46Z</time>
      </trkpt>
      <trkpt lat="44.31328" lon="5.17342">
        <ele>784.4</ele>
        <time>2022-07-19T08:39:47Z</time>
      </trkpt>
      <trkpt lat="44.31326" lon="5.17346">
        <ele>784.3</ele>
        <time>2022-07-19T08:39:48Z</time>
      </trkpt>
      <trkpt lat="44.31323" lon="5.1735">
        <ele>784.1</ele>
        <time>2022-07-19T08:39:49Z</time>
      </trkpt>
      <trkpt lat="44.3132" lon="5.17353">
        <ele>783.8</ele>
        <time>2022-07-19T08:39:50Z</time>
      </trkpt>
      <trkpt lat="44.31316" lon="5.17355">
        <ele>783.6</ele>
        <time>2022-07-19T08:39:51Z</time>
      </trkpt>
      <trkpt lat="44.31313" lon="5.17357">
        <ele>783.3</ele>
        <time>2022-07-19T08:39:52Z</time>
      </trkpt>
      <trkpt lat="44.31309" lon="5.17358">
        <ele>782.9</ele>
        <time>2022-07-19T08:39:53Z</time>
      </trkpt>
      <trkpt lat="44.31308" lon="5.17358">
        <ele>782.8</ele>
        <time>2022-07-19T08:39:54Z</time>
      </trkpt>
      <trkpt lat="44.31305" lon="5.17359">
        <ele>782.5</ele>
        <time>2022-07-19T08:39:55Z</time>
      </trkpt>
      <trkpt lat="44.31304" lon="5.17359">
        <ele>782.4</ele>
        <time>2022-07-19T08:39:56Z</time>
      </trkpt>
      <trkpt lat="44.31302" lon="5.1736">
        <ele>782.2</ele>
        <time>2022-07-19T08:39:57Z</time>
      </trkpt>
      <trkpt lat="44.31301" lon="5.1736">
        <ele>782.1</ele>
        <time>2022-07-19T08:39:58Z</time>
      </trkpt>
      <trkpt lat="44.31299" lon="5.17361">
        <ele>781.9</ele>
        <time>2022-07-19T08:39:59Z</time>
      </trkpt>
      <trkpt lat="44.31297" lon="5.17361">
        <ele>781.6</ele>
        <time>2022-07-19T08:40:00Z</time>
      </trkpt>
      <trkpt lat="44.31295" lon="5.17363">
        <ele>781.3</ele>
        <time>2022-07-19T08:40:01Z</time>
      </trkpt>
      <trkpt lat="44.31294" lon="5.17363">
        <ele>781.1</ele>
        <time>2022-07-19T08:40:02Z</time>
      </trkpt>
      <trkpt lat="44.31289" lon="5.17364">
        <ele>780.6</ele>
        <time>2022-07-19T08:40:03Z</time>
      </trkpt>
      <trkpt lat="44.31287" lon="5.17365">
        <ele>780.3</ele>
        <time>2022-07-19T08:40:04Z</time>
      </trkpt>
      <trkpt lat="44.31282" lon="5.17365">
        <ele>779.7</ele>
        <time>2022-07-19T08:40:05Z</time>
      </trkpt>
      <trkpt lat="44.31278" lon="5.17364">
        <ele>779.1</ele>
        <time>2022-07-19T08:40:06Z</time>
      </trkpt>
      <trkpt lat="44.31269" lon="5.17364">
        <ele>778.1</ele>
        <time>2022-07-19T08:40:07Z</time>
      </trkpt>
      <trkpt lat="44.31264" lon="5.17362">
        <ele>777.4</ele>
        <time>2022-07-19T08:40:08Z</time>
      </trkpt>
      <trkpt lat="44.31256" lon="5.17362">
        <ele>776.6</ele>
        <time>2022-07-19T08:40:09Z</time>
      </trkpt>
      <trkpt lat="44.31249" lon="5.1736">
        <ele>775.9</ele>
        <time>2022-07-19T08:40:10Z</time>
      </trkpt>
      <trkpt lat="44.31242" lon="5.17356">
        <ele>775.2</ele>
        <time>2022-07-19T08:40:11Z</time>
      </trkpt>
      <trkpt lat="44.31234" lon="5.17353">
        <ele>774.5</ele>
        <time>2022-07-19T08:40:12Z</time>
      </trkpt>
      <trkpt lat="44.31228" lon="5.17351">
        <ele>773.9</ele>
        <time>2022-07-19T08:40:13Z</time>
      </trkpt>
      <trkpt lat="44.3122" lon="5.1735">
        <ele>773.2</ele>
        <time>2022-07-19T08:40:14Z</time>
      </trkpt>
      <trkpt lat="44.31217" lon="5.17348">
        <ele>772.9</ele>
        <time>2022-07-19T08:40:15Z</time>
      </trkpt>
      <trkpt lat="44.31215" lon="5.17345">
        <ele>772.6</ele>
        <time>2022-07-19T08:40:16Z</time>
      </trkpt>
      <trkpt lat="44.31214" lon="5.17344">
        <ele>772.5</ele>
        <time>2022-07-19T08:40:17Z</time>
      </trkpt>
      <trkpt lat="44.3121" lon="5.17342">
        <ele>772.1</ele>
        <time>2022-07-19T08:40:18Z</time>
      </trkpt>
      <trkpt lat="44.31204" lon="5.17342">
        <ele>771.5</ele>
        <time>2022-07-19T08:40:19Z</time>
      </trkpt>
      <trkpt lat="44.312" lon="5.17338">
        <ele>771</ele>
        <time>2022-07-19T08:40:20Z</time>
      </trkpt>
      <trkpt lat="44.31194" lon="5.17333">
        <ele>770.2</ele>
        <time>2022-07-19T08:40:21Z</time>
      </trkpt>
      <trkpt lat="44.31187" lon="5.17325">
        <ele>769.3</ele>
        <time>2022-07-19T08:40:22Z</time>
      </trkpt>
      <trkpt lat="44.31182" lon="5.17321">
        <ele>768.8</ele>
        <time>2022-07-19T08:40:23Z</time>
      </trkpt>
      <trkpt lat="44.31176" lon="5.17318">
        <ele>768.2</ele>
        <time>2022-07-19T08:40:24Z</time>
      </trkpt>
      <trkpt lat="44.31171" lon="5.17313">
        <ele>767.7</ele>
        <time>2022-07-19T08:40:25Z</time>
      </trkpt>
      <trkpt lat="44.31166" lon="5.17309">
        <ele>767.2</ele>
        <time>2022-07-19T08:40:26Z</time>
      </trkpt>
      <trkpt lat="44.31161" lon="5.17307">
        <ele>766.7</ele>
        <time>2022-07-19T08:40:27Z</time>
      </trkpt>
      <trkpt lat="44.31154" lon="5.17303">
        <ele>765.9</ele>
        <time>2022-07-19T08:40:28Z</time>
      </trkpt>
      <trkpt lat="44.3115" lon="5.17298">
        <ele>765.3</ele>
        <time>2022-07-19T08:40:29Z</time>
      </trkpt>
      <trkpt lat="44.31147" lon="5.17296">
        <ele>764.8</ele>
        <time>2022-07-19T08:40:30Z</time>
      </trkpt>
      <trkpt lat="44.31142" lon="5.17295">
        <ele>764.2</ele>
        <time>2022-07-19T08:40:31Z</time>
      </trkpt>
      <trkpt lat="44.3114" lon="5.17294">
        <ele>763.9</ele>
        <time>2022-07-19T08:40:32Z</time>
      </trkpt>
      <trkpt lat="44.31135" lon="5.17295">
        <ele>763.2</ele>
        <time>2022-07-19T08:40:33Z</time>
      </trkpt>
      <trkpt lat="44.31131" lon="5.17295">
        <ele>762.7</ele>
        <time>2022-07-19T08:40:34Z</time>
      </trkpt>
      <trkpt lat="44.31129" lon="5.17295">
        <ele>762.5</ele>
        <time>2022-07-19T08:40:35Z</time>
      </trkpt>
      <trkpt lat="44.31124" lon="5.17295">
        <ele>761.9</ele>
        <time>2022-07-19T08:40:36Z</time>
      </trkpt>
      <trkpt lat="44.31121" lon="5.17296">
        <ele>761.6</ele>
        <time>2022-07-19T08:40:37Z</time>
      </trkpt>
      <trkpt lat="44.3112" lon="5.17296">
        <ele>761.5</ele>
        <time>2022-07-19T08:40:38Z</time>
      </trkpt>
      <trkpt lat="44.31119" lon="5.17296">
        <ele>761.3</ele>
        <time>2022-07-19T08:40:39Z</time>
      </trkpt>
      <trkpt lat="44.31118" lon="5.17295">
        <ele>761.2</ele>
        <time>2022-07-19T08:40:40Z</time>
      </trkpt>
      <trkpt lat="44.31117" lon="5.17295">
        <ele>761.2</ele>
        <time>2022-07-19T08:40:41Z</time>
      </trkpt>
      <trkpt lat="44.31116" lon="5.17294">
        <ele>761.1</ele>
        <time>2022-07-19T08:40:42Z</time>
      </trkpt>
      <trkpt lat="44.31115" lon="5.17294">
        <ele>761.1</ele>
        <time>2022-07-19T08:40:43Z</time>
      </trkpt>
      <trkpt lat="44.31114" lon="5.17293">
        <ele>761.1</ele>
        <time>2022-07-19T08:40:44Z</time>
      </trkpt>
      <trkpt lat="44.31113" lon="5.17293">
        <ele>761</ele>
        <time>2022-07-19T08:40:45Z</time>
      </trkpt>
      <trkpt lat="44.31112" lon="5.17292">
        <ele>761</ele>
        <time>2022-07-19T08:40:46Z</time>
      </trkpt>
      <trkpt lat="44.31112" lon="5.17292">
        <ele>760.9</ele>
        <time>2022-07-19T08:40:47Z</time>
      </trkpt>
      <trkpt lat="44.31111" lon="5.17291">
        <ele>760.9</ele>
        <time>2022-07-19T08:40:48Z</time>
      </trkpt>
      <trkpt lat="44.3111" lon="5.17291">
        <ele>760.9</ele>
        <time>2022-07-19T08:45:39Z</time>
      </trkpt>
      <trkpt lat="44.31109" lon="5.1729">
        <ele>760.8</ele>
        <time>2022-07-19T08:45:40Z</time>
      </trkpt>
      <trkpt lat="44.31105" lon="5.17289">
        <ele>760.7</ele>
        <time>2022-07-19T08:45:41Z</time>
      </trkpt>
      <trkpt lat="44.31101" lon="5.17288">
        <ele>760.6</ele>
        <time>2022-07-19T08:45:42Z</time>
      </trkpt>
      <trkpt lat="44.31097" lon="5.17287">
        <ele>760.5</ele>
        <time>2022-07-19T08:45:43Z</time>
      </trkpt>
      <trkpt lat="44.31093" lon="5.17285">
        <ele>760.4</ele>
        <time>2022-07-19T08:45:44Z</time>
      </trkpt>
      <trkpt lat="44.31089" lon="5.17283">
        <ele>760.4</ele>
        <time>2022-07-19T08:45:45Z</time>
      </trkpt>
      <trkpt lat="44.31085" lon="5.17282">
        <ele>760.4</ele>
        <time>2022-07-19T08:45:46Z</time>
      </trkpt>
      <trkpt lat="44.31082" lon="5.1728">
        <ele>760.3</ele>
        <time>2022-07-19T08:45:47Z</time>
      </trkpt>
      <trkpt lat="44.3108" lon="5.17278">
        <ele>760.3</ele>
        <time>2022-07-19T08:45:48Z</time>
      </trkpt>
      <trkpt lat="44.31076" lon="5.17275">
        <ele>760.4</ele>
        <time>2022-07-19T08:45:49Z</time>
      </trkpt>
      <trkpt lat="44.31075" lon="5.17275">
        <ele>760.4</ele>
        <time>2022-07-19T08:45:50Z</time>
      </trkpt>
      <trkpt lat="44.31074" lon="5.17273">
        <ele>760.4</ele>
        <time>2022-07-19T08:45:51Z</time>
      </trkpt>
      <trkpt lat="44.31072" lon="5.17272">
        <ele>760.4</ele>
        <time>2022-07-19T08:45:52Z</time>
      </trkpt>
      <trkpt lat="44.31069" lon="5.1727">
        <ele>760.5</ele>
        <time>2022-07-19T08:45:53Z</time>
      </trkpt>
      <trkpt lat="44.31067" lon="5.1727">
        <ele>760.5</ele>
        <time>2022-07-19T08:45:54Z</time>
      </trkpt>
      <trkpt lat="44.31063" lon="5.17269">
        <ele>760.6</ele>
        <time>2022-07-19T08:45:55Z</time>
      </trkpt>
      <trkpt lat="44.31059" lon="5.1727">
        <ele>760.7</ele>
        <time>2022-07-19T08:45:56Z</time>
      </trkpt>
      <trkpt lat="44.31056" lon="5.17271">
        <ele>760.8</ele>
        <time>2022-07-19T08:45:57Z</time>
      </trkpt>
      <trkpt lat="44.31052" lon="5.17273">
        <ele>761</ele>
        <time>2022-07-19T08:45:58Z</time>
      </trkpt>
      <trkpt lat="44.31048" lon="5.17274">
        <ele>761.1</ele>
        <time>2022-07-19T08:45:59Z</time>
      </trkpt>
      <trkpt lat="44.31044" lon="5.17275">
        <ele>761.3</ele>
        <time>2022-07-19T08:46:00Z</time>
      </trkpt>
      <trkpt lat="44.31041" lon="5.17276">
        <ele>761.4</ele>
        <time>2022-07-19T08:46:01Z</time>
      </trkpt>
      <trkpt lat="44.31037" lon="5.17276">
        <ele>761.6</ele>
        <time>2022-07-19T08:46:02Z</time>
      </trkpt>
      <trkpt lat="44.31034" lon="5.17277">
        <ele>761.8</ele>
        <time>2022-07-19T08:46:03Z</time>
      </trkpt>
      <trkpt lat="44.3103" lon="5.17277">
        <ele>761.9</ele>
        <time>2022-07-19T08:46:04Z</time>
      </trkpt>
      <trkpt lat="44.31027" lon="5.17278">
        <ele>762.1</ele>
        <time>2022-07-19T08:46:05Z</time>
      </trkpt>
      <trkpt lat="44.31023" lon="5.17279">
        <ele>762.3</ele>
        <time>2022-07-19T08:46:06Z</time>
      </trkpt>
      <trkpt lat="44.3102" lon="5.1728">
        <ele>762.4</ele>
        <time>2022-07-19T08:46:07Z</time>
      </trkpt>
      <trkpt lat="44.31017" lon="5.17281">
        <ele>762.6</ele>
        <time>2022-07-19T08:46:08Z</time>
      </trkpt>
      <trkpt lat="44.31014" lon="5.17282">
        <ele>762.7</ele>
        <time>2022-07-19T08:46:09Z</time>
      </trkpt>
      <trkpt lat="44.31011" lon="5.17283">
        <ele>762.9</ele>
        <time>2022-07-19T08:46:10Z</time>
      </trkpt>
      <trkpt lat="44.31008" lon="5.17285">
        <ele>763</ele>
        <time>2022-07-19T08:46:11Z</time>
      </trkpt>
      <trkpt lat="44.31006" lon="5.17286">
        <ele>763.1</ele>
        <time>2022-07-19T08:46:12Z</time>
      </trkpt>
      <trkpt lat="44.31002" lon="5.17288">
        <ele>763.3</ele>
        <time>2022-07-19T08:46:13Z</time>
      </trkpt>
      <trkpt lat="44.31001" lon="5.17289">
        <ele>763.3</ele>
        <time>2022-07-19T08:46:14Z</time>
      </trkpt>
      <trkpt lat="44.30998" lon="5.17291">
        <ele>763.4</ele>
        <time>2022-07-19T08:46:15Z</time>
      </trkpt>
      <trkpt lat="44.30997" lon="5.17291">
        <ele>763.4</ele>
        <time>2022-07-19T08:46:16Z</time>
      </trkpt>
      <trkpt lat="44.30993" lon="5.17293">
        <ele>763.5</ele>
        <time>2022-07-19T08:46:17Z</time>
      </trkpt>
      <trkpt lat="44.30992" lon="5.17294">
        <ele>763.5</ele>
        <time>2022-07-19T08:46:18Z</time>
      </trkpt>
      <trkpt lat="44.30989" lon="5.17297">
        <ele>763.5</ele>
        <time>2022-07-19T08:46:19Z</time>
      </trkpt>
      <trkpt lat="44.30988" lon="5.17298">
        <ele>763.5</ele>
        <time>2022-07-19T08:46:20Z</time>
      </trkpt>
      <trkpt lat="44.30985" lon="5.173">
        <ele>763.5</ele>
        <time>2022-07-19T08:46:21Z</time>
      </trkpt>
      <trkpt lat="44.30984" lon="5.17301">
        <ele>763.5</ele>
        <time>2022-07-19T08:46:22Z</time>
      </trkpt>
      <trkpt lat="44.30982" lon="5.17303">
        <ele>763.4</ele>
        <time>2022-07-19T08:46:23Z</time>
      </trkpt>
      <trkpt lat="44.30978" lon="5.17306">
        <ele>763.3</ele>
        <time>2022-07-19T08:46:24Z</time>
      </trkpt>
      <trkpt lat="44.30977" lon="5.17306">
        <ele>763.3</ele>
        <time>2022-07-19T08:46:25Z</time>
      </trkpt>
      <trkpt lat="44.30973" lon="5.17309">
        <ele>763.1</ele>
        <time>2022-07-19T08:46:26Z</time>
      </trkpt>
      <trkpt lat="44.30972" lon="5.1731">
        <ele>763</ele>
        <time>2022-07-19T08:46:27Z</time>
      </trkpt>
      <trkpt lat="44.30969" lon="5.17313">
        <ele>762.8</ele>
        <time>2022-07-19T08:46:28Z</time>
      </trkpt>
      <trkpt lat="44.30968" lon="5.17314">
        <ele>762.8</ele>
        <time>2022-07-19T08:46:29Z</time>
      </trkpt>
      <trkpt lat="44.30965" lon="5.17317">
        <ele>762.5</ele>
        <time>2022-07-19T08:46:30Z</time>
      </trkpt>
      <trkpt lat="44.30961" lon="5.1732">
        <ele>762.2</ele>
        <time>2022-07-19T08:46:31Z</time>
      </trkpt>
      <trkpt lat="44.30956" lon="5.17322">
        <ele>761.9</ele>
        <time>2022-07-19T08:46:32Z</time>
      </trkpt>
      <trkpt lat="44.30952" lon="5.17324">
        <ele>761.6</ele>
        <time>2022-07-19T08:46:33Z</time>
      </trkpt>
      <trkpt lat="44.30948" lon="5.17325">
        <ele>761.2</ele>
        <time>2022-07-19T08:46:34Z</time>
      </trkpt>
      <trkpt lat="44.30943" lon="5.17326">
        <ele>760.9</ele>
        <time>2022-07-19T08:46:35Z</time>
      </trkpt>
      <trkpt lat="44.30939" lon="5.17326">
        <ele>760.6</ele>
        <time>2022-07-19T08:46:36Z</time>
      </trkpt>
      <trkpt lat="44.30937" lon="5.17326">
        <ele>760.4</ele>
        <time>2022-07-19T08:46:37Z</time>
      </trkpt>
      <trkpt lat="44.30932" lon="5.17325">
        <ele>760</ele>
        <time>2022-07-19T08:46:38Z</time>
      </trkpt>
      <trkpt lat="44.30931" lon="5.17325">
        <ele>759.9</ele>
        <time>2022-07-19T08:46:39Z</time>
      </trkpt>
      <trkpt lat="44.30928" lon="5.17325">
        <ele>759.6</ele>
        <time>2022-07-19T08:46:40Z</time>
      </trkpt>
      <trkpt lat="44.30925" lon="5.17326">
        <ele>759.3</ele>
        <time>2022-07-19T08:46:41Z</time>
      </trkpt>
      <trkpt lat="44.30921" lon="5.17328">
        <ele>758.9</ele>
        <time>2022-07-19T08:46:42Z</time>
      </trkpt>
      <trkpt lat="44.30913" lon="5.17336">
        <ele>757.6</ele>
        <time>2022-07-19T08:46:43Z</time>
      </trkpt>
      <trkpt lat="44.30907" lon="5.17339">
        <ele>756.7</ele>
        <time>2022-07-19T08:46:44Z</time>
      </trkpt>
      <trkpt lat="44.30903" lon="5.17341">
        <ele>756.1</ele>
        <time>2022-07-19T08:46:45Z</time>
      </trkpt>
      <trkpt lat="44.30898" lon="5.17343">
        <ele>755.4</ele>
        <time>2022-07-19T08:46:46Z</time>
      </trkpt>
      <trkpt lat="44.30895" lon="5.17342">
        <ele>755</ele>
        <time>2022-07-19T08:46:47Z</time>
      </trkpt>
      <trkpt lat="44.30894" lon="5.17343">
        <ele>754.8</ele>
        <time>2022-07-19T08:46:48Z</time>
      </trkpt>
      <trkpt lat="44.30889" lon="5.17344">
        <ele>754.2</ele>
        <time>2022-07-19T08:46:49Z</time>
      </trkpt>
      <trkpt lat="44.30887" lon="5.17345">
        <ele>753.9</ele>
        <time>2022-07-19T08:46:50Z</time>
      </trkpt>
      <trkpt lat="44.30884" lon="5.17343">
        <ele>753.4</ele>
        <time>2022-07-19T08:46:51Z</time>
      </trkpt>
      <trkpt lat="44.30881" lon="5.17342">
        <ele>752.9</ele>
        <time>2022-07-19T08:46:52Z</time>
      </trkpt>
      <trkpt lat="44.30879" lon="5.17342">
        <ele>752.6</ele>
        <time>2022-07-19T08:46:53Z</time>
      </trkpt>
      <trkpt lat="44.30877" lon="5.17341">
        <ele>752.4</ele>
        <time>2022-07-19T08:46:54Z</time>
      </trkpt>
      <trkpt lat="44.30876" lon="5.1734">
        <ele>752</ele>
        <time>2022-07-19T08:46:55Z</time>
      </trkpt>
      <trkpt lat="44.30873" lon="5.17338">
        <ele>751.4</ele>
        <time>2022-07-19T08:46:56Z</time>
      </trkpt>
      <trkpt lat="44.3087" lon="5.17335">
        <ele>750.7</ele>
        <time>2022-07-19T08:46:57Z</time>
      </trkpt>
      <trkpt lat="44.30866" lon="5.17332">
        <ele>749.9</ele>
        <time>2022-07-19T08:46:58Z</time>
      </trkpt>
      <trkpt lat="44.30862" lon="5.1733">
        <ele>748.9</ele>
        <time>2022-07-19T08:46:59Z</time>
      </trkpt>
      <trkpt lat="44.30858" lon="5.17328">
        <ele>748</ele>
        <time>2022-07-19T08:47:00Z</time>
      </trkpt>
      <trkpt lat="44.30848" lon="5.17329">
        <ele>745.5</ele>
        <time>2022-07-19T08:47:01Z</time>
      </trkpt>
      <trkpt lat="44.30843" lon="5.17329">
        <ele>744.3</ele>
        <time>2022-07-19T08:47:02Z</time>
      </trkpt>
      <trkpt lat="44.30839" lon="5.17324">
        <ele>742.9</ele>
        <time>2022-07-19T08:47:03Z</time>
      </trkpt>
      <trkpt lat="44.30833" lon="5.1732">
        <ele>741.3</ele>
        <time>2022-07-19T08:47:04Z</time>
      </trkpt>
      <trkpt lat="44.30827" lon="5.17315">
        <ele>739.6</ele>
        <time>2022-07-19T08:47:05Z</time>
      </trkpt>
      <trkpt lat="44.30822" lon="5.1731">
        <ele>738.3</ele>
        <time>2022-07-19T08:47:06Z</time>
      </trkpt>
      <trkpt lat="44.30816" lon="5.17302">
        <ele>736.3</ele>
        <time>2022-07-19T08:47:07Z</time>
      </trkpt>
      <trkpt lat="44.30811" lon="5.17296">
        <ele>734.7</ele>
        <time>2022-07-19T08:47:08Z</time>
      </trkpt>
      <trkpt lat="44.30807" lon="5.1729">
        <ele>733.1</ele>
        <time>2022-07-19T08:47:09Z</time>
      </trkpt>
      <trkpt lat="44.30782" lon="5.17281">
        <ele>728.2</ele>
        <time>2022-07-19T08:47:10Z</time>
      </trkpt>
      <trkpt lat="44.30778" lon="5.17279">
        <ele>727.5</ele>
        <time>2022-07-19T08:47:11Z</time>
      </trkpt>
      <trkpt lat="44.30768" lon="5.17279">
        <ele>726.2</ele>
        <time>2022-07-19T08:47:12Z</time>
      </trkpt>
      <trkpt lat="44.30764" lon="5.17276">
        <ele>725.8</ele>
        <time>2022-07-19T08:47:13Z</time>
      </trkpt>
      <trkpt lat="44.30758" lon="5.17274">
        <ele>725.1</ele>
        <time>2022-07-19T08:47:14Z</time>
      </trkpt>
      <trkpt lat="44.30753" lon="5.17272">
        <ele>724.4</ele>
        <time>2022-07-19T08:47:15Z</time>
      </trkpt>
      <trkpt lat="44.30748" lon="5.1727">
        <ele>723.8</ele>
        <time>2022-07-19T08:47:16Z</time>
      </trkpt>
      <trkpt lat="44.30743" lon="5.17267">
        <ele>722.9</ele>
        <time>2022-07-19T08:47:17Z</time>
      </trkpt>
      <trkpt lat="44.30736" lon="5.17266">
        <ele>721.7</ele>
        <time>2022-07-19T08:47:18Z</time>
      </trkpt>
      <trkpt lat="44.30731" lon="5.17264">
        <ele>720.5</ele>
        <time>2022-07-19T08:47:19Z</time>
      </trkpt>
      <trkpt lat="44.30722" lon="5.17259">
        <ele>718.1</ele>
        <time>2022-07-19T08:47:20Z</time>
      </trkpt>
      <trkpt lat="44.30716" lon="5.17256">
        <ele>716.6</ele>
        <time>2022-07-19T08:47:21Z</time>
      </trkpt>
      <trkpt lat="44.30703" lon="5.1725">
        <ele>713.6</ele>
        <time>2022-07-19T08:47:22Z</time>
      </trkpt>
      <trkpt lat="44.30693" lon="5.17251">
        <ele>711.8</ele>
        <time>2022-07-19T08:47:23Z</time>
      </trkpt>
      <trkpt lat="44.30688" lon="5.1725">
        <ele>711</ele>
        <time>2022-07-19T08:47:24Z</time>
      </trkpt>
      <trkpt lat="44.30683" lon="5.17248">
        <ele>710.4</ele>
        <time>2022-07-19T08:47:25Z</time>
      </trkpt>
      <trkpt lat="44.30681" lon="5.17248">
        <ele>710.1</ele>
        <time>2022-07-19T08:47:26Z</time>
      </trkpt>
      <trkpt lat="44.30684" lon="5.17256">
        <ele>709.4</ele>
        <time>2022-07-19T08:47:27Z</time>
      </trkpt>
      <trkpt lat="44.30682" lon="5.17256">
        <ele>709.2</ele>
        <time>2022-07-19T08:47:28Z</time>
      </trkpt>
      <trkpt lat="44.30682" lon="5.17256">
        <ele>709.2</ele>
        <time>2022-07-19T08:47:29Z</time>
      </trkpt>
      <trkpt lat="44.30681" lon="5.17256">
        <ele>709.2</ele>
        <time>2022-07-19T08:47:30Z</time>
      </trkpt>
      <trkpt lat="44.30681" lon="5.17255">
        <ele>709.1</ele>
        <time>2022-07-19T08:47:31Z</time>
      </trkpt>
      <trkpt lat="44.30681" lon="5.17255">
        <ele>709.1</ele>
        <time>2022-07-19T08:47:32Z</time>
      </trkpt>
      <trkpt lat="44.3068" lon="5.17255">
        <ele>709</ele>
        <time>2022-07-19T08:47:33Z</time>
      </trkpt>
      <trkpt lat="44.3068" lon="5.17255">
        <ele>709</ele>
        <time>2022-07-19T08:47:34Z</time>
      </trkpt>
      <trkpt lat="44.30679" lon="5.17255">
        <ele>709</ele>
        <time>2022-07-19T08:47:35Z</time>
      </trkpt>
      <trkpt lat="44.30679" lon="5.17255">
        <ele>708.9</ele>
        <time>2022-07-19T08:47:36Z</time>
      </trkpt>
      <trkpt lat="44.30679" lon="5.17255">
        <ele>708.9</ele>
        <time>2022-07-19T08:47:37Z</time>
      </trkpt>
      <trkpt lat="44.30678" lon="5.17255">
        <ele>708.9</ele>
        <time>2022-07-19T08:47:38Z</time>
      </trkpt>
      <trkpt lat="44.30675" lon="5.17254">
        <ele>708.9</ele>
        <time>2022-07-19T08:47:42Z</time>
      </trkpt>
      <trkpt lat="44.30675" lon="5.17253">
        <ele>708.6</ele>
        <time>2022-07-19T08:47:43Z</time>
      </trkpt>
      <trkpt lat="44.30674" lon="5.17252">
        <ele>708.6</ele>
        <time>2022-07-19T08:47:44Z</time>
      </trkpt>
      <trkpt lat="44.30674" lon="5.17251">
        <ele>708.5</ele>
        <time>2022-07-19T08:47:45Z</time>
      </trkpt>
      <trkpt lat="44.30673" lon="5.17251">
        <ele>708.5</ele>
        <time>2022-07-19T08:47:46Z</time>
      </trkpt>
      <trkpt lat="44.30672" lon="5.17251">
        <ele>708.5</ele>
        <time>2022-07-19T08:47:47Z</time>
      </trkpt>
      <trkpt lat="44.30671" lon="5.1725">
        <ele>708.5</ele>
        <time>2022-07-19T08:47:48Z</time>
      </trkpt>
      <trkpt lat="44.30671" lon="5.1725">
        <ele>708.5</ele>
        <time>2022-07-19T08:47:49Z</time>
      </trkpt>
      <trkpt lat="44.30671" lon="5.17252">
        <ele>708.4</ele>
        <time>2022-07-19T08:47:50Z</time>
      </trkpt>
      <trkpt lat="44.30671" lon="5.17252">
        <ele>708.4</ele>
        <time>2022-07-19T08:47:51Z</time>
      </trkpt>
      <trkpt lat="44.30671" lon="5.17252">
        <ele>708.4</ele>
        <time>2022-07-19T08:47:52Z</time>
      </trkpt>
      <trkpt lat="44.30671" lon="5.17252">
        <ele>708.4</ele>
        <time>2022-07-19T08:47:53Z</time>
      </trkpt>
      <trkpt lat="44.30671" lon="5.17252">
        <ele>708.4</ele>
        <time>2022-07-19T08:47:54Z</time>
      </trkpt>
      <trkpt lat="44.30671" lon="5.17252">
        <ele>708.4</ele>
        <time>2022-07-19T08:47:55Z</time>
      </trkpt>
      <trkpt lat="44.30671" lon="5.17252">
        <ele>708.4</ele>
        <time>2022-07-19T08:47:56Z</time>
      </trkpt>
      <trkpt lat="44.30671" lon="5.17252">
        <ele>708.4</ele>
        <time>2022-07-19T08:47:57Z</time>
      </trkpt>
      <trkpt lat="44.30671" lon="5.17252">
        <ele>708.4</ele>
        <time>2022-07-19T08:47:58Z</time>
      </trkpt>
      <trkpt lat="44.30671" lon="5.17252">
        <ele>708.4</ele>
        <time>2022-07-19T08:47:59Z</time>
      </trkpt>
      <trkpt lat="44.30671" lon="5.17252">
        <ele>708.4</ele>
        <time>2022-07-19T08:48:00Z</time>
      </trkpt>
      <trkpt lat="44.30668" lon="5.17247">
        <ele>708.4</ele>
        <time>2022-07-19T08:49:33Z</time>
      </trkpt>
      <trkpt lat="44.30668" lon="5.17246">
        <ele>708.3</ele>
        <time>2022-07-19T08:49:34Z</time>
      </trkpt>
      <trkpt lat="44.30668" lon="5.17244">
        <ele>708.3</ele>
        <time>2022-07-19T08:49:35Z</time>
      </trkpt>
      <trkpt lat="44.30667" lon="5.17243">
        <ele>708.3</ele>
        <time>2022-07-19T08:49:36Z</time>
      </trkpt>
      <trkpt lat="44.30667" lon="5.17243">
        <ele>708.3</ele>
        <time>2022-07-19T08:49:37Z</time>
      </trkpt>
      <trkpt lat="44.30667" lon="5.17243">
        <ele>708.3</ele>
        <time>2022-07-19T08:49:38Z</time>
      </trkpt>
      <trkpt lat="44.30667" lon="5.17244">
        <ele>708.3</ele>
        <time>2022-07-19T08:49:39Z</time>
      </trkpt>
      <trkpt lat="44.30667" lon="5.17244">
        <ele>708.3</ele>
        <time>2022-07-19T08:49:40Z</time>
      </trkpt>
      <trkpt lat="44.30668" lon="5.17245">
        <ele>708.3</ele>
        <time>2022-07-19T08:49:41Z</time>
      </trkpt>
      <trkpt lat="44.30668" lon="5.17244">
        <ele>708.3</ele>
        <time>2022-07-19T08:49:42Z</time>
      </trkpt>
      <trkpt lat="44.30667" lon="5.17243">
        <ele>708.3</ele>
        <time>2022-07-19T08:49:43Z</time>
      </trkpt>
      <trkpt lat="44.30667" lon="5.17242">
        <ele>708.3</ele>
        <time>2022-07-19T08:49:44Z</time>
      </trkpt>
      <trkpt lat="44.30667" lon="5.17242">
        <ele>708.3</ele>
        <time>2022-07-19T08:49:45Z</time>
      </trkpt>
      <trkpt lat="44.30667" lon="5.17243">
        <ele>708.3</ele>
        <time>2022-07-19T08:49:46Z</time>
      </trkpt>
      <trkpt lat="44.30666" lon="5.17243">
        <ele>708.3</ele>
        <time>2022-07-19T08:49:47Z</time>
      </trkpt>
      <trkpt lat="44.30666" lon="5.17242">
        <ele>708.3</ele>
        <time>2022-07-19T08:49:48Z</time>
      </trkpt>
      <trkpt lat="44.30667" lon="5.17242">
        <ele>708.3</ele>
        <time>2022-07-19T08:49:49Z</time>
      </trkpt>
      <trkpt lat="44.30667" lon="5.17242">
        <ele>708.3</ele>
        <time>2022-07-19T08:49:50Z</time>
      </trkpt>
      <trkpt lat="44.30667" lon="5.17242">
        <ele>708.3</ele>
        <time>2022-07-19T08:49:51Z</time>
      </trkpt>
      <trkpt lat="44.30668" lon="5.17242">
        <ele>708.3</ele>
        <time>2022-07-19T08:49:52Z</time>
      </trkpt>
      <trkpt lat="44.30668" lon="5.17242">
        <ele>708.3</ele>
        <time>2022-07-19T08:49:53Z</time>
      </trkpt>
      <trkpt lat="44.30669" lon="5.17241">
        <ele>708.3</ele>
        <time>2022-07-19T08:49:54Z</time>
      </trkpt>
      <trkpt lat="44.30668" lon="5.1724">
        <ele>708.3</ele>
        <time>2022-07-19T08:49:55Z</time>
      </trkpt>
      <trkpt lat="44.30668" lon="5.17238">
        <ele>708.3</ele>
        <time>2022-07-19T08:49:56Z</time>
      </trkpt>
      <trkpt lat="44.30667" lon="5.17236">
        <ele>708.4</ele>
        <time>2022-07-19T08:49:57Z</time>
      </trkpt>
      <trkpt lat="44.30666" lon="5.17232">
        <ele>708.4</ele>
        <time>2022-07-19T08:49:58Z</time>
      </trkpt>
      <trkpt lat="44.30665" lon="5.17231">
        <ele>708.4</ele>
        <time>2022-07-19T08:49:59Z</time>
      </trkpt>
      <trkpt lat="44.30663" lon="5.17228">
        <ele>708.5</ele>
        <time>2022-07-19T08:50:00Z</time>
      </trkpt>
      <trkpt lat="44.30662" lon="5.17227">
        <ele>708.5</ele>
        <time>2022-07-19T08:50:01Z</time>
      </trkpt>
      <trkpt lat="44.30661" lon="5.17224">
        <ele>708.5</ele>
        <time>2022-07-19T08:50:02Z</time>
      </trkpt>
      <trkpt lat="44.30661" lon="5.17223">
        <ele>708.6</ele>
        <time>2022-07-19T08:50:03Z</time>
      </trkpt>
      <trkpt lat="44.30659" lon="5.17218">
        <ele>708.7</ele>
        <time>2022-07-19T08:50:04Z</time>
      </trkpt>
      <trkpt lat="44.30659" lon="5.17217">
        <ele>708.7</ele>
        <time>2022-07-19T08:50:05Z</time>
      </trkpt>
      <trkpt lat="44.30658" lon="5.17212">
        <ele>708.8</ele>
        <time>2022-07-19T08:50:06Z</time>
      </trkpt>
      <trkpt lat="44.30657" lon="5.17211">
        <ele>708.8</ele>
        <time>2022-07-19T08:50:07Z</time>
      </trkpt>
      <trkpt lat="44.30656" lon="5.17206">
        <ele>708.9</ele>
        <time>2022-07-19T08:50:08Z</time>
      </trkpt>
      <trkpt lat="44.30655" lon="5.17205">
        <ele>709</ele>
        <time>2022-07-19T08:50:09Z</time>
      </trkpt>
      <trkpt lat="44.30653" lon="5.17201">
        <ele>709.1</ele>
        <time>2022-07-19T08:50:10Z</time>
      </trkpt>
      <trkpt lat="44.30653" lon="5.172">
        <ele>709.1</ele>
        <time>2022-07-19T08:50:11Z</time>
      </trkpt>
      <trkpt lat="44.30652" lon="5.17199">
        <ele>709.1</ele>
        <time>2022-07-19T08:50:12Z</time>
      </trkpt>
      <trkpt lat="44.30651" lon="5.17197">
        <ele>709.2</ele>
        <time>2022-07-19T08:50:13Z</time>
      </trkpt>
      <trkpt lat="44.3065" lon="5.17195">
        <ele>709.3</ele>
        <time>2022-07-19T08:50:14Z</time>
      </trkpt>
      <trkpt lat="44.3065" lon="5.17193">
        <ele>709.3</ele>
        <time>2022-07-19T08:50:15Z</time>
      </trkpt>
      <trkpt lat="44.30649" lon="5.17191">
        <ele>709.4</ele>
        <time>2022-07-19T08:50:16Z</time>
      </trkpt>
      <trkpt lat="44.30648" lon="5.17189">
        <ele>709.5</ele>
        <time>2022-07-19T08:50:17Z</time>
      </trkpt>
      <trkpt lat="44.30646" lon="5.17185">
        <ele>709.6</ele>
        <time>2022-07-19T08:50:18Z</time>
      </trkpt>
      <trkpt lat="44.30646" lon="5.17184">
        <ele>709.7</ele>
        <time>2022-07-19T08:50:19Z</time>
      </trkpt>
      <trkpt lat="44.30645" lon="5.17183">
        <ele>709.7</ele>
        <time>2022-07-19T08:50:20Z</time>
      </trkpt>
      <trkpt lat="44.30644" lon="5.17182">
        <ele>709.8</ele>
        <time>2022-07-19T08:50:21Z</time>
      </trkpt>
      <trkpt lat="44.30643" lon="5.1718">
        <ele>709.8</ele>
        <time>2022-07-19T08:50:22Z</time>
      </trkpt>
      <trkpt lat="44.30642" lon="5.17179">
        <ele>709.9</ele>
        <time>2022-07-19T08:50:23Z</time>
      </trkpt>
      <trkpt lat="44.30641" lon="5.17177">
        <ele>710</ele>
        <time>2022-07-19T08:50:24Z</time>
      </trkpt>
      <trkpt lat="44.3064" lon="5.17176">
        <ele>710.1</ele>
        <time>2022-07-19T08:50:25Z</time>
      </trkpt>
      <trkpt lat="44.30639" lon="5.17175">
        <ele>710.2</ele>
        <time>2022-07-19T08:50:26Z</time>
      </trkpt>
      <trkpt lat="44.30636" lon="5.17173">
        <ele>710.3</ele>
        <time>2022-07-19T08:50:27Z</time>
      </trkpt>
      <trkpt lat="44.30636" lon="5.17172">
        <ele>710.4</ele>
        <time>2022-07-19T08:50:28Z</time>
      </trkpt>
      <trkpt lat="44.30634" lon="5.17171">
        <ele>710.5</ele>
        <time>2022-07-19T08:50:29Z</time>
      </trkpt>
      <trkpt lat="44.30633" lon="5.17169">
        <ele>710.5</ele>
        <time>2022-07-19T08:50:30Z</time>
      </trkpt>
      <trkpt lat="44.30632" lon="5.17168">
        <ele>710.6</ele>
        <time>2022-07-19T08:50:31Z</time>
      </trkpt>
      <trkpt lat="44.30631" lon="5.17167">
        <ele>710.7</ele>
        <time>2022-07-19T08:50:32Z</time>
      </trkpt>
      <trkpt lat="44.3063" lon="5.17166">
        <ele>710.8</ele>
        <time>2022-07-19T08:50:33Z</time>
      </trkpt>
      <trkpt lat="44.30629" lon="5.17165">
        <ele>710.9</ele>
        <time>2022-07-19T08:50:34Z</time>
      </trkpt>
      <trkpt lat="44.30628" lon="5.17163">
        <ele>711.1</ele>
        <time>2022-07-19T08:50:35Z</time>
      </trkpt>
      <trkpt lat="44.30626" lon="5.1716">
        <ele>711.4</ele>
        <time>2022-07-19T08:50:36Z</time>
      </trkpt>
      <trkpt lat="44.30625" lon="5.1716">
        <ele>711.6</ele>
        <time>2022-07-19T08:50:37Z</time>
      </trkpt>
      <trkpt lat="44.30624" lon="5.17159">
        <ele>711.7</ele>
        <time>2022-07-19T08:50:38Z</time>
      </trkpt>
      <trkpt lat="44.30622" lon="5.17157">
        <ele>711.9</ele>
        <time>2022-07-19T08:50:39Z</time>
      </trkpt>
      <trkpt lat="44.30621" lon="5.17156">
        <ele>712.1</ele>
        <time>2022-07-19T08:50:40Z</time>
      </trkpt>
      <trkpt lat="44.3062" lon="5.17155">
        <ele>712.2</ele>
        <time>2022-07-19T08:50:41Z</time>
      </trkpt>
      <trkpt lat="44.30618" lon="5.17154">
        <ele>712.4</ele>
        <time>2022-07-19T08:50:42Z</time>
      </trkpt>
      <trkpt lat="44.30617" lon="5.17153">
        <ele>712.5</ele>
        <time>2022-07-19T08:50:43Z</time>
      </trkpt>
      <trkpt lat="44.30616" lon="5.17152">
        <ele>712.7</ele>
        <time>2022-07-19T08:50:44Z</time>
      </trkpt>
      <trkpt lat="44.30615" lon="5.17151">
        <ele>712.9</ele>
        <time>2022-07-19T08:50:45Z</time>
      </trkpt>
      <trkpt lat="44.30614" lon="5.17149">
        <ele>713.1</ele>
        <time>2022-07-19T08:50:46Z</time>
      </trkpt>
      <trkpt lat="44.30613" lon="5.17147">
        <ele>713.3</ele>
        <time>2022-07-19T08:50:47Z</time>
      </trkpt>
      <trkpt lat="44.30612" lon="5.17145">
        <ele>713.5</ele>
        <time>2022-07-19T08:50:48Z</time>
      </trkpt>
      <trkpt lat="44.30611" lon="5.17144">
        <ele>713.6</ele>
        <time>2022-07-19T08:50:49Z</time>
      </trkpt>
      <trkpt lat="44.30611" lon="5.17143">
        <ele>713.7</ele>
        <time>2022-07-19T08:50:50Z</time>
      </trkpt>
      <trkpt lat="44.3061" lon="5.17141">
        <ele>713.8</ele>
        <time>2022-07-19T08:50:51Z</time>
      </trkpt>
      <trkpt lat="44.30609" lon="5.1714">
        <ele>714</ele>
        <time>2022-07-19T08:50:52Z</time>
      </trkpt>
      <trkpt lat="44.30607" lon="5.17138">
        <ele>714.3</ele>
        <time>2022-07-19T08:50:53Z</time>
      </trkpt>
      <trkpt lat="44.30607" lon="5.17137">
        <ele>714.4</ele>
        <time>2022-07-19T08:50:54Z</time>
      </trkpt>
      <trkpt lat="44.30606" lon="5.17137">
        <ele>714.5</ele>
        <time>2022-07-19T08:50:55Z</time>
      </trkpt>
      <trkpt lat="44.30604" lon="5.17135">
        <ele>714.7</ele>
        <time>2022-07-19T08:50:56Z</time>
      </trkpt>
      <trkpt lat="44.30603" lon="5.17134">
        <ele>714.8</ele>
        <time>2022-07-19T08:50:57Z</time>
      </trkpt>
      <trkpt lat="44.30602" lon="5.17133">
        <ele>715</ele>
        <time>2022-07-19T08:50:58Z</time>
      </trkpt>
      <trkpt lat="44.30598" lon="5.17131">
        <ele>715.4</ele>
        <time>2022-07-19T08:50:59Z</time>
      </trkpt>
      <trkpt lat="44.30597" lon="5.1713">
        <ele>715.5</ele>
        <time>2022-07-19T08:51:00Z</time>
      </trkpt>
      <trkpt lat="44.30596" lon="5.17129">
        <ele>715.7</ele>
        <time>2022-07-19T08:51:01Z</time>
      </trkpt>
      <trkpt lat="44.30594" lon="5.17128">
        <ele>715.8</ele>
        <time>2022-07-19T08:51:02Z</time>
      </trkpt>
      <trkpt lat="44.30593" lon="5.17126">
        <ele>716</ele>
        <time>2022-07-19T08:51:03Z</time>
      </trkpt>
      <trkpt lat="44.30592" lon="5.17125">
        <ele>716.1</ele>
        <time>2022-07-19T08:51:04Z</time>
      </trkpt>
      <trkpt lat="44.30591" lon="5.17123">
        <ele>716.3</ele>
        <time>2022-07-19T08:51:05Z</time>
      </trkpt>
      <trkpt lat="44.30589" lon="5.17122">
        <ele>716.5</ele>
        <time>2022-07-19T08:51:06Z</time>
      </trkpt>
      <trkpt lat="44.30587" lon="5.1712">
        <ele>716.7</ele>
        <time>2022-07-19T08:51:07Z</time>
      </trkpt>
      <trkpt lat="44.30586" lon="5.17119">
        <ele>716.8</ele>
        <time>2022-07-19T08:51:08Z</time>
      </trkpt>
      <trkpt lat="44.30583" lon="5.17117">
        <ele>717.1</ele>
        <time>2022-07-19T08:51:09Z</time>
      </trkpt>
      <trkpt lat="44.30582" lon="5.17117">
        <ele>717.2</ele>
        <time>2022-07-19T08:51:10Z</time>
      </trkpt>
      <trkpt lat="44.30579" lon="5.17115">
        <ele>717.5</ele>
        <time>2022-07-19T08:51:11Z</time>
      </trkpt>
      <trkpt lat="44.30578" lon="5.17114">
        <ele>717.7</ele>
        <time>2022-07-19T08:51:12Z</time>
      </trkpt>
      <trkpt lat="44.30575" lon="5.17113">
        <ele>717.9</ele>
        <time>2022-07-19T08:51:13Z</time>
      </trkpt>
      <trkpt lat="44.30574" lon="5.17112">
        <ele>718</ele>
        <time>2022-07-19T08:51:14Z</time>
      </trkpt>
      <trkpt lat="44.30573" lon="5.17111">
        <ele>718.2</ele>
        <time>2022-07-19T08:51:15Z</time>
      </trkpt>
      <trkpt lat="44.30572" lon="5.1711">
        <ele>718.3</ele>
        <time>2022-07-19T08:51:16Z</time>
      </trkpt>
      <trkpt lat="44.30571" lon="5.17109">
        <ele>718.4</ele>
        <time>2022-07-19T08:51:17Z</time>
      </trkpt>
      <trkpt lat="44.3057" lon="5.17108">
        <ele>718.5</ele>
        <time>2022-07-19T08:51:18Z</time>
      </trkpt>
      <trkpt lat="44.30569" lon="5.17107">
        <ele>718.6</ele>
        <time>2022-07-19T08:51:19Z</time>
      </trkpt>
      <trkpt lat="44.30568" lon="5.17105">
        <ele>718.7</ele>
        <time>2022-07-19T08:51:20Z</time>
      </trkpt>
      <trkpt lat="44.30567" lon="5.17104">
        <ele>718.9</ele>
        <time>2022-07-19T08:51:21Z</time>
      </trkpt>
      <trkpt lat="44.30565" lon="5.17103">
        <ele>719</ele>
        <time>2022-07-19T08:51:22Z</time>
      </trkpt>
      <trkpt lat="44.30564" lon="5.17102">
        <ele>719.2</ele>
        <time>2022-07-19T08:51:23Z</time>
      </trkpt>
      <trkpt lat="44.30563" lon="5.17101">
        <ele>719.3</ele>
        <time>2022-07-19T08:51:24Z</time>
      </trkpt>
      <trkpt lat="44.30562" lon="5.171">
        <ele>719.4</ele>
        <time>2022-07-19T08:51:25Z</time>
      </trkpt>
      <trkpt lat="44.30562" lon="5.17098">
        <ele>719.5</ele>
        <time>2022-07-19T08:51:26Z</time>
      </trkpt>
      <trkpt lat="44.3056" lon="5.17096">
        <ele>719.8</ele>
        <time>2022-07-19T08:51:27Z</time>
      </trkpt>
      <trkpt lat="44.3056" lon="5.17095">
        <ele>719.9</ele>
        <time>2022-07-19T08:51:28Z</time>
      </trkpt>
      <trkpt lat="44.30559" lon="5.17094">
        <ele>720</ele>
        <time>2022-07-19T08:51:29Z</time>
      </trkpt>
      <trkpt lat="44.30557" lon="5.17093">
        <ele>720.2</ele>
        <time>2022-07-19T08:51:30Z</time>
      </trkpt>
      <trkpt lat="44.30556" lon="5.17093">
        <ele>720.3</ele>
        <time>2022-07-19T08:51:31Z</time>
      </trkpt>
      <trkpt lat="44.30554" lon="5.17092">
        <ele>720.6</ele>
        <time>2022-07-19T08:51:32Z</time>
      </trkpt>
      <trkpt lat="44.30553" lon="5.17091">
        <ele>720.6</ele>
        <time>2022-07-19T08:51:33Z</time>
      </trkpt>
      <trkpt lat="44.30552" lon="5.1709">
        <ele>720.7</ele>
        <time>2022-07-19T08:51:34Z</time>
      </trkpt>
      <trkpt lat="44.30551" lon="5.17089">
        <ele>720.9</ele>
        <time>2022-07-19T08:51:35Z</time>
      </trkpt>
      <trkpt lat="44.30549" lon="5.17089">
        <ele>721.1</ele>
        <time>2022-07-19T08:51:36Z</time>
      </trkpt>
      <trkpt lat="44.30548" lon="5.17088">
        <ele>721.3</ele>
        <time>2022-07-19T08:51:37Z</time>
      </trkpt>
      <trkpt lat="44.30546" lon="5.17087">
        <ele>721.5</ele>
        <time>2022-07-19T08:51:38Z</time>
      </trkpt>
      <trkpt lat="44.30544" lon="5.17085">
        <ele>721.8</ele>
        <time>2022-07-19T08:51:39Z</time>
      </trkpt>
      <trkpt lat="44.30543" lon="5.17085">
        <ele>721.9</ele>
        <time>2022-07-19T08:51:40Z</time>
      </trkpt>
      <trkpt lat="44.30541" lon="5.17083">
        <ele>722.1</ele>
        <time>2022-07-19T08:51:41Z</time>
      </trkpt>
      <trkpt lat="44.3054" lon="5.17082">
        <ele>722.2</ele>
        <time>2022-07-19T08:51:42Z</time>
      </trkpt>
      <trkpt lat="44.30539" lon="5.17082">
        <ele>722.4</ele>
        <time>2022-07-19T08:51:43Z</time>
      </trkpt>
      <trkpt lat="44.30537" lon="5.17081">
        <ele>722.6</ele>
        <time>2022-07-19T08:51:44Z</time>
      </trkpt>
      <trkpt lat="44.30535" lon="5.1708">
        <ele>722.8</ele>
        <time>2022-07-19T08:51:45Z</time>
      </trkpt>
      <trkpt lat="44.30534" lon="5.1708">
        <ele>722.9</ele>
        <time>2022-07-19T08:51:46Z</time>
      </trkpt>
      <trkpt lat="44.30531" lon="5.17079">
        <ele>723.2</ele>
        <time>2022-07-19T08:51:47Z</time>
      </trkpt>
      <trkpt lat="44.3053" lon="5.17079">
        <ele>723.4</ele>
        <time>2022-07-19T08:51:48Z</time>
      </trkpt>
      <trkpt lat="44.30528" lon="5.17078">
        <ele>723.6</ele>
        <time>2022-07-19T08:51:49Z</time>
      </trkpt>
      <trkpt lat="44.30526" lon="5.17078">
        <ele>723.7</ele>
        <time>2022-07-19T08:51:50Z</time>
      </trkpt>
      <trkpt lat="44.30526" lon="5.17078">
        <ele>723.8</ele>
        <time>2022-07-19T08:51:51Z</time>
      </trkpt>
      <trkpt lat="44.30525" lon="5.17078">
        <ele>724</ele>
        <time>2022-07-19T08:51:52Z</time>
      </trkpt>
      <trkpt lat="44.30523" lon="5.17077">
        <ele>724.1</ele>
        <time>2022-07-19T08:51:53Z</time>
      </trkpt>
      <trkpt lat="44.30522" lon="5.17077">
        <ele>724.3</ele>
        <time>2022-07-19T08:51:54Z</time>
      </trkpt>
      <trkpt lat="44.3052" lon="5.17076">
        <ele>724.5</ele>
        <time>2022-07-19T08:51:55Z</time>
      </trkpt>
      <trkpt lat="44.3052" lon="5.17076">
        <ele>724.5</ele>
        <time>2022-07-19T08:51:56Z</time>
      </trkpt>
      <trkpt lat="44.30519" lon="5.17075">
        <ele>724.7</ele>
        <time>2022-07-19T08:51:57Z</time>
      </trkpt>
      <trkpt lat="44.30518" lon="5.17074">
        <ele>724.8</ele>
        <time>2022-07-19T08:51:58Z</time>
      </trkpt>
      <trkpt lat="44.30516" lon="5.17074">
        <ele>725</ele>
        <time>2022-07-19T08:51:59Z</time>
      </trkpt>
      <trkpt lat="44.30515" lon="5.17073">
        <ele>725.2</ele>
        <time>2022-07-19T08:52:00Z</time>
      </trkpt>
      <trkpt lat="44.30512" lon="5.17073">
        <ele>725.5</ele>
        <time>2022-07-19T08:52:01Z</time>
      </trkpt>
      <trkpt lat="44.30511" lon="5.17073">
        <ele>725.6</ele>
        <time>2022-07-19T08:52:02Z</time>
      </trkpt>
      <trkpt lat="44.3051" lon="5.17073">
        <ele>725.8</ele>
        <time>2022-07-19T08:52:03Z</time>
      </trkpt>
      <trkpt lat="44.30508" lon="5.17073">
        <ele>725.9</ele>
        <time>2022-07-19T08:52:04Z</time>
      </trkpt>
      <trkpt lat="44.30507" lon="5.17073">
        <ele>726.1</ele>
        <time>2022-07-19T08:52:05Z</time>
      </trkpt>
      <trkpt lat="44.30505" lon="5.17073">
        <ele>726.3</ele>
        <time>2022-07-19T08:52:06Z</time>
      </trkpt>
      <trkpt lat="44.30504" lon="5.17073">
        <ele>726.4</ele>
        <time>2022-07-19T08:52:07Z</time>
      </trkpt>
      <trkpt lat="44.30503" lon="5.17073">
        <ele>726.5</ele>
        <time>2022-07-19T08:52:08Z</time>
      </trkpt>
      <trkpt lat="44.30501" lon="5.17073">
        <ele>726.8</ele>
        <time>2022-07-19T08:52:09Z</time>
      </trkpt>
      <trkpt lat="44.305" lon="5.17073">
        <ele>726.9</ele>
        <time>2022-07-19T08:52:10Z</time>
      </trkpt>
      <trkpt lat="44.305" lon="5.17072">
        <ele>727</ele>
        <time>2022-07-19T08:52:11Z</time>
      </trkpt>
      <trkpt lat="44.30498" lon="5.17072">
        <ele>727.1</ele>
        <time>2022-07-19T08:52:12Z</time>
      </trkpt>
      <trkpt lat="44.30497" lon="5.17072">
        <ele>727.2</ele>
        <time>2022-07-19T08:52:13Z</time>
      </trkpt>
      <trkpt lat="44.30496" lon="5.17071">
        <ele>727.3</ele>
        <time>2022-07-19T08:52:14Z</time>
      </trkpt>
      <trkpt lat="44.30496" lon="5.17071">
        <ele>727.4</ele>
        <time>2022-07-19T08:52:15Z</time>
      </trkpt>
      <trkpt lat="44.30495" lon="5.1707">
        <ele>727.5</ele>
        <time>2022-07-19T08:52:16Z</time>
      </trkpt>
      <trkpt lat="44.30495" lon="5.17069">
        <ele>727.6</ele>
        <time>2022-07-19T08:52:17Z</time>
      </trkpt>
      <trkpt lat="44.30494" lon="5.17068">
        <ele>727.6</ele>
        <time>2022-07-19T08:52:18Z</time>
      </trkpt>
      <trkpt lat="44.30494" lon="5.17067">
        <ele>727.7</ele>
        <time>2022-07-19T08:52:19Z</time>
      </trkpt>
      <trkpt lat="44.30493" lon="5.17066">
        <ele>728.2</ele>
        <time>2022-07-19T08:52:20Z</time>
      </trkpt>
      <trkpt lat="44.30492" lon="5.17064">
        <ele>728.3</ele>
        <time>2022-07-19T08:52:21Z</time>
      </trkpt>
      <trkpt lat="44.30491" lon="5.17063">
        <ele>728.4</ele>
        <time>2022-07-19T08:52:22Z</time>
      </trkpt>
      <trkpt lat="44.3049" lon="5.17062">
        <ele>728.5</ele>
        <time>2022-07-19T08:52:23Z</time>
      </trkpt>
      <trkpt lat="44.30489" lon="5.17062">
        <ele>728.5</ele>
        <time>2022-07-19T08:52:24Z</time>
      </trkpt>
      <trkpt lat="44.30489" lon="5.1706">
        <ele>728.6</ele>
        <time>2022-07-19T08:52:25Z</time>
      </trkpt>
      <trkpt lat="44.30488" lon="5.17059">
        <ele>728.7</ele>
        <time>2022-07-19T08:52:26Z</time>
      </trkpt>
      <trkpt lat="44.30488" lon="5.17058">
        <ele>728.8</ele>
        <time>2022-07-19T08:52:27Z</time>
      </trkpt>
      <trkpt lat="44.30487" lon="5.17057">
        <ele>728.8</ele>
        <time>2022-07-19T08:52:28Z</time>
      </trkpt>
      <trkpt lat="44.30486" lon="5.17056">
        <ele>729.2</ele>
        <time>2022-07-19T08:52:29Z</time>
      </trkpt>
      <trkpt lat="44.30486" lon="5.17055">
        <ele>729.3</ele>
        <time>2022-07-19T08:52:30Z</time>
      </trkpt>
      <trkpt lat="44.30485" lon="5.17054">
        <ele>729.3</ele>
        <time>2022-07-19T08:52:31Z</time>
      </trkpt>
      <trkpt lat="44.30484" lon="5.17052">
        <ele>729.4</ele>
        <time>2022-07-19T08:52:32Z</time>
      </trkpt>
      <trkpt lat="44.30483" lon="5.17051">
        <ele>729.5</ele>
        <time>2022-07-19T08:52:33Z</time>
      </trkpt>
      <trkpt lat="44.30482" lon="5.1705">
        <ele>729.5</ele>
        <time>2022-07-19T08:52:34Z</time>
      </trkpt>
      <trkpt lat="44.30481" lon="5.17049">
        <ele>729.6</ele>
        <time>2022-07-19T08:52:35Z</time>
      </trkpt>
      <trkpt lat="44.3048" lon="5.17047">
        <ele>729.7</ele>
        <time>2022-07-19T08:52:36Z</time>
      </trkpt>
      <trkpt lat="44.30479" lon="5.17046">
        <ele>729.7</ele>
        <time>2022-07-19T08:52:37Z</time>
      </trkpt>
      <trkpt lat="44.30478" lon="5.17044">
        <ele>729.8</ele>
        <time>2022-07-19T08:52:38Z</time>
      </trkpt>
      <trkpt lat="44.30477" lon="5.17042">
        <ele>729.9</ele>
        <time>2022-07-19T08:52:39Z</time>
      </trkpt>
      <trkpt lat="44.30477" lon="5.1704">
        <ele>729.9</ele>
        <time>2022-07-19T08:52:40Z</time>
      </trkpt>
      <trkpt lat="44.30476" lon="5.17039">
        <ele>730</ele>
        <time>2022-07-19T08:52:41Z</time>
      </trkpt>
      <trkpt lat="44.30475" lon="5.17037">
        <ele>730.1</ele>
        <time>2022-07-19T08:52:42Z</time>
      </trkpt>
      <trkpt lat="44.30474" lon="5.17036">
        <ele>730.2</ele>
        <time>2022-07-19T08:52:43Z</time>
      </trkpt>
      <trkpt lat="44.30473" lon="5.17034">
        <ele>730.3</ele>
        <time>2022-07-19T08:52:44Z</time>
      </trkpt>
      <trkpt lat="44.30472" lon="5.17032">
        <ele>730.3</ele>
        <time>2022-07-19T08:52:45Z</time>
      </trkpt>
      <trkpt lat="44.30471" lon="5.1703">
        <ele>730.4</ele>
        <time>2022-07-19T08:52:46Z</time>
      </trkpt>
      <trkpt lat="44.3047" lon="5.17028">
        <ele>730.5</ele>
        <time>2022-07-19T08:52:47Z</time>
      </trkpt>
      <trkpt lat="44.30469" lon="5.17027">
        <ele>730.6</ele>
        <time>2022-07-19T08:52:48Z</time>
      </trkpt>
      <trkpt lat="44.30468" lon="5.17025">
        <ele>730.7</ele>
        <time>2022-07-19T08:52:49Z</time>
      </trkpt>
      <trkpt lat="44.30467" lon="5.17023">
        <ele>730.8</ele>
        <time>2022-07-19T08:52:50Z</time>
      </trkpt>
      <trkpt lat="44.30466" lon="5.17022">
        <ele>730.9</ele>
        <time>2022-07-19T08:52:51Z</time>
      </trkpt>
      <trkpt lat="44.30465" lon="5.1702">
        <ele>731</ele>
        <time>2022-07-19T08:52:52Z</time>
      </trkpt>
      <trkpt lat="44.30463" lon="5.17019">
        <ele>731</ele>
        <time>2022-07-19T08:52:53Z</time>
      </trkpt>
      <trkpt lat="44.30462" lon="5.17017">
        <ele>731.1</ele>
        <time>2022-07-19T08:52:54Z</time>
      </trkpt>
      <trkpt lat="44.30461" lon="5.17016">
        <ele>731.2</ele>
        <time>2022-07-19T08:52:55Z</time>
      </trkpt>
      <trkpt lat="44.3046" lon="5.17014">
        <ele>731.3</ele>
        <time>2022-07-19T08:52:56Z</time>
      </trkpt>
      <trkpt lat="44.30459" lon="5.17013">
        <ele>731.4</ele>
        <time>2022-07-19T08:52:57Z</time>
      </trkpt>
      <trkpt lat="44.30458" lon="5.17011">
        <ele>731.5</ele>
        <time>2022-07-19T08:52:58Z</time>
      </trkpt>
      <trkpt lat="44.30457" lon="5.1701">
        <ele>731.6</ele>
        <time>2022-07-19T08:52:59Z</time>
      </trkpt>
      <trkpt lat="44.30456" lon="5.17008">
        <ele>731.7</ele>
        <time>2022-07-19T08:53:00Z</time>
      </trkpt>
      <trkpt lat="44.30455" lon="5.17005">
        <ele>731.8</ele>
        <time>2022-07-19T08:53:01Z</time>
      </trkpt>
      <trkpt lat="44.30454" lon="5.17004">
        <ele>731.9</ele>
        <time>2022-07-19T08:53:02Z</time>
      </trkpt>
      <trkpt lat="44.30454" lon="5.17003">
        <ele>731.9</ele>
        <time>2022-07-19T08:53:03Z</time>
      </trkpt>
      <trkpt lat="44.30453" lon="5.17002">
        <ele>732</ele>
        <time>2022-07-19T08:53:04Z</time>
      </trkpt>
      <trkpt lat="44.30452" lon="5.17">
        <ele>732.1</ele>
        <time>2022-07-19T08:53:05Z</time>
      </trkpt>
      <trkpt lat="44.30451" lon="5.16997">
        <ele>732.2</ele>
        <time>2022-07-19T08:53:06Z</time>
      </trkpt>
      <trkpt lat="44.30451" lon="5.16996">
        <ele>732.3</ele>
        <time>2022-07-19T08:53:07Z</time>
      </trkpt>
      <trkpt lat="44.30451" lon="5.16995">
        <ele>732.3</ele>
        <time>2022-07-19T08:53:08Z</time>
      </trkpt>
      <trkpt lat="44.30451" lon="5.16993">
        <ele>732.4</ele>
        <time>2022-07-19T08:53:09Z</time>
      </trkpt>
      <trkpt lat="44.30451" lon="5.1699">
        <ele>732.5</ele>
        <time>2022-07-19T08:53:10Z</time>
      </trkpt>
      <trkpt lat="44.3045" lon="5.16988">
        <ele>732.6</ele>
        <time>2022-07-19T08:53:11Z</time>
      </trkpt>
      <trkpt lat="44.3045" lon="5.16986">
        <ele>732.7</ele>
        <time>2022-07-19T08:53:12Z</time>
      </trkpt>
      <trkpt lat="44.3045" lon="5.16984">
        <ele>732.7</ele>
        <time>2022-07-19T08:53:13Z</time>
      </trkpt>
      <trkpt lat="44.3045" lon="5.16982">
        <ele>732.8</ele>
        <time>2022-07-19T08:53:14Z</time>
      </trkpt>
      <trkpt lat="44.30449" lon="5.1698">
        <ele>732.9</ele>
        <time>2022-07-19T08:53:15Z</time>
      </trkpt>
      <trkpt lat="44.30449" lon="5.16978">
        <ele>733</ele>
        <time>2022-07-19T08:53:16Z</time>
      </trkpt>
      <trkpt lat="44.30448" lon="5.16974">
        <ele>733.2</ele>
        <time>2022-07-19T08:53:17Z</time>
      </trkpt>
      <trkpt lat="44.30448" lon="5.16973">
        <ele>733.2</ele>
        <time>2022-07-19T08:53:18Z</time>
      </trkpt>
      <trkpt lat="44.30447" lon="5.16971">
        <ele>733.3</ele>
        <time>2022-07-19T08:53:19Z</time>
      </trkpt>
      <trkpt lat="44.30446" lon="5.16969">
        <ele>733.4</ele>
        <time>2022-07-19T08:53:20Z</time>
      </trkpt>
      <trkpt lat="44.30446" lon="5.16967">
        <ele>733.5</ele>
        <time>2022-07-19T08:53:21Z</time>
      </trkpt>
      <trkpt lat="44.30445" lon="5.16965">
        <ele>733.6</ele>
        <time>2022-07-19T08:53:22Z</time>
      </trkpt>
      <trkpt lat="44.30445" lon="5.16963">
        <ele>733.7</ele>
        <time>2022-07-19T08:53:23Z</time>
      </trkpt>
      <trkpt lat="44.30444" lon="5.16961">
        <ele>733.8</ele>
        <time>2022-07-19T08:53:24Z</time>
      </trkpt>
      <trkpt lat="44.30443" lon="5.16959">
        <ele>734</ele>
        <time>2022-07-19T08:53:25Z</time>
      </trkpt>
      <trkpt lat="44.30443" lon="5.16956">
        <ele>734.1</ele>
        <time>2022-07-19T08:53:26Z</time>
      </trkpt>
      <trkpt lat="44.30442" lon="5.16953">
        <ele>734.3</ele>
        <time>2022-07-19T08:53:27Z</time>
      </trkpt>
      <trkpt lat="44.30441" lon="5.16951">
        <ele>734.4</ele>
        <time>2022-07-19T08:53:28Z</time>
      </trkpt>
      <trkpt lat="44.30441" lon="5.16949">
        <ele>734.5</ele>
        <time>2022-07-19T08:53:29Z</time>
      </trkpt>
      <trkpt lat="44.3044" lon="5.16947">
        <ele>734.7</ele>
        <time>2022-07-19T08:53:30Z</time>
      </trkpt>
      <trkpt lat="44.30438" lon="5.16944">
        <ele>734.9</ele>
        <time>2022-07-19T08:53:31Z</time>
      </trkpt>
      <trkpt lat="44.30437" lon="5.16942">
        <ele>735.1</ele>
        <time>2022-07-19T08:53:32Z</time>
      </trkpt>
      <trkpt lat="44.30436" lon="5.16939">
        <ele>735.3</ele>
        <time>2022-07-19T08:53:33Z</time>
      </trkpt>
      <trkpt lat="44.30435" lon="5.16938">
        <ele>735.4</ele>
        <time>2022-07-19T08:53:34Z</time>
      </trkpt>
      <trkpt lat="44.30435" lon="5.16936">
        <ele>735.6</ele>
        <time>2022-07-19T08:53:35Z</time>
      </trkpt>
      <trkpt lat="44.30434" lon="5.16934">
        <ele>735.7</ele>
        <time>2022-07-19T08:53:36Z</time>
      </trkpt>
      <trkpt lat="44.30433" lon="5.16932">
        <ele>735.9</ele>
        <time>2022-07-19T08:53:37Z</time>
      </trkpt>
      <trkpt lat="44.30433" lon="5.1693">
        <ele>736</ele>
        <time>2022-07-19T08:53:38Z</time>
      </trkpt>
      <trkpt lat="44.30432" lon="5.16928">
        <ele>736.1</ele>
        <time>2022-07-19T08:53:39Z</time>
      </trkpt>
      <trkpt lat="44.30431" lon="5.16927">
        <ele>736.3</ele>
        <time>2022-07-19T08:53:40Z</time>
      </trkpt>
      <trkpt lat="44.30429" lon="5.16925">
        <ele>736.5</ele>
        <time>2022-07-19T08:53:41Z</time>
      </trkpt>
      <trkpt lat="44.30428" lon="5.16924">
        <ele>736.6</ele>
        <time>2022-07-19T08:53:42Z</time>
      </trkpt>
      <trkpt lat="44.30425" lon="5.16922">
        <ele>737</ele>
        <time>2022-07-19T08:53:43Z</time>
      </trkpt>
      <trkpt lat="44.30424" lon="5.16922">
        <ele>737.1</ele>
        <time>2022-07-19T08:53:44Z</time>
      </trkpt>
      <trkpt lat="44.30422" lon="5.1692">
        <ele>737.3</ele>
        <time>2022-07-19T08:53:45Z</time>
      </trkpt>
      <trkpt lat="44.30422" lon="5.16919">
        <ele>737.3</ele>
        <time>2022-07-19T08:53:46Z</time>
      </trkpt>
      <trkpt lat="44.30421" lon="5.16919">
        <ele>737.4</ele>
        <time>2022-07-19T08:53:47Z</time>
      </trkpt>
      <trkpt lat="44.3042" lon="5.16918">
        <ele>737.6</ele>
        <time>2022-07-19T08:53:48Z</time>
      </trkpt>
      <trkpt lat="44.30418" lon="5.16917">
        <ele>737.7</ele>
        <time>2022-07-19T08:53:49Z</time>
      </trkpt>
      <trkpt lat="44.30417" lon="5.16916">
        <ele>737.9</ele>
        <time>2022-07-19T08:53:50Z</time>
      </trkpt>
      <trkpt lat="44.30416" lon="5.16916">
        <ele>738</ele>
        <time>2022-07-19T08:53:51Z</time>
      </trkpt>
      <trkpt lat="44.30414" lon="5.16915">
        <ele>738.2</ele>
        <time>2022-07-19T08:53:52Z</time>
      </trkpt>
      <trkpt lat="44.30413" lon="5.16914">
        <ele>738.3</ele>
        <time>2022-07-19T08:53:53Z</time>
      </trkpt>
      <trkpt lat="44.30412" lon="5.16913">
        <ele>738.4</ele>
        <time>2022-07-19T08:53:54Z</time>
      </trkpt>
      <trkpt lat="44.30412" lon="5.16912">
        <ele>738.5</ele>
        <time>2022-07-19T08:53:55Z</time>
      </trkpt>
      <trkpt lat="44.30411" lon="5.16911">
        <ele>738.6</ele>
        <time>2022-07-19T08:53:56Z</time>
      </trkpt>
      <trkpt lat="44.3041" lon="5.16911">
        <ele>738.7</ele>
        <time>2022-07-19T08:53:57Z</time>
      </trkpt>
      <trkpt lat="44.30409" lon="5.1691">
        <ele>738.8</ele>
        <time>2022-07-19T08:53:58Z</time>
      </trkpt>
      <trkpt lat="44.30408" lon="5.16909">
        <ele>738.9</ele>
        <time>2022-07-19T08:53:59Z</time>
      </trkpt>
      <trkpt lat="44.30405" lon="5.16908">
        <ele>739.2</ele>
        <time>2022-07-19T08:54:00Z</time>
      </trkpt>
      <trkpt lat="44.30404" lon="5.16908">
        <ele>739.3</ele>
        <time>2022-07-19T08:54:01Z</time>
      </trkpt>
      <trkpt lat="44.30403" lon="5.16907">
        <ele>739.5</ele>
        <time>2022-07-19T08:54:02Z</time>
      </trkpt>
      <trkpt lat="44.30401" lon="5.16907">
        <ele>739.6</ele>
        <time>2022-07-19T08:54:03Z</time>
      </trkpt>
      <trkpt lat="44.304" lon="5.16906">
        <ele>739.8</ele>
        <time>2022-07-19T08:54:04Z</time>
      </trkpt>
      <trkpt lat="44.30399" lon="5.16906">
        <ele>739.9</ele>
        <time>2022-07-19T08:54:05Z</time>
      </trkpt>
      <trkpt lat="44.30399" lon="5.16905">
        <ele>740</ele>
        <time>2022-07-19T08:54:06Z</time>
      </trkpt>
      <trkpt lat="44.30397" lon="5.16904">
        <ele>740.2</ele>
        <time>2022-07-19T08:54:07Z</time>
      </trkpt>
      <trkpt lat="44.30396" lon="5.16904">
        <ele>740.3</ele>
        <time>2022-07-19T08:54:08Z</time>
      </trkpt>
      <trkpt lat="44.30395" lon="5.16904">
        <ele>740.4</ele>
        <time>2022-07-19T08:54:09Z</time>
      </trkpt>
      <trkpt lat="44.30393" lon="5.16904">
        <ele>740.6</ele>
        <time>2022-07-19T08:54:10Z</time>
      </trkpt>
      <trkpt lat="44.30391" lon="5.16904">
        <ele>740.8</ele>
        <time>2022-07-19T08:54:11Z</time>
      </trkpt>
      <trkpt lat="44.30388" lon="5.16904">
        <ele>741.2</ele>
        <time>2022-07-19T08:54:12Z</time>
      </trkpt>
      <trkpt lat="44.30387" lon="5.16904">
        <ele>741.3</ele>
        <time>2022-07-19T08:54:13Z</time>
      </trkpt>
      <trkpt lat="44.30383" lon="5.16904">
        <ele>741.7</ele>
        <time>2022-07-19T08:54:14Z</time>
      </trkpt>
      <trkpt lat="44.3038" lon="5.16903">
        <ele>742.1</ele>
        <time>2022-07-19T08:54:15Z</time>
      </trkpt>
      <trkpt lat="44.30379" lon="5.16903">
        <ele>742.2</ele>
        <time>2022-07-19T08:54:16Z</time>
      </trkpt>
      <trkpt lat="44.30378" lon="5.16903">
        <ele>742.4</ele>
        <time>2022-07-19T08:54:17Z</time>
      </trkpt>
      <trkpt lat="44.30376" lon="5.16902">
        <ele>742.6</ele>
        <time>2022-07-19T08:54:18Z</time>
      </trkpt>
      <trkpt lat="44.30374" lon="5.16902">
        <ele>742.9</ele>
        <time>2022-07-19T08:54:19Z</time>
      </trkpt>
      <trkpt lat="44.30373" lon="5.16902">
        <ele>743</ele>
        <time>2022-07-19T08:54:20Z</time>
      </trkpt>
      <trkpt lat="44.30372" lon="5.16901">
        <ele>743.1</ele>
        <time>2022-07-19T08:54:21Z</time>
      </trkpt>
      <trkpt lat="44.30369" lon="5.16901">
        <ele>743.5</ele>
        <time>2022-07-19T08:54:22Z</time>
      </trkpt>
      <trkpt lat="44.30368" lon="5.16901">
        <ele>743.6</ele>
        <time>2022-07-19T08:54:23Z</time>
      </trkpt>
      <trkpt lat="44.30365" lon="5.169">
        <ele>743.9</ele>
        <time>2022-07-19T08:54:24Z</time>
      </trkpt>
      <trkpt lat="44.30364" lon="5.169">
        <ele>744</ele>
        <time>2022-07-19T08:54:25Z</time>
      </trkpt>
      <trkpt lat="44.30362" lon="5.16899">
        <ele>744.2</ele>
        <time>2022-07-19T08:54:26Z</time>
      </trkpt>
      <trkpt lat="44.30361" lon="5.16898">
        <ele>744.3</ele>
        <time>2022-07-19T08:54:27Z</time>
      </trkpt>
      <trkpt lat="44.30361" lon="5.16897">
        <ele>744.4</ele>
        <time>2022-07-19T08:54:28Z</time>
      </trkpt>
      <trkpt lat="44.30359" lon="5.16896">
        <ele>744.6</ele>
        <time>2022-07-19T08:54:29Z</time>
      </trkpt>
      <trkpt lat="44.30358" lon="5.16895">
        <ele>744.7</ele>
        <time>2022-07-19T08:54:30Z</time>
      </trkpt>
      <trkpt lat="44.30356" lon="5.16894">
        <ele>744.9</ele>
        <time>2022-07-19T08:54:31Z</time>
      </trkpt>
      <trkpt lat="44.30355" lon="5.16893">
        <ele>745</ele>
        <time>2022-07-19T08:54:32Z</time>
      </trkpt>
      <trkpt lat="44.30353" lon="5.16892">
        <ele>745.1</ele>
        <time>2022-07-19T08:54:33Z</time>
      </trkpt>
      <trkpt lat="44.30352" lon="5.16891">
        <ele>745.2</ele>
        <time>2022-07-19T08:54:34Z</time>
      </trkpt>
      <trkpt lat="44.30351" lon="5.1689">
        <ele>745.3</ele>
        <time>2022-07-19T08:54:35Z</time>
      </trkpt>
      <trkpt lat="44.3035" lon="5.16889">
        <ele>745.5</ele>
        <time>2022-07-19T08:54:36Z</time>
      </trkpt>
      <trkpt lat="44.30347" lon="5.16887">
        <ele>745.7</ele>
        <time>2022-07-19T08:54:37Z</time>
      </trkpt>
      <trkpt lat="44.30346" lon="5.16887">
        <ele>745.7</ele>
        <time>2022-07-19T08:54:38Z</time>
      </trkpt>
      <trkpt lat="44.30345" lon="5.16886">
        <ele>745.8</ele>
        <time>2022-07-19T08:54:39Z</time>
      </trkpt>
      <trkpt lat="44.30343" lon="5.16886">
        <ele>746</ele>
        <time>2022-07-19T08:54:40Z</time>
      </trkpt>
      <trkpt lat="44.30342" lon="5.16885">
        <ele>746.1</ele>
        <time>2022-07-19T08:54:41Z</time>
      </trkpt>
      <trkpt lat="44.3034" lon="5.16884">
        <ele>746.2</ele>
        <time>2022-07-19T08:54:42Z</time>
      </trkpt>
      <trkpt lat="44.30338" lon="5.16884">
        <ele>746.3</ele>
        <time>2022-07-19T08:54:43Z</time>
      </trkpt>
      <trkpt lat="44.30337" lon="5.16883">
        <ele>746.4</ele>
        <time>2022-07-19T08:54:44Z</time>
      </trkpt>
      <trkpt lat="44.30335" lon="5.16882">
        <ele>746.6</ele>
        <time>2022-07-19T08:54:45Z</time>
      </trkpt>
      <trkpt lat="44.30333" lon="5.16882">
        <ele>746.7</ele>
        <time>2022-07-19T08:54:46Z</time>
      </trkpt>
      <trkpt lat="44.30332" lon="5.16881">
        <ele>746.8</ele>
        <time>2022-07-19T08:54:47Z</time>
      </trkpt>
      <trkpt lat="44.30332" lon="5.16881">
        <ele>746.8</ele>
        <time>2022-07-19T08:54:48Z</time>
      </trkpt>
      <trkpt lat="44.30332" lon="5.16881">
        <ele>746.8</ele>
        <time>2022-07-19T08:54:49Z</time>
      </trkpt>
      <trkpt lat="44.30332" lon="5.16881">
        <ele>746.8</ele>
        <time>2022-07-19T08:54:50Z</time>
      </trkpt>
      <trkpt lat="44.3033" lon="5.1688">
        <ele>746.9</ele>
        <time>2022-07-19T08:54:51Z</time>
      </trkpt>
      <trkpt lat="44.30329" lon="5.1688">
        <ele>747</ele>
        <time>2022-07-19T08:54:52Z</time>
      </trkpt>
      <trkpt lat="44.30328" lon="5.16879">
        <ele>747.1</ele>
        <time>2022-07-19T08:54:53Z</time>
      </trkpt>
      <trkpt lat="44.30327" lon="5.16878">
        <ele>747.1</ele>
        <time>2022-07-19T08:54:54Z</time>
      </trkpt>
      <trkpt lat="44.30326" lon="5.16878">
        <ele>747.2</ele>
        <time>2022-07-19T08:54:55Z</time>
      </trkpt>
      <trkpt lat="44.30325" lon="5.16878">
        <ele>747.3</ele>
        <time>2022-07-19T08:54:56Z</time>
      </trkpt>
      <trkpt lat="44.30325" lon="5.16878">
        <ele>747.4</ele>
        <time>2022-07-19T08:54:57Z</time>
      </trkpt>
      <trkpt lat="44.30313" lon="5.16875">
        <ele>748.4</ele>
        <time>2022-07-19T08:55:08Z</time>
      </trkpt>
      <trkpt lat="44.30311" lon="5.16874">
        <ele>748.5</ele>
        <time>2022-07-19T08:55:09Z</time>
      </trkpt>
      <trkpt lat="44.3031" lon="5.16874">
        <ele>748.6</ele>
        <time>2022-07-19T08:55:10Z</time>
      </trkpt>
      <trkpt lat="44.30308" lon="5.16873">
        <ele>748.8</ele>
        <time>2022-07-19T08:55:11Z</time>
      </trkpt>
      <trkpt lat="44.30306" lon="5.16872">
        <ele>749</ele>
        <time>2022-07-19T08:55:12Z</time>
      </trkpt>
      <trkpt lat="44.30305" lon="5.16872">
        <ele>749.1</ele>
        <time>2022-07-19T08:55:13Z</time>
      </trkpt>
      <trkpt lat="44.30304" lon="5.16871">
        <ele>749.2</ele>
        <time>2022-07-19T08:55:14Z</time>
      </trkpt>
      <trkpt lat="44.30303" lon="5.16871">
        <ele>749.3</ele>
        <time>2022-07-19T08:55:15Z</time>
      </trkpt>
      <trkpt lat="44.30301" lon="5.16871">
        <ele>749.5</ele>
        <time>2022-07-19T08:55:16Z</time>
      </trkpt>
      <trkpt lat="44.30299" lon="5.16871">
        <ele>749.7</ele>
        <time>2022-07-19T08:55:17Z</time>
      </trkpt>
      <trkpt lat="44.30298" lon="5.1687">
        <ele>749.8</ele>
        <time>2022-07-19T08:55:18Z</time>
      </trkpt>
      <trkpt lat="44.30297" lon="5.16871">
        <ele>750</ele>
        <time>2022-07-19T08:55:19Z</time>
      </trkpt>
      <trkpt lat="44.30295" lon="5.16871">
        <ele>750.1</ele>
        <time>2022-07-19T08:55:20Z</time>
      </trkpt>
      <trkpt lat="44.30294" lon="5.16871">
        <ele>750.2</ele>
        <time>2022-07-19T08:55:21Z</time>
      </trkpt>
      <trkpt lat="44.30293" lon="5.16871">
        <ele>750.4</ele>
        <time>2022-07-19T08:55:22Z</time>
      </trkpt>
      <trkpt lat="44.30293" lon="5.16871">
        <ele>750.4</ele>
        <time>2022-07-19T08:55:23Z</time>
      </trkpt>
      <trkpt lat="44.30293" lon="5.16871">
        <ele>750.4</ele>
        <time>2022-07-19T08:55:24Z</time>
      </trkpt>
      <trkpt lat="44.30293" lon="5.16871">
        <ele>750.4</ele>
        <time>2022-07-19T08:55:25Z</time>
      </trkpt>
      <trkpt lat="44.30293" lon="5.16871">
        <ele>750.4</ele>
        <time>2022-07-19T08:55:26Z</time>
      </trkpt>
      <trkpt lat="44.30293" lon="5.16871">
        <ele>750.4</ele>
        <time>2022-07-19T08:55:27Z</time>
      </trkpt>
      <trkpt lat="44.30293" lon="5.16871">
        <ele>750.4</ele>
        <time>2022-07-19T08:55:28Z</time>
      </trkpt>
      <trkpt lat="44.3028" lon="5.16866">
        <ele>752</ele>
        <time>2022-07-19T08:55:35Z</time>
      </trkpt>
      <trkpt lat="44.30277" lon="5.16865">
        <ele>752.3</ele>
        <time>2022-07-19T08:55:36Z</time>
      </trkpt>
      <trkpt lat="44.30274" lon="5.16864">
        <ele>752.6</ele>
        <time>2022-07-19T08:55:37Z</time>
      </trkpt>
      <trkpt lat="44.3027" lon="5.16864">
        <ele>753</ele>
        <time>2022-07-19T08:55:38Z</time>
      </trkpt>
      <trkpt lat="44.30269" lon="5.16864">
        <ele>753.1</ele>
        <time>2022-07-19T08:55:39Z</time>
      </trkpt>
      <trkpt lat="44.30265" lon="5.16864">
        <ele>753.5</ele>
        <time>2022-07-19T08:55:40Z</time>
      </trkpt>
      <trkpt lat="44.30264" lon="5.16864">
        <ele>753.6</ele>
        <time>2022-07-19T08:55:41Z</time>
      </trkpt>
      <trkpt lat="44.3026" lon="5.16864">
        <ele>754</ele>
        <time>2022-07-19T08:55:42Z</time>
      </trkpt>
      <trkpt lat="44.30259" lon="5.16863">
        <ele>754.1</ele>
        <time>2022-07-19T08:55:43Z</time>
      </trkpt>
      <trkpt lat="44.30255" lon="5.16863">
        <ele>754.5</ele>
        <time>2022-07-19T08:55:44Z</time>
      </trkpt>
      <trkpt lat="44.30254" lon="5.16863">
        <ele>754.6</ele>
        <time>2022-07-19T08:55:45Z</time>
      </trkpt>
      <trkpt lat="44.3025" lon="5.16863">
        <ele>754.9</ele>
        <time>2022-07-19T08:55:46Z</time>
      </trkpt>
      <trkpt lat="44.30249" lon="5.16863">
        <ele>754.9</ele>
        <time>2022-07-19T08:55:47Z</time>
      </trkpt>
      <trkpt lat="44.30246" lon="5.16863">
        <ele>755.2</ele>
        <time>2022-07-19T08:55:48Z</time>
      </trkpt>
      <trkpt lat="44.30245" lon="5.16863">
        <ele>755.2</ele>
        <time>2022-07-19T08:55:49Z</time>
      </trkpt>
      <trkpt lat="44.30242" lon="5.16864">
        <ele>755.5</ele>
        <time>2022-07-19T08:55:50Z</time>
      </trkpt>
      <trkpt lat="44.30241" lon="5.16864">
        <ele>755.5</ele>
        <time>2022-07-19T08:55:51Z</time>
      </trkpt>
      <trkpt lat="44.30238" lon="5.16864">
        <ele>755.7</ele>
        <time>2022-07-19T08:55:52Z</time>
      </trkpt>
      <trkpt lat="44.30235" lon="5.16865">
        <ele>755.8</ele>
        <time>2022-07-19T08:55:53Z</time>
      </trkpt>
      <trkpt lat="44.30232" lon="5.16866">
        <ele>756</ele>
        <time>2022-07-19T08:55:54Z</time>
      </trkpt>
      <trkpt lat="44.30229" lon="5.16867">
        <ele>756</ele>
        <time>2022-07-19T08:55:55Z</time>
      </trkpt>
      <trkpt lat="44.30225" lon="5.16869">
        <ele>756.1</ele>
        <time>2022-07-19T08:55:56Z</time>
      </trkpt>
      <trkpt lat="44.30222" lon="5.1687">
        <ele>756.1</ele>
        <time>2022-07-19T08:55:57Z</time>
      </trkpt>
      <trkpt lat="44.30219" lon="5.16872">
        <ele>756</ele>
        <time>2022-07-19T08:55:58Z</time>
      </trkpt>
      <trkpt lat="44.30216" lon="5.16874">
        <ele>756</ele>
        <time>2022-07-19T08:55:59Z</time>
      </trkpt>
      <trkpt lat="44.30213" lon="5.16876">
        <ele>756</ele>
        <time>2022-07-19T08:56:00Z</time>
      </trkpt>
      <trkpt lat="44.3021" lon="5.16878">
        <ele>755.9</ele>
        <time>2022-07-19T08:56:01Z</time>
      </trkpt>
      <trkpt lat="44.30208" lon="5.1688">
        <ele>755.9</ele>
        <time>2022-07-19T08:56:02Z</time>
      </trkpt>
      <trkpt lat="44.30205" lon="5.16883">
        <ele>755.8</ele>
        <time>2022-07-19T08:56:03Z</time>
      </trkpt>
      <trkpt lat="44.30202" lon="5.16885">
        <ele>755.8</ele>
        <time>2022-07-19T08:56:04Z</time>
      </trkpt>
      <trkpt lat="44.30201" lon="5.16886">
        <ele>755.8</ele>
        <time>2022-07-19T08:56:05Z</time>
      </trkpt>
      <trkpt lat="44.302" lon="5.16888">
        <ele>755.7</ele>
        <time>2022-07-19T08:56:06Z</time>
      </trkpt>
      <trkpt lat="44.30199" lon="5.16888">
        <ele>755.8</ele>
        <time>2022-07-19T08:56:07Z</time>
      </trkpt>
      <trkpt lat="44.30199" lon="5.16889">
        <ele>755.8</ele>
        <time>2022-07-19T08:56:08Z</time>
      </trkpt>
      <trkpt lat="44.30198" lon="5.1689">
        <ele>755.9</ele>
        <time>2022-07-19T08:56:09Z</time>
      </trkpt>
      <trkpt lat="44.30197" lon="5.16891">
        <ele>755.9</ele>
        <time>2022-07-19T08:56:10Z</time>
      </trkpt>
      <trkpt lat="44.30197" lon="5.16891">
        <ele>755.9</ele>
        <time>2022-07-19T08:56:11Z</time>
      </trkpt>
      <trkpt lat="44.30196" lon="5.16892">
        <ele>756</ele>
        <time>2022-07-19T08:56:12Z</time>
      </trkpt>
      <trkpt lat="44.30196" lon="5.16893">
        <ele>756</ele>
        <time>2022-07-19T08:56:13Z</time>
      </trkpt>
      <trkpt lat="44.30195" lon="5.16894">
        <ele>756</ele>
        <time>2022-07-19T08:56:14Z</time>
      </trkpt>
      <trkpt lat="44.30194" lon="5.16894">
        <ele>756.1</ele>
        <time>2022-07-19T08:56:15Z</time>
      </trkpt>
      <trkpt lat="44.30194" lon="5.16895">
        <ele>756.1</ele>
        <time>2022-07-19T08:56:16Z</time>
      </trkpt>
      <trkpt lat="44.30193" lon="5.16896">
        <ele>756.1</ele>
        <time>2022-07-19T08:56:17Z</time>
      </trkpt>
      <trkpt lat="44.30193" lon="5.16896">
        <ele>756.2</ele>
        <time>2022-07-19T08:57:32Z</time>
      </trkpt>
      <trkpt lat="44.30192" lon="5.16897">
        <ele>756.2</ele>
        <time>2022-07-19T08:57:33Z</time>
      </trkpt>
      <trkpt lat="44.30189" lon="5.169">
        <ele>756.3</ele>
        <time>2022-07-19T08:57:34Z</time>
      </trkpt>
      <trkpt lat="44.30188" lon="5.16901">
        <ele>756.3</ele>
        <time>2022-07-19T08:57:35Z</time>
      </trkpt>
      <trkpt lat="44.30185" lon="5.16903">
        <ele>756.4</ele>
        <time>2022-07-19T08:57:36Z</time>
      </trkpt>
      <trkpt lat="44.30182" lon="5.16906">
        <ele>756.4</ele>
        <time>2022-07-19T08:57:37Z</time>
      </trkpt>
      <trkpt lat="44.30181" lon="5.16907">
        <ele>756.4</ele>
        <time>2022-07-19T08:57:38Z</time>
      </trkpt>
      <trkpt lat="44.30178" lon="5.16907">
        <ele>756.4</ele>
        <time>2022-07-19T08:57:39Z</time>
      </trkpt>
      <trkpt lat="44.30177" lon="5.16906">
        <ele>756.3</ele>
        <time>2022-07-19T08:57:40Z</time>
      </trkpt>
      <trkpt lat="44.30173" lon="5.16906">
        <ele>756.3</ele>
        <time>2022-07-19T08:57:41Z</time>
      </trkpt>
      <trkpt lat="44.3017" lon="5.16908">
        <ele>756.1</ele>
        <time>2022-07-19T08:57:42Z</time>
      </trkpt>
      <trkpt lat="44.30166" lon="5.1691">
        <ele>755.9</ele>
        <time>2022-07-19T08:57:43Z</time>
      </trkpt>
      <trkpt lat="44.30162" lon="5.16913">
        <ele>755.7</ele>
        <time>2022-07-19T08:57:44Z</time>
      </trkpt>
      <trkpt lat="44.30157" lon="5.16918">
        <ele>755.2</ele>
        <time>2022-07-19T08:57:45Z</time>
      </trkpt>
      <trkpt lat="44.30152" lon="5.16919">
        <ele>754.5</ele>
        <time>2022-07-19T08:57:46Z</time>
      </trkpt>
      <trkpt lat="44.30146" lon="5.16921">
        <ele>753.9</ele>
        <time>2022-07-19T08:57:47Z</time>
      </trkpt>
      <trkpt lat="44.3014" lon="5.16924">
        <ele>753.5</ele>
        <time>2022-07-19T08:57:48Z</time>
      </trkpt>
      <trkpt lat="44.30134" lon="5.16927">
        <ele>753.1</ele>
        <time>2022-07-19T08:57:49Z</time>
      </trkpt>
      <trkpt lat="44.3013" lon="5.16933">
        <ele>752.8</ele>
        <time>2022-07-19T08:57:50Z</time>
      </trkpt>
      <trkpt lat="44.30124" lon="5.16938">
        <ele>752.4</ele>
        <time>2022-07-19T08:57:51Z</time>
      </trkpt>
      <trkpt lat="44.30117" lon="5.1694">
        <ele>752.2</ele>
        <time>2022-07-19T08:57:52Z</time>
      </trkpt>
      <trkpt lat="44.30112" lon="5.16943">
        <ele>752.1</ele>
        <time>2022-07-19T08:57:53Z</time>
      </trkpt>
      <trkpt lat="44.30107" lon="5.16946">
        <ele>751.9</ele>
        <time>2022-07-19T08:57:54Z</time>
      </trkpt>
      <trkpt lat="44.30104" lon="5.16949">
        <ele>751.8</ele>
        <time>2022-07-19T08:57:55Z</time>
      </trkpt>
      <trkpt lat="44.30099" lon="5.1695">
        <ele>751.6</ele>
        <time>2022-07-19T08:57:56Z</time>
      </trkpt>
      <trkpt lat="44.30094" lon="5.16952">
        <ele>751.5</ele>
        <time>2022-07-19T08:57:57Z</time>
      </trkpt>
      <trkpt lat="44.30087" lon="5.16954">
        <ele>751.2</ele>
        <time>2022-07-19T08:57:58Z</time>
      </trkpt>
      <trkpt lat="44.30085" lon="5.16958">
        <ele>751.1</ele>
        <time>2022-07-19T08:57:59Z</time>
      </trkpt>
      <trkpt lat="44.30083" lon="5.16959">
        <ele>751</ele>
        <time>2022-07-19T08:58:00Z</time>
      </trkpt>
      <trkpt lat="44.3008" lon="5.16961">
        <ele>750.9</ele>
        <time>2022-07-19T08:58:01Z</time>
      </trkpt>
      <trkpt lat="44.30076" lon="5.16963">
        <ele>750.8</ele>
        <time>2022-07-19T08:58:02Z</time>
      </trkpt>
      <trkpt lat="44.3007" lon="5.16963">
        <ele>750.7</ele>
        <time>2022-07-19T08:58:03Z</time>
      </trkpt>
      <trkpt lat="44.30066" lon="5.16962">
        <ele>750.7</ele>
        <time>2022-07-19T08:58:04Z</time>
      </trkpt>
      <trkpt lat="44.30061" lon="5.16963">
        <ele>750.7</ele>
        <time>2022-07-19T08:58:05Z</time>
      </trkpt>
      <trkpt lat="44.30056" lon="5.16965">
        <ele>750.7</ele>
        <time>2022-07-19T08:58:06Z</time>
      </trkpt>
      <trkpt lat="44.30051" lon="5.16966">
        <ele>750.8</ele>
        <time>2022-07-19T08:58:07Z</time>
      </trkpt>
      <trkpt lat="44.30047" lon="5.16968">
        <ele>750.9</ele>
        <time>2022-07-19T08:58:08Z</time>
      </trkpt>
      <trkpt lat="44.30044" lon="5.1697">
        <ele>751</ele>
        <time>2022-07-19T08:58:09Z</time>
      </trkpt>
      <trkpt lat="44.30043" lon="5.1697">
        <ele>751</ele>
        <time>2022-07-19T08:58:10Z</time>
      </trkpt>
      <trkpt lat="44.3004" lon="5.16972">
        <ele>751.1</ele>
        <time>2022-07-19T08:58:11Z</time>
      </trkpt>
      <trkpt lat="44.30039" lon="5.16972">
        <ele>751.1</ele>
        <time>2022-07-19T08:58:12Z</time>
      </trkpt>
      <trkpt lat="44.30036" lon="5.16974">
        <ele>751.2</ele>
        <time>2022-07-19T08:58:13Z</time>
      </trkpt>
      <trkpt lat="44.30033" lon="5.16977">
        <ele>751.2</ele>
        <time>2022-07-19T08:58:14Z</time>
      </trkpt>
      <trkpt lat="44.30032" lon="5.16979">
        <ele>751.2</ele>
        <time>2022-07-19T08:58:15Z</time>
      </trkpt>
      <trkpt lat="44.3003" lon="5.16982">
        <ele>751.2</ele>
        <time>2022-07-19T08:58:16Z</time>
      </trkpt>
      <trkpt lat="44.30028" lon="5.16985">
        <ele>751.1</ele>
        <time>2022-07-19T08:58:17Z</time>
      </trkpt>
      <trkpt lat="44.30025" lon="5.16987">
        <ele>750.9</ele>
        <time>2022-07-19T08:58:18Z</time>
      </trkpt>
      <trkpt lat="44.30022" lon="5.1699">
        <ele>750.7</ele>
        <time>2022-07-19T08:58:19Z</time>
      </trkpt>
      <trkpt lat="44.30019" lon="5.16992">
        <ele>750.4</ele>
        <time>2022-07-19T08:58:20Z</time>
      </trkpt>
      <trkpt lat="44.30016" lon="5.16994">
        <ele>750.1</ele>
        <time>2022-07-19T08:58:21Z</time>
      </trkpt>
      <trkpt lat="44.30013" lon="5.16997">
        <ele>749.7</ele>
        <time>2022-07-19T08:58:22Z</time>
      </trkpt>
      <trkpt lat="44.30008" lon="5.16999">
        <ele>749.3</ele>
        <time>2022-07-19T08:58:23Z</time>
      </trkpt>
      <trkpt lat="44.30003" lon="5.17001">
        <ele>748.7</ele>
        <time>2022-07-19T08:58:24Z</time>
      </trkpt>
      <trkpt lat="44.29992" lon="5.17003">
        <ele>748</ele>
        <time>2022-07-19T08:58:25Z</time>
      </trkpt>
      <trkpt lat="44.29987" lon="5.17005">
        <ele>747.8</ele>
        <time>2022-07-19T08:58:26Z</time>
      </trkpt>
      <trkpt lat="44.29984" lon="5.17007">
        <ele>747.7</ele>
        <time>2022-07-19T08:58:27Z</time>
      </trkpt>
      <trkpt lat="44.2998" lon="5.17007">
        <ele>747.6</ele>
        <time>2022-07-19T08:58:28Z</time>
      </trkpt>
      <trkpt lat="44.29976" lon="5.17009">
        <ele>747.5</ele>
        <time>2022-07-19T08:58:29Z</time>
      </trkpt>
      <trkpt lat="44.29971" lon="5.17011">
        <ele>747.5</ele>
        <time>2022-07-19T08:58:30Z</time>
      </trkpt>
      <trkpt lat="44.29967" lon="5.17014">
        <ele>747.5</ele>
        <time>2022-07-19T08:58:31Z</time>
      </trkpt>
      <trkpt lat="44.29963" lon="5.17015">
        <ele>747.5</ele>
        <time>2022-07-19T08:58:32Z</time>
      </trkpt>
      <trkpt lat="44.29958" lon="5.17016">
        <ele>747.4</ele>
        <time>2022-07-19T08:58:33Z</time>
      </trkpt>
      <trkpt lat="44.29954" lon="5.17018">
        <ele>747.4</ele>
        <time>2022-07-19T08:58:34Z</time>
      </trkpt>
      <trkpt lat="44.29951" lon="5.17019">
        <ele>747.3</ele>
        <time>2022-07-19T08:58:35Z</time>
      </trkpt>
      <trkpt lat="44.29947" lon="5.17019">
        <ele>747.1</ele>
        <time>2022-07-19T08:58:36Z</time>
      </trkpt>
      <trkpt lat="44.29944" lon="5.17019">
        <ele>746.8</ele>
        <time>2022-07-19T08:58:37Z</time>
      </trkpt>
      <trkpt lat="44.29939" lon="5.17018">
        <ele>746.4</ele>
        <time>2022-07-19T08:58:38Z</time>
      </trkpt>
      <trkpt lat="44.29935" lon="5.17017">
        <ele>745.9</ele>
        <time>2022-07-19T08:58:39Z</time>
      </trkpt>
      <trkpt lat="44.2993" lon="5.17015">
        <ele>745.3</ele>
        <time>2022-07-19T08:58:40Z</time>
      </trkpt>
      <trkpt lat="44.29925" lon="5.17013">
        <ele>744.7</ele>
        <time>2022-07-19T08:58:41Z</time>
      </trkpt>
      <trkpt lat="44.2992" lon="5.17011">
        <ele>744.1</ele>
        <time>2022-07-19T08:58:42Z</time>
      </trkpt>
      <trkpt lat="44.29913" lon="5.17009">
        <ele>743.3</ele>
        <time>2022-07-19T08:58:43Z</time>
      </trkpt>
      <trkpt lat="44.29907" lon="5.1701">
        <ele>742.5</ele>
        <time>2022-07-19T08:58:44Z</time>
      </trkpt>
      <trkpt lat="44.29902" lon="5.1701">
        <ele>741.9</ele>
        <time>2022-07-19T08:58:45Z</time>
      </trkpt>
      <trkpt lat="44.29897" lon="5.1701">
        <ele>741.1</ele>
        <time>2022-07-19T08:58:46Z</time>
      </trkpt>
      <trkpt lat="44.29891" lon="5.17009">
        <ele>740.2</ele>
        <time>2022-07-19T08:58:47Z</time>
      </trkpt>
      <trkpt lat="44.29885" lon="5.17008">
        <ele>739.3</ele>
        <time>2022-07-19T08:58:48Z</time>
      </trkpt>
      <trkpt lat="44.29877" lon="5.17006">
        <ele>738.3</ele>
        <time>2022-07-19T08:58:49Z</time>
      </trkpt>
      <trkpt lat="44.29872" lon="5.17006">
        <ele>737.6</ele>
        <time>2022-07-19T08:58:50Z</time>
      </trkpt>
      <trkpt lat="44.29866" lon="5.17004">
        <ele>737</ele>
        <time>2022-07-19T08:58:51Z</time>
      </trkpt>
      <trkpt lat="44.29861" lon="5.17002">
        <ele>736.4</ele>
        <time>2022-07-19T08:58:52Z</time>
      </trkpt>
      <trkpt lat="44.29857" lon="5.17002">
        <ele>736</ele>
        <time>2022-07-19T08:58:53Z</time>
      </trkpt>
      <trkpt lat="44.29853" lon="5.17002">
        <ele>735.6</ele>
        <time>2022-07-19T08:58:54Z</time>
      </trkpt>
      <trkpt lat="44.29847" lon="5.17001">
        <ele>735</ele>
        <time>2022-07-19T08:58:55Z</time>
      </trkpt>
      <trkpt lat="44.29841" lon="5.16999">
        <ele>734.4</ele>
        <time>2022-07-19T08:58:56Z</time>
      </trkpt>
      <trkpt lat="44.29836" lon="5.16998">
        <ele>733.8</ele>
        <time>2022-07-19T08:58:57Z</time>
      </trkpt>
      <trkpt lat="44.2983" lon="5.16996">
        <ele>733.3</ele>
        <time>2022-07-19T08:58:58Z</time>
      </trkpt>
      <trkpt lat="44.29824" lon="5.16994">
        <ele>733</ele>
        <time>2022-07-19T08:58:59Z</time>
      </trkpt>
      <trkpt lat="44.2982" lon="5.16991">
        <ele>732.6</ele>
        <time>2022-07-19T08:59:00Z</time>
      </trkpt>
      <trkpt lat="44.29815" lon="5.16987">
        <ele>732.3</ele>
        <time>2022-07-19T08:59:01Z</time>
      </trkpt>
      <trkpt lat="44.2981" lon="5.16986">
        <ele>731.9</ele>
        <time>2022-07-19T08:59:02Z</time>
      </trkpt>
      <trkpt lat="44.29806" lon="5.16986">
        <ele>731.7</ele>
        <time>2022-07-19T08:59:03Z</time>
      </trkpt>
      <trkpt lat="44.29801" lon="5.16983">
        <ele>731.3</ele>
        <time>2022-07-19T08:59:04Z</time>
      </trkpt>
      <trkpt lat="44.29797" lon="5.16982">
        <ele>731</ele>
        <time>2022-07-19T08:59:05Z</time>
      </trkpt>
      <trkpt lat="44.29794" lon="5.16981">
        <ele>730.7</ele>
        <time>2022-07-19T08:59:06Z</time>
      </trkpt>
      <trkpt lat="44.29793" lon="5.1698">
        <ele>730.6</ele>
        <time>2022-07-19T08:59:07Z</time>
      </trkpt>
      <trkpt lat="44.29791" lon="5.16977">
        <ele>730.2</ele>
        <time>2022-07-19T08:59:08Z</time>
      </trkpt>
      <trkpt lat="44.29788" lon="5.16974">
        <ele>729.8</ele>
        <time>2022-07-19T08:59:09Z</time>
      </trkpt>
      <trkpt lat="44.29785" lon="5.16973">
        <ele>729.2</ele>
        <time>2022-07-19T08:59:10Z</time>
      </trkpt>
      <trkpt lat="44.29783" lon="5.16972">
        <ele>729</ele>
        <time>2022-07-19T08:59:11Z</time>
      </trkpt>
      <trkpt lat="44.2978" lon="5.16972">
        <ele>728.4</ele>
        <time>2022-07-19T08:59:12Z</time>
      </trkpt>
      <trkpt lat="44.29778" lon="5.16972">
        <ele>727.9</ele>
        <time>2022-07-19T08:59:13Z</time>
      </trkpt>
      <trkpt lat="44.29775" lon="5.16973">
        <ele>727.4</ele>
        <time>2022-07-19T08:59:15Z</time>
      </trkpt>
      <trkpt lat="44.29771" lon="5.16972">
        <ele>726.7</ele>
        <time>2022-07-19T08:59:16Z</time>
      </trkpt>
      <trkpt lat="44.2977" lon="5.16972">
        <ele>726.4</ele>
        <time>2022-07-19T08:59:17Z</time>
      </trkpt>
      <trkpt lat="44.29767" lon="5.1697">
        <ele>725.7</ele>
        <time>2022-07-19T08:59:18Z</time>
      </trkpt>
      <trkpt lat="44.29766" lon="5.16969">
        <ele>725.4</ele>
        <time>2022-07-19T08:59:19Z</time>
      </trkpt>
      <trkpt lat="44.29763" lon="5.16966">
        <ele>724.9</ele>
        <time>2022-07-19T08:59:20Z</time>
      </trkpt>
      <trkpt lat="44.2976" lon="5.16963">
        <ele>724.2</ele>
        <time>2022-07-19T08:59:21Z</time>
      </trkpt>
      <trkpt lat="44.29758" lon="5.16959">
        <ele>723.4</ele>
        <time>2022-07-19T08:59:22Z</time>
      </trkpt>
      <trkpt lat="44.29756" lon="5.16956">
        <ele>722.8</ele>
        <time>2022-07-19T08:59:23Z</time>
      </trkpt>
      <trkpt lat="44.29754" lon="5.16951">
        <ele>722</ele>
        <time>2022-07-19T08:59:24Z</time>
      </trkpt>
      <trkpt lat="44.29752" lon="5.16947">
        <ele>721.3</ele>
        <time>2022-07-19T08:59:25Z</time>
      </trkpt>
      <trkpt lat="44.2975" lon="5.16943">
        <ele>720.7</ele>
        <time>2022-07-19T08:59:26Z</time>
      </trkpt>
      <trkpt lat="44.29748" lon="5.16939">
        <ele>720.1</ele>
        <time>2022-07-19T08:59:27Z</time>
      </trkpt>
      <trkpt lat="44.29746" lon="5.16936">
        <ele>719.5</ele>
        <time>2022-07-19T08:59:28Z</time>
      </trkpt>
      <trkpt lat="44.29743" lon="5.16934">
        <ele>718.9</ele>
        <time>2022-07-19T08:59:29Z</time>
      </trkpt>
      <trkpt lat="44.2974" lon="5.16931">
        <ele>718.3</ele>
        <time>2022-07-19T08:59:30Z</time>
      </trkpt>
      <trkpt lat="44.29738" lon="5.16928">
        <ele>717.7</ele>
        <time>2022-07-19T08:59:31Z</time>
      </trkpt>
      <trkpt lat="44.29735" lon="5.16927">
        <ele>717.1</ele>
        <time>2022-07-19T08:59:32Z</time>
      </trkpt>
      <trkpt lat="44.29732" lon="5.16925">
        <ele>716.5</ele>
        <time>2022-07-19T08:59:33Z</time>
      </trkpt>
      <trkpt lat="44.29728" lon="5.16924">
        <ele>715.8</ele>
        <time>2022-07-19T08:59:34Z</time>
      </trkpt>
      <trkpt lat="44.29725" lon="5.16923">
        <ele>715.2</ele>
        <time>2022-07-19T08:59:35Z</time>
      </trkpt>
      <trkpt lat="44.29722" lon="5.16922">
        <ele>714.6</ele>
        <time>2022-07-19T08:59:36Z</time>
      </trkpt>
      <trkpt lat="44.29718" lon="5.16919">
        <ele>713.9</ele>
        <time>2022-07-19T08:59:37Z</time>
      </trkpt>
      <trkpt lat="44.29715" lon="5.16917">
        <ele>713.2</ele>
        <time>2022-07-19T08:59:38Z</time>
      </trkpt>
      <trkpt lat="44.29711" lon="5.16915">
        <ele>712.6</ele>
        <time>2022-07-19T08:59:39Z</time>
      </trkpt>
      <trkpt lat="44.29708" lon="5.16913">
        <ele>712</ele>
        <time>2022-07-19T08:59:40Z</time>
      </trkpt>
      <trkpt lat="44.29704" lon="5.16911">
        <ele>711.4</ele>
        <time>2022-07-19T08:59:41Z</time>
      </trkpt>
      <trkpt lat="44.29701" lon="5.16909">
        <ele>710.8</ele>
        <time>2022-07-19T08:59:42Z</time>
      </trkpt>
      <trkpt lat="44.29697" lon="5.16907">
        <ele>710.2</ele>
        <time>2022-07-19T08:59:43Z</time>
      </trkpt>
      <trkpt lat="44.29693" lon="5.16905">
        <ele>709.4</ele>
        <time>2022-07-19T08:59:44Z</time>
      </trkpt>
      <trkpt lat="44.29689" lon="5.16903">
        <ele>708.8</ele>
        <time>2022-07-19T08:59:45Z</time>
      </trkpt>
      <trkpt lat="44.29685" lon="5.16901">
        <ele>708.1</ele>
        <time>2022-07-19T08:59:46Z</time>
      </trkpt>
      <trkpt lat="44.29679" lon="5.16898">
        <ele>707.3</ele>
        <time>2022-07-19T08:59:47Z</time>
      </trkpt>
      <trkpt lat="44.29674" lon="5.16896">
        <ele>706.7</ele>
        <time>2022-07-19T08:59:48Z</time>
      </trkpt>
      <trkpt lat="44.2967" lon="5.16894">
        <ele>706.1</ele>
        <time>2022-07-19T08:59:49Z</time>
      </trkpt>
      <trkpt lat="44.29665" lon="5.16891">
        <ele>705.5</ele>
        <time>2022-07-19T08:59:50Z</time>
      </trkpt>
      <trkpt lat="44.29658" lon="5.16889">
        <ele>704.8</ele>
        <time>2022-07-19T08:59:51Z</time>
      </trkpt>
      <trkpt lat="44.29653" lon="5.16886">
        <ele>704.4</ele>
        <time>2022-07-19T08:59:52Z</time>
      </trkpt>
      <trkpt lat="44.29645" lon="5.16884">
        <ele>703.9</ele>
        <time>2022-07-19T08:59:53Z</time>
      </trkpt>
      <trkpt lat="44.29639" lon="5.16881">
        <ele>703.6</ele>
        <time>2022-07-19T08:59:54Z</time>
      </trkpt>
      <trkpt lat="44.29633" lon="5.16877">
        <ele>703.3</ele>
        <time>2022-07-19T08:59:55Z</time>
      </trkpt>
      <trkpt lat="44.29628" lon="5.16874">
        <ele>703.2</ele>
        <time>2022-07-19T08:59:56Z</time>
      </trkpt>
      <trkpt lat="44.29623" lon="5.16871">
        <ele>703</ele>
        <time>2022-07-19T08:59:57Z</time>
      </trkpt>
      <trkpt lat="44.2962" lon="5.16869">
        <ele>702.9</ele>
        <time>2022-07-19T08:59:58Z</time>
      </trkpt>
      <trkpt lat="44.29617" lon="5.16867">
        <ele>702.8</ele>
        <time>2022-07-19T08:59:59Z</time>
      </trkpt>
      <trkpt lat="44.29614" lon="5.16867">
        <ele>702.3</ele>
        <time>2022-07-19T09:00:00Z</time>
      </trkpt>
      <trkpt lat="44.29613" lon="5.16867">
        <ele>702.3</ele>
        <time>2022-07-19T09:00:01Z</time>
      </trkpt>
      <trkpt lat="44.29612" lon="5.16868">
        <ele>702.3</ele>
        <time>2022-07-19T09:00:02Z</time>
      </trkpt>
      <trkpt lat="44.29611" lon="5.16869">
        <ele>702.3</ele>
        <time>2022-07-19T09:00:03Z</time>
      </trkpt>
      <trkpt lat="44.29611" lon="5.1687">
        <ele>702.3</ele>
        <time>2022-07-19T09:00:04Z</time>
      </trkpt>
      <trkpt lat="44.29611" lon="5.1687">
        <ele>702.3</ele>
        <time>2022-07-19T09:00:05Z</time>
      </trkpt>
      <trkpt lat="44.29611" lon="5.1687">
        <ele>702.3</ele>
        <time>2022-07-19T09:00:06Z</time>
      </trkpt>
      <trkpt lat="44.29611" lon="5.1687">
        <ele>702.3</ele>
        <time>2022-07-19T09:00:07Z</time>
      </trkpt>
      <trkpt lat="44.29611" lon="5.1687">
        <ele>702.3</ele>
        <time>2022-07-19T09:00:08Z</time>
      </trkpt>
      <trkpt lat="44.29611" lon="5.1687">
        <ele>702.3</ele>
        <time>2022-07-19T09:00:09Z</time>
      </trkpt>
      <trkpt lat="44.29611" lon="5.1687">
        <ele>702.3</ele>
        <time>2022-07-19T09:00:10Z</time>
      </trkpt>
      <trkpt lat="44.29611" lon="5.1687">
        <ele>702.3</ele>
        <time>2022-07-19T09:00:11Z</time>
      </trkpt>
      <trkpt lat="44.29611" lon="5.1687">
        <ele>702.3</ele>
        <time>2022-07-19T09:00:12Z</time>
      </trkpt>
      <trkpt lat="44.29611" lon="5.1687">
        <ele>702.3</ele>
        <time>2022-07-19T09:00:13Z</time>
      </trkpt>
      <trkpt lat="44.29608" lon="5.16872">
        <ele>702.2</ele>
        <time>2022-07-19T09:00:42Z</time>
      </trkpt>
      <trkpt lat="44.29608" lon="5.16873">
        <ele>702.2</ele>
        <time>2022-07-19T09:00:43Z</time>
      </trkpt>
      <trkpt lat="44.29609" lon="5.16874">
        <ele>702.2</ele>
        <time>2022-07-19T09:00:44Z</time>
      </trkpt>
      <trkpt lat="44.2961" lon="5.16875">
        <ele>702.2</ele>
        <time>2022-07-19T09:00:45Z</time>
      </trkpt>
      <trkpt lat="44.29611" lon="5.16875">
        <ele>702.2</ele>
        <time>2022-07-19T09:00:46Z</time>
      </trkpt>
      <trkpt lat="44.29612" lon="5.16876">
        <ele>702.2</ele>
        <time>2022-07-19T09:00:47Z</time>
      </trkpt>
      <trkpt lat="44.29613" lon="5.16877">
        <ele>702.2</ele>
        <time>2022-07-19T09:00:48Z</time>
      </trkpt>
      <trkpt lat="44.29614" lon="5.16878">
        <ele>702.1</ele>
        <time>2022-07-19T09:00:49Z</time>
      </trkpt>
      <trkpt lat="44.29615" lon="5.16879">
        <ele>702.1</ele>
        <time>2022-07-19T09:00:50Z</time>
      </trkpt>
      <trkpt lat="44.29616" lon="5.1688">
        <ele>702.1</ele>
        <time>2022-07-19T09:00:51Z</time>
      </trkpt>
      <trkpt lat="44.29616" lon="5.16881">
        <ele>702.1</ele>
        <time>2022-07-19T09:00:52Z</time>
      </trkpt>
      <trkpt lat="44.29617" lon="5.16882">
        <ele>702.1</ele>
        <time>2022-07-19T09:00:53Z</time>
      </trkpt>
      <trkpt lat="44.29618" lon="5.16883">
        <ele>702.1</ele>
        <time>2022-07-19T09:00:54Z</time>
      </trkpt>
      <trkpt lat="44.29619" lon="5.16884">
        <ele>702.1</ele>
        <time>2022-07-19T09:00:55Z</time>
      </trkpt>
      <trkpt lat="44.2962" lon="5.16885">
        <ele>702.1</ele>
        <time>2022-07-19T09:00:56Z</time>
      </trkpt>
      <trkpt lat="44.29621" lon="5.16886">
        <ele>702</ele>
        <time>2022-07-19T09:00:57Z</time>
      </trkpt>
      <trkpt lat="44.29623" lon="5.16887">
        <ele>702</ele>
        <time>2022-07-19T09:00:58Z</time>
      </trkpt>
      <trkpt lat="44.29623" lon="5.16888">
        <ele>702</ele>
        <time>2022-07-19T09:00:59Z</time>
      </trkpt>
      <trkpt lat="44.29624" lon="5.16888">
        <ele>702</ele>
        <time>2022-07-19T09:01:00Z</time>
      </trkpt>
      <trkpt lat="44.29624" lon="5.16888">
        <ele>702</ele>
        <time>2022-07-19T09:01:01Z</time>
      </trkpt>
      <trkpt lat="44.29624" lon="5.16888">
        <ele>702</ele>
        <time>2022-07-19T09:01:02Z</time>
      </trkpt>
      <trkpt lat="44.29624" lon="5.16888">
        <ele>702</ele>
        <time>2022-07-19T09:01:03Z</time>
      </trkpt>
      <trkpt lat="44.29624" lon="5.16888">
        <ele>702</ele>
        <time>2022-07-19T09:01:04Z</time>
      </trkpt>
      <trkpt lat="44.29624" lon="5.16888">
        <ele>702</ele>
        <time>2022-07-19T09:01:05Z</time>
      </trkpt>
      <trkpt lat="44.29624" lon="5.16888">
        <ele>702</ele>
        <time>2022-07-19T09:01:06Z</time>
      </trkpt>
      <trkpt lat="44.29624" lon="5.16888">
        <ele>702</ele>
        <time>2022-07-19T09:01:07Z</time>
      </trkpt>
      <trkpt lat="44.29623" lon="5.16885">
        <ele>701.9</ele>
        <time>2022-07-19T09:05:22Z</time>
      </trkpt>
      <trkpt lat="44.29623" lon="5.16885">
        <ele>701.9</ele>
        <time>2022-07-19T09:05:23Z</time>
      </trkpt>
      <trkpt lat="44.29621" lon="5.16884">
        <ele>701.8</ele>
        <time>2022-07-19T09:05:24Z</time>
      </trkpt>
      <trkpt lat="44.29617" lon="5.16885">
        <ele>701.6</ele>
        <time>2022-07-19T09:05:25Z</time>
      </trkpt>
      <trkpt lat="44.29616" lon="5.16885">
        <ele>701.6</ele>
        <time>2022-07-19T09:05:26Z</time>
      </trkpt>
      <trkpt lat="44.29613" lon="5.16887">
        <ele>701.4</ele>
        <time>2022-07-19T09:05:27Z</time>
      </trkpt>
      <trkpt lat="44.2961" lon="5.16888">
        <ele>701.3</ele>
        <time>2022-07-19T09:05:28Z</time>
      </trkpt>
      <trkpt lat="44.29607" lon="5.16888">
        <ele>701.2</ele>
        <time>2022-07-19T09:05:29Z</time>
      </trkpt>
      <trkpt lat="44.29604" lon="5.16888">
        <ele>701.1</ele>
        <time>2022-07-19T09:05:30Z</time>
      </trkpt>
      <trkpt lat="44.29601" lon="5.1689">
        <ele>701</ele>
        <time>2022-07-19T09:05:31Z</time>
      </trkpt>
      <trkpt lat="44.296" lon="5.16891">
        <ele>700.9</ele>
        <time>2022-07-19T09:05:32Z</time>
      </trkpt>
      <trkpt lat="44.29598" lon="5.16894">
        <ele>700.8</ele>
        <time>2022-07-19T09:05:33Z</time>
      </trkpt>
      <trkpt lat="44.29595" lon="5.16898">
        <ele>700.7</ele>
        <time>2022-07-19T09:05:34Z</time>
      </trkpt>
      <trkpt lat="44.29592" lon="5.16902">
        <ele>700.6</ele>
        <time>2022-07-19T09:05:35Z</time>
      </trkpt>
      <trkpt lat="44.2959" lon="5.16906">
        <ele>700.4</ele>
        <time>2022-07-19T09:05:36Z</time>
      </trkpt>
      <trkpt lat="44.29588" lon="5.16909">
        <ele>700.4</ele>
        <time>2022-07-19T09:05:37Z</time>
      </trkpt>
      <trkpt lat="44.29586" lon="5.16913">
        <ele>700.3</ele>
        <time>2022-07-19T09:05:38Z</time>
      </trkpt>
      <trkpt lat="44.29584" lon="5.16916">
        <ele>700.3</ele>
        <time>2022-07-19T09:05:39Z</time>
      </trkpt>
      <trkpt lat="44.29584" lon="5.1692">
        <ele>701</ele>
        <time>2022-07-19T09:05:40Z</time>
      </trkpt>
      <trkpt lat="44.29584" lon="5.16921">
        <ele>701</ele>
        <time>2022-07-19T09:05:41Z</time>
      </trkpt>
      <trkpt lat="44.29587" lon="5.16924">
        <ele>698.8</ele>
        <time>2022-07-19T09:05:42Z</time>
      </trkpt>
      <trkpt lat="44.29588" lon="5.16925">
        <ele>698.8</ele>
        <time>2022-07-19T09:05:43Z</time>
      </trkpt>
      <trkpt lat="44.29592" lon="5.16924">
        <ele>698.8</ele>
        <time>2022-07-19T09:05:44Z</time>
      </trkpt>
      <trkpt lat="44.29593" lon="5.16924">
        <ele>698.8</ele>
        <time>2022-07-19T09:05:45Z</time>
      </trkpt>
      <trkpt lat="44.29597" lon="5.16922">
        <ele>700.2</ele>
        <time>2022-07-19T09:05:46Z</time>
      </trkpt>
      <trkpt lat="44.29598" lon="5.16922">
        <ele>700.2</ele>
        <time>2022-07-19T09:05:47Z</time>
      </trkpt>
      <trkpt lat="44.29601" lon="5.16921">
        <ele>700.2</ele>
        <time>2022-07-19T09:05:48Z</time>
      </trkpt>
      <trkpt lat="44.29604" lon="5.16921">
        <ele>700.2</ele>
        <time>2022-07-19T09:05:49Z</time>
      </trkpt>
      <trkpt lat="44.29604" lon="5.16922">
        <ele>700.2</ele>
        <time>2022-07-19T09:05:50Z</time>
      </trkpt>
      <trkpt lat="44.29605" lon="5.16924">
        <ele>700.2</ele>
        <time>2022-07-19T09:05:51Z</time>
      </trkpt>
      <trkpt lat="44.29606" lon="5.16925">
        <ele>698.9</ele>
        <time>2022-07-19T09:05:52Z</time>
      </trkpt>
      <trkpt lat="44.29607" lon="5.16926">
        <ele>698.9</ele>
        <time>2022-07-19T09:05:53Z</time>
      </trkpt>
      <trkpt lat="44.29608" lon="5.16928">
        <ele>698.9</ele>
        <time>2022-07-19T09:05:54Z</time>
      </trkpt>
      <trkpt lat="44.2961" lon="5.16928">
        <ele>699.9</ele>
        <time>2022-07-19T09:05:55Z</time>
      </trkpt>
      <trkpt lat="44.29612" lon="5.16929">
        <ele>699.9</ele>
        <time>2022-07-19T09:05:56Z</time>
      </trkpt>
      <trkpt lat="44.29613" lon="5.16929">
        <ele>699.9</ele>
        <time>2022-07-19T09:05:57Z</time>
      </trkpt>
      <trkpt lat="44.29614" lon="5.1693">
        <ele>699.9</ele>
        <time>2022-07-19T09:05:58Z</time>
      </trkpt>
      <trkpt lat="44.29613" lon="5.16932">
        <ele>699.9</ele>
        <time>2022-07-19T09:05:59Z</time>
      </trkpt>
      <trkpt lat="44.29612" lon="5.16934">
        <ele>699.9</ele>
        <time>2022-07-19T09:06:00Z</time>
      </trkpt>
      <trkpt lat="44.29611" lon="5.16935">
        <ele>699.9</ele>
        <time>2022-07-19T09:06:01Z</time>
      </trkpt>
      <trkpt lat="44.2961" lon="5.16936">
        <ele>699.9</ele>
        <time>2022-07-19T09:06:02Z</time>
      </trkpt>
      <trkpt lat="44.29608" lon="5.16939">
        <ele>698.9</ele>
        <time>2022-07-19T09:06:03Z</time>
      </trkpt>
      <trkpt lat="44.29607" lon="5.1694">
        <ele>698.9</ele>
        <time>2022-07-19T09:06:04Z</time>
      </trkpt>
      <trkpt lat="44.29604" lon="5.16942">
        <ele>697.4</ele>
        <time>2022-07-19T09:06:05Z</time>
      </trkpt>
      <trkpt lat="44.29602" lon="5.16945">
        <ele>697.4</ele>
        <time>2022-07-19T09:06:06Z</time>
      </trkpt>
      <trkpt lat="44.296" lon="5.16948">
        <ele>697.4</ele>
        <time>2022-07-19T09:06:07Z</time>
      </trkpt>
      <trkpt lat="44.29597" lon="5.16951">
        <ele>697.4</ele>
        <time>2022-07-19T09:06:08Z</time>
      </trkpt>
      <trkpt lat="44.29595" lon="5.16954">
        <ele>696.9</ele>
        <time>2022-07-19T09:06:09Z</time>
      </trkpt>
      <trkpt lat="44.29593" lon="5.16957">
        <ele>696.9</ele>
        <time>2022-07-19T09:06:10Z</time>
      </trkpt>
      <trkpt lat="44.2959" lon="5.1696">
        <ele>694.8</ele>
        <time>2022-07-19T09:06:11Z</time>
      </trkpt>
      <trkpt lat="44.29589" lon="5.16961">
        <ele>694.8</ele>
        <time>2022-07-19T09:06:12Z</time>
      </trkpt>
      <trkpt lat="44.29586" lon="5.16964">
        <ele>694.8</ele>
        <time>2022-07-19T09:06:13Z</time>
      </trkpt>
      <trkpt lat="44.29584" lon="5.16967">
        <ele>694.6</ele>
        <time>2022-07-19T09:06:14Z</time>
      </trkpt>
      <trkpt lat="44.29581" lon="5.16968">
        <ele>694.6</ele>
        <time>2022-07-19T09:06:15Z</time>
      </trkpt>
      <trkpt lat="44.29578" lon="5.1697">
        <ele>694.6</ele>
        <time>2022-07-19T09:06:16Z</time>
      </trkpt>
      <trkpt lat="44.29576" lon="5.16971">
        <ele>694.6</ele>
        <time>2022-07-19T09:06:17Z</time>
      </trkpt>
      <trkpt lat="44.29573" lon="5.16974">
        <ele>694.6</ele>
        <time>2022-07-19T09:06:18Z</time>
      </trkpt>
      <trkpt lat="44.29571" lon="5.16976">
        <ele>691.5</ele>
        <time>2022-07-19T09:06:19Z</time>
      </trkpt>
      <trkpt lat="44.29569" lon="5.16979">
        <ele>691.5</ele>
        <time>2022-07-19T09:06:20Z</time>
      </trkpt>
      <trkpt lat="44.29567" lon="5.16982">
        <ele>691.5</ele>
        <time>2022-07-19T09:06:21Z</time>
      </trkpt>
      <trkpt lat="44.29565" lon="5.16985">
        <ele>691.5</ele>
        <time>2022-07-19T09:06:22Z</time>
      </trkpt>
      <trkpt lat="44.29563" lon="5.16988">
        <ele>691.5</ele>
        <time>2022-07-19T09:06:23Z</time>
      </trkpt>
      <trkpt lat="44.2956" lon="5.1699">
        <ele>691.5</ele>
        <time>2022-07-19T09:06:24Z</time>
      </trkpt>
      <trkpt lat="44.29558" lon="5.16993">
        <ele>688.9</ele>
        <time>2022-07-19T09:06:25Z</time>
      </trkpt>
      <trkpt lat="44.29556" lon="5.16996">
        <ele>688.9</ele>
        <time>2022-07-19T09:06:26Z</time>
      </trkpt>
      <trkpt lat="44.29553" lon="5.17">
        <ele>688.9</ele>
        <time>2022-07-19T09:06:27Z</time>
      </trkpt>
      <trkpt lat="44.29551" lon="5.17003">
        <ele>688.9</ele>
        <time>2022-07-19T09:06:28Z</time>
      </trkpt>
      <trkpt lat="44.29549" lon="5.17007">
        <ele>688.9</ele>
        <time>2022-07-19T09:06:29Z</time>
      </trkpt>
      <trkpt lat="44.29548" lon="5.1701">
        <ele>685.3</ele>
        <time>2022-07-19T09:06:30Z</time>
      </trkpt>
      <trkpt lat="44.29546" lon="5.17014">
        <ele>686.8</ele>
        <time>2022-07-19T09:06:31Z</time>
      </trkpt>
      <trkpt lat="44.29545" lon="5.17019">
        <ele>686.8</ele>
        <time>2022-07-19T09:06:32Z</time>
      </trkpt>
      <trkpt lat="44.29545" lon="5.1702">
        <ele>686.8</ele>
        <time>2022-07-19T09:06:33Z</time>
      </trkpt>
      <trkpt lat="44.29545" lon="5.17021">
        <ele>686.8</ele>
        <time>2022-07-19T09:06:34Z</time>
      </trkpt>
      <trkpt lat="44.29545" lon="5.17022">
        <ele>686.8</ele>
        <time>2022-07-19T09:06:35Z</time>
      </trkpt>
      <trkpt lat="44.29545" lon="5.17024">
        <ele>686.8</ele>
        <time>2022-07-19T09:06:36Z</time>
      </trkpt>
      <trkpt lat="44.29545" lon="5.17024">
        <ele>686.8</ele>
        <time>2022-07-19T09:06:37Z</time>
      </trkpt>
      <trkpt lat="44.29545" lon="5.17025">
        <ele>686.8</ele>
        <time>2022-07-19T09:06:38Z</time>
      </trkpt>
      <trkpt lat="44.29544" lon="5.17027">
        <ele>682.4</ele>
        <time>2022-07-19T09:06:39Z</time>
      </trkpt>
      <trkpt lat="44.29543" lon="5.17029">
        <ele>682.4</ele>
        <time>2022-07-19T09:06:40Z</time>
      </trkpt>
      <trkpt lat="44.29542" lon="5.17032">
        <ele>682.4</ele>
        <time>2022-07-19T09:06:41Z</time>
      </trkpt>
      <trkpt lat="44.29541" lon="5.17036">
        <ele>682.4</ele>
        <time>2022-07-19T09:06:42Z</time>
      </trkpt>
      <trkpt lat="44.2954" lon="5.17037">
        <ele>682.4</ele>
        <time>2022-07-19T09:06:43Z</time>
      </trkpt>
      <trkpt lat="44.29538" lon="5.17041">
        <ele>682.4</ele>
        <time>2022-07-19T09:06:44Z</time>
      </trkpt>
      <trkpt lat="44.29535" lon="5.17045">
        <ele>678.5</ele>
        <time>2022-07-19T09:06:45Z</time>
      </trkpt>
      <trkpt lat="44.29533" lon="5.17049">
        <ele>680.4</ele>
        <time>2022-07-19T09:06:46Z</time>
      </trkpt>
      <trkpt lat="44.29531" lon="5.17053">
        <ele>680.4</ele>
        <time>2022-07-19T09:06:47Z</time>
      </trkpt>
      <trkpt lat="44.29529" lon="5.17057">
        <ele>680.4</ele>
        <time>2022-07-19T09:06:48Z</time>
      </trkpt>
      <trkpt lat="44.29527" lon="5.17061">
        <ele>676.1</ele>
        <time>2022-07-19T09:06:49Z</time>
      </trkpt>
      <trkpt lat="44.29526" lon="5.17063">
        <ele>676.1</ele>
        <time>2022-07-19T09:06:50Z</time>
      </trkpt>
      <trkpt lat="44.29525" lon="5.17067">
        <ele>676.1</ele>
        <time>2022-07-19T09:06:51Z</time>
      </trkpt>
      <trkpt lat="44.29525" lon="5.17072">
        <ele>676.1</ele>
        <time>2022-07-19T09:06:52Z</time>
      </trkpt>
      <trkpt lat="44.29523" lon="5.17076">
        <ele>676.1</ele>
        <time>2022-07-19T09:06:53Z</time>
      </trkpt>
      <trkpt lat="44.29522" lon="5.17081">
        <ele>673.5</ele>
        <time>2022-07-19T09:06:54Z</time>
      </trkpt>
      <trkpt lat="44.2952" lon="5.17085">
        <ele>673.5</ele>
        <time>2022-07-19T09:06:55Z</time>
      </trkpt>
      <trkpt lat="44.29519" lon="5.17089">
        <ele>673.5</ele>
        <time>2022-07-19T09:06:56Z</time>
      </trkpt>
      <trkpt lat="44.29518" lon="5.17093">
        <ele>673.5</ele>
        <time>2022-07-19T09:06:57Z</time>
      </trkpt>
      <trkpt lat="44.29516" lon="5.17097">
        <ele>669.2</ele>
        <time>2022-07-19T09:06:58Z</time>
      </trkpt>
      <trkpt lat="44.29516" lon="5.17098">
        <ele>669.2</ele>
        <time>2022-07-19T09:06:59Z</time>
      </trkpt>
      <trkpt lat="44.29515" lon="5.171">
        <ele>669.2</ele>
        <time>2022-07-19T09:07:00Z</time>
      </trkpt>
      <trkpt lat="44.29514" lon="5.17102">
        <ele>669.2</ele>
        <time>2022-07-19T09:07:01Z</time>
      </trkpt>
      <trkpt lat="44.29514" lon="5.17105">
        <ele>669.2</ele>
        <time>2022-07-19T09:07:02Z</time>
      </trkpt>
      <trkpt lat="44.29514" lon="5.17106">
        <ele>669.2</ele>
        <time>2022-07-19T09:07:03Z</time>
      </trkpt>
      <trkpt lat="44.29514" lon="5.17108">
        <ele>669.2</ele>
        <time>2022-07-19T09:07:04Z</time>
      </trkpt>
      <trkpt lat="44.29515" lon="5.1711">
        <ele>669.2</ele>
        <time>2022-07-19T09:07:05Z</time>
      </trkpt>
      <trkpt lat="44.29516" lon="5.17112">
        <ele>669.2</ele>
        <time>2022-07-19T09:07:06Z</time>
      </trkpt>
      <trkpt lat="44.29519" lon="5.17112">
        <ele>669.2</ele>
        <time>2022-07-19T09:07:07Z</time>
      </trkpt>
      <trkpt lat="44.2952" lon="5.17112">
        <ele>669.2</ele>
        <time>2022-07-19T09:07:08Z</time>
      </trkpt>
      <trkpt lat="44.29523" lon="5.17112">
        <ele>667.2</ele>
        <time>2022-07-19T09:07:09Z</time>
      </trkpt>
      <trkpt lat="44.29524" lon="5.17111">
        <ele>667.2</ele>
        <time>2022-07-19T09:07:10Z</time>
      </trkpt>
      <trkpt lat="44.29526" lon="5.1711">
        <ele>667.2</ele>
        <time>2022-07-19T09:07:11Z</time>
      </trkpt>
      <trkpt lat="44.29527" lon="5.1711">
        <ele>667.2</ele>
        <time>2022-07-19T09:07:12Z</time>
      </trkpt>
      <trkpt lat="44.2953" lon="5.17108">
        <ele>667.2</ele>
        <time>2022-07-19T09:07:13Z</time>
      </trkpt>
      <trkpt lat="44.29531" lon="5.17108">
        <ele>667.2</ele>
        <time>2022-07-19T09:07:14Z</time>
      </trkpt>
      <trkpt lat="44.29534" lon="5.17106">
        <ele>667.2</ele>
        <time>2022-07-19T09:07:15Z</time>
      </trkpt>
      <trkpt lat="44.29535" lon="5.17105">
        <ele>665.3</ele>
        <time>2022-07-19T09:07:16Z</time>
      </trkpt>
      <trkpt lat="44.29538" lon="5.17103">
        <ele>665.3</ele>
        <time>2022-07-19T09:07:17Z</time>
      </trkpt>
      <trkpt lat="44.29542" lon="5.17102">
        <ele>665.3</ele>
        <time>2022-07-19T09:07:18Z</time>
      </trkpt>
      <trkpt lat="44.29543" lon="5.17102">
        <ele>665.3</ele>
        <time>2022-07-19T09:07:19Z</time>
      </trkpt>
      <trkpt lat="44.29547" lon="5.17101">
        <ele>665.3</ele>
        <time>2022-07-19T09:07:20Z</time>
      </trkpt>
      <trkpt lat="44.2955" lon="5.17101">
        <ele>664</ele>
        <time>2022-07-19T09:07:21Z</time>
      </trkpt>
      <trkpt lat="44.29553" lon="5.17101">
        <ele>664</ele>
        <time>2022-07-19T09:07:22Z</time>
      </trkpt>
      <trkpt lat="44.29555" lon="5.17101">
        <ele>664</ele>
        <time>2022-07-19T09:07:23Z</time>
      </trkpt>
      <trkpt lat="44.29558" lon="5.17101">
        <ele>664</ele>
        <time>2022-07-19T09:07:24Z</time>
      </trkpt>
      <trkpt lat="44.29559" lon="5.17102">
        <ele>664</ele>
        <time>2022-07-19T09:07:25Z</time>
      </trkpt>
      <trkpt lat="44.29561" lon="5.17102">
        <ele>663.4</ele>
        <time>2022-07-19T09:07:26Z</time>
      </trkpt>
      <trkpt lat="44.29562" lon="5.17102">
        <ele>663.4</ele>
        <time>2022-07-19T09:07:27Z</time>
      </trkpt>
      <trkpt lat="44.29566" lon="5.17102">
        <ele>663.4</ele>
        <time>2022-07-19T09:07:28Z</time>
      </trkpt>
      <trkpt lat="44.29567" lon="5.17102">
        <ele>663.4</ele>
        <time>2022-07-19T09:07:29Z</time>
      </trkpt>
      <trkpt lat="44.2957" lon="5.17101">
        <ele>663.4</ele>
        <time>2022-07-19T09:07:30Z</time>
      </trkpt>
      <trkpt lat="44.29571" lon="5.17101">
        <ele>663.4</ele>
        <time>2022-07-19T09:07:31Z</time>
      </trkpt>
      <trkpt lat="44.29573" lon="5.17101">
        <ele>663.3</ele>
        <time>2022-07-19T09:07:32Z</time>
      </trkpt>
      <trkpt lat="44.29574" lon="5.171">
        <ele>663.3</ele>
        <time>2022-07-19T09:07:33Z</time>
      </trkpt>
      <trkpt lat="44.29575" lon="5.171">
        <ele>663.3</ele>
        <time>2022-07-19T09:07:34Z</time>
      </trkpt>
      <trkpt lat="44.29575" lon="5.171">
        <ele>663.3</ele>
        <time>2022-07-19T09:07:35Z</time>
      </trkpt>
      <trkpt lat="44.29577" lon="5.17099">
        <ele>663.3</ele>
        <time>2022-07-19T09:07:36Z</time>
      </trkpt>
      <trkpt lat="44.29577" lon="5.171">
        <ele>663.3</ele>
        <time>2022-07-19T09:07:37Z</time>
      </trkpt>
      <trkpt lat="44.29578" lon="5.171">
        <ele>663.3</ele>
        <time>2022-07-19T09:07:38Z</time>
      </trkpt>
      <trkpt lat="44.29578" lon="5.17102">
        <ele>663.3</ele>
        <time>2022-07-19T09:07:39Z</time>
      </trkpt>
      <trkpt lat="44.29577" lon="5.17103">
        <ele>663.3</ele>
        <time>2022-07-19T09:07:40Z</time>
      </trkpt>
      <trkpt lat="44.29576" lon="5.17104">
        <ele>663.3</ele>
        <time>2022-07-19T09:07:41Z</time>
      </trkpt>
      <trkpt lat="44.29574" lon="5.17104">
        <ele>663.3</ele>
        <time>2022-07-19T09:07:42Z</time>
      </trkpt>
      <trkpt lat="44.29573" lon="5.17107">
        <ele>663.3</ele>
        <time>2022-07-19T09:07:43Z</time>
      </trkpt>
      <trkpt lat="44.29573" lon="5.17108">
        <ele>663.3</ele>
        <time>2022-07-19T09:07:44Z</time>
      </trkpt>
      <trkpt lat="44.29573" lon="5.17109">
        <ele>663.3</ele>
        <time>2022-07-19T09:07:45Z</time>
      </trkpt>
      <trkpt lat="44.29572" lon="5.17111">
        <ele>663.3</ele>
        <time>2022-07-19T09:07:46Z</time>
      </trkpt>
      <trkpt lat="44.29572" lon="5.17114">
        <ele>658.7</ele>
        <time>2022-07-19T09:07:47Z</time>
      </trkpt>
      <trkpt lat="44.29571" lon="5.17116">
        <ele>658.7</ele>
        <time>2022-07-19T09:07:48Z</time>
      </trkpt>
      <trkpt lat="44.2957" lon="5.17117">
        <ele>658.7</ele>
        <time>2022-07-19T09:07:49Z</time>
      </trkpt>
      <trkpt lat="44.29568" lon="5.17119">
        <ele>658.7</ele>
        <time>2022-07-19T09:07:50Z</time>
      </trkpt>
      <trkpt lat="44.29567" lon="5.1712">
        <ele>658.7</ele>
        <time>2022-07-19T09:07:51Z</time>
      </trkpt>
      <trkpt lat="44.29565" lon="5.17124">
        <ele>658.7</ele>
        <time>2022-07-19T09:07:52Z</time>
      </trkpt>
      <trkpt lat="44.29564" lon="5.17125">
        <ele>658.7</ele>
        <time>2022-07-19T09:07:53Z</time>
      </trkpt>
      <trkpt lat="44.29561" lon="5.17129">
        <ele>658.7</ele>
        <time>2022-07-19T09:07:54Z</time>
      </trkpt>
      <trkpt lat="44.29561" lon="5.1713">
        <ele>654.8</ele>
        <time>2022-07-19T09:07:55Z</time>
      </trkpt>
      <trkpt lat="44.29558" lon="5.17134">
        <ele>655.2</ele>
        <time>2022-07-19T09:07:56Z</time>
      </trkpt>
      <trkpt lat="44.29557" lon="5.17136">
        <ele>655.2</ele>
        <time>2022-07-19T09:07:57Z</time>
      </trkpt>
      <trkpt lat="44.29556" lon="5.17139">
        <ele>655.2</ele>
        <time>2022-07-19T09:07:58Z</time>
      </trkpt>
      <trkpt lat="44.29555" lon="5.17143">
        <ele>655.2</ele>
        <time>2022-07-19T09:07:59Z</time>
      </trkpt>
      <trkpt lat="44.29553" lon="5.17147">
        <ele>655.2</ele>
        <time>2022-07-19T09:08:00Z</time>
      </trkpt>
      <trkpt lat="44.29552" lon="5.1715">
        <ele>651.6</ele>
        <time>2022-07-19T09:08:01Z</time>
      </trkpt>
      <trkpt lat="44.29551" lon="5.17154">
        <ele>651.6</ele>
        <time>2022-07-19T09:08:02Z</time>
      </trkpt>
      <trkpt lat="44.29549" lon="5.17159">
        <ele>651.6</ele>
        <time>2022-07-19T09:08:03Z</time>
      </trkpt>
      <trkpt lat="44.29548" lon="5.17163">
        <ele>651.6</ele>
        <time>2022-07-19T09:08:04Z</time>
      </trkpt>
      <trkpt lat="44.29547" lon="5.17167">
        <ele>648.2</ele>
        <time>2022-07-19T09:08:05Z</time>
      </trkpt>
      <trkpt lat="44.29546" lon="5.17173">
        <ele>648.9</ele>
        <time>2022-07-19T09:08:06Z</time>
      </trkpt>
      <trkpt lat="44.29545" lon="5.17178">
        <ele>648.9</ele>
        <time>2022-07-19T09:08:07Z</time>
      </trkpt>
      <trkpt lat="44.29543" lon="5.17182">
        <ele>645.9</ele>
        <time>2022-07-19T09:08:08Z</time>
      </trkpt>
      <trkpt lat="44.29542" lon="5.17187">
        <ele>645.9</ele>
        <time>2022-07-19T09:08:09Z</time>
      </trkpt>
      <trkpt lat="44.29542" lon="5.17188">
        <ele>645.9</ele>
        <time>2022-07-19T09:08:10Z</time>
      </trkpt>
      <trkpt lat="44.29542" lon="5.17193">
        <ele>645.9</ele>
        <time>2022-07-19T09:08:11Z</time>
      </trkpt>
      <trkpt lat="44.29542" lon="5.17194">
        <ele>645.9</ele>
        <time>2022-07-19T09:08:12Z</time>
      </trkpt>
      <trkpt lat="44.29543" lon="5.17198">
        <ele>645.9</ele>
        <time>2022-07-19T09:08:13Z</time>
      </trkpt>
      <trkpt lat="44.29544" lon="5.172">
        <ele>642.7</ele>
        <time>2022-07-19T09:08:14Z</time>
      </trkpt>
      <trkpt lat="44.29546" lon="5.17202">
        <ele>642.7</ele>
        <time>2022-07-19T09:08:15Z</time>
      </trkpt>
      <trkpt lat="44.29544" lon="5.17203">
        <ele>642.7</ele>
        <time>2022-07-19T09:08:16Z</time>
      </trkpt>
      <trkpt lat="44.29542" lon="5.17204">
        <ele>642.7</ele>
        <time>2022-07-19T09:08:17Z</time>
      </trkpt>
      <trkpt lat="44.2954" lon="5.17205">
        <ele>642.7</ele>
        <time>2022-07-19T09:08:18Z</time>
      </trkpt>
      <trkpt lat="44.29539" lon="5.17206">
        <ele>642.7</ele>
        <time>2022-07-19T09:08:19Z</time>
      </trkpt>
      <trkpt lat="44.29537" lon="5.17207">
        <ele>642.7</ele>
        <time>2022-07-19T09:08:20Z</time>
      </trkpt>
      <trkpt lat="44.29535" lon="5.17208">
        <ele>642.7</ele>
        <time>2022-07-19T09:08:21Z</time>
      </trkpt>
      <trkpt lat="44.29533" lon="5.17209">
        <ele>643.6</ele>
        <time>2022-07-19T09:10:36Z</time>
      </trkpt>
      <trkpt lat="44.29532" lon="5.1721">
        <ele>643.6</ele>
        <time>2022-07-19T09:10:37Z</time>
      </trkpt>
      <trkpt lat="44.29529" lon="5.17211">
        <ele>643.6</ele>
        <time>2022-07-19T09:10:38Z</time>
      </trkpt>
      <trkpt lat="44.29527" lon="5.17212">
        <ele>643.6</ele>
        <time>2022-07-19T09:10:39Z</time>
      </trkpt>
      <trkpt lat="44.29526" lon="5.17212">
        <ele>643.6</ele>
        <time>2022-07-19T09:10:40Z</time>
      </trkpt>
      <trkpt lat="44.29524" lon="5.17211">
        <ele>643.6</ele>
        <time>2022-07-19T09:10:41Z</time>
      </trkpt>
      <trkpt lat="44.29523" lon="5.17211">
        <ele>643.6</ele>
        <time>2022-07-19T09:10:42Z</time>
      </trkpt>
      <trkpt lat="44.29522" lon="5.1721">
        <ele>644.8</ele>
        <time>2022-07-19T09:10:43Z</time>
      </trkpt>
      <trkpt lat="44.2952" lon="5.17208">
        <ele>644.8</ele>
        <time>2022-07-19T09:10:44Z</time>
      </trkpt>
      <trkpt lat="44.29518" lon="5.17206">
        <ele>644.8</ele>
        <time>2022-07-19T09:10:45Z</time>
      </trkpt>
      <trkpt lat="44.29517" lon="5.17206">
        <ele>644.8</ele>
        <time>2022-07-19T09:10:46Z</time>
      </trkpt>
      <trkpt lat="44.29513" lon="5.17206">
        <ele>644.8</ele>
        <time>2022-07-19T09:10:47Z</time>
      </trkpt>
      <trkpt lat="44.29512" lon="5.17206">
        <ele>644.8</ele>
        <time>2022-07-19T09:10:48Z</time>
      </trkpt>
      <trkpt lat="44.29509" lon="5.17206">
        <ele>646</ele>
        <time>2022-07-19T09:10:49Z</time>
      </trkpt>
      <trkpt lat="44.29506" lon="5.17206">
        <ele>646</ele>
        <time>2022-07-19T09:10:50Z</time>
      </trkpt>
      <trkpt lat="44.29503" lon="5.17207">
        <ele>646</ele>
        <time>2022-07-19T09:10:51Z</time>
      </trkpt>
      <trkpt lat="44.295" lon="5.17208">
        <ele>646</ele>
        <time>2022-07-19T09:10:52Z</time>
      </trkpt>
      <trkpt lat="44.29497" lon="5.17208">
        <ele>647.5</ele>
        <time>2022-07-19T09:10:53Z</time>
      </trkpt>
      <trkpt lat="44.29495" lon="5.17208">
        <ele>647.5</ele>
        <time>2022-07-19T09:10:54Z</time>
      </trkpt>
      <trkpt lat="44.29492" lon="5.17207">
        <ele>647.5</ele>
        <time>2022-07-19T09:10:55Z</time>
      </trkpt>
      <trkpt lat="44.2949" lon="5.17206">
        <ele>647.5</ele>
        <time>2022-07-19T09:10:56Z</time>
      </trkpt>
      <trkpt lat="44.29487" lon="5.17206">
        <ele>647.5</ele>
        <time>2022-07-19T09:10:57Z</time>
      </trkpt>
      <trkpt lat="44.29486" lon="5.17206">
        <ele>647.5</ele>
        <time>2022-07-19T09:10:58Z</time>
      </trkpt>
      <trkpt lat="44.29485" lon="5.17206">
        <ele>649.2</ele>
        <time>2022-07-19T09:10:59Z</time>
      </trkpt>
      <trkpt lat="44.29484" lon="5.17205">
        <ele>649.2</ele>
        <time>2022-07-19T09:11:00Z</time>
      </trkpt>
      <trkpt lat="44.29481" lon="5.17204">
        <ele>649.2</ele>
        <time>2022-07-19T09:11:01Z</time>
      </trkpt>
      <trkpt lat="44.2948" lon="5.17204">
        <ele>649.2</ele>
        <time>2022-07-19T09:11:02Z</time>
      </trkpt>
      <trkpt lat="44.29477" lon="5.17205">
        <ele>649.2</ele>
        <time>2022-07-19T09:11:03Z</time>
      </trkpt>
      <trkpt lat="44.29476" lon="5.17206">
        <ele>649.2</ele>
        <time>2022-07-19T09:11:04Z</time>
      </trkpt>
      <trkpt lat="44.29474" lon="5.17208">
        <ele>649.2</ele>
        <time>2022-07-19T09:11:05Z</time>
      </trkpt>
      <trkpt lat="44.29473" lon="5.17209">
        <ele>651.8</ele>
        <time>2022-07-19T09:11:06Z</time>
      </trkpt>
      <trkpt lat="44.29472" lon="5.17213">
        <ele>651.8</ele>
        <time>2022-07-19T09:11:07Z</time>
      </trkpt>
      <trkpt lat="44.29471" lon="5.17215">
        <ele>651.8</ele>
        <time>2022-07-19T09:11:08Z</time>
      </trkpt>
      <trkpt lat="44.2947" lon="5.1722">
        <ele>649.1</ele>
        <time>2022-07-19T09:11:09Z</time>
      </trkpt>
      <trkpt lat="44.29469" lon="5.17221">
        <ele>649.1</ele>
        <time>2022-07-19T09:11:10Z</time>
      </trkpt>
      <trkpt lat="44.29466" lon="5.17224">
        <ele>649.1</ele>
        <time>2022-07-19T09:11:11Z</time>
      </trkpt>
      <trkpt lat="44.29465" lon="5.17227">
        <ele>649.1</ele>
        <time>2022-07-19T09:11:12Z</time>
      </trkpt>
      <trkpt lat="44.29463" lon="5.17232">
        <ele>649.1</ele>
        <time>2022-07-19T09:11:13Z</time>
      </trkpt>
      <trkpt lat="44.29461" lon="5.17236">
        <ele>648.7</ele>
        <time>2022-07-19T09:11:14Z</time>
      </trkpt>
      <trkpt lat="44.29459" lon="5.1724">
        <ele>648.7</ele>
        <time>2022-07-19T09:11:15Z</time>
      </trkpt>
      <trkpt lat="44.29458" lon="5.17244">
        <ele>648.7</ele>
        <time>2022-07-19T09:11:16Z</time>
      </trkpt>
      <trkpt lat="44.29457" lon="5.17247">
        <ele>648.7</ele>
        <time>2022-07-19T09:11:17Z</time>
      </trkpt>
      <trkpt lat="44.29455" lon="5.17251">
        <ele>644.6</ele>
        <time>2022-07-19T09:11:18Z</time>
      </trkpt>
      <trkpt lat="44.29452" lon="5.17254">
        <ele>644.6</ele>
        <time>2022-07-19T09:11:19Z</time>
      </trkpt>
      <trkpt lat="44.2945" lon="5.17257">
        <ele>644.6</ele>
        <time>2022-07-19T09:11:20Z</time>
      </trkpt>
      <trkpt lat="44.29449" lon="5.17258">
        <ele>644.6</ele>
        <time>2022-07-19T09:11:21Z</time>
      </trkpt>
      <trkpt lat="44.29448" lon="5.1726">
        <ele>647.3</ele>
        <time>2022-07-19T09:11:22Z</time>
      </trkpt>
      <trkpt lat="44.29447" lon="5.17261">
        <ele>647.3</ele>
        <time>2022-07-19T09:11:23Z</time>
      </trkpt>
      <trkpt lat="44.29447" lon="5.17262">
        <ele>647.3</ele>
        <time>2022-07-19T09:11:24Z</time>
      </trkpt>
      <trkpt lat="44.29446" lon="5.17263">
        <ele>647.3</ele>
        <time>2022-07-19T09:11:25Z</time>
      </trkpt>
      <trkpt lat="44.29446" lon="5.17264">
        <ele>647.3</ele>
        <time>2022-07-19T09:11:26Z</time>
      </trkpt>
      <trkpt lat="44.29445" lon="5.17265">
        <ele>647.3</ele>
        <time>2022-07-19T09:11:27Z</time>
      </trkpt>
      <trkpt lat="44.29444" lon="5.17266">
        <ele>647.3</ele>
        <time>2022-07-19T09:11:28Z</time>
      </trkpt>
      <trkpt lat="44.29443" lon="5.17267">
        <ele>647.3</ele>
        <time>2022-07-19T09:11:29Z</time>
      </trkpt>
      <trkpt lat="44.29442" lon="5.17267">
        <ele>647.3</ele>
        <time>2022-07-19T09:11:30Z</time>
      </trkpt>
      <trkpt lat="44.29442" lon="5.17268">
        <ele>643.1</ele>
        <time>2022-07-19T09:11:31Z</time>
      </trkpt>
      <trkpt lat="44.29442" lon="5.17268">
        <ele>643.1</ele>
        <time>2022-07-19T09:11:32Z</time>
      </trkpt>
      <trkpt lat="44.29441" lon="5.17269">
        <ele>643.1</ele>
        <time>2022-07-19T09:11:33Z</time>
      </trkpt>
      <trkpt lat="44.29441" lon="5.17269">
        <ele>643.1</ele>
        <time>2022-07-19T09:11:34Z</time>
      </trkpt>
      <trkpt lat="44.29441" lon="5.17269">
        <ele>643.1</ele>
        <time>2022-07-19T09:11:35Z</time>
      </trkpt>
      <trkpt lat="44.29441" lon="5.17269">
        <ele>643.1</ele>
        <time>2022-07-19T09:11:36Z</time>
      </trkpt>
      <trkpt lat="44.29441" lon="5.17269">
        <ele>643.1</ele>
        <time>2022-07-19T09:11:37Z</time>
      </trkpt>
      <trkpt lat="44.29441" lon="5.17269">
        <ele>643.1</ele>
        <time>2022-07-19T09:11:38Z</time>
      </trkpt>
      <trkpt lat="44.29441" lon="5.17269">
        <ele>643.1</ele>
        <time>2022-07-19T09:11:39Z</time>
      </trkpt>
      <trkpt lat="44.29439" lon="5.17275">
        <ele>643.1</ele>
        <time>2022-07-19T09:11:47Z</time>
      </trkpt>
      <trkpt lat="44.29438" lon="5.17275">
        <ele>643.1</ele>
        <time>2022-07-19T09:11:48Z</time>
      </trkpt>
      <trkpt lat="44.29436" lon="5.17275">
        <ele>645.8</ele>
        <time>2022-07-19T09:11:49Z</time>
      </trkpt>
      <trkpt lat="44.29435" lon="5.17276">
        <ele>645.8</ele>
        <time>2022-07-19T09:11:50Z</time>
      </trkpt>
      <trkpt lat="44.29434" lon="5.17277">
        <ele>645.8</ele>
        <time>2022-07-19T09:11:51Z</time>
      </trkpt>
      <trkpt lat="44.29433" lon="5.17278">
        <ele>645.8</ele>
        <time>2022-07-19T09:11:52Z</time>
      </trkpt>
      <trkpt lat="44.29433" lon="5.17279">
        <ele>645.8</ele>
        <time>2022-07-19T09:11:53Z</time>
      </trkpt>
      <trkpt lat="44.29432" lon="5.1728">
        <ele>645.8</ele>
        <time>2022-07-19T09:11:54Z</time>
      </trkpt>
      <trkpt lat="44.29429" lon="5.17282">
        <ele>645.8</ele>
        <time>2022-07-19T09:11:55Z</time>
      </trkpt>
      <trkpt lat="44.29428" lon="5.17282">
        <ele>645.8</ele>
        <time>2022-07-19T09:11:56Z</time>
      </trkpt>
      <trkpt lat="44.29426" lon="5.17284">
        <ele>641.2</ele>
        <time>2022-07-19T09:11:57Z</time>
      </trkpt>
      <trkpt lat="44.29425" lon="5.17285">
        <ele>641.2</ele>
        <time>2022-07-19T09:11:58Z</time>
      </trkpt>
      <trkpt lat="44.29424" lon="5.17287">
        <ele>644.1</ele>
        <time>2022-07-19T09:11:59Z</time>
      </trkpt>
      <trkpt lat="44.29423" lon="5.17288">
        <ele>644.1</ele>
        <time>2022-07-19T09:12:00Z</time>
      </trkpt>
      <trkpt lat="44.29422" lon="5.1729">
        <ele>644.1</ele>
        <time>2022-07-19T09:12:01Z</time>
      </trkpt>
      <trkpt lat="44.29421" lon="5.17291">
        <ele>644.1</ele>
        <time>2022-07-19T09:12:02Z</time>
      </trkpt>
      <trkpt lat="44.2942" lon="5.17292">
        <ele>644.1</ele>
        <time>2022-07-19T09:12:03Z</time>
      </trkpt>
      <trkpt lat="44.2942" lon="5.17293">
        <ele>644.1</ele>
        <time>2022-07-19T09:12:04Z</time>
      </trkpt>
      <trkpt lat="44.2942" lon="5.17293">
        <ele>644.1</ele>
        <time>2022-07-19T09:12:05Z</time>
      </trkpt>
      <trkpt lat="44.2942" lon="5.17293">
        <ele>644.1</ele>
        <time>2022-07-19T09:12:06Z</time>
      </trkpt>
      <trkpt lat="44.2942" lon="5.17293">
        <ele>644.1</ele>
        <time>2022-07-19T09:12:07Z</time>
      </trkpt>
      <trkpt lat="44.2942" lon="5.17293">
        <ele>644.1</ele>
        <time>2022-07-19T09:12:08Z</time>
      </trkpt>
      <trkpt lat="44.2942" lon="5.17293">
        <ele>644.1</ele>
        <time>2022-07-19T09:12:09Z</time>
      </trkpt>
      <trkpt lat="44.2942" lon="5.17293">
        <ele>644.1</ele>
        <time>2022-07-19T09:12:10Z</time>
      </trkpt>
      <trkpt lat="44.29413" lon="5.17292">
        <ele>644.1</ele>
        <time>2022-07-19T09:12:22Z</time>
      </trkpt>
      <trkpt lat="44.29412" lon="5.17291">
        <ele>647.3</ele>
        <time>2022-07-19T09:12:23Z</time>
      </trkpt>
      <trkpt lat="44.2941" lon="5.1729">
        <ele>647.3</ele>
        <time>2022-07-19T09:12:24Z</time>
      </trkpt>
      <trkpt lat="44.29409" lon="5.1729">
        <ele>647.3</ele>
        <time>2022-07-19T09:12:25Z</time>
      </trkpt>
      <trkpt lat="44.29407" lon="5.1729">
        <ele>647.3</ele>
        <time>2022-07-19T09:12:26Z</time>
      </trkpt>
      <trkpt lat="44.29406" lon="5.17291">
        <ele>647.3</ele>
        <time>2022-07-19T09:12:27Z</time>
      </trkpt>
      <trkpt lat="44.29405" lon="5.17291">
        <ele>647.3</ele>
        <time>2022-07-19T09:12:28Z</time>
      </trkpt>
      <trkpt lat="44.29404" lon="5.17291">
        <ele>647.3</ele>
        <time>2022-07-19T09:12:29Z</time>
      </trkpt>
      <trkpt lat="44.29404" lon="5.17292">
        <ele>647.3</ele>
        <time>2022-07-19T09:12:30Z</time>
      </trkpt>
      <trkpt lat="44.29403" lon="5.17292">
        <ele>647.3</ele>
        <time>2022-07-19T09:12:31Z</time>
      </trkpt>
      <trkpt lat="44.29403" lon="5.17292">
        <ele>647.3</ele>
        <time>2022-07-19T09:12:32Z</time>
      </trkpt>
      <trkpt lat="44.29389" lon="5.17293">
        <ele>650.3</ele>
        <time>2022-07-19T09:12:48Z</time>
      </trkpt>
      <trkpt lat="44.29389" lon="5.17293">
        <ele>650.3</ele>
        <time>2022-07-19T09:12:49Z</time>
      </trkpt>
      <trkpt lat="44.29387" lon="5.17293">
        <ele>653.7</ele>
        <time>2022-07-19T09:12:50Z</time>
      </trkpt>
      <trkpt lat="44.29384" lon="5.17293">
        <ele>653.7</ele>
        <time>2022-07-19T09:12:51Z</time>
      </trkpt>
      <trkpt lat="44.29383" lon="5.17293">
        <ele>653.7</ele>
        <time>2022-07-19T09:12:52Z</time>
      </trkpt>
      <trkpt lat="44.29382" lon="5.17293">
        <ele>653.7</ele>
        <time>2022-07-19T09:12:53Z</time>
      </trkpt>
      <trkpt lat="44.2938" lon="5.17293">
        <ele>653.7</ele>
        <time>2022-07-19T09:12:54Z</time>
      </trkpt>
      <trkpt lat="44.29378" lon="5.17294">
        <ele>653.7</ele>
        <time>2022-07-19T09:12:55Z</time>
      </trkpt>
      <trkpt lat="44.29377" lon="5.17295">
        <ele>653.7</ele>
        <time>2022-07-19T09:12:56Z</time>
      </trkpt>
      <trkpt lat="44.29377" lon="5.17295">
        <ele>653.7</ele>
        <time>2022-07-19T09:12:57Z</time>
      </trkpt>
      <trkpt lat="44.29375" lon="5.17295">
        <ele>656.8</ele>
        <time>2022-07-19T09:12:58Z</time>
      </trkpt>
      <trkpt lat="44.29373" lon="5.17296">
        <ele>656.8</ele>
        <time>2022-07-19T09:12:59Z</time>
      </trkpt>
      <trkpt lat="44.29372" lon="5.17296">
        <ele>656.8</ele>
        <time>2022-07-19T09:13:00Z</time>
      </trkpt>
      <trkpt lat="44.2937" lon="5.17296">
        <ele>656.8</ele>
        <time>2022-07-19T09:13:01Z</time>
      </trkpt>
      <trkpt lat="44.29369" lon="5.17296">
        <ele>656.8</ele>
        <time>2022-07-19T09:13:02Z</time>
      </trkpt>
      <trkpt lat="44.29367" lon="5.17295">
        <ele>656.8</ele>
        <time>2022-07-19T09:13:03Z</time>
      </trkpt>
      <trkpt lat="44.29364" lon="5.17294">
        <ele>656.8</ele>
        <time>2022-07-19T09:13:04Z</time>
      </trkpt>
      <trkpt lat="44.29363" lon="5.17293">
        <ele>660.5</ele>
        <time>2022-07-19T09:13:05Z</time>
      </trkpt>
      <trkpt lat="44.2936" lon="5.17292">
        <ele>660.5</ele>
        <time>2022-07-19T09:13:06Z</time>
      </trkpt>
      <trkpt lat="44.29358" lon="5.17292">
        <ele>660.5</ele>
        <time>2022-07-19T09:13:07Z</time>
      </trkpt>
      <trkpt lat="44.29355" lon="5.17292">
        <ele>660.5</ele>
        <time>2022-07-19T09:13:08Z</time>
      </trkpt>
      <trkpt lat="44.29353" lon="5.17292">
        <ele>660.5</ele>
        <time>2022-07-19T09:13:09Z</time>
      </trkpt>
      <trkpt lat="44.29352" lon="5.17293">
        <ele>660.5</ele>
        <time>2022-07-19T09:13:10Z</time>
      </trkpt>
      <trkpt lat="44.29348" lon="5.17293">
        <ele>663.8</ele>
        <time>2022-07-19T09:13:11Z</time>
      </trkpt>
      <trkpt lat="44.29347" lon="5.17292">
        <ele>663.8</ele>
        <time>2022-07-19T09:13:12Z</time>
      </trkpt>
      <trkpt lat="44.29344" lon="5.17291">
        <ele>663.8</ele>
        <time>2022-07-19T09:13:13Z</time>
      </trkpt>
      <trkpt lat="44.29343" lon="5.17291">
        <ele>663.8</ele>
        <time>2022-07-19T09:13:14Z</time>
      </trkpt>
      <trkpt lat="44.2934" lon="5.17291">
        <ele>663.8</ele>
        <time>2022-07-19T09:13:15Z</time>
      </trkpt>
      <trkpt lat="44.29339" lon="5.17292">
        <ele>663.8</ele>
        <time>2022-07-19T09:13:16Z</time>
      </trkpt>
      <trkpt lat="44.29336" lon="5.17294">
        <ele>667.3</ele>
        <time>2022-07-19T09:13:17Z</time>
      </trkpt>
      <trkpt lat="44.29335" lon="5.17295">
        <ele>667.3</ele>
        <time>2022-07-19T09:13:18Z</time>
      </trkpt>
      <trkpt lat="44.29332" lon="5.17297">
        <ele>667.3</ele>
        <time>2022-07-19T09:13:19Z</time>
      </trkpt>
      <trkpt lat="44.2933" lon="5.17299">
        <ele>667.3</ele>
        <time>2022-07-19T09:13:20Z</time>
      </trkpt>
      <trkpt lat="44.29328" lon="5.17301">
        <ele>667.3</ele>
        <time>2022-07-19T09:13:21Z</time>
      </trkpt>
      <trkpt lat="44.29328" lon="5.17302">
        <ele>661.5</ele>
        <time>2022-07-19T09:13:22Z</time>
      </trkpt>
      <trkpt lat="44.29326" lon="5.17303">
        <ele>664.9</ele>
        <time>2022-07-19T09:13:23Z</time>
      </trkpt>
      <trkpt lat="44.29325" lon="5.17305">
        <ele>664.9</ele>
        <time>2022-07-19T09:13:24Z</time>
      </trkpt>
      <trkpt lat="44.29323" lon="5.17306">
        <ele>664.9</ele>
        <time>2022-07-19T09:13:25Z</time>
      </trkpt>
      <trkpt lat="44.29323" lon="5.17306">
        <ele>664.9</ele>
        <time>2022-07-19T09:13:26Z</time>
      </trkpt>
      <trkpt lat="44.29323" lon="5.17306">
        <ele>664.9</ele>
        <time>2022-07-19T09:13:27Z</time>
      </trkpt>
      <trkpt lat="44.29323" lon="5.17306">
        <ele>664.9</ele>
        <time>2022-07-19T09:13:28Z</time>
      </trkpt>
      <trkpt lat="44.29323" lon="5.17306">
        <ele>664.9</ele>
        <time>2022-07-19T09:13:29Z</time>
      </trkpt>
      <trkpt lat="44.29323" lon="5.17306">
        <ele>664.9</ele>
        <time>2022-07-19T09:13:30Z</time>
      </trkpt>
      <trkpt lat="44.29323" lon="5.17306">
        <ele>664.9</ele>
        <time>2022-07-19T09:13:31Z</time>
      </trkpt>
      <trkpt lat="44.29319" lon="5.17312">
        <ele>664.9</ele>
        <time>2022-07-19T09:13:54Z</time>
      </trkpt>
      <trkpt lat="44.2932" lon="5.17314">
        <ele>664.9</ele>
        <time>2022-07-19T09:13:55Z</time>
      </trkpt>
      <trkpt lat="44.2932" lon="5.17315">
        <ele>664.9</ele>
        <time>2022-07-19T09:13:56Z</time>
      </trkpt>
      <trkpt lat="44.2932" lon="5.17318">
        <ele>664.9</ele>
        <time>2022-07-19T09:13:57Z</time>
      </trkpt>
      <trkpt lat="44.29318" lon="5.17324">
        <ele>659.3</ele>
        <time>2022-07-19T09:13:58Z</time>
      </trkpt>
      <trkpt lat="44.29318" lon="5.17326">
        <ele>659.3</ele>
        <time>2022-07-19T09:13:59Z</time>
      </trkpt>
      <trkpt lat="44.29316" lon="5.1733">
        <ele>659.3</ele>
        <time>2022-07-19T09:14:00Z</time>
      </trkpt>
      <trkpt lat="44.29315" lon="5.17334">
        <ele>659.3</ele>
        <time>2022-07-19T09:14:01Z</time>
      </trkpt>
      <trkpt lat="44.29313" lon="5.17338">
        <ele>656.4</ele>
        <time>2022-07-19T09:14:02Z</time>
      </trkpt>
      <trkpt lat="44.29312" lon="5.1734">
        <ele>656.4</ele>
        <time>2022-07-19T09:14:03Z</time>
      </trkpt>
      <trkpt lat="44.29309" lon="5.17343">
        <ele>656.4</ele>
        <time>2022-07-19T09:14:04Z</time>
      </trkpt>
      <trkpt lat="44.29308" lon="5.17344">
        <ele>656.4</ele>
        <time>2022-07-19T09:14:05Z</time>
      </trkpt>
      <trkpt lat="44.29308" lon="5.17346">
        <ele>656.4</ele>
        <time>2022-07-19T09:14:06Z</time>
      </trkpt>
      <trkpt lat="44.29307" lon="5.17348">
        <ele>656.4</ele>
        <time>2022-07-19T09:14:07Z</time>
      </trkpt>
      <trkpt lat="44.29306" lon="5.17352">
        <ele>656.4</ele>
        <time>2022-07-19T09:14:08Z</time>
      </trkpt>
      <trkpt lat="44.29306" lon="5.17353">
        <ele>656.4</ele>
        <time>2022-07-19T09:14:09Z</time>
      </trkpt>
      <trkpt lat="44.29305" lon="5.17357">
        <ele>650.9</ele>
        <time>2022-07-19T09:14:10Z</time>
      </trkpt>
      <trkpt lat="44.29304" lon="5.17361">
        <ele>650.9</ele>
        <time>2022-07-19T09:14:11Z</time>
      </trkpt>
      <trkpt lat="44.29303" lon="5.17365">
        <ele>650.9</ele>
        <time>2022-07-19T09:14:12Z</time>
      </trkpt>
      <trkpt lat="44.29302" lon="5.17367">
        <ele>650.9</ele>
        <time>2022-07-19T09:14:13Z</time>
      </trkpt>
      <trkpt lat="44.29301" lon="5.17371">
        <ele>650.5</ele>
        <time>2022-07-19T09:14:14Z</time>
      </trkpt>
      <trkpt lat="44.29301" lon="5.17373">
        <ele>650.5</ele>
        <time>2022-07-19T09:14:15Z</time>
      </trkpt>
      <trkpt lat="44.29303" lon="5.17378">
        <ele>646</ele>
        <time>2022-07-19T09:14:16Z</time>
      </trkpt>
      <trkpt lat="44.29304" lon="5.1738">
        <ele>646</ele>
        <time>2022-07-19T09:14:17Z</time>
      </trkpt>
      <trkpt lat="44.29307" lon="5.17383">
        <ele>646</ele>
        <time>2022-07-19T09:14:18Z</time>
      </trkpt>
      <trkpt lat="44.29309" lon="5.17386">
        <ele>646</ele>
        <time>2022-07-19T09:14:19Z</time>
      </trkpt>
      <trkpt lat="44.2931" lon="5.1739">
        <ele>640.9</ele>
        <time>2022-07-19T09:14:20Z</time>
      </trkpt>
      <trkpt lat="44.29311" lon="5.17394">
        <ele>640.9</ele>
        <time>2022-07-19T09:14:21Z</time>
      </trkpt>
      <trkpt lat="44.29311" lon="5.17395">
        <ele>640.9</ele>
        <time>2022-07-19T09:14:22Z</time>
      </trkpt>
      <trkpt lat="44.2931" lon="5.17396">
        <ele>640.9</ele>
        <time>2022-07-19T09:14:23Z</time>
      </trkpt>
      <trkpt lat="44.29309" lon="5.17397">
        <ele>640.9</ele>
        <time>2022-07-19T09:14:24Z</time>
      </trkpt>
      <trkpt lat="44.29308" lon="5.17398">
        <ele>640.9</ele>
        <time>2022-07-19T09:14:25Z</time>
      </trkpt>
      <trkpt lat="44.29307" lon="5.174">
        <ele>640.9</ele>
        <time>2022-07-19T09:14:26Z</time>
      </trkpt>
      <trkpt lat="44.29306" lon="5.17402">
        <ele>640.9</ele>
        <time>2022-07-19T09:14:27Z</time>
      </trkpt>
      <trkpt lat="44.29306" lon="5.17406">
        <ele>636.5</ele>
        <time>2022-07-19T09:14:28Z</time>
      </trkpt>
      <trkpt lat="44.29306" lon="5.17408">
        <ele>636.5</ele>
        <time>2022-07-19T09:14:29Z</time>
      </trkpt>
      <trkpt lat="44.29306" lon="5.17412">
        <ele>636.5</ele>
        <time>2022-07-19T09:14:30Z</time>
      </trkpt>
      <trkpt lat="44.29306" lon="5.17414">
        <ele>636.5</ele>
        <time>2022-07-19T09:14:31Z</time>
      </trkpt>
      <trkpt lat="44.29307" lon="5.17419">
        <ele>636.5</ele>
        <time>2022-07-19T09:14:32Z</time>
      </trkpt>
      <trkpt lat="44.29307" lon="5.1742">
        <ele>636.5</ele>
        <time>2022-07-19T09:14:33Z</time>
      </trkpt>
      <trkpt lat="44.29308" lon="5.17424">
        <ele>632.1</ele>
        <time>2022-07-19T09:14:34Z</time>
      </trkpt>
      <trkpt lat="44.29309" lon="5.1743">
        <ele>632.1</ele>
        <time>2022-07-19T09:14:35Z</time>
      </trkpt>
      <trkpt lat="44.29309" lon="5.17431">
        <ele>632.1</ele>
        <time>2022-07-19T09:14:36Z</time>
      </trkpt>
      <trkpt lat="44.29309" lon="5.17436">
        <ele>632.1</ele>
        <time>2022-07-19T09:14:37Z</time>
      </trkpt>
      <trkpt lat="44.29309" lon="5.17441">
        <ele>628.1</ele>
        <time>2022-07-19T09:14:38Z</time>
      </trkpt>
      <trkpt lat="44.29308" lon="5.17445">
        <ele>628.1</ele>
        <time>2022-07-19T09:14:39Z</time>
      </trkpt>
      <trkpt lat="44.29307" lon="5.17449">
        <ele>628.1</ele>
        <time>2022-07-19T09:14:40Z</time>
      </trkpt>
      <trkpt lat="44.29306" lon="5.1745">
        <ele>628.1</ele>
        <time>2022-07-19T09:14:41Z</time>
      </trkpt>
      <trkpt lat="44.29305" lon="5.17454">
        <ele>628.1</ele>
        <time>2022-07-19T09:14:42Z</time>
      </trkpt>
      <trkpt lat="44.29304" lon="5.17456">
        <ele>628.1</ele>
        <time>2022-07-19T09:14:43Z</time>
      </trkpt>
      <trkpt lat="44.29303" lon="5.17459">
        <ele>624.8</ele>
        <time>2022-07-19T09:14:44Z</time>
      </trkpt>
      <trkpt lat="44.29301" lon="5.17464">
        <ele>629.7</ele>
        <time>2022-07-19T09:14:45Z</time>
      </trkpt>
      <trkpt lat="44.293" lon="5.17468">
        <ele>629.7</ele>
        <time>2022-07-19T09:14:46Z</time>
      </trkpt>
      <trkpt lat="44.29299" lon="5.17472">
        <ele>629.7</ele>
        <time>2022-07-19T09:14:47Z</time>
      </trkpt>
      <trkpt lat="44.29298" lon="5.17476">
        <ele>626.1</ele>
        <time>2022-07-19T09:14:48Z</time>
      </trkpt>
      <trkpt lat="44.29297" lon="5.17478">
        <ele>626.1</ele>
        <time>2022-07-19T09:14:49Z</time>
      </trkpt>
      <trkpt lat="44.29296" lon="5.17481">
        <ele>626.1</ele>
        <time>2022-07-19T09:14:50Z</time>
      </trkpt>
      <trkpt lat="44.29294" lon="5.17484">
        <ele>626.1</ele>
        <time>2022-07-19T09:14:51Z</time>
      </trkpt>
      <trkpt lat="44.29292" lon="5.17487">
        <ele>626.1</ele>
        <time>2022-07-19T09:14:52Z</time>
      </trkpt>
      <trkpt lat="44.29289" lon="5.17491">
        <ele>623.1</ele>
        <time>2022-07-19T09:14:53Z</time>
      </trkpt>
      <trkpt lat="44.29289" lon="5.17492">
        <ele>627.1</ele>
        <time>2022-07-19T09:14:54Z</time>
      </trkpt>
      <trkpt lat="44.29288" lon="5.17493">
        <ele>627.1</ele>
        <time>2022-07-19T09:14:55Z</time>
      </trkpt>
      <trkpt lat="44.29287" lon="5.17494">
        <ele>627.1</ele>
        <time>2022-07-19T09:14:56Z</time>
      </trkpt>
      <trkpt lat="44.29285" lon="5.17496">
        <ele>627.1</ele>
        <time>2022-07-19T09:14:57Z</time>
      </trkpt>
      <trkpt lat="44.29285" lon="5.17497">
        <ele>627.1</ele>
        <time>2022-07-19T09:14:58Z</time>
      </trkpt>
      <trkpt lat="44.29284" lon="5.17499">
        <ele>627.1</ele>
        <time>2022-07-19T09:14:59Z</time>
      </trkpt>
      <trkpt lat="44.29282" lon="5.17503">
        <ele>627.1</ele>
        <time>2022-07-19T09:15:00Z</time>
      </trkpt>
      <trkpt lat="44.29281" lon="5.17504">
        <ele>627.1</ele>
        <time>2022-07-19T09:15:01Z</time>
      </trkpt>
      <trkpt lat="44.29279" lon="5.17507">
        <ele>627.1</ele>
        <time>2022-07-19T09:15:02Z</time>
      </trkpt>
      <trkpt lat="44.29277" lon="5.1751">
        <ele>628.1</ele>
        <time>2022-07-19T09:15:03Z</time>
      </trkpt>
      <trkpt lat="44.29276" lon="5.17511">
        <ele>628.1</ele>
        <time>2022-07-19T09:15:04Z</time>
      </trkpt>
      <trkpt lat="44.29275" lon="5.17513">
        <ele>628.1</ele>
        <time>2022-07-19T09:15:05Z</time>
      </trkpt>
      <trkpt lat="44.29273" lon="5.17514">
        <ele>628.1</ele>
        <time>2022-07-19T09:15:06Z</time>
      </trkpt>
      <trkpt lat="44.29271" lon="5.17516">
        <ele>628.1</ele>
        <time>2022-07-19T09:15:07Z</time>
      </trkpt>
      <trkpt lat="44.2927" lon="5.17518">
        <ele>628.1</ele>
        <time>2022-07-19T09:15:08Z</time>
      </trkpt>
      <trkpt lat="44.29268" lon="5.17523">
        <ele>628.1</ele>
        <time>2022-07-19T09:15:09Z</time>
      </trkpt>
      <trkpt lat="44.29267" lon="5.17525">
        <ele>628.1</ele>
        <time>2022-07-19T09:15:10Z</time>
      </trkpt>
      <trkpt lat="44.29265" lon="5.17529">
        <ele>624.8</ele>
        <time>2022-07-19T09:15:11Z</time>
      </trkpt>
      <trkpt lat="44.29264" lon="5.17533">
        <ele>628.5</ele>
        <time>2022-07-19T09:15:12Z</time>
      </trkpt>
      <trkpt lat="44.29262" lon="5.17535">
        <ele>628.5</ele>
        <time>2022-07-19T09:15:13Z</time>
      </trkpt>
      <trkpt lat="44.29259" lon="5.17539">
        <ele>628.5</ele>
        <time>2022-07-19T09:15:14Z</time>
      </trkpt>
      <trkpt lat="44.29259" lon="5.1754">
        <ele>628.5</ele>
        <time>2022-07-19T09:15:15Z</time>
      </trkpt>
      <trkpt lat="44.29257" lon="5.17544">
        <ele>625.4</ele>
        <time>2022-07-19T09:15:16Z</time>
      </trkpt>
      <trkpt lat="44.29257" lon="5.17545">
        <ele>625.4</ele>
        <time>2022-07-19T09:15:17Z</time>
      </trkpt>
      <trkpt lat="44.29255" lon="5.1755">
        <ele>625.4</ele>
        <time>2022-07-19T09:15:18Z</time>
      </trkpt>
      <trkpt lat="44.29254" lon="5.17551">
        <ele>625.4</ele>
        <time>2022-07-19T09:15:19Z</time>
      </trkpt>
      <trkpt lat="44.29252" lon="5.17556">
        <ele>629.1</ele>
        <time>2022-07-19T09:15:20Z</time>
      </trkpt>
      <trkpt lat="44.29251" lon="5.17558">
        <ele>629.1</ele>
        <time>2022-07-19T09:15:21Z</time>
      </trkpt>
      <trkpt lat="44.2925" lon="5.17562">
        <ele>625.1</ele>
        <time>2022-07-19T09:15:22Z</time>
      </trkpt>
      <trkpt lat="44.29248" lon="5.17566">
        <ele>625.1</ele>
        <time>2022-07-19T09:15:23Z</time>
      </trkpt>
      <trkpt lat="44.29247" lon="5.17571">
        <ele>625.1</ele>
        <time>2022-07-19T09:15:24Z</time>
      </trkpt>
      <trkpt lat="44.29247" lon="5.17572">
        <ele>625.1</ele>
        <time>2022-07-19T09:15:25Z</time>
      </trkpt>
      <trkpt lat="44.29247" lon="5.17574">
        <ele>625.1</ele>
        <time>2022-07-19T09:15:26Z</time>
      </trkpt>
      <trkpt lat="44.29246" lon="5.17576">
        <ele>625.1</ele>
        <time>2022-07-19T09:15:27Z</time>
      </trkpt>
      <trkpt lat="44.29244" lon="5.1758">
        <ele>621.3</ele>
        <time>2022-07-19T09:15:28Z</time>
      </trkpt>
      <trkpt lat="44.29244" lon="5.17581">
        <ele>621.3</ele>
        <time>2022-07-19T09:15:29Z</time>
      </trkpt>
      <trkpt lat="44.29241" lon="5.17585">
        <ele>621.3</ele>
        <time>2022-07-19T09:15:30Z</time>
      </trkpt>
      <trkpt lat="44.29241" lon="5.17586">
        <ele>621.3</ele>
        <time>2022-07-19T09:15:31Z</time>
      </trkpt>
      <trkpt lat="44.2924" lon="5.17591">
        <ele>623.7</ele>
        <time>2022-07-19T09:15:32Z</time>
      </trkpt>
      <trkpt lat="44.2924" lon="5.17593">
        <ele>623.7</ele>
        <time>2022-07-19T09:15:33Z</time>
      </trkpt>
      <trkpt lat="44.29238" lon="5.17598">
        <ele>619.9</ele>
        <time>2022-07-19T09:15:34Z</time>
      </trkpt>
      <trkpt lat="44.29238" lon="5.176">
        <ele>619.9</ele>
        <time>2022-07-19T09:15:35Z</time>
      </trkpt>
      <trkpt lat="44.29237" lon="5.17604">
        <ele>619.9</ele>
        <time>2022-07-19T09:15:36Z</time>
      </trkpt>
      <trkpt lat="44.29236" lon="5.17606">
        <ele>619.9</ele>
        <time>2022-07-19T09:15:37Z</time>
      </trkpt>
      <trkpt lat="44.29235" lon="5.17609">
        <ele>619.9</ele>
        <time>2022-07-19T09:15:38Z</time>
      </trkpt>
      <trkpt lat="44.29235" lon="5.1761">
        <ele>619.9</ele>
        <time>2022-07-19T09:15:39Z</time>
      </trkpt>
      <trkpt lat="44.29234" lon="5.17612">
        <ele>615.6</ele>
        <time>2022-07-19T09:15:40Z</time>
      </trkpt>
      <trkpt lat="44.29234" lon="5.17614">
        <ele>615.6</ele>
        <time>2022-07-19T09:15:41Z</time>
      </trkpt>
      <trkpt lat="44.29234" lon="5.17616">
        <ele>615.6</ele>
        <time>2022-07-19T09:15:42Z</time>
      </trkpt>
      <trkpt lat="44.29234" lon="5.17616">
        <ele>615.6</ele>
        <time>2022-07-19T09:15:43Z</time>
      </trkpt>
      <trkpt lat="44.29234" lon="5.17617">
        <ele>615.6</ele>
        <time>2022-07-19T09:15:44Z</time>
      </trkpt>
      <trkpt lat="44.29234" lon="5.17617">
        <ele>615.6</ele>
        <time>2022-07-19T09:15:45Z</time>
      </trkpt>
      <trkpt lat="44.29234" lon="5.17618">
        <ele>615.6</ele>
        <time>2022-07-19T09:15:46Z</time>
      </trkpt>
      <trkpt lat="44.29234" lon="5.17618">
        <ele>615.6</ele>
        <time>2022-07-19T09:15:47Z</time>
      </trkpt>
      <trkpt lat="44.29234" lon="5.17619">
        <ele>615.6</ele>
        <time>2022-07-19T09:15:48Z</time>
      </trkpt>
      <trkpt lat="44.29234" lon="5.17619">
        <ele>615.6</ele>
        <time>2022-07-19T09:15:49Z</time>
      </trkpt>
      <trkpt lat="44.29234" lon="5.17619">
        <ele>615.6</ele>
        <time>2022-07-19T09:15:50Z</time>
      </trkpt>
      <trkpt lat="44.29234" lon="5.1762">
        <ele>615.6</ele>
        <time>2022-07-19T09:15:51Z</time>
      </trkpt>
      <trkpt lat="44.29235" lon="5.1762">
        <ele>615.6</ele>
        <time>2022-07-19T09:15:52Z</time>
      </trkpt>
      <trkpt lat="44.29235" lon="5.1762">
        <ele>615.6</ele>
        <time>2022-07-19T09:15:53Z</time>
      </trkpt>
      <trkpt lat="44.29235" lon="5.17621">
        <ele>615.6</ele>
        <time>2022-07-19T09:15:54Z</time>
      </trkpt>
      <trkpt lat="44.29236" lon="5.17622">
        <ele>615.6</ele>
        <time>2022-07-19T09:15:55Z</time>
      </trkpt>
      <trkpt lat="44.29236" lon="5.17623">
        <ele>615.6</ele>
        <time>2022-07-19T09:15:56Z</time>
      </trkpt>
      <trkpt lat="44.29236" lon="5.17625">
        <ele>615.6</ele>
        <time>2022-07-19T09:15:57Z</time>
      </trkpt>
      <trkpt lat="44.29236" lon="5.17626">
        <ele>615.6</ele>
        <time>2022-07-19T09:15:58Z</time>
      </trkpt>
      <trkpt lat="44.29236" lon="5.17627">
        <ele>615.6</ele>
        <time>2022-07-19T09:15:59Z</time>
      </trkpt>
      <trkpt lat="44.29236" lon="5.17629">
        <ele>611.5</ele>
        <time>2022-07-19T09:16:00Z</time>
      </trkpt>
      <trkpt lat="44.29235" lon="5.1763">
        <ele>611.5</ele>
        <time>2022-07-19T09:16:01Z</time>
      </trkpt>
      <trkpt lat="44.29235" lon="5.1763">
        <ele>611.5</ele>
        <time>2022-07-19T09:16:02Z</time>
      </trkpt>
      <trkpt lat="44.29235" lon="5.17632">
        <ele>611.5</ele>
        <time>2022-07-19T09:16:03Z</time>
      </trkpt>
      <trkpt lat="44.29235" lon="5.17632">
        <ele>611.5</ele>
        <time>2022-07-19T09:16:04Z</time>
      </trkpt>
      <trkpt lat="44.29234" lon="5.17634">
        <ele>611.5</ele>
        <time>2022-07-19T09:16:05Z</time>
      </trkpt>
      <trkpt lat="44.29234" lon="5.17635">
        <ele>611.5</ele>
        <time>2022-07-19T09:16:06Z</time>
      </trkpt>
      <trkpt lat="44.29235" lon="5.17637">
        <ele>611.5</ele>
        <time>2022-07-19T09:16:07Z</time>
      </trkpt>
      <trkpt lat="44.29235" lon="5.17638">
        <ele>611.5</ele>
        <time>2022-07-19T09:16:08Z</time>
      </trkpt>
      <trkpt lat="44.29235" lon="5.17639">
        <ele>611.5</ele>
        <time>2022-07-19T09:16:09Z</time>
      </trkpt>
      <trkpt lat="44.29235" lon="5.1764">
        <ele>611.5</ele>
        <time>2022-07-19T09:16:10Z</time>
      </trkpt>
      <trkpt lat="44.29235" lon="5.17641">
        <ele>611.5</ele>
        <time>2022-07-19T09:16:11Z</time>
      </trkpt>
      <trkpt lat="44.29234" lon="5.17642">
        <ele>611.5</ele>
        <time>2022-07-19T09:16:12Z</time>
      </trkpt>
      <trkpt lat="44.29234" lon="5.17644">
        <ele>611.5</ele>
        <time>2022-07-19T09:16:13Z</time>
      </trkpt>
      <trkpt lat="44.29234" lon="5.17646">
        <ele>607.1</ele>
        <time>2022-07-19T09:16:14Z</time>
      </trkpt>
      <trkpt lat="44.29233" lon="5.17646">
        <ele>607.1</ele>
        <time>2022-07-19T09:16:15Z</time>
      </trkpt>
      <trkpt lat="44.29233" lon="5.17646">
        <ele>607.1</ele>
        <time>2022-07-19T09:16:16Z</time>
      </trkpt>
      <trkpt lat="44.29233" lon="5.17647">
        <ele>607.1</ele>
        <time>2022-07-19T09:16:17Z</time>
      </trkpt>
      <trkpt lat="44.29233" lon="5.17647">
        <ele>607.1</ele>
        <time>2022-07-19T09:16:18Z</time>
      </trkpt>
      <trkpt lat="44.29233" lon="5.17647">
        <ele>607.1</ele>
        <time>2022-07-19T09:16:19Z</time>
      </trkpt>
      <trkpt lat="44.29233" lon="5.17647">
        <ele>607.1</ele>
        <time>2022-07-19T09:16:20Z</time>
      </trkpt>
      <trkpt lat="44.29233" lon="5.17648">
        <ele>607.1</ele>
        <time>2022-07-19T09:16:21Z</time>
      </trkpt>
      <trkpt lat="44.29233" lon="5.17648">
        <ele>607.1</ele>
        <time>2022-07-19T09:16:22Z</time>
      </trkpt>
      <trkpt lat="44.29232" lon="5.17648">
        <ele>607.1</ele>
        <time>2022-07-19T09:16:23Z</time>
      </trkpt>
      <trkpt lat="44.29232" lon="5.17649">
        <ele>607.1</ele>
        <time>2022-07-19T09:16:24Z</time>
      </trkpt>
      <trkpt lat="44.29232" lon="5.17649">
        <ele>607.1</ele>
        <time>2022-07-19T09:16:25Z</time>
      </trkpt>
      <trkpt lat="44.29229" lon="5.17653">
        <ele>607.1</ele>
        <time>2022-07-19T09:16:31Z</time>
      </trkpt>
      <trkpt lat="44.29229" lon="5.17655">
        <ele>607.1</ele>
        <time>2022-07-19T09:16:32Z</time>
      </trkpt>
      <trkpt lat="44.29229" lon="5.17657">
        <ele>607.1</ele>
        <time>2022-07-19T09:16:33Z</time>
      </trkpt>
      <trkpt lat="44.2923" lon="5.1766">
        <ele>607.1</ele>
        <time>2022-07-19T09:16:34Z</time>
      </trkpt>
      <trkpt lat="44.2923" lon="5.17661">
        <ele>607.1</ele>
        <time>2022-07-19T09:16:35Z</time>
      </trkpt>
      <trkpt lat="44.29231" lon="5.17663">
        <ele>602.6</ele>
        <time>2022-07-19T09:16:36Z</time>
      </trkpt>
      <trkpt lat="44.29231" lon="5.17665">
        <ele>602.6</ele>
        <time>2022-07-19T09:16:37Z</time>
      </trkpt>
      <trkpt lat="44.29231" lon="5.17667">
        <ele>602.6</ele>
        <time>2022-07-19T09:16:38Z</time>
      </trkpt>
      <trkpt lat="44.29232" lon="5.17669">
        <ele>602.6</ele>
        <time>2022-07-19T09:16:39Z</time>
      </trkpt>
      <trkpt lat="44.29234" lon="5.17671">
        <ele>602.6</ele>
        <time>2022-07-19T09:16:40Z</time>
      </trkpt>
      <trkpt lat="44.29236" lon="5.17673">
        <ele>602.6</ele>
        <time>2022-07-19T09:16:41Z</time>
      </trkpt>
      <trkpt lat="44.29237" lon="5.17674">
        <ele>602.6</ele>
        <time>2022-07-19T09:16:42Z</time>
      </trkpt>
      <trkpt lat="44.29241" lon="5.17676">
        <ele>600.8</ele>
        <time>2022-07-19T09:16:43Z</time>
      </trkpt>
      <trkpt lat="44.29242" lon="5.17677">
        <ele>600.8</ele>
        <time>2022-07-19T09:16:44Z</time>
      </trkpt>
      <trkpt lat="44.29243" lon="5.17678">
        <ele>600.8</ele>
        <time>2022-07-19T09:16:45Z</time>
      </trkpt>
      <trkpt lat="44.29244" lon="5.17679">
        <ele>600.8</ele>
        <time>2022-07-19T09:16:46Z</time>
      </trkpt>
      <trkpt lat="44.29244" lon="5.17682">
        <ele>596.5</ele>
        <time>2022-07-19T09:16:47Z</time>
      </trkpt>
      <trkpt lat="44.29243" lon="5.17683">
        <ele>596.5</ele>
        <time>2022-07-19T09:16:48Z</time>
      </trkpt>
      <trkpt lat="44.29243" lon="5.17684">
        <ele>596.5</ele>
        <time>2022-07-19T09:16:49Z</time>
      </trkpt>
      <trkpt lat="44.29241" lon="5.17685">
        <ele>596.5</ele>
        <time>2022-07-19T09:16:50Z</time>
      </trkpt>
      <trkpt lat="44.29241" lon="5.17686">
        <ele>596.5</ele>
        <time>2022-07-19T09:16:51Z</time>
      </trkpt>
      <trkpt lat="44.2924" lon="5.17687">
        <ele>598.3</ele>
        <time>2022-07-19T09:16:52Z</time>
      </trkpt>
      <trkpt lat="44.29239" lon="5.17689">
        <ele>598.3</ele>
        <time>2022-07-19T09:16:53Z</time>
      </trkpt>
      <trkpt lat="44.29237" lon="5.17689">
        <ele>598.3</ele>
        <time>2022-07-19T09:16:54Z</time>
      </trkpt>
      <trkpt lat="44.29236" lon="5.1769">
        <ele>598.3</ele>
        <time>2022-07-19T09:16:55Z</time>
      </trkpt>
      <trkpt lat="44.29235" lon="5.1769">
        <ele>598.4</ele>
        <time>2022-07-19T09:16:56Z</time>
      </trkpt>
      <trkpt lat="44.29234" lon="5.17691">
        <ele>598.4</ele>
        <time>2022-07-19T09:16:57Z</time>
      </trkpt>
      <trkpt lat="44.29233" lon="5.17691">
        <ele>598.4</ele>
        <time>2022-07-19T09:16:58Z</time>
      </trkpt>
      <trkpt lat="44.29232" lon="5.17692">
        <ele>598.5</ele>
        <time>2022-07-19T09:16:59Z</time>
      </trkpt>
      <trkpt lat="44.29231" lon="5.17692">
        <ele>598.5</ele>
        <time>2022-07-19T09:17:00Z</time>
      </trkpt>
      <trkpt lat="44.29231" lon="5.17697">
        <ele>593.4</ele>
        <time>2022-07-19T09:17:01Z</time>
      </trkpt>
      <trkpt lat="44.29231" lon="5.17698">
        <ele>593.5</ele>
        <time>2022-07-19T09:17:02Z</time>
      </trkpt>
      <trkpt lat="44.29231" lon="5.177">
        <ele>593.5</ele>
        <time>2022-07-19T09:17:03Z</time>
      </trkpt>
      <trkpt lat="44.29231" lon="5.17703">
        <ele>593.6</ele>
        <time>2022-07-19T09:17:04Z</time>
      </trkpt>
      <trkpt lat="44.2923" lon="5.17705">
        <ele>593.6</ele>
        <time>2022-07-19T09:17:05Z</time>
      </trkpt>
      <trkpt lat="44.29229" lon="5.17706">
        <ele>593.6</ele>
        <time>2022-07-19T09:17:06Z</time>
      </trkpt>
      <trkpt lat="44.29229" lon="5.17707">
        <ele>593.7</ele>
        <time>2022-07-19T09:17:07Z</time>
      </trkpt>
      <trkpt lat="44.29229" lon="5.17708">
        <ele>593.7</ele>
        <time>2022-07-19T09:17:08Z</time>
      </trkpt>
      <trkpt lat="44.29229" lon="5.17708">
        <ele>593.7</ele>
        <time>2022-07-19T09:17:09Z</time>
      </trkpt>
      <trkpt lat="44.29229" lon="5.17708">
        <ele>593.8</ele>
        <time>2022-07-19T09:17:10Z</time>
      </trkpt>
      <trkpt lat="44.29229" lon="5.17708">
        <ele>593.8</ele>
        <time>2022-07-19T09:17:11Z</time>
      </trkpt>
      <trkpt lat="44.29229" lon="5.17708">
        <ele>593.8</ele>
        <time>2022-07-19T09:17:12Z</time>
      </trkpt>
      <trkpt lat="44.29229" lon="5.17708">
        <ele>593.9</ele>
        <time>2022-07-19T09:17:13Z</time>
      </trkpt>
      <trkpt lat="44.29229" lon="5.17708">
        <ele>593.9</ele>
        <time>2022-07-19T09:17:14Z</time>
      </trkpt>
      <trkpt lat="44.29229" lon="5.17708">
        <ele>593.9</ele>
        <time>2022-07-19T09:17:15Z</time>
      </trkpt>
      <trkpt lat="44.29229" lon="5.17708">
        <ele>594</ele>
        <time>2022-07-19T09:17:16Z</time>
      </trkpt>
      <trkpt lat="44.29229" lon="5.17708">
        <ele>594</ele>
        <time>2022-07-19T09:17:17Z</time>
      </trkpt>
      <trkpt lat="44.29221" lon="5.17716">
        <ele>591</ele>
        <time>2022-07-19T09:17:19Z</time>
      </trkpt>
      <trkpt lat="44.2922" lon="5.17717">
        <ele>591.1</ele>
        <time>2022-07-19T09:17:20Z</time>
      </trkpt>
      <trkpt lat="44.29218" lon="5.17718">
        <ele>591.1</ele>
        <time>2022-07-19T09:17:21Z</time>
      </trkpt>
      <trkpt lat="44.29218" lon="5.1772">
        <ele>591.1</ele>
        <time>2022-07-19T09:17:22Z</time>
      </trkpt>
      <trkpt lat="44.29216" lon="5.17721">
        <ele>591.2</ele>
        <time>2022-07-19T09:17:23Z</time>
      </trkpt>
      <trkpt lat="44.29215" lon="5.17721">
        <ele>592.7</ele>
        <time>2022-07-19T09:17:24Z</time>
      </trkpt>
      <trkpt lat="44.29214" lon="5.17722">
        <ele>592.8</ele>
        <time>2022-07-19T09:17:25Z</time>
      </trkpt>
      <trkpt lat="44.29212" lon="5.17722">
        <ele>592.8</ele>
        <time>2022-07-19T09:17:26Z</time>
      </trkpt>
      <trkpt lat="44.29211" lon="5.17722">
        <ele>592.8</ele>
        <time>2022-07-19T09:17:27Z</time>
      </trkpt>
      <trkpt lat="44.29209" lon="5.17722">
        <ele>592.9</ele>
        <time>2022-07-19T09:17:28Z</time>
      </trkpt>
      <trkpt lat="44.29207" lon="5.17721">
        <ele>592.9</ele>
        <time>2022-07-19T09:17:29Z</time>
      </trkpt>
      <trkpt lat="44.29205" lon="5.17721">
        <ele>592.9</ele>
        <time>2022-07-19T09:17:30Z</time>
      </trkpt>
      <trkpt lat="44.29204" lon="5.17721">
        <ele>593</ele>
        <time>2022-07-19T09:17:31Z</time>
      </trkpt>
      <trkpt lat="44.29203" lon="5.17722">
        <ele>594</ele>
        <time>2022-07-19T09:17:32Z</time>
      </trkpt>
      <trkpt lat="44.29201" lon="5.17724">
        <ele>594</ele>
        <time>2022-07-19T09:17:33Z</time>
      </trkpt>
      <trkpt lat="44.292" lon="5.17724">
        <ele>594.1</ele>
        <time>2022-07-19T09:17:34Z</time>
      </trkpt>
      <trkpt lat="44.29198" lon="5.17725">
        <ele>594.1</ele>
        <time>2022-07-19T09:17:35Z</time>
      </trkpt>
      <trkpt lat="44.29197" lon="5.17725">
        <ele>594.1</ele>
        <time>2022-07-19T09:17:36Z</time>
      </trkpt>
      <trkpt lat="44.29195" lon="5.17725">
        <ele>594.2</ele>
        <time>2022-07-19T09:17:37Z</time>
      </trkpt>
      <trkpt lat="44.29194" lon="5.17725">
        <ele>594.2</ele>
        <time>2022-07-19T09:17:38Z</time>
      </trkpt>
      <trkpt lat="44.29192" lon="5.17724">
        <ele>594.2</ele>
        <time>2022-07-19T09:17:39Z</time>
      </trkpt>
      <trkpt lat="44.29191" lon="5.17723">
        <ele>595</ele>
        <time>2022-07-19T09:17:40Z</time>
      </trkpt>
      <trkpt lat="44.29188" lon="5.17721">
        <ele>595</ele>
        <time>2022-07-19T09:17:41Z</time>
      </trkpt>
      <trkpt lat="44.29186" lon="5.1772">
        <ele>595</ele>
        <time>2022-07-19T09:17:42Z</time>
      </trkpt>
      <trkpt lat="44.29183" lon="5.17717">
        <ele>595.1</ele>
        <time>2022-07-19T09:17:43Z</time>
      </trkpt>
      <trkpt lat="44.29181" lon="5.17715">
        <ele>595.1</ele>
        <time>2022-07-19T09:17:44Z</time>
      </trkpt>
      <trkpt lat="44.29177" lon="5.17714">
        <ele>595.5</ele>
        <time>2022-07-19T09:17:45Z</time>
      </trkpt>
      <trkpt lat="44.29176" lon="5.17714">
        <ele>595.5</ele>
        <time>2022-07-19T09:17:46Z</time>
      </trkpt>
      <trkpt lat="44.29173" lon="5.17713">
        <ele>600.1</ele>
        <time>2022-07-19T09:17:47Z</time>
      </trkpt>
      <trkpt lat="44.29172" lon="5.17713">
        <ele>600.1</ele>
        <time>2022-07-19T09:17:48Z</time>
      </trkpt>
      <trkpt lat="44.29169" lon="5.17712">
        <ele>600.1</ele>
        <time>2022-07-19T09:17:49Z</time>
      </trkpt>
      <trkpt lat="44.29168" lon="5.17712">
        <ele>600.2</ele>
        <time>2022-07-19T09:17:50Z</time>
      </trkpt>
      <trkpt lat="44.29167" lon="5.17713">
        <ele>600.2</ele>
        <time>2022-07-19T09:17:51Z</time>
      </trkpt>
      <trkpt lat="44.29165" lon="5.17714">
        <ele>600.9</ele>
        <time>2022-07-19T09:17:52Z</time>
      </trkpt>
      <trkpt lat="44.29164" lon="5.17714">
        <ele>596.3</ele>
        <time>2022-07-19T09:17:53Z</time>
      </trkpt>
      <trkpt lat="44.29162" lon="5.17715">
        <ele>596.4</ele>
        <time>2022-07-19T09:17:54Z</time>
      </trkpt>
      <trkpt lat="44.29159" lon="5.17717">
        <ele>596.4</ele>
        <time>2022-07-19T09:17:55Z</time>
      </trkpt>
      <trkpt lat="44.29158" lon="5.17718">
        <ele>596.4</ele>
        <time>2022-07-19T09:17:56Z</time>
      </trkpt>
      <trkpt lat="44.29155" lon="5.17721">
        <ele>596.5</ele>
        <time>2022-07-19T09:17:57Z</time>
      </trkpt>
      <trkpt lat="44.29154" lon="5.17725">
        <ele>596.8</ele>
        <time>2022-07-19T09:17:58Z</time>
      </trkpt>
      <trkpt lat="44.29152" lon="5.17728">
        <ele>596.8</ele>
        <time>2022-07-19T09:17:59Z</time>
      </trkpt>
      <trkpt lat="44.29152" lon="5.17733">
        <ele>592.6</ele>
        <time>2022-07-19T09:18:00Z</time>
      </trkpt>
      <trkpt lat="44.2915" lon="5.17738">
        <ele>592.6</ele>
        <time>2022-07-19T09:18:01Z</time>
      </trkpt>
      <trkpt lat="44.29148" lon="5.17742">
        <ele>592.7</ele>
        <time>2022-07-19T09:18:02Z</time>
      </trkpt>
      <trkpt lat="44.29146" lon="5.17746">
        <ele>592.7</ele>
        <time>2022-07-19T09:18:03Z</time>
      </trkpt>
      <trkpt lat="44.29143" lon="5.17749">
        <ele>588.6</ele>
        <time>2022-07-19T09:18:04Z</time>
      </trkpt>
      <trkpt lat="44.29142" lon="5.17752">
        <ele>588.7</ele>
        <time>2022-07-19T09:18:05Z</time>
      </trkpt>
      <trkpt lat="44.29142" lon="5.17753">
        <ele>589.9</ele>
        <time>2022-07-19T09:18:06Z</time>
      </trkpt>
      <trkpt lat="44.29141" lon="5.17755">
        <ele>589.9</ele>
        <time>2022-07-19T09:18:07Z</time>
      </trkpt>
      <trkpt lat="44.29141" lon="5.17757">
        <ele>590</ele>
        <time>2022-07-19T09:18:08Z</time>
      </trkpt>
      <trkpt lat="44.2914" lon="5.17761">
        <ele>590</ele>
        <time>2022-07-19T09:18:09Z</time>
      </trkpt>
      <trkpt lat="44.2914" lon="5.17762">
        <ele>590.1</ele>
        <time>2022-07-19T09:18:10Z</time>
      </trkpt>
      <trkpt lat="44.29139" lon="5.17768">
        <ele>586.6</ele>
        <time>2022-07-19T09:18:11Z</time>
      </trkpt>
      <trkpt lat="44.29138" lon="5.1777">
        <ele>586.6</ele>
        <time>2022-07-19T09:18:12Z</time>
      </trkpt>
      <trkpt lat="44.29137" lon="5.17773">
        <ele>586.7</ele>
        <time>2022-07-19T09:18:13Z</time>
      </trkpt>
      <trkpt lat="44.29136" lon="5.17777">
        <ele>586.7</ele>
        <time>2022-07-19T09:18:14Z</time>
      </trkpt>
      <trkpt lat="44.29135" lon="5.17781">
        <ele>586.7</ele>
        <time>2022-07-19T09:18:15Z</time>
      </trkpt>
      <trkpt lat="44.29134" lon="5.17786">
        <ele>583.1</ele>
        <time>2022-07-19T09:18:16Z</time>
      </trkpt>
      <trkpt lat="44.29133" lon="5.17787">
        <ele>583.1</ele>
        <time>2022-07-19T09:18:17Z</time>
      </trkpt>
      <trkpt lat="44.29133" lon="5.17791">
        <ele>583.1</ele>
        <time>2022-07-19T09:18:18Z</time>
      </trkpt>
      <trkpt lat="44.29133" lon="5.17793">
        <ele>583.2</ele>
        <time>2022-07-19T09:18:19Z</time>
      </trkpt>
      <trkpt lat="44.29132" lon="5.17797">
        <ele>583.2</ele>
        <time>2022-07-19T09:18:20Z</time>
      </trkpt>
      <trkpt lat="44.29132" lon="5.17802">
        <ele>579.9</ele>
        <time>2022-07-19T09:18:21Z</time>
      </trkpt>
      <trkpt lat="44.29131" lon="5.17806">
        <ele>580</ele>
        <time>2022-07-19T09:18:22Z</time>
      </trkpt>
      <trkpt lat="44.2913" lon="5.17811">
        <ele>580</ele>
        <time>2022-07-19T09:18:23Z</time>
      </trkpt>
      <trkpt lat="44.2913" lon="5.17815">
        <ele>580</ele>
        <time>2022-07-19T09:18:24Z</time>
      </trkpt>
      <trkpt lat="44.29129" lon="5.17818">
        <ele>580.4</ele>
        <time>2022-07-19T09:18:25Z</time>
      </trkpt>
      <trkpt lat="44.29129" lon="5.17822">
        <ele>580.4</ele>
        <time>2022-07-19T09:18:26Z</time>
      </trkpt>
      <trkpt lat="44.29128" lon="5.17826">
        <ele>580.4</ele>
        <time>2022-07-19T09:18:27Z</time>
      </trkpt>
      <trkpt lat="44.29127" lon="5.17831">
        <ele>580.5</ele>
        <time>2022-07-19T09:18:28Z</time>
      </trkpt>
      <trkpt lat="44.29128" lon="5.17836">
        <ele>577.9</ele>
        <time>2022-07-19T09:18:29Z</time>
      </trkpt>
      <trkpt lat="44.29128" lon="5.17838">
        <ele>577.9</ele>
        <time>2022-07-19T09:18:30Z</time>
      </trkpt>
      <trkpt lat="44.29128" lon="5.17842">
        <ele>578</ele>
        <time>2022-07-19T09:18:31Z</time>
      </trkpt>
      <trkpt lat="44.29128" lon="5.17847">
        <ele>578</ele>
        <time>2022-07-19T09:18:32Z</time>
      </trkpt>
      <trkpt lat="44.29128" lon="5.17853">
        <ele>575.6</ele>
        <time>2022-07-19T09:18:33Z</time>
      </trkpt>
      <trkpt lat="44.29129" lon="5.17858">
        <ele>575.7</ele>
        <time>2022-07-19T09:18:34Z</time>
      </trkpt>
      <trkpt lat="44.2913" lon="5.17862">
        <ele>572.1</ele>
        <time>2022-07-19T09:18:35Z</time>
      </trkpt>
      <trkpt lat="44.29131" lon="5.17866">
        <ele>572.1</ele>
        <time>2022-07-19T09:18:36Z</time>
      </trkpt>
      <trkpt lat="44.29131" lon="5.1787">
        <ele>569.4</ele>
        <time>2022-07-19T09:18:37Z</time>
      </trkpt>
      <trkpt lat="44.29132" lon="5.17874">
        <ele>569.4</ele>
        <time>2022-07-19T09:18:38Z</time>
      </trkpt>
      <trkpt lat="44.29132" lon="5.17879">
        <ele>569.4</ele>
        <time>2022-07-19T09:18:39Z</time>
      </trkpt>
      <trkpt lat="44.29134" lon="5.17885">
        <ele>569.4</ele>
        <time>2022-07-19T09:18:40Z</time>
      </trkpt>
      <trkpt lat="44.29135" lon="5.17891">
        <ele>566.7</ele>
        <time>2022-07-19T09:18:41Z</time>
      </trkpt>
      <trkpt lat="44.29136" lon="5.17898">
        <ele>566.7</ele>
        <time>2022-07-19T09:18:42Z</time>
      </trkpt>
      <trkpt lat="44.29137" lon="5.17904">
        <ele>564.1</ele>
        <time>2022-07-19T09:18:43Z</time>
      </trkpt>
      <trkpt lat="44.29138" lon="5.17909">
        <ele>564.1</ele>
        <time>2022-07-19T09:18:44Z</time>
      </trkpt>
      <trkpt lat="44.29138" lon="5.17915">
        <ele>564.1</ele>
        <time>2022-07-19T09:18:45Z</time>
      </trkpt>
      <trkpt lat="44.29136" lon="5.1792">
        <ele>561.2</ele>
        <time>2022-07-19T09:18:46Z</time>
      </trkpt>
      <trkpt lat="44.29135" lon="5.17924">
        <ele>561.2</ele>
        <time>2022-07-19T09:18:47Z</time>
      </trkpt>
      <trkpt lat="44.29132" lon="5.17927">
        <ele>561.2</ele>
        <time>2022-07-19T09:18:48Z</time>
      </trkpt>
      <trkpt lat="44.29132" lon="5.17929">
        <ele>561.2</ele>
        <time>2022-07-19T09:18:49Z</time>
      </trkpt>
      <trkpt lat="44.2913" lon="5.17934">
        <ele>561.2</ele>
        <time>2022-07-19T09:18:50Z</time>
      </trkpt>
      <trkpt lat="44.2913" lon="5.17936">
        <ele>561.2</ele>
        <time>2022-07-19T09:18:51Z</time>
      </trkpt>
      <trkpt lat="44.2913" lon="5.17941">
        <ele>558.6</ele>
        <time>2022-07-19T09:18:52Z</time>
      </trkpt>
      <trkpt lat="44.29129" lon="5.17947">
        <ele>563</ele>
        <time>2022-07-19T09:18:53Z</time>
      </trkpt>
      <trkpt lat="44.29128" lon="5.17951">
        <ele>563</ele>
        <time>2022-07-19T09:18:54Z</time>
      </trkpt>
      <trkpt lat="44.29127" lon="5.17956">
        <ele>560.6</ele>
        <time>2022-07-19T09:18:55Z</time>
      </trkpt>
      <trkpt lat="44.29127" lon="5.17962">
        <ele>560.6</ele>
        <time>2022-07-19T09:18:56Z</time>
      </trkpt>
      <trkpt lat="44.29127" lon="5.17968">
        <ele>560.6</ele>
        <time>2022-07-19T09:18:57Z</time>
      </trkpt>
      <trkpt lat="44.29127" lon="5.17974">
        <ele>558.3</ele>
        <time>2022-07-19T09:18:58Z</time>
      </trkpt>
      <trkpt lat="44.29129" lon="5.17988">
        <ele>558.3</ele>
        <time>2022-07-19T09:18:59Z</time>
      </trkpt>
      <trkpt lat="44.29129" lon="5.17994">
        <ele>556.1</ele>
        <time>2022-07-19T09:19:00Z</time>
      </trkpt>
      <trkpt lat="44.2913" lon="5.18">
        <ele>552.1</ele>
        <time>2022-07-19T09:19:01Z</time>
      </trkpt>
      <trkpt lat="44.29131" lon="5.18004">
        <ele>552.1</ele>
        <time>2022-07-19T09:19:02Z</time>
      </trkpt>
      <trkpt lat="44.29132" lon="5.18007">
        <ele>550</ele>
        <time>2022-07-19T09:19:03Z</time>
      </trkpt>
      <trkpt lat="44.29132" lon="5.18007">
        <ele>550</ele>
        <time>2022-07-19T09:19:04Z</time>
      </trkpt>
      <trkpt lat="44.29132" lon="5.18007">
        <ele>550</ele>
        <time>2022-07-19T09:19:05Z</time>
      </trkpt>
      <trkpt lat="44.29132" lon="5.18007">
        <ele>550</ele>
        <time>2022-07-19T09:19:06Z</time>
      </trkpt>
      <trkpt lat="44.29132" lon="5.18007">
        <ele>550</ele>
        <time>2022-07-19T09:19:07Z</time>
      </trkpt>
      <trkpt lat="44.29132" lon="5.18007">
        <ele>550</ele>
        <time>2022-07-19T09:19:08Z</time>
      </trkpt>
      <trkpt lat="44.29132" lon="5.18007">
        <ele>550</ele>
        <time>2022-07-19T09:19:09Z</time>
      </trkpt>
      <trkpt lat="44.29132" lon="5.18007">
        <ele>550</ele>
        <time>2022-07-19T09:19:10Z</time>
      </trkpt>
      <trkpt lat="44.29132" lon="5.18007">
        <ele>550</ele>
        <time>2022-07-19T09:19:11Z</time>
      </trkpt>
      <trkpt lat="44.29132" lon="5.18007">
        <ele>550</ele>
        <time>2022-07-19T09:19:12Z</time>
      </trkpt>
      <trkpt lat="44.29132" lon="5.18007">
        <ele>550</ele>
        <time>2022-07-19T09:19:13Z</time>
      </trkpt>
      <trkpt lat="44.29132" lon="5.18013">
        <ele>550</ele>
        <time>2022-07-19T09:20:19Z</time>
      </trkpt>
      <trkpt lat="44.2913" lon="5.18015">
        <ele>550</ele>
        <time>2022-07-19T09:20:20Z</time>
      </trkpt>
      <trkpt lat="44.29129" lon="5.18021">
        <ele>553.7</ele>
        <time>2022-07-19T09:20:21Z</time>
      </trkpt>
      <trkpt lat="44.29129" lon="5.18022">
        <ele>553.7</ele>
        <time>2022-07-19T09:20:22Z</time>
      </trkpt>
      <trkpt lat="44.29128" lon="5.18026">
        <ele>551.4</ele>
        <time>2022-07-19T09:20:23Z</time>
      </trkpt>
      <trkpt lat="44.29127" lon="5.18028">
        <ele>551.4</ele>
        <time>2022-07-19T09:20:24Z</time>
      </trkpt>
      <trkpt lat="44.29126" lon="5.18032">
        <ele>551.4</ele>
        <time>2022-07-19T09:20:25Z</time>
      </trkpt>
      <trkpt lat="44.29126" lon="5.18033">
        <ele>551.4</ele>
        <time>2022-07-19T09:20:26Z</time>
      </trkpt>
      <trkpt lat="44.29127" lon="5.18038">
        <ele>551.4</ele>
        <time>2022-07-19T09:20:27Z</time>
      </trkpt>
      <trkpt lat="44.29127" lon="5.1804">
        <ele>551.4</ele>
        <time>2022-07-19T09:20:28Z</time>
      </trkpt>
      <trkpt lat="44.29129" lon="5.18042">
        <ele>549.3</ele>
        <time>2022-07-19T09:20:29Z</time>
      </trkpt>
      <trkpt lat="44.29132" lon="5.18043">
        <ele>546.1</ele>
        <time>2022-07-19T09:20:30Z</time>
      </trkpt>
      <trkpt lat="44.29136" lon="5.18042">
        <ele>546.1</ele>
        <time>2022-07-19T09:20:31Z</time>
      </trkpt>
      <trkpt lat="44.29139" lon="5.1804">
        <ele>546.1</ele>
        <time>2022-07-19T09:20:32Z</time>
      </trkpt>
      <trkpt lat="44.29142" lon="5.18038">
        <ele>544.4</ele>
        <time>2022-07-19T09:20:33Z</time>
      </trkpt>
      <trkpt lat="44.29146" lon="5.18038">
        <ele>544.4</ele>
        <time>2022-07-19T09:20:34Z</time>
      </trkpt>
      <trkpt lat="44.29147" lon="5.18038">
        <ele>544.4</ele>
        <time>2022-07-19T09:20:35Z</time>
      </trkpt>
      <trkpt lat="44.29148" lon="5.18041">
        <ele>542.8</ele>
        <time>2022-07-19T09:20:36Z</time>
      </trkpt>
      <trkpt lat="44.29149" lon="5.18042">
        <ele>542.8</ele>
        <time>2022-07-19T09:20:37Z</time>
      </trkpt>
      <trkpt lat="44.29148" lon="5.18048">
        <ele>542.8</ele>
        <time>2022-07-19T09:20:38Z</time>
      </trkpt>
      <trkpt lat="44.29147" lon="5.1805">
        <ele>542.8</ele>
        <time>2022-07-19T09:20:39Z</time>
      </trkpt>
      <trkpt lat="44.29146" lon="5.18053">
        <ele>542.8</ele>
        <time>2022-07-19T09:20:40Z</time>
      </trkpt>
      <trkpt lat="44.29144" lon="5.18057">
        <ele>542.8</ele>
        <time>2022-07-19T09:20:41Z</time>
      </trkpt>
      <trkpt lat="44.29142" lon="5.18061">
        <ele>541</ele>
        <time>2022-07-19T09:20:42Z</time>
      </trkpt>
      <trkpt lat="44.29141" lon="5.18065">
        <ele>544</ele>
        <time>2022-07-19T09:20:43Z</time>
      </trkpt>
      <trkpt lat="44.29139" lon="5.18069">
        <ele>544</ele>
        <time>2022-07-19T09:20:44Z</time>
      </trkpt>
      <trkpt lat="44.29138" lon="5.18074">
        <ele>544</ele>
        <time>2022-07-19T09:20:45Z</time>
      </trkpt>
      <trkpt lat="44.29136" lon="5.18078">
        <ele>541.9</ele>
        <time>2022-07-19T09:20:46Z</time>
      </trkpt>
      <trkpt lat="44.29135" lon="5.18083">
        <ele>541.9</ele>
        <time>2022-07-19T09:20:47Z</time>
      </trkpt>
      <trkpt lat="44.29133" lon="5.18087">
        <ele>541.9</ele>
        <time>2022-07-19T09:20:48Z</time>
      </trkpt>
      <trkpt lat="44.29133" lon="5.18093">
        <ele>539.8</ele>
        <time>2022-07-19T09:20:49Z</time>
      </trkpt>
      <trkpt lat="44.29133" lon="5.18098">
        <ele>539.8</ele>
        <time>2022-07-19T09:20:50Z</time>
      </trkpt>
      <trkpt lat="44.29135" lon="5.18102">
        <ele>539.8</ele>
        <time>2022-07-19T09:20:51Z</time>
      </trkpt>
      <trkpt lat="44.29137" lon="5.18107">
        <ele>539.8</ele>
        <time>2022-07-19T09:20:52Z</time>
      </trkpt>
      <trkpt lat="44.2914" lon="5.1811">
        <ele>537.5</ele>
        <time>2022-07-19T09:20:53Z</time>
      </trkpt>
      <trkpt lat="44.29142" lon="5.18114">
        <ele>535.6</ele>
        <time>2022-07-19T09:20:54Z</time>
      </trkpt>
      <trkpt lat="44.29144" lon="5.18117">
        <ele>535.6</ele>
        <time>2022-07-19T09:20:55Z</time>
      </trkpt>
      <trkpt lat="44.29145" lon="5.18121">
        <ele>535.6</ele>
        <time>2022-07-19T09:20:56Z</time>
      </trkpt>
      <trkpt lat="44.29144" lon="5.18125">
        <ele>535.6</ele>
        <time>2022-07-19T09:20:57Z</time>
      </trkpt>
      <trkpt lat="44.29142" lon="5.18129">
        <ele>535.4</ele>
        <time>2022-07-19T09:20:58Z</time>
      </trkpt>
      <trkpt lat="44.29139" lon="5.18132">
        <ele>535.4</ele>
        <time>2022-07-19T09:20:59Z</time>
      </trkpt>
      <trkpt lat="44.29136" lon="5.18134">
        <ele>535.4</ele>
        <time>2022-07-19T09:21:00Z</time>
      </trkpt>
      <trkpt lat="44.29133" lon="5.18136">
        <ele>535.4</ele>
        <time>2022-07-19T09:21:01Z</time>
      </trkpt>
      <trkpt lat="44.29132" lon="5.18137">
        <ele>535.4</ele>
        <time>2022-07-19T09:21:02Z</time>
      </trkpt>
      <trkpt lat="44.29129" lon="5.18139">
        <ele>537</ele>
        <time>2022-07-19T09:21:03Z</time>
      </trkpt>
      <trkpt lat="44.29128" lon="5.18139">
        <ele>537</ele>
        <time>2022-07-19T09:21:04Z</time>
      </trkpt>
      <trkpt lat="44.29126" lon="5.18141">
        <ele>537</ele>
        <time>2022-07-19T09:21:05Z</time>
      </trkpt>
      <trkpt lat="44.29125" lon="5.18142">
        <ele>537</ele>
        <time>2022-07-19T09:21:06Z</time>
      </trkpt>
      <trkpt lat="44.29122" lon="5.18144">
        <ele>534.4</ele>
        <time>2022-07-19T09:21:07Z</time>
      </trkpt>
      <trkpt lat="44.29121" lon="5.18145">
        <ele>534.4</ele>
        <time>2022-07-19T09:21:08Z</time>
      </trkpt>
      <trkpt lat="44.29117" lon="5.18148">
        <ele>534.4</ele>
        <time>2022-07-19T09:21:09Z</time>
      </trkpt>
      <trkpt lat="44.29116" lon="5.18149">
        <ele>535.9</ele>
        <time>2022-07-19T09:21:10Z</time>
      </trkpt>
      <trkpt lat="44.29114" lon="5.18151">
        <ele>535.9</ele>
        <time>2022-07-19T09:21:11Z</time>
      </trkpt>
      <trkpt lat="44.29113" lon="5.18152">
        <ele>535.9</ele>
        <time>2022-07-19T09:21:12Z</time>
      </trkpt>
      <trkpt lat="44.2911" lon="5.18155">
        <ele>535.9</ele>
        <time>2022-07-19T09:21:13Z</time>
      </trkpt>
      <trkpt lat="44.29109" lon="5.18155">
        <ele>535.9</ele>
        <time>2022-07-19T09:21:14Z</time>
      </trkpt>
      <trkpt lat="44.29106" lon="5.18157">
        <ele>535.9</ele>
        <time>2022-07-19T09:21:15Z</time>
      </trkpt>
      <trkpt lat="44.29105" lon="5.18157">
        <ele>537.5</ele>
        <time>2022-07-19T09:21:16Z</time>
      </trkpt>
      <trkpt lat="44.29102" lon="5.18158">
        <ele>537.5</ele>
        <time>2022-07-19T09:21:17Z</time>
      </trkpt>
      <trkpt lat="44.29099" lon="5.1816">
        <ele>535.1</ele>
        <time>2022-07-19T09:21:18Z</time>
      </trkpt>
      <trkpt lat="44.29096" lon="5.18162">
        <ele>535.1</ele>
        <time>2022-07-19T09:21:19Z</time>
      </trkpt>
      <trkpt lat="44.29093" lon="5.18163">
        <ele>537.1</ele>
        <time>2022-07-19T09:21:20Z</time>
      </trkpt>
      <trkpt lat="44.29091" lon="5.18164">
        <ele>537.1</ele>
        <time>2022-07-19T09:21:21Z</time>
      </trkpt>
      <trkpt lat="44.29088" lon="5.18165">
        <ele>537.1</ele>
        <time>2022-07-19T09:21:22Z</time>
      </trkpt>
      <trkpt lat="44.29085" lon="5.18166">
        <ele>537.1</ele>
        <time>2022-07-19T09:21:23Z</time>
      </trkpt>
      <trkpt lat="44.29082" lon="5.18169">
        <ele>537.1</ele>
        <time>2022-07-19T09:21:24Z</time>
      </trkpt>
      <trkpt lat="44.29079" lon="5.18171">
        <ele>539.7</ele>
        <time>2022-07-19T09:21:25Z</time>
      </trkpt>
      <trkpt lat="44.29076" lon="5.18174">
        <ele>539.7</ele>
        <time>2022-07-19T09:21:26Z</time>
      </trkpt>
      <trkpt lat="44.29073" lon="5.18176">
        <ele>539.7</ele>
        <time>2022-07-19T09:21:27Z</time>
      </trkpt>
      <trkpt lat="44.2907" lon="5.18178">
        <ele>537.6</ele>
        <time>2022-07-19T09:21:28Z</time>
      </trkpt>
      <trkpt lat="44.29066" lon="5.1818">
        <ele>540</ele>
        <time>2022-07-19T09:21:29Z</time>
      </trkpt>
      <trkpt lat="44.29063" lon="5.18182">
        <ele>540</ele>
        <time>2022-07-19T09:21:30Z</time>
      </trkpt>
      <trkpt lat="44.29059" lon="5.18185">
        <ele>540</ele>
        <time>2022-07-19T09:21:31Z</time>
      </trkpt>
      <trkpt lat="44.29055" lon="5.18188">
        <ele>543.3</ele>
        <time>2022-07-19T09:21:32Z</time>
      </trkpt>
      <trkpt lat="44.29052" lon="5.1819">
        <ele>543.3</ele>
        <time>2022-07-19T09:21:33Z</time>
      </trkpt>
      <trkpt lat="44.29049" lon="5.18193">
        <ele>543.3</ele>
        <time>2022-07-19T09:21:34Z</time>
      </trkpt>
      <trkpt lat="44.29046" lon="5.18196">
        <ele>541.5</ele>
        <time>2022-07-19T09:21:35Z</time>
      </trkpt>
      <trkpt lat="44.29044" lon="5.18199">
        <ele>541.5</ele>
        <time>2022-07-19T09:21:36Z</time>
      </trkpt>
      <trkpt lat="44.29043" lon="5.18202">
        <ele>544.9</ele>
        <time>2022-07-19T09:21:37Z</time>
      </trkpt>
      <trkpt lat="44.29043" lon="5.18203">
        <ele>544.9</ele>
        <time>2022-07-19T09:21:38Z</time>
      </trkpt>
      <trkpt lat="44.29043" lon="5.18204">
        <ele>544.9</ele>
        <time>2022-07-19T09:21:39Z</time>
      </trkpt>
      <trkpt lat="44.29043" lon="5.18205">
        <ele>544.9</ele>
        <time>2022-07-19T09:21:40Z</time>
      </trkpt>
      <trkpt lat="44.29044" lon="5.18206">
        <ele>541.5</ele>
        <time>2022-07-19T09:21:41Z</time>
      </trkpt>
      <trkpt lat="44.29044" lon="5.18207">
        <ele>541.5</ele>
        <time>2022-07-19T09:21:42Z</time>
      </trkpt>
      <trkpt lat="44.29044" lon="5.18208">
        <ele>541.5</ele>
        <time>2022-07-19T09:21:43Z</time>
      </trkpt>
      <trkpt lat="44.29044" lon="5.18209">
        <ele>541.5</ele>
        <time>2022-07-19T09:21:44Z</time>
      </trkpt>
      <trkpt lat="44.29045" lon="5.1821">
        <ele>541.5</ele>
        <time>2022-07-19T09:21:45Z</time>
      </trkpt>
      <trkpt lat="44.29045" lon="5.18211">
        <ele>541.5</ele>
        <time>2022-07-19T09:21:46Z</time>
      </trkpt>
      <trkpt lat="44.29045" lon="5.18212">
        <ele>540.1</ele>
        <time>2022-07-19T09:21:47Z</time>
      </trkpt>
      <trkpt lat="44.29045" lon="5.18213">
        <ele>540.1</ele>
        <time>2022-07-19T09:25:58Z</time>
      </trkpt>
      <trkpt lat="44.29046" lon="5.18214">
        <ele>540.1</ele>
        <time>2022-07-19T09:25:59Z</time>
      </trkpt>
      <trkpt lat="44.29046" lon="5.18215">
        <ele>540.1</ele>
        <time>2022-07-19T09:26:00Z</time>
      </trkpt>
      <trkpt lat="44.29046" lon="5.18216">
        <ele>540.1</ele>
        <time>2022-07-19T09:26:01Z</time>
      </trkpt>
      <trkpt lat="44.29046" lon="5.18217">
        <ele>540.1</ele>
        <time>2022-07-19T09:26:02Z</time>
      </trkpt>
      <trkpt lat="44.29047" lon="5.18218">
        <ele>540.1</ele>
        <time>2022-07-19T09:26:03Z</time>
      </trkpt>
      <trkpt lat="44.29047" lon="5.18219">
        <ele>540.1</ele>
        <time>2022-07-19T09:26:04Z</time>
      </trkpt>
      <trkpt lat="44.29047" lon="5.1822">
        <ele>540.1</ele>
        <time>2022-07-19T09:26:05Z</time>
      </trkpt>
      <trkpt lat="44.29047" lon="5.18221">
        <ele>540.1</ele>
        <time>2022-07-19T09:26:06Z</time>
      </trkpt>
      <trkpt lat="44.29048" lon="5.18222">
        <ele>540.1</ele>
        <time>2022-07-19T09:26:07Z</time>
      </trkpt>
      <trkpt lat="44.29048" lon="5.18223">
        <ele>540.1</ele>
        <time>2022-07-19T09:26:08Z</time>
      </trkpt>
      <trkpt lat="44.29048" lon="5.18224">
        <ele>540.1</ele>
        <time>2022-07-19T09:26:36Z</time>
      </trkpt>
      <trkpt lat="44.29048" lon="5.18225">
        <ele>540.1</ele>
        <time>2022-07-19T09:26:37Z</time>
      </trkpt>
      <trkpt lat="44.29052" lon="5.18228">
        <ele>540.1</ele>
        <time>2022-07-19T09:26:38Z</time>
      </trkpt>
      <trkpt lat="44.29056" lon="5.18231">
        <ele>538.7</ele>
        <time>2022-07-19T09:26:39Z</time>
      </trkpt>
      <trkpt lat="44.29059" lon="5.18233">
        <ele>534.8</ele>
        <time>2022-07-19T09:26:40Z</time>
      </trkpt>
      <trkpt lat="44.29063" lon="5.18236">
        <ele>534.8</ele>
        <time>2022-07-19T09:26:41Z</time>
      </trkpt>
      <trkpt lat="44.29066" lon="5.18238">
        <ele>534.8</ele>
        <time>2022-07-19T09:26:42Z</time>
      </trkpt>
      <trkpt lat="44.29068" lon="5.18241">
        <ele>531.9</ele>
        <time>2022-07-19T09:26:43Z</time>
      </trkpt>
      <trkpt lat="44.29072" lon="5.18243">
        <ele>531.9</ele>
        <time>2022-07-19T09:26:44Z</time>
      </trkpt>
      <trkpt lat="44.29073" lon="5.18244">
        <ele>531.9</ele>
        <time>2022-07-19T09:26:45Z</time>
      </trkpt>
      <trkpt lat="44.29076" lon="5.18247">
        <ele>529.8</ele>
        <time>2022-07-19T09:26:46Z</time>
      </trkpt>
      <trkpt lat="44.29077" lon="5.18248">
        <ele>529.8</ele>
        <time>2022-07-19T09:26:47Z</time>
      </trkpt>
      <trkpt lat="44.2908" lon="5.18251">
        <ele>526.5</ele>
        <time>2022-07-19T09:26:48Z</time>
      </trkpt>
      <trkpt lat="44.29082" lon="5.18251">
        <ele>526.5</ele>
        <time>2022-07-19T09:26:49Z</time>
      </trkpt>
      <trkpt lat="44.29084" lon="5.18255">
        <ele>526.5</ele>
        <time>2022-07-19T09:26:50Z</time>
      </trkpt>
      <trkpt lat="44.29085" lon="5.18257">
        <ele>526.5</ele>
        <time>2022-07-19T09:26:51Z</time>
      </trkpt>
      <trkpt lat="44.29087" lon="5.1826">
        <ele>526.5</ele>
        <time>2022-07-19T09:26:52Z</time>
      </trkpt>
      <trkpt lat="44.29089" lon="5.18263">
        <ele>526.5</ele>
        <time>2022-07-19T09:26:53Z</time>
      </trkpt>
      <trkpt lat="44.29091" lon="5.18266">
        <ele>524.1</ele>
        <time>2022-07-19T09:26:54Z</time>
      </trkpt>
      <trkpt lat="44.29092" lon="5.18267">
        <ele>524.1</ele>
        <time>2022-07-19T09:26:55Z</time>
      </trkpt>
      <trkpt lat="44.29096" lon="5.1827">
        <ele>521.2</ele>
        <time>2022-07-19T09:26:56Z</time>
      </trkpt>
      <trkpt lat="44.29097" lon="5.18271">
        <ele>521.2</ele>
        <time>2022-07-19T09:26:57Z</time>
      </trkpt>
      <trkpt lat="44.29099" lon="5.18272">
        <ele>521.2</ele>
        <time>2022-07-19T09:26:58Z</time>
      </trkpt>
      <trkpt lat="44.29102" lon="5.18274">
        <ele>521.2</ele>
        <time>2022-07-19T09:26:59Z</time>
      </trkpt>
      <trkpt lat="44.29105" lon="5.18276">
        <ele>518.2</ele>
        <time>2022-07-19T09:27:00Z</time>
      </trkpt>
      <trkpt lat="44.29109" lon="5.18278">
        <ele>518.2</ele>
        <time>2022-07-19T09:27:01Z</time>
      </trkpt>
      <trkpt lat="44.29112" lon="5.1828">
        <ele>518.2</ele>
        <time>2022-07-19T09:27:02Z</time>
      </trkpt>
      <trkpt lat="44.29116" lon="5.18282">
        <ele>514.9</ele>
        <time>2022-07-19T09:27:03Z</time>
      </trkpt>
      <trkpt lat="44.2912" lon="5.18284">
        <ele>511.8</ele>
        <time>2022-07-19T09:27:04Z</time>
      </trkpt>
      <trkpt lat="44.29123" lon="5.18286">
        <ele>511.8</ele>
        <time>2022-07-19T09:27:05Z</time>
      </trkpt>
      <trkpt lat="44.29126" lon="5.18287">
        <ele>511.8</ele>
        <time>2022-07-19T09:27:06Z</time>
      </trkpt>
      <trkpt lat="44.29129" lon="5.1829">
        <ele>511.8</ele>
        <time>2022-07-19T09:27:07Z</time>
      </trkpt>
      <trkpt lat="44.29133" lon="5.18293">
        <ele>509.2</ele>
        <time>2022-07-19T09:27:08Z</time>
      </trkpt>
      <trkpt lat="44.29135" lon="5.18297">
        <ele>505.6</ele>
        <time>2022-07-19T09:27:09Z</time>
      </trkpt>
      <trkpt lat="44.29137" lon="5.18301">
        <ele>505.6</ele>
        <time>2022-07-19T09:27:10Z</time>
      </trkpt>
      <trkpt lat="44.29139" lon="5.18306">
        <ele>505.6</ele>
        <time>2022-07-19T09:27:11Z</time>
      </trkpt>
      <trkpt lat="44.2914" lon="5.1831">
        <ele>505.6</ele>
        <time>2022-07-19T09:27:12Z</time>
      </trkpt>
      <trkpt lat="44.2914" lon="5.18315">
        <ele>502.2</ele>
        <time>2022-07-19T09:27:13Z</time>
      </trkpt>
      <trkpt lat="44.29138" lon="5.1832">
        <ele>502.2</ele>
        <time>2022-07-19T09:27:14Z</time>
      </trkpt>
      <trkpt lat="44.29137" lon="5.18325">
        <ele>502.2</ele>
        <time>2022-07-19T09:27:15Z</time>
      </trkpt>
      <trkpt lat="44.29134" lon="5.1833">
        <ele>502.2</ele>
        <time>2022-07-19T09:27:16Z</time>
      </trkpt>
      <trkpt lat="44.2913" lon="5.18334">
        <ele>498.8</ele>
        <time>2022-07-19T09:27:17Z</time>
      </trkpt>
      <trkpt lat="44.29127" lon="5.18338">
        <ele>501.7</ele>
        <time>2022-07-19T09:27:18Z</time>
      </trkpt>
      <trkpt lat="44.29124" lon="5.18341">
        <ele>501.7</ele>
        <time>2022-07-19T09:27:19Z</time>
      </trkpt>
      <trkpt lat="44.29121" lon="5.18344">
        <ele>501.7</ele>
        <time>2022-07-19T09:27:20Z</time>
      </trkpt>
      <trkpt lat="44.29118" lon="5.18348">
        <ele>501.7</ele>
        <time>2022-07-19T09:27:21Z</time>
      </trkpt>
      <trkpt lat="44.29116" lon="5.18352">
        <ele>501.9</ele>
        <time>2022-07-19T09:27:22Z</time>
      </trkpt>
      <trkpt lat="44.29115" lon="5.18356">
        <ele>501.9</ele>
        <time>2022-07-19T09:27:23Z</time>
      </trkpt>
      <trkpt lat="44.29116" lon="5.1836">
        <ele>501.9</ele>
        <time>2022-07-19T09:27:24Z</time>
      </trkpt>
      <trkpt lat="44.29118" lon="5.18365">
        <ele>498.7</ele>
        <time>2022-07-19T09:27:25Z</time>
      </trkpt>
      <trkpt lat="44.29121" lon="5.18368">
        <ele>495.2</ele>
        <time>2022-07-19T09:27:26Z</time>
      </trkpt>
      <trkpt lat="44.29125" lon="5.1837">
        <ele>495.2</ele>
        <time>2022-07-19T09:27:27Z</time>
      </trkpt>
      <trkpt lat="44.29129" lon="5.18371">
        <ele>495.2</ele>
        <time>2022-07-19T09:27:28Z</time>
      </trkpt>
      <trkpt lat="44.29134" lon="5.18372">
        <ele>492.9</ele>
        <time>2022-07-19T09:27:29Z</time>
      </trkpt>
      <trkpt lat="44.29141" lon="5.18374">
        <ele>492.9</ele>
        <time>2022-07-19T09:27:30Z</time>
      </trkpt>
      <trkpt lat="44.29145" lon="5.18377">
        <ele>490.6</ele>
        <time>2022-07-19T09:27:31Z</time>
      </trkpt>
      <trkpt lat="44.2915" lon="5.18382">
        <ele>490.6</ele>
        <time>2022-07-19T09:27:32Z</time>
      </trkpt>
      <trkpt lat="44.29154" lon="5.18385">
        <ele>488.1</ele>
        <time>2022-07-19T09:27:33Z</time>
      </trkpt>
      <trkpt lat="44.29158" lon="5.18389">
        <ele>486.6</ele>
        <time>2022-07-19T09:27:34Z</time>
      </trkpt>
      <trkpt lat="44.29164" lon="5.18389">
        <ele>486.6</ele>
        <time>2022-07-19T09:27:35Z</time>
      </trkpt>
      <trkpt lat="44.2917" lon="5.18393">
        <ele>484.8</ele>
        <time>2022-07-19T09:27:36Z</time>
      </trkpt>
      <trkpt lat="44.29175" lon="5.18395">
        <ele>484.8</ele>
        <time>2022-07-19T09:27:37Z</time>
      </trkpt>
      <trkpt lat="44.2918" lon="5.18399">
        <ele>483.1</ele>
        <time>2022-07-19T09:27:38Z</time>
      </trkpt>
      <trkpt lat="44.29185" lon="5.18403">
        <ele>481.6</ele>
        <time>2022-07-19T09:27:39Z</time>
      </trkpt>
      <trkpt lat="44.29188" lon="5.1841">
        <ele>481.6</ele>
        <time>2022-07-19T09:27:40Z</time>
      </trkpt>
      <trkpt lat="44.29191" lon="5.18419">
        <ele>479.1</ele>
        <time>2022-07-19T09:27:41Z</time>
      </trkpt>
      <trkpt lat="44.29196" lon="5.18426">
        <ele>479.1</ele>
        <time>2022-07-19T09:27:42Z</time>
      </trkpt>
      <trkpt lat="44.29201" lon="5.18435">
        <ele>479</ele>
        <time>2022-07-19T09:27:43Z</time>
      </trkpt>
      <trkpt lat="44.29205" lon="5.18444">
        <ele>477.8</ele>
        <time>2022-07-19T09:27:44Z</time>
      </trkpt>
      <trkpt lat="44.29207" lon="5.18456">
        <ele>477.9</ele>
        <time>2022-07-19T09:27:45Z</time>
      </trkpt>
      <trkpt lat="44.29208" lon="5.18463">
        <ele>477.9</ele>
        <time>2022-07-19T09:27:46Z</time>
      </trkpt>
      <trkpt lat="44.2921" lon="5.1847">
        <ele>478.2</ele>
        <time>2022-07-19T09:27:47Z</time>
      </trkpt>
      <trkpt lat="44.29207" lon="5.18475">
        <ele>478.2</ele>
        <time>2022-07-19T09:27:48Z</time>
      </trkpt>
      <trkpt lat="44.29205" lon="5.18478">
        <ele>478.2</ele>
        <time>2022-07-19T09:27:49Z</time>
      </trkpt>
      <trkpt lat="44.29202" lon="5.18482">
        <ele>478.7</ele>
        <time>2022-07-19T09:27:50Z</time>
      </trkpt>
      <trkpt lat="44.29197" lon="5.18481">
        <ele>478.7</ele>
        <time>2022-07-19T09:27:51Z</time>
      </trkpt>
      <trkpt lat="44.29194" lon="5.18484">
        <ele>478.7</ele>
        <time>2022-07-19T09:27:52Z</time>
      </trkpt>
      <trkpt lat="44.29189" lon="5.18485">
        <ele>478.8</ele>
        <time>2022-07-19T09:27:53Z</time>
      </trkpt>
      <trkpt lat="44.29185" lon="5.18488">
        <ele>478.5</ele>
        <time>2022-07-19T09:27:54Z</time>
      </trkpt>
      <trkpt lat="44.29182" lon="5.1849">
        <ele>478.5</ele>
        <time>2022-07-19T09:27:55Z</time>
      </trkpt>
      <trkpt lat="44.29179" lon="5.18493">
        <ele>478.5</ele>
        <time>2022-07-19T09:27:56Z</time>
      </trkpt>
      <trkpt lat="44.29176" lon="5.18497">
        <ele>478.2</ele>
        <time>2022-07-19T09:27:57Z</time>
      </trkpt>
      <trkpt lat="44.29173" lon="5.185">
        <ele>478.2</ele>
        <time>2022-07-19T09:27:58Z</time>
      </trkpt>
      <trkpt lat="44.29168" lon="5.18502">
        <ele>478.2</ele>
        <time>2022-07-19T09:27:59Z</time>
      </trkpt>
      <trkpt lat="44.29165" lon="5.18504">
        <ele>477.3</ele>
        <time>2022-07-19T09:28:00Z</time>
      </trkpt>
      <trkpt lat="44.29163" lon="5.18506">
        <ele>477.3</ele>
        <time>2022-07-19T09:28:01Z</time>
      </trkpt>
      <trkpt lat="44.2916" lon="5.18505">
        <ele>477.3</ele>
        <time>2022-07-19T09:28:02Z</time>
      </trkpt>
      <trkpt lat="44.29156" lon="5.18501">
        <ele>478.1</ele>
        <time>2022-07-19T09:28:03Z</time>
      </trkpt>
      <trkpt lat="44.29155" lon="5.185">
        <ele>478.1</ele>
        <time>2022-07-19T09:28:04Z</time>
      </trkpt>
      <trkpt lat="44.29154" lon="5.18499">
        <ele>477.8</ele>
        <time>2022-07-19T09:28:05Z</time>
      </trkpt>
      <trkpt lat="44.29151" lon="5.185">
        <ele>477.8</ele>
        <time>2022-07-19T09:28:06Z</time>
      </trkpt>
      <trkpt lat="44.29148" lon="5.18501">
        <ele>477.8</ele>
        <time>2022-07-19T09:28:07Z</time>
      </trkpt>
      <trkpt lat="44.29144" lon="5.18502">
        <ele>477.8</ele>
        <time>2022-07-19T09:28:08Z</time>
      </trkpt>
      <trkpt lat="44.29141" lon="5.18503">
        <ele>477.5</ele>
        <time>2022-07-19T09:28:09Z</time>
      </trkpt>
      <trkpt lat="44.29137" lon="5.18505">
        <ele>475.8</ele>
        <time>2022-07-19T09:28:10Z</time>
      </trkpt>
      <trkpt lat="44.29135" lon="5.18507">
        <ele>475.8</ele>
        <time>2022-07-19T09:28:11Z</time>
      </trkpt>
      <trkpt lat="44.29133" lon="5.1851">
        <ele>475.8</ele>
        <time>2022-07-19T09:28:12Z</time>
      </trkpt>
      <trkpt lat="44.29132" lon="5.18514">
        <ele>475.8</ele>
        <time>2022-07-19T09:28:13Z</time>
      </trkpt>
      <trkpt lat="44.29133" lon="5.18519">
        <ele>475.8</ele>
        <time>2022-07-19T09:28:14Z</time>
      </trkpt>
      <trkpt lat="44.29134" lon="5.18525">
        <ele>474.4</ele>
        <time>2022-07-19T09:28:15Z</time>
      </trkpt>
      <trkpt lat="44.29136" lon="5.18529">
        <ele>474.4</ele>
        <time>2022-07-19T09:28:16Z</time>
      </trkpt>
      <trkpt lat="44.29142" lon="5.18538">
        <ele>473.1</ele>
        <time>2022-07-19T09:28:17Z</time>
      </trkpt>
      <trkpt lat="44.29144" lon="5.18546">
        <ele>474.8</ele>
        <time>2022-07-19T09:28:18Z</time>
      </trkpt>
      <trkpt lat="44.29146" lon="5.18555">
        <ele>473.8</ele>
        <time>2022-07-19T09:28:19Z</time>
      </trkpt>
      <trkpt lat="44.29148" lon="5.18559">
        <ele>473.8</ele>
        <time>2022-07-19T09:28:20Z</time>
      </trkpt>
      <trkpt lat="44.29148" lon="5.18564">
        <ele>473.8</ele>
        <time>2022-07-19T09:28:21Z</time>
      </trkpt>
      <trkpt lat="44.29147" lon="5.18572">
        <ele>472.5</ele>
        <time>2022-07-19T09:28:22Z</time>
      </trkpt>
      <trkpt lat="44.29146" lon="5.18576">
        <ele>472.5</ele>
        <time>2022-07-19T09:28:23Z</time>
      </trkpt>
      <trkpt lat="44.29146" lon="5.18582">
        <ele>472.5</ele>
        <time>2022-07-19T09:28:24Z</time>
      </trkpt>
      <trkpt lat="44.29144" lon="5.18588">
        <ele>472.5</ele>
        <time>2022-07-19T09:28:25Z</time>
      </trkpt>
      <trkpt lat="44.29144" lon="5.18592">
        <ele>470.8</ele>
        <time>2022-07-19T09:28:26Z</time>
      </trkpt>
      <trkpt lat="44.29144" lon="5.186">
        <ele>470.8</ele>
        <time>2022-07-19T09:28:27Z</time>
      </trkpt>
      <trkpt lat="44.29145" lon="5.18604">
        <ele>470.8</ele>
        <time>2022-07-19T09:28:28Z</time>
      </trkpt>
      <trkpt lat="44.29145" lon="5.18606">
        <ele>470.8</ele>
        <time>2022-07-19T09:28:29Z</time>
      </trkpt>
      <trkpt lat="44.29143" lon="5.1861">
        <ele>469.1</ele>
        <time>2022-07-19T09:28:30Z</time>
      </trkpt>
      <trkpt lat="44.29142" lon="5.18611">
        <ele>469.1</ele>
        <time>2022-07-19T09:28:31Z</time>
      </trkpt>
      <trkpt lat="44.2914" lon="5.18611">
        <ele>466.6</ele>
        <time>2022-07-19T09:28:32Z</time>
      </trkpt>
      <trkpt lat="44.2914" lon="5.1861">
        <ele>466.6</ele>
        <time>2022-07-19T09:28:33Z</time>
      </trkpt>
      <trkpt lat="44.29139" lon="5.1861">
        <ele>466.6</ele>
        <time>2022-07-19T09:28:34Z</time>
      </trkpt>
      <trkpt lat="44.29138" lon="5.18609">
        <ele>466.6</ele>
        <time>2022-07-19T09:28:35Z</time>
      </trkpt>
      <trkpt lat="44.29137" lon="5.18604">
        <ele>468.3</ele>
        <time>2022-07-19T09:28:36Z</time>
      </trkpt>
      <trkpt lat="44.29137" lon="5.186">
        <ele>468.3</ele>
        <time>2022-07-19T09:28:37Z</time>
      </trkpt>
      <trkpt lat="44.29138" lon="5.18595">
        <ele>468.3</ele>
        <time>2022-07-19T09:28:38Z</time>
      </trkpt>
      <trkpt lat="44.29138" lon="5.18591">
        <ele>468.3</ele>
        <time>2022-07-19T09:28:39Z</time>
      </trkpt>
      <trkpt lat="44.29138" lon="5.18586">
        <ele>470.1</ele>
        <time>2022-07-19T09:28:40Z</time>
      </trkpt>
      <trkpt lat="44.29138" lon="5.18584">
        <ele>470.1</ele>
        <time>2022-07-19T09:28:41Z</time>
      </trkpt>
      <trkpt lat="44.29136" lon="5.18583">
        <ele>470.1</ele>
        <time>2022-07-19T09:28:42Z</time>
      </trkpt>
      <trkpt lat="44.29134" lon="5.18584">
        <ele>470.1</ele>
        <time>2022-07-19T09:28:43Z</time>
      </trkpt>
      <trkpt lat="44.29133" lon="5.18585">
        <ele>470.1</ele>
        <time>2022-07-19T09:28:44Z</time>
      </trkpt>
      <trkpt lat="44.29129" lon="5.18589">
        <ele>468.3</ele>
        <time>2022-07-19T09:28:45Z</time>
      </trkpt>
      <trkpt lat="44.29126" lon="5.18593">
        <ele>466.5</ele>
        <time>2022-07-19T09:28:46Z</time>
      </trkpt>
      <trkpt lat="44.29124" lon="5.18599">
        <ele>466.5</ele>
        <time>2022-07-19T09:28:47Z</time>
      </trkpt>
      <trkpt lat="44.29126" lon="5.18614">
        <ele>464.7</ele>
        <time>2022-07-19T09:28:48Z</time>
      </trkpt>
      <trkpt lat="44.29128" lon="5.18622">
        <ele>464.7</ele>
        <time>2022-07-19T09:28:49Z</time>
      </trkpt>
      <trkpt lat="44.29128" lon="5.18628">
        <ele>462.7</ele>
        <time>2022-07-19T09:28:50Z</time>
      </trkpt>
      <trkpt lat="44.29126" lon="5.18631">
        <ele>462.7</ele>
        <time>2022-07-19T09:28:51Z</time>
      </trkpt>
      <trkpt lat="44.29125" lon="5.18637">
        <ele>462.7</ele>
        <time>2022-07-19T09:28:52Z</time>
      </trkpt>
      <trkpt lat="44.29125" lon="5.18643">
        <ele>460.3</ele>
        <time>2022-07-19T09:28:53Z</time>
      </trkpt>
      <trkpt lat="44.29124" lon="5.18648">
        <ele>460.3</ele>
        <time>2022-07-19T09:28:54Z</time>
      </trkpt>
      <trkpt lat="44.29126" lon="5.18651">
        <ele>460.3</ele>
        <time>2022-07-19T09:28:55Z</time>
      </trkpt>
      <trkpt lat="44.29125" lon="5.18656">
        <ele>460.3</ele>
        <time>2022-07-19T09:28:56Z</time>
      </trkpt>
      <trkpt lat="44.29123" lon="5.18659">
        <ele>458.1</ele>
        <time>2022-07-19T09:28:57Z</time>
      </trkpt>
      <trkpt lat="44.29122" lon="5.18663">
        <ele>458.1</ele>
        <time>2022-07-19T09:28:58Z</time>
      </trkpt>
      <trkpt lat="44.29118" lon="5.18672">
        <ele>458.1</ele>
        <time>2022-07-19T09:28:59Z</time>
      </trkpt>
      <trkpt lat="44.29114" lon="5.18678">
        <ele>453.8</ele>
        <time>2022-07-19T09:29:00Z</time>
      </trkpt>
      <trkpt lat="44.29112" lon="5.18686">
        <ele>453.8</ele>
        <time>2022-07-19T09:29:01Z</time>
      </trkpt>
      <trkpt lat="44.29109" lon="5.18691">
        <ele>453.8</ele>
        <time>2022-07-19T09:29:02Z</time>
      </trkpt>
      <trkpt lat="44.29106" lon="5.18701">
        <ele>451.6</ele>
        <time>2022-07-19T09:29:03Z</time>
      </trkpt>
      <trkpt lat="44.29103" lon="5.18709">
        <ele>447.8</ele>
        <time>2022-07-19T09:29:04Z</time>
      </trkpt>
      <trkpt lat="44.291" lon="5.18717">
        <ele>447.8</ele>
        <time>2022-07-19T09:29:05Z</time>
      </trkpt>
      <trkpt lat="44.29094" lon="5.18729">
        <ele>445.5</ele>
        <time>2022-07-19T09:29:06Z</time>
      </trkpt>
      <trkpt lat="44.2909" lon="5.1874">
        <ele>444.3</ele>
        <time>2022-07-19T09:29:07Z</time>
      </trkpt>
      <trkpt lat="44.29087" lon="5.18749">
        <ele>442.1</ele>
        <time>2022-07-19T09:29:08Z</time>
      </trkpt>
      <trkpt lat="44.29083" lon="5.18755">
        <ele>442.1</ele>
        <time>2022-07-19T09:29:09Z</time>
      </trkpt>
      <trkpt lat="44.29081" lon="5.18762">
        <ele>439.8</ele>
        <time>2022-07-19T09:29:10Z</time>
      </trkpt>
      <trkpt lat="44.29081" lon="5.18774">
        <ele>439.8</ele>
        <time>2022-07-19T09:29:11Z</time>
      </trkpt>
      <trkpt lat="44.29082" lon="5.18785">
        <ele>437.3</ele>
        <time>2022-07-19T09:29:12Z</time>
      </trkpt>
      <trkpt lat="44.29082" lon="5.18793">
        <ele>437.3</ele>
        <time>2022-07-19T09:29:13Z</time>
      </trkpt>
      <trkpt lat="44.29086" lon="5.18804">
        <ele>435.2</ele>
        <time>2022-07-19T09:29:14Z</time>
      </trkpt>
      <trkpt lat="44.2909" lon="5.18812">
        <ele>433.1</ele>
        <time>2022-07-19T09:29:15Z</time>
      </trkpt>
      <trkpt lat="44.29094" lon="5.18819">
        <ele>434.4</ele>
        <time>2022-07-19T09:29:16Z</time>
      </trkpt>
      <trkpt lat="44.291" lon="5.18825">
        <ele>434.4</ele>
        <time>2022-07-19T09:29:17Z</time>
      </trkpt>
      <trkpt lat="44.29105" lon="5.1883">
        <ele>433.7</ele>
        <time>2022-07-19T09:29:18Z</time>
      </trkpt>
      <trkpt lat="44.29114" lon="5.18836">
        <ele>433.7</ele>
        <time>2022-07-19T09:29:19Z</time>
      </trkpt>
      <trkpt lat="44.2912" lon="5.18839">
        <ele>436</ele>
        <time>2022-07-19T09:29:20Z</time>
      </trkpt>
      <trkpt lat="44.29127" lon="5.18845">
        <ele>436</ele>
        <time>2022-07-19T09:29:21Z</time>
      </trkpt>
      <trkpt lat="44.29132" lon="5.18851">
        <ele>435.7</ele>
        <time>2022-07-19T09:29:22Z</time>
      </trkpt>
      <trkpt lat="44.29138" lon="5.1886">
        <ele>435.7</ele>
        <time>2022-07-19T09:29:23Z</time>
      </trkpt>
      <trkpt lat="44.29142" lon="5.18868">
        <ele>435.1</ele>
        <time>2022-07-19T09:29:24Z</time>
      </trkpt>
      <trkpt lat="44.29148" lon="5.18877">
        <ele>435.1</ele>
        <time>2022-07-19T09:29:25Z</time>
      </trkpt>
      <trkpt lat="44.29154" lon="5.18884">
        <ele>434.3</ele>
        <time>2022-07-19T09:29:26Z</time>
      </trkpt>
      <trkpt lat="44.29161" lon="5.18891">
        <ele>434.3</ele>
        <time>2022-07-19T09:29:27Z</time>
      </trkpt>
      <trkpt lat="44.29168" lon="5.18897">
        <ele>437.6</ele>
        <time>2022-07-19T09:29:28Z</time>
      </trkpt>
      <trkpt lat="44.29176" lon="5.18903">
        <ele>433.4</ele>
        <time>2022-07-19T09:29:29Z</time>
      </trkpt>
      <trkpt lat="44.29185" lon="5.18909">
        <ele>436</ele>
        <time>2022-07-19T09:29:30Z</time>
      </trkpt>
      <trkpt lat="44.29194" lon="5.18913">
        <ele>439</ele>
        <time>2022-07-19T09:29:31Z</time>
      </trkpt>
      <trkpt lat="44.29203" lon="5.18915">
        <ele>433.9</ele>
        <time>2022-07-19T09:29:32Z</time>
      </trkpt>
      <trkpt lat="44.29211" lon="5.18917">
        <ele>436.4</ele>
        <time>2022-07-19T09:29:33Z</time>
      </trkpt>
      <trkpt lat="44.29219" lon="5.18922">
        <ele>438.9</ele>
        <time>2022-07-19T09:29:34Z</time>
      </trkpt>
      <trkpt lat="44.29227" lon="5.18926">
        <ele>438.9</ele>
        <time>2022-07-19T09:29:35Z</time>
      </trkpt>
      <trkpt lat="44.29234" lon="5.18932">
        <ele>440.9</ele>
        <time>2022-07-19T09:29:36Z</time>
      </trkpt>
      <trkpt lat="44.29243" lon="5.18938">
        <ele>436.3</ele>
        <time>2022-07-19T09:29:37Z</time>
      </trkpt>
      <trkpt lat="44.29249" lon="5.18946">
        <ele>436.3</ele>
        <time>2022-07-19T09:29:38Z</time>
      </trkpt>
      <trkpt lat="44.29255" lon="5.18953">
        <ele>430.6</ele>
        <time>2022-07-19T09:29:39Z</time>
      </trkpt>
      <trkpt lat="44.29263" lon="5.18958">
        <ele>430.6</ele>
        <time>2022-07-19T09:29:40Z</time>
      </trkpt>
      <trkpt lat="44.2927" lon="5.18964">
        <ele>430.8</ele>
        <time>2022-07-19T09:29:41Z</time>
      </trkpt>
      <trkpt lat="44.29279" lon="5.18971">
        <ele>425.4</ele>
        <time>2022-07-19T09:29:42Z</time>
      </trkpt>
      <trkpt lat="44.29285" lon="5.18979">
        <ele>425.4</ele>
        <time>2022-07-19T09:29:43Z</time>
      </trkpt>
      <trkpt lat="44.2929" lon="5.18987">
        <ele>420.9</ele>
        <time>2022-07-19T09:29:44Z</time>
      </trkpt>
      <trkpt lat="44.29297" lon="5.18995">
        <ele>420.9</ele>
        <time>2022-07-19T09:29:45Z</time>
      </trkpt>
      <trkpt lat="44.29303" lon="5.19">
        <ele>420.9</ele>
        <time>2022-07-19T09:29:46Z</time>
      </trkpt>
      <trkpt lat="44.29308" lon="5.19006">
        <ele>417.6</ele>
        <time>2022-07-19T09:29:47Z</time>
      </trkpt>
      <trkpt lat="44.29312" lon="5.19013">
        <ele>417.6</ele>
        <time>2022-07-19T09:29:48Z</time>
      </trkpt>
      <trkpt lat="44.29315" lon="5.19017">
        <ele>417.7</ele>
        <time>2022-07-19T09:29:49Z</time>
      </trkpt>
      <trkpt lat="44.29316" lon="5.19023">
        <ele>415.8</ele>
        <time>2022-07-19T09:29:50Z</time>
      </trkpt>
      <trkpt lat="44.29317" lon="5.1903">
        <ele>415.8</ele>
        <time>2022-07-19T09:29:51Z</time>
      </trkpt>
      <trkpt lat="44.29318" lon="5.19035">
        <ele>415.8</ele>
        <time>2022-07-19T09:29:52Z</time>
      </trkpt>
      <trkpt lat="44.29319" lon="5.19039">
        <ele>414.7</ele>
        <time>2022-07-19T09:29:53Z</time>
      </trkpt>
      <trkpt lat="44.29319" lon="5.19043">
        <ele>414.7</ele>
        <time>2022-07-19T09:29:54Z</time>
      </trkpt>
      <trkpt lat="44.29322" lon="5.19042">
        <ele>414.6</ele>
        <time>2022-07-19T09:29:55Z</time>
      </trkpt>
      <trkpt lat="44.2932" lon="5.19043">
        <ele>414.6</ele>
        <time>2022-07-19T09:29:56Z</time>
      </trkpt>
      <trkpt lat="44.29319" lon="5.19043">
        <ele>414.6</ele>
        <time>2022-07-19T09:29:57Z</time>
      </trkpt>
      <trkpt lat="44.29318" lon="5.19043">
        <ele>414.6</ele>
        <time>2022-07-19T09:29:58Z</time>
      </trkpt>
      <trkpt lat="44.29317" lon="5.19044">
        <ele>414.6</ele>
        <time>2022-07-19T09:29:59Z</time>
      </trkpt>
      <trkpt lat="44.29316" lon="5.19045">
        <ele>414.5</ele>
        <time>2022-07-19T09:30:00Z</time>
      </trkpt>
      <trkpt lat="44.29316" lon="5.19046">
        <ele>414.5</ele>
        <time>2022-07-19T09:30:01Z</time>
      </trkpt>
      <trkpt lat="44.29315" lon="5.19048">
        <ele>414.5</ele>
        <time>2022-07-19T09:30:02Z</time>
      </trkpt>
      <trkpt lat="44.29315" lon="5.1905">
        <ele>414.5</ele>
        <time>2022-07-19T09:30:03Z</time>
      </trkpt>
      <trkpt lat="44.29315" lon="5.19053">
        <ele>414.5</ele>
        <time>2022-07-19T09:30:04Z</time>
      </trkpt>
      <trkpt lat="44.29315" lon="5.19054">
        <ele>414.5</ele>
        <time>2022-07-19T09:30:05Z</time>
      </trkpt>
      <trkpt lat="44.29315" lon="5.19056">
        <ele>414.4</ele>
        <time>2022-07-19T09:30:06Z</time>
      </trkpt>
      <trkpt lat="44.29316" lon="5.19057">
        <ele>414.4</ele>
        <time>2022-07-19T09:30:07Z</time>
      </trkpt>
      <trkpt lat="44.29316" lon="5.19058">
        <ele>414.4</ele>
        <time>2022-07-19T09:30:08Z</time>
      </trkpt>
      <trkpt lat="44.29316" lon="5.19059">
        <ele>414.4</ele>
        <time>2022-07-19T09:30:09Z</time>
      </trkpt>
      <trkpt lat="44.29318" lon="5.19063">
        <ele>414.4</ele>
        <time>2022-07-19T09:30:10Z</time>
      </trkpt>
      <trkpt lat="44.29319" lon="5.19065">
        <ele>414.4</ele>
        <time>2022-07-19T09:30:11Z</time>
      </trkpt>
      <trkpt lat="44.29321" lon="5.19068">
        <ele>414.3</ele>
        <time>2022-07-19T09:30:12Z</time>
      </trkpt>
      <trkpt lat="44.29322" lon="5.19072">
        <ele>414.3</ele>
        <time>2022-07-19T09:30:13Z</time>
      </trkpt>
      <trkpt lat="44.29324" lon="5.19076">
        <ele>414.3</ele>
        <time>2022-07-19T09:30:14Z</time>
      </trkpt>
      <trkpt lat="44.29325" lon="5.19078">
        <ele>414.3</ele>
        <time>2022-07-19T09:30:15Z</time>
      </trkpt>
      <trkpt lat="44.29326" lon="5.19082">
        <ele>414.3</ele>
        <time>2022-07-19T09:30:16Z</time>
      </trkpt>
      <trkpt lat="44.29328" lon="5.19085">
        <ele>414.3</ele>
        <time>2022-07-19T09:30:17Z</time>
      </trkpt>
      <trkpt lat="44.29328" lon="5.19086">
        <ele>413.9</ele>
        <time>2022-07-19T09:30:18Z</time>
      </trkpt>
      <trkpt lat="44.29328" lon="5.19086">
        <ele>413.9</ele>
        <time>2022-07-19T09:30:19Z</time>
      </trkpt>
      <trkpt lat="44.29328" lon="5.19089">
        <ele>413.5</ele>
        <time>2022-07-19T09:30:20Z</time>
      </trkpt>
      <trkpt lat="44.29329" lon="5.19089">
        <ele>413.4</ele>
        <time>2022-07-19T09:30:21Z</time>
      </trkpt>
      <trkpt lat="44.29329" lon="5.19089">
        <ele>413.4</ele>
        <time>2022-07-19T09:30:22Z</time>
      </trkpt>
      <trkpt lat="44.29329" lon="5.19089">
        <ele>413.4</ele>
        <time>2022-07-19T09:30:23Z</time>
      </trkpt>
      <trkpt lat="44.29329" lon="5.19089">
        <ele>413.4</ele>
        <time>2022-07-19T09:30:24Z</time>
      </trkpt>
      <trkpt lat="44.29329" lon="5.19089">
        <ele>413.4</ele>
        <time>2022-07-19T09:30:25Z</time>
      </trkpt>
      <trkpt lat="44.29329" lon="5.19089">
        <ele>413.4</ele>
        <time>2022-07-19T09:30:26Z</time>
      </trkpt>
      <trkpt lat="44.29329" lon="5.19089">
        <ele>413.4</ele>
        <time>2022-07-19T09:30:27Z</time>
      </trkpt>
      <trkpt lat="44.29329" lon="5.19089">
        <ele>413.4</ele>
        <time>2022-07-19T09:30:28Z</time>
      </trkpt>
      <trkpt lat="44.2933" lon="5.19085">
        <ele>412.6</ele>
        <time>2022-07-19T09:30:58Z</time>
      </trkpt>
      <trkpt lat="44.29329" lon="5.19083">
        <ele>412.2</ele>
        <time>2022-07-19T09:30:59Z</time>
      </trkpt>
      <trkpt lat="44.29327" lon="5.1908">
        <ele>411.5</ele>
        <time>2022-07-19T09:31:00Z</time>
      </trkpt>
      <trkpt lat="44.29327" lon="5.19079">
        <ele>411.3</ele>
        <time>2022-07-19T09:31:01Z</time>
      </trkpt>
      <trkpt lat="44.29326" lon="5.19077">
        <ele>411</ele>
        <time>2022-07-19T09:31:02Z</time>
      </trkpt>
      <trkpt lat="44.29326" lon="5.19075">
        <ele>410.7</ele>
        <time>2022-07-19T09:31:03Z</time>
      </trkpt>
      <trkpt lat="44.29326" lon="5.19074">
        <ele>410.6</ele>
        <time>2022-07-19T09:31:04Z</time>
      </trkpt>
      <trkpt lat="44.29326" lon="5.19075">
        <ele>410.5</ele>
        <time>2022-07-19T09:31:05Z</time>
      </trkpt>
      <trkpt lat="44.29327" lon="5.19076">
        <ele>410.3</ele>
        <time>2022-07-19T09:31:06Z</time>
      </trkpt>
      <trkpt lat="44.29327" lon="5.19076">
        <ele>410.2</ele>
        <time>2022-07-19T09:31:07Z</time>
      </trkpt>
      <trkpt lat="44.29327" lon="5.19077">
        <ele>410</ele>
        <time>2022-07-19T09:31:08Z</time>
      </trkpt>
      <trkpt lat="44.29328" lon="5.19078">
        <ele>409.8</ele>
        <time>2022-07-19T09:31:09Z</time>
      </trkpt>
      <trkpt lat="44.29328" lon="5.19079">
        <ele>409.7</ele>
        <time>2022-07-19T09:31:10Z</time>
      </trkpt>
      <trkpt lat="44.29329" lon="5.1908">
        <ele>409.5</ele>
        <time>2022-07-19T09:31:11Z</time>
      </trkpt>
      <trkpt lat="44.29329" lon="5.19081">
        <ele>409.4</ele>
        <time>2022-07-19T09:31:12Z</time>
      </trkpt>
      <trkpt lat="44.29329" lon="5.19082">
        <ele>409.2</ele>
        <time>2022-07-19T09:31:13Z</time>
      </trkpt>
      <trkpt lat="44.2933" lon="5.19082">
        <ele>409.1</ele>
        <time>2022-07-19T09:36:13Z</time>
      </trkpt>
      <trkpt lat="44.2933" lon="5.19083">
        <ele>408.9</ele>
        <time>2022-07-19T09:36:14Z</time>
      </trkpt>
      <trkpt lat="44.29332" lon="5.19087">
        <ele>408.2</ele>
        <time>2022-07-19T09:36:15Z</time>
      </trkpt>
      <trkpt lat="44.29332" lon="5.19088">
        <ele>408</ele>
        <time>2022-07-19T09:36:16Z</time>
      </trkpt>
      <trkpt lat="44.29334" lon="5.19092">
        <ele>407.2</ele>
        <time>2022-07-19T09:36:17Z</time>
      </trkpt>
      <trkpt lat="44.29335" lon="5.19093">
        <ele>407.2</ele>
        <time>2022-07-19T09:36:18Z</time>
      </trkpt>
      <trkpt lat="44.29336" lon="5.19095">
        <ele>407.2</ele>
        <time>2022-07-19T09:36:19Z</time>
      </trkpt>
      <trkpt lat="44.29338" lon="5.19095">
        <ele>407.2</ele>
        <time>2022-07-19T09:36:20Z</time>
      </trkpt>
      <trkpt lat="44.29341" lon="5.19094">
        <ele>407.3</ele>
        <time>2022-07-19T09:36:21Z</time>
      </trkpt>
      <trkpt lat="44.29342" lon="5.19093">
        <ele>407.3</ele>
        <time>2022-07-19T09:36:22Z</time>
      </trkpt>
      <trkpt lat="44.29346" lon="5.1909">
        <ele>407.3</ele>
        <time>2022-07-19T09:36:23Z</time>
      </trkpt>
      <trkpt lat="44.29347" lon="5.19089">
        <ele>407.3</ele>
        <time>2022-07-19T09:36:24Z</time>
      </trkpt>
      <trkpt lat="44.2935" lon="5.19086">
        <ele>407.4</ele>
        <time>2022-07-19T09:36:25Z</time>
      </trkpt>
      <trkpt lat="44.29351" lon="5.19085">
        <ele>407.4</ele>
        <time>2022-07-19T09:36:26Z</time>
      </trkpt>
      <trkpt lat="44.29353" lon="5.19082">
        <ele>407.4</ele>
        <time>2022-07-19T09:36:27Z</time>
      </trkpt>
      <trkpt lat="44.29354" lon="5.19081">
        <ele>407.5</ele>
        <time>2022-07-19T09:36:28Z</time>
      </trkpt>
      <trkpt lat="44.29357" lon="5.19078">
        <ele>407.5</ele>
        <time>2022-07-19T09:36:29Z</time>
      </trkpt>
      <trkpt lat="44.29358" lon="5.19077">
        <ele>407.5</ele>
        <time>2022-07-19T09:36:30Z</time>
      </trkpt>
      <trkpt lat="44.29362" lon="5.19073">
        <ele>407.6</ele>
        <time>2022-07-19T09:36:31Z</time>
      </trkpt>
      <trkpt lat="44.29363" lon="5.19072">
        <ele>407.7</ele>
        <time>2022-07-19T09:36:32Z</time>
      </trkpt>
      <trkpt lat="44.29366" lon="5.1907">
        <ele>407.7</ele>
        <time>2022-07-19T09:36:33Z</time>
      </trkpt>
      <trkpt lat="44.29367" lon="5.19069">
        <ele>407.8</ele>
        <time>2022-07-19T09:36:34Z</time>
      </trkpt>
      <trkpt lat="44.29369" lon="5.19066">
        <ele>407.8</ele>
        <time>2022-07-19T09:36:35Z</time>
      </trkpt>
      <trkpt lat="44.29372" lon="5.19063">
        <ele>407.9</ele>
        <time>2022-07-19T09:36:36Z</time>
      </trkpt>
      <trkpt lat="44.29374" lon="5.19061">
        <ele>408</ele>
        <time>2022-07-19T09:36:37Z</time>
      </trkpt>
      <trkpt lat="44.29376" lon="5.19058">
        <ele>408</ele>
        <time>2022-07-19T09:36:38Z</time>
      </trkpt>
      <trkpt lat="44.29379" lon="5.19055">
        <ele>408.1</ele>
        <time>2022-07-19T09:36:39Z</time>
      </trkpt>
      <trkpt lat="44.29381" lon="5.19055">
        <ele>408.1</ele>
        <time>2022-07-19T09:36:40Z</time>
      </trkpt>
      <trkpt lat="44.29383" lon="5.19052">
        <ele>408.2</ele>
        <time>2022-07-19T09:36:41Z</time>
      </trkpt>
      <trkpt lat="44.29385" lon="5.1905">
        <ele>408.3</ele>
        <time>2022-07-19T09:36:42Z</time>
      </trkpt>
      <trkpt lat="44.29387" lon="5.19047">
        <ele>408.3</ele>
        <time>2022-07-19T09:36:43Z</time>
      </trkpt>
      <trkpt lat="44.2939" lon="5.19045">
        <ele>408.4</ele>
        <time>2022-07-19T09:36:44Z</time>
      </trkpt>
      <trkpt lat="44.29392" lon="5.19042">
        <ele>408.4</ele>
        <time>2022-07-19T09:36:45Z</time>
      </trkpt>
      <trkpt lat="44.29395" lon="5.19039">
        <ele>408.5</ele>
        <time>2022-07-19T09:36:46Z</time>
      </trkpt>
      <trkpt lat="44.29398" lon="5.19036">
        <ele>408.6</ele>
        <time>2022-07-19T09:36:47Z</time>
      </trkpt>
      <trkpt lat="44.294" lon="5.19033">
        <ele>408.6</ele>
        <time>2022-07-19T09:36:48Z</time>
      </trkpt>
      <trkpt lat="44.29403" lon="5.19031">
        <ele>408.7</ele>
        <time>2022-07-19T09:36:49Z</time>
      </trkpt>
      <trkpt lat="44.29406" lon="5.19029">
        <ele>408.8</ele>
        <time>2022-07-19T09:36:50Z</time>
      </trkpt>
      <trkpt lat="44.29407" lon="5.19028">
        <ele>408.8</ele>
        <time>2022-07-19T09:36:51Z</time>
      </trkpt>
      <trkpt lat="44.2941" lon="5.19027">
        <ele>408.8</ele>
        <time>2022-07-19T09:36:52Z</time>
      </trkpt>
      <trkpt lat="44.29411" lon="5.19027">
        <ele>408.9</ele>
        <time>2022-07-19T09:36:53Z</time>
      </trkpt>
      <trkpt lat="44.29414" lon="5.19027">
        <ele>408.9</ele>
        <time>2022-07-19T09:36:54Z</time>
      </trkpt>
      <trkpt lat="44.29415" lon="5.19027">
        <ele>408.9</ele>
        <time>2022-07-19T09:36:55Z</time>
      </trkpt>
      <trkpt lat="44.29419" lon="5.19025">
        <ele>409</ele>
        <time>2022-07-19T09:36:56Z</time>
      </trkpt>
      <trkpt lat="44.2942" lon="5.19025">
        <ele>409</ele>
        <time>2022-07-19T09:36:57Z</time>
      </trkpt>
      <trkpt lat="44.29424" lon="5.19024">
        <ele>409.1</ele>
        <time>2022-07-19T09:36:58Z</time>
      </trkpt>
      <trkpt lat="44.29425" lon="5.19023">
        <ele>409.1</ele>
        <time>2022-07-19T09:36:59Z</time>
      </trkpt>
      <trkpt lat="44.29428" lon="5.19023">
        <ele>409.2</ele>
        <time>2022-07-19T09:37:00Z</time>
      </trkpt>
      <trkpt lat="44.29429" lon="5.19023">
        <ele>409.2</ele>
        <time>2022-07-19T09:37:01Z</time>
      </trkpt>
      <trkpt lat="44.29433" lon="5.19022">
        <ele>409.3</ele>
        <time>2022-07-19T09:37:02Z</time>
      </trkpt>
      <trkpt lat="44.29434" lon="5.19021">
        <ele>409.3</ele>
        <time>2022-07-19T09:37:03Z</time>
      </trkpt>
      <trkpt lat="44.29437" lon="5.19021">
        <ele>409.4</ele>
        <time>2022-07-19T09:37:04Z</time>
      </trkpt>
      <trkpt lat="44.29439" lon="5.1902">
        <ele>409.5</ele>
        <time>2022-07-19T09:37:05Z</time>
      </trkpt>
      <trkpt lat="44.29442" lon="5.1902">
        <ele>409.5</ele>
        <time>2022-07-19T09:37:06Z</time>
      </trkpt>
      <trkpt lat="44.29443" lon="5.1902">
        <ele>409.6</ele>
        <time>2022-07-19T09:37:07Z</time>
      </trkpt>
      <trkpt lat="44.29447" lon="5.19019">
        <ele>409.7</ele>
        <time>2022-07-19T09:37:08Z</time>
      </trkpt>
      <trkpt lat="44.29448" lon="5.19019">
        <ele>409.7</ele>
        <time>2022-07-19T09:37:09Z</time>
      </trkpt>
      <trkpt lat="44.29451" lon="5.19017">
        <ele>409.8</ele>
        <time>2022-07-19T09:37:10Z</time>
      </trkpt>
      <trkpt lat="44.29454" lon="5.19015">
        <ele>410</ele>
        <time>2022-07-19T09:37:11Z</time>
      </trkpt>
      <trkpt lat="44.29456" lon="5.19014">
        <ele>410</ele>
        <time>2022-07-19T09:37:12Z</time>
      </trkpt>
      <trkpt lat="44.29459" lon="5.19012">
        <ele>410.2</ele>
        <time>2022-07-19T09:37:13Z</time>
      </trkpt>
      <trkpt lat="44.29461" lon="5.19011">
        <ele>410.2</ele>
        <time>2022-07-19T09:37:14Z</time>
      </trkpt>
      <trkpt lat="44.29463" lon="5.1901">
        <ele>410.3</ele>
        <time>2022-07-19T09:37:15Z</time>
      </trkpt>
      <trkpt lat="44.29467" lon="5.19008">
        <ele>410.5</ele>
        <time>2022-07-19T09:37:16Z</time>
      </trkpt>
      <trkpt lat="44.29469" lon="5.19008">
        <ele>410.5</ele>
        <time>2022-07-19T09:37:17Z</time>
      </trkpt>
      <trkpt lat="44.29472" lon="5.19006">
        <ele>410.7</ele>
        <time>2022-07-19T09:37:18Z</time>
      </trkpt>
      <trkpt lat="44.29474" lon="5.19006">
        <ele>410.7</ele>
        <time>2022-07-19T09:37:19Z</time>
      </trkpt>
      <trkpt lat="44.29477" lon="5.19005">
        <ele>410.9</ele>
        <time>2022-07-19T09:37:20Z</time>
      </trkpt>
      <trkpt lat="44.29479" lon="5.19005">
        <ele>411</ele>
        <time>2022-07-19T09:37:21Z</time>
      </trkpt>
      <trkpt lat="44.29483" lon="5.19004">
        <ele>411.1</ele>
        <time>2022-07-19T09:37:22Z</time>
      </trkpt>
      <trkpt lat="44.29484" lon="5.19003">
        <ele>411.2</ele>
        <time>2022-07-19T09:37:23Z</time>
      </trkpt>
      <trkpt lat="44.29487" lon="5.19003">
        <ele>411.3</ele>
        <time>2022-07-19T09:37:24Z</time>
      </trkpt>
      <trkpt lat="44.29488" lon="5.19003">
        <ele>411.4</ele>
        <time>2022-07-19T09:37:25Z</time>
      </trkpt>
      <trkpt lat="44.29492" lon="5.19002">
        <ele>411.5</ele>
        <time>2022-07-19T09:37:26Z</time>
      </trkpt>
      <trkpt lat="44.29493" lon="5.19002">
        <ele>411.5</ele>
        <time>2022-07-19T09:37:27Z</time>
      </trkpt>
      <trkpt lat="44.29496" lon="5.19002">
        <ele>411.7</ele>
        <time>2022-07-19T09:37:28Z</time>
      </trkpt>
      <trkpt lat="44.29498" lon="5.19001">
        <ele>411.7</ele>
        <time>2022-07-19T09:37:29Z</time>
      </trkpt>
      <trkpt lat="44.29501" lon="5.19">
        <ele>411.9</ele>
        <time>2022-07-19T09:37:30Z</time>
      </trkpt>
      <trkpt lat="44.29502" lon="5.19">
        <ele>411.9</ele>
        <time>2022-07-19T09:37:31Z</time>
      </trkpt>
      <trkpt lat="44.29504" lon="5.19">
        <ele>412</ele>
        <time>2022-07-19T09:37:32Z</time>
      </trkpt>
      <trkpt lat="44.29506" lon="5.19">
        <ele>412.1</ele>
        <time>2022-07-19T09:37:33Z</time>
      </trkpt>
      <trkpt lat="44.29509" lon="5.19001">
        <ele>412.2</ele>
        <time>2022-07-19T09:37:34Z</time>
      </trkpt>
      <trkpt lat="44.2951" lon="5.19001">
        <ele>412.3</ele>
        <time>2022-07-19T09:37:35Z</time>
      </trkpt>
      <trkpt lat="44.29513" lon="5.19003">
        <ele>412.4</ele>
        <time>2022-07-19T09:37:36Z</time>
      </trkpt>
      <trkpt lat="44.29515" lon="5.19003">
        <ele>412.4</ele>
        <time>2022-07-19T09:37:37Z</time>
      </trkpt>
      <trkpt lat="44.29518" lon="5.19004">
        <ele>412.6</ele>
        <time>2022-07-19T09:37:38Z</time>
      </trkpt>
      <trkpt lat="44.29519" lon="5.19005">
        <ele>412.6</ele>
        <time>2022-07-19T09:37:39Z</time>
      </trkpt>
      <trkpt lat="44.29523" lon="5.19006">
        <ele>412.7</ele>
        <time>2022-07-19T09:37:40Z</time>
      </trkpt>
      <trkpt lat="44.29524" lon="5.19006">
        <ele>412.8</ele>
        <time>2022-07-19T09:37:41Z</time>
      </trkpt>
      <trkpt lat="44.29527" lon="5.19006">
        <ele>412.9</ele>
        <time>2022-07-19T09:37:42Z</time>
      </trkpt>
      <trkpt lat="44.29528" lon="5.19006">
        <ele>412.9</ele>
        <time>2022-07-19T09:37:43Z</time>
      </trkpt>
      <trkpt lat="44.29531" lon="5.19006">
        <ele>413</ele>
        <time>2022-07-19T09:37:44Z</time>
      </trkpt>
      <trkpt lat="44.29532" lon="5.19005">
        <ele>413</ele>
        <time>2022-07-19T09:37:45Z</time>
      </trkpt>
      <trkpt lat="44.29535" lon="5.19005">
        <ele>413.1</ele>
        <time>2022-07-19T09:37:46Z</time>
      </trkpt>
      <trkpt lat="44.29536" lon="5.19005">
        <ele>413.1</ele>
        <time>2022-07-19T09:37:47Z</time>
      </trkpt>
      <trkpt lat="44.29538" lon="5.19005">
        <ele>413.2</ele>
        <time>2022-07-19T09:37:48Z</time>
      </trkpt>
      <trkpt lat="44.29539" lon="5.19006">
        <ele>413.2</ele>
        <time>2022-07-19T09:37:49Z</time>
      </trkpt>
      <trkpt lat="44.29542" lon="5.19008">
        <ele>413.3</ele>
        <time>2022-07-19T09:37:50Z</time>
      </trkpt>
      <trkpt lat="44.29543" lon="5.19009">
        <ele>413.4</ele>
        <time>2022-07-19T09:37:51Z</time>
      </trkpt>
      <trkpt lat="44.29545" lon="5.19009">
        <ele>413.4</ele>
        <time>2022-07-19T09:37:52Z</time>
      </trkpt>
      <trkpt lat="44.29546" lon="5.19009">
        <ele>413.5</ele>
        <time>2022-07-19T09:37:53Z</time>
      </trkpt>
      <trkpt lat="44.29549" lon="5.19008">
        <ele>413.6</ele>
        <time>2022-07-19T09:37:54Z</time>
      </trkpt>
      <trkpt lat="44.2955" lon="5.19008">
        <ele>413.6</ele>
        <time>2022-07-19T09:37:55Z</time>
      </trkpt>
      <trkpt lat="44.29553" lon="5.19007">
        <ele>413.7</ele>
        <time>2022-07-19T09:37:56Z</time>
      </trkpt>
      <trkpt lat="44.29554" lon="5.19007">
        <ele>413.7</ele>
        <time>2022-07-19T09:37:57Z</time>
      </trkpt>
      <trkpt lat="44.29558" lon="5.19005">
        <ele>413.9</ele>
        <time>2022-07-19T09:37:58Z</time>
      </trkpt>
      <trkpt lat="44.29559" lon="5.19005">
        <ele>413.9</ele>
        <time>2022-07-19T09:37:59Z</time>
      </trkpt>
      <trkpt lat="44.29562" lon="5.19004">
        <ele>414</ele>
        <time>2022-07-19T09:38:00Z</time>
      </trkpt>
      <trkpt lat="44.29563" lon="5.19003">
        <ele>414.1</ele>
        <time>2022-07-19T09:38:01Z</time>
      </trkpt>
      <trkpt lat="44.29567" lon="5.19001">
        <ele>414.2</ele>
        <time>2022-07-19T09:38:02Z</time>
      </trkpt>
      <trkpt lat="44.29569" lon="5.19001">
        <ele>414.3</ele>
        <time>2022-07-19T09:38:03Z</time>
      </trkpt>
      <trkpt lat="44.29571" lon="5.19">
        <ele>414.4</ele>
        <time>2022-07-19T09:38:04Z</time>
      </trkpt>
      <trkpt lat="44.29574" lon="5.18999">
        <ele>414.4</ele>
        <time>2022-07-19T09:38:05Z</time>
      </trkpt>
      <trkpt lat="44.29577" lon="5.18997">
        <ele>414.5</ele>
        <time>2022-07-19T09:38:06Z</time>
      </trkpt>
      <trkpt lat="44.2958" lon="5.18996">
        <ele>414.6</ele>
        <time>2022-07-19T09:38:07Z</time>
      </trkpt>
      <trkpt lat="44.29582" lon="5.18995">
        <ele>414.6</ele>
        <time>2022-07-19T09:38:08Z</time>
      </trkpt>
      <trkpt lat="44.29586" lon="5.18993">
        <ele>414.7</ele>
        <time>2022-07-19T09:38:09Z</time>
      </trkpt>
      <trkpt lat="44.29588" lon="5.18992">
        <ele>414.8</ele>
        <time>2022-07-19T09:38:10Z</time>
      </trkpt>
      <trkpt lat="44.2959" lon="5.18991">
        <ele>414.8</ele>
        <time>2022-07-19T09:38:11Z</time>
      </trkpt>
      <trkpt lat="44.29593" lon="5.18989">
        <ele>414.9</ele>
        <time>2022-07-19T09:38:12Z</time>
      </trkpt>
      <trkpt lat="44.29597" lon="5.18988">
        <ele>415</ele>
        <time>2022-07-19T09:38:13Z</time>
      </trkpt>
      <trkpt lat="44.29598" lon="5.18987">
        <ele>415</ele>
        <time>2022-07-19T09:38:14Z</time>
      </trkpt>
      <trkpt lat="44.29601" lon="5.18985">
        <ele>415.1</ele>
        <time>2022-07-19T09:38:15Z</time>
      </trkpt>
      <trkpt lat="44.29603" lon="5.18984">
        <ele>415.1</ele>
        <time>2022-07-19T09:38:16Z</time>
      </trkpt>
      <trkpt lat="44.29605" lon="5.18982">
        <ele>415.2</ele>
        <time>2022-07-19T09:38:17Z</time>
      </trkpt>
      <trkpt lat="44.29608" lon="5.1898">
        <ele>415.3</ele>
        <time>2022-07-19T09:38:18Z</time>
      </trkpt>
      <trkpt lat="44.2961" lon="5.18978">
        <ele>415.3</ele>
        <time>2022-07-19T09:38:19Z</time>
      </trkpt>
      <trkpt lat="44.29613" lon="5.18976">
        <ele>415.4</ele>
        <time>2022-07-19T09:38:20Z</time>
      </trkpt>
      <trkpt lat="44.29616" lon="5.18974">
        <ele>415.5</ele>
        <time>2022-07-19T09:38:21Z</time>
      </trkpt>
      <trkpt lat="44.29619" lon="5.18973">
        <ele>415.6</ele>
        <time>2022-07-19T09:38:22Z</time>
      </trkpt>
      <trkpt lat="44.29622" lon="5.18971">
        <ele>415.7</ele>
        <time>2022-07-19T09:38:23Z</time>
      </trkpt>
      <trkpt lat="44.29625" lon="5.1897">
        <ele>415.8</ele>
        <time>2022-07-19T09:38:24Z</time>
      </trkpt>
      <trkpt lat="44.29628" lon="5.18969">
        <ele>415.9</ele>
        <time>2022-07-19T09:38:25Z</time>
      </trkpt>
      <trkpt lat="44.29631" lon="5.18967">
        <ele>416</ele>
        <time>2022-07-19T09:38:26Z</time>
      </trkpt>
      <trkpt lat="44.29634" lon="5.18966">
        <ele>416.1</ele>
        <time>2022-07-19T09:38:27Z</time>
      </trkpt>
      <trkpt lat="44.29637" lon="5.18965">
        <ele>416.2</ele>
        <time>2022-07-19T09:38:28Z</time>
      </trkpt>
      <trkpt lat="44.29641" lon="5.18962">
        <ele>416.4</ele>
        <time>2022-07-19T09:38:29Z</time>
      </trkpt>
      <trkpt lat="44.29642" lon="5.18962">
        <ele>416.4</ele>
        <time>2022-07-19T09:38:30Z</time>
      </trkpt>
      <trkpt lat="44.29644" lon="5.1896">
        <ele>416.5</ele>
        <time>2022-07-19T09:38:31Z</time>
      </trkpt>
      <trkpt lat="44.29647" lon="5.18958">
        <ele>416.6</ele>
        <time>2022-07-19T09:38:32Z</time>
      </trkpt>
      <trkpt lat="44.2965" lon="5.18957">
        <ele>416.8</ele>
        <time>2022-07-19T09:38:33Z</time>
      </trkpt>
      <trkpt lat="44.29652" lon="5.18955">
        <ele>416.9</ele>
        <time>2022-07-19T09:38:34Z</time>
      </trkpt>
      <trkpt lat="44.29655" lon="5.18954">
        <ele>417</ele>
        <time>2022-07-19T09:38:35Z</time>
      </trkpt>
      <trkpt lat="44.29658" lon="5.18952">
        <ele>417.1</ele>
        <time>2022-07-19T09:38:36Z</time>
      </trkpt>
      <trkpt lat="44.2966" lon="5.18951">
        <ele>417.2</ele>
        <time>2022-07-19T09:38:37Z</time>
      </trkpt>
      <trkpt lat="44.29663" lon="5.18949">
        <ele>417.3</ele>
        <time>2022-07-19T09:38:38Z</time>
      </trkpt>
      <trkpt lat="44.29667" lon="5.18946">
        <ele>417.4</ele>
        <time>2022-07-19T09:38:39Z</time>
      </trkpt>
      <trkpt lat="44.29668" lon="5.18945">
        <ele>417.4</ele>
        <time>2022-07-19T09:38:40Z</time>
      </trkpt>
      <trkpt lat="44.29671" lon="5.18943">
        <ele>417.5</ele>
        <time>2022-07-19T09:38:41Z</time>
      </trkpt>
      <trkpt lat="44.29673" lon="5.18941">
        <ele>417.6</ele>
        <time>2022-07-19T09:38:42Z</time>
      </trkpt>
      <trkpt lat="44.29676" lon="5.1894">
        <ele>417.7</ele>
        <time>2022-07-19T09:38:43Z</time>
      </trkpt>
      <trkpt lat="44.29679" lon="5.18938">
        <ele>417.8</ele>
        <time>2022-07-19T09:38:44Z</time>
      </trkpt>
      <trkpt lat="44.29682" lon="5.18935">
        <ele>417.9</ele>
        <time>2022-07-19T09:38:45Z</time>
      </trkpt>
      <trkpt lat="44.29683" lon="5.18934">
        <ele>418</ele>
        <time>2022-07-19T09:38:46Z</time>
      </trkpt>
      <trkpt lat="44.29687" lon="5.18932">
        <ele>418.1</ele>
        <time>2022-07-19T09:38:47Z</time>
      </trkpt>
      <trkpt lat="44.29688" lon="5.18931">
        <ele>418.2</ele>
        <time>2022-07-19T09:38:48Z</time>
      </trkpt>
      <trkpt lat="44.2969" lon="5.18929">
        <ele>418.2</ele>
        <time>2022-07-19T09:38:49Z</time>
      </trkpt>
      <trkpt lat="44.29693" lon="5.18927">
        <ele>418.3</ele>
        <time>2022-07-19T09:38:50Z</time>
      </trkpt>
      <trkpt lat="44.29696" lon="5.18924">
        <ele>418.4</ele>
        <time>2022-07-19T09:38:51Z</time>
      </trkpt>
      <trkpt lat="44.29697" lon="5.18924">
        <ele>418.5</ele>
        <time>2022-07-19T09:38:52Z</time>
      </trkpt>
      <trkpt lat="44.297" lon="5.18921">
        <ele>418.6</ele>
        <time>2022-07-19T09:38:53Z</time>
      </trkpt>
      <trkpt lat="44.29701" lon="5.1892">
        <ele>418.6</ele>
        <time>2022-07-19T09:38:54Z</time>
      </trkpt>
      <trkpt lat="44.29704" lon="5.18919">
        <ele>418.7</ele>
        <time>2022-07-19T09:38:55Z</time>
      </trkpt>
      <trkpt lat="44.29706" lon="5.18917">
        <ele>418.8</ele>
        <time>2022-07-19T09:38:56Z</time>
      </trkpt>
      <trkpt lat="44.2971" lon="5.18915">
        <ele>418.9</ele>
        <time>2022-07-19T09:38:57Z</time>
      </trkpt>
      <trkpt lat="44.29711" lon="5.18914">
        <ele>419</ele>
        <time>2022-07-19T09:38:58Z</time>
      </trkpt>
      <trkpt lat="44.29714" lon="5.18913">
        <ele>419.1</ele>
        <time>2022-07-19T09:38:59Z</time>
      </trkpt>
      <trkpt lat="44.29715" lon="5.18912">
        <ele>419.1</ele>
        <time>2022-07-19T09:39:00Z</time>
      </trkpt>
      <trkpt lat="44.29718" lon="5.18911">
        <ele>419.3</ele>
        <time>2022-07-19T09:39:01Z</time>
      </trkpt>
      <trkpt lat="44.29719" lon="5.18911">
        <ele>419.3</ele>
        <time>2022-07-19T09:39:02Z</time>
      </trkpt>
      <trkpt lat="44.29723" lon="5.18909">
        <ele>419.4</ele>
        <time>2022-07-19T09:39:03Z</time>
      </trkpt>
      <trkpt lat="44.29724" lon="5.18909">
        <ele>419.5</ele>
        <time>2022-07-19T09:39:04Z</time>
      </trkpt>
      <trkpt lat="44.29728" lon="5.18907">
        <ele>419.6</ele>
        <time>2022-07-19T09:39:05Z</time>
      </trkpt>
      <trkpt lat="44.29729" lon="5.18906">
        <ele>419.6</ele>
        <time>2022-07-19T09:39:06Z</time>
      </trkpt>
      <trkpt lat="44.29732" lon="5.18904">
        <ele>419.7</ele>
        <time>2022-07-19T09:39:07Z</time>
      </trkpt>
      <trkpt lat="44.29733" lon="5.18903">
        <ele>419.8</ele>
        <time>2022-07-19T09:39:08Z</time>
      </trkpt>
      <trkpt lat="44.29736" lon="5.189">
        <ele>419.9</ele>
        <time>2022-07-19T09:39:09Z</time>
      </trkpt>
      <trkpt lat="44.29737" lon="5.18899">
        <ele>419.9</ele>
        <time>2022-07-19T09:39:10Z</time>
      </trkpt>
      <trkpt lat="44.29741" lon="5.18898">
        <ele>420.1</ele>
        <time>2022-07-19T09:39:11Z</time>
      </trkpt>
      <trkpt lat="44.29742" lon="5.18898">
        <ele>420.1</ele>
        <time>2022-07-19T09:39:12Z</time>
      </trkpt>
      <trkpt lat="44.29745" lon="5.18899">
        <ele>420.2</ele>
        <time>2022-07-19T09:39:13Z</time>
      </trkpt>
      <trkpt lat="44.29746" lon="5.18899">
        <ele>420.3</ele>
        <time>2022-07-19T09:39:14Z</time>
      </trkpt>
      <trkpt lat="44.2975" lon="5.18901">
        <ele>420.4</ele>
        <time>2022-07-19T09:39:15Z</time>
      </trkpt>
      <trkpt lat="44.29751" lon="5.18902">
        <ele>420.4</ele>
        <time>2022-07-19T09:39:16Z</time>
      </trkpt>
      <trkpt lat="44.29754" lon="5.18904">
        <ele>420.5</ele>
        <time>2022-07-19T09:39:17Z</time>
      </trkpt>
      <trkpt lat="44.29756" lon="5.18904">
        <ele>420.6</ele>
        <time>2022-07-19T09:39:18Z</time>
      </trkpt>
      <trkpt lat="44.29759" lon="5.18906">
        <ele>420.7</ele>
        <time>2022-07-19T09:39:19Z</time>
      </trkpt>
      <trkpt lat="44.29761" lon="5.18906">
        <ele>420.8</ele>
        <time>2022-07-19T09:39:20Z</time>
      </trkpt>
      <trkpt lat="44.29764" lon="5.18908">
        <ele>420.9</ele>
        <time>2022-07-19T09:39:21Z</time>
      </trkpt>
      <trkpt lat="44.29765" lon="5.18909">
        <ele>420.9</ele>
        <time>2022-07-19T09:39:22Z</time>
      </trkpt>
      <trkpt lat="44.29767" lon="5.1891">
        <ele>421</ele>
        <time>2022-07-19T09:39:23Z</time>
      </trkpt>
      <trkpt lat="44.29768" lon="5.18911">
        <ele>421.1</ele>
        <time>2022-07-19T09:39:24Z</time>
      </trkpt>
      <trkpt lat="44.29771" lon="5.18912">
        <ele>421.2</ele>
        <time>2022-07-19T09:39:25Z</time>
      </trkpt>
      <trkpt lat="44.29772" lon="5.18912">
        <ele>421.2</ele>
        <time>2022-07-19T09:39:26Z</time>
      </trkpt>
      <trkpt lat="44.29775" lon="5.18913">
        <ele>421.4</ele>
        <time>2022-07-19T09:39:27Z</time>
      </trkpt>
      <trkpt lat="44.29776" lon="5.18913">
        <ele>421.4</ele>
        <time>2022-07-19T09:39:28Z</time>
      </trkpt>
      <trkpt lat="44.29779" lon="5.18913">
        <ele>421.5</ele>
        <time>2022-07-19T09:39:29Z</time>
      </trkpt>
      <trkpt lat="44.2978" lon="5.18912">
        <ele>421.6</ele>
        <time>2022-07-19T09:39:30Z</time>
      </trkpt>
      <trkpt lat="44.29783" lon="5.18911">
        <ele>421.7</ele>
        <time>2022-07-19T09:39:31Z</time>
      </trkpt>
      <trkpt lat="44.29784" lon="5.1891">
        <ele>421.8</ele>
        <time>2022-07-19T09:39:32Z</time>
      </trkpt>
      <trkpt lat="44.29787" lon="5.18908">
        <ele>421.8</ele>
        <time>2022-07-19T09:39:33Z</time>
      </trkpt>
      <trkpt lat="44.29789" lon="5.18906">
        <ele>421.9</ele>
        <time>2022-07-19T09:39:34Z</time>
      </trkpt>
      <trkpt lat="44.29792" lon="5.18904">
        <ele>422</ele>
        <time>2022-07-19T09:39:35Z</time>
      </trkpt>
      <trkpt lat="44.29793" lon="5.18904">
        <ele>422</ele>
        <time>2022-07-19T09:39:36Z</time>
      </trkpt>
      <trkpt lat="44.29795" lon="5.18902">
        <ele>422.1</ele>
        <time>2022-07-19T09:39:37Z</time>
      </trkpt>
      <trkpt lat="44.29798" lon="5.18899">
        <ele>422.2</ele>
        <time>2022-07-19T09:39:38Z</time>
      </trkpt>
      <trkpt lat="44.29801" lon="5.18896">
        <ele>422.4</ele>
        <time>2022-07-19T09:39:39Z</time>
      </trkpt>
      <trkpt lat="44.29804" lon="5.18894">
        <ele>422.5</ele>
        <time>2022-07-19T09:39:40Z</time>
      </trkpt>
      <trkpt lat="44.29807" lon="5.18891">
        <ele>422.6</ele>
        <time>2022-07-19T09:39:41Z</time>
      </trkpt>
      <trkpt lat="44.29809" lon="5.1889">
        <ele>422.7</ele>
        <time>2022-07-19T09:39:42Z</time>
      </trkpt>
      <trkpt lat="44.29812" lon="5.18887">
        <ele>422.9</ele>
        <time>2022-07-19T09:39:43Z</time>
      </trkpt>
      <trkpt lat="44.29813" lon="5.18886">
        <ele>422.9</ele>
        <time>2022-07-19T09:39:44Z</time>
      </trkpt>
      <trkpt lat="44.29815" lon="5.18884">
        <ele>423.1</ele>
        <time>2022-07-19T09:39:45Z</time>
      </trkpt>
      <trkpt lat="44.29816" lon="5.18884">
        <ele>423.1</ele>
        <time>2022-07-19T09:39:46Z</time>
      </trkpt>
      <trkpt lat="44.29819" lon="5.18883">
        <ele>423.2</ele>
        <time>2022-07-19T09:39:47Z</time>
      </trkpt>
      <trkpt lat="44.2982" lon="5.18883">
        <ele>423.3</ele>
        <time>2022-07-19T09:39:48Z</time>
      </trkpt>
      <trkpt lat="44.29823" lon="5.18881">
        <ele>423.5</ele>
        <time>2022-07-19T09:39:49Z</time>
      </trkpt>
      <trkpt lat="44.29825" lon="5.1888">
        <ele>423.5</ele>
        <time>2022-07-19T09:39:50Z</time>
      </trkpt>
      <trkpt lat="44.29828" lon="5.18878">
        <ele>423.7</ele>
        <time>2022-07-19T09:39:51Z</time>
      </trkpt>
      <trkpt lat="44.29829" lon="5.18877">
        <ele>423.7</ele>
        <time>2022-07-19T09:39:52Z</time>
      </trkpt>
      <trkpt lat="44.29832" lon="5.18875">
        <ele>423.9</ele>
        <time>2022-07-19T09:39:53Z</time>
      </trkpt>
      <trkpt lat="44.29834" lon="5.18874">
        <ele>424</ele>
        <time>2022-07-19T09:39:54Z</time>
      </trkpt>
      <trkpt lat="44.29837" lon="5.18872">
        <ele>424.2</ele>
        <time>2022-07-19T09:39:55Z</time>
      </trkpt>
      <trkpt lat="44.29838" lon="5.18871">
        <ele>424.2</ele>
        <time>2022-07-19T09:39:56Z</time>
      </trkpt>
      <trkpt lat="44.2984" lon="5.18868">
        <ele>424.4</ele>
        <time>2022-07-19T09:39:57Z</time>
      </trkpt>
      <trkpt lat="44.29842" lon="5.18866">
        <ele>424.5</ele>
        <time>2022-07-19T09:39:58Z</time>
      </trkpt>
      <trkpt lat="44.29845" lon="5.18862">
        <ele>424.6</ele>
        <time>2022-07-19T09:39:59Z</time>
      </trkpt>
      <trkpt lat="44.29846" lon="5.18861">
        <ele>424.7</ele>
        <time>2022-07-19T09:40:00Z</time>
      </trkpt>
      <trkpt lat="44.29848" lon="5.18857">
        <ele>424.8</ele>
        <time>2022-07-19T09:40:01Z</time>
      </trkpt>
      <trkpt lat="44.29849" lon="5.18856">
        <ele>424.8</ele>
        <time>2022-07-19T09:40:02Z</time>
      </trkpt>
      <trkpt lat="44.29852" lon="5.18853">
        <ele>425</ele>
        <time>2022-07-19T09:40:03Z</time>
      </trkpt>
      <trkpt lat="44.29853" lon="5.18852">
        <ele>425</ele>
        <time>2022-07-19T09:40:04Z</time>
      </trkpt>
      <trkpt lat="44.29856" lon="5.1885">
        <ele>425.1</ele>
        <time>2022-07-19T09:40:05Z</time>
      </trkpt>
      <trkpt lat="44.29857" lon="5.18849">
        <ele>425.1</ele>
        <time>2022-07-19T09:40:06Z</time>
      </trkpt>
      <trkpt lat="44.29861" lon="5.18848">
        <ele>425.2</ele>
        <time>2022-07-19T09:40:07Z</time>
      </trkpt>
      <trkpt lat="44.29862" lon="5.18848">
        <ele>425.3</ele>
        <time>2022-07-19T09:40:08Z</time>
      </trkpt>
      <trkpt lat="44.29865" lon="5.18848">
        <ele>425.4</ele>
        <time>2022-07-19T09:40:09Z</time>
      </trkpt>
      <trkpt lat="44.29868" lon="5.18846">
        <ele>425.4</ele>
        <time>2022-07-19T09:40:10Z</time>
      </trkpt>
      <trkpt lat="44.2987" lon="5.18844">
        <ele>425.5</ele>
        <time>2022-07-19T09:40:11Z</time>
      </trkpt>
      <trkpt lat="44.29872" lon="5.18841">
        <ele>425.6</ele>
        <time>2022-07-19T09:40:12Z</time>
      </trkpt>
      <trkpt lat="44.29875" lon="5.18838">
        <ele>425.6</ele>
        <time>2022-07-19T09:40:13Z</time>
      </trkpt>
      <trkpt lat="44.29877" lon="5.18836">
        <ele>425.7</ele>
        <time>2022-07-19T09:40:14Z</time>
      </trkpt>
      <trkpt lat="44.2988" lon="5.18833">
        <ele>425.8</ele>
        <time>2022-07-19T09:40:15Z</time>
      </trkpt>
      <trkpt lat="44.29883" lon="5.1883">
        <ele>425.8</ele>
        <time>2022-07-19T09:40:16Z</time>
      </trkpt>
      <trkpt lat="44.29887" lon="5.18828">
        <ele>425.9</ele>
        <time>2022-07-19T09:40:17Z</time>
      </trkpt>
      <trkpt lat="44.2989" lon="5.18826">
        <ele>425.9</ele>
        <time>2022-07-19T09:40:18Z</time>
      </trkpt>
      <trkpt lat="44.29893" lon="5.18824">
        <ele>426</ele>
        <time>2022-07-19T09:40:19Z</time>
      </trkpt>
      <trkpt lat="44.29897" lon="5.18822">
        <ele>426</ele>
        <time>2022-07-19T09:40:20Z</time>
      </trkpt>
      <trkpt lat="44.29901" lon="5.1882">
        <ele>426</ele>
        <time>2022-07-19T09:40:21Z</time>
      </trkpt>
      <trkpt lat="44.29905" lon="5.18818">
        <ele>426.1</ele>
        <time>2022-07-19T09:40:22Z</time>
      </trkpt>
      <trkpt lat="44.29908" lon="5.18817">
        <ele>426.1</ele>
        <time>2022-07-19T09:40:23Z</time>
      </trkpt>
      <trkpt lat="44.29912" lon="5.18815">
        <ele>426.1</ele>
        <time>2022-07-19T09:40:24Z</time>
      </trkpt>
      <trkpt lat="44.29916" lon="5.18813">
        <ele>426.1</ele>
        <time>2022-07-19T09:40:25Z</time>
      </trkpt>
      <trkpt lat="44.29919" lon="5.18812">
        <ele>426.1</ele>
        <time>2022-07-19T09:40:26Z</time>
      </trkpt>
      <trkpt lat="44.29923" lon="5.18811">
        <ele>426.1</ele>
        <time>2022-07-19T09:40:27Z</time>
      </trkpt>
      <trkpt lat="44.29927" lon="5.18809">
        <ele>426.2</ele>
        <time>2022-07-19T09:40:28Z</time>
      </trkpt>
      <trkpt lat="44.29931" lon="5.18809">
        <ele>426.2</ele>
        <time>2022-07-19T09:40:29Z</time>
      </trkpt>
      <trkpt lat="44.29935" lon="5.18807">
        <ele>426.2</ele>
        <time>2022-07-19T09:40:30Z</time>
      </trkpt>
      <trkpt lat="44.2994" lon="5.18806">
        <ele>426.2</ele>
        <time>2022-07-19T09:40:31Z</time>
      </trkpt>
      <trkpt lat="44.29944" lon="5.18803">
        <ele>426.3</ele>
        <time>2022-07-19T09:40:32Z</time>
      </trkpt>
      <trkpt lat="44.29948" lon="5.18801">
        <ele>426.3</ele>
        <time>2022-07-19T09:40:33Z</time>
      </trkpt>
      <trkpt lat="44.29951" lon="5.18798">
        <ele>426.4</ele>
        <time>2022-07-19T09:40:34Z</time>
      </trkpt>
      <trkpt lat="44.29955" lon="5.18795">
        <ele>426.4</ele>
        <time>2022-07-19T09:40:35Z</time>
      </trkpt>
      <trkpt lat="44.29958" lon="5.18792">
        <ele>426.4</ele>
        <time>2022-07-19T09:40:36Z</time>
      </trkpt>
      <trkpt lat="44.29961" lon="5.18789">
        <ele>426.5</ele>
        <time>2022-07-19T09:40:37Z</time>
      </trkpt>
      <trkpt lat="44.29964" lon="5.18785">
        <ele>426.5</ele>
        <time>2022-07-19T09:40:38Z</time>
      </trkpt>
      <trkpt lat="44.29967" lon="5.18781">
        <ele>426.6</ele>
        <time>2022-07-19T09:40:39Z</time>
      </trkpt>
      <trkpt lat="44.2997" lon="5.18777">
        <ele>426.6</ele>
        <time>2022-07-19T09:40:40Z</time>
      </trkpt>
      <trkpt lat="44.29972" lon="5.18773">
        <ele>426.6</ele>
        <time>2022-07-19T09:40:41Z</time>
      </trkpt>
      <trkpt lat="44.29974" lon="5.18769">
        <ele>426.7</ele>
        <time>2022-07-19T09:40:42Z</time>
      </trkpt>
      <trkpt lat="44.29976" lon="5.18764">
        <ele>426.7</ele>
        <time>2022-07-19T09:40:43Z</time>
      </trkpt>
      <trkpt lat="44.29977" lon="5.18757">
        <ele>426.7</ele>
        <time>2022-07-19T09:40:44Z</time>
      </trkpt>
      <trkpt lat="44.29978" lon="5.1875">
        <ele>426.8</ele>
        <time>2022-07-19T09:40:45Z</time>
      </trkpt>
      <trkpt lat="44.29979" lon="5.18742">
        <ele>426.8</ele>
        <time>2022-07-19T09:40:46Z</time>
      </trkpt>
      <trkpt lat="44.2998" lon="5.18735">
        <ele>426.8</ele>
        <time>2022-07-19T09:40:47Z</time>
      </trkpt>
      <trkpt lat="44.29981" lon="5.18728">
        <ele>426.8</ele>
        <time>2022-07-19T09:40:48Z</time>
      </trkpt>
      <trkpt lat="44.29982" lon="5.18721">
        <ele>426.8</ele>
        <time>2022-07-19T09:40:49Z</time>
      </trkpt>
      <trkpt lat="44.29983" lon="5.18714">
        <ele>426.9</ele>
        <time>2022-07-19T09:40:50Z</time>
      </trkpt>
      <trkpt lat="44.29984" lon="5.18708">
        <ele>426.9</ele>
        <time>2022-07-19T09:40:51Z</time>
      </trkpt>
      <trkpt lat="44.29986" lon="5.18702">
        <ele>426.9</ele>
        <time>2022-07-19T09:40:52Z</time>
      </trkpt>
      <trkpt lat="44.29988" lon="5.18696">
        <ele>427</ele>
        <time>2022-07-19T09:40:53Z</time>
      </trkpt>
      <trkpt lat="44.2999" lon="5.18691">
        <ele>427</ele>
        <time>2022-07-19T09:40:54Z</time>
      </trkpt>
      <trkpt lat="44.29993" lon="5.18686">
        <ele>427.1</ele>
        <time>2022-07-19T09:40:55Z</time>
      </trkpt>
      <trkpt lat="44.29995" lon="5.18681">
        <ele>427.2</ele>
        <time>2022-07-19T09:40:56Z</time>
      </trkpt>
      <trkpt lat="44.29997" lon="5.18676">
        <ele>427.3</ele>
        <time>2022-07-19T09:40:57Z</time>
      </trkpt>
      <trkpt lat="44.29998" lon="5.18671">
        <ele>427.4</ele>
        <time>2022-07-19T09:40:58Z</time>
      </trkpt>
      <trkpt lat="44.29999" lon="5.18666">
        <ele>427.5</ele>
        <time>2022-07-19T09:40:59Z</time>
      </trkpt>
      <trkpt lat="44.29999" lon="5.18665">
        <ele>427.6</ele>
        <time>2022-07-19T09:41:00Z</time>
      </trkpt>
      <trkpt lat="44.29999" lon="5.18661">
        <ele>427.7</ele>
        <time>2022-07-19T09:41:01Z</time>
      </trkpt>
      <trkpt lat="44.29999" lon="5.18655">
        <ele>427.8</ele>
        <time>2022-07-19T09:41:02Z</time>
      </trkpt>
      <trkpt lat="44.29999" lon="5.1865">
        <ele>428</ele>
        <time>2022-07-19T09:41:03Z</time>
      </trkpt>
      <trkpt lat="44.29999" lon="5.18645">
        <ele>428.1</ele>
        <time>2022-07-19T09:41:04Z</time>
      </trkpt>
      <trkpt lat="44.29998" lon="5.1864">
        <ele>428.3</ele>
        <time>2022-07-19T09:41:05Z</time>
      </trkpt>
      <trkpt lat="44.29998" lon="5.18635">
        <ele>428.4</ele>
        <time>2022-07-19T09:41:06Z</time>
      </trkpt>
      <trkpt lat="44.29998" lon="5.1863">
        <ele>428.5</ele>
        <time>2022-07-19T09:41:07Z</time>
      </trkpt>
      <trkpt lat="44.29998" lon="5.18624">
        <ele>428.7</ele>
        <time>2022-07-19T09:41:08Z</time>
      </trkpt>
      <trkpt lat="44.29997" lon="5.18619">
        <ele>428.8</ele>
        <time>2022-07-19T09:41:09Z</time>
      </trkpt>
      <trkpt lat="44.29998" lon="5.18614">
        <ele>429</ele>
        <time>2022-07-19T09:41:10Z</time>
      </trkpt>
      <trkpt lat="44.29999" lon="5.1861">
        <ele>429.1</ele>
        <time>2022-07-19T09:41:11Z</time>
      </trkpt>
      <trkpt lat="44.30001" lon="5.18605">
        <ele>429.2</ele>
        <time>2022-07-19T09:41:12Z</time>
      </trkpt>
      <trkpt lat="44.30003" lon="5.18602">
        <ele>429.3</ele>
        <time>2022-07-19T09:41:13Z</time>
      </trkpt>
      <trkpt lat="44.30005" lon="5.18598">
        <ele>429.4</ele>
        <time>2022-07-19T09:41:14Z</time>
      </trkpt>
      <trkpt lat="44.30007" lon="5.18595">
        <ele>429.5</ele>
        <time>2022-07-19T09:41:15Z</time>
      </trkpt>
      <trkpt lat="44.30009" lon="5.18592">
        <ele>429.6</ele>
        <time>2022-07-19T09:41:16Z</time>
      </trkpt>
      <trkpt lat="44.30012" lon="5.1859">
        <ele>429.7</ele>
        <time>2022-07-19T09:41:17Z</time>
      </trkpt>
      <trkpt lat="44.30015" lon="5.18588">
        <ele>429.8</ele>
        <time>2022-07-19T09:41:18Z</time>
      </trkpt>
      <trkpt lat="44.30018" lon="5.18586">
        <ele>429.8</ele>
        <time>2022-07-19T09:41:19Z</time>
      </trkpt>
      <trkpt lat="44.3002" lon="5.18586">
        <ele>429.8</ele>
        <time>2022-07-19T09:41:20Z</time>
      </trkpt>
      <trkpt lat="44.30023" lon="5.18585">
        <ele>429.8</ele>
        <time>2022-07-19T09:41:21Z</time>
      </trkpt>
      <trkpt lat="44.30026" lon="5.18583">
        <ele>429.8</ele>
        <time>2022-07-19T09:41:22Z</time>
      </trkpt>
      <trkpt lat="44.30029" lon="5.18582">
        <ele>429.8</ele>
        <time>2022-07-19T09:41:23Z</time>
      </trkpt>
      <trkpt lat="44.30032" lon="5.18581">
        <ele>429.8</ele>
        <time>2022-07-19T09:41:24Z</time>
      </trkpt>
      <trkpt lat="44.30035" lon="5.18581">
        <ele>429.8</ele>
        <time>2022-07-19T09:41:25Z</time>
      </trkpt>
      <trkpt lat="44.30039" lon="5.18581">
        <ele>429.7</ele>
        <time>2022-07-19T09:41:26Z</time>
      </trkpt>
      <trkpt lat="44.30042" lon="5.18581">
        <ele>429.7</ele>
        <time>2022-07-19T09:41:27Z</time>
      </trkpt>
      <trkpt lat="44.30045" lon="5.18582">
        <ele>429.7</ele>
        <time>2022-07-19T09:41:28Z</time>
      </trkpt>
      <trkpt lat="44.30049" lon="5.18583">
        <ele>429.7</ele>
        <time>2022-07-19T09:41:29Z</time>
      </trkpt>
      <trkpt lat="44.30053" lon="5.18585">
        <ele>429.6</ele>
        <time>2022-07-19T09:41:30Z</time>
      </trkpt>
      <trkpt lat="44.30057" lon="5.18586">
        <ele>429.6</ele>
        <time>2022-07-19T09:41:31Z</time>
      </trkpt>
      <trkpt lat="44.3006" lon="5.18587">
        <ele>429.6</ele>
        <time>2022-07-19T09:41:32Z</time>
      </trkpt>
      <trkpt lat="44.30064" lon="5.18588">
        <ele>429.6</ele>
        <time>2022-07-19T09:41:33Z</time>
      </trkpt>
      <trkpt lat="44.30068" lon="5.18589">
        <ele>429.6</ele>
        <time>2022-07-19T09:41:34Z</time>
      </trkpt>
      <trkpt lat="44.30072" lon="5.18589">
        <ele>429.6</ele>
        <time>2022-07-19T09:41:35Z</time>
      </trkpt>
      <trkpt lat="44.30076" lon="5.18589">
        <ele>429.7</ele>
        <time>2022-07-19T09:41:36Z</time>
      </trkpt>
      <trkpt lat="44.3008" lon="5.1859">
        <ele>429.7</ele>
        <time>2022-07-19T09:41:37Z</time>
      </trkpt>
      <trkpt lat="44.30084" lon="5.18591">
        <ele>429.8</ele>
        <time>2022-07-19T09:41:38Z</time>
      </trkpt>
      <trkpt lat="44.30088" lon="5.18593">
        <ele>429.8</ele>
        <time>2022-07-19T09:41:39Z</time>
      </trkpt>
      <trkpt lat="44.30091" lon="5.18594">
        <ele>429.9</ele>
        <time>2022-07-19T09:41:40Z</time>
      </trkpt>
      <trkpt lat="44.30095" lon="5.18595">
        <ele>430</ele>
        <time>2022-07-19T09:41:41Z</time>
      </trkpt>
      <trkpt lat="44.30098" lon="5.18595">
        <ele>430.1</ele>
        <time>2022-07-19T09:41:42Z</time>
      </trkpt>
      <trkpt lat="44.30102" lon="5.18595">
        <ele>430.1</ele>
        <time>2022-07-19T09:41:43Z</time>
      </trkpt>
      <trkpt lat="44.30105" lon="5.18595">
        <ele>430.2</ele>
        <time>2022-07-19T09:41:44Z</time>
      </trkpt>
      <trkpt lat="44.3011" lon="5.18594">
        <ele>430.4</ele>
        <time>2022-07-19T09:41:45Z</time>
      </trkpt>
      <trkpt lat="44.30113" lon="5.18593">
        <ele>430.5</ele>
        <time>2022-07-19T09:41:46Z</time>
      </trkpt>
      <trkpt lat="44.30117" lon="5.18592">
        <ele>430.6</ele>
        <time>2022-07-19T09:41:47Z</time>
      </trkpt>
      <trkpt lat="44.30121" lon="5.1859">
        <ele>430.7</ele>
        <time>2022-07-19T09:41:48Z</time>
      </trkpt>
      <trkpt lat="44.30124" lon="5.18588">
        <ele>430.8</ele>
        <time>2022-07-19T09:41:49Z</time>
      </trkpt>
      <trkpt lat="44.30128" lon="5.18586">
        <ele>431</ele>
        <time>2022-07-19T09:41:50Z</time>
      </trkpt>
      <trkpt lat="44.30131" lon="5.18584">
        <ele>431.1</ele>
        <time>2022-07-19T09:41:51Z</time>
      </trkpt>
      <trkpt lat="44.30133" lon="5.18582">
        <ele>431.2</ele>
        <time>2022-07-19T09:41:52Z</time>
      </trkpt>
      <trkpt lat="44.30137" lon="5.1858">
        <ele>431.3</ele>
        <time>2022-07-19T09:41:53Z</time>
      </trkpt>
      <trkpt lat="44.30138" lon="5.1858">
        <ele>431.4</ele>
        <time>2022-07-19T09:41:54Z</time>
      </trkpt>
      <trkpt lat="44.30141" lon="5.18579">
        <ele>431.5</ele>
        <time>2022-07-19T09:41:55Z</time>
      </trkpt>
      <trkpt lat="44.30142" lon="5.18579">
        <ele>431.5</ele>
        <time>2022-07-19T09:41:56Z</time>
      </trkpt>
      <trkpt lat="44.30146" lon="5.18578">
        <ele>431.7</ele>
        <time>2022-07-19T09:41:57Z</time>
      </trkpt>
      <trkpt lat="44.30147" lon="5.18577">
        <ele>431.7</ele>
        <time>2022-07-19T09:41:58Z</time>
      </trkpt>
      <trkpt lat="44.3015" lon="5.18576">
        <ele>431.8</ele>
        <time>2022-07-19T09:41:59Z</time>
      </trkpt>
      <trkpt lat="44.30153" lon="5.18574">
        <ele>432</ele>
        <time>2022-07-19T09:42:00Z</time>
      </trkpt>
      <trkpt lat="44.30156" lon="5.18572">
        <ele>432.1</ele>
        <time>2022-07-19T09:42:01Z</time>
      </trkpt>
      <trkpt lat="44.30159" lon="5.18569">
        <ele>432.2</ele>
        <time>2022-07-19T09:42:02Z</time>
      </trkpt>
      <trkpt lat="44.30161" lon="5.18566">
        <ele>432.3</ele>
        <time>2022-07-19T09:42:03Z</time>
      </trkpt>
      <trkpt lat="44.30164" lon="5.18564">
        <ele>432.4</ele>
        <time>2022-07-19T09:42:04Z</time>
      </trkpt>
      <trkpt lat="44.30167" lon="5.1856">
        <ele>432.5</ele>
        <time>2022-07-19T09:42:05Z</time>
      </trkpt>
      <trkpt lat="44.30169" lon="5.18557">
        <ele>432.6</ele>
        <time>2022-07-19T09:42:06Z</time>
      </trkpt>
      <trkpt lat="44.30172" lon="5.18553">
        <ele>432.8</ele>
        <time>2022-07-19T09:42:07Z</time>
      </trkpt>
      <trkpt lat="44.30175" lon="5.18549">
        <ele>432.9</ele>
        <time>2022-07-19T09:42:08Z</time>
      </trkpt>
      <trkpt lat="44.30178" lon="5.18545">
        <ele>433</ele>
        <time>2022-07-19T09:42:09Z</time>
      </trkpt>
      <trkpt lat="44.30181" lon="5.18542">
        <ele>433.1</ele>
        <time>2022-07-19T09:42:10Z</time>
      </trkpt>
      <trkpt lat="44.30184" lon="5.18538">
        <ele>433.2</ele>
        <time>2022-07-19T09:42:11Z</time>
      </trkpt>
      <trkpt lat="44.30187" lon="5.18535">
        <ele>433.4</ele>
        <time>2022-07-19T09:42:12Z</time>
      </trkpt>
      <trkpt lat="44.3019" lon="5.18532">
        <ele>433.5</ele>
        <time>2022-07-19T09:42:13Z</time>
      </trkpt>
      <trkpt lat="44.30193" lon="5.18529">
        <ele>433.7</ele>
        <time>2022-07-19T09:42:14Z</time>
      </trkpt>
      <trkpt lat="44.30196" lon="5.18526">
        <ele>433.8</ele>
        <time>2022-07-19T09:42:15Z</time>
      </trkpt>
      <trkpt lat="44.30199" lon="5.18523">
        <ele>434</ele>
        <time>2022-07-19T09:42:16Z</time>
      </trkpt>
      <trkpt lat="44.30202" lon="5.1852">
        <ele>434.1</ele>
        <time>2022-07-19T09:42:17Z</time>
      </trkpt>
      <trkpt lat="44.30205" lon="5.18517">
        <ele>434.3</ele>
        <time>2022-07-19T09:42:18Z</time>
      </trkpt>
      <trkpt lat="44.30207" lon="5.18515">
        <ele>434.4</ele>
        <time>2022-07-19T09:42:19Z</time>
      </trkpt>
      <trkpt lat="44.3021" lon="5.18514">
        <ele>434.5</ele>
        <time>2022-07-19T09:42:20Z</time>
      </trkpt>
      <trkpt lat="44.30213" lon="5.18512">
        <ele>434.7</ele>
        <time>2022-07-19T09:42:21Z</time>
      </trkpt>
      <trkpt lat="44.30216" lon="5.18512">
        <ele>434.7</ele>
        <time>2022-07-19T09:42:22Z</time>
      </trkpt>
      <trkpt lat="44.30219" lon="5.18512">
        <ele>434.7</ele>
        <time>2022-07-19T09:42:23Z</time>
      </trkpt>
      <trkpt lat="44.30222" lon="5.18512">
        <ele>434.7</ele>
        <time>2022-07-19T09:42:24Z</time>
      </trkpt>
      <trkpt lat="44.30225" lon="5.18512">
        <ele>434.8</ele>
        <time>2022-07-19T09:42:25Z</time>
      </trkpt>
      <trkpt lat="44.30228" lon="5.18514">
        <ele>434.8</ele>
        <time>2022-07-19T09:42:26Z</time>
      </trkpt>
      <trkpt lat="44.30232" lon="5.18515">
        <ele>434.9</ele>
        <time>2022-07-19T09:42:27Z</time>
      </trkpt>
      <trkpt lat="44.30235" lon="5.18518">
        <ele>434.9</ele>
        <time>2022-07-19T09:42:28Z</time>
      </trkpt>
      <trkpt lat="44.30238" lon="5.18521">
        <ele>434.9</ele>
        <time>2022-07-19T09:42:29Z</time>
      </trkpt>
      <trkpt lat="44.30241" lon="5.18524">
        <ele>435</ele>
        <time>2022-07-19T09:42:30Z</time>
      </trkpt>
      <trkpt lat="44.30244" lon="5.18527">
        <ele>435</ele>
        <time>2022-07-19T09:42:31Z</time>
      </trkpt>
      <trkpt lat="44.30247" lon="5.1853">
        <ele>435.1</ele>
        <time>2022-07-19T09:42:32Z</time>
      </trkpt>
      <trkpt lat="44.3025" lon="5.18534">
        <ele>435.2</ele>
        <time>2022-07-19T09:42:33Z</time>
      </trkpt>
      <trkpt lat="44.30253" lon="5.18537">
        <ele>435.2</ele>
        <time>2022-07-19T09:42:34Z</time>
      </trkpt>
      <trkpt lat="44.30256" lon="5.18541">
        <ele>435.3</ele>
        <time>2022-07-19T09:42:35Z</time>
      </trkpt>
      <trkpt lat="44.3026" lon="5.18544">
        <ele>435.4</ele>
        <time>2022-07-19T09:42:36Z</time>
      </trkpt>
      <trkpt lat="44.30263" lon="5.18547">
        <ele>435.5</ele>
        <time>2022-07-19T09:42:37Z</time>
      </trkpt>
      <trkpt lat="44.30267" lon="5.18549">
        <ele>435.6</ele>
        <time>2022-07-19T09:42:38Z</time>
      </trkpt>
      <trkpt lat="44.3027" lon="5.18551">
        <ele>435.7</ele>
        <time>2022-07-19T09:42:39Z</time>
      </trkpt>
      <trkpt lat="44.30273" lon="5.18552">
        <ele>435.7</ele>
        <time>2022-07-19T09:42:40Z</time>
      </trkpt>
      <trkpt lat="44.30276" lon="5.18552">
        <ele>435.8</ele>
        <time>2022-07-19T09:42:41Z</time>
      </trkpt>
      <trkpt lat="44.3028" lon="5.18552">
        <ele>435.9</ele>
        <time>2022-07-19T09:42:42Z</time>
      </trkpt>
      <trkpt lat="44.30283" lon="5.18552">
        <ele>436</ele>
        <time>2022-07-19T09:42:43Z</time>
      </trkpt>
      <trkpt lat="44.30286" lon="5.18551">
        <ele>436</ele>
        <time>2022-07-19T09:42:44Z</time>
      </trkpt>
      <trkpt lat="44.30289" lon="5.18551">
        <ele>436.2</ele>
        <time>2022-07-19T09:42:45Z</time>
      </trkpt>
      <trkpt lat="44.3029" lon="5.1855">
        <ele>436.2</ele>
        <time>2022-07-19T09:42:46Z</time>
      </trkpt>
      <trkpt lat="44.30293" lon="5.18548">
        <ele>436.3</ele>
        <time>2022-07-19T09:42:47Z</time>
      </trkpt>
      <trkpt lat="44.30295" lon="5.18546">
        <ele>436.4</ele>
        <time>2022-07-19T09:42:48Z</time>
      </trkpt>
      <trkpt lat="44.30298" lon="5.18542">
        <ele>436.5</ele>
        <time>2022-07-19T09:42:49Z</time>
      </trkpt>
      <trkpt lat="44.303" lon="5.1854">
        <ele>436.7</ele>
        <time>2022-07-19T09:42:50Z</time>
      </trkpt>
      <trkpt lat="44.30302" lon="5.18537">
        <ele>436.8</ele>
        <time>2022-07-19T09:42:51Z</time>
      </trkpt>
      <trkpt lat="44.30305" lon="5.18535">
        <ele>436.9</ele>
        <time>2022-07-19T09:42:52Z</time>
      </trkpt>
      <trkpt lat="44.30307" lon="5.18531">
        <ele>437</ele>
        <time>2022-07-19T09:42:53Z</time>
      </trkpt>
      <trkpt lat="44.30309" lon="5.18528">
        <ele>437.2</ele>
        <time>2022-07-19T09:42:54Z</time>
      </trkpt>
      <trkpt lat="44.30311" lon="5.18525">
        <ele>437.3</ele>
        <time>2022-07-19T09:42:55Z</time>
      </trkpt>
      <trkpt lat="44.30314" lon="5.18522">
        <ele>437.4</ele>
        <time>2022-07-19T09:42:56Z</time>
      </trkpt>
      <trkpt lat="44.30318" lon="5.18518">
        <ele>437.7</ele>
        <time>2022-07-19T09:42:58Z</time>
      </trkpt>
      <trkpt lat="44.30319" lon="5.18517">
        <ele>437.8</ele>
        <time>2022-07-19T09:42:59Z</time>
      </trkpt>
      <trkpt lat="44.30321" lon="5.18515">
        <ele>437.9</ele>
        <time>2022-07-19T09:43:00Z</time>
      </trkpt>
      <trkpt lat="44.30324" lon="5.18513">
        <ele>438</ele>
        <time>2022-07-19T09:43:01Z</time>
      </trkpt>
      <trkpt lat="44.30325" lon="5.18512">
        <ele>438.1</ele>
        <time>2022-07-19T09:43:02Z</time>
      </trkpt>
      <trkpt lat="44.30328" lon="5.18509">
        <ele>438.3</ele>
        <time>2022-07-19T09:43:03Z</time>
      </trkpt>
      <trkpt lat="44.30329" lon="5.18508">
        <ele>438.4</ele>
        <time>2022-07-19T09:43:04Z</time>
      </trkpt>
      <trkpt lat="44.3033" lon="5.18507">
        <ele>438.4</ele>
        <time>2022-07-19T09:43:05Z</time>
      </trkpt>
      <trkpt lat="44.30331" lon="5.18506">
        <ele>438.5</ele>
        <time>2022-07-19T09:43:06Z</time>
      </trkpt>
      <trkpt lat="44.30333" lon="5.18505">
        <ele>438.6</ele>
        <time>2022-07-19T09:43:07Z</time>
      </trkpt>
      <trkpt lat="44.30335" lon="5.18505">
        <ele>438.7</ele>
        <time>2022-07-19T09:43:08Z</time>
      </trkpt>
      <trkpt lat="44.30338" lon="5.18502">
        <ele>438.9</ele>
        <time>2022-07-19T09:43:09Z</time>
      </trkpt>
      <trkpt lat="44.30339" lon="5.18501">
        <ele>439</ele>
        <time>2022-07-19T09:43:10Z</time>
      </trkpt>
      <trkpt lat="44.30342" lon="5.18499">
        <ele>439.2</ele>
        <time>2022-07-19T09:43:11Z</time>
      </trkpt>
      <trkpt lat="44.30343" lon="5.18498">
        <ele>439.3</ele>
        <time>2022-07-19T09:43:12Z</time>
      </trkpt>
      <trkpt lat="44.30345" lon="5.18497">
        <ele>439.5</ele>
        <time>2022-07-19T09:43:13Z</time>
      </trkpt>
      <trkpt lat="44.30346" lon="5.18496">
        <ele>439.6</ele>
        <time>2022-07-19T09:43:14Z</time>
      </trkpt>
      <trkpt lat="44.30349" lon="5.18494">
        <ele>439.8</ele>
        <time>2022-07-19T09:43:15Z</time>
      </trkpt>
      <trkpt lat="44.3035" lon="5.18494">
        <ele>439.9</ele>
        <time>2022-07-19T09:43:16Z</time>
      </trkpt>
      <trkpt lat="44.30354" lon="5.18491">
        <ele>440.2</ele>
        <time>2022-07-19T09:43:17Z</time>
      </trkpt>
      <trkpt lat="44.30355" lon="5.1849">
        <ele>440.3</ele>
        <time>2022-07-19T09:43:18Z</time>
      </trkpt>
      <trkpt lat="44.30357" lon="5.18488">
        <ele>440.5</ele>
        <time>2022-07-19T09:43:19Z</time>
      </trkpt>
      <trkpt lat="44.30358" lon="5.18487">
        <ele>440.6</ele>
        <time>2022-07-19T09:43:20Z</time>
      </trkpt>
      <trkpt lat="44.30361" lon="5.18486">
        <ele>440.8</ele>
        <time>2022-07-19T09:43:21Z</time>
      </trkpt>
      <trkpt lat="44.30362" lon="5.18486">
        <ele>440.9</ele>
        <time>2022-07-19T09:43:22Z</time>
      </trkpt>
      <trkpt lat="44.30365" lon="5.18484">
        <ele>441.1</ele>
        <time>2022-07-19T09:43:23Z</time>
      </trkpt>
      <trkpt lat="44.30367" lon="5.18483">
        <ele>441.4</ele>
        <time>2022-07-19T09:43:24Z</time>
      </trkpt>
      <trkpt lat="44.30369" lon="5.18483">
        <ele>441.5</ele>
        <time>2022-07-19T09:43:25Z</time>
      </trkpt>
      <trkpt lat="44.3037" lon="5.18483">
        <ele>441.6</ele>
        <time>2022-07-19T09:43:26Z</time>
      </trkpt>
      <trkpt lat="44.30373" lon="5.18483">
        <ele>441.9</ele>
        <time>2022-07-19T09:43:27Z</time>
      </trkpt>
      <trkpt lat="44.30374" lon="5.18483">
        <ele>442</ele>
        <time>2022-07-19T09:43:28Z</time>
      </trkpt>
      <trkpt lat="44.30377" lon="5.18482">
        <ele>442.3</ele>
        <time>2022-07-19T09:43:29Z</time>
      </trkpt>
      <trkpt lat="44.30378" lon="5.18481">
        <ele>442.4</ele>
        <time>2022-07-19T09:43:30Z</time>
      </trkpt>
      <trkpt lat="44.30382" lon="5.18479">
        <ele>442.7</ele>
        <time>2022-07-19T09:43:31Z</time>
      </trkpt>
      <trkpt lat="44.30383" lon="5.18478">
        <ele>442.8</ele>
        <time>2022-07-19T09:43:32Z</time>
      </trkpt>
      <trkpt lat="44.30386" lon="5.18476">
        <ele>443.1</ele>
        <time>2022-07-19T09:43:33Z</time>
      </trkpt>
      <trkpt lat="44.30387" lon="5.18475">
        <ele>443.2</ele>
        <time>2022-07-19T09:43:34Z</time>
      </trkpt>
      <trkpt lat="44.30389" lon="5.18474">
        <ele>443.4</ele>
        <time>2022-07-19T09:43:35Z</time>
      </trkpt>
      <trkpt lat="44.3039" lon="5.18474">
        <ele>443.5</ele>
        <time>2022-07-19T09:43:36Z</time>
      </trkpt>
      <trkpt lat="44.30393" lon="5.18472">
        <ele>443.8</ele>
        <time>2022-07-19T09:43:37Z</time>
      </trkpt>
      <trkpt lat="44.30395" lon="5.18471">
        <ele>443.9</ele>
        <time>2022-07-19T09:43:38Z</time>
      </trkpt>
      <trkpt lat="44.30398" lon="5.18469">
        <ele>444.2</ele>
        <time>2022-07-19T09:43:39Z</time>
      </trkpt>
      <trkpt lat="44.30398" lon="5.18468">
        <ele>444.3</ele>
        <time>2022-07-19T09:43:40Z</time>
      </trkpt>
      <trkpt lat="44.30402" lon="5.18467">
        <ele>444.6</ele>
        <time>2022-07-19T09:43:41Z</time>
      </trkpt>
      <trkpt lat="44.30403" lon="5.18466">
        <ele>444.7</ele>
        <time>2022-07-19T09:43:42Z</time>
      </trkpt>
      <trkpt lat="44.30406" lon="5.18465">
        <ele>445</ele>
        <time>2022-07-19T09:43:43Z</time>
      </trkpt>
      <trkpt lat="44.30407" lon="5.18465">
        <ele>445</ele>
        <time>2022-07-19T09:43:44Z</time>
      </trkpt>
      <trkpt lat="44.3041" lon="5.18464">
        <ele>445.3</ele>
        <time>2022-07-19T09:43:45Z</time>
      </trkpt>
      <trkpt lat="44.30411" lon="5.18464">
        <ele>445.4</ele>
        <time>2022-07-19T09:43:46Z</time>
      </trkpt>
      <trkpt lat="44.30414" lon="5.18462">
        <ele>445.6</ele>
        <time>2022-07-19T09:43:47Z</time>
      </trkpt>
      <trkpt lat="44.30415" lon="5.18462">
        <ele>445.7</ele>
        <time>2022-07-19T09:43:48Z</time>
      </trkpt>
      <trkpt lat="44.30418" lon="5.1846">
        <ele>445.9</ele>
        <time>2022-07-19T09:43:49Z</time>
      </trkpt>
      <trkpt lat="44.30419" lon="5.1846">
        <ele>446</ele>
        <time>2022-07-19T09:43:50Z</time>
      </trkpt>
      <trkpt lat="44.3042" lon="5.18459">
        <ele>446.2</ele>
        <time>2022-07-19T09:43:51Z</time>
      </trkpt>
      <trkpt lat="44.30422" lon="5.18458">
        <ele>446.3</ele>
        <time>2022-07-19T09:43:52Z</time>
      </trkpt>
      <trkpt lat="44.30423" lon="5.18458">
        <ele>446.4</ele>
        <time>2022-07-19T09:43:53Z</time>
      </trkpt>
      <trkpt lat="44.30424" lon="5.18457">
        <ele>446.5</ele>
        <time>2022-07-19T09:43:54Z</time>
      </trkpt>
      <trkpt lat="44.30426" lon="5.18457">
        <ele>446.7</ele>
        <time>2022-07-19T09:43:55Z</time>
      </trkpt>
      <trkpt lat="44.30428" lon="5.18457">
        <ele>446.8</ele>
        <time>2022-07-19T09:43:56Z</time>
      </trkpt>
      <trkpt lat="44.3043" lon="5.18457">
        <ele>447</ele>
        <time>2022-07-19T09:43:57Z</time>
      </trkpt>
      <trkpt lat="44.30431" lon="5.18456">
        <ele>447.1</ele>
        <time>2022-07-19T09:43:58Z</time>
      </trkpt>
      <trkpt lat="44.30433" lon="5.18456">
        <ele>447.3</ele>
        <time>2022-07-19T09:43:59Z</time>
      </trkpt>
      <trkpt lat="44.30434" lon="5.18456">
        <ele>447.4</ele>
        <time>2022-07-19T09:44:00Z</time>
      </trkpt>
      <trkpt lat="44.30436" lon="5.18455">
        <ele>447.6</ele>
        <time>2022-07-19T09:44:01Z</time>
      </trkpt>
      <trkpt lat="44.30438" lon="5.18455">
        <ele>447.7</ele>
        <time>2022-07-19T09:44:02Z</time>
      </trkpt>
      <trkpt lat="44.3044" lon="5.18455">
        <ele>447.9</ele>
        <time>2022-07-19T09:44:03Z</time>
      </trkpt>
      <trkpt lat="44.30441" lon="5.18455">
        <ele>448</ele>
        <time>2022-07-19T09:44:04Z</time>
      </trkpt>
      <trkpt lat="44.30442" lon="5.18455">
        <ele>448.1</ele>
        <time>2022-07-19T09:44:05Z</time>
      </trkpt>
      <trkpt lat="44.30443" lon="5.18454">
        <ele>448.2</ele>
        <time>2022-07-19T09:44:06Z</time>
      </trkpt>
      <trkpt lat="44.30445" lon="5.18453">
        <ele>448.4</ele>
        <time>2022-07-19T09:44:07Z</time>
      </trkpt>
      <trkpt lat="44.30447" lon="5.18453">
        <ele>448.5</ele>
        <time>2022-07-19T09:44:08Z</time>
      </trkpt>
      <trkpt lat="44.30448" lon="5.18452">
        <ele>448.7</ele>
        <time>2022-07-19T09:44:09Z</time>
      </trkpt>
      <trkpt lat="44.3045" lon="5.18451">
        <ele>448.8</ele>
        <time>2022-07-19T09:44:10Z</time>
      </trkpt>
      <trkpt lat="44.30451" lon="5.1845">
        <ele>449</ele>
        <time>2022-07-19T09:44:11Z</time>
      </trkpt>
      <trkpt lat="44.30453" lon="5.1845">
        <ele>449.1</ele>
        <time>2022-07-19T09:44:12Z</time>
      </trkpt>
      <trkpt lat="44.30454" lon="5.18449">
        <ele>449.2</ele>
        <time>2022-07-19T09:44:13Z</time>
      </trkpt>
      <trkpt lat="44.30456" lon="5.18449">
        <ele>449.3</ele>
        <time>2022-07-19T09:44:14Z</time>
      </trkpt>
      <trkpt lat="44.30457" lon="5.18449">
        <ele>449.4</ele>
        <time>2022-07-19T09:44:15Z</time>
      </trkpt>
      <trkpt lat="44.30458" lon="5.18449">
        <ele>449.5</ele>
        <time>2022-07-19T09:44:16Z</time>
      </trkpt>
      <trkpt lat="44.3046" lon="5.18448">
        <ele>449.7</ele>
        <time>2022-07-19T09:44:17Z</time>
      </trkpt>
      <trkpt lat="44.30463" lon="5.18447">
        <ele>449.9</ele>
        <time>2022-07-19T09:44:18Z</time>
      </trkpt>
      <trkpt lat="44.30464" lon="5.18446">
        <ele>450</ele>
        <time>2022-07-19T09:44:19Z</time>
      </trkpt>
      <trkpt lat="44.30465" lon="5.18446">
        <ele>450.1</ele>
        <time>2022-07-19T09:44:20Z</time>
      </trkpt>
      <trkpt lat="44.30467" lon="5.18445">
        <ele>450.3</ele>
        <time>2022-07-19T09:44:21Z</time>
      </trkpt>
      <trkpt lat="44.3047" lon="5.18445">
        <ele>450.6</ele>
        <time>2022-07-19T09:44:22Z</time>
      </trkpt>
      <trkpt lat="44.30471" lon="5.18445">
        <ele>450.6</ele>
        <time>2022-07-19T09:44:23Z</time>
      </trkpt>
      <trkpt lat="44.30475" lon="5.18444">
        <ele>450.9</ele>
        <time>2022-07-19T09:44:24Z</time>
      </trkpt>
      <trkpt lat="44.30476" lon="5.18444">
        <ele>451</ele>
        <time>2022-07-19T09:44:25Z</time>
      </trkpt>
      <trkpt lat="44.30479" lon="5.18443">
        <ele>451.3</ele>
        <time>2022-07-19T09:44:26Z</time>
      </trkpt>
      <trkpt lat="44.30479" lon="5.18443">
        <ele>451.3</ele>
        <time>2022-07-19T09:44:27Z</time>
      </trkpt>
      <trkpt lat="44.30482" lon="5.18443">
        <ele>451.5</ele>
        <time>2022-07-19T09:44:28Z</time>
      </trkpt>
      <trkpt lat="44.30482" lon="5.18443">
        <ele>451.6</ele>
        <time>2022-07-19T09:44:29Z</time>
      </trkpt>
      <trkpt lat="44.30483" lon="5.18443">
        <ele>451.6</ele>
        <time>2022-07-19T09:44:30Z</time>
      </trkpt>
      <trkpt lat="44.30485" lon="5.18443">
        <ele>451.8</ele>
        <time>2022-07-19T09:44:31Z</time>
      </trkpt>
      <trkpt lat="44.30487" lon="5.18443">
        <ele>451.9</ele>
        <time>2022-07-19T09:44:32Z</time>
      </trkpt>
      <trkpt lat="44.3049" lon="5.18442">
        <ele>452.2</ele>
        <time>2022-07-19T09:44:33Z</time>
      </trkpt>
      <trkpt lat="44.30491" lon="5.18442">
        <ele>452.3</ele>
        <time>2022-07-19T09:44:34Z</time>
      </trkpt>
      <trkpt lat="44.30494" lon="5.18441">
        <ele>452.6</ele>
        <time>2022-07-19T09:44:35Z</time>
      </trkpt>
      <trkpt lat="44.30495" lon="5.18441">
        <ele>452.6</ele>
        <time>2022-07-19T09:44:36Z</time>
      </trkpt>
      <trkpt lat="44.30498" lon="5.1844">
        <ele>452.9</ele>
        <time>2022-07-19T09:44:37Z</time>
      </trkpt>
      <trkpt lat="44.30499" lon="5.1844">
        <ele>453</ele>
        <time>2022-07-19T09:44:38Z</time>
      </trkpt>
      <trkpt lat="44.30502" lon="5.18439">
        <ele>453.2</ele>
        <time>2022-07-19T09:44:39Z</time>
      </trkpt>
      <trkpt lat="44.30503" lon="5.18439">
        <ele>453.3</ele>
        <time>2022-07-19T09:44:40Z</time>
      </trkpt>
      <trkpt lat="44.30506" lon="5.18436">
        <ele>453.6</ele>
        <time>2022-07-19T09:44:41Z</time>
      </trkpt>
      <trkpt lat="44.30507" lon="5.18434">
        <ele>453.7</ele>
        <time>2022-07-19T09:44:42Z</time>
      </trkpt>
      <trkpt lat="44.30509" lon="5.18431">
        <ele>454</ele>
        <time>2022-07-19T09:44:43Z</time>
      </trkpt>
      <trkpt lat="44.3051" lon="5.1843">
        <ele>454.1</ele>
        <time>2022-07-19T09:44:44Z</time>
      </trkpt>
      <trkpt lat="44.30512" lon="5.18427">
        <ele>454.3</ele>
        <time>2022-07-19T09:44:45Z</time>
      </trkpt>
      <trkpt lat="44.30513" lon="5.18426">
        <ele>454.4</ele>
        <time>2022-07-19T09:44:46Z</time>
      </trkpt>
      <trkpt lat="44.30514" lon="5.18425">
        <ele>454.5</ele>
        <time>2022-07-19T09:44:47Z</time>
      </trkpt>
      <trkpt lat="44.30515" lon="5.18424">
        <ele>454.6</ele>
        <time>2022-07-19T09:44:48Z</time>
      </trkpt>
      <trkpt lat="44.30516" lon="5.18422">
        <ele>454.7</ele>
        <time>2022-07-19T09:44:49Z</time>
      </trkpt>
      <trkpt lat="44.30517" lon="5.18421">
        <ele>454.9</ele>
        <time>2022-07-19T09:44:50Z</time>
      </trkpt>
      <trkpt lat="44.30518" lon="5.18421">
        <ele>454.9</ele>
        <time>2022-07-19T09:44:51Z</time>
      </trkpt>
      <trkpt lat="44.30519" lon="5.18421">
        <ele>455</ele>
        <time>2022-07-19T09:44:52Z</time>
      </trkpt>
      <trkpt lat="44.30519" lon="5.1842">
        <ele>455</ele>
        <time>2022-07-19T09:44:53Z</time>
      </trkpt>
      <trkpt lat="44.30519" lon="5.18418">
        <ele>455.1</ele>
        <time>2022-07-19T09:44:54Z</time>
      </trkpt>
      <trkpt lat="44.3052" lon="5.18414">
        <ele>455.4</ele>
        <time>2022-07-19T09:44:55Z</time>
      </trkpt>
      <trkpt lat="44.3052" lon="5.18412">
        <ele>455.5</ele>
        <time>2022-07-19T09:44:56Z</time>
      </trkpt>
      <trkpt lat="44.3052" lon="5.18407">
        <ele>455.8</ele>
        <time>2022-07-19T09:44:57Z</time>
      </trkpt>
      <trkpt lat="44.3052" lon="5.18405">
        <ele>455.9</ele>
        <time>2022-07-19T09:44:58Z</time>
      </trkpt>
      <trkpt lat="44.30521" lon="5.18401">
        <ele>456.1</ele>
        <time>2022-07-19T09:44:59Z</time>
      </trkpt>
      <trkpt lat="44.30521" lon="5.184">
        <ele>456.2</ele>
        <time>2022-07-19T09:45:00Z</time>
      </trkpt>
      <trkpt lat="44.30521" lon="5.18398">
        <ele>456.3</ele>
        <time>2022-07-19T09:45:01Z</time>
      </trkpt>
      <trkpt lat="44.30522" lon="5.18395">
        <ele>456.5</ele>
        <time>2022-07-19T09:45:02Z</time>
      </trkpt>
      <trkpt lat="44.30522" lon="5.18391">
        <ele>456.8</ele>
        <time>2022-07-19T09:45:03Z</time>
      </trkpt>
      <trkpt lat="44.30523" lon="5.1839">
        <ele>456.9</ele>
        <time>2022-07-19T09:45:04Z</time>
      </trkpt>
      <trkpt lat="44.30524" lon="5.18386">
        <ele>457.1</ele>
        <time>2022-07-19T09:45:05Z</time>
      </trkpt>
      <trkpt lat="44.30524" lon="5.18385">
        <ele>457.2</ele>
        <time>2022-07-19T09:45:06Z</time>
      </trkpt>
      <trkpt lat="44.30525" lon="5.18383">
        <ele>457.3</ele>
        <time>2022-07-19T09:45:07Z</time>
      </trkpt>
      <trkpt lat="44.30525" lon="5.1838">
        <ele>457.5</ele>
        <time>2022-07-19T09:45:08Z</time>
      </trkpt>
      <trkpt lat="44.30527" lon="5.18376">
        <ele>457.8</ele>
        <time>2022-07-19T09:45:09Z</time>
      </trkpt>
      <trkpt lat="44.30527" lon="5.18375">
        <ele>457.9</ele>
        <time>2022-07-19T09:45:10Z</time>
      </trkpt>
      <trkpt lat="44.30529" lon="5.1837">
        <ele>458.2</ele>
        <time>2022-07-19T09:45:11Z</time>
      </trkpt>
      <trkpt lat="44.3053" lon="5.18369">
        <ele>458.3</ele>
        <time>2022-07-19T09:45:12Z</time>
      </trkpt>
      <trkpt lat="44.30532" lon="5.18366">
        <ele>458.5</ele>
        <time>2022-07-19T09:45:13Z</time>
      </trkpt>
      <trkpt lat="44.30533" lon="5.18366">
        <ele>458.6</ele>
        <time>2022-07-19T09:45:14Z</time>
      </trkpt>
      <trkpt lat="44.30535" lon="5.18365">
        <ele>458.8</ele>
        <time>2022-07-19T09:45:15Z</time>
      </trkpt>
      <trkpt lat="44.30536" lon="5.18365">
        <ele>458.9</ele>
        <time>2022-07-19T09:45:16Z</time>
      </trkpt>
      <trkpt lat="44.30539" lon="5.18366">
        <ele>459.1</ele>
        <time>2022-07-19T09:45:17Z</time>
      </trkpt>
      <trkpt lat="44.3054" lon="5.18367">
        <ele>459.1</ele>
        <time>2022-07-19T09:45:18Z</time>
      </trkpt>
      <trkpt lat="44.30542" lon="5.18368">
        <ele>459.3</ele>
        <time>2022-07-19T09:45:19Z</time>
      </trkpt>
      <trkpt lat="44.30543" lon="5.18368">
        <ele>459.4</ele>
        <time>2022-07-19T09:45:20Z</time>
      </trkpt>
      <trkpt lat="44.30545" lon="5.18369">
        <ele>459.5</ele>
        <time>2022-07-19T09:45:21Z</time>
      </trkpt>
      <trkpt lat="44.30546" lon="5.1837">
        <ele>459.6</ele>
        <time>2022-07-19T09:45:22Z</time>
      </trkpt>
      <trkpt lat="44.30548" lon="5.18371">
        <ele>459.7</ele>
        <time>2022-07-19T09:45:23Z</time>
      </trkpt>
      <trkpt lat="44.3055" lon="5.18372">
        <ele>459.8</ele>
        <time>2022-07-19T09:45:24Z</time>
      </trkpt>
      <trkpt lat="44.30553" lon="5.18372">
        <ele>460</ele>
        <time>2022-07-19T09:45:25Z</time>
      </trkpt>
      <trkpt lat="44.30554" lon="5.18372">
        <ele>460.1</ele>
        <time>2022-07-19T09:45:26Z</time>
      </trkpt>
      <trkpt lat="44.30556" lon="5.18372">
        <ele>460.3</ele>
        <time>2022-07-19T09:45:27Z</time>
      </trkpt>
      <trkpt lat="44.30557" lon="5.18372">
        <ele>460.3</ele>
        <time>2022-07-19T09:45:28Z</time>
      </trkpt>
      <trkpt lat="44.3056" lon="5.18371">
        <ele>460.5</ele>
        <time>2022-07-19T09:45:29Z</time>
      </trkpt>
      <trkpt lat="44.30561" lon="5.18371">
        <ele>460.6</ele>
        <time>2022-07-19T09:45:30Z</time>
      </trkpt>
      <trkpt lat="44.30564" lon="5.18372">
        <ele>460.8</ele>
        <time>2022-07-19T09:45:31Z</time>
      </trkpt>
      <trkpt lat="44.30565" lon="5.18372">
        <ele>460.8</ele>
        <time>2022-07-19T09:45:32Z</time>
      </trkpt>
      <trkpt lat="44.30568" lon="5.18373">
        <ele>461</ele>
        <time>2022-07-19T09:45:33Z</time>
      </trkpt>
      <trkpt lat="44.30569" lon="5.18373">
        <ele>461</ele>
        <time>2022-07-19T09:45:34Z</time>
      </trkpt>
      <trkpt lat="44.30572" lon="5.18375">
        <ele>461.2</ele>
        <time>2022-07-19T09:45:35Z</time>
      </trkpt>
      <trkpt lat="44.30573" lon="5.18375">
        <ele>461.2</ele>
        <time>2022-07-19T09:45:36Z</time>
      </trkpt>
      <trkpt lat="44.30575" lon="5.18377">
        <ele>461.4</ele>
        <time>2022-07-19T09:45:37Z</time>
      </trkpt>
      <trkpt lat="44.30576" lon="5.18378">
        <ele>461.4</ele>
        <time>2022-07-19T09:45:38Z</time>
      </trkpt>
      <trkpt lat="44.30579" lon="5.18379">
        <ele>461.6</ele>
        <time>2022-07-19T09:45:39Z</time>
      </trkpt>
      <trkpt lat="44.3058" lon="5.1838">
        <ele>461.6</ele>
        <time>2022-07-19T09:45:40Z</time>
      </trkpt>
      <trkpt lat="44.30582" lon="5.1838">
        <ele>461.8</ele>
        <time>2022-07-19T09:45:41Z</time>
      </trkpt>
      <trkpt lat="44.30583" lon="5.1838">
        <ele>461.8</ele>
        <time>2022-07-19T09:45:42Z</time>
      </trkpt>
      <trkpt lat="44.30586" lon="5.18379">
        <ele>461.9</ele>
        <time>2022-07-19T09:45:43Z</time>
      </trkpt>
      <trkpt lat="44.30587" lon="5.18379">
        <ele>462</ele>
        <time>2022-07-19T09:45:44Z</time>
      </trkpt>
      <trkpt lat="44.3059" lon="5.18379">
        <ele>462.1</ele>
        <time>2022-07-19T09:45:45Z</time>
      </trkpt>
      <trkpt lat="44.30591" lon="5.18379">
        <ele>462.2</ele>
        <time>2022-07-19T09:45:46Z</time>
      </trkpt>
      <trkpt lat="44.30594" lon="5.18379">
        <ele>462.3</ele>
        <time>2022-07-19T09:45:47Z</time>
      </trkpt>
      <trkpt lat="44.30595" lon="5.18379">
        <ele>462.3</ele>
        <time>2022-07-19T09:45:48Z</time>
      </trkpt>
      <trkpt lat="44.30597" lon="5.18379">
        <ele>462.4</ele>
        <time>2022-07-19T09:45:49Z</time>
      </trkpt>
      <trkpt lat="44.30599" lon="5.18379">
        <ele>462.5</ele>
        <time>2022-07-19T09:45:50Z</time>
      </trkpt>
      <trkpt lat="44.30602" lon="5.18379">
        <ele>462.6</ele>
        <time>2022-07-19T09:45:51Z</time>
      </trkpt>
      <trkpt lat="44.30603" lon="5.18379">
        <ele>462.6</ele>
        <time>2022-07-19T09:45:52Z</time>
      </trkpt>
      <trkpt lat="44.30606" lon="5.18379">
        <ele>462.8</ele>
        <time>2022-07-19T09:45:53Z</time>
      </trkpt>
      <trkpt lat="44.30607" lon="5.18378">
        <ele>462.8</ele>
        <time>2022-07-19T09:45:54Z</time>
      </trkpt>
      <trkpt lat="44.30611" lon="5.18378">
        <ele>463</ele>
        <time>2022-07-19T09:45:55Z</time>
      </trkpt>
      <trkpt lat="44.30612" lon="5.18378">
        <ele>463</ele>
        <time>2022-07-19T09:45:56Z</time>
      </trkpt>
      <trkpt lat="44.30615" lon="5.18378">
        <ele>463.1</ele>
        <time>2022-07-19T09:45:57Z</time>
      </trkpt>
      <trkpt lat="44.30616" lon="5.18378">
        <ele>463.2</ele>
        <time>2022-07-19T09:45:58Z</time>
      </trkpt>
      <trkpt lat="44.30619" lon="5.18378">
        <ele>463.3</ele>
        <time>2022-07-19T09:45:59Z</time>
      </trkpt>
      <trkpt lat="44.30621" lon="5.18378">
        <ele>463.4</ele>
        <time>2022-07-19T09:46:00Z</time>
      </trkpt>
      <trkpt lat="44.30624" lon="5.18379">
        <ele>463.5</ele>
        <time>2022-07-19T09:46:01Z</time>
      </trkpt>
      <trkpt lat="44.30626" lon="5.1838">
        <ele>463.6</ele>
        <time>2022-07-19T09:46:02Z</time>
      </trkpt>
      <trkpt lat="44.30629" lon="5.18381">
        <ele>463.7</ele>
        <time>2022-07-19T09:46:03Z</time>
      </trkpt>
      <trkpt lat="44.3063" lon="5.18381">
        <ele>463.8</ele>
        <time>2022-07-19T09:46:04Z</time>
      </trkpt>
      <trkpt lat="44.30634" lon="5.18382">
        <ele>463.9</ele>
        <time>2022-07-19T09:46:05Z</time>
      </trkpt>
      <trkpt lat="44.30635" lon="5.18382">
        <ele>464</ele>
        <time>2022-07-19T09:46:06Z</time>
      </trkpt>
      <trkpt lat="44.30638" lon="5.18383">
        <ele>464.1</ele>
        <time>2022-07-19T09:46:07Z</time>
      </trkpt>
      <trkpt lat="44.30639" lon="5.18383">
        <ele>464.2</ele>
        <time>2022-07-19T09:46:08Z</time>
      </trkpt>
      <trkpt lat="44.30642" lon="5.18384">
        <ele>464.4</ele>
        <time>2022-07-19T09:46:09Z</time>
      </trkpt>
      <trkpt lat="44.30643" lon="5.18384">
        <ele>464.4</ele>
        <time>2022-07-19T09:46:10Z</time>
      </trkpt>
      <trkpt lat="44.30646" lon="5.18385">
        <ele>464.6</ele>
        <time>2022-07-19T09:46:11Z</time>
      </trkpt>
      <trkpt lat="44.30648" lon="5.18385">
        <ele>464.6</ele>
        <time>2022-07-19T09:46:12Z</time>
      </trkpt>
      <trkpt lat="44.30651" lon="5.18385">
        <ele>464.8</ele>
        <time>2022-07-19T09:46:13Z</time>
      </trkpt>
      <trkpt lat="44.30652" lon="5.18386">
        <ele>464.8</ele>
        <time>2022-07-19T09:46:14Z</time>
      </trkpt>
      <trkpt lat="44.30654" lon="5.18387">
        <ele>465</ele>
        <time>2022-07-19T09:46:15Z</time>
      </trkpt>
      <trkpt lat="44.30655" lon="5.18387">
        <ele>465</ele>
        <time>2022-07-19T09:46:16Z</time>
      </trkpt>
      <trkpt lat="44.30659" lon="5.18388">
        <ele>465.2</ele>
        <time>2022-07-19T09:46:17Z</time>
      </trkpt>
      <trkpt lat="44.3066" lon="5.18388">
        <ele>465.2</ele>
        <time>2022-07-19T09:46:18Z</time>
      </trkpt>
      <trkpt lat="44.30663" lon="5.18389">
        <ele>465.4</ele>
        <time>2022-07-19T09:46:19Z</time>
      </trkpt>
      <trkpt lat="44.30664" lon="5.18389">
        <ele>465.5</ele>
        <time>2022-07-19T09:46:20Z</time>
      </trkpt>
      <trkpt lat="44.30668" lon="5.1839">
        <ele>465.6</ele>
        <time>2022-07-19T09:46:21Z</time>
      </trkpt>
      <trkpt lat="44.30669" lon="5.1839">
        <ele>465.7</ele>
        <time>2022-07-19T09:46:22Z</time>
      </trkpt>
      <trkpt lat="44.30672" lon="5.18391">
        <ele>465.9</ele>
        <time>2022-07-19T09:46:23Z</time>
      </trkpt>
      <trkpt lat="44.30674" lon="5.18391">
        <ele>466</ele>
        <time>2022-07-19T09:46:24Z</time>
      </trkpt>
      <trkpt lat="44.30678" lon="5.18392">
        <ele>466.2</ele>
        <time>2022-07-19T09:46:25Z</time>
      </trkpt>
      <trkpt lat="44.30679" lon="5.18392">
        <ele>466.2</ele>
        <time>2022-07-19T09:46:26Z</time>
      </trkpt>
      <trkpt lat="44.30682" lon="5.18393">
        <ele>466.4</ele>
        <time>2022-07-19T09:46:27Z</time>
      </trkpt>
      <trkpt lat="44.30683" lon="5.18393">
        <ele>466.5</ele>
        <time>2022-07-19T09:46:28Z</time>
      </trkpt>
      <trkpt lat="44.30687" lon="5.18394">
        <ele>466.7</ele>
        <time>2022-07-19T09:46:29Z</time>
      </trkpt>
      <trkpt lat="44.30688" lon="5.18395">
        <ele>466.7</ele>
        <time>2022-07-19T09:46:30Z</time>
      </trkpt>
      <trkpt lat="44.30691" lon="5.18396">
        <ele>466.9</ele>
        <time>2022-07-19T09:46:31Z</time>
      </trkpt>
      <trkpt lat="44.30692" lon="5.18396">
        <ele>467</ele>
        <time>2022-07-19T09:46:32Z</time>
      </trkpt>
      <trkpt lat="44.30695" lon="5.18396">
        <ele>467.2</ele>
        <time>2022-07-19T09:46:33Z</time>
      </trkpt>
      <trkpt lat="44.30696" lon="5.18396">
        <ele>467.2</ele>
        <time>2022-07-19T09:46:34Z</time>
      </trkpt>
      <trkpt lat="44.30699" lon="5.18397">
        <ele>467.4</ele>
        <time>2022-07-19T09:46:35Z</time>
      </trkpt>
      <trkpt lat="44.307" lon="5.18397">
        <ele>467.5</ele>
        <time>2022-07-19T09:46:36Z</time>
      </trkpt>
      <trkpt lat="44.30704" lon="5.18398">
        <ele>467.6</ele>
        <time>2022-07-19T09:46:37Z</time>
      </trkpt>
      <trkpt lat="44.30705" lon="5.18398">
        <ele>467.7</ele>
        <time>2022-07-19T09:46:38Z</time>
      </trkpt>
      <trkpt lat="44.30708" lon="5.18398">
        <ele>467.9</ele>
        <time>2022-07-19T09:46:39Z</time>
      </trkpt>
      <trkpt lat="44.30709" lon="5.18398">
        <ele>467.9</ele>
        <time>2022-07-19T09:46:40Z</time>
      </trkpt>
      <trkpt lat="44.30712" lon="5.18398">
        <ele>468.1</ele>
        <time>2022-07-19T09:46:41Z</time>
      </trkpt>
      <trkpt lat="44.30713" lon="5.18398">
        <ele>468.2</ele>
        <time>2022-07-19T09:46:42Z</time>
      </trkpt>
      <trkpt lat="44.30717" lon="5.18398">
        <ele>468.4</ele>
        <time>2022-07-19T09:46:43Z</time>
      </trkpt>
      <trkpt lat="44.30718" lon="5.18398">
        <ele>468.4</ele>
        <time>2022-07-19T09:46:44Z</time>
      </trkpt>
      <trkpt lat="44.30722" lon="5.18397">
        <ele>468.6</ele>
        <time>2022-07-19T09:46:45Z</time>
      </trkpt>
      <trkpt lat="44.30723" lon="5.18397">
        <ele>468.7</ele>
        <time>2022-07-19T09:46:46Z</time>
      </trkpt>
      <trkpt lat="44.30726" lon="5.18397">
        <ele>468.9</ele>
        <time>2022-07-19T09:46:47Z</time>
      </trkpt>
      <trkpt lat="44.30727" lon="5.18397">
        <ele>468.9</ele>
        <time>2022-07-19T09:46:48Z</time>
      </trkpt>
      <trkpt lat="44.30731" lon="5.18396">
        <ele>469.1</ele>
        <time>2022-07-19T09:46:49Z</time>
      </trkpt>
      <trkpt lat="44.30732" lon="5.18396">
        <ele>469.2</ele>
        <time>2022-07-19T09:46:50Z</time>
      </trkpt>
      <trkpt lat="44.30735" lon="5.18396">
        <ele>469.4</ele>
        <time>2022-07-19T09:46:51Z</time>
      </trkpt>
      <trkpt lat="44.30736" lon="5.18396">
        <ele>469.4</ele>
        <time>2022-07-19T09:46:52Z</time>
      </trkpt>
      <trkpt lat="44.30739" lon="5.18396">
        <ele>469.6</ele>
        <time>2022-07-19T09:46:53Z</time>
      </trkpt>
      <trkpt lat="44.30741" lon="5.18396">
        <ele>469.7</ele>
        <time>2022-07-19T09:46:54Z</time>
      </trkpt>
      <trkpt lat="44.30744" lon="5.18395">
        <ele>469.9</ele>
        <time>2022-07-19T09:46:55Z</time>
      </trkpt>
      <trkpt lat="44.30745" lon="5.18395">
        <ele>470</ele>
        <time>2022-07-19T09:46:56Z</time>
      </trkpt>
      <trkpt lat="44.30749" lon="5.18394">
        <ele>470.2</ele>
        <time>2022-07-19T09:46:57Z</time>
      </trkpt>
      <trkpt lat="44.3075" lon="5.18394">
        <ele>470.3</ele>
        <time>2022-07-19T09:46:58Z</time>
      </trkpt>
      <trkpt lat="44.30753" lon="5.18394">
        <ele>470.5</ele>
        <time>2022-07-19T09:46:59Z</time>
      </trkpt>
      <trkpt lat="44.30754" lon="5.18393">
        <ele>470.5</ele>
        <time>2022-07-19T09:47:00Z</time>
      </trkpt>
      <trkpt lat="44.30755" lon="5.18393">
        <ele>470.6</ele>
        <time>2022-07-19T09:47:01Z</time>
      </trkpt>
      <trkpt lat="44.30757" lon="5.18393">
        <ele>470.7</ele>
        <time>2022-07-19T09:47:02Z</time>
      </trkpt>
      <trkpt lat="44.30758" lon="5.18393">
        <ele>470.8</ele>
        <time>2022-07-19T09:47:03Z</time>
      </trkpt>
      <trkpt lat="44.3076" lon="5.18394">
        <ele>470.9</ele>
        <time>2022-07-19T09:47:04Z</time>
      </trkpt>
      <trkpt lat="44.30763" lon="5.18395">
        <ele>471.1</ele>
        <time>2022-07-19T09:47:05Z</time>
      </trkpt>
      <trkpt lat="44.30764" lon="5.18395">
        <ele>471.2</ele>
        <time>2022-07-19T09:47:06Z</time>
      </trkpt>
      <trkpt lat="44.30767" lon="5.18397">
        <ele>471.3</ele>
        <time>2022-07-19T09:47:07Z</time>
      </trkpt>
      <trkpt lat="44.30767" lon="5.18398">
        <ele>471.4</ele>
        <time>2022-07-19T09:47:08Z</time>
      </trkpt>
      <trkpt lat="44.3077" lon="5.18401">
        <ele>471.5</ele>
        <time>2022-07-19T09:47:09Z</time>
      </trkpt>
      <trkpt lat="44.30771" lon="5.18402">
        <ele>471.6</ele>
        <time>2022-07-19T09:47:10Z</time>
      </trkpt>
      <trkpt lat="44.30774" lon="5.18402">
        <ele>471.8</ele>
        <time>2022-07-19T09:47:11Z</time>
      </trkpt>
      <trkpt lat="44.30776" lon="5.18401">
        <ele>471.8</ele>
        <time>2022-07-19T09:47:12Z</time>
      </trkpt>
      <trkpt lat="44.30779" lon="5.18401">
        <ele>471.9</ele>
        <time>2022-07-19T09:47:13Z</time>
      </trkpt>
      <trkpt lat="44.30783" lon="5.184">
        <ele>472.1</ele>
        <time>2022-07-19T09:47:14Z</time>
      </trkpt>
      <trkpt lat="44.30784" lon="5.184">
        <ele>472.2</ele>
        <time>2022-07-19T09:47:15Z</time>
      </trkpt>
      <trkpt lat="44.30787" lon="5.18399">
        <ele>472.3</ele>
        <time>2022-07-19T09:47:16Z</time>
      </trkpt>
      <trkpt lat="44.3079" lon="5.18398">
        <ele>472.4</ele>
        <time>2022-07-19T09:47:17Z</time>
      </trkpt>
      <trkpt lat="44.30791" lon="5.18398">
        <ele>472.4</ele>
        <time>2022-07-19T09:47:18Z</time>
      </trkpt>
      <trkpt lat="44.30793" lon="5.18398">
        <ele>472.5</ele>
        <time>2022-07-19T09:47:19Z</time>
      </trkpt>
      <trkpt lat="44.30796" lon="5.18397">
        <ele>472.6</ele>
        <time>2022-07-19T09:47:20Z</time>
      </trkpt>
      <trkpt lat="44.30797" lon="5.18397">
        <ele>472.6</ele>
        <time>2022-07-19T09:47:21Z</time>
      </trkpt>
      <trkpt lat="44.30799" lon="5.18397">
        <ele>472.7</ele>
        <time>2022-07-19T09:47:22Z</time>
      </trkpt>
      <trkpt lat="44.308" lon="5.18398">
        <ele>472.8</ele>
        <time>2022-07-19T09:47:23Z</time>
      </trkpt>
      <trkpt lat="44.30801" lon="5.18398">
        <ele>472.8</ele>
        <time>2022-07-19T09:47:24Z</time>
      </trkpt>
      <trkpt lat="44.30802" lon="5.18399">
        <ele>472.8</ele>
        <time>2022-07-19T09:47:25Z</time>
      </trkpt>
      <trkpt lat="44.30803" lon="5.184">
        <ele>472.9</ele>
        <time>2022-07-19T09:47:26Z</time>
      </trkpt>
      <trkpt lat="44.30803" lon="5.184">
        <ele>472.9</ele>
        <time>2022-07-19T09:47:27Z</time>
      </trkpt>
      <trkpt lat="44.30803" lon="5.184">
        <ele>472.9</ele>
        <time>2022-07-19T09:47:28Z</time>
      </trkpt>
      <trkpt lat="44.30803" lon="5.184">
        <ele>472.9</ele>
        <time>2022-07-19T09:47:29Z</time>
      </trkpt>
      <trkpt lat="44.30803" lon="5.184">
        <ele>472.9</ele>
        <time>2022-07-19T09:47:30Z</time>
      </trkpt>
      <trkpt lat="44.30803" lon="5.184">
        <ele>472.9</ele>
        <time>2022-07-19T09:47:31Z</time>
      </trkpt>
      <trkpt lat="44.30803" lon="5.184">
        <ele>472.9</ele>
        <time>2022-07-19T09:47:32Z</time>
      </trkpt>
      <trkpt lat="44.30803" lon="5.184">
        <ele>472.9</ele>
        <time>2022-07-19T09:47:33Z</time>
      </trkpt>
      <trkpt lat="44.30803" lon="5.184">
        <ele>472.9</ele>
        <time>2022-07-19T09:47:34Z</time>
      </trkpt>
      <trkpt lat="44.30803" lon="5.184">
        <ele>472.9</ele>
        <time>2022-07-19T09:47:35Z</time>
      </trkpt>
      <trkpt lat="44.30809" lon="5.18401">
        <ele>473</ele>
        <time>2022-07-19T09:47:42Z</time>
      </trkpt>
      <trkpt lat="44.3081" lon="5.18401">
        <ele>473.1</ele>
        <time>2022-07-19T09:47:43Z</time>
      </trkpt>
      <trkpt lat="44.30811" lon="5.18402">
        <ele>473.1</ele>
        <time>2022-07-19T09:47:44Z</time>
      </trkpt>
      <trkpt lat="44.30812" lon="5.18402">
        <ele>473.1</ele>
        <time>2022-07-19T09:47:45Z</time>
      </trkpt>
      <trkpt lat="44.30812" lon="5.18402">
        <ele>473.1</ele>
        <time>2022-07-19T09:47:46Z</time>
      </trkpt>
      <trkpt lat="44.30813" lon="5.18403">
        <ele>473.2</ele>
        <time>2022-07-19T09:47:47Z</time>
      </trkpt>
      <trkpt lat="44.30813" lon="5.18403">
        <ele>473.2</ele>
        <time>2022-07-19T09:47:48Z</time>
      </trkpt>
      <trkpt lat="44.30813" lon="5.18403">
        <ele>473.2</ele>
        <time>2022-07-19T09:47:49Z</time>
      </trkpt>
      <trkpt lat="44.30813" lon="5.18403">
        <ele>473.2</ele>
        <time>2022-07-19T09:47:50Z</time>
      </trkpt>
      <trkpt lat="44.30813" lon="5.18403">
        <ele>473.2</ele>
        <time>2022-07-19T09:47:51Z</time>
      </trkpt>
      <trkpt lat="44.30813" lon="5.18403">
        <ele>473.2</ele>
        <time>2022-07-19T09:47:52Z</time>
      </trkpt>
      <trkpt lat="44.30813" lon="5.18403">
        <ele>473.2</ele>
        <time>2022-07-19T09:47:53Z</time>
      </trkpt>
    </trkseg>
  </trk>
</gpx>